<?xml version="1.0" encoding="UTF-8" standalone="no" ?>
<gpx xmlns="http://www.topografix.com/GPX/1/1" xmlns:xsi="http://www.w3.org/2001/XMLSchema-instance" xsi:schemaLocation="http://www.topografix.com/GPX/1/1 http://www.topografix.com/GPX/1/1/gpx.xsd" version="1.1" creator="VisuGPX - https://www.visugpx.com">
  <metadata>
    <name>Des Mouettes aux Cigales 2021</name>
  </metadata>
  <trk>
    <name><![CDATA[Étape 1 : Cherbourg - Vire]]></name>
    <extensions>
      <line xmlns="http://www.topografix.com/GPX/gpx_style/0/2">
        <color>0000FF</color>
        <width>4</width>
      </line>
    </extensions>
    <trkseg>
      <trkpt lat="49.65944" lon="-1.67547">
        <ele>10.994441</ele>
        <time>2021-09-05T07:38:05.000Z</time>
      </trkpt>
      <trkpt lat="49.65945" lon="-1.67545">
        <ele>10.994441</ele>
        <time>2021-09-05T07:38:20.000Z</time>
      </trkpt>
      <trkpt lat="49.65953" lon="-1.67535">
        <ele>10.994441</ele>
        <time>2021-09-05T07:38:25.000Z</time>
      </trkpt>
      <trkpt lat="49.65951" lon="-1.67518">
        <ele>10.994441</ele>
        <time>2021-09-05T07:38:28.000Z</time>
      </trkpt>
      <trkpt lat="49.65949" lon="-1.67514">
        <ele>10.994441</ele>
        <time>2021-09-05T07:38:29.000Z</time>
      </trkpt>
      <trkpt lat="49.65943" lon="-1.67504">
        <ele>10.994441</ele>
        <time>2021-09-05T07:38:32.000Z</time>
      </trkpt>
      <trkpt lat="49.65928" lon="-1.67479">
        <ele>10.994441</ele>
        <time>2021-09-05T07:38:36.000Z</time>
      </trkpt>
      <trkpt lat="49.65904" lon="-1.6744">
        <ele>10.988871</ele>
        <time>2021-09-05T07:38:43.000Z</time>
      </trkpt>
      <trkpt lat="49.65885" lon="-1.67408">
        <ele>10.926741</ele>
        <time>2021-09-05T07:38:49.000Z</time>
      </trkpt>
      <trkpt lat="49.65863" lon="-1.67372">
        <ele>10.854279</ele>
        <time>2021-09-05T07:38:56.000Z</time>
      </trkpt>
      <trkpt lat="49.6584" lon="-1.67333">
        <ele>10.777009</ele>
        <time>2021-09-05T07:39:04.000Z</time>
      </trkpt>
      <trkpt lat="49.65826" lon="-1.67309">
        <ele>10.7295</ele>
        <time>2021-09-05T07:39:10.000Z</time>
      </trkpt>
      <trkpt lat="49.65806" lon="-1.67272">
        <ele>10.660725</ele>
        <time>2021-09-05T07:39:16.000Z</time>
      </trkpt>
      <trkpt lat="49.65804" lon="-1.67267">
        <ele>10.651193</ele>
        <time>2021-09-05T07:39:17.000Z</time>
      </trkpt>
      <trkpt lat="49.65788" lon="-1.67226">
        <ele>10.568942</ele>
        <time>2021-09-05T07:39:24.000Z</time>
      </trkpt>
      <trkpt lat="49.65786" lon="-1.67219">
        <ele>10.545307</ele>
        <time>2021-09-05T07:39:25.000Z</time>
      </trkpt>
      <trkpt lat="49.65778" lon="-1.67188">
        <ele>10.429621</ele>
        <time>2021-09-05T07:39:30.000Z</time>
      </trkpt>
      <trkpt lat="49.65777" lon="-1.67183">
        <ele>10.40811</ele>
        <time>2021-09-05T07:39:31.000Z</time>
      </trkpt>
      <trkpt lat="49.65771" lon="-1.6715">
        <ele>10.290177</ele>
        <time>2021-09-05T07:39:36.000Z</time>
      </trkpt>
      <trkpt lat="49.6577" lon="-1.67136">
        <ele>10.240081</ele>
        <time>2021-09-05T07:39:38.000Z</time>
      </trkpt>
      <trkpt lat="49.65766" lon="-1.67109">
        <ele>10.145191</ele>
        <time>2021-09-05T07:39:42.000Z</time>
      </trkpt>
      <trkpt lat="49.65764" lon="-1.67073">
        <ele>10.019944</ele>
        <time>2021-09-05T07:39:47.000Z</time>
      </trkpt>
      <trkpt lat="49.65764" lon="-1.67067">
        <ele>9.996931</ele>
        <time>2021-09-05T07:39:48.000Z</time>
      </trkpt>
      <trkpt lat="49.65765" lon="-1.67041">
        <ele>9.906612</ele>
        <time>2021-09-05T07:39:52.000Z</time>
      </trkpt>
      <trkpt lat="49.65767" lon="-1.6702">
        <ele>9.834272</ele>
        <time>2021-09-05T07:39:55.000Z</time>
      </trkpt>
      <trkpt lat="49.65767" lon="-1.67013">
        <ele>9.809431</ele>
        <time>2021-09-05T07:39:56.000Z</time>
      </trkpt>
      <trkpt lat="49.65769" lon="-1.66979">
        <ele>9.691561</ele>
        <time>2021-09-05T07:40:01.000Z</time>
      </trkpt>
      <trkpt lat="49.65772" lon="-1.66925">
        <ele>9.609546</ele>
        <time>2021-09-05T07:40:10.000Z</time>
      </trkpt>
      <trkpt lat="49.65775" lon="-1.6689">
        <ele>9.595437</ele>
        <time>2021-09-05T07:40:16.000Z</time>
      </trkpt>
      <trkpt lat="49.6578" lon="-1.66858">
        <ele>9.58254</ele>
        <time>2021-09-05T07:40:22.000Z</time>
      </trkpt>
      <trkpt lat="49.65791" lon="-1.66831">
        <ele>9.569505</ele>
        <time>2021-09-05T07:40:28.000Z</time>
      </trkpt>
      <trkpt lat="49.65793" lon="-1.66797">
        <ele>9.555984</ele>
        <time>2021-09-05T07:40:34.000Z</time>
      </trkpt>
      <trkpt lat="49.65791" lon="-1.66786">
        <ele>9.551346</ele>
        <time>2021-09-05T07:40:36.000Z</time>
      </trkpt>
      <trkpt lat="49.65782" lon="-1.6676">
        <ele>9.539422</ele>
        <time>2021-09-05T07:40:40.000Z</time>
      </trkpt>
      <trkpt lat="49.6578" lon="-1.66753">
        <ele>9.536578</ele>
        <time>2021-09-05T07:40:41.000Z</time>
      </trkpt>
      <trkpt lat="49.65777" lon="-1.66738">
        <ele>9.530397</ele>
        <time>2021-09-05T07:40:43.000Z</time>
      </trkpt>
      <trkpt lat="49.65776" lon="-1.66731">
        <ele>9.527343</ele>
        <time>2021-09-05T07:40:44.000Z</time>
      </trkpt>
      <trkpt lat="49.6578" lon="-1.66676">
        <ele>9.49337</ele>
        <time>2021-09-05T07:40:51.000Z</time>
      </trkpt>
      <trkpt lat="49.65784" lon="-1.66623">
        <ele>9.438371</ele>
        <time>2021-09-05T07:40:58.000Z</time>
      </trkpt>
      <trkpt lat="49.65786" lon="-1.66602">
        <ele>9.416021</ele>
        <time>2021-09-05T07:41:01.000Z</time>
      </trkpt>
      <trkpt lat="49.65787" lon="-1.66589">
        <ele>9.402792</ele>
        <time>2021-09-05T07:41:03.000Z</time>
      </trkpt>
      <trkpt lat="49.65788" lon="-1.66583">
        <ele>9.396291</ele>
        <time>2021-09-05T07:41:04.000Z</time>
      </trkpt>
      <trkpt lat="49.65791" lon="-1.66546">
        <ele>9.357885</ele>
        <time>2021-09-05T07:41:09.000Z</time>
      </trkpt>
      <trkpt lat="49.65792" lon="-1.66538">
        <ele>9.349486</ele>
        <time>2021-09-05T07:41:10.000Z</time>
      </trkpt>
      <trkpt lat="49.65797" lon="-1.66481">
        <ele>9.288812</ele>
        <time>2021-09-05T07:41:17.000Z</time>
      </trkpt>
      <trkpt lat="49.65797" lon="-1.66472">
        <ele>9.279896</ele>
        <time>2021-09-05T07:41:18.000Z</time>
      </trkpt>
      <trkpt lat="49.658" lon="-1.66455">
        <ele>9.261656</ele>
        <time>2021-09-05T07:41:20.000Z</time>
      </trkpt>
      <trkpt lat="49.65801" lon="-1.66447">
        <ele>9.25259</ele>
        <time>2021-09-05T07:41:21.000Z</time>
      </trkpt>
      <trkpt lat="49.65802" lon="-1.66429">
        <ele>9.234531</ele>
        <time>2021-09-05T07:41:23.000Z</time>
      </trkpt>
      <trkpt lat="49.65802" lon="-1.66403">
        <ele>9.207898</ele>
        <time>2021-09-05T07:41:26.000Z</time>
      </trkpt>
      <trkpt lat="49.65802" lon="-1.6633">
        <ele>9.13494</ele>
        <time>2021-09-05T07:41:34.000Z</time>
      </trkpt>
      <trkpt lat="49.65802" lon="-1.66257">
        <ele>9.06218</ele>
        <time>2021-09-05T07:41:42.000Z</time>
      </trkpt>
      <trkpt lat="49.65797" lon="-1.66191">
        <ele>8.995339</ele>
        <time>2021-09-05T07:41:49.000Z</time>
      </trkpt>
      <trkpt lat="49.6579" lon="-1.66135">
        <ele>8.951148</ele>
        <time>2021-09-05T07:41:55.000Z</time>
      </trkpt>
      <trkpt lat="49.65778" lon="-1.6605">
        <ele>9.022395</ele>
        <time>2021-09-05T07:42:04.000Z</time>
      </trkpt>
      <trkpt lat="49.65767" lon="-1.65972">
        <ele>9.086825</ele>
        <time>2021-09-05T07:42:12.000Z</time>
      </trkpt>
      <trkpt lat="49.65762" lon="-1.65902">
        <ele>9.144062</ele>
        <time>2021-09-05T07:42:19.000Z</time>
      </trkpt>
      <trkpt lat="49.65761" lon="-1.65882">
        <ele>9.160737</ele>
        <time>2021-09-05T07:42:21.000Z</time>
      </trkpt>
      <trkpt lat="49.65758" lon="-1.65864">
        <ele>9.186984</ele>
        <time>2021-09-05T07:42:23.000Z</time>
      </trkpt>
      <trkpt lat="49.65754" lon="-1.65848">
        <ele>9.236262</ele>
        <time>2021-09-05T07:42:25.000Z</time>
      </trkpt>
      <trkpt lat="49.6575" lon="-1.65833">
        <ele>9.281738</ele>
        <time>2021-09-05T07:42:27.000Z</time>
      </trkpt>
      <trkpt lat="49.65748" lon="-1.65825">
        <ele>9.304931</ele>
        <time>2021-09-05T07:42:28.000Z</time>
      </trkpt>
      <trkpt lat="49.65747" lon="-1.65817">
        <ele>9.328292</ele>
        <time>2021-09-05T07:42:29.000Z</time>
      </trkpt>
      <trkpt lat="49.65745" lon="-1.65773">
        <ele>9.452702</ele>
        <time>2021-09-05T07:42:34.000Z</time>
      </trkpt>
      <trkpt lat="49.65742" lon="-1.6571">
        <ele>9.632292</ele>
        <time>2021-09-05T07:42:41.000Z</time>
      </trkpt>
      <trkpt lat="49.65736" lon="-1.65655">
        <ele>9.788934</ele>
        <time>2021-09-05T07:42:47.000Z</time>
      </trkpt>
      <trkpt lat="49.65735" lon="-1.65646">
        <ele>9.815439</ele>
        <time>2021-09-05T07:42:48.000Z</time>
      </trkpt>
      <trkpt lat="49.65731" lon="-1.65619">
        <ele>9.893627</ele>
        <time>2021-09-05T07:42:51.000Z</time>
      </trkpt>
      <trkpt lat="49.65727" lon="-1.65591">
        <ele>9.961104</ele>
        <time>2021-09-05T07:42:54.000Z</time>
      </trkpt>
      <trkpt lat="49.6571" lon="-1.65522">
        <ele>9.992369</ele>
        <time>2021-09-05T07:43:02.000Z</time>
      </trkpt>
      <trkpt lat="49.6569" lon="-1.65461">
        <ele>10.020793</ele>
        <time>2021-09-05T07:43:09.000Z</time>
      </trkpt>
      <trkpt lat="49.65663" lon="-1.65381">
        <ele>10.058748</ele>
        <time>2021-09-05T07:43:17.000Z</time>
      </trkpt>
      <trkpt lat="49.6566" lon="-1.65371">
        <ele>10.06356</ele>
        <time>2021-09-05T07:43:18.000Z</time>
      </trkpt>
      <trkpt lat="49.65655" lon="-1.6535">
        <ele>10.072881</ele>
        <time>2021-09-05T07:43:20.000Z</time>
      </trkpt>
      <trkpt lat="49.65653" lon="-1.65339">
        <ele>10.102065</ele>
        <time>2021-09-05T07:43:21.000Z</time>
      </trkpt>
      <trkpt lat="49.65634" lon="-1.65279">
        <ele>10.440517</ele>
        <time>2021-09-05T07:43:27.000Z</time>
      </trkpt>
      <trkpt lat="49.65621" lon="-1.65226">
        <ele>10.730038</ele>
        <time>2021-09-05T07:43:33.000Z</time>
      </trkpt>
      <trkpt lat="49.6562" lon="-1.65209">
        <ele>10.814238</ele>
        <time>2021-09-05T07:43:35.000Z</time>
      </trkpt>
      <trkpt lat="49.6562" lon="-1.65201">
        <ele>10.855661</ele>
        <time>2021-09-05T07:43:37.000Z</time>
      </trkpt>
      <trkpt lat="49.65614" lon="-1.6517">
        <ele>11.020935</ele>
        <time>2021-09-05T07:43:40.000Z</time>
      </trkpt>
      <trkpt lat="49.65612" lon="-1.65162">
        <ele>11.063698</ele>
        <time>2021-09-05T07:43:41.000Z</time>
      </trkpt>
      <trkpt lat="49.656" lon="-1.65137">
        <ele>11.221359</ele>
        <time>2021-09-05T07:43:45.000Z</time>
      </trkpt>
      <trkpt lat="49.65595" lon="-1.65125">
        <ele>11.294545</ele>
        <time>2021-09-05T07:43:47.000Z</time>
      </trkpt>
      <trkpt lat="49.65577" lon="-1.65097">
        <ele>11.502109</ele>
        <time>2021-09-05T07:43:53.000Z</time>
      </trkpt>
      <trkpt lat="49.65565" lon="-1.65081">
        <ele>11.761817</ele>
        <time>2021-09-05T07:43:57.000Z</time>
      </trkpt>
      <trkpt lat="49.65551" lon="-1.65069">
        <ele>12.021074</ele>
        <time>2021-09-05T07:44:01.000Z</time>
      </trkpt>
      <trkpt lat="49.65543" lon="-1.65064">
        <ele>12.15186</ele>
        <time>2021-09-05T07:44:03.000Z</time>
      </trkpt>
      <trkpt lat="49.65529" lon="-1.65048">
        <ele>12.436406</ele>
        <time>2021-09-05T07:44:07.000Z</time>
      </trkpt>
      <trkpt lat="49.65526" lon="-1.65043">
        <ele>12.509593</ele>
        <time>2021-09-05T07:44:08.000Z</time>
      </trkpt>
      <trkpt lat="49.6552" lon="-1.65033">
        <ele>12.654779</ele>
        <time>2021-09-05T07:44:10.000Z</time>
      </trkpt>
      <trkpt lat="49.65514" lon="-1.65022">
        <ele>12.799649</ele>
        <time>2021-09-05T07:44:13.000Z</time>
      </trkpt>
      <trkpt lat="49.65489" lon="-1.64981">
        <ele>13.399441</ele>
        <time>2021-09-05T07:44:20.000Z</time>
      </trkpt>
      <trkpt lat="49.65469" lon="-1.64958">
        <ele>13.800014</ele>
        <time>2021-09-05T07:44:26.000Z</time>
      </trkpt>
      <trkpt lat="49.65461" lon="-1.6495">
        <ele>13.95433</ele>
        <time>2021-09-05T07:44:27.000Z</time>
      </trkpt>
      <trkpt lat="49.65451" lon="-1.64948">
        <ele>14.111972</ele>
        <time>2021-09-05T07:44:29.000Z</time>
      </trkpt>
      <trkpt lat="49.65442" lon="-1.64942">
        <ele>14.263407</ele>
        <time>2021-09-05T07:44:31.000Z</time>
      </trkpt>
      <trkpt lat="49.65434" lon="-1.64934">
        <ele>14.41151</ele>
        <time>2021-09-05T07:44:33.000Z</time>
      </trkpt>
      <trkpt lat="49.65427" lon="-1.64923">
        <ele>14.487065</ele>
        <time>2021-09-05T07:44:35.000Z</time>
      </trkpt>
      <trkpt lat="49.65423" lon="-1.64908">
        <ele>14.563149</ele>
        <time>2021-09-05T07:44:37.000Z</time>
      </trkpt>
      <trkpt lat="49.65422" lon="-1.64901">
        <ele>14.599366</ele>
        <time>2021-09-05T07:44:39.000Z</time>
      </trkpt>
      <trkpt lat="49.65409" lon="-1.64884">
        <ele>14.724669</ele>
        <time>2021-09-05T07:44:42.000Z</time>
      </trkpt>
      <trkpt lat="49.65401" lon="-1.64879">
        <ele>14.787399</ele>
        <time>2021-09-05T07:44:44.000Z</time>
      </trkpt>
      <trkpt lat="49.65393" lon="-1.64882">
        <ele>14.85228</ele>
        <time>2021-09-05T07:44:46.000Z</time>
      </trkpt>
      <trkpt lat="49.65383" lon="-1.64882">
        <ele>14.927437</ele>
        <time>2021-09-05T07:44:48.000Z</time>
      </trkpt>
      <trkpt lat="49.65368" lon="-1.64868">
        <ele>15.054937</ele>
        <time>2021-09-05T07:44:52.000Z</time>
      </trkpt>
      <trkpt lat="49.6533" lon="-1.64832">
        <ele>15.38413</ele>
        <time>2021-09-05T07:44:59.000Z</time>
      </trkpt>
      <trkpt lat="49.65273" lon="-1.64779">
        <ele>15.76944</ele>
        <time>2021-09-05T07:45:08.000Z</time>
      </trkpt>
      <trkpt lat="49.65222" lon="-1.64728">
        <ele>15.867614</ele>
        <time>2021-09-05T07:45:18.000Z</time>
      </trkpt>
      <trkpt lat="49.65177" lon="-1.64682">
        <ele>15.955914</ele>
        <time>2021-09-05T07:45:25.000Z</time>
      </trkpt>
      <trkpt lat="49.65165" lon="-1.64671">
        <ele>15.978183</ele>
        <time>2021-09-05T07:45:28.000Z</time>
      </trkpt>
      <trkpt lat="49.65115" lon="-1.64621">
        <ele>16.022823</ele>
        <time>2021-09-05T07:45:37.000Z</time>
      </trkpt>
      <trkpt lat="49.65104" lon="-1.64609">
        <ele>16.01929</ele>
        <time>2021-09-05T07:45:39.000Z</time>
      </trkpt>
      <trkpt lat="49.65082" lon="-1.64588">
        <ele>16.012602</ele>
        <time>2021-09-05T07:45:42.000Z</time>
      </trkpt>
      <trkpt lat="49.65054" lon="-1.64559">
        <ele>16.003485</ele>
        <time>2021-09-05T07:45:48.000Z</time>
      </trkpt>
      <trkpt lat="49.65025" lon="-1.64531">
        <ele>15.994526</ele>
        <time>2021-09-05T07:45:55.000Z</time>
      </trkpt>
      <trkpt lat="49.64988" lon="-1.64492">
        <ele>15.982692</ele>
        <time>2021-09-05T07:46:03.000Z</time>
      </trkpt>
      <trkpt lat="49.64974" lon="-1.64477">
        <ele>15.920236</ele>
        <time>2021-09-05T07:46:06.000Z</time>
      </trkpt>
      <trkpt lat="49.6496" lon="-1.64463">
        <ele>15.860088</ele>
        <time>2021-09-05T07:46:08.000Z</time>
      </trkpt>
      <trkpt lat="49.64928" lon="-1.64429">
        <ele>15.720111</ele>
        <time>2021-09-05T07:46:16.000Z</time>
      </trkpt>
      <trkpt lat="49.649" lon="-1.64399">
        <ele>15.59517</ele>
        <time>2021-09-05T07:46:21.000Z</time>
      </trkpt>
      <trkpt lat="49.64865" lon="-1.64364">
        <ele>15.441848</ele>
        <time>2021-09-05T07:46:30.000Z</time>
      </trkpt>
      <trkpt lat="49.64845" lon="-1.64346">
        <ele>15.357686</ele>
        <time>2021-09-05T07:46:33.000Z</time>
      </trkpt>
      <trkpt lat="49.64831" lon="-1.64332">
        <ele>15.263685</ele>
        <time>2021-09-05T07:46:36.000Z</time>
      </trkpt>
      <trkpt lat="49.64806" lon="-1.6431">
        <ele>15.03626</ele>
        <time>2021-09-05T07:46:41.000Z</time>
      </trkpt>
      <trkpt lat="49.64802" lon="-1.64304">
        <ele>14.996875</ele>
        <time>2021-09-05T07:46:43.000Z</time>
      </trkpt>
      <trkpt lat="49.64797" lon="-1.64289">
        <ele>14.907792</ele>
        <time>2021-09-05T07:46:44.000Z</time>
      </trkpt>
      <trkpt lat="49.64789" lon="-1.6424">
        <ele>14.654771</ele>
        <time>2021-09-05T07:46:50.000Z</time>
      </trkpt>
      <trkpt lat="49.64775" lon="-1.64161">
        <ele>14.24388</ele>
        <time>2021-09-05T07:46:57.000Z</time>
      </trkpt>
      <trkpt lat="49.64761" lon="-1.6408">
        <ele>13.828213</ele>
        <time>2021-09-05T07:47:05.000Z</time>
      </trkpt>
      <trkpt lat="49.64755" lon="-1.64048">
        <ele>13.678695</ele>
        <time>2021-09-05T07:47:08.000Z</time>
      </trkpt>
      <trkpt lat="49.64746" lon="-1.63997">
        <ele>13.430976</ele>
        <time>2021-09-05T07:47:14.000Z</time>
      </trkpt>
      <trkpt lat="49.64723" lon="-1.63936">
        <ele>13.107978</ele>
        <time>2021-09-05T07:47:20.000Z</time>
      </trkpt>
      <trkpt lat="49.64699" lon="-1.63898">
        <ele>12.861365</ele>
        <time>2021-09-05T07:47:25.000Z</time>
      </trkpt>
      <trkpt lat="49.64668" lon="-1.63869">
        <ele>12.599822</ele>
        <time>2021-09-05T07:47:30.000Z</time>
      </trkpt>
      <trkpt lat="49.64655" lon="-1.6387">
        <ele>12.496854</ele>
        <time>2021-09-05T07:47:32.000Z</time>
      </trkpt>
      <trkpt lat="49.64649" lon="-1.6387">
        <ele>12.452179</ele>
        <time>2021-09-05T07:47:33.000Z</time>
      </trkpt>
      <trkpt lat="49.64631" lon="-1.63858">
        <ele>12.292041</ele>
        <time>2021-09-05T07:47:36.000Z</time>
      </trkpt>
      <trkpt lat="49.64612" lon="-1.63845">
        <ele>12.122264</ele>
        <time>2021-09-05T07:47:39.000Z</time>
      </trkpt>
      <trkpt lat="49.64594" lon="-1.63833">
        <ele>11.960224</ele>
        <time>2021-09-05T07:47:42.000Z</time>
      </trkpt>
      <trkpt lat="49.64581" lon="-1.63825">
        <ele>11.849437</ele>
        <time>2021-09-05T07:47:44.000Z</time>
      </trkpt>
      <trkpt lat="49.64575" lon="-1.63821">
        <ele>11.798389</ele>
        <time>2021-09-05T07:47:46.000Z</time>
      </trkpt>
      <trkpt lat="49.64565" lon="-1.63814">
        <ele>11.709529</ele>
        <time>2021-09-05T07:47:47.000Z</time>
      </trkpt>
      <trkpt lat="49.64562" lon="-1.63809">
        <ele>11.676292</ele>
        <time>2021-09-05T07:47:48.000Z</time>
      </trkpt>
      <trkpt lat="49.64552" lon="-1.63776">
        <ele>11.480528</ele>
        <time>2021-09-05T07:47:53.000Z</time>
      </trkpt>
      <trkpt lat="49.6454" lon="-1.63723">
        <ele>11.18845</ele>
        <time>2021-09-05T07:47:59.000Z</time>
      </trkpt>
      <trkpt lat="49.64539" lon="-1.63715">
        <ele>11.139725</ele>
        <time>2021-09-05T07:48:00.000Z</time>
      </trkpt>
      <trkpt lat="49.64538" lon="-1.63693">
        <ele>11.011966</ele>
        <time>2021-09-05T07:48:03.000Z</time>
      </trkpt>
      <trkpt lat="49.64531" lon="-1.63662">
        <ele>10.815926</ele>
        <time>2021-09-05T07:48:08.000Z</time>
      </trkpt>
      <trkpt lat="49.64526" lon="-1.63642">
        <ele>10.692714</ele>
        <time>2021-09-05T07:48:11.000Z</time>
      </trkpt>
      <trkpt lat="49.64523" lon="-1.63628">
        <ele>10.609359</ele>
        <time>2021-09-05T07:48:13.000Z</time>
      </trkpt>
      <trkpt lat="49.64513" lon="-1.63583">
        <ele>10.331909</ele>
        <time>2021-09-05T07:48:19.000Z</time>
      </trkpt>
      <trkpt lat="49.64501" lon="-1.63538">
        <ele>10.047674</ele>
        <time>2021-09-05T07:48:25.000Z</time>
      </trkpt>
      <trkpt lat="49.6449" lon="-1.63492">
        <ele>9.764726</ele>
        <time>2021-09-05T07:48:31.000Z</time>
      </trkpt>
      <trkpt lat="49.64489" lon="-1.63485">
        <ele>9.719046</ele>
        <time>2021-09-05T07:48:32.000Z</time>
      </trkpt>
      <trkpt lat="49.64487" lon="-1.63478">
        <ele>9.677241</ele>
        <time>2021-09-05T07:48:34.000Z</time>
      </trkpt>
      <trkpt lat="49.64485" lon="-1.63449">
        <ele>9.531411</ele>
        <time>2021-09-05T07:48:38.000Z</time>
      </trkpt>
      <trkpt lat="49.64477" lon="-1.63422">
        <ele>9.420136</ele>
        <time>2021-09-05T07:48:42.000Z</time>
      </trkpt>
      <trkpt lat="49.64473" lon="-1.63408">
        <ele>9.359256</ele>
        <time>2021-09-05T07:48:44.000Z</time>
      </trkpt>
      <trkpt lat="49.64468" lon="-1.63392">
        <ele>9.294524</ele>
        <time>2021-09-05T07:48:46.000Z</time>
      </trkpt>
      <trkpt lat="49.64461" lon="-1.63368">
        <ele>9.195152</ele>
        <time>2021-09-05T07:48:49.000Z</time>
      </trkpt>
      <trkpt lat="49.64458" lon="-1.63352">
        <ele>9.12985</ele>
        <time>2021-09-05T07:48:51.000Z</time>
      </trkpt>
      <trkpt lat="49.64452" lon="-1.63329">
        <ele>9.035544</ele>
        <time>2021-09-05T07:48:54.000Z</time>
      </trkpt>
      <trkpt lat="49.64445" lon="-1.63296">
        <ele>8.902789</ele>
        <time>2021-09-05T07:48:58.000Z</time>
      </trkpt>
      <trkpt lat="49.64442" lon="-1.63269">
        <ele>8.796965</ele>
        <time>2021-09-05T07:49:01.000Z</time>
      </trkpt>
      <trkpt lat="49.64444" lon="-1.63214">
        <ele>8.588627</ele>
        <time>2021-09-05T07:49:07.000Z</time>
      </trkpt>
      <trkpt lat="49.64447" lon="-1.63189">
        <ele>8.517507</ele>
        <time>2021-09-05T07:49:10.000Z</time>
      </trkpt>
      <trkpt lat="49.6445" lon="-1.63174">
        <ele>8.51916</ele>
        <time>2021-09-05T07:49:12.000Z</time>
      </trkpt>
      <trkpt lat="49.64457" lon="-1.63152">
        <ele>8.521733</ele>
        <time>2021-09-05T07:49:15.000Z</time>
      </trkpt>
      <trkpt lat="49.64459" lon="-1.63145">
        <ele>8.522559</ele>
        <time>2021-09-05T07:49:16.000Z</time>
      </trkpt>
      <trkpt lat="49.64462" lon="-1.63131">
        <ele>8.524164</ele>
        <time>2021-09-05T07:49:19.000Z</time>
      </trkpt>
      <trkpt lat="49.64464" lon="-1.63121">
        <ele>8.525236</ele>
        <time>2021-09-05T07:50:19.000Z</time>
      </trkpt>
      <trkpt lat="49.64471" lon="-1.63086">
        <ele>8.529145</ele>
        <time>2021-09-05T07:50:24.000Z</time>
      </trkpt>
      <trkpt lat="49.64483" lon="-1.63034">
        <ele>8.534986</ele>
        <time>2021-09-05T07:50:31.000Z</time>
      </trkpt>
      <trkpt lat="49.64496" lon="-1.62973">
        <ele>8.541744</ele>
        <time>2021-09-05T07:50:38.000Z</time>
      </trkpt>
      <trkpt lat="49.64505" lon="-1.62928">
        <ele>8.549653</ele>
        <time>2021-09-05T07:50:43.000Z</time>
      </trkpt>
      <trkpt lat="49.64511" lon="-1.6288">
        <ele>8.580639</ele>
        <time>2021-09-05T07:50:48.000Z</time>
      </trkpt>
      <trkpt lat="49.64511" lon="-1.62861">
        <ele>8.592391</ele>
        <time>2021-09-05T07:50:50.000Z</time>
      </trkpt>
      <trkpt lat="49.64508" lon="-1.62827">
        <ele>8.614372</ele>
        <time>2021-09-05T07:50:54.000Z</time>
      </trkpt>
      <trkpt lat="49.645" lon="-1.62783">
        <ele>8.643058</ele>
        <time>2021-09-05T07:50:59.000Z</time>
      </trkpt>
      <trkpt lat="49.64497" lon="-1.62774">
        <ele>8.64914</ele>
        <time>2021-09-05T07:51:00.000Z</time>
      </trkpt>
      <trkpt lat="49.64472" lon="-1.62718">
        <ele>8.692215</ele>
        <time>2021-09-05T07:51:07.000Z</time>
      </trkpt>
      <trkpt lat="49.64464" lon="-1.62706">
        <ele>8.703483</ele>
        <time>2021-09-05T07:51:09.000Z</time>
      </trkpt>
      <trkpt lat="49.64462" lon="-1.62699">
        <ele>8.708229</ele>
        <time>2021-09-05T07:51:10.000Z</time>
      </trkpt>
      <trkpt lat="49.64461" lon="-1.62692">
        <ele>8.712742</ele>
        <time>2021-09-05T07:51:11.000Z</time>
      </trkpt>
      <trkpt lat="49.64459" lon="-1.6268">
        <ele>8.720596</ele>
        <time>2021-09-05T07:51:13.000Z</time>
      </trkpt>
      <trkpt lat="49.64455" lon="-1.62676">
        <ele>8.737263</ele>
        <time>2021-09-05T07:51:15.000Z</time>
      </trkpt>
      <trkpt lat="49.64445" lon="-1.62672">
        <ele>8.78638</ele>
        <time>2021-09-05T07:51:16.000Z</time>
      </trkpt>
      <trkpt lat="49.6444" lon="-1.62667">
        <ele>8.811927</ele>
        <time>2021-09-05T07:51:17.000Z</time>
      </trkpt>
      <trkpt lat="49.64435" lon="-1.62661">
        <ele>8.839973</ele>
        <time>2021-09-05T07:51:19.000Z</time>
      </trkpt>
      <trkpt lat="49.64427" lon="-1.62647">
        <ele>8.896424</ele>
        <time>2021-09-05T07:51:20.000Z</time>
      </trkpt>
      <trkpt lat="49.64422" lon="-1.6264">
        <ele>8.926032</ele>
        <time>2021-09-05T07:51:21.000Z</time>
      </trkpt>
      <trkpt lat="49.64417" lon="-1.62622">
        <ele>8.982581</ele>
        <time>2021-09-05T07:51:23.000Z</time>
      </trkpt>
      <trkpt lat="49.64407" lon="-1.62589">
        <ele>9.090073</ele>
        <time>2021-09-05T07:51:27.000Z</time>
      </trkpt>
      <trkpt lat="49.64397" lon="-1.62575">
        <ele>9.15017</ele>
        <time>2021-09-05T07:51:29.000Z</time>
      </trkpt>
      <trkpt lat="49.64395" lon="-1.6257">
        <ele>9.169611</ele>
        <time>2021-09-05T07:51:30.000Z</time>
      </trkpt>
      <trkpt lat="49.64383" lon="-1.62569">
        <ele>9.224161</ele>
        <time>2021-09-05T07:51:32.000Z</time>
      </trkpt>
      <trkpt lat="49.64379" lon="-1.62567">
        <ele>9.241346</ele>
        <time>2021-09-05T07:51:34.000Z</time>
      </trkpt>
      <trkpt lat="49.64378" lon="-1.62593">
        <ele>9.316769</ele>
        <time>2021-09-05T07:51:38.000Z</time>
      </trkpt>
      <trkpt lat="49.64377" lon="-1.62595">
        <ele>9.326269</ele>
        <time>2021-09-05T07:51:39.000Z</time>
      </trkpt>
      <trkpt lat="49.64375" lon="-1.62561">
        <ele>9.429306</ele>
        <time>2021-09-05T07:51:42.000Z</time>
      </trkpt>
      <trkpt lat="49.6437" lon="-1.62545">
        <ele>9.480253</ele>
        <time>2021-09-05T07:51:47.000Z</time>
      </trkpt>
      <trkpt lat="49.64344" lon="-1.6251">
        <ele>9.580671</ele>
        <time>2021-09-05T07:51:52.000Z</time>
      </trkpt>
      <trkpt lat="49.64336" lon="-1.62494">
        <ele>9.607265</ele>
        <time>2021-09-05T07:51:54.000Z</time>
      </trkpt>
      <trkpt lat="49.64325" lon="-1.62472">
        <ele>9.643732</ele>
        <time>2021-09-05T07:51:59.000Z</time>
      </trkpt>
      <trkpt lat="49.64322" lon="-1.62465">
        <ele>9.655122</ele>
        <time>2021-09-05T07:52:03.000Z</time>
      </trkpt>
      <trkpt lat="49.64308" lon="-1.62437">
        <ele>9.700649</ele>
        <time>2021-09-05T07:52:24.000Z</time>
      </trkpt>
      <trkpt lat="49.64293" lon="-1.62401">
        <ele>9.755867</ele>
        <time>2021-09-05T07:52:30.000Z</time>
      </trkpt>
      <trkpt lat="49.64282" lon="-1.62351">
        <ele>9.823486</ele>
        <time>2021-09-05T07:52:37.000Z</time>
      </trkpt>
      <trkpt lat="49.64252" lon="-1.62296">
        <ele>9.865536</ele>
        <time>2021-09-05T07:52:43.000Z</time>
      </trkpt>
      <trkpt lat="49.64235" lon="-1.62257">
        <ele>9.764588</ele>
        <time>2021-09-05T07:52:49.000Z</time>
      </trkpt>
      <trkpt lat="49.64206" lon="-1.62207">
        <ele>9.624188</ele>
        <time>2021-09-05T07:52:55.000Z</time>
      </trkpt>
      <trkpt lat="49.64194" lon="-1.62173">
        <ele>9.542089</ele>
        <time>2021-09-05T07:52:58.000Z</time>
      </trkpt>
      <trkpt lat="49.64178" lon="-1.62151">
        <ele>9.473708</ele>
        <time>2021-09-05T07:53:01.000Z</time>
      </trkpt>
      <trkpt lat="49.64178" lon="-1.62151">
        <ele>9.473708</ele>
        <time>2021-09-05T07:53:03.000Z</time>
      </trkpt>
      <trkpt lat="49.6416" lon="-1.62136">
        <ele>9.405773</ele>
        <time>2021-09-05T07:53:05.000Z</time>
      </trkpt>
      <trkpt lat="49.6412" lon="-1.62124">
        <ele>9.278907</ele>
        <time>2021-09-05T07:53:10.000Z</time>
      </trkpt>
      <trkpt lat="49.64095" lon="-1.62129">
        <ele>9.209312</ele>
        <time>2021-09-05T07:53:14.000Z</time>
      </trkpt>
      <trkpt lat="49.64083" lon="-1.62132">
        <ele>9.175028</ele>
        <time>2021-09-05T07:53:16.000Z</time>
      </trkpt>
      <trkpt lat="49.64055" lon="-1.62138">
        <ele>9.09697</ele>
        <time>2021-09-05T07:53:21.000Z</time>
      </trkpt>
      <trkpt lat="49.64044" lon="-1.6214">
        <ele>9.065241</ele>
        <time>2021-09-05T07:53:25.000Z</time>
      </trkpt>
      <trkpt lat="49.64044" lon="-1.6214">
        <ele>9.065241</ele>
        <time>2021-09-05T07:53:31.000Z</time>
      </trkpt>
      <trkpt lat="49.64043" lon="-1.6214">
        <ele>9.061007</ele>
        <time>2021-09-05T07:53:40.000Z</time>
      </trkpt>
      <trkpt lat="49.6403" lon="-1.62143">
        <ele>9.024519</ele>
        <time>2021-09-05T07:53:45.000Z</time>
      </trkpt>
      <trkpt lat="49.64011" lon="-1.62147">
        <ele>8.973408</ele>
        <time>2021-09-05T07:53:52.000Z</time>
      </trkpt>
      <trkpt lat="49.63972" lon="-1.62136">
        <ele>8.861211</ele>
        <time>2021-09-05T07:53:58.000Z</time>
      </trkpt>
      <trkpt lat="49.63946" lon="-1.62122">
        <ele>8.786769</ele>
        <time>2021-09-05T07:54:04.000Z</time>
      </trkpt>
      <trkpt lat="49.63929" lon="-1.62113">
        <ele>8.741723</ele>
        <time>2021-09-05T07:54:10.000Z</time>
      </trkpt>
      <trkpt lat="49.63923" lon="-1.6211">
        <ele>8.725815</ele>
        <time>2021-09-05T07:54:16.000Z</time>
      </trkpt>
      <trkpt lat="49.63915" lon="-1.62072">
        <ele>8.659826</ele>
        <time>2021-09-05T07:55:07.000Z</time>
      </trkpt>
      <trkpt lat="49.63912" lon="-1.62024">
        <ele>8.580165</ele>
        <time>2021-09-05T07:55:14.000Z</time>
      </trkpt>
      <trkpt lat="49.63908" lon="-1.61962">
        <ele>8.478109</ele>
        <time>2021-09-05T07:55:21.000Z</time>
      </trkpt>
      <trkpt lat="49.63905" lon="-1.61919">
        <ele>8.408141</ele>
        <time>2021-09-05T07:55:26.000Z</time>
      </trkpt>
      <trkpt lat="49.63905" lon="-1.61911">
        <ele>8.394904</ele>
        <time>2021-09-05T07:55:27.000Z</time>
      </trkpt>
      <trkpt lat="49.63911" lon="-1.61904">
        <ele>8.374892</ele>
        <time>2021-09-05T07:55:29.000Z</time>
      </trkpt>
      <trkpt lat="49.63926" lon="-1.61896">
        <ele>8.355357</ele>
        <time>2021-09-05T07:55:32.000Z</time>
      </trkpt>
      <trkpt lat="49.63937" lon="-1.61891">
        <ele>8.358916</ele>
        <time>2021-09-05T07:55:34.000Z</time>
      </trkpt>
      <trkpt lat="49.63961" lon="-1.61859">
        <ele>8.369192</ele>
        <time>2021-09-05T07:55:39.000Z</time>
      </trkpt>
      <trkpt lat="49.63961" lon="-1.61859">
        <ele>8.369192</ele>
        <time>2021-09-05T07:55:40.000Z</time>
      </trkpt>
      <trkpt lat="49.63972" lon="-1.61848">
        <ele>8.37326</ele>
        <time>2021-09-05T07:55:41.000Z</time>
      </trkpt>
      <trkpt lat="49.63996" lon="-1.61834">
        <ele>8.381233</ele>
        <time>2021-09-05T07:55:45.000Z</time>
      </trkpt>
      <trkpt lat="49.64001" lon="-1.61831">
        <ele>8.383196</ele>
        <time>2021-09-05T07:55:46.000Z</time>
      </trkpt>
      <trkpt lat="49.64013" lon="-1.61825">
        <ele>8.387142</ele>
        <time>2021-09-05T07:55:48.000Z</time>
      </trkpt>
      <trkpt lat="49.64036" lon="-1.61815">
        <ele>8.39481</ele>
        <time>2021-09-05T07:55:52.000Z</time>
      </trkpt>
      <trkpt lat="49.64042" lon="-1.61813">
        <ele>8.396689</ele>
        <time>2021-09-05T07:55:53.000Z</time>
      </trkpt>
      <trkpt lat="49.64098" lon="-1.61802">
        <ele>8.423627</ele>
        <time>2021-09-05T07:56:02.000Z</time>
      </trkpt>
      <trkpt lat="49.64142" lon="-1.61801">
        <ele>8.467597</ele>
        <time>2021-09-05T07:56:10.000Z</time>
      </trkpt>
      <trkpt lat="49.64155" lon="-1.61796">
        <ele>8.48047</ele>
        <time>2021-09-05T07:56:11.000Z</time>
      </trkpt>
      <trkpt lat="49.64173" lon="-1.61782">
        <ele>8.500452</ele>
        <time>2021-09-05T07:56:14.000Z</time>
      </trkpt>
      <trkpt lat="49.64195" lon="-1.61759">
        <ele>8.526686</ele>
        <time>2021-09-05T07:56:19.000Z</time>
      </trkpt>
      <trkpt lat="49.642" lon="-1.61752">
        <ele>8.53331</ele>
        <time>2021-09-05T07:56:20.000Z</time>
      </trkpt>
      <trkpt lat="49.64214" lon="-1.61729">
        <ele>8.553392</ele>
        <time>2021-09-05T07:56:23.000Z</time>
      </trkpt>
      <trkpt lat="49.6422" lon="-1.6171">
        <ele>8.566519</ele>
        <time>2021-09-05T07:56:25.000Z</time>
      </trkpt>
      <trkpt lat="49.64232" lon="-1.61648">
        <ele>8.544208</ele>
        <time>2021-09-05T07:56:31.000Z</time>
      </trkpt>
      <trkpt lat="49.64233" lon="-1.61631">
        <ele>8.522107</ele>
        <time>2021-09-05T07:56:33.000Z</time>
      </trkpt>
      <trkpt lat="49.6424" lon="-1.6161">
        <ele>8.489909</ele>
        <time>2021-09-05T07:56:35.000Z</time>
      </trkpt>
      <trkpt lat="49.64242" lon="-1.61605">
        <ele>8.482512</ele>
        <time>2021-09-05T07:56:37.000Z</time>
      </trkpt>
      <trkpt lat="49.64247" lon="-1.616">
        <ele>8.470239</ele>
        <time>2021-09-05T07:56:38.000Z</time>
      </trkpt>
      <trkpt lat="49.64252" lon="-1.61608">
        <ele>8.456635</ele>
        <time>2021-09-05T07:56:39.000Z</time>
      </trkpt>
      <trkpt lat="49.64261" lon="-1.61606">
        <ele>8.437254</ele>
        <time>2021-09-05T07:56:41.000Z</time>
      </trkpt>
      <trkpt lat="49.64271" lon="-1.61569">
        <ele>8.38464</ele>
        <time>2021-09-05T07:56:46.000Z</time>
      </trkpt>
      <trkpt lat="49.64272" lon="-1.61561">
        <ele>8.373048</ele>
        <time>2021-09-05T07:56:47.000Z</time>
      </trkpt>
      <trkpt lat="49.64273" lon="-1.61515">
        <ele>8.312536</ele>
        <time>2021-09-05T07:56:53.000Z</time>
      </trkpt>
      <trkpt lat="49.64272" lon="-1.61497">
        <ele>8.287982</ele>
        <time>2021-09-05T07:56:54.000Z</time>
      </trkpt>
      <trkpt lat="49.64258" lon="-1.61427">
        <ele>8.186137</ele>
        <time>2021-09-05T07:57:02.000Z</time>
      </trkpt>
      <trkpt lat="49.64246" lon="-1.61363">
        <ele>8.085315</ele>
        <time>2021-09-05T07:57:09.000Z</time>
      </trkpt>
      <trkpt lat="49.64243" lon="-1.61298">
        <ele>7.986346</ele>
        <time>2021-09-05T07:57:16.000Z</time>
      </trkpt>
      <trkpt lat="49.64247" lon="-1.61243">
        <ele>7.903418</ele>
        <time>2021-09-05T07:57:22.000Z</time>
      </trkpt>
      <trkpt lat="49.64252" lon="-1.61167">
        <ele>7.789198</ele>
        <time>2021-09-05T07:57:30.000Z</time>
      </trkpt>
      <trkpt lat="49.64257" lon="-1.61092">
        <ele>7.692321</ele>
        <time>2021-09-05T07:57:38.000Z</time>
      </trkpt>
      <trkpt lat="49.64261" lon="-1.61023">
        <ele>7.604434</ele>
        <time>2021-09-05T07:57:45.000Z</time>
      </trkpt>
      <trkpt lat="49.64266" lon="-1.60947">
        <ele>7.506226</ele>
        <time>2021-09-05T07:57:53.000Z</time>
      </trkpt>
      <trkpt lat="49.64274" lon="-1.60862">
        <ele>7.459831</ele>
        <time>2021-09-05T07:58:02.000Z</time>
      </trkpt>
      <trkpt lat="49.64275" lon="-1.60853">
        <ele>7.463998</ele>
        <time>2021-09-05T07:58:03.000Z</time>
      </trkpt>
      <trkpt lat="49.6428" lon="-1.6079">
        <ele>7.494545</ele>
        <time>2021-09-05T07:58:10.000Z</time>
      </trkpt>
      <trkpt lat="49.64291" lon="-1.60705">
        <ele>7.536212</ele>
        <time>2021-09-05T07:58:19.000Z</time>
      </trkpt>
      <trkpt lat="49.64303" lon="-1.60617">
        <ele>7.59058</ele>
        <time>2021-09-05T07:58:28.000Z</time>
      </trkpt>
      <trkpt lat="49.64305" lon="-1.60608">
        <ele>7.611805</ele>
        <time>2021-09-05T07:58:29.000Z</time>
      </trkpt>
      <trkpt lat="49.64314" lon="-1.60552">
        <ele>7.739938</ele>
        <time>2021-09-05T07:58:35.000Z</time>
      </trkpt>
      <trkpt lat="49.64327" lon="-1.60469">
        <ele>7.927373</ele>
        <time>2021-09-05T07:58:44.000Z</time>
      </trkpt>
      <trkpt lat="49.64337" lon="-1.60397">
        <ele>8.090265</ele>
        <time>2021-09-05T07:58:52.000Z</time>
      </trkpt>
      <trkpt lat="49.64344" lon="-1.60348">
        <ele>8.189364</ele>
        <time>2021-09-05T07:58:58.000Z</time>
      </trkpt>
      <trkpt lat="49.64346" lon="-1.60342">
        <ele>8.189642</ele>
        <time>2021-09-05T07:58:59.000Z</time>
      </trkpt>
      <trkpt lat="49.6435" lon="-1.60329">
        <ele>8.190171</ele>
        <time>2021-09-05T07:59:02.000Z</time>
      </trkpt>
      <trkpt lat="49.64351" lon="-1.60322">
        <ele>8.190467</ele>
        <time>2021-09-05T07:59:08.000Z</time>
      </trkpt>
      <trkpt lat="49.6435" lon="-1.60319">
        <ele>8.190598</ele>
        <time>2021-09-05T07:59:12.000Z</time>
      </trkpt>
      <trkpt lat="49.64346" lon="-1.6031">
        <ele>8.191015</ele>
        <time>2021-09-05T07:59:16.000Z</time>
      </trkpt>
      <trkpt lat="49.64344" lon="-1.60307">
        <ele>8.19119</ele>
        <time>2021-09-05T07:59:17.000Z</time>
      </trkpt>
      <trkpt lat="49.64353" lon="-1.60259">
        <ele>8.193123</ele>
        <time>2021-09-05T07:59:23.000Z</time>
      </trkpt>
      <trkpt lat="49.64366" lon="-1.6021">
        <ele>8.195189</ele>
        <time>2021-09-05T07:59:29.000Z</time>
      </trkpt>
      <trkpt lat="49.6437" lon="-1.60185">
        <ele>8.196192</ele>
        <time>2021-09-05T07:59:32.000Z</time>
      </trkpt>
      <trkpt lat="49.64371" lon="-1.60169">
        <ele>8.196841</ele>
        <time>2021-09-05T07:59:34.000Z</time>
      </trkpt>
      <trkpt lat="49.64379" lon="-1.60127">
        <ele>8.198542</ele>
        <time>2021-09-05T07:59:39.000Z</time>
      </trkpt>
      <trkpt lat="49.64399" lon="-1.60048">
        <ele>8.202711</ele>
        <time>2021-09-05T07:59:48.000Z</time>
      </trkpt>
      <trkpt lat="49.64418" lon="-1.59975">
        <ele>8.207095</ele>
        <time>2021-09-05T07:59:56.000Z</time>
      </trkpt>
      <trkpt lat="49.64435" lon="-1.59911">
        <ele>8.211035</ele>
        <time>2021-09-05T08:00:03.000Z</time>
      </trkpt>
      <trkpt lat="49.64452" lon="-1.59868">
        <ele>8.213817</ele>
        <time>2021-09-05T08:00:08.000Z</time>
      </trkpt>
      <trkpt lat="49.64466" lon="-1.59837">
        <ele>8.215213</ele>
        <time>2021-09-05T08:00:12.000Z</time>
      </trkpt>
      <trkpt lat="49.64469" lon="-1.5983">
        <ele>8.214458</ele>
        <time>2021-09-05T08:00:13.000Z</time>
      </trkpt>
      <trkpt lat="49.64493" lon="-1.59775">
        <ele>8.209131</ele>
        <time>2021-09-05T08:00:20.000Z</time>
      </trkpt>
      <trkpt lat="49.64522" lon="-1.59711">
        <ele>8.202763</ele>
        <time>2021-09-05T08:00:28.000Z</time>
      </trkpt>
      <trkpt lat="49.64548" lon="-1.59656">
        <ele>8.197328</ele>
        <time>2021-09-05T08:00:35.000Z</time>
      </trkpt>
      <trkpt lat="49.64582" lon="-1.59584">
        <ele>8.155394</ele>
        <time>2021-09-05T08:00:44.000Z</time>
      </trkpt>
      <trkpt lat="49.64613" lon="-1.5952">
        <ele>8.076682</ele>
        <time>2021-09-05T08:00:52.000Z</time>
      </trkpt>
      <trkpt lat="49.64651" lon="-1.59453">
        <ele>7.989024</ele>
        <time>2021-09-05T08:01:01.000Z</time>
      </trkpt>
      <trkpt lat="49.64687" lon="-1.59387">
        <ele>7.906351</ele>
        <time>2021-09-05T08:01:10.000Z</time>
      </trkpt>
      <trkpt lat="49.64724" lon="-1.59317">
        <ele>7.831415</ele>
        <time>2021-09-05T08:01:19.000Z</time>
      </trkpt>
      <trkpt lat="49.64724" lon="-1.59317">
        <ele>7.831415</ele>
        <time>2021-09-05T08:01:20.000Z</time>
      </trkpt>
      <trkpt lat="49.64748" lon="-1.59271">
        <ele>7.781512</ele>
        <time>2021-09-05T08:01:25.000Z</time>
      </trkpt>
      <trkpt lat="49.64759" lon="-1.59261">
        <ele>7.764709</ele>
        <time>2021-09-05T08:01:27.000Z</time>
      </trkpt>
      <trkpt lat="49.64764" lon="-1.59257">
        <ele>7.757787</ele>
        <time>2021-09-05T08:01:28.000Z</time>
      </trkpt>
      <trkpt lat="49.64785" lon="-1.59213">
        <ele>7.712238</ele>
        <time>2021-09-05T08:01:34.000Z</time>
      </trkpt>
      <trkpt lat="49.64791" lon="-1.59199">
        <ele>7.698</ele>
        <time>2021-09-05T08:01:36.000Z</time>
      </trkpt>
      <trkpt lat="49.64795" lon="-1.59184">
        <ele>7.691622</ele>
        <time>2021-09-05T08:01:38.000Z</time>
      </trkpt>
      <trkpt lat="49.64792" lon="-1.59168">
        <ele>7.709258</ele>
        <time>2021-09-05T08:01:40.000Z</time>
      </trkpt>
      <trkpt lat="49.64791" lon="-1.59161">
        <ele>7.71675</ele>
        <time>2021-09-05T08:01:41.000Z</time>
      </trkpt>
      <trkpt lat="49.64782" lon="-1.59156">
        <ele>7.732002</ele>
        <time>2021-09-05T08:01:44.000Z</time>
      </trkpt>
      <trkpt lat="49.64781" lon="-1.59142">
        <ele>7.746959</ele>
        <time>2021-09-05T08:01:46.000Z</time>
      </trkpt>
      <trkpt lat="49.64773" lon="-1.59124">
        <ele>7.770877</ele>
        <time>2021-09-05T08:01:48.000Z</time>
      </trkpt>
      <trkpt lat="49.64763" lon="-1.59124">
        <ele>7.787306</ele>
        <time>2021-09-05T08:01:50.000Z</time>
      </trkpt>
      <trkpt lat="49.64752" lon="-1.59124">
        <ele>7.805227</ele>
        <time>2021-09-05T08:01:52.000Z</time>
      </trkpt>
      <trkpt lat="49.64746" lon="-1.59124">
        <ele>7.81452</ele>
        <time>2021-09-05T08:01:54.000Z</time>
      </trkpt>
      <trkpt lat="49.64747" lon="-1.59104">
        <ele>7.835887</ele>
        <time>2021-09-05T08:01:57.000Z</time>
      </trkpt>
      <trkpt lat="49.64768" lon="-1.59079">
        <ele>7.879562</ele>
        <time>2021-09-05T08:02:02.000Z</time>
      </trkpt>
      <trkpt lat="49.64778" lon="-1.59072">
        <ele>7.897413</ele>
        <time>2021-09-05T08:02:04.000Z</time>
      </trkpt>
      <trkpt lat="49.64788" lon="-1.59062">
        <ele>7.917717</ele>
        <time>2021-09-05T08:02:06.000Z</time>
      </trkpt>
      <trkpt lat="49.64811" lon="-1.59019">
        <ele>7.977938</ele>
        <time>2021-09-05T08:02:12.000Z</time>
      </trkpt>
      <trkpt lat="49.64839" lon="-1.58968">
        <ele>7.923454</ele>
        <time>2021-09-05T08:02:20.000Z</time>
      </trkpt>
      <trkpt lat="49.64847" lon="-1.58953">
        <ele>7.902889</ele>
        <time>2021-09-05T08:02:21.000Z</time>
      </trkpt>
      <trkpt lat="49.64858" lon="-1.58932">
        <ele>7.872767</ele>
        <time>2021-09-05T08:02:24.000Z</time>
      </trkpt>
      <trkpt lat="49.64862" lon="-1.58925">
        <ele>7.863479</ele>
        <time>2021-09-05T08:02:26.000Z</time>
      </trkpt>
      <trkpt lat="49.64873" lon="-1.58905">
        <ele>7.835348</ele>
        <time>2021-09-05T08:02:28.000Z</time>
      </trkpt>
      <trkpt lat="49.64883" lon="-1.58897">
        <ele>7.816597</ele>
        <time>2021-09-05T08:02:30.000Z</time>
      </trkpt>
      <trkpt lat="49.64902" lon="-1.58857">
        <ele>7.763569</ele>
        <time>2021-09-05T08:02:36.000Z</time>
      </trkpt>
      <trkpt lat="49.64922" lon="-1.58811">
        <ele>7.704018</ele>
        <time>2021-09-05T08:02:43.000Z</time>
      </trkpt>
      <trkpt lat="49.6494" lon="-1.5877">
        <ele>7.615984</ele>
        <time>2021-09-05T08:02:50.000Z</time>
      </trkpt>
      <trkpt lat="49.64958" lon="-1.58728">
        <ele>7.512936</ele>
        <time>2021-09-05T08:02:56.000Z</time>
      </trkpt>
      <trkpt lat="49.6497" lon="-1.587">
        <ele>7.442209</ele>
        <time>2021-09-05T08:02:59.000Z</time>
      </trkpt>
      <trkpt lat="49.64981" lon="-1.58675">
        <ele>7.379304</ele>
        <time>2021-09-05T08:03:03.000Z</time>
      </trkpt>
      <trkpt lat="49.64997" lon="-1.58638">
        <ele>7.287897</ele>
        <time>2021-09-05T08:03:09.000Z</time>
      </trkpt>
      <trkpt lat="49.65015" lon="-1.58596">
        <ele>7.183987</ele>
        <time>2021-09-05T08:03:16.000Z</time>
      </trkpt>
      <trkpt lat="49.65016" lon="-1.5859">
        <ele>7.172663</ele>
        <time>2021-09-05T08:03:18.000Z</time>
      </trkpt>
      <trkpt lat="49.65025" lon="-1.58576">
        <ele>7.131159</ele>
        <time>2021-09-05T08:03:20.000Z</time>
      </trkpt>
      <trkpt lat="49.6505" lon="-1.58531">
        <ele>7.062774</ele>
        <time>2021-09-05T08:03:27.000Z</time>
      </trkpt>
      <trkpt lat="49.65076" lon="-1.58471">
        <ele>6.990081</ele>
        <time>2021-09-05T08:03:36.000Z</time>
      </trkpt>
      <trkpt lat="49.65105" lon="-1.58412">
        <ele>6.916569</ele>
        <time>2021-09-05T08:03:43.000Z</time>
      </trkpt>
      <trkpt lat="49.65108" lon="-1.58404">
        <ele>6.906968</ele>
        <time>2021-09-05T08:03:44.000Z</time>
      </trkpt>
      <trkpt lat="49.65118" lon="-1.58392">
        <ele>6.888015</ele>
        <time>2021-09-05T08:03:46.000Z</time>
      </trkpt>
      <trkpt lat="49.65126" lon="-1.58377">
        <ele>6.86841</ele>
        <time>2021-09-05T08:03:49.000Z</time>
      </trkpt>
      <trkpt lat="49.65143" lon="-1.58342">
        <ele>6.829709</ele>
        <time>2021-09-05T08:03:52.000Z</time>
      </trkpt>
      <trkpt lat="49.65149" lon="-1.58329">
        <ele>6.820998</ele>
        <time>2021-09-05T08:03:54.000Z</time>
      </trkpt>
      <trkpt lat="49.65168" lon="-1.5829">
        <ele>6.79305</ele>
        <time>2021-09-05T08:04:01.000Z</time>
      </trkpt>
      <trkpt lat="49.65178" lon="-1.58268">
        <ele>6.777916</ele>
        <time>2021-09-05T08:04:05.000Z</time>
      </trkpt>
      <trkpt lat="49.65184" lon="-1.58251">
        <ele>6.767229</ele>
        <time>2021-09-05T08:04:07.000Z</time>
      </trkpt>
      <trkpt lat="49.65198" lon="-1.58203">
        <ele>6.736942</ele>
        <time>2021-09-05T08:04:12.000Z</time>
      </trkpt>
      <trkpt lat="49.652" lon="-1.58194">
        <ele>6.732073</ele>
        <time>2021-09-05T08:04:13.000Z</time>
      </trkpt>
      <trkpt lat="49.6521" lon="-1.58125">
        <ele>6.691936</ele>
        <time>2021-09-05T08:04:21.000Z</time>
      </trkpt>
      <trkpt lat="49.65214" lon="-1.5809">
        <ele>6.700431</ele>
        <time>2021-09-05T08:04:26.000Z</time>
      </trkpt>
      <trkpt lat="49.65217" lon="-1.58073">
        <ele>6.72734</ele>
        <time>2021-09-05T08:04:27.000Z</time>
      </trkpt>
      <trkpt lat="49.65209" lon="-1.58042">
        <ele>6.777503</ele>
        <time>2021-09-05T08:04:30.000Z</time>
      </trkpt>
      <trkpt lat="49.65179" lon="-1.58038">
        <ele>6.849762</ele>
        <time>2021-09-05T08:04:35.000Z</time>
      </trkpt>
      <trkpt lat="49.65141" lon="-1.58029">
        <ele>6.940366</ele>
        <time>2021-09-05T08:04:41.000Z</time>
      </trkpt>
      <trkpt lat="49.65095" lon="-1.58019">
        <ele>7.049555</ele>
        <time>2021-09-05T08:04:49.000Z</time>
      </trkpt>
      <trkpt lat="49.6503" lon="-1.58004">
        <ele>7.23526</ele>
        <time>2021-09-05T08:04:58.000Z</time>
      </trkpt>
      <trkpt lat="49.65023" lon="-1.58003">
        <ele>7.255152</ele>
        <time>2021-09-05T08:04:59.000Z</time>
      </trkpt>
      <trkpt lat="49.64982" lon="-1.57989">
        <ele>7.381284</ele>
        <time>2021-09-05T08:05:06.000Z</time>
      </trkpt>
      <trkpt lat="49.64955" lon="-1.5798">
        <ele>7.466018</ele>
        <time>2021-09-05T08:05:11.000Z</time>
      </trkpt>
      <trkpt lat="49.64949" lon="-1.57978">
        <ele>7.483988</ele>
        <time>2021-09-05T08:05:12.000Z</time>
      </trkpt>
      <trkpt lat="49.64915" lon="-1.57959">
        <ele>7.595667</ele>
        <time>2021-09-05T08:05:18.000Z</time>
      </trkpt>
      <trkpt lat="49.64897" lon="-1.57948">
        <ele>7.65228</ele>
        <time>2021-09-05T08:05:22.000Z</time>
      </trkpt>
      <trkpt lat="49.64881" lon="-1.57934">
        <ele>7.702636</ele>
        <time>2021-09-05T08:05:24.000Z</time>
      </trkpt>
      <trkpt lat="49.64848" lon="-1.57904">
        <ele>7.803962</ele>
        <time>2021-09-05T08:05:30.000Z</time>
      </trkpt>
      <trkpt lat="49.64812" lon="-1.57869">
        <ele>7.916937</ele>
        <time>2021-09-05T08:05:37.000Z</time>
      </trkpt>
      <trkpt lat="49.64787" lon="-1.57845">
        <ele>7.993743</ele>
        <time>2021-09-05T08:05:42.000Z</time>
      </trkpt>
      <trkpt lat="49.64775" lon="-1.57834">
        <ele>8.030453</ele>
        <time>2021-09-05T08:05:46.000Z</time>
      </trkpt>
      <trkpt lat="49.64774" lon="-1.57833">
        <ele>8.034472</ele>
        <time>2021-09-05T08:05:52.000Z</time>
      </trkpt>
      <trkpt lat="49.64774" lon="-1.57832">
        <ele>8.035737</ele>
        <time>2021-09-05T08:06:02.000Z</time>
      </trkpt>
      <trkpt lat="49.64764" lon="-1.57822">
        <ele>8.06735</ele>
        <time>2021-09-05T08:06:07.000Z</time>
      </trkpt>
      <trkpt lat="49.64728" lon="-1.57789">
        <ele>8.156118</ele>
        <time>2021-09-05T08:06:14.000Z</time>
      </trkpt>
      <trkpt lat="49.64692" lon="-1.57757">
        <ele>8.218405</ele>
        <time>2021-09-05T08:06:21.000Z</time>
      </trkpt>
      <trkpt lat="49.64666" lon="-1.57735">
        <ele>8.264826</ele>
        <time>2021-09-05T08:06:28.000Z</time>
      </trkpt>
      <trkpt lat="49.64616" lon="-1.57694">
        <ele>8.350459</ele>
        <time>2021-09-05T08:06:35.000Z</time>
      </trkpt>
      <trkpt lat="49.64571" lon="-1.57658">
        <ele>8.466367</ele>
        <time>2021-09-05T08:06:43.000Z</time>
      </trkpt>
      <trkpt lat="49.64531" lon="-1.57629">
        <ele>8.62982</ele>
        <time>2021-09-05T08:06:50.000Z</time>
      </trkpt>
      <trkpt lat="49.64479" lon="-1.57593">
        <ele>8.839813</ele>
        <time>2021-09-05T08:06:58.000Z</time>
      </trkpt>
      <trkpt lat="49.64462" lon="-1.57581">
        <ele>8.910182</ele>
        <time>2021-09-05T08:07:02.000Z</time>
      </trkpt>
      <trkpt lat="49.64445" lon="-1.57569">
        <ele>8.979874</ele>
        <time>2021-09-05T08:07:04.000Z</time>
      </trkpt>
      <trkpt lat="49.64434" lon="-1.57562">
        <ele>9.02449</ele>
        <time>2021-09-05T08:07:08.000Z</time>
      </trkpt>
      <trkpt lat="49.64417" lon="-1.57551">
        <ele>9.117556</ele>
        <time>2021-09-05T08:07:10.000Z</time>
      </trkpt>
      <trkpt lat="49.64383" lon="-1.5753">
        <ele>9.390086</ele>
        <time>2021-09-05T08:07:16.000Z</time>
      </trkpt>
      <trkpt lat="49.64377" lon="-1.57526">
        <ele>9.435828</ele>
        <time>2021-09-05T08:07:17.000Z</time>
      </trkpt>
      <trkpt lat="49.6435" lon="-1.57507">
        <ele>9.659797</ele>
        <time>2021-09-05T08:07:22.000Z</time>
      </trkpt>
      <trkpt lat="49.64306" lon="-1.57477">
        <ele>10.013557</ele>
        <time>2021-09-05T08:07:30.000Z</time>
      </trkpt>
      <trkpt lat="49.64256" lon="-1.57434">
        <ele>10.452564</ele>
        <time>2021-09-05T08:07:40.000Z</time>
      </trkpt>
      <trkpt lat="49.64222" lon="-1.57401">
        <ele>10.818314</ele>
        <time>2021-09-05T08:07:47.000Z</time>
      </trkpt>
      <trkpt lat="49.64198" lon="-1.57378">
        <ele>11.080692</ele>
        <time>2021-09-05T08:07:52.000Z</time>
      </trkpt>
      <trkpt lat="49.64188" lon="-1.57368">
        <ele>11.185652</ele>
        <time>2021-09-05T08:07:54.000Z</time>
      </trkpt>
      <trkpt lat="49.64174" lon="-1.57354">
        <ele>11.343578</ele>
        <time>2021-09-05T08:07:57.000Z</time>
      </trkpt>
      <trkpt lat="49.64143" lon="-1.57323">
        <ele>11.686847</ele>
        <time>2021-09-05T08:08:04.000Z</time>
      </trkpt>
      <trkpt lat="49.64111" lon="-1.57298">
        <ele>12.012331</ele>
        <time>2021-09-05T08:08:11.000Z</time>
      </trkpt>
      <trkpt lat="49.64083" lon="-1.5728">
        <ele>13.148705</ele>
        <time>2021-09-05T08:08:18.000Z</time>
      </trkpt>
      <trkpt lat="49.64061" lon="-1.57269">
        <ele>14.097095</ele>
        <time>2021-09-05T08:08:25.000Z</time>
      </trkpt>
      <trkpt lat="49.64042" lon="-1.57271">
        <ele>14.918914</ele>
        <time>2021-09-05T08:08:31.000Z</time>
      </trkpt>
      <trkpt lat="49.64029" lon="-1.57279">
        <ele>15.509833</ele>
        <time>2021-09-05T08:08:36.000Z</time>
      </trkpt>
      <trkpt lat="49.64028" lon="-1.5728">
        <ele>15.559095</ele>
        <time>2021-09-05T08:08:37.000Z</time>
      </trkpt>
      <trkpt lat="49.64018" lon="-1.57295">
        <ele>16.137794</ele>
        <time>2021-09-05T08:08:42.000Z</time>
      </trkpt>
      <trkpt lat="49.64018" lon="-1.57295">
        <ele>16.137794</ele>
        <time>2021-09-05T08:09:02.000Z</time>
      </trkpt>
      <trkpt lat="49.64018" lon="-1.57295">
        <ele>16.137794</ele>
        <time>2021-09-05T08:09:06.000Z</time>
      </trkpt>
      <trkpt lat="49.64018" lon="-1.57295">
        <ele>16.137794</ele>
        <time>2021-09-05T08:09:25.000Z</time>
      </trkpt>
      <trkpt lat="49.64018" lon="-1.57295">
        <ele>16.137794</ele>
        <time>2021-09-05T08:09:37.000Z</time>
      </trkpt>
      <trkpt lat="49.64018" lon="-1.57295">
        <ele>16.137794</ele>
        <time>2021-09-05T08:09:54.000Z</time>
      </trkpt>
      <trkpt lat="49.64018" lon="-1.57295">
        <ele>16.137794</ele>
        <time>2021-09-05T08:10:12.000Z</time>
      </trkpt>
      <trkpt lat="49.64018" lon="-1.57295">
        <ele>16.137794</ele>
        <time>2021-09-05T08:10:26.000Z</time>
      </trkpt>
      <trkpt lat="49.64018" lon="-1.57295">
        <ele>16.137794</ele>
        <time>2021-09-05T08:10:40.000Z</time>
      </trkpt>
      <trkpt lat="49.64018" lon="-1.57295">
        <ele>16.137794</ele>
        <time>2021-09-05T08:10:52.000Z</time>
      </trkpt>
      <trkpt lat="49.64018" lon="-1.57295">
        <ele>16.137794</ele>
        <time>2021-09-05T08:11:07.000Z</time>
      </trkpt>
      <trkpt lat="49.64018" lon="-1.57295">
        <ele>16.137794</ele>
        <time>2021-09-05T08:11:28.000Z</time>
      </trkpt>
      <trkpt lat="49.64018" lon="-1.57295">
        <ele>16.137794</ele>
        <time>2021-09-05T08:12:02.000Z</time>
      </trkpt>
      <trkpt lat="49.64018" lon="-1.57295">
        <ele>16.137794</ele>
        <time>2021-09-05T08:12:18.000Z</time>
      </trkpt>
      <trkpt lat="49.64019" lon="-1.57298">
        <ele>16.21087</ele>
        <time>2021-09-05T08:12:42.000Z</time>
      </trkpt>
      <trkpt lat="49.64019" lon="-1.57284">
        <ele>16.573036</ele>
        <time>2021-09-05T08:12:47.000Z</time>
      </trkpt>
      <trkpt lat="49.64017" lon="-1.57287">
        <ele>16.700052</ele>
        <time>2021-09-05T08:12:51.000Z</time>
      </trkpt>
      <trkpt lat="49.64013" lon="-1.57263">
        <ele>17.375419</ele>
        <time>2021-09-05T08:12:56.000Z</time>
      </trkpt>
      <trkpt lat="49.64004" lon="-1.5722">
        <ele>18.602391</ele>
        <time>2021-09-05T08:13:05.000Z</time>
      </trkpt>
      <trkpt lat="49.63996" lon="-1.57175">
        <ele>19.717636</ele>
        <time>2021-09-05T08:13:14.000Z</time>
      </trkpt>
      <trkpt lat="49.63989" lon="-1.5714">
        <ele>19.991057</ele>
        <time>2021-09-05T08:13:21.000Z</time>
      </trkpt>
      <trkpt lat="49.63983" lon="-1.57108">
        <ele>20.235301</ele>
        <time>2021-09-05T08:13:28.000Z</time>
      </trkpt>
      <trkpt lat="49.63977" lon="-1.5708">
        <ele>20.449661</ele>
        <time>2021-09-05T08:13:34.000Z</time>
      </trkpt>
      <trkpt lat="49.63969" lon="-1.5704">
        <ele>20.763147</ele>
        <time>2021-09-05T08:13:41.000Z</time>
      </trkpt>
      <trkpt lat="49.63954" lon="-1.57028">
        <ele>20.954475</ele>
        <time>2021-09-05T08:13:44.000Z</time>
      </trkpt>
      <trkpt lat="49.63954" lon="-1.57028">
        <ele>20.954475</ele>
        <time>2021-09-05T08:13:45.000Z</time>
      </trkpt>
      <trkpt lat="49.6393" lon="-1.57021">
        <ele>21.242864</ele>
        <time>2021-09-05T08:13:49.000Z</time>
      </trkpt>
      <trkpt lat="49.63912" lon="-1.57016">
        <ele>21.444451</ele>
        <time>2021-09-05T08:13:53.000Z</time>
      </trkpt>
      <trkpt lat="49.63904" lon="-1.57016">
        <ele>21.542536</ele>
        <time>2021-09-05T08:13:55.000Z</time>
      </trkpt>
      <trkpt lat="49.63896" lon="-1.5702">
        <ele>21.633478</ele>
        <time>2021-09-05T08:13:57.000Z</time>
      </trkpt>
      <trkpt lat="49.63888" lon="-1.57023">
        <ele>21.714935</ele>
        <time>2021-09-05T08:14:00.000Z</time>
      </trkpt>
      <trkpt lat="49.63873" lon="-1.57031">
        <ele>21.802136</ele>
        <time>2021-09-05T08:14:04.000Z</time>
      </trkpt>
      <trkpt lat="49.63869" lon="-1.57033">
        <ele>21.825356</ele>
        <time>2021-09-05T08:14:05.000Z</time>
      </trkpt>
      <trkpt lat="49.63851" lon="-1.57038">
        <ele>21.921939</ele>
        <time>2021-09-05T08:14:08.000Z</time>
      </trkpt>
      <trkpt lat="49.63833" lon="-1.57044">
        <ele>22.023677</ele>
        <time>2021-09-05T08:14:12.000Z</time>
      </trkpt>
      <trkpt lat="49.63799" lon="-1.57053">
        <ele>22.207423</ele>
        <time>2021-09-05T08:14:19.000Z</time>
      </trkpt>
      <trkpt lat="49.63794" lon="-1.57054">
        <ele>22.233148</ele>
        <time>2021-09-05T08:14:20.000Z</time>
      </trkpt>
      <trkpt lat="49.63768" lon="-1.57061">
        <ele>22.376028</ele>
        <time>2021-09-05T08:14:27.000Z</time>
      </trkpt>
      <trkpt lat="49.63742" lon="-1.57068">
        <ele>22.517785</ele>
        <time>2021-09-05T08:14:34.000Z</time>
      </trkpt>
      <trkpt lat="49.63728" lon="-1.57072">
        <ele>22.598332</ele>
        <time>2021-09-05T08:14:39.000Z</time>
      </trkpt>
      <trkpt lat="49.63711" lon="-1.57076">
        <ele>22.695903</ele>
        <time>2021-09-05T08:14:44.000Z</time>
      </trkpt>
      <trkpt lat="49.63682" lon="-1.57084">
        <ele>22.945485</ele>
        <time>2021-09-05T08:14:51.000Z</time>
      </trkpt>
      <trkpt lat="49.63659" lon="-1.5708">
        <ele>23.146978</ele>
        <time>2021-09-05T08:14:58.000Z</time>
      </trkpt>
      <trkpt lat="49.63627" lon="-1.57056">
        <ele>23.442087</ele>
        <time>2021-09-05T08:15:05.000Z</time>
      </trkpt>
      <trkpt lat="49.63623" lon="-1.57053">
        <ele>23.48111</ele>
        <time>2021-09-05T08:15:06.000Z</time>
      </trkpt>
      <trkpt lat="49.63598" lon="-1.5704">
        <ele>23.711126</ele>
        <time>2021-09-05T08:15:12.000Z</time>
      </trkpt>
      <trkpt lat="49.63588" lon="-1.5703">
        <ele>23.812835</ele>
        <time>2021-09-05T08:15:16.000Z</time>
      </trkpt>
      <trkpt lat="49.63579" lon="-1.57021">
        <ele>23.904118</ele>
        <time>2021-09-05T08:15:17.000Z</time>
      </trkpt>
      <trkpt lat="49.63551" lon="-1.56997">
        <ele>24.176312</ele>
        <time>2021-09-05T08:15:25.000Z</time>
      </trkpt>
      <trkpt lat="49.63531" lon="-1.56977">
        <ele>24.616715</ele>
        <time>2021-09-05T08:15:30.000Z</time>
      </trkpt>
      <trkpt lat="49.63517" lon="-1.56955">
        <ele>25.032583</ele>
        <time>2021-09-05T08:15:36.000Z</time>
      </trkpt>
      <trkpt lat="49.63504" lon="-1.56937">
        <ele>25.39315</ele>
        <time>2021-09-05T08:15:41.000Z</time>
      </trkpt>
      <trkpt lat="49.6348" lon="-1.56922">
        <ele>25.908778</ele>
        <time>2021-09-05T08:15:47.000Z</time>
      </trkpt>
      <trkpt lat="49.63446" lon="-1.56904">
        <ele>26.64467</ele>
        <time>2021-09-05T08:15:57.000Z</time>
      </trkpt>
      <trkpt lat="49.63442" lon="-1.56902">
        <ele>26.729284</ele>
        <time>2021-09-05T08:15:58.000Z</time>
      </trkpt>
      <trkpt lat="49.63428" lon="-1.56891">
        <ele>27.058407</ele>
        <time>2021-09-05T08:16:01.000Z</time>
      </trkpt>
      <trkpt lat="49.63428" lon="-1.56891">
        <ele>27.058407</ele>
        <time>2021-09-05T08:16:02.000Z</time>
      </trkpt>
      <trkpt lat="49.63425" lon="-1.56887">
        <ele>27.138418</ele>
        <time>2021-09-05T08:16:03.000Z</time>
      </trkpt>
      <trkpt lat="49.63413" lon="-1.56864">
        <ele>27.534068</ele>
        <time>2021-09-05T08:16:08.000Z</time>
      </trkpt>
      <trkpt lat="49.6339" lon="-1.56818">
        <ele>28.512594</ele>
        <time>2021-09-05T08:16:17.000Z</time>
      </trkpt>
      <trkpt lat="49.63378" lon="-1.56793">
        <ele>29.15986</ele>
        <time>2021-09-05T08:16:24.000Z</time>
      </trkpt>
      <trkpt lat="49.63365" lon="-1.56767">
        <ele>29.810341</ele>
        <time>2021-09-05T08:16:30.000Z</time>
      </trkpt>
      <trkpt lat="49.63355" lon="-1.56748">
        <ele>30.296339</ele>
        <time>2021-09-05T08:16:36.000Z</time>
      </trkpt>
      <trkpt lat="49.63343" lon="-1.56723">
        <ele>30.93341</ele>
        <time>2021-09-05T08:16:43.000Z</time>
      </trkpt>
      <trkpt lat="49.63326" lon="-1.56689">
        <ele>31.798043</ele>
        <time>2021-09-05T08:16:52.000Z</time>
      </trkpt>
      <trkpt lat="49.63314" lon="-1.56663">
        <ele>32.44692</ele>
        <time>2021-09-05T08:16:59.000Z</time>
      </trkpt>
      <trkpt lat="49.63304" lon="-1.56643">
        <ele>32.951425</ele>
        <time>2021-09-05T08:17:06.000Z</time>
      </trkpt>
      <trkpt lat="49.63276" lon="-1.56634">
        <ele>33.705867</ele>
        <time>2021-09-05T08:17:13.000Z</time>
      </trkpt>
      <trkpt lat="49.63252" lon="-1.56633">
        <ele>34.196633</ele>
        <time>2021-09-05T08:17:19.000Z</time>
      </trkpt>
      <trkpt lat="49.63232" lon="-1.56632">
        <ele>34.603923</ele>
        <time>2021-09-05T08:17:25.000Z</time>
      </trkpt>
      <trkpt lat="49.63223" lon="-1.56632">
        <ele>34.774229</ele>
        <time>2021-09-05T08:17:26.000Z</time>
      </trkpt>
      <trkpt lat="49.63215" lon="-1.56632">
        <ele>34.928485</ele>
        <time>2021-09-05T08:17:29.000Z</time>
      </trkpt>
      <trkpt lat="49.63212" lon="-1.56632">
        <ele>35.0066</ele>
        <time>2021-09-05T08:17:30.000Z</time>
      </trkpt>
      <trkpt lat="49.63204" lon="-1.56633">
        <ele>35.160893</ele>
        <time>2021-09-05T08:17:31.000Z</time>
      </trkpt>
      <trkpt lat="49.63197" lon="-1.56633">
        <ele>35.303107</ele>
        <time>2021-09-05T08:17:34.000Z</time>
      </trkpt>
      <trkpt lat="49.63188" lon="-1.56633">
        <ele>35.477417</ele>
        <time>2021-09-05T08:17:38.000Z</time>
      </trkpt>
      <trkpt lat="49.63165" lon="-1.56645">
        <ele>35.963209</ele>
        <time>2021-09-05T08:17:41.000Z</time>
      </trkpt>
      <trkpt lat="49.6316" lon="-1.56649">
        <ele>36.078149</ele>
        <time>2021-09-05T08:17:43.000Z</time>
      </trkpt>
      <trkpt lat="49.63149" lon="-1.56656">
        <ele>36.312225</ele>
        <time>2021-09-05T08:17:45.000Z</time>
      </trkpt>
      <trkpt lat="49.63138" lon="-1.56663">
        <ele>36.550498</ele>
        <time>2021-09-05T08:17:47.000Z</time>
      </trkpt>
      <trkpt lat="49.631" lon="-1.56692">
        <ele>37.132757</ele>
        <time>2021-09-05T08:17:53.000Z</time>
      </trkpt>
      <trkpt lat="49.6308" lon="-1.56713">
        <ele>37.190674</ele>
        <time>2021-09-05T08:17:56.000Z</time>
      </trkpt>
      <trkpt lat="49.63072" lon="-1.56717">
        <ele>37.209952</ele>
        <time>2021-09-05T08:17:57.000Z</time>
      </trkpt>
      <trkpt lat="49.63054" lon="-1.56723">
        <ele>37.254334</ele>
        <time>2021-09-05T08:17:58.000Z</time>
      </trkpt>
      <trkpt lat="49.63031" lon="-1.56724">
        <ele>37.309505</ele>
        <time>2021-09-05T08:18:02.000Z</time>
      </trkpt>
      <trkpt lat="49.63007" lon="-1.56723">
        <ele>37.365392</ele>
        <time>2021-09-05T08:18:05.000Z</time>
      </trkpt>
      <trkpt lat="49.63003" lon="-1.56723">
        <ele>37.37614</ele>
        <time>2021-09-05T08:18:06.000Z</time>
      </trkpt>
      <trkpt lat="49.62979" lon="-1.56722">
        <ele>37.433948</ele>
        <time>2021-09-05T08:18:13.000Z</time>
      </trkpt>
      <trkpt lat="49.62968" lon="-1.56722">
        <ele>37.460699</ele>
        <time>2021-09-05T08:18:15.000Z</time>
      </trkpt>
      <trkpt lat="49.62951" lon="-1.56722">
        <ele>37.499157</ele>
        <time>2021-09-05T08:18:19.000Z</time>
      </trkpt>
      <trkpt lat="49.62932" lon="-1.56721">
        <ele>37.645337</ele>
        <time>2021-09-05T08:18:24.000Z</time>
      </trkpt>
      <trkpt lat="49.62913" lon="-1.56721">
        <ele>37.911012</ele>
        <time>2021-09-05T08:18:30.000Z</time>
      </trkpt>
      <trkpt lat="49.62894" lon="-1.5672">
        <ele>38.16699</ele>
        <time>2021-09-05T08:18:32.000Z</time>
      </trkpt>
      <trkpt lat="49.62889" lon="-1.5672">
        <ele>38.233405</ele>
        <time>2021-09-05T08:18:34.000Z</time>
      </trkpt>
      <trkpt lat="49.62878" lon="-1.5672">
        <ele>38.387</ele>
        <time>2021-09-05T08:18:35.000Z</time>
      </trkpt>
      <trkpt lat="49.62869" lon="-1.5672">
        <ele>38.518447</ele>
        <time>2021-09-05T08:18:37.000Z</time>
      </trkpt>
      <trkpt lat="49.62857" lon="-1.56709">
        <ele>38.703907</ele>
        <time>2021-09-05T08:18:39.000Z</time>
      </trkpt>
      <trkpt lat="49.62857" lon="-1.5669">
        <ele>38.880451</ele>
        <time>2021-09-05T08:18:42.000Z</time>
      </trkpt>
      <trkpt lat="49.62854" lon="-1.56649">
        <ele>39.24799</ele>
        <time>2021-09-05T08:18:48.000Z</time>
      </trkpt>
      <trkpt lat="49.62844" lon="-1.56632">
        <ele>39.455379</ele>
        <time>2021-09-05T08:18:53.000Z</time>
      </trkpt>
      <trkpt lat="49.62827" lon="-1.56631">
        <ele>39.689256</ele>
        <time>2021-09-05T08:18:58.000Z</time>
      </trkpt>
      <trkpt lat="49.62809" lon="-1.56635">
        <ele>39.941744</ele>
        <time>2021-09-05T08:19:03.000Z</time>
      </trkpt>
      <trkpt lat="49.62787" lon="-1.5664">
        <ele>40.129307</ele>
        <time>2021-09-05T08:19:10.000Z</time>
      </trkpt>
      <trkpt lat="49.62769" lon="-1.56648">
        <ele>40.252295</ele>
        <time>2021-09-05T08:19:16.000Z</time>
      </trkpt>
      <trkpt lat="49.62754" lon="-1.56655">
        <ele>40.354694</ele>
        <time>2021-09-05T08:19:22.000Z</time>
      </trkpt>
      <trkpt lat="49.62725" lon="-1.56669">
        <ele>40.55659</ele>
        <time>2021-09-05T08:19:28.000Z</time>
      </trkpt>
      <trkpt lat="49.62705" lon="-1.56678">
        <ele>40.695154</ele>
        <time>2021-09-05T08:19:34.000Z</time>
      </trkpt>
      <trkpt lat="49.62692" lon="-1.56683">
        <ele>40.781003</ele>
        <time>2021-09-05T08:19:37.000Z</time>
      </trkpt>
      <trkpt lat="49.62679" lon="-1.56688">
        <ele>40.869738</ele>
        <time>2021-09-05T08:19:40.000Z</time>
      </trkpt>
      <trkpt lat="49.62648" lon="-1.56695">
        <ele>41.077882</ele>
        <time>2021-09-05T08:19:47.000Z</time>
      </trkpt>
      <trkpt lat="49.62618" lon="-1.56692">
        <ele>41.148528</ele>
        <time>2021-09-05T08:19:53.000Z</time>
      </trkpt>
      <trkpt lat="49.62583" lon="-1.56683">
        <ele>40.990792</ele>
        <time>2021-09-05T08:20:01.000Z</time>
      </trkpt>
      <trkpt lat="49.62555" lon="-1.56677">
        <ele>40.864566</ele>
        <time>2021-09-05T08:20:05.000Z</time>
      </trkpt>
      <trkpt lat="49.62538" lon="-1.56674">
        <ele>40.786765</ele>
        <time>2021-09-05T08:20:08.000Z</time>
      </trkpt>
      <trkpt lat="49.62502" lon="-1.56667">
        <ele>40.624885</ele>
        <time>2021-09-05T08:20:13.000Z</time>
      </trkpt>
      <trkpt lat="49.62474" lon="-1.56662">
        <ele>40.495113</ele>
        <time>2021-09-05T08:20:18.000Z</time>
      </trkpt>
      <trkpt lat="49.62444" lon="-1.56656">
        <ele>40.601854</ele>
        <time>2021-09-05T08:20:24.000Z</time>
      </trkpt>
      <trkpt lat="49.62418" lon="-1.56652">
        <ele>41.474361</ele>
        <time>2021-09-05T08:20:32.000Z</time>
      </trkpt>
      <trkpt lat="49.62405" lon="-1.56649">
        <ele>41.891755</ele>
        <time>2021-09-05T08:20:36.000Z</time>
      </trkpt>
      <trkpt lat="49.62389" lon="-1.56645">
        <ele>42.411306</ele>
        <time>2021-09-05T08:20:41.000Z</time>
      </trkpt>
      <trkpt lat="49.62374" lon="-1.56642">
        <ele>42.881963</ele>
        <time>2021-09-05T08:20:46.000Z</time>
      </trkpt>
      <trkpt lat="49.62356" lon="-1.56638">
        <ele>43.483005</ele>
        <time>2021-09-05T08:20:52.000Z</time>
      </trkpt>
      <trkpt lat="49.62345" lon="-1.56635">
        <ele>43.835371</ele>
        <time>2021-09-05T08:20:57.000Z</time>
      </trkpt>
      <trkpt lat="49.62331" lon="-1.56629">
        <ele>44.318609</ele>
        <time>2021-09-05T08:21:01.000Z</time>
      </trkpt>
      <trkpt lat="49.62309" lon="-1.56621">
        <ele>45.031473</ele>
        <time>2021-09-05T08:21:07.000Z</time>
      </trkpt>
      <trkpt lat="49.62292" lon="-1.56614">
        <ele>45.608189</ele>
        <time>2021-09-05T08:21:13.000Z</time>
      </trkpt>
      <trkpt lat="49.62268" lon="-1.56598">
        <ele>46.553909</ele>
        <time>2021-09-05T08:21:20.000Z</time>
      </trkpt>
      <trkpt lat="49.62246" lon="-1.56581">
        <ele>47.579915</ele>
        <time>2021-09-05T08:21:27.000Z</time>
      </trkpt>
      <trkpt lat="49.62223" lon="-1.56562">
        <ele>48.719842</ele>
        <time>2021-09-05T08:21:35.000Z</time>
      </trkpt>
      <trkpt lat="49.62206" lon="-1.56549">
        <ele>49.504704</ele>
        <time>2021-09-05T08:21:41.000Z</time>
      </trkpt>
      <trkpt lat="49.62183" lon="-1.56529">
        <ele>50.649712</ele>
        <time>2021-09-05T08:21:50.000Z</time>
      </trkpt>
      <trkpt lat="49.62169" lon="-1.56518">
        <ele>51.32185</ele>
        <time>2021-09-05T08:21:55.000Z</time>
      </trkpt>
      <trkpt lat="49.62152" lon="-1.56503">
        <ele>52.172744</ele>
        <time>2021-09-05T08:22:01.000Z</time>
      </trkpt>
      <trkpt lat="49.62136" lon="-1.5649">
        <ele>52.937463</ele>
        <time>2021-09-05T08:22:07.000Z</time>
      </trkpt>
      <trkpt lat="49.62133" lon="-1.56488">
        <ele>53.055469</ele>
        <time>2021-09-05T08:22:09.000Z</time>
      </trkpt>
      <trkpt lat="49.62127" lon="-1.56482">
        <ele>53.381376</ele>
        <time>2021-09-05T08:22:10.000Z</time>
      </trkpt>
      <trkpt lat="49.6211" lon="-1.56468">
        <ele>54.121231</ele>
        <time>2021-09-05T08:22:18.000Z</time>
      </trkpt>
      <trkpt lat="49.62089" lon="-1.56451">
        <ele>54.931719</ele>
        <time>2021-09-05T08:22:24.000Z</time>
      </trkpt>
      <trkpt lat="49.62072" lon="-1.56443">
        <ele>55.519835</ele>
        <time>2021-09-05T08:22:30.000Z</time>
      </trkpt>
      <trkpt lat="49.62047" lon="-1.56442">
        <ele>56.329519</ele>
        <time>2021-09-05T08:22:36.000Z</time>
      </trkpt>
      <trkpt lat="49.62022" lon="-1.56442">
        <ele>57.178891</ele>
        <time>2021-09-05T08:22:42.000Z</time>
      </trkpt>
      <trkpt lat="49.62003" lon="-1.56435">
        <ele>57.828009</ele>
        <time>2021-09-05T08:22:48.000Z</time>
      </trkpt>
      <trkpt lat="49.61981" lon="-1.56426">
        <ele>58.593031</ele>
        <time>2021-09-05T08:22:54.000Z</time>
      </trkpt>
      <trkpt lat="49.6196" lon="-1.56417">
        <ele>59.302672</ele>
        <time>2021-09-05T08:22:59.000Z</time>
      </trkpt>
      <trkpt lat="49.61956" lon="-1.56416">
        <ele>59.447287</ele>
        <time>2021-09-05T08:23:01.000Z</time>
      </trkpt>
      <trkpt lat="49.61932" lon="-1.56406">
        <ele>60.319819</ele>
        <time>2021-09-05T08:23:07.000Z</time>
      </trkpt>
      <trkpt lat="49.61911" lon="-1.56387">
        <ele>61.175473</ele>
        <time>2021-09-05T08:23:12.000Z</time>
      </trkpt>
      <trkpt lat="49.61905" lon="-1.56379">
        <ele>61.471644</ele>
        <time>2021-09-05T08:23:14.000Z</time>
      </trkpt>
      <trkpt lat="49.61893" lon="-1.56355">
        <ele>62.168062</ele>
        <time>2021-09-05T08:23:19.000Z</time>
      </trkpt>
      <trkpt lat="49.61884" lon="-1.56334">
        <ele>62.754712</ele>
        <time>2021-09-05T08:23:24.000Z</time>
      </trkpt>
      <trkpt lat="49.61869" lon="-1.56319">
        <ele>63.394459</ele>
        <time>2021-09-05T08:23:30.000Z</time>
      </trkpt>
      <trkpt lat="49.61853" lon="-1.56309">
        <ele>64.001938</ele>
        <time>2021-09-05T08:23:35.000Z</time>
      </trkpt>
      <trkpt lat="49.61837" lon="-1.56299">
        <ele>64.64783</ele>
        <time>2021-09-05T08:23:40.000Z</time>
      </trkpt>
      <trkpt lat="49.61817" lon="-1.56287">
        <ele>65.398586</ele>
        <time>2021-09-05T08:23:46.000Z</time>
      </trkpt>
      <trkpt lat="49.61803" lon="-1.56279">
        <ele>65.938037</ele>
        <time>2021-09-05T08:23:52.000Z</time>
      </trkpt>
      <trkpt lat="49.61782" lon="-1.56267">
        <ele>67.039834</ele>
        <time>2021-09-05T08:23:58.000Z</time>
      </trkpt>
      <trkpt lat="49.61763" lon="-1.56258">
        <ele>68.241451</ele>
        <time>2021-09-05T08:24:04.000Z</time>
      </trkpt>
      <trkpt lat="49.61747" lon="-1.56253">
        <ele>69.212303</ele>
        <time>2021-09-05T08:24:10.000Z</time>
      </trkpt>
      <trkpt lat="49.61723" lon="-1.56244">
        <ele>70.752354</ele>
        <time>2021-09-05T08:24:17.000Z</time>
      </trkpt>
      <trkpt lat="49.61711" lon="-1.5624">
        <ele>71.515551</ele>
        <time>2021-09-05T08:24:22.000Z</time>
      </trkpt>
      <trkpt lat="49.61695" lon="-1.56229">
        <ele>72.539142</ele>
        <time>2021-09-05T08:24:26.000Z</time>
      </trkpt>
      <trkpt lat="49.61677" lon="-1.56216">
        <ele>73.738426</ele>
        <time>2021-09-05T08:24:32.000Z</time>
      </trkpt>
      <trkpt lat="49.6166" lon="-1.56204">
        <ele>74.927179</ele>
        <time>2021-09-05T08:24:39.000Z</time>
      </trkpt>
      <trkpt lat="49.61649" lon="-1.56199">
        <ele>75.579868</ele>
        <time>2021-09-05T08:24:43.000Z</time>
      </trkpt>
      <trkpt lat="49.61642" lon="-1.56195">
        <ele>76.078703</ele>
        <time>2021-09-05T08:24:47.000Z</time>
      </trkpt>
      <trkpt lat="49.6163" lon="-1.5619">
        <ele>76.801313</ele>
        <time>2021-09-05T08:24:52.000Z</time>
      </trkpt>
      <trkpt lat="49.61622" lon="-1.56185">
        <ele>77.356969</ele>
        <time>2021-09-05T08:24:57.000Z</time>
      </trkpt>
      <trkpt lat="49.61606" lon="-1.56177">
        <ele>78.643365</ele>
        <time>2021-09-05T08:25:03.000Z</time>
      </trkpt>
      <trkpt lat="49.61592" lon="-1.56171">
        <ele>79.69969</ele>
        <time>2021-09-05T08:25:08.000Z</time>
      </trkpt>
      <trkpt lat="49.61575" lon="-1.56162">
        <ele>81.081594</ele>
        <time>2021-09-05T08:25:13.000Z</time>
      </trkpt>
      <trkpt lat="49.61556" lon="-1.56153">
        <ele>82.57345</ele>
        <time>2021-09-05T08:25:20.000Z</time>
      </trkpt>
      <trkpt lat="49.61539" lon="-1.56145">
        <ele>83.916302</ele>
        <time>2021-09-05T08:25:26.000Z</time>
      </trkpt>
      <trkpt lat="49.61525" lon="-1.5614">
        <ele>85.01749</ele>
        <time>2021-09-05T08:25:31.000Z</time>
      </trkpt>
      <trkpt lat="49.61508" lon="-1.56135">
        <ele>86.352545</ele>
        <time>2021-09-05T08:25:37.000Z</time>
      </trkpt>
      <trkpt lat="49.61491" lon="-1.56131">
        <ele>87.649446</ele>
        <time>2021-09-05T08:25:43.000Z</time>
      </trkpt>
      <trkpt lat="49.61481" lon="-1.56128">
        <ele>88.378337</ele>
        <time>2021-09-05T08:25:49.000Z</time>
      </trkpt>
      <trkpt lat="49.61467" lon="-1.56123">
        <ele>89.483224</ele>
        <time>2021-09-05T08:25:54.000Z</time>
      </trkpt>
      <trkpt lat="49.61457" lon="-1.56115">
        <ele>90.36412</ele>
        <time>2021-09-05T08:25:58.000Z</time>
      </trkpt>
      <trkpt lat="49.61452" lon="-1.56112">
        <ele>90.723737</ele>
        <time>2021-09-05T08:25:59.000Z</time>
      </trkpt>
      <trkpt lat="49.61443" lon="-1.561">
        <ele>91.659421</ele>
        <time>2021-09-05T08:26:04.000Z</time>
      </trkpt>
      <trkpt lat="49.61432" lon="-1.56085">
        <ele>92.877651</ele>
        <time>2021-09-05T08:26:10.000Z</time>
      </trkpt>
      <trkpt lat="49.61421" lon="-1.56057">
        <ele>94.633299</ele>
        <time>2021-09-05T08:26:16.000Z</time>
      </trkpt>
      <trkpt lat="49.61414" lon="-1.56028">
        <ele>96.258484</ele>
        <time>2021-09-05T08:26:23.000Z</time>
      </trkpt>
      <trkpt lat="49.61405" lon="-1.56004">
        <ele>97.772211</ele>
        <time>2021-09-05T08:26:30.000Z</time>
      </trkpt>
      <trkpt lat="49.61392" lon="-1.55988">
        <ele>99.167401</ele>
        <time>2021-09-05T08:26:36.000Z</time>
      </trkpt>
      <trkpt lat="49.61385" lon="-1.55986">
        <ele>99.713099</ele>
        <time>2021-09-05T08:26:39.000Z</time>
      </trkpt>
      <trkpt lat="49.61383" lon="-1.55985">
        <ele>99.914196</ele>
        <time>2021-09-05T08:26:40.000Z</time>
      </trkpt>
      <trkpt lat="49.61366" lon="-1.55982">
        <ele>101.338185</ele>
        <time>2021-09-05T08:26:47.000Z</time>
      </trkpt>
      <trkpt lat="49.61352" lon="-1.55982">
        <ele>102.48263</ele>
        <time>2021-09-05T08:26:54.000Z</time>
      </trkpt>
      <trkpt lat="49.61341" lon="-1.5598">
        <ele>103.353051</ele>
        <time>2021-09-05T08:26:59.000Z</time>
      </trkpt>
      <trkpt lat="49.61327" lon="-1.55978">
        <ele>104.531024</ele>
        <time>2021-09-05T08:27:05.000Z</time>
      </trkpt>
      <trkpt lat="49.61314" lon="-1.55974">
        <ele>105.632855</ele>
        <time>2021-09-05T08:27:11.000Z</time>
      </trkpt>
      <trkpt lat="49.61311" lon="-1.55973">
        <ele>105.84781</ele>
        <time>2021-09-05T08:27:12.000Z</time>
      </trkpt>
      <trkpt lat="49.613" lon="-1.55968">
        <ele>106.639452</ele>
        <time>2021-09-05T08:27:15.000Z</time>
      </trkpt>
      <trkpt lat="49.61288" lon="-1.55963">
        <ele>107.496505</ele>
        <time>2021-09-05T08:27:19.000Z</time>
      </trkpt>
      <trkpt lat="49.61268" lon="-1.55954">
        <ele>108.978316</ele>
        <time>2021-09-05T08:27:26.000Z</time>
      </trkpt>
      <trkpt lat="49.61252" lon="-1.55946">
        <ele>110.154166</ele>
        <time>2021-09-05T08:27:32.000Z</time>
      </trkpt>
      <trkpt lat="49.61234" lon="-1.55935">
        <ele>111.527669</ele>
        <time>2021-09-05T08:27:40.000Z</time>
      </trkpt>
      <trkpt lat="49.61218" lon="-1.55925">
        <ele>112.692787</ele>
        <time>2021-09-05T08:27:46.000Z</time>
      </trkpt>
      <trkpt lat="49.61192" lon="-1.55908">
        <ele>114.664343</ele>
        <time>2021-09-05T08:27:55.000Z</time>
      </trkpt>
      <trkpt lat="49.61175" lon="-1.55898">
        <ele>115.975667</ele>
        <time>2021-09-05T08:28:02.000Z</time>
      </trkpt>
      <trkpt lat="49.6116" lon="-1.5589">
        <ele>117.089205</ele>
        <time>2021-09-05T08:28:08.000Z</time>
      </trkpt>
      <trkpt lat="49.61138" lon="-1.55879">
        <ele>118.721453</ele>
        <time>2021-09-05T08:28:17.000Z</time>
      </trkpt>
      <trkpt lat="49.61124" lon="-1.55872">
        <ele>119.996267</ele>
        <time>2021-09-05T08:28:24.000Z</time>
      </trkpt>
      <trkpt lat="49.61109" lon="-1.55866">
        <ele>121.226217</ele>
        <time>2021-09-05T08:28:31.000Z</time>
      </trkpt>
      <trkpt lat="49.61096" lon="-1.5586">
        <ele>122.372275</ele>
        <time>2021-09-05T08:28:38.000Z</time>
      </trkpt>
      <trkpt lat="49.61083" lon="-1.55855">
        <ele>123.479602</ele>
        <time>2021-09-05T08:28:44.000Z</time>
      </trkpt>
      <trkpt lat="49.61074" lon="-1.55852">
        <ele>124.185853</ele>
        <time>2021-09-05T08:28:49.000Z</time>
      </trkpt>
      <trkpt lat="49.61062" lon="-1.55849">
        <ele>125.204882</ele>
        <time>2021-09-05T08:28:55.000Z</time>
      </trkpt>
      <trkpt lat="49.61045" lon="-1.55846">
        <ele>126.665521</ele>
        <time>2021-09-05T08:29:03.000Z</time>
      </trkpt>
      <trkpt lat="49.61029" lon="-1.55844">
        <ele>127.993678</ele>
        <time>2021-09-05T08:29:10.000Z</time>
      </trkpt>
      <trkpt lat="49.61012" lon="-1.55841">
        <ele>129.338256</ele>
        <time>2021-09-05T08:29:16.000Z</time>
      </trkpt>
      <trkpt lat="49.60989" lon="-1.55837">
        <ele>131.255483</ele>
        <time>2021-09-05T08:29:25.000Z</time>
      </trkpt>
      <trkpt lat="49.6097" lon="-1.55827">
        <ele>132.950149</ele>
        <time>2021-09-05T08:29:33.000Z</time>
      </trkpt>
      <trkpt lat="49.60951" lon="-1.55815">
        <ele>134.12404</ele>
        <time>2021-09-05T08:29:40.000Z</time>
      </trkpt>
      <trkpt lat="49.60933" lon="-1.55797">
        <ele>135.267991</ele>
        <time>2021-09-05T08:29:47.000Z</time>
      </trkpt>
      <trkpt lat="49.60918" lon="-1.55782">
        <ele>136.219766</ele>
        <time>2021-09-05T08:29:53.000Z</time>
      </trkpt>
      <trkpt lat="49.60902" lon="-1.55754">
        <ele>137.522479</ele>
        <time>2021-09-05T08:30:00.000Z</time>
      </trkpt>
      <trkpt lat="49.6089" lon="-1.55718">
        <ele>138.930974</ele>
        <time>2021-09-05T08:30:08.000Z</time>
      </trkpt>
      <trkpt lat="49.60877" lon="-1.55678">
        <ele>140.494265</ele>
        <time>2021-09-05T08:30:16.000Z</time>
      </trkpt>
      <trkpt lat="49.60862" lon="-1.55649">
        <ele>141.779054</ele>
        <time>2021-09-05T08:30:22.000Z</time>
      </trkpt>
      <trkpt lat="49.60846" lon="-1.55626">
        <ele>142.888786</ele>
        <time>2021-09-05T08:30:28.000Z</time>
      </trkpt>
      <trkpt lat="49.60821" lon="-1.55593">
        <ele>143.880137</ele>
        <time>2021-09-05T08:30:36.000Z</time>
      </trkpt>
      <trkpt lat="49.60801" lon="-1.55565">
        <ele>144.711865</ele>
        <time>2021-09-05T08:30:43.000Z</time>
      </trkpt>
      <trkpt lat="49.60783" lon="-1.5554">
        <ele>145.456787</ele>
        <time>2021-09-05T08:30:50.000Z</time>
      </trkpt>
      <trkpt lat="49.60766" lon="-1.55517">
        <ele>146.13446</ele>
        <time>2021-09-05T08:30:56.000Z</time>
      </trkpt>
      <trkpt lat="49.60743" lon="-1.55488">
        <ele>147.023762</ele>
        <time>2021-09-05T08:31:03.000Z</time>
      </trkpt>
      <trkpt lat="49.60716" lon="-1.55454">
        <ele>148.088076</ele>
        <time>2021-09-05T08:31:12.000Z</time>
      </trkpt>
      <trkpt lat="49.60695" lon="-1.55427">
        <ele>148.751263</ele>
        <time>2021-09-05T08:31:19.000Z</time>
      </trkpt>
      <trkpt lat="49.60683" lon="-1.55411">
        <ele>149.107287</ele>
        <time>2021-09-05T08:31:23.000Z</time>
      </trkpt>
      <trkpt lat="49.60676" lon="-1.55403">
        <ele>149.292687</ele>
        <time>2021-09-05T08:31:25.000Z</time>
      </trkpt>
      <trkpt lat="49.60661" lon="-1.55383">
        <ele>149.739646</ele>
        <time>2021-09-05T08:31:30.000Z</time>
      </trkpt>
      <trkpt lat="49.60657" lon="-1.55378">
        <ele>149.842861</ele>
        <time>2021-09-05T08:31:31.000Z</time>
      </trkpt>
      <trkpt lat="49.60636" lon="-1.55352">
        <ele>150.433276</ele>
        <time>2021-09-05T08:31:37.000Z</time>
      </trkpt>
      <trkpt lat="49.60619" lon="-1.5533">
        <ele>150.928319</ele>
        <time>2021-09-05T08:31:42.000Z</time>
      </trkpt>
      <trkpt lat="49.60614" lon="-1.55323">
        <ele>151.085755</ele>
        <time>2021-09-05T08:31:44.000Z</time>
      </trkpt>
      <trkpt lat="49.60606" lon="-1.55317">
        <ele>151.27571</ele>
        <time>2021-09-05T08:31:46.000Z</time>
      </trkpt>
      <trkpt lat="49.60591" lon="-1.55308">
        <ele>151.624945</ele>
        <time>2021-09-05T08:31:50.000Z</time>
      </trkpt>
      <trkpt lat="49.60587" lon="-1.55306">
        <ele>151.730931</ele>
        <time>2021-09-05T08:31:51.000Z</time>
      </trkpt>
      <trkpt lat="49.60558" lon="-1.55297">
        <ele>152.421071</ele>
        <time>2021-09-05T08:31:57.000Z</time>
      </trkpt>
      <trkpt lat="49.60534" lon="-1.55289">
        <ele>153.129947</ele>
        <time>2021-09-05T08:32:02.000Z</time>
      </trkpt>
      <trkpt lat="49.60516" lon="-1.55283">
        <ele>153.69675</ele>
        <time>2021-09-05T08:32:07.000Z</time>
      </trkpt>
      <trkpt lat="49.60495" lon="-1.55274">
        <ele>154.318406</ele>
        <time>2021-09-05T08:32:12.000Z</time>
      </trkpt>
      <trkpt lat="49.60476" lon="-1.55267">
        <ele>154.887805</ele>
        <time>2021-09-05T08:32:16.000Z</time>
      </trkpt>
      <trkpt lat="49.60449" lon="-1.55253">
        <ele>155.732577</ele>
        <time>2021-09-05T08:32:22.000Z</time>
      </trkpt>
      <trkpt lat="49.60418" lon="-1.55236">
        <ele>156.710625</ele>
        <time>2021-09-05T08:32:29.000Z</time>
      </trkpt>
      <trkpt lat="49.60398" lon="-1.55226">
        <ele>157.338327</ele>
        <time>2021-09-05T08:32:34.000Z</time>
      </trkpt>
      <trkpt lat="49.60382" lon="-1.55218">
        <ele>157.700266</ele>
        <time>2021-09-05T08:32:38.000Z</time>
      </trkpt>
      <trkpt lat="49.60359" lon="-1.55205">
        <ele>158.10302</ele>
        <time>2021-09-05T08:32:43.000Z</time>
      </trkpt>
      <trkpt lat="49.60335" lon="-1.55193">
        <ele>158.519946</ele>
        <time>2021-09-05T08:32:48.000Z</time>
      </trkpt>
      <trkpt lat="49.6031" lon="-1.5518">
        <ele>158.943444</ele>
        <time>2021-09-05T08:32:52.000Z</time>
      </trkpt>
      <trkpt lat="49.60273" lon="-1.55161">
        <ele>159.588556</ele>
        <time>2021-09-05T08:32:58.000Z</time>
      </trkpt>
      <trkpt lat="49.60234" lon="-1.55152">
        <ele>160.233832</ele>
        <time>2021-09-05T08:33:05.000Z</time>
      </trkpt>
      <trkpt lat="49.60224" lon="-1.55152">
        <ele>160.401586</ele>
        <time>2021-09-05T08:33:07.000Z</time>
      </trkpt>
      <trkpt lat="49.60209" lon="-1.55152">
        <ele>160.518777</ele>
        <time>2021-09-05T08:33:10.000Z</time>
      </trkpt>
      <trkpt lat="49.60204" lon="-1.55152">
        <ele>160.525181</ele>
        <time>2021-09-05T08:33:11.000Z</time>
      </trkpt>
      <trkpt lat="49.60167" lon="-1.55152">
        <ele>160.573789</ele>
        <time>2021-09-05T08:33:19.000Z</time>
      </trkpt>
      <trkpt lat="49.60147" lon="-1.55152">
        <ele>160.600706</ele>
        <time>2021-09-05T08:33:24.000Z</time>
      </trkpt>
      <trkpt lat="49.60142" lon="-1.55152">
        <ele>160.606325</ele>
        <time>2021-09-05T08:33:25.000Z</time>
      </trkpt>
      <trkpt lat="49.60138" lon="-1.55152">
        <ele>160.611813</ele>
        <time>2021-09-05T08:33:26.000Z</time>
      </trkpt>
      <trkpt lat="49.60123" lon="-1.55152">
        <ele>160.630891</ele>
        <time>2021-09-05T08:33:29.000Z</time>
      </trkpt>
      <trkpt lat="49.60088" lon="-1.55153">
        <ele>160.677539</ele>
        <time>2021-09-05T08:33:36.000Z</time>
      </trkpt>
      <trkpt lat="49.60053" lon="-1.55153">
        <ele>160.723011</ele>
        <time>2021-09-05T08:33:43.000Z</time>
      </trkpt>
      <trkpt lat="49.60031" lon="-1.55153">
        <ele>160.89627</ele>
        <time>2021-09-05T08:33:48.000Z</time>
      </trkpt>
      <trkpt lat="49.60027" lon="-1.55153">
        <ele>160.984513</ele>
        <time>2021-09-05T08:33:49.000Z</time>
      </trkpt>
      <trkpt lat="49.60023" lon="-1.55153">
        <ele>161.075018</ele>
        <time>2021-09-05T08:33:50.000Z</time>
      </trkpt>
      <trkpt lat="49.60006" lon="-1.55153">
        <ele>161.455211</ele>
        <time>2021-09-05T08:33:54.000Z</time>
      </trkpt>
      <trkpt lat="49.59975" lon="-1.55167">
        <ele>162.201271</ele>
        <time>2021-09-05T08:34:02.000Z</time>
      </trkpt>
      <trkpt lat="49.59953" lon="-1.55183">
        <ele>162.736798</ele>
        <time>2021-09-05T08:34:08.000Z</time>
      </trkpt>
      <trkpt lat="49.59937" lon="-1.55196">
        <ele>163.149283</ele>
        <time>2021-09-05T08:34:13.000Z</time>
      </trkpt>
      <trkpt lat="49.59921" lon="-1.55209">
        <ele>163.561199</ele>
        <time>2021-09-05T08:34:18.000Z</time>
      </trkpt>
      <trkpt lat="49.59908" lon="-1.55221">
        <ele>163.909412</ele>
        <time>2021-09-05T08:34:22.000Z</time>
      </trkpt>
      <trkpt lat="49.59901" lon="-1.55226">
        <ele>164.0872</ele>
        <time>2021-09-05T08:34:24.000Z</time>
      </trkpt>
      <trkpt lat="49.5988" lon="-1.55243">
        <ele>164.609811</ele>
        <time>2021-09-05T08:34:30.000Z</time>
      </trkpt>
      <trkpt lat="49.59877" lon="-1.55247">
        <ele>164.705075</ele>
        <time>2021-09-05T08:34:31.000Z</time>
      </trkpt>
      <trkpt lat="49.59857" lon="-1.55264">
        <ele>165.286442</ele>
        <time>2021-09-05T08:34:36.000Z</time>
      </trkpt>
      <trkpt lat="49.59832" lon="-1.55284">
        <ele>165.998187</ele>
        <time>2021-09-05T08:34:42.000Z</time>
      </trkpt>
      <trkpt lat="49.59829" lon="-1.55287">
        <ele>166.110533</ele>
        <time>2021-09-05T08:34:43.000Z</time>
      </trkpt>
      <trkpt lat="49.59818" lon="-1.55296">
        <ele>166.422477</ele>
        <time>2021-09-05T08:34:46.000Z</time>
      </trkpt>
      <trkpt lat="49.59801" lon="-1.55312">
        <ele>166.95399</ele>
        <time>2021-09-05T08:34:51.000Z</time>
      </trkpt>
      <trkpt lat="49.59793" lon="-1.55319">
        <ele>167.169628</ele>
        <time>2021-09-05T08:34:53.000Z</time>
      </trkpt>
      <trkpt lat="49.59785" lon="-1.55326">
        <ele>167.415308</ele>
        <time>2021-09-05T08:34:55.000Z</time>
      </trkpt>
      <trkpt lat="49.5976" lon="-1.55348">
        <ele>168.163305</ele>
        <time>2021-09-05T08:35:01.000Z</time>
      </trkpt>
      <trkpt lat="49.59756" lon="-1.55352">
        <ele>168.283479</ele>
        <time>2021-09-05T08:35:02.000Z</time>
      </trkpt>
      <trkpt lat="49.59736" lon="-1.5537">
        <ele>168.895858</ele>
        <time>2021-09-05T08:35:07.000Z</time>
      </trkpt>
      <trkpt lat="49.59702" lon="-1.55401">
        <ele>169.691033</ele>
        <time>2021-09-05T08:35:15.000Z</time>
      </trkpt>
      <trkpt lat="49.59673" lon="-1.55426">
        <ele>170.113012</ele>
        <time>2021-09-05T08:35:22.000Z</time>
      </trkpt>
      <trkpt lat="49.59635" lon="-1.5546">
        <ele>170.674133</ele>
        <time>2021-09-05T08:35:31.000Z</time>
      </trkpt>
      <trkpt lat="49.59597" lon="-1.55482">
        <ele>171.186185</ele>
        <time>2021-09-05T08:35:39.000Z</time>
      </trkpt>
      <trkpt lat="49.5957" lon="-1.55498">
        <ele>171.554224</ele>
        <time>2021-09-05T08:35:45.000Z</time>
      </trkpt>
      <trkpt lat="49.59535" lon="-1.55518">
        <ele>171.791781</ele>
        <time>2021-09-05T08:35:53.000Z</time>
      </trkpt>
      <trkpt lat="49.59515" lon="-1.5553">
        <ele>171.818801</ele>
        <time>2021-09-05T08:35:58.000Z</time>
      </trkpt>
      <trkpt lat="49.59497" lon="-1.55542">
        <ele>171.843094</ele>
        <time>2021-09-05T08:36:02.000Z</time>
      </trkpt>
      <trkpt lat="49.59475" lon="-1.55562">
        <ele>171.875214</ele>
        <time>2021-09-05T08:36:06.000Z</time>
      </trkpt>
      <trkpt lat="49.59454" lon="-1.5558">
        <ele>171.905531</ele>
        <time>2021-09-05T08:36:10.000Z</time>
      </trkpt>
      <trkpt lat="49.59438" lon="-1.55594">
        <ele>171.928767</ele>
        <time>2021-09-05T08:36:13.000Z</time>
      </trkpt>
      <trkpt lat="49.59432" lon="-1.55598">
        <ele>171.937342</ele>
        <time>2021-09-05T08:36:14.000Z</time>
      </trkpt>
      <trkpt lat="49.594" lon="-1.55612">
        <ele>171.979071</ele>
        <time>2021-09-05T08:36:19.000Z</time>
      </trkpt>
      <trkpt lat="49.59381" lon="-1.5562">
        <ele>172.149842</ele>
        <time>2021-09-05T08:36:22.000Z</time>
      </trkpt>
      <trkpt lat="49.59367" lon="-1.55624">
        <ele>172.379638</ele>
        <time>2021-09-05T08:36:24.000Z</time>
      </trkpt>
      <trkpt lat="49.59326" lon="-1.55633">
        <ele>173.05943</ele>
        <time>2021-09-05T08:36:30.000Z</time>
      </trkpt>
      <trkpt lat="49.5932" lon="-1.55634">
        <ele>173.160293</ele>
        <time>2021-09-05T08:36:31.000Z</time>
      </trkpt>
      <trkpt lat="49.59303" lon="-1.55638">
        <ele>173.446366</ele>
        <time>2021-09-05T08:36:34.000Z</time>
      </trkpt>
      <trkpt lat="49.59276" lon="-1.55643">
        <ele>173.87813</ele>
        <time>2021-09-05T08:36:39.000Z</time>
      </trkpt>
      <trkpt lat="49.59267" lon="-1.55645">
        <ele>174.031931</ele>
        <time>2021-09-05T08:36:41.000Z</time>
      </trkpt>
      <trkpt lat="49.59255" lon="-1.55651">
        <ele>174.241033</ele>
        <time>2021-09-05T08:36:44.000Z</time>
      </trkpt>
      <trkpt lat="49.59241" lon="-1.5566">
        <ele>174.483297</ele>
        <time>2021-09-05T08:36:48.000Z</time>
      </trkpt>
      <trkpt lat="49.59231" lon="-1.55671">
        <ele>174.688486</ele>
        <time>2021-09-05T08:36:53.000Z</time>
      </trkpt>
      <trkpt lat="49.59227" lon="-1.55675">
        <ele>174.765788</ele>
        <time>2021-09-05T08:36:55.000Z</time>
      </trkpt>
      <trkpt lat="49.59225" lon="-1.55678">
        <ele>174.81639</ele>
        <time>2021-09-05T08:36:57.000Z</time>
      </trkpt>
      <trkpt lat="49.59207" lon="-1.55696">
        <ele>175.223117</ele>
        <time>2021-09-05T08:37:02.000Z</time>
      </trkpt>
      <trkpt lat="49.59185" lon="-1.5572">
        <ele>175.801462</ele>
        <time>2021-09-05T08:37:09.000Z</time>
      </trkpt>
      <trkpt lat="49.59161" lon="-1.55746">
        <ele>176.415796</ele>
        <time>2021-09-05T08:37:16.000Z</time>
      </trkpt>
      <trkpt lat="49.59133" lon="-1.55776">
        <ele>177.140615</ele>
        <time>2021-09-05T08:37:24.000Z</time>
      </trkpt>
      <trkpt lat="49.59116" lon="-1.55794">
        <ele>177.561649</ele>
        <time>2021-09-05T08:37:30.000Z</time>
      </trkpt>
      <trkpt lat="49.59102" lon="-1.55809">
        <ele>177.921544</ele>
        <time>2021-09-05T08:37:34.000Z</time>
      </trkpt>
      <trkpt lat="49.59089" lon="-1.55829">
        <ele>178.321508</ele>
        <time>2021-09-05T08:37:37.000Z</time>
      </trkpt>
      <trkpt lat="49.59085" lon="-1.55839">
        <ele>178.480465</ele>
        <time>2021-09-05T08:37:38.000Z</time>
      </trkpt>
      <trkpt lat="49.59068" lon="-1.559">
        <ele>178.796604</ele>
        <time>2021-09-05T08:37:45.000Z</time>
      </trkpt>
      <trkpt lat="49.59063" lon="-1.55917">
        <ele>178.819909</ele>
        <time>2021-09-05T08:37:47.000Z</time>
      </trkpt>
      <trkpt lat="49.59053" lon="-1.55951">
        <ele>178.866325</ele>
        <time>2021-09-05T08:37:51.000Z</time>
      </trkpt>
      <trkpt lat="49.59036" lon="-1.56011">
        <ele>178.949411</ele>
        <time>2021-09-05T08:37:58.000Z</time>
      </trkpt>
      <trkpt lat="49.59012" lon="-1.56092">
        <ele>179.060502</ele>
        <time>2021-09-05T08:38:07.000Z</time>
      </trkpt>
      <trkpt lat="49.58995" lon="-1.56152">
        <ele>179.065769</ele>
        <time>2021-09-05T08:38:14.000Z</time>
      </trkpt>
      <trkpt lat="49.58973" lon="-1.5623">
        <ele>179.029715</ele>
        <time>2021-09-05T08:38:23.000Z</time>
      </trkpt>
      <trkpt lat="49.58949" lon="-1.56311">
        <ele>178.991916</ele>
        <time>2021-09-05T08:38:32.000Z</time>
      </trkpt>
      <trkpt lat="49.58928" lon="-1.56384">
        <ele>178.887424</ele>
        <time>2021-09-05T08:38:41.000Z</time>
      </trkpt>
      <trkpt lat="49.58906" lon="-1.56459">
        <ele>178.595277</ele>
        <time>2021-09-05T08:38:49.000Z</time>
      </trkpt>
      <trkpt lat="49.58884" lon="-1.56535">
        <ele>178.296156</ele>
        <time>2021-09-05T08:38:57.000Z</time>
      </trkpt>
      <trkpt lat="49.58881" lon="-1.56545">
        <ele>178.260742</ele>
        <time>2021-09-05T08:38:58.000Z</time>
      </trkpt>
      <trkpt lat="49.58871" lon="-1.56581">
        <ele>178.117341</ele>
        <time>2021-09-05T08:39:01.000Z</time>
      </trkpt>
      <trkpt lat="49.58867" lon="-1.56595">
        <ele>178.063184</ele>
        <time>2021-09-05T08:39:03.000Z</time>
      </trkpt>
      <trkpt lat="49.58865" lon="-1.566">
        <ele>178.045088</ele>
        <time>2021-09-05T08:39:04.000Z</time>
      </trkpt>
      <trkpt lat="49.58857" lon="-1.566">
        <ele>177.996151</ele>
        <time>2021-09-05T08:39:06.000Z</time>
      </trkpt>
      <trkpt lat="49.58836" lon="-1.56586">
        <ele>177.55986</ele>
        <time>2021-09-05T08:39:10.000Z</time>
      </trkpt>
      <trkpt lat="49.58803" lon="-1.56562">
        <ele>176.776849</ele>
        <time>2021-09-05T08:39:15.000Z</time>
      </trkpt>
      <trkpt lat="49.58756" lon="-1.56528">
        <ele>175.658516</ele>
        <time>2021-09-05T08:39:21.000Z</time>
      </trkpt>
      <trkpt lat="49.58708" lon="-1.56493">
        <ele>174.511453</ele>
        <time>2021-09-05T08:39:27.000Z</time>
      </trkpt>
      <trkpt lat="49.58658" lon="-1.56455">
        <ele>173.146175</ele>
        <time>2021-09-05T08:39:33.000Z</time>
      </trkpt>
      <trkpt lat="49.58649" lon="-1.56449">
        <ele>172.903247</ele>
        <time>2021-09-05T08:39:34.000Z</time>
      </trkpt>
      <trkpt lat="49.58597" lon="-1.5641">
        <ele>171.412178</ele>
        <time>2021-09-05T08:39:40.000Z</time>
      </trkpt>
      <trkpt lat="49.58589" lon="-1.56404">
        <ele>171.177662</ele>
        <time>2021-09-05T08:39:41.000Z</time>
      </trkpt>
      <trkpt lat="49.58547" lon="-1.56373">
        <ele>169.987531</ele>
        <time>2021-09-05T08:39:46.000Z</time>
      </trkpt>
      <trkpt lat="49.58503" lon="-1.56341">
        <ele>168.524462</ele>
        <time>2021-09-05T08:39:52.000Z</time>
      </trkpt>
      <trkpt lat="49.58495" lon="-1.56336">
        <ele>168.260241</ele>
        <time>2021-09-05T08:39:53.000Z</time>
      </trkpt>
      <trkpt lat="49.58486" lon="-1.56336">
        <ele>167.956629</ele>
        <time>2021-09-05T08:39:54.000Z</time>
      </trkpt>
      <trkpt lat="49.5847" lon="-1.56343">
        <ele>167.418646</ele>
        <time>2021-09-05T08:39:56.000Z</time>
      </trkpt>
      <trkpt lat="49.58432" lon="-1.5636">
        <ele>166.123513</ele>
        <time>2021-09-05T08:40:00.000Z</time>
      </trkpt>
      <trkpt lat="49.58379" lon="-1.56384">
        <ele>164.318673</ele>
        <time>2021-09-05T08:40:05.000Z</time>
      </trkpt>
      <trkpt lat="49.58368" lon="-1.56388">
        <ele>163.961821</ele>
        <time>2021-09-05T08:40:06.000Z</time>
      </trkpt>
      <trkpt lat="49.58339" lon="-1.564">
        <ele>162.876201</ele>
        <time>2021-09-05T08:40:09.000Z</time>
      </trkpt>
      <trkpt lat="49.58279" lon="-1.56421">
        <ele>160.597913</ele>
        <time>2021-09-05T08:40:15.000Z</time>
      </trkpt>
      <trkpt lat="49.58226" lon="-1.5644">
        <ele>158.542045</ele>
        <time>2021-09-05T08:40:20.000Z</time>
      </trkpt>
      <trkpt lat="49.58214" lon="-1.56444">
        <ele>158.089918</ele>
        <time>2021-09-05T08:40:21.000Z</time>
      </trkpt>
      <trkpt lat="49.58169" lon="-1.5646">
        <ele>156.300785</ele>
        <time>2021-09-05T08:40:25.000Z</time>
      </trkpt>
      <trkpt lat="49.58112" lon="-1.56475">
        <ele>153.848476</ele>
        <time>2021-09-05T08:40:30.000Z</time>
      </trkpt>
      <trkpt lat="49.5806" lon="-1.5648">
        <ele>151.600879</ele>
        <time>2021-09-05T08:40:35.000Z</time>
      </trkpt>
      <trkpt lat="49.5803" lon="-1.56484">
        <ele>150.309825</ele>
        <time>2021-09-05T08:40:39.000Z</time>
      </trkpt>
      <trkpt lat="49.58004" lon="-1.56488">
        <ele>149.213194</ele>
        <time>2021-09-05T08:40:44.000Z</time>
      </trkpt>
      <trkpt lat="49.57979" lon="-1.56492">
        <ele>149.682293</ele>
        <time>2021-09-05T08:40:51.000Z</time>
      </trkpt>
      <trkpt lat="49.57971" lon="-1.56493">
        <ele>149.830015</ele>
        <time>2021-09-05T08:40:54.000Z</time>
      </trkpt>
      <trkpt lat="49.57947" lon="-1.56496">
        <ele>150.274803</ele>
        <time>2021-09-05T08:41:01.000Z</time>
      </trkpt>
      <trkpt lat="49.57932" lon="-1.56499">
        <ele>150.553231</ele>
        <time>2021-09-05T08:41:06.000Z</time>
      </trkpt>
      <trkpt lat="49.57929" lon="-1.56499">
        <ele>150.605559</ele>
        <time>2021-09-05T08:41:07.000Z</time>
      </trkpt>
      <trkpt lat="49.57923" lon="-1.565">
        <ele>150.719592</ele>
        <time>2021-09-05T08:41:09.000Z</time>
      </trkpt>
      <trkpt lat="49.57901" lon="-1.56506">
        <ele>151.13656</ele>
        <time>2021-09-05T08:41:16.000Z</time>
      </trkpt>
      <trkpt lat="49.57887" lon="-1.5651">
        <ele>151.410886</ele>
        <time>2021-09-05T08:41:21.000Z</time>
      </trkpt>
      <trkpt lat="49.57872" lon="-1.56514">
        <ele>151.677674</ele>
        <time>2021-09-05T08:41:26.000Z</time>
      </trkpt>
      <trkpt lat="49.5786" lon="-1.56517">
        <ele>151.919796</ele>
        <time>2021-09-05T08:41:31.000Z</time>
      </trkpt>
      <trkpt lat="49.5785" lon="-1.5652">
        <ele>152.110976</ele>
        <time>2021-09-05T08:41:35.000Z</time>
      </trkpt>
      <trkpt lat="49.57841" lon="-1.56523">
        <ele>152.277489</ele>
        <time>2021-09-05T08:41:38.000Z</time>
      </trkpt>
      <trkpt lat="49.57838" lon="-1.56523">
        <ele>152.330481</ele>
        <time>2021-09-05T08:41:39.000Z</time>
      </trkpt>
      <trkpt lat="49.57821" lon="-1.56528">
        <ele>153.117408</ele>
        <time>2021-09-05T08:41:44.000Z</time>
      </trkpt>
      <trkpt lat="49.57804" lon="-1.56533">
        <ele>154.779972</ele>
        <time>2021-09-05T08:41:49.000Z</time>
      </trkpt>
      <trkpt lat="49.57789" lon="-1.56538">
        <ele>156.322812</ele>
        <time>2021-09-05T08:41:54.000Z</time>
      </trkpt>
      <trkpt lat="49.57778" lon="-1.5654">
        <ele>157.344527</ele>
        <time>2021-09-05T08:41:58.000Z</time>
      </trkpt>
      <trkpt lat="49.57762" lon="-1.56545">
        <ele>159.027625</ele>
        <time>2021-09-05T08:42:04.000Z</time>
      </trkpt>
      <trkpt lat="49.5774" lon="-1.5655">
        <ele>161.12958</ele>
        <time>2021-09-05T08:42:11.000Z</time>
      </trkpt>
      <trkpt lat="49.57724" lon="-1.56554">
        <ele>162.789788</ele>
        <time>2021-09-05T08:42:17.000Z</time>
      </trkpt>
      <trkpt lat="49.57706" lon="-1.56561">
        <ele>164.605826</ele>
        <time>2021-09-05T08:42:24.000Z</time>
      </trkpt>
      <trkpt lat="49.57704" lon="-1.56563">
        <ele>164.807371</ele>
        <time>2021-09-05T08:42:25.000Z</time>
      </trkpt>
      <trkpt lat="49.57694" lon="-1.56571">
        <ele>165.952513</ele>
        <time>2021-09-05T08:42:30.000Z</time>
      </trkpt>
      <trkpt lat="49.57684" lon="-1.56589">
        <ele>167.456069</ele>
        <time>2021-09-05T08:42:35.000Z</time>
      </trkpt>
      <trkpt lat="49.57678" lon="-1.56604">
        <ele>168.603015</ele>
        <time>2021-09-05T08:42:40.000Z</time>
      </trkpt>
      <trkpt lat="49.57672" lon="-1.56618">
        <ele>169.62135</ele>
        <time>2021-09-05T08:42:44.000Z</time>
      </trkpt>
      <trkpt lat="49.57671" lon="-1.56621">
        <ele>169.884549</ele>
        <time>2021-09-05T08:42:45.000Z</time>
      </trkpt>
      <trkpt lat="49.57666" lon="-1.56631">
        <ele>170.476284</ele>
        <time>2021-09-05T08:42:48.000Z</time>
      </trkpt>
      <trkpt lat="49.57654" lon="-1.56656">
        <ele>171.473611</ele>
        <time>2021-09-05T08:42:55.000Z</time>
      </trkpt>
      <trkpt lat="49.57652" lon="-1.56659">
        <ele>171.599303</ele>
        <time>2021-09-05T08:42:56.000Z</time>
      </trkpt>
      <trkpt lat="49.57646" lon="-1.56671">
        <ele>172.115882</ele>
        <time>2021-09-05T08:43:00.000Z</time>
      </trkpt>
      <trkpt lat="49.57639" lon="-1.56685">
        <ele>172.686901</ele>
        <time>2021-09-05T08:43:04.000Z</time>
      </trkpt>
      <trkpt lat="49.57633" lon="-1.56699">
        <ele>173.244513</ele>
        <time>2021-09-05T08:43:08.000Z</time>
      </trkpt>
      <trkpt lat="49.5763" lon="-1.56706">
        <ele>173.504103</ele>
        <time>2021-09-05T08:43:10.000Z</time>
      </trkpt>
      <trkpt lat="49.57624" lon="-1.56718">
        <ele>173.987482</ele>
        <time>2021-09-05T08:43:14.000Z</time>
      </trkpt>
      <trkpt lat="49.57621" lon="-1.56723">
        <ele>174.217275</ele>
        <time>2021-09-05T08:43:16.000Z</time>
      </trkpt>
      <trkpt lat="49.57618" lon="-1.56729">
        <ele>174.454862</ele>
        <time>2021-09-05T08:43:18.000Z</time>
      </trkpt>
      <trkpt lat="49.5761" lon="-1.56745">
        <ele>175.116148</ele>
        <time>2021-09-05T08:43:22.000Z</time>
      </trkpt>
      <trkpt lat="49.57608" lon="-1.5675">
        <ele>175.293684</ele>
        <time>2021-09-05T08:43:23.000Z</time>
      </trkpt>
      <trkpt lat="49.57605" lon="-1.56757">
        <ele>175.577893</ele>
        <time>2021-09-05T08:43:25.000Z</time>
      </trkpt>
      <trkpt lat="49.57603" lon="-1.56761">
        <ele>175.744616</ele>
        <time>2021-09-05T08:43:26.000Z</time>
      </trkpt>
      <trkpt lat="49.57599" lon="-1.56768">
        <ele>176.034438</ele>
        <time>2021-09-05T08:43:28.000Z</time>
      </trkpt>
      <trkpt lat="49.57596" lon="-1.56776">
        <ele>176.340283</ele>
        <time>2021-09-05T08:43:30.000Z</time>
      </trkpt>
      <trkpt lat="49.57589" lon="-1.5679">
        <ele>176.925114</ele>
        <time>2021-09-05T08:43:34.000Z</time>
      </trkpt>
      <trkpt lat="49.57574" lon="-1.56821">
        <ele>178.18245</ele>
        <time>2021-09-05T08:43:41.000Z</time>
      </trkpt>
      <trkpt lat="49.57557" lon="-1.56848">
        <ele>179.268534</ele>
        <time>2021-09-05T08:43:47.000Z</time>
      </trkpt>
      <trkpt lat="49.57539" lon="-1.56878">
        <ele>179.055483</ele>
        <time>2021-09-05T08:43:53.000Z</time>
      </trkpt>
      <trkpt lat="49.57524" lon="-1.56902">
        <ele>178.889509</ele>
        <time>2021-09-05T08:43:57.000Z</time>
      </trkpt>
      <trkpt lat="49.57516" lon="-1.56914">
        <ele>178.799714</ele>
        <time>2021-09-05T08:43:59.000Z</time>
      </trkpt>
      <trkpt lat="49.57511" lon="-1.56917">
        <ele>178.758707</ele>
        <time>2021-09-05T08:44:00.000Z</time>
      </trkpt>
      <trkpt lat="49.57506" lon="-1.5692">
        <ele>178.7177</ele>
        <time>2021-09-05T08:44:01.000Z</time>
      </trkpt>
      <trkpt lat="49.57485" lon="-1.56927">
        <ele>178.546286</ele>
        <time>2021-09-05T08:44:05.000Z</time>
      </trkpt>
      <trkpt lat="49.57447" lon="-1.56936">
        <ele>178.241193</ele>
        <time>2021-09-05T08:44:12.000Z</time>
      </trkpt>
      <trkpt lat="49.57412" lon="-1.56944">
        <ele>177.966472</ele>
        <time>2021-09-05T08:44:18.000Z</time>
      </trkpt>
      <trkpt lat="49.57367" lon="-1.56954">
        <ele>177.034543</ele>
        <time>2021-09-05T08:44:25.000Z</time>
      </trkpt>
      <trkpt lat="49.5732" lon="-1.56964">
        <ele>175.856743</ele>
        <time>2021-09-05T08:44:32.000Z</time>
      </trkpt>
      <trkpt lat="49.57268" lon="-1.56976">
        <ele>174.550438</ele>
        <time>2021-09-05T08:44:41.000Z</time>
      </trkpt>
      <trkpt lat="49.57226" lon="-1.56985">
        <ele>173.493284</ele>
        <time>2021-09-05T08:44:49.000Z</time>
      </trkpt>
      <trkpt lat="49.57179" lon="-1.56996">
        <ele>173.028338</ele>
        <time>2021-09-05T08:44:58.000Z</time>
      </trkpt>
      <trkpt lat="49.57139" lon="-1.57005">
        <ele>172.698221</ele>
        <time>2021-09-05T08:45:06.000Z</time>
      </trkpt>
      <trkpt lat="49.57108" lon="-1.57012">
        <ele>172.444256</ele>
        <time>2021-09-05T08:45:13.000Z</time>
      </trkpt>
      <trkpt lat="49.57073" lon="-1.57019">
        <ele>172.156305</ele>
        <time>2021-09-05T08:45:21.000Z</time>
      </trkpt>
      <trkpt lat="49.57049" lon="-1.57025">
        <ele>171.955271</ele>
        <time>2021-09-05T08:45:26.000Z</time>
      </trkpt>
      <trkpt lat="49.57039" lon="-1.57027">
        <ele>171.903607</ele>
        <time>2021-09-05T08:45:28.000Z</time>
      </trkpt>
      <trkpt lat="49.57007" lon="-1.57034">
        <ele>171.836626</ele>
        <time>2021-09-05T08:45:34.000Z</time>
      </trkpt>
      <trkpt lat="49.56986" lon="-1.57039">
        <ele>171.792184</ele>
        <time>2021-09-05T08:45:38.000Z</time>
      </trkpt>
      <trkpt lat="49.56954" lon="-1.57046">
        <ele>171.726067</ele>
        <time>2021-09-05T08:45:43.000Z</time>
      </trkpt>
      <trkpt lat="49.56917" lon="-1.57054">
        <ele>171.647526</ele>
        <time>2021-09-05T08:45:49.000Z</time>
      </trkpt>
      <trkpt lat="49.56886" lon="-1.57061">
        <ele>171.582253</ele>
        <time>2021-09-05T08:45:54.000Z</time>
      </trkpt>
      <trkpt lat="49.56857" lon="-1.57067">
        <ele>171.560894</ele>
        <time>2021-09-05T08:45:59.000Z</time>
      </trkpt>
      <trkpt lat="49.56823" lon="-1.57076">
        <ele>171.641394</ele>
        <time>2021-09-05T08:46:05.000Z</time>
      </trkpt>
      <trkpt lat="49.56803" lon="-1.57084">
        <ele>171.689108</ele>
        <time>2021-09-05T08:46:09.000Z</time>
      </trkpt>
      <trkpt lat="49.56782" lon="-1.57093">
        <ele>171.741199</ele>
        <time>2021-09-05T08:46:13.000Z</time>
      </trkpt>
      <trkpt lat="49.56777" lon="-1.57095">
        <ele>171.75157</ele>
        <time>2021-09-05T08:46:14.000Z</time>
      </trkpt>
      <trkpt lat="49.56764" lon="-1.57101">
        <ele>171.785029</ele>
        <time>2021-09-05T08:46:17.000Z</time>
      </trkpt>
      <trkpt lat="49.5674" lon="-1.57111">
        <ele>171.841947</ele>
        <time>2021-09-05T08:46:22.000Z</time>
      </trkpt>
      <trkpt lat="49.56732" lon="-1.57115">
        <ele>171.861962</ele>
        <time>2021-09-05T08:46:23.000Z</time>
      </trkpt>
      <trkpt lat="49.56719" lon="-1.57122">
        <ele>171.893473</ele>
        <time>2021-09-05T08:46:25.000Z</time>
      </trkpt>
      <trkpt lat="49.56704" lon="-1.57117">
        <ele>171.929269</ele>
        <time>2021-09-05T08:46:27.000Z</time>
      </trkpt>
      <trkpt lat="49.56698" lon="-1.57111">
        <ele>171.945782</ele>
        <time>2021-09-05T08:46:28.000Z</time>
      </trkpt>
      <trkpt lat="49.5666" lon="-1.57071">
        <ele>171.516869</ele>
        <time>2021-09-05T08:46:35.000Z</time>
      </trkpt>
      <trkpt lat="49.56611" lon="-1.57021">
        <ele>170.864451</ele>
        <time>2021-09-05T08:46:44.000Z</time>
      </trkpt>
      <trkpt lat="49.56577" lon="-1.56986">
        <ele>170.402899</ele>
        <time>2021-09-05T08:46:50.000Z</time>
      </trkpt>
      <trkpt lat="49.56539" lon="-1.56946">
        <ele>169.811577</ele>
        <time>2021-09-05T08:46:56.000Z</time>
      </trkpt>
      <trkpt lat="49.5653" lon="-1.5693">
        <ele>169.449086</ele>
        <time>2021-09-05T08:46:58.000Z</time>
      </trkpt>
      <trkpt lat="49.56527" lon="-1.56919">
        <ele>169.247864</ele>
        <time>2021-09-05T08:47:00.000Z</time>
      </trkpt>
      <trkpt lat="49.56529" lon="-1.56863">
        <ele>168.288113</ele>
        <time>2021-09-05T08:47:04.000Z</time>
      </trkpt>
      <trkpt lat="49.56526" lon="-1.5684">
        <ele>167.889461</ele>
        <time>2021-09-05T08:47:06.000Z</time>
      </trkpt>
      <trkpt lat="49.56521" lon="-1.56832">
        <ele>167.696393</ele>
        <time>2021-09-05T08:47:07.000Z</time>
      </trkpt>
      <trkpt lat="49.56515" lon="-1.56828">
        <ele>167.528497</ele>
        <time>2021-09-05T08:47:08.000Z</time>
      </trkpt>
      <trkpt lat="49.56507" lon="-1.56824">
        <ele>167.321645</ele>
        <time>2021-09-05T08:47:09.000Z</time>
      </trkpt>
      <trkpt lat="49.565" lon="-1.56823">
        <ele>167.132924</ele>
        <time>2021-09-05T08:47:10.000Z</time>
      </trkpt>
      <trkpt lat="49.56484" lon="-1.56816">
        <ele>166.695726</ele>
        <time>2021-09-05T08:47:12.000Z</time>
      </trkpt>
      <trkpt lat="49.56478" lon="-1.56811">
        <ele>166.506861</ele>
        <time>2021-09-05T08:47:13.000Z</time>
      </trkpt>
      <trkpt lat="49.56453" lon="-1.5679">
        <ele>165.773212</ele>
        <time>2021-09-05T08:47:17.000Z</time>
      </trkpt>
      <trkpt lat="49.56448" lon="-1.56785">
        <ele>165.5991</ele>
        <time>2021-09-05T08:47:18.000Z</time>
      </trkpt>
      <trkpt lat="49.56431" lon="-1.5677">
        <ele>165.064742</ele>
        <time>2021-09-05T08:47:22.000Z</time>
      </trkpt>
      <trkpt lat="49.56428" lon="-1.56773">
        <ele>164.953794</ele>
        <time>2021-09-05T08:47:23.000Z</time>
      </trkpt>
      <trkpt lat="49.56424" lon="-1.56775">
        <ele>164.828868</ele>
        <time>2021-09-05T08:47:25.000Z</time>
      </trkpt>
      <trkpt lat="49.56417" lon="-1.56808">
        <ele>164.127019</ele>
        <time>2021-09-05T08:47:30.000Z</time>
      </trkpt>
      <trkpt lat="49.56412" lon="-1.56845">
        <ele>163.353736</ele>
        <time>2021-09-05T08:47:37.000Z</time>
      </trkpt>
      <trkpt lat="49.56408" lon="-1.56878">
        <ele>162.677048</ele>
        <time>2021-09-05T08:47:45.000Z</time>
      </trkpt>
      <trkpt lat="49.56406" lon="-1.5689">
        <ele>162.421321</ele>
        <time>2021-09-05T08:47:48.000Z</time>
      </trkpt>
      <trkpt lat="49.56406" lon="-1.56891">
        <ele>162.396661</ele>
        <time>2021-09-05T08:47:50.000Z</time>
      </trkpt>
      <trkpt lat="49.56407" lon="-1.56884">
        <ele>162.247774</ele>
        <time>2021-09-05T08:47:52.000Z</time>
      </trkpt>
      <trkpt lat="49.56408" lon="-1.56879">
        <ele>162.134877</ele>
        <time>2021-09-05T08:47:53.000Z</time>
      </trkpt>
      <trkpt lat="49.56414" lon="-1.56831">
        <ele>161.145329</ele>
        <time>2021-09-05T08:48:00.000Z</time>
      </trkpt>
      <trkpt lat="49.56417" lon="-1.56808">
        <ele>160.659165</ele>
        <time>2021-09-05T08:48:04.000Z</time>
      </trkpt>
      <trkpt lat="49.56418" lon="-1.56801">
        <ele>160.519038</ele>
        <time>2021-09-05T08:48:05.000Z</time>
      </trkpt>
      <trkpt lat="49.56411" lon="-1.56794">
        <ele>160.245612</ele>
        <time>2021-09-05T08:48:07.000Z</time>
      </trkpt>
      <trkpt lat="49.56406" lon="-1.56792">
        <ele>160.077196</ele>
        <time>2021-09-05T08:48:08.000Z</time>
      </trkpt>
      <trkpt lat="49.56399" lon="-1.56789">
        <ele>159.876803</ele>
        <time>2021-09-05T08:48:09.000Z</time>
      </trkpt>
      <trkpt lat="49.56379" lon="-1.56782">
        <ele>159.242329</ele>
        <time>2021-09-05T08:48:12.000Z</time>
      </trkpt>
      <trkpt lat="49.56349" lon="-1.5677">
        <ele>158.37211</ele>
        <time>2021-09-05T08:48:16.000Z</time>
      </trkpt>
      <trkpt lat="49.56325" lon="-1.56761">
        <ele>157.682371</ele>
        <time>2021-09-05T08:48:19.000Z</time>
      </trkpt>
      <trkpt lat="49.5631" lon="-1.56755">
        <ele>157.248203</ele>
        <time>2021-09-05T08:48:22.000Z</time>
      </trkpt>
      <trkpt lat="49.56272" lon="-1.5674">
        <ele>156.113329</ele>
        <time>2021-09-05T08:48:26.000Z</time>
      </trkpt>
      <trkpt lat="49.56231" lon="-1.56723">
        <ele>154.913879</ele>
        <time>2021-09-05T08:48:31.000Z</time>
      </trkpt>
      <trkpt lat="49.5618" lon="-1.56695">
        <ele>152.932625</ele>
        <time>2021-09-05T08:48:37.000Z</time>
      </trkpt>
      <trkpt lat="49.56164" lon="-1.56685">
        <ele>152.247185</ele>
        <time>2021-09-05T08:48:39.000Z</time>
      </trkpt>
      <trkpt lat="49.56155" lon="-1.5668">
        <ele>151.859925</ele>
        <time>2021-09-05T08:48:40.000Z</time>
      </trkpt>
      <trkpt lat="49.56146" lon="-1.56675">
        <ele>151.467033</ele>
        <time>2021-09-05T08:48:41.000Z</time>
      </trkpt>
      <trkpt lat="49.56126" lon="-1.56663">
        <ele>150.60906</ele>
        <time>2021-09-05T08:48:43.000Z</time>
      </trkpt>
      <trkpt lat="49.56108" lon="-1.56648">
        <ele>149.755755</ele>
        <time>2021-09-05T08:48:45.000Z</time>
      </trkpt>
      <trkpt lat="49.56091" lon="-1.56629">
        <ele>148.919777</ele>
        <time>2021-09-05T08:48:47.000Z</time>
      </trkpt>
      <trkpt lat="49.56053" lon="-1.56584">
        <ele>146.989498</ele>
        <time>2021-09-05T08:48:52.000Z</time>
      </trkpt>
      <trkpt lat="49.56033" lon="-1.56558">
        <ele>145.883666</ele>
        <time>2021-09-05T08:48:55.000Z</time>
      </trkpt>
      <trkpt lat="49.56029" lon="-1.56548">
        <ele>145.544555</ele>
        <time>2021-09-05T08:48:56.000Z</time>
      </trkpt>
      <trkpt lat="49.56024" lon="-1.56537">
        <ele>145.185297</ele>
        <time>2021-09-05T08:48:57.000Z</time>
      </trkpt>
      <trkpt lat="49.56011" lon="-1.56504">
        <ele>144.119248</ele>
        <time>2021-09-05T08:49:00.000Z</time>
      </trkpt>
      <trkpt lat="49.56004" lon="-1.56482">
        <ele>143.438783</ele>
        <time>2021-09-05T08:49:02.000Z</time>
      </trkpt>
      <trkpt lat="49.56001" lon="-1.56469">
        <ele>143.074921</ele>
        <time>2021-09-05T08:49:03.000Z</time>
      </trkpt>
      <trkpt lat="49.55994" lon="-1.56396">
        <ele>141.03712</ele>
        <time>2021-09-05T08:49:08.000Z</time>
      </trkpt>
      <trkpt lat="49.55994" lon="-1.56382">
        <ele>140.635257</ele>
        <time>2021-09-05T08:49:09.000Z</time>
      </trkpt>
      <trkpt lat="49.55996" lon="-1.56357">
        <ele>139.947642</ele>
        <time>2021-09-05T08:49:11.000Z</time>
      </trkpt>
      <trkpt lat="49.56003" lon="-1.5634">
        <ele>139.483202</ele>
        <time>2021-09-05T08:49:13.000Z</time>
      </trkpt>
      <trkpt lat="49.56006" lon="-1.56332">
        <ele>139.342345</ele>
        <time>2021-09-05T08:49:14.000Z</time>
      </trkpt>
      <trkpt lat="49.56014" lon="-1.56309">
        <ele>138.943247</ele>
        <time>2021-09-05T08:49:17.000Z</time>
      </trkpt>
      <trkpt lat="49.56016" lon="-1.56296">
        <ele>138.729185</ele>
        <time>2021-09-05T08:49:19.000Z</time>
      </trkpt>
      <trkpt lat="49.56021" lon="-1.56262">
        <ele>138.199791</ele>
        <time>2021-09-05T08:49:25.000Z</time>
      </trkpt>
      <trkpt lat="49.56025" lon="-1.56228">
        <ele>137.673874</ele>
        <time>2021-09-05T08:49:31.000Z</time>
      </trkpt>
      <trkpt lat="49.56028" lon="-1.56187">
        <ele>137.025053</ele>
        <time>2021-09-05T08:49:38.000Z</time>
      </trkpt>
      <trkpt lat="49.56033" lon="-1.56138">
        <ele>136.265747</ele>
        <time>2021-09-05T08:49:46.000Z</time>
      </trkpt>
      <trkpt lat="49.56034" lon="-1.56105">
        <ele>135.75435</ele>
        <time>2021-09-05T08:49:52.000Z</time>
      </trkpt>
      <trkpt lat="49.56027" lon="-1.56092">
        <ele>135.508009</ele>
        <time>2021-09-05T08:49:53.000Z</time>
      </trkpt>
      <trkpt lat="49.56021" lon="-1.56095">
        <ele>135.377398</ele>
        <time>2021-09-05T08:49:55.000Z</time>
      </trkpt>
      <trkpt lat="49.56004" lon="-1.56104">
        <ele>135.117626</ele>
        <time>2021-09-05T08:50:00.000Z</time>
      </trkpt>
      <trkpt lat="49.55995" lon="-1.5611">
        <ele>134.981656</ele>
        <time>2021-09-05T08:50:02.000Z</time>
      </trkpt>
      <trkpt lat="49.55985" lon="-1.56122">
        <ele>134.808204</ele>
        <time>2021-09-05T08:50:04.000Z</time>
      </trkpt>
      <trkpt lat="49.55957" lon="-1.56158">
        <ele>134.315424</ele>
        <time>2021-09-05T08:50:10.000Z</time>
      </trkpt>
      <trkpt lat="49.55934" lon="-1.56188">
        <ele>133.905937</ele>
        <time>2021-09-05T08:50:15.000Z</time>
      </trkpt>
      <trkpt lat="49.55913" lon="-1.56215">
        <ele>133.536256</ele>
        <time>2021-09-05T08:50:20.000Z</time>
      </trkpt>
      <trkpt lat="49.55878" lon="-1.56261">
        <ele>132.913176</ele>
        <time>2021-09-05T08:50:26.000Z</time>
      </trkpt>
      <trkpt lat="49.55841" lon="-1.56313">
        <ele>131.459226</ele>
        <time>2021-09-05T08:50:32.000Z</time>
      </trkpt>
      <trkpt lat="49.55822" lon="-1.5634">
        <ele>130.698435</ele>
        <time>2021-09-05T08:50:35.000Z</time>
      </trkpt>
      <trkpt lat="49.55805" lon="-1.56367">
        <ele>129.983281</ele>
        <time>2021-09-05T08:50:38.000Z</time>
      </trkpt>
      <trkpt lat="49.55776" lon="-1.56411">
        <ele>128.790389</ele>
        <time>2021-09-05T08:50:43.000Z</time>
      </trkpt>
      <trkpt lat="49.55763" lon="-1.56433">
        <ele>128.228704</ele>
        <time>2021-09-05T08:50:46.000Z</time>
      </trkpt>
      <trkpt lat="49.55757" lon="-1.56443">
        <ele>127.951241</ele>
        <time>2021-09-05T08:50:50.000Z</time>
      </trkpt>
      <trkpt lat="49.55756" lon="-1.56447">
        <ele>127.871471</ele>
        <time>2021-09-05T08:50:52.000Z</time>
      </trkpt>
      <trkpt lat="49.55755" lon="-1.5645">
        <ele>127.806237</ele>
        <time>2021-09-05T08:50:55.000Z</time>
      </trkpt>
      <trkpt lat="49.55752" lon="-1.56462">
        <ele>127.56084</ele>
        <time>2021-09-05T08:50:59.000Z</time>
      </trkpt>
      <trkpt lat="49.55745" lon="-1.56483">
        <ele>127.134493</ele>
        <time>2021-09-05T08:51:04.000Z</time>
      </trkpt>
      <trkpt lat="49.5574" lon="-1.56496">
        <ele>126.85111</ele>
        <time>2021-09-05T08:51:06.000Z</time>
      </trkpt>
      <trkpt lat="49.55734" lon="-1.56506">
        <ele>126.582594</ele>
        <time>2021-09-05T08:51:08.000Z</time>
      </trkpt>
      <trkpt lat="49.55723" lon="-1.56496">
        <ele>126.219</ele>
        <time>2021-09-05T08:51:13.000Z</time>
      </trkpt>
      <trkpt lat="49.55718" lon="-1.56491">
        <ele>126.055178</ele>
        <time>2021-09-05T08:51:16.000Z</time>
      </trkpt>
      <trkpt lat="49.55713" lon="-1.56496">
        <ele>125.906078</ele>
        <time>2021-09-05T08:51:18.000Z</time>
      </trkpt>
      <trkpt lat="49.55704" lon="-1.56507">
        <ele>125.556966</ele>
        <time>2021-09-05T08:51:21.000Z</time>
      </trkpt>
      <trkpt lat="49.55699" lon="-1.56511">
        <ele>125.41034</ele>
        <time>2021-09-05T08:51:22.000Z</time>
      </trkpt>
      <trkpt lat="49.55694" lon="-1.56515">
        <ele>125.250891</ele>
        <time>2021-09-05T08:51:23.000Z</time>
      </trkpt>
      <trkpt lat="49.5568" lon="-1.56527">
        <ele>124.781929</ele>
        <time>2021-09-05T08:51:26.000Z</time>
      </trkpt>
      <trkpt lat="49.55672" lon="-1.56535">
        <ele>124.494616</ele>
        <time>2021-09-05T08:51:28.000Z</time>
      </trkpt>
      <trkpt lat="49.55662" lon="-1.56544">
        <ele>124.176904</ele>
        <time>2021-09-05T08:51:30.000Z</time>
      </trkpt>
      <trkpt lat="49.55644" lon="-1.56561">
        <ele>123.54492</ele>
        <time>2021-09-05T08:51:34.000Z</time>
      </trkpt>
      <trkpt lat="49.5563" lon="-1.56574">
        <ele>123.079646</ele>
        <time>2021-09-05T08:51:37.000Z</time>
      </trkpt>
      <trkpt lat="49.55625" lon="-1.56578">
        <ele>122.926694</ele>
        <time>2021-09-05T08:51:38.000Z</time>
      </trkpt>
      <trkpt lat="49.55606" lon="-1.56596">
        <ele>122.336175</ele>
        <time>2021-09-05T08:51:42.000Z</time>
      </trkpt>
      <trkpt lat="49.55602" lon="-1.566">
        <ele>122.229095</ele>
        <time>2021-09-05T08:51:43.000Z</time>
      </trkpt>
      <trkpt lat="49.55576" lon="-1.56625">
        <ele>121.643806</ele>
        <time>2021-09-05T08:51:48.000Z</time>
      </trkpt>
      <trkpt lat="49.55548" lon="-1.5665">
        <ele>121.031746</ele>
        <time>2021-09-05T08:51:53.000Z</time>
      </trkpt>
      <trkpt lat="49.55542" lon="-1.56656">
        <ele>120.894972</ele>
        <time>2021-09-05T08:51:54.000Z</time>
      </trkpt>
      <trkpt lat="49.55514" lon="-1.56686">
        <ele>120.249414</ele>
        <time>2021-09-05T08:51:59.000Z</time>
      </trkpt>
      <trkpt lat="49.55504" lon="-1.56699">
        <ele>119.983632</ele>
        <time>2021-09-05T08:52:01.000Z</time>
      </trkpt>
      <trkpt lat="49.55493" lon="-1.56713">
        <ele>119.718064</ele>
        <time>2021-09-05T08:52:03.000Z</time>
      </trkpt>
      <trkpt lat="49.55468" lon="-1.56746">
        <ele>119.086415</ele>
        <time>2021-09-05T08:52:08.000Z</time>
      </trkpt>
      <trkpt lat="49.55449" lon="-1.56775">
        <ele>118.328918</ele>
        <time>2021-09-05T08:52:12.000Z</time>
      </trkpt>
      <trkpt lat="49.55445" lon="-1.56783">
        <ele>118.122798</ele>
        <time>2021-09-05T08:52:13.000Z</time>
      </trkpt>
      <trkpt lat="49.55429" lon="-1.56816">
        <ele>117.298321</ele>
        <time>2021-09-05T08:52:17.000Z</time>
      </trkpt>
      <trkpt lat="49.5542" lon="-1.56832">
        <ele>116.879174</ele>
        <time>2021-09-05T08:52:19.000Z</time>
      </trkpt>
      <trkpt lat="49.55413" lon="-1.56853">
        <ele>116.408038</ele>
        <time>2021-09-05T08:52:21.000Z</time>
      </trkpt>
      <trkpt lat="49.55405" lon="-1.56876">
        <ele>115.894511</ele>
        <time>2021-09-05T08:52:23.000Z</time>
      </trkpt>
      <trkpt lat="49.55395" lon="-1.56899">
        <ele>115.348126</ele>
        <time>2021-09-05T08:52:25.000Z</time>
      </trkpt>
      <trkpt lat="49.5538" lon="-1.56914">
        <ele>114.791648</ele>
        <time>2021-09-05T08:52:27.000Z</time>
      </trkpt>
      <trkpt lat="49.55373" lon="-1.56919">
        <ele>114.558689</ele>
        <time>2021-09-05T08:52:28.000Z</time>
      </trkpt>
      <trkpt lat="49.55367" lon="-1.56922">
        <ele>114.350455</ele>
        <time>2021-09-05T08:52:29.000Z</time>
      </trkpt>
      <trkpt lat="49.55352" lon="-1.56936">
        <ele>113.82642</ele>
        <time>2021-09-05T08:52:31.000Z</time>
      </trkpt>
      <trkpt lat="49.55351" lon="-1.56963">
        <ele>113.30741</ele>
        <time>2021-09-05T08:52:34.000Z</time>
      </trkpt>
      <trkpt lat="49.55351" lon="-1.56969">
        <ele>113.196189</ele>
        <time>2021-09-05T08:52:35.000Z</time>
      </trkpt>
      <trkpt lat="49.55351" lon="-1.56974">
        <ele>113.123236</ele>
        <time>2021-09-05T08:52:36.000Z</time>
      </trkpt>
      <trkpt lat="49.55341" lon="-1.56984">
        <ele>112.792075</ele>
        <time>2021-09-05T08:52:38.000Z</time>
      </trkpt>
      <trkpt lat="49.5533" lon="-1.56994">
        <ele>112.459992</ele>
        <time>2021-09-05T08:52:40.000Z</time>
      </trkpt>
      <trkpt lat="49.55314" lon="-1.57009">
        <ele>111.952089</ele>
        <time>2021-09-05T08:52:43.000Z</time>
      </trkpt>
      <trkpt lat="49.55289" lon="-1.57033">
        <ele>111.163598</ele>
        <time>2021-09-05T08:52:48.000Z</time>
      </trkpt>
      <trkpt lat="49.5526" lon="-1.57058">
        <ele>110.263505</ele>
        <time>2021-09-05T08:52:53.000Z</time>
      </trkpt>
      <trkpt lat="49.55228" lon="-1.57084">
        <ele>109.314607</ele>
        <time>2021-09-05T08:52:58.000Z</time>
      </trkpt>
      <trkpt lat="49.55217" lon="-1.5709">
        <ele>109.001222</ele>
        <time>2021-09-05T08:53:00.000Z</time>
      </trkpt>
      <trkpt lat="49.55207" lon="-1.57096">
        <ele>108.69597</ele>
        <time>2021-09-05T08:53:02.000Z</time>
      </trkpt>
      <trkpt lat="49.55173" lon="-1.57115">
        <ele>108.403367</ele>
        <time>2021-09-05T08:53:08.000Z</time>
      </trkpt>
      <trkpt lat="49.55142" lon="-1.57129">
        <ele>108.164699</ele>
        <time>2021-09-05T08:53:15.000Z</time>
      </trkpt>
      <trkpt lat="49.55115" lon="-1.57145">
        <ele>107.954226</ele>
        <time>2021-09-05T08:53:20.000Z</time>
      </trkpt>
      <trkpt lat="49.55084" lon="-1.57163">
        <ele>107.713864</ele>
        <time>2021-09-05T08:53:25.000Z</time>
      </trkpt>
      <trkpt lat="49.55079" lon="-1.57165">
        <ele>107.670007</ele>
        <time>2021-09-05T08:53:26.000Z</time>
      </trkpt>
      <trkpt lat="49.55048" lon="-1.57178">
        <ele>107.435471</ele>
        <time>2021-09-05T08:53:31.000Z</time>
      </trkpt>
      <trkpt lat="49.55034" lon="-1.57183">
        <ele>107.33558</ele>
        <time>2021-09-05T08:53:33.000Z</time>
      </trkpt>
      <trkpt lat="49.55023" lon="-1.57193">
        <ele>107.189285</ele>
        <time>2021-09-05T08:53:35.000Z</time>
      </trkpt>
      <trkpt lat="49.55019" lon="-1.57198">
        <ele>107.121356</ele>
        <time>2021-09-05T08:53:36.000Z</time>
      </trkpt>
      <trkpt lat="49.55004" lon="-1.57219">
        <ele>106.892144</ele>
        <time>2021-09-05T08:53:39.000Z</time>
      </trkpt>
      <trkpt lat="49.55" lon="-1.57228">
        <ele>106.808077</ele>
        <time>2021-09-05T08:53:40.000Z</time>
      </trkpt>
      <trkpt lat="49.54975" lon="-1.57278">
        <ele>106.336625</ele>
        <time>2021-09-05T08:53:45.000Z</time>
      </trkpt>
      <trkpt lat="49.54964" lon="-1.57291">
        <ele>106.170583</ele>
        <time>2021-09-05T08:53:47.000Z</time>
      </trkpt>
      <trkpt lat="49.54957" lon="-1.57297">
        <ele>106.084715</ele>
        <time>2021-09-05T08:53:48.000Z</time>
      </trkpt>
      <trkpt lat="49.54929" lon="-1.57321">
        <ele>105.711963</ele>
        <time>2021-09-05T08:53:52.000Z</time>
      </trkpt>
      <trkpt lat="49.54909" lon="-1.57347">
        <ele>105.413088</ele>
        <time>2021-09-05T08:53:56.000Z</time>
      </trkpt>
      <trkpt lat="49.54907" lon="-1.57351">
        <ele>105.369708</ele>
        <time>2021-09-05T08:53:57.000Z</time>
      </trkpt>
      <trkpt lat="49.54905" lon="-1.57353">
        <ele>105.344124</ele>
        <time>2021-09-05T08:53:58.000Z</time>
      </trkpt>
      <trkpt lat="49.54898" lon="-1.57352">
        <ele>105.259774</ele>
        <time>2021-09-05T08:54:00.000Z</time>
      </trkpt>
      <trkpt lat="49.54894" lon="-1.57341">
        <ele>105.234322</ele>
        <time>2021-09-05T08:54:03.000Z</time>
      </trkpt>
      <trkpt lat="49.54891" lon="-1.57336">
        <ele>105.224421</ele>
        <time>2021-09-05T08:54:04.000Z</time>
      </trkpt>
      <trkpt lat="49.54888" lon="-1.57329">
        <ele>105.213584</ele>
        <time>2021-09-05T08:54:05.000Z</time>
      </trkpt>
      <trkpt lat="49.54874" lon="-1.57301">
        <ele>105.16408</ele>
        <time>2021-09-05T08:54:09.000Z</time>
      </trkpt>
      <trkpt lat="49.54856" lon="-1.57263">
        <ele>105.097606</ele>
        <time>2021-09-05T08:54:15.000Z</time>
      </trkpt>
      <trkpt lat="49.54845" lon="-1.57252">
        <ele>105.068214</ele>
        <time>2021-09-05T08:54:17.000Z</time>
      </trkpt>
      <trkpt lat="49.54841" lon="-1.57256">
        <ele>105.058699</ele>
        <time>2021-09-05T08:54:18.000Z</time>
      </trkpt>
      <trkpt lat="49.54828" lon="-1.5727">
        <ele>105.02468</ele>
        <time>2021-09-05T08:54:21.000Z</time>
      </trkpt>
      <trkpt lat="49.54823" lon="-1.57275">
        <ele>105.011994</ele>
        <time>2021-09-05T08:54:22.000Z</time>
      </trkpt>
      <trkpt lat="49.54814" lon="-1.57286">
        <ele>104.987313</ele>
        <time>2021-09-05T08:54:24.000Z</time>
      </trkpt>
      <trkpt lat="49.54798" lon="-1.57306">
        <ele>104.942565</ele>
        <time>2021-09-05T08:54:28.000Z</time>
      </trkpt>
      <trkpt lat="49.5478" lon="-1.57337">
        <ele>104.884284</ele>
        <time>2021-09-05T08:54:33.000Z</time>
      </trkpt>
      <trkpt lat="49.54757" lon="-1.57368">
        <ele>105.025215</ele>
        <time>2021-09-05T08:54:39.000Z</time>
      </trkpt>
      <trkpt lat="49.54731" lon="-1.57402">
        <ele>105.301246</ele>
        <time>2021-09-05T08:54:44.000Z</time>
      </trkpt>
      <trkpt lat="49.54714" lon="-1.57423">
        <ele>105.475012</ele>
        <time>2021-09-05T08:54:46.000Z</time>
      </trkpt>
      <trkpt lat="49.54703" lon="-1.57433">
        <ele>105.579508</ele>
        <time>2021-09-05T08:54:48.000Z</time>
      </trkpt>
      <trkpt lat="49.54697" lon="-1.57437">
        <ele>105.627183</ele>
        <time>2021-09-05T08:54:49.000Z</time>
      </trkpt>
      <trkpt lat="49.54689" lon="-1.57439">
        <ele>105.698587</ele>
        <time>2021-09-05T08:54:51.000Z</time>
      </trkpt>
      <trkpt lat="49.5467" lon="-1.57435">
        <ele>105.853011</ele>
        <time>2021-09-05T08:54:53.000Z</time>
      </trkpt>
      <trkpt lat="49.54659" lon="-1.57422">
        <ele>105.964048</ele>
        <time>2021-09-05T08:54:55.000Z</time>
      </trkpt>
      <trkpt lat="49.54647" lon="-1.57408">
        <ele>106.0802</ele>
        <time>2021-09-05T08:54:58.000Z</time>
      </trkpt>
      <trkpt lat="49.54642" lon="-1.57406">
        <ele>106.122986</ele>
        <time>2021-09-05T08:54:59.000Z</time>
      </trkpt>
      <trkpt lat="49.54637" lon="-1.57404">
        <ele>106.168538</ele>
        <time>2021-09-05T08:55:00.000Z</time>
      </trkpt>
      <trkpt lat="49.54619" lon="-1.57398">
        <ele>106.313736</ele>
        <time>2021-09-05T08:55:03.000Z</time>
      </trkpt>
      <trkpt lat="49.54605" lon="-1.57394">
        <ele>106.141287</ele>
        <time>2021-09-05T08:55:05.000Z</time>
      </trkpt>
      <trkpt lat="49.54584" lon="-1.57387">
        <ele>105.886295</ele>
        <time>2021-09-05T08:55:08.000Z</time>
      </trkpt>
      <trkpt lat="49.54555" lon="-1.57383">
        <ele>105.543619</ele>
        <time>2021-09-05T08:55:12.000Z</time>
      </trkpt>
      <trkpt lat="49.54521" lon="-1.57378">
        <ele>105.150404</ele>
        <time>2021-09-05T08:55:16.000Z</time>
      </trkpt>
      <trkpt lat="49.54513" lon="-1.57377">
        <ele>105.058444</ele>
        <time>2021-09-05T08:55:17.000Z</time>
      </trkpt>
      <trkpt lat="49.54498" lon="-1.57377">
        <ele>104.87386</ele>
        <time>2021-09-05T08:55:19.000Z</time>
      </trkpt>
      <trkpt lat="49.54467" lon="-1.57377">
        <ele>104.51057</ele>
        <time>2021-09-05T08:55:23.000Z</time>
      </trkpt>
      <trkpt lat="49.54439" lon="-1.57383">
        <ele>104.192998</ele>
        <time>2021-09-05T08:55:28.000Z</time>
      </trkpt>
      <trkpt lat="49.54435" lon="-1.57386">
        <ele>104.173768</ele>
        <time>2021-09-05T08:55:30.000Z</time>
      </trkpt>
      <trkpt lat="49.54435" lon="-1.57386">
        <ele>104.173768</ele>
        <time>2021-09-05T08:55:31.000Z</time>
      </trkpt>
      <trkpt lat="49.54442" lon="-1.57395">
        <ele>104.135749</ele>
        <time>2021-09-05T08:55:35.000Z</time>
      </trkpt>
      <trkpt lat="49.54448" lon="-1.57414">
        <ele>104.073981</ele>
        <time>2021-09-05T08:55:39.000Z</time>
      </trkpt>
      <trkpt lat="49.54448" lon="-1.57431">
        <ele>104.02751</ele>
        <time>2021-09-05T08:55:43.000Z</time>
      </trkpt>
      <trkpt lat="49.54446" lon="-1.57437">
        <ele>104.00707</ele>
        <time>2021-09-05T08:55:45.000Z</time>
      </trkpt>
      <trkpt lat="49.54439" lon="-1.57447">
        <ele>103.965762</ele>
        <time>2021-09-05T08:55:46.000Z</time>
      </trkpt>
      <trkpt lat="49.54434" lon="-1.5745">
        <ele>103.94363</ele>
        <time>2021-09-05T08:55:47.000Z</time>
      </trkpt>
      <trkpt lat="49.54425" lon="-1.57457">
        <ele>103.902567</ele>
        <time>2021-09-05T08:55:49.000Z</time>
      </trkpt>
      <trkpt lat="49.54422" lon="-1.5746">
        <ele>103.884659</ele>
        <time>2021-09-05T08:55:50.000Z</time>
      </trkpt>
      <trkpt lat="49.54414" lon="-1.57466">
        <ele>103.847946</ele>
        <time>2021-09-05T08:55:52.000Z</time>
      </trkpt>
      <trkpt lat="49.54406" lon="-1.57473">
        <ele>103.808429</ele>
        <time>2021-09-05T08:55:55.000Z</time>
      </trkpt>
      <trkpt lat="49.54391" lon="-1.57488">
        <ele>103.731011</ele>
        <time>2021-09-05T08:55:59.000Z</time>
      </trkpt>
      <trkpt lat="49.54374" lon="-1.57506">
        <ele>103.642541</ele>
        <time>2021-09-05T08:56:04.000Z</time>
      </trkpt>
      <trkpt lat="49.54361" lon="-1.57521">
        <ele>103.572137</ele>
        <time>2021-09-05T08:56:09.000Z</time>
      </trkpt>
      <trkpt lat="49.54348" lon="-1.57538">
        <ele>103.495581</ele>
        <time>2021-09-05T08:56:14.000Z</time>
      </trkpt>
      <trkpt lat="49.5433" lon="-1.5756">
        <ele>103.431909</ele>
        <time>2021-09-05T08:56:20.000Z</time>
      </trkpt>
      <trkpt lat="49.54321" lon="-1.57579">
        <ele>103.452113</ele>
        <time>2021-09-05T08:56:25.000Z</time>
      </trkpt>
      <trkpt lat="49.54315" lon="-1.57604">
        <ele>103.476057</ele>
        <time>2021-09-05T08:56:30.000Z</time>
      </trkpt>
      <trkpt lat="49.54312" lon="-1.57625">
        <ele>103.494161</ele>
        <time>2021-09-05T08:56:34.000Z</time>
      </trkpt>
      <trkpt lat="49.54309" lon="-1.57654">
        <ele>103.520648</ele>
        <time>2021-09-05T08:56:41.000Z</time>
      </trkpt>
      <trkpt lat="49.54308" lon="-1.57659">
        <ele>103.52447</ele>
        <time>2021-09-05T08:56:42.000Z</time>
      </trkpt>
      <trkpt lat="49.54307" lon="-1.57672">
        <ele>103.536412</ele>
        <time>2021-09-05T08:56:45.000Z</time>
      </trkpt>
      <trkpt lat="49.54305" lon="-1.57695">
        <ele>103.556927</ele>
        <time>2021-09-05T08:56:50.000Z</time>
      </trkpt>
      <trkpt lat="49.54303" lon="-1.57728">
        <ele>103.585807</ele>
        <time>2021-09-05T08:56:57.000Z</time>
      </trkpt>
      <trkpt lat="49.543" lon="-1.57762">
        <ele>103.615819</ele>
        <time>2021-09-05T08:57:04.000Z</time>
      </trkpt>
      <trkpt lat="49.54299" lon="-1.57785">
        <ele>103.635449</ele>
        <time>2021-09-05T08:57:10.000Z</time>
      </trkpt>
      <trkpt lat="49.54295" lon="-1.57784">
        <ele>103.640189</ele>
        <time>2021-09-05T08:57:11.000Z</time>
      </trkpt>
      <trkpt lat="49.54289" lon="-1.57783">
        <ele>103.648738</ele>
        <time>2021-09-05T08:57:13.000Z</time>
      </trkpt>
      <trkpt lat="49.54278" lon="-1.57781">
        <ele>103.663128</ele>
        <time>2021-09-05T08:57:15.000Z</time>
      </trkpt>
      <trkpt lat="49.54272" lon="-1.5778">
        <ele>103.568753</ele>
        <time>2021-09-05T08:57:16.000Z</time>
      </trkpt>
      <trkpt lat="49.54233" lon="-1.57773">
        <ele>102.657839</ele>
        <time>2021-09-05T08:57:21.000Z</time>
      </trkpt>
      <trkpt lat="49.54179" lon="-1.57764">
        <ele>101.405652</ele>
        <time>2021-09-05T08:57:27.000Z</time>
      </trkpt>
      <trkpt lat="49.54122" lon="-1.57753">
        <ele>100.073517</ele>
        <time>2021-09-05T08:57:33.000Z</time>
      </trkpt>
      <trkpt lat="49.54113" lon="-1.57751">
        <ele>99.848883</ele>
        <time>2021-09-05T08:57:34.000Z</time>
      </trkpt>
      <trkpt lat="49.54056" lon="-1.5774">
        <ele>98.213435</ele>
        <time>2021-09-05T08:57:40.000Z</time>
      </trkpt>
      <trkpt lat="49.54046" lon="-1.57738">
        <ele>97.93098</ele>
        <time>2021-09-05T08:57:41.000Z</time>
      </trkpt>
      <trkpt lat="49.54006" lon="-1.5773">
        <ele>96.68196</ele>
        <time>2021-09-05T08:57:46.000Z</time>
      </trkpt>
      <trkpt lat="49.53981" lon="-1.57725">
        <ele>95.920618</ele>
        <time>2021-09-05T08:57:49.000Z</time>
      </trkpt>
      <trkpt lat="49.53963" lon="-1.57721">
        <ele>95.371311</ele>
        <time>2021-09-05T08:57:51.000Z</time>
      </trkpt>
      <trkpt lat="49.53916" lon="-1.57711">
        <ele>93.934287</ele>
        <time>2021-09-05T08:57:56.000Z</time>
      </trkpt>
      <trkpt lat="49.53888" lon="-1.57706">
        <ele>92.987925</ele>
        <time>2021-09-05T08:57:59.000Z</time>
      </trkpt>
      <trkpt lat="49.53878" lon="-1.57704">
        <ele>92.661368</ele>
        <time>2021-09-05T08:58:00.000Z</time>
      </trkpt>
      <trkpt lat="49.53869" lon="-1.57706">
        <ele>92.347905</ele>
        <time>2021-09-05T08:58:01.000Z</time>
      </trkpt>
      <trkpt lat="49.53861" lon="-1.57709">
        <ele>92.066829</ele>
        <time>2021-09-05T08:58:02.000Z</time>
      </trkpt>
      <trkpt lat="49.53852" lon="-1.57719">
        <ele>91.721219</ele>
        <time>2021-09-05T08:58:03.000Z</time>
      </trkpt>
      <trkpt lat="49.53839" lon="-1.57732">
        <ele>91.210337</ele>
        <time>2021-09-05T08:58:05.000Z</time>
      </trkpt>
      <trkpt lat="49.53825" lon="-1.57721">
        <ele>90.670304</ele>
        <time>2021-09-05T08:58:07.000Z</time>
      </trkpt>
      <trkpt lat="49.53817" lon="-1.57716">
        <ele>90.389038</ele>
        <time>2021-09-05T08:58:08.000Z</time>
      </trkpt>
      <trkpt lat="49.53777" lon="-1.57685">
        <ele>88.904937</ele>
        <time>2021-09-05T08:58:13.000Z</time>
      </trkpt>
      <trkpt lat="49.53729" lon="-1.57645">
        <ele>86.791234</ele>
        <time>2021-09-05T08:58:19.000Z</time>
      </trkpt>
      <trkpt lat="49.53724" lon="-1.57639">
        <ele>86.483153</ele>
        <time>2021-09-05T08:58:20.000Z</time>
      </trkpt>
      <trkpt lat="49.5372" lon="-1.5762">
        <ele>85.910269</ele>
        <time>2021-09-05T08:58:22.000Z</time>
      </trkpt>
      <trkpt lat="49.53718" lon="-1.5761">
        <ele>85.626554</ele>
        <time>2021-09-05T08:58:23.000Z</time>
      </trkpt>
      <trkpt lat="49.53711" lon="-1.5759">
        <ele>84.976926</ele>
        <time>2021-09-05T08:58:26.000Z</time>
      </trkpt>
      <trkpt lat="49.53694" lon="-1.57574">
        <ele>84.10546</ele>
        <time>2021-09-05T08:58:28.000Z</time>
      </trkpt>
      <trkpt lat="49.53681" lon="-1.57562">
        <ele>83.44473</ele>
        <time>2021-09-05T08:58:30.000Z</time>
      </trkpt>
      <trkpt lat="49.53646" lon="-1.57527">
        <ele>81.603239</ele>
        <time>2021-09-05T08:58:35.000Z</time>
      </trkpt>
      <trkpt lat="49.53606" lon="-1.57487">
        <ele>79.438378</ele>
        <time>2021-09-05T08:58:41.000Z</time>
      </trkpt>
      <trkpt lat="49.53583" lon="-1.57464">
        <ele>78.057977</ele>
        <time>2021-09-05T08:58:45.000Z</time>
      </trkpt>
      <trkpt lat="49.53576" lon="-1.57457">
        <ele>77.676348</ele>
        <time>2021-09-05T08:58:46.000Z</time>
      </trkpt>
      <trkpt lat="49.53567" lon="-1.57432">
        <ele>76.761108</ele>
        <time>2021-09-05T08:58:49.000Z</time>
      </trkpt>
      <trkpt lat="49.5356" lon="-1.57415">
        <ele>76.135707</ele>
        <time>2021-09-05T08:58:51.000Z</time>
      </trkpt>
      <trkpt lat="49.5355" lon="-1.5739">
        <ele>75.215054</ele>
        <time>2021-09-05T08:58:54.000Z</time>
      </trkpt>
      <trkpt lat="49.53547" lon="-1.57383">
        <ele>74.933</ele>
        <time>2021-09-05T08:58:55.000Z</time>
      </trkpt>
      <trkpt lat="49.53537" lon="-1.57371">
        <ele>74.313739</ele>
        <time>2021-09-05T08:58:57.000Z</time>
      </trkpt>
      <trkpt lat="49.53532" lon="-1.57367">
        <ele>74.049864</ele>
        <time>2021-09-05T08:58:58.000Z</time>
      </trkpt>
      <trkpt lat="49.53498" lon="-1.57343">
        <ele>72.211157</ele>
        <time>2021-09-05T08:59:06.000Z</time>
      </trkpt>
      <trkpt lat="49.53479" lon="-1.5733">
        <ele>71.277415</ele>
        <time>2021-09-05T08:59:11.000Z</time>
      </trkpt>
      <trkpt lat="49.53448" lon="-1.57314">
        <ele>70.615579</ele>
        <time>2021-09-05T08:59:18.000Z</time>
      </trkpt>
      <trkpt lat="49.534" lon="-1.57293">
        <ele>69.596223</ele>
        <time>2021-09-05T08:59:27.000Z</time>
      </trkpt>
      <trkpt lat="49.53377" lon="-1.57284">
        <ele>69.119438</ele>
        <time>2021-09-05T08:59:32.000Z</time>
      </trkpt>
      <trkpt lat="49.53354" lon="-1.57276">
        <ele>68.651618</ele>
        <time>2021-09-05T08:59:38.000Z</time>
      </trkpt>
      <trkpt lat="49.53338" lon="-1.5727">
        <ele>68.318497</ele>
        <time>2021-09-05T08:59:43.000Z</time>
      </trkpt>
      <trkpt lat="49.53326" lon="-1.57266">
        <ele>68.059525</ele>
        <time>2021-09-05T08:59:48.000Z</time>
      </trkpt>
      <trkpt lat="49.5331" lon="-1.57264">
        <ele>67.729265</ele>
        <time>2021-09-05T08:59:54.000Z</time>
      </trkpt>
      <trkpt lat="49.53295" lon="-1.57261">
        <ele>67.941269</ele>
        <time>2021-09-05T08:59:59.000Z</time>
      </trkpt>
      <trkpt lat="49.53279" lon="-1.57259">
        <ele>68.255489</ele>
        <time>2021-09-05T09:00:05.000Z</time>
      </trkpt>
      <trkpt lat="49.53255" lon="-1.57257">
        <ele>68.717135</ele>
        <time>2021-09-05T09:00:13.000Z</time>
      </trkpt>
      <trkpt lat="49.53244" lon="-1.57258">
        <ele>68.931454</ele>
        <time>2021-09-05T09:00:16.000Z</time>
      </trkpt>
      <trkpt lat="49.53239" lon="-1.57257">
        <ele>69.027414</ele>
        <time>2021-09-05T09:00:17.000Z</time>
      </trkpt>
      <trkpt lat="49.53218" lon="-1.57243">
        <ele>69.475628</ele>
        <time>2021-09-05T09:00:21.000Z</time>
      </trkpt>
      <trkpt lat="49.53204" lon="-1.57237">
        <ele>69.742629</ele>
        <time>2021-09-05T09:00:24.000Z</time>
      </trkpt>
      <trkpt lat="49.53194" lon="-1.57225">
        <ele>69.991252</ele>
        <time>2021-09-05T09:00:28.000Z</time>
      </trkpt>
      <trkpt lat="49.5318" lon="-1.57204">
        <ele>70.368861</ele>
        <time>2021-09-05T09:00:35.000Z</time>
      </trkpt>
      <trkpt lat="49.5317" lon="-1.57189">
        <ele>70.637341</ele>
        <time>2021-09-05T09:00:41.000Z</time>
      </trkpt>
      <trkpt lat="49.53158" lon="-1.57172">
        <ele>70.950308</ele>
        <time>2021-09-05T09:00:48.000Z</time>
      </trkpt>
      <trkpt lat="49.53146" lon="-1.57152">
        <ele>71.377621</ele>
        <time>2021-09-05T09:00:55.000Z</time>
      </trkpt>
      <trkpt lat="49.53136" lon="-1.57138">
        <ele>71.787049</ele>
        <time>2021-09-05T09:01:00.000Z</time>
      </trkpt>
      <trkpt lat="49.53124" lon="-1.57121">
        <ele>72.288147</ele>
        <time>2021-09-05T09:01:06.000Z</time>
      </trkpt>
      <trkpt lat="49.53108" lon="-1.57094">
        <ele>73.038747</ele>
        <time>2021-09-05T09:01:14.000Z</time>
      </trkpt>
      <trkpt lat="49.53091" lon="-1.57068">
        <ele>73.774187</ele>
        <time>2021-09-05T09:01:22.000Z</time>
      </trkpt>
      <trkpt lat="49.53077" lon="-1.57046">
        <ele>74.396366</ele>
        <time>2021-09-05T09:01:30.000Z</time>
      </trkpt>
      <trkpt lat="49.53066" lon="-1.57026">
        <ele>74.930518</ele>
        <time>2021-09-05T09:01:37.000Z</time>
      </trkpt>
      <trkpt lat="49.53055" lon="-1.5701">
        <ele>75.392491</ele>
        <time>2021-09-05T09:01:43.000Z</time>
      </trkpt>
      <trkpt lat="49.53044" lon="-1.5699">
        <ele>75.919458</ele>
        <time>2021-09-05T09:01:50.000Z</time>
      </trkpt>
      <trkpt lat="49.53032" lon="-1.56971">
        <ele>76.450017</ele>
        <time>2021-09-05T09:01:57.000Z</time>
      </trkpt>
      <trkpt lat="49.53019" lon="-1.5695">
        <ele>76.770435</ele>
        <time>2021-09-05T09:02:03.000Z</time>
      </trkpt>
      <trkpt lat="49.53" lon="-1.56917">
        <ele>76.846917</ele>
        <time>2021-09-05T09:02:10.000Z</time>
      </trkpt>
      <trkpt lat="49.52974" lon="-1.56876">
        <ele>76.944787</ele>
        <time>2021-09-05T09:02:18.000Z</time>
      </trkpt>
      <trkpt lat="49.52971" lon="-1.56871">
        <ele>76.957054</ele>
        <time>2021-09-05T09:02:19.000Z</time>
      </trkpt>
      <trkpt lat="49.52952" lon="-1.56846">
        <ele>77.022384</ele>
        <time>2021-09-05T09:02:24.000Z</time>
      </trkpt>
      <trkpt lat="49.52936" lon="-1.56825">
        <ele>77.078967</ele>
        <time>2021-09-05T09:02:28.000Z</time>
      </trkpt>
      <trkpt lat="49.52922" lon="-1.56808">
        <ele>77.12483</ele>
        <time>2021-09-05T09:02:31.000Z</time>
      </trkpt>
      <trkpt lat="49.52892" lon="-1.56769">
        <ele>77.179501</ele>
        <time>2021-09-05T09:02:37.000Z</time>
      </trkpt>
      <trkpt lat="49.52843" lon="-1.56723">
        <ele>76.319866</ele>
        <time>2021-09-05T09:02:45.000Z</time>
      </trkpt>
      <trkpt lat="49.528" lon="-1.56692">
        <ele>75.604955</ele>
        <time>2021-09-05T09:02:51.000Z</time>
      </trkpt>
      <trkpt lat="49.5276" lon="-1.56675">
        <ele>74.982681</ele>
        <time>2021-09-05T09:02:56.000Z</time>
      </trkpt>
      <trkpt lat="49.52727" lon="-1.5667">
        <ele>74.511274</ele>
        <time>2021-09-05T09:03:00.000Z</time>
      </trkpt>
      <trkpt lat="49.52707" lon="-1.56665">
        <ele>74.437461</ele>
        <time>2021-09-05T09:03:03.000Z</time>
      </trkpt>
      <trkpt lat="49.52702" lon="-1.56664">
        <ele>74.416654</ele>
        <time>2021-09-05T09:03:04.000Z</time>
      </trkpt>
      <trkpt lat="49.52685" lon="-1.56648">
        <ele>74.342978</ele>
        <time>2021-09-05T09:03:08.000Z</time>
      </trkpt>
      <trkpt lat="49.52681" lon="-1.56644">
        <ele>74.326448</ele>
        <time>2021-09-05T09:03:09.000Z</time>
      </trkpt>
      <trkpt lat="49.52678" lon="-1.5664">
        <ele>74.31018</ele>
        <time>2021-09-05T09:03:10.000Z</time>
      </trkpt>
      <trkpt lat="49.52665" lon="-1.56627">
        <ele>74.253321</ele>
        <time>2021-09-05T09:03:14.000Z</time>
      </trkpt>
      <trkpt lat="49.5265" lon="-1.56614">
        <ele>74.190908</ele>
        <time>2021-09-05T09:03:19.000Z</time>
      </trkpt>
      <trkpt lat="49.52629" lon="-1.56594">
        <ele>74.098803</ele>
        <time>2021-09-05T09:03:26.000Z</time>
      </trkpt>
      <trkpt lat="49.52611" lon="-1.56579">
        <ele>74.023474</ele>
        <time>2021-09-05T09:03:32.000Z</time>
      </trkpt>
      <trkpt lat="49.52587" lon="-1.56564">
        <ele>73.926685</ele>
        <time>2021-09-05T09:03:39.000Z</time>
      </trkpt>
      <trkpt lat="49.52566" lon="-1.56551">
        <ele>73.85628</ele>
        <time>2021-09-05T09:03:45.000Z</time>
      </trkpt>
      <trkpt lat="49.52554" lon="-1.56543">
        <ele>73.873996</ele>
        <time>2021-09-05T09:03:48.000Z</time>
      </trkpt>
      <trkpt lat="49.52542" lon="-1.56535">
        <ele>73.892303</ele>
        <time>2021-09-05T09:03:51.000Z</time>
      </trkpt>
      <trkpt lat="49.5251" lon="-1.56512">
        <ele>73.940154</ele>
        <time>2021-09-05T09:03:59.000Z</time>
      </trkpt>
      <trkpt lat="49.52483" lon="-1.56493">
        <ele>73.980044</ele>
        <time>2021-09-05T09:04:05.000Z</time>
      </trkpt>
      <trkpt lat="49.52451" lon="-1.56467">
        <ele>74.029509</ele>
        <time>2021-09-05T09:04:11.000Z</time>
      </trkpt>
      <trkpt lat="49.52425" lon="-1.56448">
        <ele>74.069455</ele>
        <time>2021-09-05T09:04:17.000Z</time>
      </trkpt>
      <trkpt lat="49.52419" lon="-1.56461">
        <ele>74.083765</ele>
        <time>2021-09-05T09:04:20.000Z</time>
      </trkpt>
      <trkpt lat="49.52409" lon="-1.56507">
        <ele>73.889719</ele>
        <time>2021-09-05T09:04:27.000Z</time>
      </trkpt>
      <trkpt lat="49.52397" lon="-1.56559">
        <ele>73.534393</ele>
        <time>2021-09-05T09:04:34.000Z</time>
      </trkpt>
      <trkpt lat="49.52391" lon="-1.5657">
        <ele>73.440631</ele>
        <time>2021-09-05T09:04:36.000Z</time>
      </trkpt>
      <trkpt lat="49.52381" lon="-1.5659">
        <ele>73.284995</ele>
        <time>2021-09-05T09:04:39.000Z</time>
      </trkpt>
      <trkpt lat="49.5236" lon="-1.56652">
        <ele>72.837277</ele>
        <time>2021-09-05T09:04:47.000Z</time>
      </trkpt>
      <trkpt lat="49.52347" lon="-1.56692">
        <ele>72.549375</ele>
        <time>2021-09-05T09:04:52.000Z</time>
      </trkpt>
      <trkpt lat="49.52343" lon="-1.567">
        <ele>72.484347</ele>
        <time>2021-09-05T09:04:53.000Z</time>
      </trkpt>
      <trkpt lat="49.52317" lon="-1.56743">
        <ele>72.059631</ele>
        <time>2021-09-05T09:04:59.000Z</time>
      </trkpt>
      <trkpt lat="49.52312" lon="-1.5676">
        <ele>71.90918</ele>
        <time>2021-09-05T09:05:01.000Z</time>
      </trkpt>
      <trkpt lat="49.52304" lon="-1.56783">
        <ele>71.696505</ele>
        <time>2021-09-05T09:05:04.000Z</time>
      </trkpt>
      <trkpt lat="49.523" lon="-1.5679">
        <ele>71.628087</ele>
        <time>2021-09-05T09:05:05.000Z</time>
      </trkpt>
      <trkpt lat="49.52284" lon="-1.56818">
        <ele>71.330069</ele>
        <time>2021-09-05T09:05:09.000Z</time>
      </trkpt>
      <trkpt lat="49.52261" lon="-1.56866">
        <ele>70.848628</ele>
        <time>2021-09-05T09:05:15.000Z</time>
      </trkpt>
      <trkpt lat="49.52239" lon="-1.56921">
        <ele>70.33634</ele>
        <time>2021-09-05T09:05:21.000Z</time>
      </trkpt>
      <trkpt lat="49.52209" lon="-1.56984">
        <ele>69.380906</ele>
        <time>2021-09-05T09:05:28.000Z</time>
      </trkpt>
      <trkpt lat="49.52183" lon="-1.57038">
        <ele>68.413793</ele>
        <time>2021-09-05T09:05:34.000Z</time>
      </trkpt>
      <trkpt lat="49.52175" lon="-1.57054">
        <ele>68.131849</ele>
        <time>2021-09-05T09:05:36.000Z</time>
      </trkpt>
      <trkpt lat="49.52165" lon="-1.57064">
        <ele>67.855632</ele>
        <time>2021-09-05T09:05:38.000Z</time>
      </trkpt>
      <trkpt lat="49.52141" lon="-1.57069">
        <ele>67.320244</ele>
        <time>2021-09-05T09:05:42.000Z</time>
      </trkpt>
      <trkpt lat="49.52135" lon="-1.57072">
        <ele>67.181544</ele>
        <time>2021-09-05T09:05:43.000Z</time>
      </trkpt>
      <trkpt lat="49.52111" lon="-1.57084">
        <ele>66.625687</ele>
        <time>2021-09-05T09:05:47.000Z</time>
      </trkpt>
      <trkpt lat="49.52101" lon="-1.57095">
        <ele>66.356116</ele>
        <time>2021-09-05T09:05:49.000Z</time>
      </trkpt>
      <trkpt lat="49.52086" lon="-1.57128">
        <ele>65.754894</ele>
        <time>2021-09-05T09:05:53.000Z</time>
      </trkpt>
      <trkpt lat="49.52064" lon="-1.57184">
        <ele>64.759865</ele>
        <time>2021-09-05T09:06:00.000Z</time>
      </trkpt>
      <trkpt lat="49.52046" lon="-1.57226">
        <ele>64.005652</ele>
        <time>2021-09-05T09:06:06.000Z</time>
      </trkpt>
      <trkpt lat="49.52028" lon="-1.57271">
        <ele>63.204543</ele>
        <time>2021-09-05T09:06:13.000Z</time>
      </trkpt>
      <trkpt lat="49.52023" lon="-1.57283">
        <ele>62.987793</ele>
        <time>2021-09-05T09:06:15.000Z</time>
      </trkpt>
      <trkpt lat="49.52013" lon="-1.57306">
        <ele>62.566967</ele>
        <time>2021-09-05T09:06:19.000Z</time>
      </trkpt>
      <trkpt lat="49.52005" lon="-1.57325">
        <ele>62.233604</ele>
        <time>2021-09-05T09:06:22.000Z</time>
      </trkpt>
      <trkpt lat="49.51998" lon="-1.57344">
        <ele>61.890819</ele>
        <time>2021-09-05T09:06:25.000Z</time>
      </trkpt>
      <trkpt lat="49.51993" lon="-1.57354">
        <ele>61.64015</ele>
        <time>2021-09-05T09:06:27.000Z</time>
      </trkpt>
      <trkpt lat="49.51986" lon="-1.57371">
        <ele>61.263304</ele>
        <time>2021-09-05T09:06:30.000Z</time>
      </trkpt>
      <trkpt lat="49.5198" lon="-1.57416">
        <ele>60.3927</ele>
        <time>2021-09-05T09:06:34.000Z</time>
      </trkpt>
      <trkpt lat="49.51978" lon="-1.57418">
        <ele>60.307956</ele>
        <time>2021-09-05T09:06:40.000Z</time>
      </trkpt>
      <trkpt lat="49.51967" lon="-1.5743">
        <ele>59.931673</ele>
        <time>2021-09-05T09:06:45.000Z</time>
      </trkpt>
      <trkpt lat="49.51959" lon="-1.57438">
        <ele>59.643255</ele>
        <time>2021-09-05T09:06:49.000Z</time>
      </trkpt>
      <trkpt lat="49.51946" lon="-1.57446">
        <ele>59.228941</ele>
        <time>2021-09-05T09:06:55.000Z</time>
      </trkpt>
      <trkpt lat="49.51928" lon="-1.57454">
        <ele>58.693425</ele>
        <time>2021-09-05T09:07:02.000Z</time>
      </trkpt>
      <trkpt lat="49.51914" lon="-1.57442">
        <ele>58.218563</ele>
        <time>2021-09-05T09:07:08.000Z</time>
      </trkpt>
      <trkpt lat="49.51902" lon="-1.57432">
        <ele>57.815061</ele>
        <time>2021-09-05T09:07:12.000Z</time>
      </trkpt>
      <trkpt lat="49.51898" lon="-1.57428">
        <ele>57.680248</ele>
        <time>2021-09-05T09:07:13.000Z</time>
      </trkpt>
      <trkpt lat="49.5188" lon="-1.57412">
        <ele>57.067084</ele>
        <time>2021-09-05T09:07:17.000Z</time>
      </trkpt>
      <trkpt lat="49.51875" lon="-1.57408">
        <ele>56.909725</ele>
        <time>2021-09-05T09:07:18.000Z</time>
      </trkpt>
      <trkpt lat="49.51863" lon="-1.57394">
        <ele>56.358848</ele>
        <time>2021-09-05T09:07:21.000Z</time>
      </trkpt>
      <trkpt lat="49.51856" lon="-1.57384">
        <ele>55.964833</ele>
        <time>2021-09-05T09:07:23.000Z</time>
      </trkpt>
      <trkpt lat="49.51842" lon="-1.57366">
        <ele>55.176801</ele>
        <time>2021-09-05T09:07:28.000Z</time>
      </trkpt>
      <trkpt lat="49.5183" lon="-1.57362">
        <ele>54.650061</ele>
        <time>2021-09-05T09:07:31.000Z</time>
      </trkpt>
      <trkpt lat="49.51824" lon="-1.57361">
        <ele>54.385841</ele>
        <time>2021-09-05T09:07:32.000Z</time>
      </trkpt>
      <trkpt lat="49.51811" lon="-1.57359">
        <ele>53.853169</ele>
        <time>2021-09-05T09:07:34.000Z</time>
      </trkpt>
      <trkpt lat="49.51798" lon="-1.57358">
        <ele>53.286411</ele>
        <time>2021-09-05T09:07:36.000Z</time>
      </trkpt>
      <trkpt lat="49.5177" lon="-1.57372">
        <ele>52.043101</ele>
        <time>2021-09-05T09:07:40.000Z</time>
      </trkpt>
      <trkpt lat="49.51765" lon="-1.57375">
        <ele>51.814082</ele>
        <time>2021-09-05T09:07:41.000Z</time>
      </trkpt>
      <trkpt lat="49.51752" lon="-1.57379">
        <ele>51.245268</ele>
        <time>2021-09-05T09:07:44.000Z</time>
      </trkpt>
      <trkpt lat="49.51737" lon="-1.57379">
        <ele>50.616364</ele>
        <time>2021-09-05T09:07:48.000Z</time>
      </trkpt>
      <trkpt lat="49.51722" lon="-1.5738">
        <ele>49.970483</ele>
        <time>2021-09-05T09:07:53.000Z</time>
      </trkpt>
      <trkpt lat="49.51708" lon="-1.57387">
        <ele>49.364675</ele>
        <time>2021-09-05T09:07:58.000Z</time>
      </trkpt>
      <trkpt lat="49.51703" lon="-1.57393">
        <ele>49.098693</ele>
        <time>2021-09-05T09:08:02.000Z</time>
      </trkpt>
      <trkpt lat="49.517" lon="-1.57396">
        <ele>49.097845</ele>
        <time>2021-09-05T09:08:04.000Z</time>
      </trkpt>
      <trkpt lat="49.51695" lon="-1.57401">
        <ele>49.284315</ele>
        <time>2021-09-05T09:08:06.000Z</time>
      </trkpt>
      <trkpt lat="49.51685" lon="-1.57411">
        <ele>49.671719</ele>
        <time>2021-09-05T09:08:12.000Z</time>
      </trkpt>
      <trkpt lat="49.51674" lon="-1.57415">
        <ele>50.039243</ele>
        <time>2021-09-05T09:08:18.000Z</time>
      </trkpt>
      <trkpt lat="49.51663" lon="-1.57418">
        <ele>50.37624</ele>
        <time>2021-09-05T09:08:23.000Z</time>
      </trkpt>
      <trkpt lat="49.51649" lon="-1.5742">
        <ele>50.829338</ele>
        <time>2021-09-05T09:08:29.000Z</time>
      </trkpt>
      <trkpt lat="49.51637" lon="-1.5742">
        <ele>51.207476</ele>
        <time>2021-09-05T09:08:35.000Z</time>
      </trkpt>
      <trkpt lat="49.51624" lon="-1.57418">
        <ele>51.630074</ele>
        <time>2021-09-05T09:08:40.000Z</time>
      </trkpt>
      <trkpt lat="49.5161" lon="-1.57415">
        <ele>52.065541</ele>
        <time>2021-09-05T09:08:45.000Z</time>
      </trkpt>
      <trkpt lat="49.51592" lon="-1.57412">
        <ele>52.667273</ele>
        <time>2021-09-05T09:08:53.000Z</time>
      </trkpt>
      <trkpt lat="49.51577" lon="-1.57409">
        <ele>53.137686</ele>
        <time>2021-09-05T09:08:59.000Z</time>
      </trkpt>
      <trkpt lat="49.51563" lon="-1.57402">
        <ele>53.615741</ele>
        <time>2021-09-05T09:09:04.000Z</time>
      </trkpt>
      <trkpt lat="49.51552" lon="-1.57395">
        <ele>53.967137</ele>
        <time>2021-09-05T09:09:08.000Z</time>
      </trkpt>
      <trkpt lat="49.51532" lon="-1.57381">
        <ele>54.685513</ele>
        <time>2021-09-05T09:09:15.000Z</time>
      </trkpt>
      <trkpt lat="49.51517" lon="-1.5737">
        <ele>55.213396</ele>
        <time>2021-09-05T09:09:20.000Z</time>
      </trkpt>
      <trkpt lat="49.51496" lon="-1.57356">
        <ele>55.971655</ele>
        <time>2021-09-05T09:09:26.000Z</time>
      </trkpt>
      <trkpt lat="49.51478" lon="-1.57345">
        <ele>56.600267</ele>
        <time>2021-09-05T09:09:32.000Z</time>
      </trkpt>
      <trkpt lat="49.51456" lon="-1.57331">
        <ele>57.371099</ele>
        <time>2021-09-05T09:09:39.000Z</time>
      </trkpt>
      <trkpt lat="49.51433" lon="-1.57316">
        <ele>58.186737</ele>
        <time>2021-09-05T09:09:45.000Z</time>
      </trkpt>
      <trkpt lat="49.51404" lon="-1.57296">
        <ele>59.22185</ele>
        <time>2021-09-05T09:09:51.000Z</time>
      </trkpt>
      <trkpt lat="49.51381" lon="-1.57279">
        <ele>60.047862</ele>
        <time>2021-09-05T09:09:56.000Z</time>
      </trkpt>
      <trkpt lat="49.51357" lon="-1.57264">
        <ele>60.653503</ele>
        <time>2021-09-05T09:10:01.000Z</time>
      </trkpt>
      <trkpt lat="49.51336" lon="-1.57253">
        <ele>60.761641</ele>
        <time>2021-09-05T09:10:06.000Z</time>
      </trkpt>
      <trkpt lat="49.5132" lon="-1.57241">
        <ele>60.851446</ele>
        <time>2021-09-05T09:10:10.000Z</time>
      </trkpt>
      <trkpt lat="49.51312" lon="-1.57234">
        <ele>60.897298</ele>
        <time>2021-09-05T09:10:12.000Z</time>
      </trkpt>
      <trkpt lat="49.51302" lon="-1.57224">
        <ele>60.955956</ele>
        <time>2021-09-05T09:10:15.000Z</time>
      </trkpt>
      <trkpt lat="49.51285" lon="-1.57209">
        <ele>61.054825</ele>
        <time>2021-09-05T09:10:20.000Z</time>
      </trkpt>
      <trkpt lat="49.51281" lon="-1.57205">
        <ele>61.079841</ele>
        <time>2021-09-05T09:10:21.000Z</time>
      </trkpt>
      <trkpt lat="49.51276" lon="-1.57201">
        <ele>61.106919</ele>
        <time>2021-09-05T09:10:22.000Z</time>
      </trkpt>
      <trkpt lat="49.51262" lon="-1.57188">
        <ele>61.191355</ele>
        <time>2021-09-05T09:10:25.000Z</time>
      </trkpt>
      <trkpt lat="49.51227" lon="-1.57157">
        <ele>61.392511</ele>
        <time>2021-09-05T09:10:31.000Z</time>
      </trkpt>
      <trkpt lat="49.51193" lon="-1.57121">
        <ele>61.198372</ele>
        <time>2021-09-05T09:10:37.000Z</time>
      </trkpt>
      <trkpt lat="49.51168" lon="-1.5709">
        <ele>60.626809</ele>
        <time>2021-09-05T09:10:42.000Z</time>
      </trkpt>
      <trkpt lat="49.51131" lon="-1.57044">
        <ele>59.800949</ele>
        <time>2021-09-05T09:10:50.000Z</time>
      </trkpt>
      <trkpt lat="49.51106" lon="-1.57012">
        <ele>59.22911</ele>
        <time>2021-09-05T09:10:56.000Z</time>
      </trkpt>
      <trkpt lat="49.51095" lon="-1.56998">
        <ele>58.966497</ele>
        <time>2021-09-05T09:10:59.000Z</time>
      </trkpt>
      <trkpt lat="49.5108" lon="-1.56977">
        <ele>58.623206</ele>
        <time>2021-09-05T09:11:03.000Z</time>
      </trkpt>
      <trkpt lat="49.51066" lon="-1.56954">
        <ele>58.161745</ele>
        <time>2021-09-05T09:11:07.000Z</time>
      </trkpt>
      <trkpt lat="49.51062" lon="-1.56947">
        <ele>57.91037</ele>
        <time>2021-09-05T09:11:08.000Z</time>
      </trkpt>
      <trkpt lat="49.51057" lon="-1.56941">
        <ele>57.675949</ele>
        <time>2021-09-05T09:11:09.000Z</time>
      </trkpt>
      <trkpt lat="49.51054" lon="-1.56921">
        <ele>57.161951</ele>
        <time>2021-09-05T09:11:11.000Z</time>
      </trkpt>
      <trkpt lat="49.51053" lon="-1.56867">
        <ele>55.788196</ele>
        <time>2021-09-05T09:11:16.000Z</time>
      </trkpt>
      <trkpt lat="49.51054" lon="-1.56827">
        <ele>54.773855</ele>
        <time>2021-09-05T09:11:20.000Z</time>
      </trkpt>
      <trkpt lat="49.51052" lon="-1.5681">
        <ele>54.333083</ele>
        <time>2021-09-05T09:11:22.000Z</time>
      </trkpt>
      <trkpt lat="49.51043" lon="-1.5681">
        <ele>53.977922</ele>
        <time>2021-09-05T09:11:24.000Z</time>
      </trkpt>
      <trkpt lat="49.51029" lon="-1.56842">
        <ele>52.996199</ele>
        <time>2021-09-05T09:11:29.000Z</time>
      </trkpt>
      <trkpt lat="49.51008" lon="-1.5688">
        <ele>51.746646</ele>
        <time>2021-09-05T09:11:34.000Z</time>
      </trkpt>
      <trkpt lat="49.50978" lon="-1.56932">
        <ele>50.286474</ele>
        <time>2021-09-05T09:11:40.000Z</time>
      </trkpt>
      <trkpt lat="49.50943" lon="-1.56983">
        <ele>48.804073</ele>
        <time>2021-09-05T09:11:46.000Z</time>
      </trkpt>
      <trkpt lat="49.50899" lon="-1.57047">
        <ele>46.953978</ele>
        <time>2021-09-05T09:11:54.000Z</time>
      </trkpt>
      <trkpt lat="49.50869" lon="-1.57099">
        <ele>45.753278</ele>
        <time>2021-09-05T09:12:00.000Z</time>
      </trkpt>
      <trkpt lat="49.50853" lon="-1.57142">
        <ele>45.437656</ele>
        <time>2021-09-05T09:12:05.000Z</time>
      </trkpt>
      <trkpt lat="49.50844" lon="-1.57175">
        <ele>45.215018</ele>
        <time>2021-09-05T09:12:10.000Z</time>
      </trkpt>
      <trkpt lat="49.50836" lon="-1.57226">
        <ele>44.888348</ele>
        <time>2021-09-05T09:12:19.000Z</time>
      </trkpt>
      <trkpt lat="49.50833" lon="-1.57257">
        <ele>44.69138</ele>
        <time>2021-09-05T09:12:26.000Z</time>
      </trkpt>
      <trkpt lat="49.5083" lon="-1.57289">
        <ele>44.488529</ele>
        <time>2021-09-05T09:12:33.000Z</time>
      </trkpt>
      <trkpt lat="49.50827" lon="-1.57325">
        <ele>44.255749</ele>
        <time>2021-09-05T09:12:41.000Z</time>
      </trkpt>
      <trkpt lat="49.50823" lon="-1.57367">
        <ele>44.261821</ele>
        <time>2021-09-05T09:12:50.000Z</time>
      </trkpt>
      <trkpt lat="49.50821" lon="-1.57398">
        <ele>44.573805</ele>
        <time>2021-09-05T09:12:56.000Z</time>
      </trkpt>
      <trkpt lat="49.50819" lon="-1.57428">
        <ele>44.888986</ele>
        <time>2021-09-05T09:13:02.000Z</time>
      </trkpt>
      <trkpt lat="49.50817" lon="-1.57464">
        <ele>45.249033</ele>
        <time>2021-09-05T09:13:09.000Z</time>
      </trkpt>
      <trkpt lat="49.50813" lon="-1.57517">
        <ele>45.800479</ele>
        <time>2021-09-05T09:13:19.000Z</time>
      </trkpt>
      <trkpt lat="49.5081" lon="-1.57561">
        <ele>46.250578</ele>
        <time>2021-09-05T09:13:27.000Z</time>
      </trkpt>
      <trkpt lat="49.50807" lon="-1.57616">
        <ele>46.806075</ele>
        <time>2021-09-05T09:13:36.000Z</time>
      </trkpt>
      <trkpt lat="49.50803" lon="-1.57673">
        <ele>47.452006</ele>
        <time>2021-09-05T09:13:44.000Z</time>
      </trkpt>
      <trkpt lat="49.50802" lon="-1.5768">
        <ele>47.533411</ele>
        <time>2021-09-05T09:13:45.000Z</time>
      </trkpt>
      <trkpt lat="49.508" lon="-1.57718">
        <ele>47.968777</ele>
        <time>2021-09-05T09:13:50.000Z</time>
      </trkpt>
      <trkpt lat="49.50796" lon="-1.57779">
        <ele>48.66423</ele>
        <time>2021-09-05T09:13:58.000Z</time>
      </trkpt>
      <trkpt lat="49.50793" lon="-1.57829">
        <ele>49.233351</ele>
        <time>2021-09-05T09:14:05.000Z</time>
      </trkpt>
      <trkpt lat="49.5079" lon="-1.57882">
        <ele>49.846739</ele>
        <time>2021-09-05T09:14:13.000Z</time>
      </trkpt>
      <trkpt lat="49.50787" lon="-1.57929">
        <ele>50.555435</ele>
        <time>2021-09-05T09:14:21.000Z</time>
      </trkpt>
      <trkpt lat="49.50785" lon="-1.57968">
        <ele>51.237242</ele>
        <time>2021-09-05T09:14:28.000Z</time>
      </trkpt>
      <trkpt lat="49.50782" lon="-1.58015">
        <ele>52.062214</ele>
        <time>2021-09-05T09:14:37.000Z</time>
      </trkpt>
      <trkpt lat="49.5078" lon="-1.58051">
        <ele>52.705468</ele>
        <time>2021-09-05T09:14:44.000Z</time>
      </trkpt>
      <trkpt lat="49.50777" lon="-1.58101">
        <ele>53.585253</ele>
        <time>2021-09-05T09:14:53.000Z</time>
      </trkpt>
      <trkpt lat="49.50774" lon="-1.58152">
        <ele>54.495075</ele>
        <time>2021-09-05T09:15:02.000Z</time>
      </trkpt>
      <trkpt lat="49.50772" lon="-1.5819">
        <ele>55.134624</ele>
        <time>2021-09-05T09:15:08.000Z</time>
      </trkpt>
      <trkpt lat="49.50771" lon="-1.58205">
        <ele>55.361104</ele>
        <time>2021-09-05T09:15:10.000Z</time>
      </trkpt>
      <trkpt lat="49.50769" lon="-1.58228">
        <ele>55.730372</ele>
        <time>2021-09-05T09:15:13.000Z</time>
      </trkpt>
      <trkpt lat="49.50767" lon="-1.58259">
        <ele>56.208385</ele>
        <time>2021-09-05T09:15:17.000Z</time>
      </trkpt>
      <trkpt lat="49.50766" lon="-1.58275">
        <ele>56.447167</ele>
        <time>2021-09-05T09:15:19.000Z</time>
      </trkpt>
      <trkpt lat="49.50762" lon="-1.58344">
        <ele>57.516316</ele>
        <time>2021-09-05T09:15:28.000Z</time>
      </trkpt>
      <trkpt lat="49.50759" lon="-1.58391">
        <ele>58.253316</ele>
        <time>2021-09-05T09:15:35.000Z</time>
      </trkpt>
      <trkpt lat="49.50755" lon="-1.58453">
        <ele>59.220101</ele>
        <time>2021-09-05T09:15:45.000Z</time>
      </trkpt>
      <trkpt lat="49.50752" lon="-1.58492">
        <ele>60.046529</ele>
        <time>2021-09-05T09:15:52.000Z</time>
      </trkpt>
      <trkpt lat="49.5075" lon="-1.58535">
        <ele>60.963303</ele>
        <time>2021-09-05T09:16:00.000Z</time>
      </trkpt>
      <trkpt lat="49.50747" lon="-1.58573">
        <ele>61.781743</ele>
        <time>2021-09-05T09:16:07.000Z</time>
      </trkpt>
      <trkpt lat="49.50746" lon="-1.586">
        <ele>62.360853</ele>
        <time>2021-09-05T09:16:12.000Z</time>
      </trkpt>
      <trkpt lat="49.50743" lon="-1.58636">
        <ele>63.121818</ele>
        <time>2021-09-05T09:16:18.000Z</time>
      </trkpt>
      <trkpt lat="49.50742" lon="-1.58648">
        <ele>63.388986</ele>
        <time>2021-09-05T09:16:20.000Z</time>
      </trkpt>
      <trkpt lat="49.5074" lon="-1.58669">
        <ele>63.830409</ele>
        <time>2021-09-05T09:16:23.000Z</time>
      </trkpt>
      <trkpt lat="49.50738" lon="-1.58676">
        <ele>63.980293</ele>
        <time>2021-09-05T09:16:24.000Z</time>
      </trkpt>
      <trkpt lat="49.50736" lon="-1.58683">
        <ele>64.148667</ele>
        <time>2021-09-05T09:16:25.000Z</time>
      </trkpt>
      <trkpt lat="49.5073" lon="-1.58694">
        <ele>64.469766</ele>
        <time>2021-09-05T09:16:27.000Z</time>
      </trkpt>
      <trkpt lat="49.50729" lon="-1.58703">
        <ele>64.668014</ele>
        <time>2021-09-05T09:16:28.000Z</time>
      </trkpt>
      <trkpt lat="49.50731" lon="-1.58711">
        <ele>64.834938</ele>
        <time>2021-09-05T09:16:29.000Z</time>
      </trkpt>
      <trkpt lat="49.50734" lon="-1.58718">
        <ele>65.013408</ele>
        <time>2021-09-05T09:16:30.000Z</time>
      </trkpt>
      <trkpt lat="49.50748" lon="-1.58749">
        <ele>65.607817</ele>
        <time>2021-09-05T09:16:35.000Z</time>
      </trkpt>
      <trkpt lat="49.5075" lon="-1.58756">
        <ele>65.710254</ele>
        <time>2021-09-05T09:16:36.000Z</time>
      </trkpt>
      <trkpt lat="49.50749" lon="-1.58764">
        <ele>65.829005</ele>
        <time>2021-09-05T09:16:37.000Z</time>
      </trkpt>
      <trkpt lat="49.50745" lon="-1.58775">
        <ele>66.022996</ele>
        <time>2021-09-05T09:16:39.000Z</time>
      </trkpt>
      <trkpt lat="49.50741" lon="-1.58788">
        <ele>66.227002</ele>
        <time>2021-09-05T09:16:41.000Z</time>
      </trkpt>
      <trkpt lat="49.50738" lon="-1.588">
        <ele>66.427309</ele>
        <time>2021-09-05T09:16:43.000Z</time>
      </trkpt>
      <trkpt lat="49.50736" lon="-1.58814">
        <ele>66.628303</ele>
        <time>2021-09-05T09:16:45.000Z</time>
      </trkpt>
      <trkpt lat="49.50734" lon="-1.58848">
        <ele>67.132993</ele>
        <time>2021-09-05T09:16:51.000Z</time>
      </trkpt>
      <trkpt lat="49.50732" lon="-1.58869">
        <ele>67.441167</ele>
        <time>2021-09-05T09:16:55.000Z</time>
      </trkpt>
      <trkpt lat="49.5073" lon="-1.5892">
        <ele>68.179367</ele>
        <time>2021-09-05T09:17:03.000Z</time>
      </trkpt>
      <trkpt lat="49.50726" lon="-1.58951">
        <ele>68.649443</ele>
        <time>2021-09-05T09:17:08.000Z</time>
      </trkpt>
      <trkpt lat="49.50723" lon="-1.58963">
        <ele>68.841294</ele>
        <time>2021-09-05T09:17:10.000Z</time>
      </trkpt>
      <trkpt lat="49.50718" lon="-1.58975">
        <ele>69.038715</ele>
        <time>2021-09-05T09:17:12.000Z</time>
      </trkpt>
      <trkpt lat="49.5071" lon="-1.58982">
        <ele>69.211761</ele>
        <time>2021-09-05T09:17:14.000Z</time>
      </trkpt>
      <trkpt lat="49.50683" lon="-1.59009">
        <ele>69.625395</ele>
        <time>2021-09-05T09:17:20.000Z</time>
      </trkpt>
      <trkpt lat="49.50668" lon="-1.59023">
        <ele>69.847699</ele>
        <time>2021-09-05T09:17:23.000Z</time>
      </trkpt>
      <trkpt lat="49.50634" lon="-1.59063">
        <ele>70.388059</ele>
        <time>2021-09-05T09:17:30.000Z</time>
      </trkpt>
      <trkpt lat="49.50604" lon="-1.59107">
        <ele>70.917746</ele>
        <time>2021-09-05T09:17:37.000Z</time>
      </trkpt>
      <trkpt lat="49.50573" lon="-1.59151">
        <ele>71.45323</ele>
        <time>2021-09-05T09:17:44.000Z</time>
      </trkpt>
      <trkpt lat="49.50537" lon="-1.59202">
        <ele>71.63221</ele>
        <time>2021-09-05T09:17:52.000Z</time>
      </trkpt>
      <trkpt lat="49.50507" lon="-1.59247">
        <ele>71.786453</ele>
        <time>2021-09-05T09:17:59.000Z</time>
      </trkpt>
      <trkpt lat="49.5048" lon="-1.59291">
        <ele>71.932542</ele>
        <time>2021-09-05T09:18:06.000Z</time>
      </trkpt>
      <trkpt lat="49.50477" lon="-1.59304">
        <ele>71.965126</ele>
        <time>2021-09-05T09:18:08.000Z</time>
      </trkpt>
      <trkpt lat="49.5047" lon="-1.59309">
        <ele>71.994599</ele>
        <time>2021-09-05T09:18:09.000Z</time>
      </trkpt>
      <trkpt lat="49.50465" lon="-1.593">
        <ele>72.021077</ele>
        <time>2021-09-05T09:18:11.000Z</time>
      </trkpt>
      <trkpt lat="49.50462" lon="-1.59295">
        <ele>72.038363</ele>
        <time>2021-09-05T09:18:12.000Z</time>
      </trkpt>
      <trkpt lat="49.50441" lon="-1.59252">
        <ele>72.029762</ele>
        <time>2021-09-05T09:18:19.000Z</time>
      </trkpt>
      <trkpt lat="49.50422" lon="-1.59209">
        <ele>71.826156</ele>
        <time>2021-09-05T09:18:25.000Z</time>
      </trkpt>
      <trkpt lat="49.50418" lon="-1.59202">
        <ele>71.792322</ele>
        <time>2021-09-05T09:18:26.000Z</time>
      </trkpt>
      <trkpt lat="49.50413" lon="-1.59191">
        <ele>71.736937</ele>
        <time>2021-09-05T09:18:28.000Z</time>
      </trkpt>
      <trkpt lat="49.5041" lon="-1.59189">
        <ele>71.718152</ele>
        <time>2021-09-05T09:18:29.000Z</time>
      </trkpt>
      <trkpt lat="49.50408" lon="-1.59192">
        <ele>71.699286</ele>
        <time>2021-09-05T09:18:30.000Z</time>
      </trkpt>
      <trkpt lat="49.50402" lon="-1.592">
        <ele>71.649216</ele>
        <time>2021-09-05T09:18:32.000Z</time>
      </trkpt>
      <trkpt lat="49.50398" lon="-1.59206">
        <ele>71.619444</ele>
        <time>2021-09-05T09:18:33.000Z</time>
      </trkpt>
      <trkpt lat="49.50382" lon="-1.59229">
        <ele>71.480508</ele>
        <time>2021-09-05T09:18:37.000Z</time>
      </trkpt>
      <trkpt lat="49.50351" lon="-1.59272">
        <ele>71.229277</ele>
        <time>2021-09-05T09:18:44.000Z</time>
      </trkpt>
      <trkpt lat="49.50313" lon="-1.59326">
        <ele>70.873237</ele>
        <time>2021-09-05T09:18:52.000Z</time>
      </trkpt>
      <trkpt lat="49.50277" lon="-1.59378">
        <ele>70.461282</ele>
        <time>2021-09-05T09:18:59.000Z</time>
      </trkpt>
      <trkpt lat="49.50272" lon="-1.59385">
        <ele>70.4025</ele>
        <time>2021-09-05T09:19:00.000Z</time>
      </trkpt>
      <trkpt lat="49.50246" lon="-1.59422">
        <ele>70.109822</ele>
        <time>2021-09-05T09:19:05.000Z</time>
      </trkpt>
      <trkpt lat="49.50213" lon="-1.59467">
        <ele>69.743391</ele>
        <time>2021-09-05T09:19:11.000Z</time>
      </trkpt>
      <trkpt lat="49.50169" lon="-1.59529">
        <ele>68.993799</ele>
        <time>2021-09-05T09:19:19.000Z</time>
      </trkpt>
      <trkpt lat="49.50169" lon="-1.59529">
        <ele>68.993799</ele>
        <time>2021-09-05T09:19:20.000Z</time>
      </trkpt>
      <trkpt lat="49.50136" lon="-1.59575">
        <ele>68.278016</ele>
        <time>2021-09-05T09:19:25.000Z</time>
      </trkpt>
      <trkpt lat="49.50115" lon="-1.59605">
        <ele>67.801926</ele>
        <time>2021-09-05T09:19:29.000Z</time>
      </trkpt>
      <trkpt lat="49.50109" lon="-1.59613">
        <ele>67.686577</ele>
        <time>2021-09-05T09:19:31.000Z</time>
      </trkpt>
      <trkpt lat="49.50077" lon="-1.59659">
        <ele>66.981222</ele>
        <time>2021-09-05T09:19:36.000Z</time>
      </trkpt>
      <trkpt lat="49.50039" lon="-1.59716">
        <ele>66.22455</ele>
        <time>2021-09-05T09:19:43.000Z</time>
      </trkpt>
      <trkpt lat="49.50012" lon="-1.59755">
        <ele>65.753777</ele>
        <time>2021-09-05T09:19:48.000Z</time>
      </trkpt>
      <trkpt lat="49.50001" lon="-1.59771">
        <ele>65.55741</ele>
        <time>2021-09-05T09:19:50.000Z</time>
      </trkpt>
      <trkpt lat="49.4999" lon="-1.59787">
        <ele>65.366079</ele>
        <time>2021-09-05T09:19:53.000Z</time>
      </trkpt>
      <trkpt lat="49.49946" lon="-1.5985">
        <ele>64.606816</ele>
        <time>2021-09-05T09:20:00.000Z</time>
      </trkpt>
      <trkpt lat="49.49902" lon="-1.5991">
        <ele>63.648826</ele>
        <time>2021-09-05T09:20:08.000Z</time>
      </trkpt>
      <trkpt lat="49.49892" lon="-1.59924">
        <ele>63.386953</ele>
        <time>2021-09-05T09:20:10.000Z</time>
      </trkpt>
      <trkpt lat="49.49852" lon="-1.59979">
        <ele>62.408274</ele>
        <time>2021-09-05T09:20:17.000Z</time>
      </trkpt>
      <trkpt lat="49.49825" lon="-1.60019">
        <ele>61.714102</ele>
        <time>2021-09-05T09:20:23.000Z</time>
      </trkpt>
      <trkpt lat="49.49817" lon="-1.60034">
        <ele>61.479942</ele>
        <time>2021-09-05T09:20:25.000Z</time>
      </trkpt>
      <trkpt lat="49.49815" lon="-1.60036">
        <ele>61.441247</ele>
        <time>2021-09-05T09:20:26.000Z</time>
      </trkpt>
      <trkpt lat="49.49813" lon="-1.60039">
        <ele>61.39313</ele>
        <time>2021-09-05T09:20:27.000Z</time>
      </trkpt>
      <trkpt lat="49.49807" lon="-1.6005">
        <ele>61.210558</ele>
        <time>2021-09-05T09:20:30.000Z</time>
      </trkpt>
      <trkpt lat="49.49803" lon="-1.60061">
        <ele>61.068136</ele>
        <time>2021-09-05T09:20:32.000Z</time>
      </trkpt>
      <trkpt lat="49.49799" lon="-1.60074">
        <ele>60.990883</ele>
        <time>2021-09-05T09:20:34.000Z</time>
      </trkpt>
      <trkpt lat="49.49792" lon="-1.60102">
        <ele>60.927262</ele>
        <time>2021-09-05T09:20:38.000Z</time>
      </trkpt>
      <trkpt lat="49.49791" lon="-1.60109">
        <ele>60.912391</ele>
        <time>2021-09-05T09:20:39.000Z</time>
      </trkpt>
      <trkpt lat="49.49788" lon="-1.60124">
        <ele>60.88042</ele>
        <time>2021-09-05T09:20:41.000Z</time>
      </trkpt>
      <trkpt lat="49.49784" lon="-1.60136">
        <ele>60.849609</ele>
        <time>2021-09-05T09:20:43.000Z</time>
      </trkpt>
      <trkpt lat="49.49779" lon="-1.6015">
        <ele>60.816328</ele>
        <time>2021-09-05T09:20:45.000Z</time>
      </trkpt>
      <trkpt lat="49.49766" lon="-1.60186">
        <ele>60.730653</ele>
        <time>2021-09-05T09:20:51.000Z</time>
      </trkpt>
      <trkpt lat="49.49742" lon="-1.6025">
        <ele>60.575075</ele>
        <time>2021-09-05T09:20:58.000Z</time>
      </trkpt>
      <trkpt lat="49.49721" lon="-1.60309">
        <ele>60.431695</ele>
        <time>2021-09-05T09:21:05.000Z</time>
      </trkpt>
      <trkpt lat="49.49718" lon="-1.60318">
        <ele>60.444157</ele>
        <time>2021-09-05T09:21:06.000Z</time>
      </trkpt>
      <trkpt lat="49.49712" lon="-1.60334">
        <ele>60.481945</ele>
        <time>2021-09-05T09:21:08.000Z</time>
      </trkpt>
      <trkpt lat="49.49709" lon="-1.60343">
        <ele>60.501833</ele>
        <time>2021-09-05T09:21:09.000Z</time>
      </trkpt>
      <trkpt lat="49.49688" lon="-1.60404">
        <ele>60.638985</ele>
        <time>2021-09-05T09:21:16.000Z</time>
      </trkpt>
      <trkpt lat="49.49679" lon="-1.60431">
        <ele>60.698938</ele>
        <time>2021-09-05T09:21:19.000Z</time>
      </trkpt>
      <trkpt lat="49.49673" lon="-1.60449">
        <ele>60.739577</ele>
        <time>2021-09-05T09:21:21.000Z</time>
      </trkpt>
      <trkpt lat="49.49662" lon="-1.60485">
        <ele>60.818487</ele>
        <time>2021-09-05T09:21:25.000Z</time>
      </trkpt>
      <trkpt lat="49.49641" lon="-1.60545">
        <ele>60.954939</ele>
        <time>2021-09-05T09:21:32.000Z</time>
      </trkpt>
      <trkpt lat="49.49632" lon="-1.60561">
        <ele>60.987526</ele>
        <time>2021-09-05T09:21:34.000Z</time>
      </trkpt>
      <trkpt lat="49.49624" lon="-1.60576">
        <ele>61.008435</ele>
        <time>2021-09-05T09:21:36.000Z</time>
      </trkpt>
      <trkpt lat="49.4962" lon="-1.60584">
        <ele>61.019208</ele>
        <time>2021-09-05T09:21:37.000Z</time>
      </trkpt>
      <trkpt lat="49.49596" lon="-1.6063">
        <ele>61.081405</ele>
        <time>2021-09-05T09:21:43.000Z</time>
      </trkpt>
      <trkpt lat="49.49575" lon="-1.60667">
        <ele>61.133652</ele>
        <time>2021-09-05T09:21:48.000Z</time>
      </trkpt>
      <trkpt lat="49.49565" lon="-1.60681">
        <ele>61.154989</ele>
        <time>2021-09-05T09:21:50.000Z</time>
      </trkpt>
      <trkpt lat="49.49536" lon="-1.60721">
        <ele>61.218053</ele>
        <time>2021-09-05T09:21:56.000Z</time>
      </trkpt>
      <trkpt lat="49.49521" lon="-1.60738">
        <ele>61.249055</ele>
        <time>2021-09-05T09:21:59.000Z</time>
      </trkpt>
      <trkpt lat="49.49505" lon="-1.60754">
        <ele>61.279104</ele>
        <time>2021-09-05T09:22:02.000Z</time>
      </trkpt>
      <trkpt lat="49.49473" lon="-1.60783">
        <ele>61.33502</ele>
        <time>2021-09-05T09:22:08.000Z</time>
      </trkpt>
      <trkpt lat="49.49444" lon="-1.60803">
        <ele>61.383244</ele>
        <time>2021-09-05T09:22:13.000Z</time>
      </trkpt>
      <trkpt lat="49.49408" lon="-1.60823">
        <ele>61.441717</ele>
        <time>2021-09-05T09:22:19.000Z</time>
      </trkpt>
      <trkpt lat="49.49391" lon="-1.60831">
        <ele>61.467629</ele>
        <time>2021-09-05T09:22:22.000Z</time>
      </trkpt>
      <trkpt lat="49.49382" lon="-1.60832">
        <ele>61.482193</ele>
        <time>2021-09-05T09:22:24.000Z</time>
      </trkpt>
      <trkpt lat="49.49374" lon="-1.60833">
        <ele>61.494782</ele>
        <time>2021-09-05T09:22:26.000Z</time>
      </trkpt>
      <trkpt lat="49.49365" lon="-1.60834">
        <ele>61.507425</ele>
        <time>2021-09-05T09:22:28.000Z</time>
      </trkpt>
      <trkpt lat="49.49361" lon="-1.60837">
        <ele>61.514769</ele>
        <time>2021-09-05T09:22:29.000Z</time>
      </trkpt>
      <trkpt lat="49.49331" lon="-1.60856">
        <ele>61.63483</ele>
        <time>2021-09-05T09:22:35.000Z</time>
      </trkpt>
      <trkpt lat="49.49326" lon="-1.60859">
        <ele>61.673347</ele>
        <time>2021-09-05T09:22:36.000Z</time>
      </trkpt>
      <trkpt lat="49.49304" lon="-1.60872">
        <ele>61.830117</ele>
        <time>2021-09-05T09:22:40.000Z</time>
      </trkpt>
      <trkpt lat="49.49294" lon="-1.60879">
        <ele>61.906982</ele>
        <time>2021-09-05T09:22:42.000Z</time>
      </trkpt>
      <trkpt lat="49.49284" lon="-1.60884">
        <ele>61.981213</ele>
        <time>2021-09-05T09:22:44.000Z</time>
      </trkpt>
      <trkpt lat="49.49278" lon="-1.60887">
        <ele>62.019045</ele>
        <time>2021-09-05T09:22:45.000Z</time>
      </trkpt>
      <trkpt lat="49.49273" lon="-1.60889">
        <ele>62.058317</ele>
        <time>2021-09-05T09:22:46.000Z</time>
      </trkpt>
      <trkpt lat="49.49246" lon="-1.60901">
        <ele>62.253236</ele>
        <time>2021-09-05T09:22:51.000Z</time>
      </trkpt>
      <trkpt lat="49.49203" lon="-1.60923">
        <ele>62.557873</ele>
        <time>2021-09-05T09:22:59.000Z</time>
      </trkpt>
      <trkpt lat="49.49161" lon="-1.60945">
        <ele>62.889385</ele>
        <time>2021-09-05T09:23:07.000Z</time>
      </trkpt>
      <trkpt lat="49.49119" lon="-1.60968">
        <ele>63.289474</ele>
        <time>2021-09-05T09:23:15.000Z</time>
      </trkpt>
      <trkpt lat="49.49089" lon="-1.60986">
        <ele>63.57698</ele>
        <time>2021-09-05T09:23:21.000Z</time>
      </trkpt>
      <trkpt lat="49.49059" lon="-1.61006">
        <ele>63.868551</ele>
        <time>2021-09-05T09:23:27.000Z</time>
      </trkpt>
      <trkpt lat="49.49054" lon="-1.61009">
        <ele>63.918358</ele>
        <time>2021-09-05T09:23:28.000Z</time>
      </trkpt>
      <trkpt lat="49.49025" lon="-1.61034">
        <ele>64.220029</ele>
        <time>2021-09-05T09:23:35.000Z</time>
      </trkpt>
      <trkpt lat="49.49001" lon="-1.61054">
        <ele>64.472365</ele>
        <time>2021-09-05T09:23:39.000Z</time>
      </trkpt>
      <trkpt lat="49.48991" lon="-1.61062">
        <ele>64.581963</ele>
        <time>2021-09-05T09:23:41.000Z</time>
      </trkpt>
      <trkpt lat="49.48969" lon="-1.61085">
        <ele>64.852686</ele>
        <time>2021-09-05T09:23:46.000Z</time>
      </trkpt>
      <trkpt lat="49.48964" lon="-1.6109">
        <ele>64.908874</ele>
        <time>2021-09-05T09:23:47.000Z</time>
      </trkpt>
      <trkpt lat="49.4895" lon="-1.61104">
        <ele>65.077913</ele>
        <time>2021-09-05T09:23:50.000Z</time>
      </trkpt>
      <trkpt lat="49.4894" lon="-1.61114">
        <ele>65.189933</ele>
        <time>2021-09-05T09:23:52.000Z</time>
      </trkpt>
      <trkpt lat="49.48908" lon="-1.61148">
        <ele>65.581846</ele>
        <time>2021-09-05T09:23:59.000Z</time>
      </trkpt>
      <trkpt lat="49.48882" lon="-1.6118">
        <ele>65.912685</ele>
        <time>2021-09-05T09:24:05.000Z</time>
      </trkpt>
      <trkpt lat="49.48873" lon="-1.61191">
        <ele>66.023619</ele>
        <time>2021-09-05T09:24:07.000Z</time>
      </trkpt>
      <trkpt lat="49.48835" lon="-1.61241">
        <ele>66.499564</ele>
        <time>2021-09-05T09:24:16.000Z</time>
      </trkpt>
      <trkpt lat="49.48827" lon="-1.61253">
        <ele>66.604735</ele>
        <time>2021-09-05T09:24:18.000Z</time>
      </trkpt>
      <trkpt lat="49.48819" lon="-1.61264">
        <ele>66.70336</ele>
        <time>2021-09-05T09:24:20.000Z</time>
      </trkpt>
      <trkpt lat="49.48811" lon="-1.61276">
        <ele>66.80786</ele>
        <time>2021-09-05T09:24:22.000Z</time>
      </trkpt>
      <trkpt lat="49.48782" lon="-1.61324">
        <ele>67.199688</ele>
        <time>2021-09-05T09:24:30.000Z</time>
      </trkpt>
      <trkpt lat="49.48771" lon="-1.61342">
        <ele>67.346376</ele>
        <time>2021-09-05T09:24:33.000Z</time>
      </trkpt>
      <trkpt lat="49.48764" lon="-1.61354">
        <ele>67.444381</ele>
        <time>2021-09-05T09:24:35.000Z</time>
      </trkpt>
      <trkpt lat="49.48746" lon="-1.61387">
        <ele>67.700976</ele>
        <time>2021-09-05T09:24:40.000Z</time>
      </trkpt>
      <trkpt lat="49.48734" lon="-1.61414">
        <ele>67.873642</ele>
        <time>2021-09-05T09:24:44.000Z</time>
      </trkpt>
      <trkpt lat="49.48728" lon="-1.61425">
        <ele>67.917178</ele>
        <time>2021-09-05T09:24:46.000Z</time>
      </trkpt>
      <trkpt lat="49.48716" lon="-1.6145">
        <ele>68.010339</ele>
        <time>2021-09-05T09:24:50.000Z</time>
      </trkpt>
      <trkpt lat="49.48707" lon="-1.61471">
        <ele>68.087468</ele>
        <time>2021-09-05T09:24:53.000Z</time>
      </trkpt>
      <trkpt lat="49.48703" lon="-1.61478">
        <ele>68.113687</ele>
        <time>2021-09-05T09:24:55.000Z</time>
      </trkpt>
      <trkpt lat="49.48682" lon="-1.61524">
        <ele>68.285508</ele>
        <time>2021-09-05T09:25:01.000Z</time>
      </trkpt>
      <trkpt lat="49.48673" lon="-1.61546">
        <ele>68.363812</ele>
        <time>2021-09-05T09:25:05.000Z</time>
      </trkpt>
      <trkpt lat="49.48665" lon="-1.61573">
        <ele>68.454507</ele>
        <time>2021-09-05T09:25:10.000Z</time>
      </trkpt>
      <trkpt lat="49.48662" lon="-1.61585">
        <ele>68.492992</ele>
        <time>2021-09-05T09:25:12.000Z</time>
      </trkpt>
      <trkpt lat="49.48659" lon="-1.61596">
        <ele>68.5286</ele>
        <time>2021-09-05T09:25:14.000Z</time>
      </trkpt>
      <trkpt lat="49.48649" lon="-1.61631">
        <ele>68.643774</ele>
        <time>2021-09-05T09:25:19.000Z</time>
      </trkpt>
      <trkpt lat="49.48647" lon="-1.61639">
        <ele>68.67095</ele>
        <time>2021-09-05T09:25:20.000Z</time>
      </trkpt>
      <trkpt lat="49.48638" lon="-1.61672">
        <ele>68.612032</ele>
        <time>2021-09-05T09:25:24.000Z</time>
      </trkpt>
      <trkpt lat="49.48626" lon="-1.61717">
        <ele>68.498605</ele>
        <time>2021-09-05T09:25:29.000Z</time>
      </trkpt>
      <trkpt lat="49.4861" lon="-1.61775">
        <ele>68.356275</ele>
        <time>2021-09-05T09:25:35.000Z</time>
      </trkpt>
      <trkpt lat="49.48589" lon="-1.61853">
        <ele>68.163133</ele>
        <time>2021-09-05T09:25:43.000Z</time>
      </trkpt>
      <trkpt lat="49.48581" lon="-1.61895">
        <ele>68.062891</ele>
        <time>2021-09-05T09:25:48.000Z</time>
      </trkpt>
      <trkpt lat="49.48569" lon="-1.61959">
        <ele>67.746097</ele>
        <time>2021-09-05T09:25:53.000Z</time>
      </trkpt>
      <trkpt lat="49.48554" lon="-1.62039">
        <ele>67.327895</ele>
        <time>2021-09-05T09:26:00.000Z</time>
      </trkpt>
      <trkpt lat="49.4855" lon="-1.62062">
        <ele>67.210225</ele>
        <time>2021-09-05T09:26:02.000Z</time>
      </trkpt>
      <trkpt lat="49.48537" lon="-1.62129">
        <ele>66.864399</ele>
        <time>2021-09-05T09:26:08.000Z</time>
      </trkpt>
      <trkpt lat="49.48522" lon="-1.62207">
        <ele>66.4649</ele>
        <time>2021-09-05T09:26:15.000Z</time>
      </trkpt>
      <trkpt lat="49.4852" lon="-1.62218">
        <ele>66.409194</ele>
        <time>2021-09-05T09:26:16.000Z</time>
      </trkpt>
      <trkpt lat="49.48513" lon="-1.62253">
        <ele>66.236134</ele>
        <time>2021-09-05T09:26:19.000Z</time>
      </trkpt>
      <trkpt lat="49.48511" lon="-1.62264">
        <ele>66.179509</ele>
        <time>2021-09-05T09:26:20.000Z</time>
      </trkpt>
      <trkpt lat="49.48504" lon="-1.62297">
        <ele>66.011224</ele>
        <time>2021-09-05T09:26:23.000Z</time>
      </trkpt>
      <trkpt lat="49.48492" lon="-1.62362">
        <ele>65.689509</ele>
        <time>2021-09-05T09:26:29.000Z</time>
      </trkpt>
      <trkpt lat="49.4848" lon="-1.62425">
        <ele>65.374195</ele>
        <time>2021-09-05T09:26:35.000Z</time>
      </trkpt>
      <trkpt lat="49.48466" lon="-1.62488">
        <ele>64.852222</ele>
        <time>2021-09-05T09:26:41.000Z</time>
      </trkpt>
      <trkpt lat="49.48452" lon="-1.62538">
        <ele>64.406773</ele>
        <time>2021-09-05T09:26:46.000Z</time>
      </trkpt>
      <trkpt lat="49.48443" lon="-1.62569">
        <ele>64.126804</ele>
        <time>2021-09-05T09:26:49.000Z</time>
      </trkpt>
      <trkpt lat="49.4844" lon="-1.62581">
        <ele>64.025315</ele>
        <time>2021-09-05T09:26:50.000Z</time>
      </trkpt>
      <trkpt lat="49.48414" lon="-1.62657">
        <ele>63.324245</ele>
        <time>2021-09-05T09:26:57.000Z</time>
      </trkpt>
      <trkpt lat="49.48392" lon="-1.62713">
        <ele>62.725226</ele>
        <time>2021-09-05T09:27:03.000Z</time>
      </trkpt>
      <trkpt lat="49.48373" lon="-1.62758">
        <ele>62.179638</ele>
        <time>2021-09-05T09:27:08.000Z</time>
      </trkpt>
      <trkpt lat="49.48358" lon="-1.62793">
        <ele>61.753796</ele>
        <time>2021-09-05T09:27:12.000Z</time>
      </trkpt>
      <trkpt lat="49.48334" lon="-1.6284">
        <ele>61.164244</ele>
        <time>2021-09-05T09:27:18.000Z</time>
      </trkpt>
      <trkpt lat="49.48303" lon="-1.62902">
        <ele>60.372636</ele>
        <time>2021-09-05T09:27:25.000Z</time>
      </trkpt>
      <trkpt lat="49.48274" lon="-1.62948">
        <ele>59.518341</ele>
        <time>2021-09-05T09:27:31.000Z</time>
      </trkpt>
      <trkpt lat="49.48255" lon="-1.62978">
        <ele>58.953194</ele>
        <time>2021-09-05T09:27:36.000Z</time>
      </trkpt>
      <trkpt lat="49.48243" lon="-1.62996">
        <ele>58.605346</ele>
        <time>2021-09-05T09:27:41.000Z</time>
      </trkpt>
      <trkpt lat="49.48234" lon="-1.63007">
        <ele>58.362972</ele>
        <time>2021-09-05T09:27:46.000Z</time>
      </trkpt>
      <trkpt lat="49.48227" lon="-1.63017">
        <ele>58.158169</ele>
        <time>2021-09-05T09:27:51.000Z</time>
      </trkpt>
      <trkpt lat="49.48218" lon="-1.63027">
        <ele>57.929977</ele>
        <time>2021-09-05T09:27:56.000Z</time>
      </trkpt>
      <trkpt lat="49.48207" lon="-1.63042">
        <ele>57.629423</ele>
        <time>2021-09-05T09:28:00.000Z</time>
      </trkpt>
      <trkpt lat="49.48176" lon="-1.63082">
        <ele>56.781709</ele>
        <time>2021-09-05T09:28:05.000Z</time>
      </trkpt>
      <trkpt lat="49.48135" lon="-1.63135">
        <ele>55.792493</ele>
        <time>2021-09-05T09:28:12.000Z</time>
      </trkpt>
      <trkpt lat="49.48094" lon="-1.63187">
        <ele>54.883809</ele>
        <time>2021-09-05T09:28:19.000Z</time>
      </trkpt>
      <trkpt lat="49.48058" lon="-1.63234">
        <ele>54.063025</ele>
        <time>2021-09-05T09:28:25.000Z</time>
      </trkpt>
      <trkpt lat="49.48025" lon="-1.63278">
        <ele>53.292552</ele>
        <time>2021-09-05T09:28:31.000Z</time>
      </trkpt>
      <trkpt lat="49.48009" lon="-1.63298">
        <ele>52.893587</ele>
        <time>2021-09-05T09:28:34.000Z</time>
      </trkpt>
      <trkpt lat="49.48003" lon="-1.63305">
        <ele>52.757253</ele>
        <time>2021-09-05T09:28:35.000Z</time>
      </trkpt>
      <trkpt lat="49.47998" lon="-1.63312">
        <ele>52.624798</ele>
        <time>2021-09-05T09:28:36.000Z</time>
      </trkpt>
      <trkpt lat="49.47988" lon="-1.63325">
        <ele>52.366707</ele>
        <time>2021-09-05T09:28:38.000Z</time>
      </trkpt>
      <trkpt lat="49.47982" lon="-1.63333">
        <ele>52.223561</ele>
        <time>2021-09-05T09:28:39.000Z</time>
      </trkpt>
      <trkpt lat="49.47958" lon="-1.63364">
        <ele>51.627451</ele>
        <time>2021-09-05T09:28:44.000Z</time>
      </trkpt>
      <trkpt lat="49.47926" lon="-1.63405">
        <ele>50.830319</ele>
        <time>2021-09-05T09:28:48.000Z</time>
      </trkpt>
      <trkpt lat="49.47914" lon="-1.6342">
        <ele>50.526515</ele>
        <time>2021-09-05T09:28:50.000Z</time>
      </trkpt>
      <trkpt lat="49.47901" lon="-1.63437">
        <ele>50.199186</ele>
        <time>2021-09-05T09:28:52.000Z</time>
      </trkpt>
      <trkpt lat="49.47857" lon="-1.63495">
        <ele>49.316142</ele>
        <time>2021-09-05T09:28:59.000Z</time>
      </trkpt>
      <trkpt lat="49.47831" lon="-1.63528">
        <ele>48.849707</ele>
        <time>2021-09-05T09:29:03.000Z</time>
      </trkpt>
      <trkpt lat="49.47801" lon="-1.63566">
        <ele>48.307238</ele>
        <time>2021-09-05T09:29:08.000Z</time>
      </trkpt>
      <trkpt lat="49.47791" lon="-1.63579">
        <ele>48.125633</ele>
        <time>2021-09-05T09:29:10.000Z</time>
      </trkpt>
      <trkpt lat="49.47782" lon="-1.63591">
        <ele>47.961284</ele>
        <time>2021-09-05T09:29:12.000Z</time>
      </trkpt>
      <trkpt lat="49.47778" lon="-1.63596">
        <ele>47.883007</ele>
        <time>2021-09-05T09:29:13.000Z</time>
      </trkpt>
      <trkpt lat="49.47764" lon="-1.63614">
        <ele>47.624784</ele>
        <time>2021-09-05T09:29:16.000Z</time>
      </trkpt>
      <trkpt lat="49.47739" lon="-1.63647">
        <ele>47.144354</ele>
        <time>2021-09-05T09:29:20.000Z</time>
      </trkpt>
      <trkpt lat="49.47732" lon="-1.63656">
        <ele>47.017652</ele>
        <time>2021-09-05T09:29:21.000Z</time>
      </trkpt>
      <trkpt lat="49.47706" lon="-1.6369">
        <ele>46.497231</ele>
        <time>2021-09-05T09:29:25.000Z</time>
      </trkpt>
      <trkpt lat="49.47699" lon="-1.63699">
        <ele>46.364605</ele>
        <time>2021-09-05T09:29:26.000Z</time>
      </trkpt>
      <trkpt lat="49.47679" lon="-1.63724">
        <ele>45.977431</ele>
        <time>2021-09-05T09:29:29.000Z</time>
      </trkpt>
      <trkpt lat="49.47665" lon="-1.63742">
        <ele>45.711553</ele>
        <time>2021-09-05T09:29:31.000Z</time>
      </trkpt>
      <trkpt lat="49.47644" lon="-1.63768">
        <ele>45.311541</ele>
        <time>2021-09-05T09:29:34.000Z</time>
      </trkpt>
      <trkpt lat="49.476" lon="-1.63807">
        <ele>44.537365</ele>
        <time>2021-09-05T09:29:40.000Z</time>
      </trkpt>
      <trkpt lat="49.47562" lon="-1.63831">
        <ele>43.885482</ele>
        <time>2021-09-05T09:29:45.000Z</time>
      </trkpt>
      <trkpt lat="49.4752" lon="-1.63853">
        <ele>43.17268</ele>
        <time>2021-09-05T09:29:51.000Z</time>
      </trkpt>
      <trkpt lat="49.4748" lon="-1.6387">
        <ele>42.503358</ele>
        <time>2021-09-05T09:29:57.000Z</time>
      </trkpt>
      <trkpt lat="49.47421" lon="-1.63888">
        <ele>41.638197</ele>
        <time>2021-09-05T09:30:05.000Z</time>
      </trkpt>
      <trkpt lat="49.47414" lon="-1.63891">
        <ele>41.549414</ele>
        <time>2021-09-05T09:30:06.000Z</time>
      </trkpt>
      <trkpt lat="49.47356" lon="-1.63904">
        <ele>40.862724</ele>
        <time>2021-09-05T09:30:14.000Z</time>
      </trkpt>
      <trkpt lat="49.47313" lon="-1.63911">
        <ele>40.351022</ele>
        <time>2021-09-05T09:30:20.000Z</time>
      </trkpt>
      <trkpt lat="49.47273" lon="-1.63914">
        <ele>39.873615</ele>
        <time>2021-09-05T09:30:26.000Z</time>
      </trkpt>
      <trkpt lat="49.47227" lon="-1.63909">
        <ele>39.481112</ele>
        <time>2021-09-05T09:30:33.000Z</time>
      </trkpt>
      <trkpt lat="49.47177" lon="-1.63895">
        <ele>39.08251</ele>
        <time>2021-09-05T09:30:41.000Z</time>
      </trkpt>
      <trkpt lat="49.47131" lon="-1.63873">
        <ele>38.705197</ele>
        <time>2021-09-05T09:30:49.000Z</time>
      </trkpt>
      <trkpt lat="49.47096" lon="-1.63857">
        <ele>38.422698</ele>
        <time>2021-09-05T09:30:56.000Z</time>
      </trkpt>
      <trkpt lat="49.47086" lon="-1.63852">
        <ele>38.353273</ele>
        <time>2021-09-05T09:30:57.000Z</time>
      </trkpt>
      <trkpt lat="49.47077" lon="-1.63848">
        <ele>38.330854</ele>
        <time>2021-09-05T09:30:59.000Z</time>
      </trkpt>
      <trkpt lat="49.47073" lon="-1.63847">
        <ele>38.321717</ele>
        <time>2021-09-05T09:31:00.000Z</time>
      </trkpt>
      <trkpt lat="49.47057" lon="-1.63839">
        <ele>38.281446</ele>
        <time>2021-09-05T09:31:05.000Z</time>
      </trkpt>
      <trkpt lat="49.47041" lon="-1.63831">
        <ele>38.238225</ele>
        <time>2021-09-05T09:31:10.000Z</time>
      </trkpt>
      <trkpt lat="49.47037" lon="-1.63829">
        <ele>38.229688</ele>
        <time>2021-09-05T09:31:11.000Z</time>
      </trkpt>
      <trkpt lat="49.4703" lon="-1.63825">
        <ele>38.20959</ele>
        <time>2021-09-05T09:31:13.000Z</time>
      </trkpt>
      <trkpt lat="49.46998" lon="-1.6381">
        <ele>38.129978</ele>
        <time>2021-09-05T09:31:19.000Z</time>
      </trkpt>
      <trkpt lat="49.46952" lon="-1.63795">
        <ele>38.013588</ele>
        <time>2021-09-05T09:31:27.000Z</time>
      </trkpt>
      <trkpt lat="49.46908" lon="-1.63789">
        <ele>37.919096</ele>
        <time>2021-09-05T09:31:34.000Z</time>
      </trkpt>
      <trkpt lat="49.46864" lon="-1.63795">
        <ele>37.908052</ele>
        <time>2021-09-05T09:31:41.000Z</time>
      </trkpt>
      <trkpt lat="49.46819" lon="-1.638">
        <ele>37.896958</ele>
        <time>2021-09-05T09:31:48.000Z</time>
      </trkpt>
      <trkpt lat="49.46769" lon="-1.6381">
        <ele>37.884351</ele>
        <time>2021-09-05T09:31:56.000Z</time>
      </trkpt>
      <trkpt lat="49.46736" lon="-1.63818">
        <ele>37.876076</ele>
        <time>2021-09-05T09:32:02.000Z</time>
      </trkpt>
      <trkpt lat="49.46712" lon="-1.6382">
        <ele>37.565816</ele>
        <time>2021-09-05T09:32:05.000Z</time>
      </trkpt>
      <trkpt lat="49.46706" lon="-1.63821">
        <ele>37.48961</ele>
        <time>2021-09-05T09:32:06.000Z</time>
      </trkpt>
      <trkpt lat="49.4669" lon="-1.63822">
        <ele>37.274372</ele>
        <time>2021-09-05T09:32:09.000Z</time>
      </trkpt>
      <trkpt lat="49.46685" lon="-1.63822">
        <ele>37.210171</ele>
        <time>2021-09-05T09:32:10.000Z</time>
      </trkpt>
      <trkpt lat="49.4668" lon="-1.63822">
        <ele>37.14868</ele>
        <time>2021-09-05T09:32:11.000Z</time>
      </trkpt>
      <trkpt lat="49.46676" lon="-1.63823">
        <ele>37.091192</ele>
        <time>2021-09-05T09:32:13.000Z</time>
      </trkpt>
      <trkpt lat="49.46649" lon="-1.63818">
        <ele>36.726864</ele>
        <time>2021-09-05T09:32:17.000Z</time>
      </trkpt>
      <trkpt lat="49.46622" lon="-1.63809">
        <ele>36.365153</ele>
        <time>2021-09-05T09:32:21.000Z</time>
      </trkpt>
      <trkpt lat="49.46592" lon="-1.63793">
        <ele>35.930149</ele>
        <time>2021-09-05T09:32:26.000Z</time>
      </trkpt>
      <trkpt lat="49.46583" lon="-1.63798">
        <ele>35.802222</ele>
        <time>2021-09-05T09:32:29.000Z</time>
      </trkpt>
      <trkpt lat="49.46574" lon="-1.63798">
        <ele>35.68735</ele>
        <time>2021-09-05T09:32:30.000Z</time>
      </trkpt>
      <trkpt lat="49.46572" lon="-1.63794">
        <ele>35.649495</ele>
        <time>2021-09-05T09:32:32.000Z</time>
      </trkpt>
      <trkpt lat="49.46572" lon="-1.63793">
        <ele>35.635655</ele>
        <time>2021-09-05T09:32:35.000Z</time>
      </trkpt>
      <trkpt lat="49.46577" lon="-1.63802">
        <ele>35.53241</ele>
        <time>2021-09-05T09:32:36.000Z</time>
      </trkpt>
      <trkpt lat="49.46576" lon="-1.63803">
        <ele>35.523297</ele>
        <time>2021-09-05T09:32:40.000Z</time>
      </trkpt>
      <trkpt lat="49.46572" lon="-1.63793">
        <ele>35.476643</ele>
        <time>2021-09-05T09:32:41.000Z</time>
      </trkpt>
      <trkpt lat="49.46539" lon="-1.6378">
        <ele>35.503118</ele>
        <time>2021-09-05T09:32:48.000Z</time>
      </trkpt>
      <trkpt lat="49.46535" lon="-1.63779">
        <ele>35.506398</ele>
        <time>2021-09-05T09:32:49.000Z</time>
      </trkpt>
      <trkpt lat="49.46527" lon="-1.63776">
        <ele>35.51268</ele>
        <time>2021-09-05T09:32:51.000Z</time>
      </trkpt>
      <trkpt lat="49.46519" lon="-1.63769">
        <ele>35.519648</ele>
        <time>2021-09-05T09:32:53.000Z</time>
      </trkpt>
      <trkpt lat="49.4649" lon="-1.63744">
        <ele>35.545892</ele>
        <time>2021-09-05T09:33:01.000Z</time>
      </trkpt>
      <trkpt lat="49.46487" lon="-1.6374">
        <ele>35.548957</ele>
        <time>2021-09-05T09:33:02.000Z</time>
      </trkpt>
      <trkpt lat="49.46481" lon="-1.63735">
        <ele>35.554356</ele>
        <time>2021-09-05T09:33:04.000Z</time>
      </trkpt>
      <trkpt lat="49.46475" lon="-1.63734">
        <ele>35.559222</ele>
        <time>2021-09-05T09:33:06.000Z</time>
      </trkpt>
      <trkpt lat="49.46467" lon="-1.63727">
        <ele>35.565966</ele>
        <time>2021-09-05T09:33:08.000Z</time>
      </trkpt>
      <trkpt lat="49.46459" lon="-1.63718">
        <ele>35.573956</ele>
        <time>2021-09-05T09:33:10.000Z</time>
      </trkpt>
      <trkpt lat="49.46428" lon="-1.63691">
        <ele>35.601803</ele>
        <time>2021-09-05T09:33:16.000Z</time>
      </trkpt>
      <trkpt lat="49.46411" lon="-1.63676">
        <ele>35.619432</ele>
        <time>2021-09-05T09:33:19.000Z</time>
      </trkpt>
      <trkpt lat="49.46404" lon="-1.63661">
        <ele>35.639064</ele>
        <time>2021-09-05T09:33:21.000Z</time>
      </trkpt>
      <trkpt lat="49.46369" lon="-1.63629">
        <ele>35.702999</ele>
        <time>2021-09-05T09:33:27.000Z</time>
      </trkpt>
      <trkpt lat="49.46333" lon="-1.63584">
        <ele>35.775065</ele>
        <time>2021-09-05T09:33:34.000Z</time>
      </trkpt>
      <trkpt lat="49.46305" lon="-1.63542">
        <ele>35.836967</ele>
        <time>2021-09-05T09:33:40.000Z</time>
      </trkpt>
      <trkpt lat="49.46283" lon="-1.63506">
        <ele>35.888274</ele>
        <time>2021-09-05T09:33:45.000Z</time>
      </trkpt>
      <trkpt lat="49.46275" lon="-1.63491">
        <ele>35.913466</ele>
        <time>2021-09-05T09:33:47.000Z</time>
      </trkpt>
      <trkpt lat="49.46257" lon="-1.63444">
        <ele>35.998634</ele>
        <time>2021-09-05T09:33:53.000Z</time>
      </trkpt>
      <trkpt lat="49.4623" lon="-1.63382">
        <ele>36.114239</ele>
        <time>2021-09-05T09:34:01.000Z</time>
      </trkpt>
      <trkpt lat="49.46208" lon="-1.63312">
        <ele>36.236351</ele>
        <time>2021-09-05T09:34:09.000Z</time>
      </trkpt>
      <trkpt lat="49.46186" lon="-1.63244">
        <ele>36.335448</ele>
        <time>2021-09-05T09:34:17.000Z</time>
      </trkpt>
      <trkpt lat="49.46176" lon="-1.6322">
        <ele>36.346009</ele>
        <time>2021-09-05T09:34:20.000Z</time>
      </trkpt>
      <trkpt lat="49.4617" lon="-1.63204">
        <ele>36.352896</ele>
        <time>2021-09-05T09:34:22.000Z</time>
      </trkpt>
      <trkpt lat="49.46165" lon="-1.63188">
        <ele>36.359537</ele>
        <time>2021-09-05T09:34:24.000Z</time>
      </trkpt>
      <trkpt lat="49.46159" lon="-1.63166">
        <ele>36.368445</ele>
        <time>2021-09-05T09:34:27.000Z</time>
      </trkpt>
      <trkpt lat="49.46154" lon="-1.63146">
        <ele>36.376206</ele>
        <time>2021-09-05T09:34:31.000Z</time>
      </trkpt>
      <trkpt lat="49.46146" lon="-1.63119">
        <ele>36.387457</ele>
        <time>2021-09-05T09:34:35.000Z</time>
      </trkpt>
      <trkpt lat="49.46133" lon="-1.6307">
        <ele>36.407334</ele>
        <time>2021-09-05T09:34:41.000Z</time>
      </trkpt>
      <trkpt lat="49.4613" lon="-1.63061">
        <ele>36.410944</ele>
        <time>2021-09-05T09:34:42.000Z</time>
      </trkpt>
      <trkpt lat="49.46102" lon="-1.63037">
        <ele>36.429343</ele>
        <time>2021-09-05T09:34:47.000Z</time>
      </trkpt>
      <trkpt lat="49.46099" lon="-1.62967">
        <ele>36.143484</ele>
        <time>2021-09-05T09:34:53.000Z</time>
      </trkpt>
      <trkpt lat="49.46089" lon="-1.62933">
        <ele>35.965839</ele>
        <time>2021-09-05T09:34:57.000Z</time>
      </trkpt>
      <trkpt lat="49.46086" lon="-1.62924">
        <ele>35.921382</ele>
        <time>2021-09-05T09:34:58.000Z</time>
      </trkpt>
      <trkpt lat="49.46066" lon="-1.62862">
        <ele>35.593995</ele>
        <time>2021-09-05T09:35:05.000Z</time>
      </trkpt>
      <trkpt lat="49.46045" lon="-1.62812">
        <ele>35.312285</ele>
        <time>2021-09-05T09:35:11.000Z</time>
      </trkpt>
      <trkpt lat="49.46016" lon="-1.62759">
        <ele>34.914148</ele>
        <time>2021-09-05T09:35:18.000Z</time>
      </trkpt>
      <trkpt lat="49.45984" lon="-1.62712">
        <ele>34.425598</ele>
        <time>2021-09-05T09:35:25.000Z</time>
      </trkpt>
      <trkpt lat="49.45979" lon="-1.62706">
        <ele>34.353867</ele>
        <time>2021-09-05T09:35:26.000Z</time>
      </trkpt>
      <trkpt lat="49.45964" lon="-1.6269">
        <ele>34.149041</ele>
        <time>2021-09-05T09:35:29.000Z</time>
      </trkpt>
      <trkpt lat="49.45943" lon="-1.6269">
        <ele>33.909141</ele>
        <time>2021-09-05T09:35:32.000Z</time>
      </trkpt>
      <trkpt lat="49.45911" lon="-1.62666">
        <ele>33.516862</ele>
        <time>2021-09-05T09:35:38.000Z</time>
      </trkpt>
      <trkpt lat="49.45883" lon="-1.62649">
        <ele>33.179775</ele>
        <time>2021-09-05T09:35:43.000Z</time>
      </trkpt>
      <trkpt lat="49.45871" lon="-1.62643">
        <ele>33.014596</ele>
        <time>2021-09-05T09:35:45.000Z</time>
      </trkpt>
      <trkpt lat="49.45859" lon="-1.62636">
        <ele>32.832322</ele>
        <time>2021-09-05T09:35:47.000Z</time>
      </trkpt>
      <trkpt lat="49.45847" lon="-1.62628">
        <ele>32.642444</ele>
        <time>2021-09-05T09:35:49.000Z</time>
      </trkpt>
      <trkpt lat="49.45835" lon="-1.62619">
        <ele>32.45819</ele>
        <time>2021-09-05T09:35:51.000Z</time>
      </trkpt>
      <trkpt lat="49.45829" lon="-1.62614">
        <ele>32.36437</ele>
        <time>2021-09-05T09:35:52.000Z</time>
      </trkpt>
      <trkpt lat="49.45791" lon="-1.62594">
        <ele>31.780254</ele>
        <time>2021-09-05T09:35:59.000Z</time>
      </trkpt>
      <trkpt lat="49.45778" lon="-1.62589">
        <ele>31.590632</ele>
        <time>2021-09-05T09:36:00.000Z</time>
      </trkpt>
      <trkpt lat="49.45752" lon="-1.62582">
        <ele>31.220791</ele>
        <time>2021-09-05T09:36:04.000Z</time>
      </trkpt>
      <trkpt lat="49.45733" lon="-1.62573">
        <ele>30.934861</ele>
        <time>2021-09-05T09:36:07.000Z</time>
      </trkpt>
      <trkpt lat="49.45728" lon="-1.62571">
        <ele>30.869233</ele>
        <time>2021-09-05T09:36:09.000Z</time>
      </trkpt>
      <trkpt lat="49.45683" lon="-1.6252">
        <ele>30.071615</ele>
        <time>2021-09-05T09:36:16.000Z</time>
      </trkpt>
      <trkpt lat="49.4566" lon="-1.62504">
        <ele>29.711535</ele>
        <time>2021-09-05T09:36:20.000Z</time>
      </trkpt>
      <trkpt lat="49.45648" lon="-1.62494">
        <ele>29.528034</ele>
        <time>2021-09-05T09:36:22.000Z</time>
      </trkpt>
      <trkpt lat="49.45643" lon="-1.62489">
        <ele>29.436393</ele>
        <time>2021-09-05T09:36:23.000Z</time>
      </trkpt>
      <trkpt lat="49.45621" lon="-1.62469">
        <ele>29.079101</ele>
        <time>2021-09-05T09:36:27.000Z</time>
      </trkpt>
      <trkpt lat="49.45606" lon="-1.62452">
        <ele>28.808948</ele>
        <time>2021-09-05T09:36:30.000Z</time>
      </trkpt>
      <trkpt lat="49.45586" lon="-1.62429">
        <ele>28.460049</ele>
        <time>2021-09-05T09:36:34.000Z</time>
      </trkpt>
      <trkpt lat="49.45554" lon="-1.62383">
        <ele>28.01991</ele>
        <time>2021-09-05T09:36:41.000Z</time>
      </trkpt>
      <trkpt lat="49.4552" lon="-1.62323">
        <ele>27.993018</ele>
        <time>2021-09-05T09:36:49.000Z</time>
      </trkpt>
      <trkpt lat="49.45485" lon="-1.62261">
        <ele>27.965364</ele>
        <time>2021-09-05T09:36:57.000Z</time>
      </trkpt>
      <trkpt lat="49.45446" lon="-1.62194">
        <ele>27.934922</ele>
        <time>2021-09-05T09:37:06.000Z</time>
      </trkpt>
      <trkpt lat="49.45424" lon="-1.6216">
        <ele>28.111657</ele>
        <time>2021-09-05T09:37:11.000Z</time>
      </trkpt>
      <trkpt lat="49.45399" lon="-1.62116">
        <ele>28.352335</ele>
        <time>2021-09-05T09:37:17.000Z</time>
      </trkpt>
      <trkpt lat="49.45369" lon="-1.62054">
        <ele>28.674214</ele>
        <time>2021-09-05T09:37:25.000Z</time>
      </trkpt>
      <trkpt lat="49.45341" lon="-1.61988">
        <ele>28.997613</ele>
        <time>2021-09-05T09:37:33.000Z</time>
      </trkpt>
      <trkpt lat="49.45316" lon="-1.61921">
        <ele>29.948252</ele>
        <time>2021-09-05T09:37:41.000Z</time>
      </trkpt>
      <trkpt lat="49.45296" lon="-1.61859">
        <ele>30.995625</ele>
        <time>2021-09-05T09:37:48.000Z</time>
      </trkpt>
      <trkpt lat="49.45286" lon="-1.61832">
        <ele>31.44898</ele>
        <time>2021-09-05T09:37:51.000Z</time>
      </trkpt>
      <trkpt lat="49.45276" lon="-1.61806">
        <ele>31.915513</ele>
        <time>2021-09-05T09:37:54.000Z</time>
      </trkpt>
      <trkpt lat="49.4525" lon="-1.61737">
        <ele>33.117133</ele>
        <time>2021-09-05T09:38:02.000Z</time>
      </trkpt>
      <trkpt lat="49.45236" lon="-1.61698">
        <ele>33.605013</ele>
        <time>2021-09-05T09:38:08.000Z</time>
      </trkpt>
      <trkpt lat="49.45228" lon="-1.61671">
        <ele>33.912463</ele>
        <time>2021-09-05T09:38:13.000Z</time>
      </trkpt>
      <trkpt lat="49.45216" lon="-1.61641">
        <ele>34.256595</ele>
        <time>2021-09-05T09:38:17.000Z</time>
      </trkpt>
      <trkpt lat="49.45212" lon="-1.61634">
        <ele>34.35456</ele>
        <time>2021-09-05T09:38:18.000Z</time>
      </trkpt>
      <trkpt lat="49.45193" lon="-1.61596">
        <ele>34.844348</ele>
        <time>2021-09-05T09:38:23.000Z</time>
      </trkpt>
      <trkpt lat="49.45172" lon="-1.61559">
        <ele>35.336654</ele>
        <time>2021-09-05T09:38:28.000Z</time>
      </trkpt>
      <trkpt lat="49.45141" lon="-1.61512">
        <ele>36.013915</ele>
        <time>2021-09-05T09:38:35.000Z</time>
      </trkpt>
      <trkpt lat="49.45107" lon="-1.61469">
        <ele>35.663339</ele>
        <time>2021-09-05T09:38:42.000Z</time>
      </trkpt>
      <trkpt lat="49.45096" lon="-1.61459">
        <ele>35.550045</ele>
        <time>2021-09-05T09:38:44.000Z</time>
      </trkpt>
      <trkpt lat="49.4509" lon="-1.6145">
        <ele>35.475586</ele>
        <time>2021-09-05T09:38:47.000Z</time>
      </trkpt>
      <trkpt lat="49.45074" lon="-1.61439">
        <ele>35.318786</ele>
        <time>2021-09-05T09:38:48.000Z</time>
      </trkpt>
      <trkpt lat="49.45063" lon="-1.6143">
        <ele>35.208475</ele>
        <time>2021-09-05T09:38:50.000Z</time>
      </trkpt>
      <trkpt lat="49.45036" lon="-1.61383">
        <ele>34.848843</ele>
        <time>2021-09-05T09:38:55.000Z</time>
      </trkpt>
      <trkpt lat="49.45024" lon="-1.61381">
        <ele>34.742685</ele>
        <time>2021-09-05T09:38:57.000Z</time>
      </trkpt>
      <trkpt lat="49.45012" lon="-1.61379">
        <ele>34.638282</ele>
        <time>2021-09-05T09:38:59.000Z</time>
      </trkpt>
      <trkpt lat="49.44984" lon="-1.61409">
        <ele>34.181976</ele>
        <time>2021-09-05T09:39:03.000Z</time>
      </trkpt>
      <trkpt lat="49.44979" lon="-1.61408">
        <ele>34.078335</ele>
        <time>2021-09-05T09:39:05.000Z</time>
      </trkpt>
      <trkpt lat="49.44953" lon="-1.61412">
        <ele>33.556738</ele>
        <time>2021-09-05T09:39:10.000Z</time>
      </trkpt>
      <trkpt lat="49.44938" lon="-1.61418">
        <ele>33.236375</ele>
        <time>2021-09-05T09:39:14.000Z</time>
      </trkpt>
      <trkpt lat="49.44927" lon="-1.61423">
        <ele>33.006619</ele>
        <time>2021-09-05T09:39:16.000Z</time>
      </trkpt>
      <trkpt lat="49.44901" lon="-1.61434">
        <ele>32.46324</ele>
        <time>2021-09-05T09:39:21.000Z</time>
      </trkpt>
      <trkpt lat="49.4488" lon="-1.61443">
        <ele>32.039144</ele>
        <time>2021-09-05T09:39:25.000Z</time>
      </trkpt>
      <trkpt lat="49.44843" lon="-1.61453">
        <ele>31.285548</ele>
        <time>2021-09-05T09:39:31.000Z</time>
      </trkpt>
      <trkpt lat="49.44807" lon="-1.61456">
        <ele>30.604911</ele>
        <time>2021-09-05T09:39:37.000Z</time>
      </trkpt>
      <trkpt lat="49.44807" lon="-1.61456">
        <ele>30.604911</ele>
        <time>2021-09-05T09:39:41.000Z</time>
      </trkpt>
      <trkpt lat="49.44788" lon="-1.61489">
        <ele>30.152733</ele>
        <time>2021-09-05T09:39:46.000Z</time>
      </trkpt>
      <trkpt lat="49.44781" lon="-1.61502">
        <ele>29.97207</ele>
        <time>2021-09-05T09:39:49.000Z</time>
      </trkpt>
      <trkpt lat="49.44774" lon="-1.61514">
        <ele>29.810107</ele>
        <time>2021-09-05T09:39:52.000Z</time>
      </trkpt>
      <trkpt lat="49.44767" lon="-1.61529">
        <ele>29.609038</ele>
        <time>2021-09-05T09:39:58.000Z</time>
      </trkpt>
      <trkpt lat="49.44763" lon="-1.61537">
        <ele>29.508925</ele>
        <time>2021-09-05T09:40:03.000Z</time>
      </trkpt>
      <trkpt lat="49.44758" lon="-1.61548">
        <ele>29.365873</ele>
        <time>2021-09-05T09:40:10.000Z</time>
      </trkpt>
      <trkpt lat="49.44758" lon="-1.61549">
        <ele>29.357107</ele>
        <time>2021-09-05T09:40:11.000Z</time>
      </trkpt>
      <trkpt lat="49.44731" lon="-1.61597">
        <ele>28.689764</ele>
        <time>2021-09-05T09:40:13.000Z</time>
      </trkpt>
      <trkpt lat="49.44689" lon="-1.61407">
        <ele>26.923375</ele>
        <time>2021-09-05T09:40:15.000Z</time>
      </trkpt>
      <trkpt lat="49.44694" lon="-1.61405">
        <ele>26.865968</ele>
        <time>2021-09-05T09:40:17.000Z</time>
      </trkpt>
      <trkpt lat="49.44703" lon="-1.61404">
        <ele>26.752944</ele>
        <time>2021-09-05T09:40:22.000Z</time>
      </trkpt>
      <trkpt lat="49.44711" lon="-1.61402">
        <ele>26.65474</ele>
        <time>2021-09-05T09:40:25.000Z</time>
      </trkpt>
      <trkpt lat="49.44714" lon="-1.61401">
        <ele>26.615711</ele>
        <time>2021-09-05T09:40:26.000Z</time>
      </trkpt>
      <trkpt lat="49.44734" lon="-1.61394">
        <ele>26.35796</ele>
        <time>2021-09-05T09:40:32.000Z</time>
      </trkpt>
      <trkpt lat="49.44751" lon="-1.61391">
        <ele>26.156937</ele>
        <time>2021-09-05T09:40:38.000Z</time>
      </trkpt>
      <trkpt lat="49.44767" lon="-1.61385">
        <ele>25.950837</ele>
        <time>2021-09-05T09:40:45.000Z</time>
      </trkpt>
      <trkpt lat="49.44772" lon="-1.61383">
        <ele>25.892694</ele>
        <time>2021-09-05T09:40:49.000Z</time>
      </trkpt>
      <trkpt lat="49.4476" lon="-1.61386">
        <ele>25.750783</ele>
        <time>2021-09-05T09:41:11.000Z</time>
      </trkpt>
      <trkpt lat="49.44754" lon="-1.61388">
        <ele>25.690814</ele>
        <time>2021-09-05T09:41:13.000Z</time>
      </trkpt>
      <trkpt lat="49.44733" lon="-1.61394">
        <ele>25.491001</ele>
        <time>2021-09-05T09:41:18.000Z</time>
      </trkpt>
      <trkpt lat="49.44694" lon="-1.61406">
        <ele>25.123022</ele>
        <time>2021-09-05T09:41:26.000Z</time>
      </trkpt>
      <trkpt lat="49.44655" lon="-1.61416">
        <ele>24.749137</ele>
        <time>2021-09-05T09:41:33.000Z</time>
      </trkpt>
      <trkpt lat="49.44649" lon="-1.61419">
        <ele>24.697176</ele>
        <time>2021-09-05T09:41:34.000Z</time>
      </trkpt>
      <trkpt lat="49.44639" lon="-1.61423">
        <ele>24.594693</ele>
        <time>2021-09-05T09:41:36.000Z</time>
      </trkpt>
      <trkpt lat="49.44608" lon="-1.61431">
        <ele>24.306215</ele>
        <time>2021-09-05T09:41:42.000Z</time>
      </trkpt>
      <trkpt lat="49.44571" lon="-1.61435">
        <ele>23.949846</ele>
        <time>2021-09-05T09:41:48.000Z</time>
      </trkpt>
      <trkpt lat="49.44544" lon="-1.61436">
        <ele>23.680458</ele>
        <time>2021-09-05T09:41:52.000Z</time>
      </trkpt>
      <trkpt lat="49.44531" lon="-1.61436">
        <ele>23.548746</ele>
        <time>2021-09-05T09:41:54.000Z</time>
      </trkpt>
      <trkpt lat="49.44493" lon="-1.61428">
        <ele>23.166714</ele>
        <time>2021-09-05T09:42:00.000Z</time>
      </trkpt>
      <trkpt lat="49.44446" lon="-1.61415">
        <ele>22.690192</ele>
        <time>2021-09-05T09:42:07.000Z</time>
      </trkpt>
      <trkpt lat="49.44412" lon="-1.61402">
        <ele>22.341411</ele>
        <time>2021-09-05T09:42:12.000Z</time>
      </trkpt>
      <trkpt lat="49.44405" lon="-1.61399">
        <ele>22.272619</ele>
        <time>2021-09-05T09:42:13.000Z</time>
      </trkpt>
      <trkpt lat="49.44393" lon="-1.61392">
        <ele>22.075748</ele>
        <time>2021-09-05T09:42:15.000Z</time>
      </trkpt>
      <trkpt lat="49.44386" lon="-1.61388">
        <ele>21.976791</ele>
        <time>2021-09-05T09:42:16.000Z</time>
      </trkpt>
      <trkpt lat="49.44362" lon="-1.61374">
        <ele>21.594732</ele>
        <time>2021-09-05T09:42:20.000Z</time>
      </trkpt>
      <trkpt lat="49.44357" lon="-1.6137">
        <ele>21.502996</ele>
        <time>2021-09-05T09:42:21.000Z</time>
      </trkpt>
      <trkpt lat="49.44333" lon="-1.61352">
        <ele>21.123783</ele>
        <time>2021-09-05T09:42:25.000Z</time>
      </trkpt>
      <trkpt lat="49.44317" lon="-1.61337">
        <ele>20.836306</ele>
        <time>2021-09-05T09:42:28.000Z</time>
      </trkpt>
      <trkpt lat="49.44301" lon="-1.61322">
        <ele>20.567596</ele>
        <time>2021-09-05T09:42:31.000Z</time>
      </trkpt>
      <trkpt lat="49.44292" lon="-1.6131">
        <ele>20.388994</ele>
        <time>2021-09-05T09:42:33.000Z</time>
      </trkpt>
      <trkpt lat="49.44263" lon="-1.61275">
        <ele>19.851883</ele>
        <time>2021-09-05T09:42:39.000Z</time>
      </trkpt>
      <trkpt lat="49.44254" lon="-1.61262">
        <ele>19.668288</ele>
        <time>2021-09-05T09:42:41.000Z</time>
      </trkpt>
      <trkpt lat="49.44241" lon="-1.61243">
        <ele>19.478548</ele>
        <time>2021-09-05T09:42:44.000Z</time>
      </trkpt>
      <trkpt lat="49.44226" lon="-1.6122">
        <ele>19.282337</ele>
        <time>2021-09-05T09:42:48.000Z</time>
      </trkpt>
      <trkpt lat="49.44202" lon="-1.61177">
        <ele>18.932497</ele>
        <time>2021-09-05T09:42:54.000Z</time>
      </trkpt>
      <trkpt lat="49.44193" lon="-1.61161">
        <ele>18.804744</ele>
        <time>2021-09-05T09:42:56.000Z</time>
      </trkpt>
      <trkpt lat="49.44185" lon="-1.61144">
        <ele>18.674375</ele>
        <time>2021-09-05T09:42:58.000Z</time>
      </trkpt>
      <trkpt lat="49.44161" lon="-1.61086">
        <ele>18.248899</ele>
        <time>2021-09-05T09:43:05.000Z</time>
      </trkpt>
      <trkpt lat="49.44151" lon="-1.61054">
        <ele>18.031187</ele>
        <time>2021-09-05T09:43:09.000Z</time>
      </trkpt>
      <trkpt lat="49.44141" lon="-1.61023">
        <ele>18.05731</ele>
        <time>2021-09-05T09:43:13.000Z</time>
      </trkpt>
      <trkpt lat="49.44131" lon="-1.60986">
        <ele>18.350081</ele>
        <time>2021-09-05T09:43:17.000Z</time>
      </trkpt>
      <trkpt lat="49.4412" lon="-1.60936">
        <ele>18.742565</ele>
        <time>2021-09-05T09:43:23.000Z</time>
      </trkpt>
      <trkpt lat="49.44116" lon="-1.6091">
        <ele>18.940518</ele>
        <time>2021-09-05T09:43:26.000Z</time>
      </trkpt>
      <trkpt lat="49.44113" lon="-1.60893">
        <ele>19.073055</ele>
        <time>2021-09-05T09:43:28.000Z</time>
      </trkpt>
      <trkpt lat="49.44109" lon="-1.60866">
        <ele>19.278948</ele>
        <time>2021-09-05T09:43:31.000Z</time>
      </trkpt>
      <trkpt lat="49.44107" lon="-1.60847">
        <ele>19.418944</ele>
        <time>2021-09-05T09:43:33.000Z</time>
      </trkpt>
      <trkpt lat="49.44099" lon="-1.60789">
        <ele>19.858034</ele>
        <time>2021-09-05T09:43:39.000Z</time>
      </trkpt>
      <trkpt lat="49.44092" lon="-1.6074">
        <ele>20.234368</ele>
        <time>2021-09-05T09:43:44.000Z</time>
      </trkpt>
      <trkpt lat="49.4409" lon="-1.6072">
        <ele>20.386163</ele>
        <time>2021-09-05T09:43:46.000Z</time>
      </trkpt>
      <trkpt lat="49.44088" lon="-1.607">
        <ele>20.542203</ele>
        <time>2021-09-05T09:43:48.000Z</time>
      </trkpt>
      <trkpt lat="49.44079" lon="-1.60625">
        <ele>21.114484</ele>
        <time>2021-09-05T09:43:56.000Z</time>
      </trkpt>
      <trkpt lat="49.44073" lon="-1.60573">
        <ele>21.511369</ele>
        <time>2021-09-05T09:44:02.000Z</time>
      </trkpt>
      <trkpt lat="49.44072" lon="-1.60565">
        <ele>21.57647</ele>
        <time>2021-09-05T09:44:03.000Z</time>
      </trkpt>
      <trkpt lat="49.44071" lon="-1.60548">
        <ele>21.702017</ele>
        <time>2021-09-05T09:44:05.000Z</time>
      </trkpt>
      <trkpt lat="49.4407" lon="-1.60539">
        <ele>21.769155</ele>
        <time>2021-09-05T09:44:06.000Z</time>
      </trkpt>
      <trkpt lat="49.44063" lon="-1.60479">
        <ele>22.358052</ele>
        <time>2021-09-05T09:44:13.000Z</time>
      </trkpt>
      <trkpt lat="49.44061" lon="-1.60463">
        <ele>22.570374</ele>
        <time>2021-09-05T09:44:15.000Z</time>
      </trkpt>
      <trkpt lat="49.44059" lon="-1.60446">
        <ele>22.793412</ele>
        <time>2021-09-05T09:44:17.000Z</time>
      </trkpt>
      <trkpt lat="49.44056" lon="-1.60419">
        <ele>23.152468</ele>
        <time>2021-09-05T09:44:20.000Z</time>
      </trkpt>
      <trkpt lat="49.44052" lon="-1.60387">
        <ele>23.590421</ele>
        <time>2021-09-05T09:44:24.000Z</time>
      </trkpt>
      <trkpt lat="49.44045" lon="-1.60324">
        <ele>24.433232</ele>
        <time>2021-09-05T09:44:32.000Z</time>
      </trkpt>
      <trkpt lat="49.44037" lon="-1.60252">
        <ele>25.389334</ele>
        <time>2021-09-05T09:44:41.000Z</time>
      </trkpt>
      <trkpt lat="49.44035" lon="-1.6023">
        <ele>25.68574</ele>
        <time>2021-09-05T09:44:44.000Z</time>
      </trkpt>
      <trkpt lat="49.44031" lon="-1.602">
        <ele>26.485158</ele>
        <time>2021-09-05T09:44:48.000Z</time>
      </trkpt>
      <trkpt lat="49.44025" lon="-1.60145">
        <ele>28.018543</ele>
        <time>2021-09-05T09:44:56.000Z</time>
      </trkpt>
      <trkpt lat="49.4402" lon="-1.60101">
        <ele>29.250571</ele>
        <time>2021-09-05T09:45:02.000Z</time>
      </trkpt>
      <trkpt lat="49.44014" lon="-1.60045">
        <ele>30.798138</ele>
        <time>2021-09-05T09:45:09.000Z</time>
      </trkpt>
      <trkpt lat="49.44012" lon="-1.60029">
        <ele>31.230359</ele>
        <time>2021-09-05T09:45:11.000Z</time>
      </trkpt>
      <trkpt lat="49.44009" lon="-1.6">
        <ele>32.042914</ele>
        <time>2021-09-05T09:45:15.000Z</time>
      </trkpt>
      <trkpt lat="49.44006" lon="-1.59977">
        <ele>32.693064</ele>
        <time>2021-09-05T09:45:18.000Z</time>
      </trkpt>
      <trkpt lat="49.44003" lon="-1.59952">
        <ele>33.360793</ele>
        <time>2021-09-05T09:45:21.000Z</time>
      </trkpt>
      <trkpt lat="49.43998" lon="-1.59907">
        <ele>34.54424</ele>
        <time>2021-09-05T09:45:27.000Z</time>
      </trkpt>
      <trkpt lat="49.43996" lon="-1.59892">
        <ele>34.924789</ele>
        <time>2021-09-05T09:45:29.000Z</time>
      </trkpt>
      <trkpt lat="49.43993" lon="-1.59862">
        <ele>35.711839</ele>
        <time>2021-09-05T09:45:33.000Z</time>
      </trkpt>
      <trkpt lat="49.43989" lon="-1.59833">
        <ele>36.467889</ele>
        <time>2021-09-05T09:45:38.000Z</time>
      </trkpt>
      <trkpt lat="49.43987" lon="-1.59818">
        <ele>36.853491</ele>
        <time>2021-09-05T09:45:39.000Z</time>
      </trkpt>
      <trkpt lat="49.4398" lon="-1.59755">
        <ele>38.500397</ele>
        <time>2021-09-05T09:45:47.000Z</time>
      </trkpt>
      <trkpt lat="49.43972" lon="-1.59683">
        <ele>40.364185</ele>
        <time>2021-09-05T09:45:56.000Z</time>
      </trkpt>
      <trkpt lat="49.43965" lon="-1.59625">
        <ele>41.030812</ele>
        <time>2021-09-05T09:46:04.000Z</time>
      </trkpt>
      <trkpt lat="49.43956" lon="-1.59549">
        <ele>41.902466</ele>
        <time>2021-09-05T09:46:14.000Z</time>
      </trkpt>
      <trkpt lat="49.43952" lon="-1.59511">
        <ele>42.341483</ele>
        <time>2021-09-05T09:46:19.000Z</time>
      </trkpt>
      <trkpt lat="49.4395" lon="-1.59496">
        <ele>42.516322</ele>
        <time>2021-09-05T09:46:21.000Z</time>
      </trkpt>
      <trkpt lat="49.43944" lon="-1.59446">
        <ele>43.095533</ele>
        <time>2021-09-05T09:46:28.000Z</time>
      </trkpt>
      <trkpt lat="49.43936" lon="-1.59378">
        <ele>43.408335</ele>
        <time>2021-09-05T09:46:37.000Z</time>
      </trkpt>
      <trkpt lat="49.43935" lon="-1.59371">
        <ele>43.392194</ele>
        <time>2021-09-05T09:46:38.000Z</time>
      </trkpt>
      <trkpt lat="49.43934" lon="-1.59356">
        <ele>43.356675</ele>
        <time>2021-09-05T09:46:41.000Z</time>
      </trkpt>
      <trkpt lat="49.43933" lon="-1.59353">
        <ele>43.349623</ele>
        <time>2021-09-05T09:46:42.000Z</time>
      </trkpt>
      <trkpt lat="49.43933" lon="-1.59347">
        <ele>43.33445</ele>
        <time>2021-09-05T09:46:44.000Z</time>
      </trkpt>
      <trkpt lat="49.4393" lon="-1.5932">
        <ele>43.271536</ele>
        <time>2021-09-05T09:46:50.000Z</time>
      </trkpt>
      <trkpt lat="49.43926" lon="-1.5929">
        <ele>43.200665</ele>
        <time>2021-09-05T09:46:55.000Z</time>
      </trkpt>
      <trkpt lat="49.43925" lon="-1.59283">
        <ele>43.185882</ele>
        <time>2021-09-05T09:46:56.000Z</time>
      </trkpt>
      <trkpt lat="49.43924" lon="-1.59271">
        <ele>43.156218</ele>
        <time>2021-09-05T09:46:58.000Z</time>
      </trkpt>
      <trkpt lat="49.43921" lon="-1.59249">
        <ele>43.106826</ele>
        <time>2021-09-05T09:47:01.000Z</time>
      </trkpt>
      <trkpt lat="49.43916" lon="-1.59207">
        <ele>43.007878</ele>
        <time>2021-09-05T09:47:07.000Z</time>
      </trkpt>
      <trkpt lat="49.43913" lon="-1.59177">
        <ele>42.937007</ele>
        <time>2021-09-05T09:47:12.000Z</time>
      </trkpt>
      <trkpt lat="49.43912" lon="-1.59171">
        <ele>42.923196</ele>
        <time>2021-09-05T09:47:13.000Z</time>
      </trkpt>
      <trkpt lat="49.43908" lon="-1.59137">
        <ele>42.878247</ele>
        <time>2021-09-05T09:47:18.000Z</time>
      </trkpt>
      <trkpt lat="49.43903" lon="-1.59091">
        <ele>43.538991</ele>
        <time>2021-09-05T09:47:24.000Z</time>
      </trkpt>
      <trkpt lat="49.43901" lon="-1.59075">
        <ele>43.770046</ele>
        <time>2021-09-05T09:47:26.000Z</time>
      </trkpt>
      <trkpt lat="49.43899" lon="-1.59052">
        <ele>44.099219</ele>
        <time>2021-09-05T09:47:29.000Z</time>
      </trkpt>
      <trkpt lat="49.43898" lon="-1.59044">
        <ele>44.216838</ele>
        <time>2021-09-05T09:47:30.000Z</time>
      </trkpt>
      <trkpt lat="49.43896" lon="-1.59028">
        <ele>44.440927</ele>
        <time>2021-09-05T09:47:32.000Z</time>
      </trkpt>
      <trkpt lat="49.43895" lon="-1.59021">
        <ele>44.544626</ele>
        <time>2021-09-05T09:47:33.000Z</time>
      </trkpt>
      <trkpt lat="49.43891" lon="-1.58988">
        <ele>45.024203</ele>
        <time>2021-09-05T09:47:38.000Z</time>
      </trkpt>
      <trkpt lat="49.43889" lon="-1.58973">
        <ele>45.232594</ele>
        <time>2021-09-05T09:47:40.000Z</time>
      </trkpt>
      <trkpt lat="49.43888" lon="-1.58958">
        <ele>45.449724</ele>
        <time>2021-09-05T09:47:42.000Z</time>
      </trkpt>
      <trkpt lat="49.43886" lon="-1.58943">
        <ele>45.675206</ele>
        <time>2021-09-05T09:47:44.000Z</time>
      </trkpt>
      <trkpt lat="49.43884" lon="-1.58928">
        <ele>45.889168</ele>
        <time>2021-09-05T09:47:46.000Z</time>
      </trkpt>
      <trkpt lat="49.43882" lon="-1.58913">
        <ele>46.096167</ele>
        <time>2021-09-05T09:47:48.000Z</time>
      </trkpt>
      <trkpt lat="49.43881" lon="-1.58899">
        <ele>46.307343</ele>
        <time>2021-09-05T09:47:50.000Z</time>
      </trkpt>
      <trkpt lat="49.43877" lon="-1.58865">
        <ele>46.790639</ele>
        <time>2021-09-05T09:47:55.000Z</time>
      </trkpt>
      <trkpt lat="49.43874" lon="-1.58842">
        <ele>47.24261</ele>
        <time>2021-09-05T09:47:59.000Z</time>
      </trkpt>
      <trkpt lat="49.4387" lon="-1.58809">
        <ele>47.891974</ele>
        <time>2021-09-05T09:48:04.000Z</time>
      </trkpt>
      <trkpt lat="49.43867" lon="-1.5878">
        <ele>48.470106</ele>
        <time>2021-09-05T09:48:09.000Z</time>
      </trkpt>
      <trkpt lat="49.43863" lon="-1.58746">
        <ele>49.142342</ele>
        <time>2021-09-05T09:48:15.000Z</time>
      </trkpt>
      <trkpt lat="49.43859" lon="-1.58711">
        <ele>49.818911</ele>
        <time>2021-09-05T09:48:21.000Z</time>
      </trkpt>
      <trkpt lat="49.43856" lon="-1.58684">
        <ele>50.355454</ele>
        <time>2021-09-05T09:48:26.000Z</time>
      </trkpt>
      <trkpt lat="49.43853" lon="-1.58658">
        <ele>50.869126</ele>
        <time>2021-09-05T09:48:31.000Z</time>
      </trkpt>
      <trkpt lat="49.4385" lon="-1.58635">
        <ele>51.329241</ele>
        <time>2021-09-05T09:48:35.000Z</time>
      </trkpt>
      <trkpt lat="49.43847" lon="-1.58603">
        <ele>51.944636</ele>
        <time>2021-09-05T09:48:40.000Z</time>
      </trkpt>
      <trkpt lat="49.43843" lon="-1.58574">
        <ele>52.495623</ele>
        <time>2021-09-05T09:48:45.000Z</time>
      </trkpt>
      <trkpt lat="49.43839" lon="-1.58538">
        <ele>53.14675</ele>
        <time>2021-09-05T09:48:51.000Z</time>
      </trkpt>
      <trkpt lat="49.43835" lon="-1.58504">
        <ele>53.766472</ele>
        <time>2021-09-05T09:48:56.000Z</time>
      </trkpt>
      <trkpt lat="49.43831" lon="-1.58474">
        <ele>54.304224</ele>
        <time>2021-09-05T09:49:01.000Z</time>
      </trkpt>
      <trkpt lat="49.43828" lon="-1.58446">
        <ele>54.817946</ele>
        <time>2021-09-05T09:49:07.000Z</time>
      </trkpt>
      <trkpt lat="49.43825" lon="-1.58423">
        <ele>55.238372</ele>
        <time>2021-09-05T09:49:11.000Z</time>
      </trkpt>
      <trkpt lat="49.43817" lon="-1.5839">
        <ele>55.870736</ele>
        <time>2021-09-05T09:49:17.000Z</time>
      </trkpt>
      <trkpt lat="49.43812" lon="-1.58364">
        <ele>56.348216</ele>
        <time>2021-09-05T09:49:22.000Z</time>
      </trkpt>
      <trkpt lat="49.43808" lon="-1.58349">
        <ele>56.64619</ele>
        <time>2021-09-05T09:49:26.000Z</time>
      </trkpt>
      <trkpt lat="49.43807" lon="-1.58345">
        <ele>56.717909</ele>
        <time>2021-09-05T09:49:27.000Z</time>
      </trkpt>
      <trkpt lat="49.43804" lon="-1.58332">
        <ele>56.97355</ele>
        <time>2021-09-05T09:49:30.000Z</time>
      </trkpt>
      <trkpt lat="49.43795" lon="-1.58303">
        <ele>56.996547</ele>
        <time>2021-09-05T09:49:35.000Z</time>
      </trkpt>
      <trkpt lat="49.43788" lon="-1.58278">
        <ele>56.923544</ele>
        <time>2021-09-05T09:49:40.000Z</time>
      </trkpt>
      <trkpt lat="49.4378" lon="-1.58249">
        <ele>56.840344</ele>
        <time>2021-09-05T09:49:45.000Z</time>
      </trkpt>
      <trkpt lat="49.43779" lon="-1.58244">
        <ele>56.824683</ele>
        <time>2021-09-05T09:49:46.000Z</time>
      </trkpt>
      <trkpt lat="49.43769" lon="-1.58216">
        <ele>56.739549</ele>
        <time>2021-09-05T09:49:51.000Z</time>
      </trkpt>
      <trkpt lat="49.43759" lon="-1.5819">
        <ele>56.661216</ele>
        <time>2021-09-05T09:49:55.000Z</time>
      </trkpt>
      <trkpt lat="49.43753" lon="-1.58177">
        <ele>56.618283</ele>
        <time>2021-09-05T09:49:57.000Z</time>
      </trkpt>
      <trkpt lat="49.43743" lon="-1.58151">
        <ele>56.537788</ele>
        <time>2021-09-05T09:50:01.000Z</time>
      </trkpt>
      <trkpt lat="49.43728" lon="-1.58116">
        <ele>56.426879</ele>
        <time>2021-09-05T09:50:06.000Z</time>
      </trkpt>
      <trkpt lat="49.43725" lon="-1.58109">
        <ele>56.404519</ele>
        <time>2021-09-05T09:50:07.000Z</time>
      </trkpt>
      <trkpt lat="49.43722" lon="-1.58103">
        <ele>56.383496</ele>
        <time>2021-09-05T09:50:08.000Z</time>
      </trkpt>
      <trkpt lat="49.43716" lon="-1.5809">
        <ele>56.341628</ele>
        <time>2021-09-05T09:50:10.000Z</time>
      </trkpt>
      <trkpt lat="49.4371" lon="-1.58078">
        <ele>56.152566</ele>
        <time>2021-09-05T09:50:12.000Z</time>
      </trkpt>
      <trkpt lat="49.43704" lon="-1.58065">
        <ele>55.902358</ele>
        <time>2021-09-05T09:50:14.000Z</time>
      </trkpt>
      <trkpt lat="49.43701" lon="-1.5806">
        <ele>55.787958</ele>
        <time>2021-09-05T09:50:15.000Z</time>
      </trkpt>
      <trkpt lat="49.43691" lon="-1.5804">
        <ele>55.382761</ele>
        <time>2021-09-05T09:50:20.000Z</time>
      </trkpt>
      <trkpt lat="49.43678" lon="-1.5802">
        <ele>54.936612</ele>
        <time>2021-09-05T09:50:25.000Z</time>
      </trkpt>
      <trkpt lat="49.43664" lon="-1.57997">
        <ele>54.425258</ele>
        <time>2021-09-05T09:50:30.000Z</time>
      </trkpt>
      <trkpt lat="49.43657" lon="-1.57989">
        <ele>54.228242</ele>
        <time>2021-09-05T09:50:32.000Z</time>
      </trkpt>
      <trkpt lat="49.43654" lon="-1.57984">
        <ele>54.102434</ele>
        <time>2021-09-05T09:50:33.000Z</time>
      </trkpt>
      <trkpt lat="49.43649" lon="-1.57978">
        <ele>53.961052</ele>
        <time>2021-09-05T09:50:34.000Z</time>
      </trkpt>
      <trkpt lat="49.43636" lon="-1.57961">
        <ele>53.532967</ele>
        <time>2021-09-05T09:50:37.000Z</time>
      </trkpt>
      <trkpt lat="49.43631" lon="-1.57955">
        <ele>53.39055</ele>
        <time>2021-09-05T09:50:38.000Z</time>
      </trkpt>
      <trkpt lat="49.43598" lon="-1.57912">
        <ele>52.320756</ele>
        <time>2021-09-05T09:50:45.000Z</time>
      </trkpt>
      <trkpt lat="49.4358" lon="-1.57888">
        <ele>51.6531</ele>
        <time>2021-09-05T09:50:49.000Z</time>
      </trkpt>
      <trkpt lat="49.43561" lon="-1.57863">
        <ele>50.797765</ele>
        <time>2021-09-05T09:50:53.000Z</time>
      </trkpt>
      <trkpt lat="49.43552" lon="-1.57851">
        <ele>50.400348</ele>
        <time>2021-09-05T09:50:55.000Z</time>
      </trkpt>
      <trkpt lat="49.43542" lon="-1.57839">
        <ele>49.971156</ele>
        <time>2021-09-05T09:50:57.000Z</time>
      </trkpt>
      <trkpt lat="49.43526" lon="-1.57822">
        <ele>49.31301</ele>
        <time>2021-09-05T09:51:00.000Z</time>
      </trkpt>
      <trkpt lat="49.43499" lon="-1.57792">
        <ele>48.186595</ele>
        <time>2021-09-05T09:51:05.000Z</time>
      </trkpt>
      <trkpt lat="49.43494" lon="-1.57786">
        <ele>47.972603</ele>
        <time>2021-09-05T09:51:06.000Z</time>
      </trkpt>
      <trkpt lat="49.43463" lon="-1.57751">
        <ele>46.659052</ele>
        <time>2021-09-05T09:51:12.000Z</time>
      </trkpt>
      <trkpt lat="49.4343" lon="-1.57714">
        <ele>45.245129</ele>
        <time>2021-09-05T09:51:19.000Z</time>
      </trkpt>
      <trkpt lat="49.43398" lon="-1.57679">
        <ele>43.848204</ele>
        <time>2021-09-05T09:51:25.000Z</time>
      </trkpt>
      <trkpt lat="49.43371" lon="-1.57648">
        <ele>42.614009</ele>
        <time>2021-09-05T09:51:30.000Z</time>
      </trkpt>
      <trkpt lat="49.43365" lon="-1.57641">
        <ele>42.364321</ele>
        <time>2021-09-05T09:51:31.000Z</time>
      </trkpt>
      <trkpt lat="49.43338" lon="-1.57611">
        <ele>41.141451</ele>
        <time>2021-09-05T09:51:36.000Z</time>
      </trkpt>
      <trkpt lat="49.43332" lon="-1.57605">
        <ele>40.905999</ele>
        <time>2021-09-05T09:51:37.000Z</time>
      </trkpt>
      <trkpt lat="49.4329" lon="-1.57558">
        <ele>39.156304</ele>
        <time>2021-09-05T09:51:45.000Z</time>
      </trkpt>
      <trkpt lat="49.43247" lon="-1.57509">
        <ele>38.030247</ele>
        <time>2021-09-05T09:51:53.000Z</time>
      </trkpt>
      <trkpt lat="49.43242" lon="-1.57503">
        <ele>37.88783</ele>
        <time>2021-09-05T09:51:54.000Z</time>
      </trkpt>
      <trkpt lat="49.43226" lon="-1.57485">
        <ele>37.47064</ele>
        <time>2021-09-05T09:51:57.000Z</time>
      </trkpt>
      <trkpt lat="49.43204" lon="-1.5746">
        <ele>36.90097</ele>
        <time>2021-09-05T09:52:01.000Z</time>
      </trkpt>
      <trkpt lat="49.43199" lon="-1.57454">
        <ele>36.753521</ele>
        <time>2021-09-05T09:52:02.000Z</time>
      </trkpt>
      <trkpt lat="49.43188" lon="-1.57441">
        <ele>36.460316</ele>
        <time>2021-09-05T09:52:04.000Z</time>
      </trkpt>
      <trkpt lat="49.4316" lon="-1.57409">
        <ele>35.724764</ele>
        <time>2021-09-05T09:52:09.000Z</time>
      </trkpt>
      <trkpt lat="49.43128" lon="-1.57371">
        <ele>34.642185</ele>
        <time>2021-09-05T09:52:15.000Z</time>
      </trkpt>
      <trkpt lat="49.431" lon="-1.5734">
        <ele>33.659512</ele>
        <time>2021-09-05T09:52:20.000Z</time>
      </trkpt>
      <trkpt lat="49.43077" lon="-1.57314">
        <ele>32.85964</ele>
        <time>2021-09-05T09:52:24.000Z</time>
      </trkpt>
      <trkpt lat="49.43072" lon="-1.57308">
        <ele>32.671235</ele>
        <time>2021-09-05T09:52:25.000Z</time>
      </trkpt>
      <trkpt lat="49.43039" lon="-1.57269">
        <ele>31.484388</ele>
        <time>2021-09-05T09:52:31.000Z</time>
      </trkpt>
      <trkpt lat="49.43033" lon="-1.57263">
        <ele>31.299371</ele>
        <time>2021-09-05T09:52:32.000Z</time>
      </trkpt>
      <trkpt lat="49.43022" lon="-1.57251">
        <ele>30.909009</ele>
        <time>2021-09-05T09:52:34.000Z</time>
      </trkpt>
      <trkpt lat="49.43001" lon="-1.57226">
        <ele>30.234656</ele>
        <time>2021-09-05T09:52:38.000Z</time>
      </trkpt>
      <trkpt lat="49.42995" lon="-1.57219">
        <ele>30.112885</ele>
        <time>2021-09-05T09:52:39.000Z</time>
      </trkpt>
      <trkpt lat="49.42984" lon="-1.57207">
        <ele>29.86647</ele>
        <time>2021-09-05T09:52:41.000Z</time>
      </trkpt>
      <trkpt lat="49.42962" lon="-1.57181">
        <ele>29.372941</ele>
        <time>2021-09-05T09:52:45.000Z</time>
      </trkpt>
      <trkpt lat="49.42928" lon="-1.57142">
        <ele>28.598821</ele>
        <time>2021-09-05T09:52:51.000Z</time>
      </trkpt>
      <trkpt lat="49.42884" lon="-1.57091">
        <ele>27.613196</ele>
        <time>2021-09-05T09:52:59.000Z</time>
      </trkpt>
      <trkpt lat="49.42873" lon="-1.57079">
        <ele>27.372493</ele>
        <time>2021-09-05T09:53:01.000Z</time>
      </trkpt>
      <trkpt lat="49.42826" lon="-1.57024">
        <ele>27.000148</ele>
        <time>2021-09-05T09:53:10.000Z</time>
      </trkpt>
      <trkpt lat="49.4281" lon="-1.57006">
        <ele>26.92622</ele>
        <time>2021-09-05T09:53:14.000Z</time>
      </trkpt>
      <trkpt lat="49.42802" lon="-1.56994">
        <ele>26.883317</ele>
        <time>2021-09-05T09:53:19.000Z</time>
      </trkpt>
      <trkpt lat="49.42805" lon="-1.56981">
        <ele>26.850869</ele>
        <time>2021-09-05T09:53:23.000Z</time>
      </trkpt>
      <trkpt lat="49.4281" lon="-1.56952">
        <ele>26.777233</ele>
        <time>2021-09-05T09:53:28.000Z</time>
      </trkpt>
      <trkpt lat="49.42818" lon="-1.56908">
        <ele>26.664155</ele>
        <time>2021-09-05T09:53:34.000Z</time>
      </trkpt>
      <trkpt lat="49.42828" lon="-1.56854">
        <ele>26.527258</ele>
        <time>2021-09-05T09:53:41.000Z</time>
      </trkpt>
      <trkpt lat="49.4283" lon="-1.56829">
        <ele>26.564094</ele>
        <time>2021-09-05T09:53:45.000Z</time>
      </trkpt>
      <trkpt lat="49.4283" lon="-1.56804">
        <ele>26.657928</ele>
        <time>2021-09-05T09:53:47.000Z</time>
      </trkpt>
      <trkpt lat="49.42825" lon="-1.56744">
        <ele>26.886573</ele>
        <time>2021-09-05T09:53:54.000Z</time>
      </trkpt>
      <trkpt lat="49.42824" lon="-1.56685">
        <ele>27.10426</ele>
        <time>2021-09-05T09:54:01.000Z</time>
      </trkpt>
      <trkpt lat="49.42825" lon="-1.56629">
        <ele>27.316063</ele>
        <time>2021-09-05T09:54:08.000Z</time>
      </trkpt>
      <trkpt lat="49.42827" lon="-1.56568">
        <ele>27.54866</ele>
        <time>2021-09-05T09:54:16.000Z</time>
      </trkpt>
      <trkpt lat="49.42828" lon="-1.56541">
        <ele>27.752048</ele>
        <time>2021-09-05T09:54:20.000Z</time>
      </trkpt>
      <trkpt lat="49.42829" lon="-1.56521">
        <ele>27.900279</ele>
        <time>2021-09-05T09:54:23.000Z</time>
      </trkpt>
      <trkpt lat="49.42829" lon="-1.56521">
        <ele>27.900279</ele>
        <time>2021-09-05T09:54:24.000Z</time>
      </trkpt>
      <trkpt lat="49.42832" lon="-1.56503">
        <ele>28.034685</ele>
        <time>2021-09-05T09:54:27.000Z</time>
      </trkpt>
      <trkpt lat="49.42835" lon="-1.56486">
        <ele>28.16782</ele>
        <time>2021-09-05T09:54:31.000Z</time>
      </trkpt>
      <trkpt lat="49.42844" lon="-1.56444">
        <ele>28.496612</ele>
        <time>2021-09-05T09:54:38.000Z</time>
      </trkpt>
      <trkpt lat="49.42852" lon="-1.56406">
        <ele>28.790696</ele>
        <time>2021-09-05T09:54:44.000Z</time>
      </trkpt>
      <trkpt lat="49.42863" lon="-1.56355">
        <ele>29.192004</ele>
        <time>2021-09-05T09:54:51.000Z</time>
      </trkpt>
      <trkpt lat="49.42877" lon="-1.56288">
        <ele>29.561986</ele>
        <time>2021-09-05T09:55:00.000Z</time>
      </trkpt>
      <trkpt lat="49.42891" lon="-1.56235">
        <ele>29.432948</ele>
        <time>2021-09-05T09:55:07.000Z</time>
      </trkpt>
      <trkpt lat="49.42908" lon="-1.56174">
        <ele>29.282558</ele>
        <time>2021-09-05T09:55:14.000Z</time>
      </trkpt>
      <trkpt lat="49.42925" lon="-1.56118">
        <ele>29.143092</ele>
        <time>2021-09-05T09:55:20.000Z</time>
      </trkpt>
      <trkpt lat="49.42937" lon="-1.56088">
        <ele>29.063361</ele>
        <time>2021-09-05T09:55:23.000Z</time>
      </trkpt>
      <trkpt lat="49.42947" lon="-1.56067">
        <ele>29.005097</ele>
        <time>2021-09-05T09:55:25.000Z</time>
      </trkpt>
      <trkpt lat="49.42979" lon="-1.56008">
        <ele>28.343013</ele>
        <time>2021-09-05T09:55:31.000Z</time>
      </trkpt>
      <trkpt lat="49.43009" lon="-1.55934">
        <ele>27.467822</ele>
        <time>2021-09-05T09:55:38.000Z</time>
      </trkpt>
      <trkpt lat="49.43035" lon="-1.55857">
        <ele>26.596296</ele>
        <time>2021-09-05T09:55:45.000Z</time>
      </trkpt>
      <trkpt lat="49.43038" lon="-1.55846">
        <ele>26.469696</ele>
        <time>2021-09-05T09:55:46.000Z</time>
      </trkpt>
      <trkpt lat="49.43059" lon="-1.55758">
        <ele>25.780068</ele>
        <time>2021-09-05T09:55:54.000Z</time>
      </trkpt>
      <trkpt lat="49.43071" lon="-1.55703">
        <ele>25.415598</ele>
        <time>2021-09-05T09:56:00.000Z</time>
      </trkpt>
      <trkpt lat="49.43075" lon="-1.55688">
        <ele>25.313419</ele>
        <time>2021-09-05T09:56:02.000Z</time>
      </trkpt>
      <trkpt lat="49.4307" lon="-1.55674">
        <ele>25.218319</ele>
        <time>2021-09-05T09:56:04.000Z</time>
      </trkpt>
      <trkpt lat="49.43056" lon="-1.55681">
        <ele>25.076823</ele>
        <time>2021-09-05T09:56:07.000Z</time>
      </trkpt>
      <trkpt lat="49.43026" lon="-1.55697">
        <ele>24.769452</ele>
        <time>2021-09-05T09:56:13.000Z</time>
      </trkpt>
      <trkpt lat="49.42981" lon="-1.55715">
        <ele>24.307413</ele>
        <time>2021-09-05T09:56:21.000Z</time>
      </trkpt>
      <trkpt lat="49.42948" lon="-1.55712">
        <ele>23.943141</ele>
        <time>2021-09-05T09:56:26.000Z</time>
      </trkpt>
      <trkpt lat="49.42912" lon="-1.55705">
        <ele>23.544567</ele>
        <time>2021-09-05T09:56:31.000Z</time>
      </trkpt>
      <trkpt lat="49.42863" lon="-1.55689">
        <ele>22.996993</ele>
        <time>2021-09-05T09:56:38.000Z</time>
      </trkpt>
      <trkpt lat="49.42843" lon="-1.5568">
        <ele>22.771898</ele>
        <time>2021-09-05T09:56:41.000Z</time>
      </trkpt>
      <trkpt lat="49.4283" lon="-1.55675">
        <ele>22.623946</ele>
        <time>2021-09-05T09:56:43.000Z</time>
      </trkpt>
      <trkpt lat="49.42811" lon="-1.55664">
        <ele>22.402676</ele>
        <time>2021-09-05T09:56:46.000Z</time>
      </trkpt>
      <trkpt lat="49.42806" lon="-1.55659">
        <ele>22.340994</ele>
        <time>2021-09-05T09:56:47.000Z</time>
      </trkpt>
      <trkpt lat="49.42804" lon="-1.5565">
        <ele>22.277862</ele>
        <time>2021-09-05T09:56:48.000Z</time>
      </trkpt>
      <trkpt lat="49.42804" lon="-1.5564">
        <ele>22.211011</ele>
        <time>2021-09-05T09:56:49.000Z</time>
      </trkpt>
      <trkpt lat="49.4281" lon="-1.55583">
        <ele>21.826399</ele>
        <time>2021-09-05T09:56:55.000Z</time>
      </trkpt>
      <trkpt lat="49.42806" lon="-1.55556">
        <ele>21.643328</ele>
        <time>2021-09-05T09:56:58.000Z</time>
      </trkpt>
      <trkpt lat="49.42803" lon="-1.55539">
        <ele>21.527779</ele>
        <time>2021-09-05T09:57:00.000Z</time>
      </trkpt>
      <trkpt lat="49.42796" lon="-1.55515">
        <ele>21.35184</ele>
        <time>2021-09-05T09:57:03.000Z</time>
      </trkpt>
      <trkpt lat="49.4279" lon="-1.55499">
        <ele>21.231371</ele>
        <time>2021-09-05T09:57:05.000Z</time>
      </trkpt>
      <trkpt lat="49.42774" lon="-1.55469">
        <ele>20.970528</ele>
        <time>2021-09-05T09:57:09.000Z</time>
      </trkpt>
      <trkpt lat="49.42772" lon="-1.55464">
        <ele>20.930955</ele>
        <time>2021-09-05T09:57:10.000Z</time>
      </trkpt>
      <trkpt lat="49.42764" lon="-1.55455">
        <ele>20.832759</ele>
        <time>2021-09-05T09:57:11.000Z</time>
      </trkpt>
      <trkpt lat="49.42753" lon="-1.55443">
        <ele>20.696419</ele>
        <time>2021-09-05T09:57:13.000Z</time>
      </trkpt>
      <trkpt lat="49.42722" lon="-1.55402">
        <ele>20.170902</ele>
        <time>2021-09-05T09:57:19.000Z</time>
      </trkpt>
      <trkpt lat="49.42715" lon="-1.55397">
        <ele>20.077962</ele>
        <time>2021-09-05T09:57:20.000Z</time>
      </trkpt>
      <trkpt lat="49.42702" lon="-1.55393">
        <ele>19.897298</ele>
        <time>2021-09-05T09:57:22.000Z</time>
      </trkpt>
      <trkpt lat="49.4265" lon="-1.55378">
        <ele>19.220379</ele>
        <time>2021-09-05T09:57:29.000Z</time>
      </trkpt>
      <trkpt lat="49.42599" lon="-1.55364">
        <ele>18.54495</ele>
        <time>2021-09-05T09:57:36.000Z</time>
      </trkpt>
      <trkpt lat="49.4256" lon="-1.55343">
        <ele>17.996088</ele>
        <time>2021-09-05T09:57:42.000Z</time>
      </trkpt>
      <trkpt lat="49.42554" lon="-1.55336">
        <ele>17.905799</ele>
        <time>2021-09-05T09:57:43.000Z</time>
      </trkpt>
      <trkpt lat="49.42544" lon="-1.55322">
        <ele>17.720871</ele>
        <time>2021-09-05T09:57:45.000Z</time>
      </trkpt>
      <trkpt lat="49.4253" lon="-1.55286">
        <ele>17.359738</ele>
        <time>2021-09-05T09:57:49.000Z</time>
      </trkpt>
      <trkpt lat="49.42521" lon="-1.55272">
        <ele>17.198008</ele>
        <time>2021-09-05T09:57:51.000Z</time>
      </trkpt>
      <trkpt lat="49.42516" lon="-1.55267">
        <ele>17.114789</ele>
        <time>2021-09-05T09:57:52.000Z</time>
      </trkpt>
      <trkpt lat="49.42504" lon="-1.55261">
        <ele>16.954146</ele>
        <time>2021-09-05T09:57:54.000Z</time>
      </trkpt>
      <trkpt lat="49.42492" lon="-1.55259">
        <ele>16.789797</ele>
        <time>2021-09-05T09:57:56.000Z</time>
      </trkpt>
      <trkpt lat="49.42437" lon="-1.55252">
        <ele>16.068987</ele>
        <time>2021-09-05T09:58:05.000Z</time>
      </trkpt>
      <trkpt lat="49.4239" lon="-1.55256">
        <ele>15.943553</ele>
        <time>2021-09-05T09:58:13.000Z</time>
      </trkpt>
      <trkpt lat="49.42354" lon="-1.5526">
        <ele>15.945976</ele>
        <time>2021-09-05T09:58:20.000Z</time>
      </trkpt>
      <trkpt lat="49.42326" lon="-1.55265">
        <ele>15.947815</ele>
        <time>2021-09-05T09:58:26.000Z</time>
      </trkpt>
      <trkpt lat="49.42322" lon="-1.55266">
        <ele>15.948095</ele>
        <time>2021-09-05T09:58:27.000Z</time>
      </trkpt>
      <trkpt lat="49.42315" lon="-1.55262">
        <ele>15.948573</ele>
        <time>2021-09-05T09:58:28.000Z</time>
      </trkpt>
      <trkpt lat="49.42312" lon="-1.5525">
        <ele>15.949139</ele>
        <time>2021-09-05T09:58:30.000Z</time>
      </trkpt>
      <trkpt lat="49.42299" lon="-1.55202">
        <ele>15.951369</ele>
        <time>2021-09-05T09:58:38.000Z</time>
      </trkpt>
      <trkpt lat="49.42282" lon="-1.55133">
        <ele>16.156554</ele>
        <time>2021-09-05T09:58:47.000Z</time>
      </trkpt>
      <trkpt lat="49.42266" lon="-1.55076">
        <ele>16.4964</ele>
        <time>2021-09-05T09:58:55.000Z</time>
      </trkpt>
      <trkpt lat="49.42252" lon="-1.55029">
        <ele>16.780983</ele>
        <time>2021-09-05T09:59:02.000Z</time>
      </trkpt>
      <trkpt lat="49.42238" lon="-1.54981">
        <ele>17.073294</ele>
        <time>2021-09-05T09:59:10.000Z</time>
      </trkpt>
      <trkpt lat="49.42233" lon="-1.5496">
        <ele>17.200378</ele>
        <time>2021-09-05T09:59:12.000Z</time>
      </trkpt>
      <trkpt lat="49.42227" lon="-1.54929">
        <ele>17.37775</ele>
        <time>2021-09-05T09:59:16.000Z</time>
      </trkpt>
      <trkpt lat="49.42219" lon="-1.54865">
        <ele>17.682998</ele>
        <time>2021-09-05T09:59:24.000Z</time>
      </trkpt>
      <trkpt lat="49.42218" lon="-1.54857">
        <ele>17.719149</ele>
        <time>2021-09-05T09:59:25.000Z</time>
      </trkpt>
      <trkpt lat="49.42211" lon="-1.54801">
        <ele>17.972007</ele>
        <time>2021-09-05T09:59:32.000Z</time>
      </trkpt>
      <trkpt lat="49.42201" lon="-1.54725">
        <ele>18.311112</ele>
        <time>2021-09-05T09:59:41.000Z</time>
      </trkpt>
      <trkpt lat="49.42192" lon="-1.54657">
        <ele>18.615969</ele>
        <time>2021-09-05T09:59:49.000Z</time>
      </trkpt>
      <trkpt lat="49.42184" lon="-1.54585">
        <ele>18.830083</ele>
        <time>2021-09-05T09:59:57.000Z</time>
      </trkpt>
      <trkpt lat="49.4218" lon="-1.5451">
        <ele>19.015394</ele>
        <time>2021-09-05T10:00:05.000Z</time>
      </trkpt>
      <trkpt lat="49.42172" lon="-1.54426">
        <ele>19.222657</ele>
        <time>2021-09-05T10:00:14.000Z</time>
      </trkpt>
      <trkpt lat="49.42168" lon="-1.54399">
        <ele>19.289668</ele>
        <time>2021-09-05T10:00:17.000Z</time>
      </trkpt>
      <trkpt lat="49.42162" lon="-1.54374">
        <ele>19.354004</ele>
        <time>2021-09-05T10:00:20.000Z</time>
      </trkpt>
      <trkpt lat="49.42147" lon="-1.54305">
        <ele>19.47893</ele>
        <time>2021-09-05T10:00:28.000Z</time>
      </trkpt>
      <trkpt lat="49.42142" lon="-1.54269">
        <ele>19.538889</ele>
        <time>2021-09-05T10:00:32.000Z</time>
      </trkpt>
      <trkpt lat="49.42142" lon="-1.54259">
        <ele>19.554498</ele>
        <time>2021-09-05T10:00:33.000Z</time>
      </trkpt>
      <trkpt lat="49.42142" lon="-1.54195">
        <ele>19.659536</ele>
        <time>2021-09-05T10:00:40.000Z</time>
      </trkpt>
      <trkpt lat="49.42151" lon="-1.54142">
        <ele>19.747527</ele>
        <time>2021-09-05T10:00:46.000Z</time>
      </trkpt>
      <trkpt lat="49.42162" lon="-1.5411">
        <ele>19.806374</ele>
        <time>2021-09-05T10:00:50.000Z</time>
      </trkpt>
      <trkpt lat="49.42163" lon="-1.54098">
        <ele>19.816785</ele>
        <time>2021-09-05T10:00:51.000Z</time>
      </trkpt>
      <trkpt lat="49.42158" lon="-1.54093">
        <ele>19.807234</ele>
        <time>2021-09-05T10:00:52.000Z</time>
      </trkpt>
      <trkpt lat="49.42149" lon="-1.54082">
        <ele>19.785561</ele>
        <time>2021-09-05T10:00:54.000Z</time>
      </trkpt>
      <trkpt lat="49.42129" lon="-1.54061">
        <ele>19.742477</ele>
        <time>2021-09-05T10:00:58.000Z</time>
      </trkpt>
      <trkpt lat="49.42123" lon="-1.54059">
        <ele>19.730478</ele>
        <time>2021-09-05T10:00:59.000Z</time>
      </trkpt>
      <trkpt lat="49.42117" lon="-1.54061">
        <ele>19.718876</ele>
        <time>2021-09-05T10:01:00.000Z</time>
      </trkpt>
      <trkpt lat="49.42106" lon="-1.54071">
        <ele>19.696054</ele>
        <time>2021-09-05T10:01:02.000Z</time>
      </trkpt>
      <trkpt lat="49.42086" lon="-1.54091">
        <ele>19.65349</ele>
        <time>2021-09-05T10:01:06.000Z</time>
      </trkpt>
      <trkpt lat="49.42081" lon="-1.54091">
        <ele>19.643712</ele>
        <time>2021-09-05T10:01:07.000Z</time>
      </trkpt>
      <trkpt lat="49.42075" lon="-1.54091">
        <ele>19.632852</ele>
        <time>2021-09-05T10:01:08.000Z</time>
      </trkpt>
      <trkpt lat="49.42057" lon="-1.54085">
        <ele>19.600371</ele>
        <time>2021-09-05T10:01:11.000Z</time>
      </trkpt>
      <trkpt lat="49.42046" lon="-1.54081">
        <ele>19.579205</ele>
        <time>2021-09-05T10:01:13.000Z</time>
      </trkpt>
      <trkpt lat="49.42041" lon="-1.54074">
        <ele>19.568108</ele>
        <time>2021-09-05T10:01:14.000Z</time>
      </trkpt>
      <trkpt lat="49.42042" lon="-1.54066">
        <ele>19.558391</ele>
        <time>2021-09-05T10:01:15.000Z</time>
      </trkpt>
      <trkpt lat="49.42043" lon="-1.54046">
        <ele>19.534624</ele>
        <time>2021-09-05T10:01:17.000Z</time>
      </trkpt>
      <trkpt lat="49.42041" lon="-1.54005">
        <ele>19.445481</ele>
        <time>2021-09-05T10:01:22.000Z</time>
      </trkpt>
      <trkpt lat="49.42033" lon="-1.53923">
        <ele>18.916254</ele>
        <time>2021-09-05T10:01:29.000Z</time>
      </trkpt>
      <trkpt lat="49.42027" lon="-1.53869">
        <ele>18.567123</ele>
        <time>2021-09-05T10:01:35.000Z</time>
      </trkpt>
      <trkpt lat="49.42025" lon="-1.53847">
        <ele>18.421966</ele>
        <time>2021-09-05T10:01:36.000Z</time>
      </trkpt>
      <trkpt lat="49.42021" lon="-1.53782">
        <ele>18.008298</ele>
        <time>2021-09-05T10:01:42.000Z</time>
      </trkpt>
      <trkpt lat="49.42021" lon="-1.5376">
        <ele>17.866009</ele>
        <time>2021-09-05T10:01:44.000Z</time>
      </trkpt>
      <trkpt lat="49.4203" lon="-1.53702">
        <ele>17.422483</ele>
        <time>2021-09-05T10:01:49.000Z</time>
      </trkpt>
      <trkpt lat="49.42041" lon="-1.53647">
        <ele>16.951342</ele>
        <time>2021-09-05T10:01:55.000Z</time>
      </trkpt>
      <trkpt lat="49.42047" lon="-1.53614">
        <ele>16.668192</ele>
        <time>2021-09-05T10:01:57.000Z</time>
      </trkpt>
      <trkpt lat="49.42044" lon="-1.53588">
        <ele>16.45408</ele>
        <time>2021-09-05T10:01:59.000Z</time>
      </trkpt>
      <trkpt lat="49.42023" lon="-1.53577">
        <ele>16.16924</ele>
        <time>2021-09-05T10:02:02.000Z</time>
      </trkpt>
      <trkpt lat="49.41972" lon="-1.53539">
        <ele>15.456617</ele>
        <time>2021-09-05T10:02:09.000Z</time>
      </trkpt>
      <trkpt lat="49.41922" lon="-1.53505">
        <ele>14.624657</ele>
        <time>2021-09-05T10:02:16.000Z</time>
      </trkpt>
      <trkpt lat="49.41915" lon="-1.535">
        <ele>14.509119</ele>
        <time>2021-09-05T10:02:17.000Z</time>
      </trkpt>
      <trkpt lat="49.41863" lon="-1.53458">
        <ele>13.616695</ele>
        <time>2021-09-05T10:02:25.000Z</time>
      </trkpt>
      <trkpt lat="49.41843" lon="-1.53429">
        <ele>13.199427</ele>
        <time>2021-09-05T10:02:30.000Z</time>
      </trkpt>
      <trkpt lat="49.41823" lon="-1.53378">
        <ele>12.63759</ele>
        <time>2021-09-05T10:02:35.000Z</time>
      </trkpt>
      <trkpt lat="49.41804" lon="-1.53313">
        <ele>12.100395</ele>
        <time>2021-09-05T10:02:42.000Z</time>
      </trkpt>
      <trkpt lat="49.41789" lon="-1.53269">
        <ele>11.719854</ele>
        <time>2021-09-05T10:02:47.000Z</time>
      </trkpt>
      <trkpt lat="49.41785" lon="-1.53261">
        <ele>11.640769</ele>
        <time>2021-09-05T10:02:48.000Z</time>
      </trkpt>
      <trkpt lat="49.4178" lon="-1.53255">
        <ele>11.563333</ele>
        <time>2021-09-05T10:02:49.000Z</time>
      </trkpt>
      <trkpt lat="49.41768" lon="-1.53246">
        <ele>11.405678</ele>
        <time>2021-09-05T10:02:51.000Z</time>
      </trkpt>
      <trkpt lat="49.41761" lon="-1.53244">
        <ele>11.32609</ele>
        <time>2021-09-05T10:02:53.000Z</time>
      </trkpt>
      <trkpt lat="49.41741" lon="-1.53247">
        <ele>11.093734</ele>
        <time>2021-09-05T10:02:55.000Z</time>
      </trkpt>
      <trkpt lat="49.41698" lon="-1.53264">
        <ele>10.618363</ele>
        <time>2021-09-05T10:03:02.000Z</time>
      </trkpt>
      <trkpt lat="49.41649" lon="-1.53285">
        <ele>10.505229</ele>
        <time>2021-09-05T10:03:10.000Z</time>
      </trkpt>
      <trkpt lat="49.41602" lon="-1.53305">
        <ele>10.396673</ele>
        <time>2021-09-05T10:03:18.000Z</time>
      </trkpt>
      <trkpt lat="49.41563" lon="-1.53321">
        <ele>10.307648</ele>
        <time>2021-09-05T10:03:25.000Z</time>
      </trkpt>
      <trkpt lat="49.41532" lon="-1.53333">
        <ele>10.237185</ele>
        <time>2021-09-05T10:03:31.000Z</time>
      </trkpt>
      <trkpt lat="49.41528" lon="-1.53335">
        <ele>10.246278</ele>
        <time>2021-09-05T10:03:32.000Z</time>
      </trkpt>
      <trkpt lat="49.41515" lon="-1.53341">
        <ele>10.357081</ele>
        <time>2021-09-05T10:03:36.000Z</time>
      </trkpt>
      <trkpt lat="49.41512" lon="-1.53342">
        <ele>10.378158</ele>
        <time>2021-09-05T10:03:37.000Z</time>
      </trkpt>
      <trkpt lat="49.41503" lon="-1.53346">
        <ele>10.457741</ele>
        <time>2021-09-05T10:03:40.000Z</time>
      </trkpt>
      <trkpt lat="49.41491" lon="-1.53351">
        <ele>10.555255</ele>
        <time>2021-09-05T10:03:45.000Z</time>
      </trkpt>
      <trkpt lat="49.4149" lon="-1.53352">
        <ele>10.567442</ele>
        <time>2021-09-05T10:03:46.000Z</time>
      </trkpt>
      <trkpt lat="49.41488" lon="-1.53352">
        <ele>10.580232</ele>
        <time>2021-09-05T10:03:47.000Z</time>
      </trkpt>
      <trkpt lat="49.41482" lon="-1.53356">
        <ele>10.632997</ele>
        <time>2021-09-05T10:03:50.000Z</time>
      </trkpt>
      <trkpt lat="49.41476" lon="-1.53359">
        <ele>10.686532</ele>
        <time>2021-09-05T10:03:55.000Z</time>
      </trkpt>
      <trkpt lat="49.41472" lon="-1.53361">
        <ele>10.720249</ele>
        <time>2021-09-05T10:04:09.000Z</time>
      </trkpt>
      <trkpt lat="49.41457" lon="-1.53369">
        <ele>10.848853</ele>
        <time>2021-09-05T10:04:14.000Z</time>
      </trkpt>
      <trkpt lat="49.41432" lon="-1.53382">
        <ele>11.063938</ele>
        <time>2021-09-05T10:04:20.000Z</time>
      </trkpt>
      <trkpt lat="49.4142" lon="-1.53389">
        <ele>11.175384</ele>
        <time>2021-09-05T10:04:23.000Z</time>
      </trkpt>
      <trkpt lat="49.41406" lon="-1.53397">
        <ele>11.296354</ele>
        <time>2021-09-05T10:04:26.000Z</time>
      </trkpt>
      <trkpt lat="49.41376" lon="-1.5341">
        <ele>11.544548</ele>
        <time>2021-09-05T10:04:32.000Z</time>
      </trkpt>
      <trkpt lat="49.41342" lon="-1.53429">
        <ele>11.810579</ele>
        <time>2021-09-05T10:04:39.000Z</time>
      </trkpt>
      <trkpt lat="49.41309" lon="-1.53458">
        <ele>12.054793</ele>
        <time>2021-09-05T10:04:46.000Z</time>
      </trkpt>
      <trkpt lat="49.41263" lon="-1.53495">
        <ele>12.389189</ele>
        <time>2021-09-05T10:04:55.000Z</time>
      </trkpt>
      <trkpt lat="49.41228" lon="-1.53511">
        <ele>12.62301</ele>
        <time>2021-09-05T10:05:02.000Z</time>
      </trkpt>
      <trkpt lat="49.41203" lon="-1.53515">
        <ele>12.782952</ele>
        <time>2021-09-05T10:05:05.000Z</time>
      </trkpt>
      <trkpt lat="49.41184" lon="-1.53515">
        <ele>12.876676</ele>
        <time>2021-09-05T10:05:08.000Z</time>
      </trkpt>
      <trkpt lat="49.41146" lon="-1.53512">
        <ele>13.000909</ele>
        <time>2021-09-05T10:05:14.000Z</time>
      </trkpt>
      <trkpt lat="49.41114" lon="-1.53505">
        <ele>13.105848</ele>
        <time>2021-09-05T10:05:19.000Z</time>
      </trkpt>
      <trkpt lat="49.41063" lon="-1.53493">
        <ele>13.275476</ele>
        <time>2021-09-05T10:05:27.000Z</time>
      </trkpt>
      <trkpt lat="49.41025" lon="-1.53475">
        <ele>13.406399</ele>
        <time>2021-09-05T10:05:33.000Z</time>
      </trkpt>
      <trkpt lat="49.40988" lon="-1.53453">
        <ele>13.564092</ele>
        <time>2021-09-05T10:05:40.000Z</time>
      </trkpt>
      <trkpt lat="49.40968" lon="-1.53434">
        <ele>13.665514</ele>
        <time>2021-09-05T10:05:45.000Z</time>
      </trkpt>
      <trkpt lat="49.40964" lon="-1.5343">
        <ele>13.685237</ele>
        <time>2021-09-05T10:05:46.000Z</time>
      </trkpt>
      <trkpt lat="49.40952" lon="-1.53409">
        <ele>13.763986</ele>
        <time>2021-09-05T10:05:51.000Z</time>
      </trkpt>
      <trkpt lat="49.40943" lon="-1.5339">
        <ele>13.829553</ele>
        <time>2021-09-05T10:05:55.000Z</time>
      </trkpt>
      <trkpt lat="49.40939" lon="-1.53379">
        <ele>13.866267</ele>
        <time>2021-09-05T10:05:57.000Z</time>
      </trkpt>
      <trkpt lat="49.40936" lon="-1.53373">
        <ele>13.884975</ele>
        <time>2021-09-05T10:05:58.000Z</time>
      </trkpt>
      <trkpt lat="49.40927" lon="-1.53351">
        <ele>13.960276</ele>
        <time>2021-09-05T10:06:02.000Z</time>
      </trkpt>
      <trkpt lat="49.40915" lon="-1.53323">
        <ele>14.051711</ele>
        <time>2021-09-05T10:06:07.000Z</time>
      </trkpt>
      <trkpt lat="49.40912" lon="-1.53317">
        <ele>14.071121</ele>
        <time>2021-09-05T10:06:08.000Z</time>
      </trkpt>
      <trkpt lat="49.409" lon="-1.53288">
        <ele>14.17051</ele>
        <time>2021-09-05T10:06:13.000Z</time>
      </trkpt>
      <trkpt lat="49.40888" lon="-1.5326">
        <ele>14.4784</ele>
        <time>2021-09-05T10:06:18.000Z</time>
      </trkpt>
      <trkpt lat="49.40877" lon="-1.53235">
        <ele>14.911205</ele>
        <time>2021-09-05T10:06:23.000Z</time>
      </trkpt>
      <trkpt lat="49.40869" lon="-1.53216">
        <ele>15.227492</ele>
        <time>2021-09-05T10:06:27.000Z</time>
      </trkpt>
      <trkpt lat="49.40858" lon="-1.53191">
        <ele>15.661499</ele>
        <time>2021-09-05T10:06:32.000Z</time>
      </trkpt>
      <trkpt lat="49.40856" lon="-1.53186">
        <ele>15.738791</ele>
        <time>2021-09-05T10:06:33.000Z</time>
      </trkpt>
      <trkpt lat="49.40852" lon="-1.53177">
        <ele>15.896934</ele>
        <time>2021-09-05T10:06:35.000Z</time>
      </trkpt>
      <trkpt lat="49.40842" lon="-1.53153">
        <ele>16.303593</ele>
        <time>2021-09-05T10:06:40.000Z</time>
      </trkpt>
      <trkpt lat="49.40833" lon="-1.53133">
        <ele>16.641278</ele>
        <time>2021-09-05T10:06:44.000Z</time>
      </trkpt>
      <trkpt lat="49.40827" lon="-1.53118">
        <ele>16.904118</ele>
        <time>2021-09-05T10:06:47.000Z</time>
      </trkpt>
      <trkpt lat="49.40822" lon="-1.53108">
        <ele>17.068526</ele>
        <time>2021-09-05T10:06:49.000Z</time>
      </trkpt>
      <trkpt lat="49.40814" lon="-1.53092">
        <ele>17.357987</ele>
        <time>2021-09-05T10:06:53.000Z</time>
      </trkpt>
      <trkpt lat="49.40804" lon="-1.53081">
        <ele>17.624211</ele>
        <time>2021-09-05T10:06:57.000Z</time>
      </trkpt>
      <trkpt lat="49.4079" lon="-1.53065">
        <ele>18.009011</ele>
        <time>2021-09-05T10:07:03.000Z</time>
      </trkpt>
      <trkpt lat="49.40775" lon="-1.53048">
        <ele>18.797239</ele>
        <time>2021-09-05T10:07:09.000Z</time>
      </trkpt>
      <trkpt lat="49.40764" lon="-1.53035">
        <ele>19.547245</ele>
        <time>2021-09-05T10:07:14.000Z</time>
      </trkpt>
      <trkpt lat="49.40754" lon="-1.53024">
        <ele>20.174993</ele>
        <time>2021-09-05T10:07:18.000Z</time>
      </trkpt>
      <trkpt lat="49.40739" lon="-1.53008">
        <ele>21.149132</ele>
        <time>2021-09-05T10:07:24.000Z</time>
      </trkpt>
      <trkpt lat="49.40718" lon="-1.52995">
        <ele>22.315875</ele>
        <time>2021-09-05T10:07:31.000Z</time>
      </trkpt>
      <trkpt lat="49.40704" lon="-1.53006">
        <ele>23.125006</ele>
        <time>2021-09-05T10:07:37.000Z</time>
      </trkpt>
      <trkpt lat="49.40695" lon="-1.53012">
        <ele>23.62889</ele>
        <time>2021-09-05T10:07:41.000Z</time>
      </trkpt>
      <trkpt lat="49.40694" lon="-1.53014">
        <ele>23.74048</ele>
        <time>2021-09-05T10:07:42.000Z</time>
      </trkpt>
      <trkpt lat="49.40683" lon="-1.53027">
        <ele>24.443709</ele>
        <time>2021-09-05T10:07:47.000Z</time>
      </trkpt>
      <trkpt lat="49.40675" lon="-1.53038">
        <ele>25.018497</ele>
        <time>2021-09-05T10:07:51.000Z</time>
      </trkpt>
      <trkpt lat="49.40663" lon="-1.53054">
        <ele>25.860791</ele>
        <time>2021-09-05T10:07:57.000Z</time>
      </trkpt>
      <trkpt lat="49.40651" lon="-1.53069">
        <ele>26.631692</ele>
        <time>2021-09-05T10:08:03.000Z</time>
      </trkpt>
      <trkpt lat="49.4064" lon="-1.53083">
        <ele>27.373504</ele>
        <time>2021-09-05T10:08:08.000Z</time>
      </trkpt>
      <trkpt lat="49.4063" lon="-1.53095">
        <ele>27.89206</ele>
        <time>2021-09-05T10:08:13.000Z</time>
      </trkpt>
      <trkpt lat="49.40628" lon="-1.53098">
        <ele>27.975302</ele>
        <time>2021-09-05T10:08:14.000Z</time>
      </trkpt>
      <trkpt lat="49.40615" lon="-1.53115">
        <ele>28.601622</ele>
        <time>2021-09-05T10:08:21.000Z</time>
      </trkpt>
      <trkpt lat="49.40604" lon="-1.53129">
        <ele>29.103815</ele>
        <time>2021-09-05T10:08:26.000Z</time>
      </trkpt>
      <trkpt lat="49.40584" lon="-1.53147">
        <ele>29.947301</ele>
        <time>2021-09-05T10:08:33.000Z</time>
      </trkpt>
      <trkpt lat="49.40562" lon="-1.53167">
        <ele>30.839296</ele>
        <time>2021-09-05T10:08:40.000Z</time>
      </trkpt>
      <trkpt lat="49.40534" lon="-1.53192">
        <ele>31.998907</ele>
        <time>2021-09-05T10:08:48.000Z</time>
      </trkpt>
      <trkpt lat="49.405" lon="-1.53211">
        <ele>33.261963</ele>
        <time>2021-09-05T10:08:56.000Z</time>
      </trkpt>
      <trkpt lat="49.40492" lon="-1.53216">
        <ele>33.584789</ele>
        <time>2021-09-05T10:08:58.000Z</time>
      </trkpt>
      <trkpt lat="49.4048" lon="-1.53223">
        <ele>33.977791</ele>
        <time>2021-09-05T10:09:01.000Z</time>
      </trkpt>
      <trkpt lat="49.40449" lon="-1.53241">
        <ele>34.459785</ele>
        <time>2021-09-05T10:09:08.000Z</time>
      </trkpt>
      <trkpt lat="49.40441" lon="-1.53246">
        <ele>34.589393</ele>
        <time>2021-09-05T10:09:10.000Z</time>
      </trkpt>
      <trkpt lat="49.40432" lon="-1.53251">
        <ele>34.724847</ele>
        <time>2021-09-05T10:09:12.000Z</time>
      </trkpt>
      <trkpt lat="49.40424" lon="-1.53256">
        <ele>34.855154</ele>
        <time>2021-09-05T10:09:14.000Z</time>
      </trkpt>
      <trkpt lat="49.40389" lon="-1.53274">
        <ele>35.399008</ele>
        <time>2021-09-05T10:09:22.000Z</time>
      </trkpt>
      <trkpt lat="49.40369" lon="-1.53284">
        <ele>35.70908</ele>
        <time>2021-09-05T10:09:26.000Z</time>
      </trkpt>
      <trkpt lat="49.40358" lon="-1.53287">
        <ele>35.871881</ele>
        <time>2021-09-05T10:09:28.000Z</time>
      </trkpt>
      <trkpt lat="49.40352" lon="-1.53288">
        <ele>35.95837</ele>
        <time>2021-09-05T10:09:29.000Z</time>
      </trkpt>
      <trkpt lat="49.40327" lon="-1.53295">
        <ele>36.330351</ele>
        <time>2021-09-05T10:09:33.000Z</time>
      </trkpt>
      <trkpt lat="49.40314" lon="-1.53302">
        <ele>36.537644</ele>
        <time>2021-09-05T10:09:35.000Z</time>
      </trkpt>
      <trkpt lat="49.40296" lon="-1.5332">
        <ele>36.67734</ele>
        <time>2021-09-05T10:09:38.000Z</time>
      </trkpt>
      <trkpt lat="49.40261" lon="-1.53354">
        <ele>36.907113</ele>
        <time>2021-09-05T10:09:44.000Z</time>
      </trkpt>
      <trkpt lat="49.40217" lon="-1.53397">
        <ele>37.194523</ele>
        <time>2021-09-05T10:09:52.000Z</time>
      </trkpt>
      <trkpt lat="49.40172" lon="-1.53441">
        <ele>37.487039</ele>
        <time>2021-09-05T10:10:01.000Z</time>
      </trkpt>
      <trkpt lat="49.40125" lon="-1.53487">
        <ele>37.609315</ele>
        <time>2021-09-05T10:10:10.000Z</time>
      </trkpt>
      <trkpt lat="49.40091" lon="-1.53521">
        <ele>37.654962</ele>
        <time>2021-09-05T10:10:16.000Z</time>
      </trkpt>
      <trkpt lat="49.40055" lon="-1.53555">
        <ele>37.701938</ele>
        <time>2021-09-05T10:10:22.000Z</time>
      </trkpt>
      <trkpt lat="49.4005" lon="-1.5356">
        <ele>37.708912</ele>
        <time>2021-09-05T10:10:23.000Z</time>
      </trkpt>
      <trkpt lat="49.40046" lon="-1.53574">
        <ele>37.72015</ele>
        <time>2021-09-05T10:10:25.000Z</time>
      </trkpt>
      <trkpt lat="49.40049" lon="-1.53582">
        <ele>37.726036</ele>
        <time>2021-09-05T10:10:26.000Z</time>
      </trkpt>
      <trkpt lat="49.40054" lon="-1.53596">
        <ele>37.738155</ele>
        <time>2021-09-05T10:10:28.000Z</time>
      </trkpt>
      <trkpt lat="49.40056" lon="-1.53604">
        <ele>37.744338</ele>
        <time>2021-09-05T10:10:29.000Z</time>
      </trkpt>
      <trkpt lat="49.40067" lon="-1.53635">
        <ele>37.666754</ele>
        <time>2021-09-05T10:10:33.000Z</time>
      </trkpt>
      <trkpt lat="49.40086" lon="-1.5369">
        <ele>36.978767</ele>
        <time>2021-09-05T10:10:39.000Z</time>
      </trkpt>
      <trkpt lat="49.40101" lon="-1.53733">
        <ele>36.440534</ele>
        <time>2021-09-05T10:10:43.000Z</time>
      </trkpt>
      <trkpt lat="49.40104" lon="-1.53743">
        <ele>36.306757</ele>
        <time>2021-09-05T10:10:44.000Z</time>
      </trkpt>
      <trkpt lat="49.40111" lon="-1.53764">
        <ele>36.047503</ele>
        <time>2021-09-05T10:10:46.000Z</time>
      </trkpt>
      <trkpt lat="49.40112" lon="-1.53789">
        <ele>35.767192</ele>
        <time>2021-09-05T10:10:48.000Z</time>
      </trkpt>
      <trkpt lat="49.40108" lon="-1.53801">
        <ele>35.626045</ele>
        <time>2021-09-05T10:10:49.000Z</time>
      </trkpt>
      <trkpt lat="49.40101" lon="-1.53826">
        <ele>35.317219</ele>
        <time>2021-09-05T10:10:51.000Z</time>
      </trkpt>
      <trkpt lat="49.40088" lon="-1.53845">
        <ele>35.005527</ele>
        <time>2021-09-05T10:10:53.000Z</time>
      </trkpt>
      <trkpt lat="49.40073" lon="-1.53864">
        <ele>34.676012</ele>
        <time>2021-09-05T10:10:55.000Z</time>
      </trkpt>
      <trkpt lat="49.40067" lon="-1.53873">
        <ele>34.539013</ele>
        <time>2021-09-05T10:10:56.000Z</time>
      </trkpt>
      <trkpt lat="49.4005" lon="-1.53899">
        <ele>34.153749</ele>
        <time>2021-09-05T10:10:59.000Z</time>
      </trkpt>
      <trkpt lat="49.40046" lon="-1.53906">
        <ele>34.056035</ele>
        <time>2021-09-05T10:11:00.000Z</time>
      </trkpt>
      <trkpt lat="49.40038" lon="-1.53918">
        <ele>33.878091</ele>
        <time>2021-09-05T10:11:02.000Z</time>
      </trkpt>
      <trkpt lat="49.40034" lon="-1.53917">
        <ele>33.821211</ele>
        <time>2021-09-05T10:11:03.000Z</time>
      </trkpt>
      <trkpt lat="49.4003" lon="-1.53916">
        <ele>33.748005</ele>
        <time>2021-09-05T10:11:04.000Z</time>
      </trkpt>
      <trkpt lat="49.40014" lon="-1.53912">
        <ele>33.492922</ele>
        <time>2021-09-05T10:11:07.000Z</time>
      </trkpt>
      <trkpt lat="49.39981" lon="-1.53903">
        <ele>32.959762</ele>
        <time>2021-09-05T10:11:13.000Z</time>
      </trkpt>
      <trkpt lat="49.39945" lon="-1.53894">
        <ele>32.377799</ele>
        <time>2021-09-05T10:11:20.000Z</time>
      </trkpt>
      <trkpt lat="49.39917" lon="-1.53887">
        <ele>31.922586</ele>
        <time>2021-09-05T10:11:25.000Z</time>
      </trkpt>
      <trkpt lat="49.39912" lon="-1.53885">
        <ele>31.839546</ele>
        <time>2021-09-05T10:11:26.000Z</time>
      </trkpt>
      <trkpt lat="49.39885" lon="-1.53878">
        <ele>31.822546</ele>
        <time>2021-09-05T10:11:31.000Z</time>
      </trkpt>
      <trkpt lat="49.39879" lon="-1.53877">
        <ele>31.825907</ele>
        <time>2021-09-05T10:11:32.000Z</time>
      </trkpt>
      <trkpt lat="49.39849" lon="-1.53869">
        <ele>31.844253</ele>
        <time>2021-09-05T10:11:38.000Z</time>
      </trkpt>
      <trkpt lat="49.3984" lon="-1.53867">
        <ele>31.850183</ele>
        <time>2021-09-05T10:11:40.000Z</time>
      </trkpt>
      <trkpt lat="49.3983" lon="-1.53864">
        <ele>31.85618</ele>
        <time>2021-09-05T10:11:42.000Z</time>
      </trkpt>
      <trkpt lat="49.39805" lon="-1.53858">
        <ele>31.871039</ele>
        <time>2021-09-05T10:11:47.000Z</time>
      </trkpt>
      <trkpt lat="49.39785" lon="-1.53852">
        <ele>31.883514</ele>
        <time>2021-09-05T10:11:51.000Z</time>
      </trkpt>
      <trkpt lat="49.39749" lon="-1.53843">
        <ele>31.905591</ele>
        <time>2021-09-05T10:11:58.000Z</time>
      </trkpt>
      <trkpt lat="49.39735" lon="-1.53839">
        <ele>31.914394</ele>
        <time>2021-09-05T10:12:01.000Z</time>
      </trkpt>
      <trkpt lat="49.39724" lon="-1.53837">
        <ele>32.044521</ele>
        <time>2021-09-05T10:12:03.000Z</time>
      </trkpt>
      <trkpt lat="49.39704" lon="-1.53831">
        <ele>32.34504</ele>
        <time>2021-09-05T10:12:07.000Z</time>
      </trkpt>
      <trkpt lat="49.3969" lon="-1.53828">
        <ele>32.562679</ele>
        <time>2021-09-05T10:12:10.000Z</time>
      </trkpt>
      <trkpt lat="49.39685" lon="-1.53826">
        <ele>32.639685</ele>
        <time>2021-09-05T10:12:11.000Z</time>
      </trkpt>
      <trkpt lat="49.39675" lon="-1.53824">
        <ele>32.783255</ele>
        <time>2021-09-05T10:12:13.000Z</time>
      </trkpt>
      <trkpt lat="49.39666" lon="-1.53821">
        <ele>32.926664</ele>
        <time>2021-09-05T10:12:15.000Z</time>
      </trkpt>
      <trkpt lat="49.39661" lon="-1.5382">
        <ele>33.002201</ele>
        <time>2021-09-05T10:12:16.000Z</time>
      </trkpt>
      <trkpt lat="49.39645" lon="-1.53816">
        <ele>33.245454</ele>
        <time>2021-09-05T10:12:19.000Z</time>
      </trkpt>
      <trkpt lat="49.39639" lon="-1.53815">
        <ele>33.327027</ele>
        <time>2021-09-05T10:12:20.000Z</time>
      </trkpt>
      <trkpt lat="49.39623" lon="-1.5381">
        <ele>33.57338</ele>
        <time>2021-09-05T10:12:23.000Z</time>
      </trkpt>
      <trkpt lat="49.39618" lon="-1.53809">
        <ele>33.654954</ele>
        <time>2021-09-05T10:12:24.000Z</time>
      </trkpt>
      <trkpt lat="49.39612" lon="-1.53807">
        <ele>33.741095</ele>
        <time>2021-09-05T10:12:25.000Z</time>
      </trkpt>
      <trkpt lat="49.39599" lon="-1.53804">
        <ele>33.931328</ele>
        <time>2021-09-05T10:12:27.000Z</time>
      </trkpt>
      <trkpt lat="49.39588" lon="-1.53801">
        <ele>34.100512</ele>
        <time>2021-09-05T10:12:29.000Z</time>
      </trkpt>
      <trkpt lat="49.39582" lon="-1.538">
        <ele>34.192532</ele>
        <time>2021-09-05T10:12:31.000Z</time>
      </trkpt>
      <trkpt lat="49.3958" lon="-1.53799">
        <ele>34.218314</ele>
        <time>2021-09-05T10:12:32.000Z</time>
      </trkpt>
      <trkpt lat="49.39579" lon="-1.53799">
        <ele>34.242461</ele>
        <time>2021-09-05T10:12:33.000Z</time>
      </trkpt>
      <trkpt lat="49.39574" lon="-1.53798">
        <ele>34.316371</ele>
        <time>2021-09-05T10:12:35.000Z</time>
      </trkpt>
      <trkpt lat="49.39561" lon="-1.53794">
        <ele>34.506764</ele>
        <time>2021-09-05T10:12:39.000Z</time>
      </trkpt>
      <trkpt lat="49.39543" lon="-1.5379">
        <ele>34.643838</ele>
        <time>2021-09-05T10:12:44.000Z</time>
      </trkpt>
      <trkpt lat="49.39537" lon="-1.53789">
        <ele>34.666949</ele>
        <time>2021-09-05T10:12:46.000Z</time>
      </trkpt>
      <trkpt lat="49.39535" lon="-1.53789">
        <ele>34.676354</ele>
        <time>2021-09-05T10:12:47.000Z</time>
      </trkpt>
      <trkpt lat="49.39531" lon="-1.53788">
        <ele>34.690478</ele>
        <time>2021-09-05T10:12:48.000Z</time>
      </trkpt>
      <trkpt lat="49.39517" lon="-1.53785">
        <ele>34.744146</ele>
        <time>2021-09-05T10:12:51.000Z</time>
      </trkpt>
      <trkpt lat="49.39483" lon="-1.53778">
        <ele>34.878959</ele>
        <time>2021-09-05T10:12:58.000Z</time>
      </trkpt>
      <trkpt lat="49.39444" lon="-1.5377">
        <ele>35.029787</ele>
        <time>2021-09-05T10:13:05.000Z</time>
      </trkpt>
      <trkpt lat="49.3941" lon="-1.53763">
        <ele>35.165824</ele>
        <time>2021-09-05T10:13:11.000Z</time>
      </trkpt>
      <trkpt lat="49.39393" lon="-1.53758">
        <ele>35.230386</ele>
        <time>2021-09-05T10:13:14.000Z</time>
      </trkpt>
      <trkpt lat="49.39382" lon="-1.53756">
        <ele>35.273683</ele>
        <time>2021-09-05T10:13:16.000Z</time>
      </trkpt>
      <trkpt lat="49.39377" lon="-1.53754">
        <ele>35.297287</ele>
        <time>2021-09-05T10:13:17.000Z</time>
      </trkpt>
      <trkpt lat="49.39366" lon="-1.53752">
        <ele>35.391292</ele>
        <time>2021-09-05T10:13:19.000Z</time>
      </trkpt>
      <trkpt lat="49.39361" lon="-1.5375">
        <ele>35.433547</ele>
        <time>2021-09-05T10:13:20.000Z</time>
      </trkpt>
      <trkpt lat="49.3935" lon="-1.53747">
        <ele>35.530211</ele>
        <time>2021-09-05T10:13:22.000Z</time>
      </trkpt>
      <trkpt lat="49.39345" lon="-1.53746">
        <ele>35.576834</ele>
        <time>2021-09-05T10:13:23.000Z</time>
      </trkpt>
      <trkpt lat="49.39339" lon="-1.53745">
        <ele>35.628679</ele>
        <time>2021-09-05T10:13:24.000Z</time>
      </trkpt>
      <trkpt lat="49.39321" lon="-1.5374">
        <ele>35.78507</ele>
        <time>2021-09-05T10:13:27.000Z</time>
      </trkpt>
      <trkpt lat="49.39289" lon="-1.53732">
        <ele>36.068983</ele>
        <time>2021-09-05T10:13:32.000Z</time>
      </trkpt>
      <trkpt lat="49.39246" lon="-1.53721">
        <ele>36.446902</ele>
        <time>2021-09-05T10:13:38.000Z</time>
      </trkpt>
      <trkpt lat="49.39203" lon="-1.5371">
        <ele>36.825676</ele>
        <time>2021-09-05T10:13:44.000Z</time>
      </trkpt>
      <trkpt lat="49.39161" lon="-1.53699">
        <ele>37.10464</ele>
        <time>2021-09-05T10:13:50.000Z</time>
      </trkpt>
      <trkpt lat="49.39123" lon="-1.53689">
        <ele>37.351913</ele>
        <time>2021-09-05T10:13:56.000Z</time>
      </trkpt>
      <trkpt lat="49.39117" lon="-1.53688">
        <ele>37.391739</ele>
        <time>2021-09-05T10:13:57.000Z</time>
      </trkpt>
      <trkpt lat="49.39098" lon="-1.53683">
        <ele>37.519605</ele>
        <time>2021-09-05T10:14:00.000Z</time>
      </trkpt>
      <trkpt lat="49.39076" lon="-1.53677">
        <ele>37.661216</ele>
        <time>2021-09-05T10:14:03.000Z</time>
      </trkpt>
      <trkpt lat="49.39061" lon="-1.53673">
        <ele>37.761028</ele>
        <time>2021-09-05T10:14:05.000Z</time>
      </trkpt>
      <trkpt lat="49.39017" lon="-1.53662">
        <ele>37.967862</ele>
        <time>2021-09-05T10:14:11.000Z</time>
      </trkpt>
      <trkpt lat="49.38966" lon="-1.53645">
        <ele>37.596103</ele>
        <time>2021-09-05T10:14:18.000Z</time>
      </trkpt>
      <trkpt lat="49.38932" lon="-1.53634">
        <ele>37.349752</ele>
        <time>2021-09-05T10:14:23.000Z</time>
      </trkpt>
      <trkpt lat="49.38906" lon="-1.53625">
        <ele>37.166499</ele>
        <time>2021-09-05T10:14:27.000Z</time>
      </trkpt>
      <trkpt lat="49.38901" lon="-1.53623">
        <ele>37.124301</ele>
        <time>2021-09-05T10:14:28.000Z</time>
      </trkpt>
      <trkpt lat="49.38867" lon="-1.53612">
        <ele>36.880822</ele>
        <time>2021-09-05T10:14:33.000Z</time>
      </trkpt>
      <trkpt lat="49.3886" lon="-1.53609">
        <ele>36.829656</ele>
        <time>2021-09-05T10:14:34.000Z</time>
      </trkpt>
      <trkpt lat="49.38816" lon="-1.53587">
        <ele>36.409742</ele>
        <time>2021-09-05T10:14:41.000Z</time>
      </trkpt>
      <trkpt lat="49.38786" lon="-1.53578">
        <ele>36.107792</ele>
        <time>2021-09-05T10:14:46.000Z</time>
      </trkpt>
      <trkpt lat="49.38775" lon="-1.53583">
        <ele>36.001473</ele>
        <time>2021-09-05T10:14:48.000Z</time>
      </trkpt>
      <trkpt lat="49.38766" lon="-1.5359">
        <ele>35.895257</ele>
        <time>2021-09-05T10:14:50.000Z</time>
      </trkpt>
      <trkpt lat="49.3876" lon="-1.53591">
        <ele>35.840202</ele>
        <time>2021-09-05T10:14:51.000Z</time>
      </trkpt>
      <trkpt lat="49.38753" lon="-1.5359">
        <ele>35.767526</ele>
        <time>2021-09-05T10:14:53.000Z</time>
      </trkpt>
      <trkpt lat="49.38739" lon="-1.53589">
        <ele>35.629972</ele>
        <time>2021-09-05T10:14:58.000Z</time>
      </trkpt>
      <trkpt lat="49.38726" lon="-1.53588">
        <ele>35.502316</ele>
        <time>2021-09-05T10:15:04.000Z</time>
      </trkpt>
      <trkpt lat="49.38712" lon="-1.53588">
        <ele>35.366961</ele>
        <time>2021-09-05T10:15:11.000Z</time>
      </trkpt>
      <trkpt lat="49.38693" lon="-1.53588">
        <ele>35.181583</ele>
        <time>2021-09-05T10:15:18.000Z</time>
      </trkpt>
      <trkpt lat="49.38677" lon="-1.53589">
        <ele>35.022683</ele>
        <time>2021-09-05T10:15:25.000Z</time>
      </trkpt>
      <trkpt lat="49.38663" lon="-1.5359">
        <ele>35.330589</ele>
        <time>2021-09-05T10:15:31.000Z</time>
      </trkpt>
      <trkpt lat="49.38647" lon="-1.53592">
        <ele>36.058401</ele>
        <time>2021-09-05T10:15:36.000Z</time>
      </trkpt>
      <trkpt lat="49.38627" lon="-1.53594">
        <ele>36.956742</ele>
        <time>2021-09-05T10:15:41.000Z</time>
      </trkpt>
      <trkpt lat="49.38623" lon="-1.53595">
        <ele>37.125661</ele>
        <time>2021-09-05T10:15:42.000Z</time>
      </trkpt>
      <trkpt lat="49.38609" lon="-1.5361">
        <ele>37.900615</ele>
        <time>2021-09-05T10:15:47.000Z</time>
      </trkpt>
      <trkpt lat="49.38593" lon="-1.53615">
        <ele>38.641829</ele>
        <time>2021-09-05T10:15:52.000Z</time>
      </trkpt>
      <trkpt lat="49.38563" lon="-1.53624">
        <ele>39.981116</ele>
        <time>2021-09-05T10:16:00.000Z</time>
      </trkpt>
      <trkpt lat="49.38546" lon="-1.5363">
        <ele>40.785567</ele>
        <time>2021-09-05T10:16:07.000Z</time>
      </trkpt>
      <trkpt lat="49.38546" lon="-1.5363">
        <ele>40.794532</ele>
        <time>2021-09-05T10:16:10.000Z</time>
      </trkpt>
      <trkpt lat="49.38546" lon="-1.5363">
        <ele>40.794532</ele>
        <time>2021-09-05T10:16:15.000Z</time>
      </trkpt>
      <trkpt lat="49.38546" lon="-1.5363">
        <ele>40.794532</ele>
        <time>2021-09-05T10:16:43.000Z</time>
      </trkpt>
      <trkpt lat="49.38589" lon="-1.53616">
        <ele>42.778717</ele>
        <time>2021-09-05T10:33:42.000Z</time>
      </trkpt>
      <trkpt lat="49.38605" lon="-1.53617">
        <ele>42.894408</ele>
        <time>2021-09-05T10:33:47.000Z</time>
      </trkpt>
      <trkpt lat="49.38603" lon="-1.53626">
        <ele>42.80633</ele>
        <time>2021-09-05T10:33:51.000Z</time>
      </trkpt>
      <trkpt lat="49.386" lon="-1.53649">
        <ele>42.582168</ele>
        <time>2021-09-05T10:33:56.000Z</time>
      </trkpt>
      <trkpt lat="49.38594" lon="-1.53671">
        <ele>42.358268</ele>
        <time>2021-09-05T10:34:02.000Z</time>
      </trkpt>
      <trkpt lat="49.3859" lon="-1.53676">
        <ele>42.277056</ele>
        <time>2021-09-05T10:34:03.000Z</time>
      </trkpt>
      <trkpt lat="49.38567" lon="-1.53684">
        <ele>41.948259</ele>
        <time>2021-09-05T10:34:09.000Z</time>
      </trkpt>
      <trkpt lat="49.38549" lon="-1.53689">
        <ele>41.681475</ele>
        <time>2021-09-05T10:34:13.000Z</time>
      </trkpt>
      <trkpt lat="49.38544" lon="-1.5369">
        <ele>41.608185</ele>
        <time>2021-09-05T10:34:15.000Z</time>
      </trkpt>
      <trkpt lat="49.3853" lon="-1.53692">
        <ele>41.409734</ele>
        <time>2021-09-05T10:34:17.000Z</time>
      </trkpt>
      <trkpt lat="49.38526" lon="-1.53691">
        <ele>41.34987</ele>
        <time>2021-09-05T10:34:18.000Z</time>
      </trkpt>
      <trkpt lat="49.38526" lon="-1.53691">
        <ele>41.34987</ele>
        <time>2021-09-05T10:34:19.000Z</time>
      </trkpt>
      <trkpt lat="49.38519" lon="-1.53678">
        <ele>41.189643</ele>
        <time>2021-09-05T10:34:21.000Z</time>
      </trkpt>
      <trkpt lat="49.38519" lon="-1.53662">
        <ele>41.034645</ele>
        <time>2021-09-05T10:34:25.000Z</time>
      </trkpt>
      <trkpt lat="49.38516" lon="-1.53659">
        <ele>40.98181</ele>
        <time>2021-09-05T10:34:26.000Z</time>
      </trkpt>
      <trkpt lat="49.38512" lon="-1.53654">
        <ele>40.917668</ele>
        <time>2021-09-05T10:34:29.000Z</time>
      </trkpt>
      <trkpt lat="49.3851" lon="-1.53643">
        <ele>40.810817</ele>
        <time>2021-09-05T10:34:31.000Z</time>
      </trkpt>
      <trkpt lat="49.38508" lon="-1.53635">
        <ele>40.732637</ele>
        <time>2021-09-05T10:34:33.000Z</time>
      </trkpt>
      <trkpt lat="49.38507" lon="-1.53632">
        <ele>40.694809</ele>
        <time>2021-09-05T10:34:34.000Z</time>
      </trkpt>
      <trkpt lat="49.38496" lon="-1.53637">
        <ele>40.532397</ele>
        <time>2021-09-05T10:34:37.000Z</time>
      </trkpt>
      <trkpt lat="49.38463" lon="-1.53654">
        <ele>39.271683</ele>
        <time>2021-09-05T10:34:44.000Z</time>
      </trkpt>
      <trkpt lat="49.38431" lon="-1.53671">
        <ele>37.885775</ele>
        <time>2021-09-05T10:34:51.000Z</time>
      </trkpt>
      <trkpt lat="49.38401" lon="-1.53686">
        <ele>36.578342</ele>
        <time>2021-09-05T10:34:57.000Z</time>
      </trkpt>
      <trkpt lat="49.38383" lon="-1.53686">
        <ele>35.832069</ele>
        <time>2021-09-05T10:35:02.000Z</time>
      </trkpt>
      <trkpt lat="49.38376" lon="-1.53682">
        <ele>35.515553</ele>
        <time>2021-09-05T10:35:04.000Z</time>
      </trkpt>
      <trkpt lat="49.38369" lon="-1.53682">
        <ele>35.208179</ele>
        <time>2021-09-05T10:35:06.000Z</time>
      </trkpt>
      <trkpt lat="49.38365" lon="-1.53684">
        <ele>35.040887</ele>
        <time>2021-09-05T10:35:07.000Z</time>
      </trkpt>
      <trkpt lat="49.38357" lon="-1.53691">
        <ele>34.657065</ele>
        <time>2021-09-05T10:35:09.000Z</time>
      </trkpt>
      <trkpt lat="49.38353" lon="-1.53694">
        <ele>34.462697</ele>
        <time>2021-09-05T10:35:10.000Z</time>
      </trkpt>
      <trkpt lat="49.38347" lon="-1.53699">
        <ele>34.175165</ele>
        <time>2021-09-05T10:35:12.000Z</time>
      </trkpt>
      <trkpt lat="49.38346" lon="-1.53704">
        <ele>34.04666</ele>
        <time>2021-09-05T10:35:13.000Z</time>
      </trkpt>
      <trkpt lat="49.38341" lon="-1.53731">
        <ele>33.294448</ele>
        <time>2021-09-05T10:35:19.000Z</time>
      </trkpt>
      <trkpt lat="49.38332" lon="-1.53737">
        <ele>32.932113</ele>
        <time>2021-09-05T10:35:22.000Z</time>
      </trkpt>
      <trkpt lat="49.38314" lon="-1.53748">
        <ele>32.61823</ele>
        <time>2021-09-05T10:35:27.000Z</time>
      </trkpt>
      <trkpt lat="49.38306" lon="-1.53753">
        <ele>32.480911</ele>
        <time>2021-09-05T10:35:30.000Z</time>
      </trkpt>
      <trkpt lat="49.3829" lon="-1.5377">
        <ele>32.172734</ele>
        <time>2021-09-05T10:35:33.000Z</time>
      </trkpt>
      <trkpt lat="49.38277" lon="-1.53782">
        <ele>31.929462</ele>
        <time>2021-09-05T10:35:36.000Z</time>
      </trkpt>
      <trkpt lat="49.3826" lon="-1.53798">
        <ele>31.602702</ele>
        <time>2021-09-05T10:35:40.000Z</time>
      </trkpt>
      <trkpt lat="49.38235" lon="-1.53821">
        <ele>31.123897</ele>
        <time>2021-09-05T10:35:46.000Z</time>
      </trkpt>
      <trkpt lat="49.38201" lon="-1.53859">
        <ele>30.438519</ele>
        <time>2021-09-05T10:35:55.000Z</time>
      </trkpt>
      <trkpt lat="49.38172" lon="-1.53895">
        <ele>30.172362</ele>
        <time>2021-09-05T10:36:03.000Z</time>
      </trkpt>
      <trkpt lat="49.38151" lon="-1.53928">
        <ele>30.416145</ele>
        <time>2021-09-05T10:36:10.000Z</time>
      </trkpt>
      <trkpt lat="49.38148" lon="-1.53933">
        <ele>30.454786</ele>
        <time>2021-09-05T10:36:11.000Z</time>
      </trkpt>
      <trkpt lat="49.38135" lon="-1.53957">
        <ele>30.617249</ele>
        <time>2021-09-05T10:36:15.000Z</time>
      </trkpt>
      <trkpt lat="49.38107" lon="-1.54015">
        <ele>31.006567</ele>
        <time>2021-09-05T10:36:24.000Z</time>
      </trkpt>
      <trkpt lat="49.38082" lon="-1.54071">
        <ele>31.365181</ele>
        <time>2021-09-05T10:36:32.000Z</time>
      </trkpt>
      <trkpt lat="49.38054" lon="-1.54131">
        <ele>32.257464</ele>
        <time>2021-09-05T10:36:41.000Z</time>
      </trkpt>
      <trkpt lat="49.38042" lon="-1.54157">
        <ele>32.785799</ele>
        <time>2021-09-05T10:36:45.000Z</time>
      </trkpt>
      <trkpt lat="49.38036" lon="-1.5417">
        <ele>33.045017</ele>
        <time>2021-09-05T10:36:47.000Z</time>
      </trkpt>
      <trkpt lat="49.3803" lon="-1.54182">
        <ele>33.298659</ele>
        <time>2021-09-05T10:36:49.000Z</time>
      </trkpt>
      <trkpt lat="49.38022" lon="-1.54201">
        <ele>33.685438</ele>
        <time>2021-09-05T10:36:53.000Z</time>
      </trkpt>
      <trkpt lat="49.37999" lon="-1.54252">
        <ele>34.719377</ele>
        <time>2021-09-05T10:37:00.000Z</time>
      </trkpt>
      <trkpt lat="49.37984" lon="-1.54283">
        <ele>35.351272</ele>
        <time>2021-09-05T10:37:06.000Z</time>
      </trkpt>
      <trkpt lat="49.37976" lon="-1.54302">
        <ele>35.726696</ele>
        <time>2021-09-05T10:37:08.000Z</time>
      </trkpt>
      <trkpt lat="49.37974" lon="-1.54307">
        <ele>35.840158</ele>
        <time>2021-09-05T10:37:10.000Z</time>
      </trkpt>
      <trkpt lat="49.37952" lon="-1.54355">
        <ele>37.392158</ele>
        <time>2021-09-05T10:37:18.000Z</time>
      </trkpt>
      <trkpt lat="49.37931" lon="-1.54401">
        <ele>39.155562</ele>
        <time>2021-09-05T10:37:25.000Z</time>
      </trkpt>
      <trkpt lat="49.37918" lon="-1.5443">
        <ele>40.264024</ele>
        <time>2021-09-05T10:37:30.000Z</time>
      </trkpt>
      <trkpt lat="49.37918" lon="-1.5443">
        <ele>40.264024</ele>
        <time>2021-09-05T10:37:31.000Z</time>
      </trkpt>
      <trkpt lat="49.37907" lon="-1.54455">
        <ele>41.189027</ele>
        <time>2021-09-05T10:37:34.000Z</time>
      </trkpt>
      <trkpt lat="49.37904" lon="-1.54461">
        <ele>41.409112</ele>
        <time>2021-09-05T10:37:36.000Z</time>
      </trkpt>
      <trkpt lat="49.37899" lon="-1.54473">
        <ele>41.865026</ele>
        <time>2021-09-05T10:37:37.000Z</time>
      </trkpt>
      <trkpt lat="49.37882" lon="-1.54509">
        <ele>43.256386</ele>
        <time>2021-09-05T10:37:44.000Z</time>
      </trkpt>
      <trkpt lat="49.37874" lon="-1.54528">
        <ele>43.969182</ele>
        <time>2021-09-05T10:37:46.000Z</time>
      </trkpt>
      <trkpt lat="49.37869" lon="-1.54539">
        <ele>44.391041</ele>
        <time>2021-09-05T10:37:49.000Z</time>
      </trkpt>
      <trkpt lat="49.3786" lon="-1.54558">
        <ele>45.120346</ele>
        <time>2021-09-05T10:37:51.000Z</time>
      </trkpt>
      <trkpt lat="49.37852" lon="-1.54576">
        <ele>45.805885</ele>
        <time>2021-09-05T10:37:54.000Z</time>
      </trkpt>
      <trkpt lat="49.37834" lon="-1.54617">
        <ele>47.35163</ele>
        <time>2021-09-05T10:38:00.000Z</time>
      </trkpt>
      <trkpt lat="49.3782" lon="-1.54646">
        <ele>48.462505</ele>
        <time>2021-09-05T10:38:04.000Z</time>
      </trkpt>
      <trkpt lat="49.37817" lon="-1.54653">
        <ele>48.733714</ele>
        <time>2021-09-05T10:38:06.000Z</time>
      </trkpt>
      <trkpt lat="49.37795" lon="-1.547">
        <ele>50.533359</ele>
        <time>2021-09-05T10:38:12.000Z</time>
      </trkpt>
      <trkpt lat="49.37792" lon="-1.54707">
        <ele>50.7889</ele>
        <time>2021-09-05T10:38:13.000Z</time>
      </trkpt>
      <trkpt lat="49.37778" lon="-1.54735">
        <ele>51.871215</ele>
        <time>2021-09-05T10:38:17.000Z</time>
      </trkpt>
      <trkpt lat="49.37763" lon="-1.54769">
        <ele>53.154227</ele>
        <time>2021-09-05T10:38:23.000Z</time>
      </trkpt>
      <trkpt lat="49.37737" lon="-1.54824">
        <ele>54.926754</ele>
        <time>2021-09-05T10:38:30.000Z</time>
      </trkpt>
      <trkpt lat="49.37716" lon="-1.5487">
        <ele>56.381866</ele>
        <time>2021-09-05T10:38:37.000Z</time>
      </trkpt>
      <trkpt lat="49.37698" lon="-1.54909">
        <ele>57.606996</ele>
        <time>2021-09-05T10:38:43.000Z</time>
      </trkpt>
      <trkpt lat="49.37685" lon="-1.54936">
        <ele>58.462571</ele>
        <time>2021-09-05T10:38:48.000Z</time>
      </trkpt>
      <trkpt lat="49.37669" lon="-1.54969">
        <ele>59.507094</ele>
        <time>2021-09-05T10:38:53.000Z</time>
      </trkpt>
      <trkpt lat="49.3766" lon="-1.5499">
        <ele>60.167058</ele>
        <time>2021-09-05T10:38:55.000Z</time>
      </trkpt>
      <trkpt lat="49.37656" lon="-1.54997">
        <ele>60.397045</ele>
        <time>2021-09-05T10:38:57.000Z</time>
      </trkpt>
      <trkpt lat="49.3765" lon="-1.55012">
        <ele>60.616508</ele>
        <time>2021-09-05T10:38:58.000Z</time>
      </trkpt>
      <trkpt lat="49.37631" lon="-1.55053">
        <ele>61.154178</ele>
        <time>2021-09-05T10:39:04.000Z</time>
      </trkpt>
      <trkpt lat="49.37628" lon="-1.55059">
        <ele>61.236005</ele>
        <time>2021-09-05T10:39:05.000Z</time>
      </trkpt>
      <trkpt lat="49.37608" lon="-1.55101">
        <ele>61.795287</ele>
        <time>2021-09-05T10:39:11.000Z</time>
      </trkpt>
      <trkpt lat="49.37586" lon="-1.55148">
        <ele>62.410257</ele>
        <time>2021-09-05T10:39:18.000Z</time>
      </trkpt>
      <trkpt lat="49.37569" lon="-1.55186">
        <ele>62.906539</ele>
        <time>2021-09-05T10:39:24.000Z</time>
      </trkpt>
      <trkpt lat="49.37563" lon="-1.55199">
        <ele>63.083557</ele>
        <time>2021-09-05T10:39:26.000Z</time>
      </trkpt>
      <trkpt lat="49.37559" lon="-1.55207">
        <ele>63.181515</ele>
        <time>2021-09-05T10:39:28.000Z</time>
      </trkpt>
      <trkpt lat="49.37537" lon="-1.55257">
        <ele>62.861117</ele>
        <time>2021-09-05T10:39:35.000Z</time>
      </trkpt>
      <trkpt lat="49.37526" lon="-1.55282">
        <ele>62.442884</ele>
        <time>2021-09-05T10:39:40.000Z</time>
      </trkpt>
      <trkpt lat="49.37523" lon="-1.55288">
        <ele>62.343875</ele>
        <time>2021-09-05T10:39:41.000Z</time>
      </trkpt>
      <trkpt lat="49.37508" lon="-1.55321">
        <ele>61.785847</ele>
        <time>2021-09-05T10:39:47.000Z</time>
      </trkpt>
      <trkpt lat="49.37506" lon="-1.55326">
        <ele>61.694985</ele>
        <time>2021-09-05T10:39:49.000Z</time>
      </trkpt>
      <trkpt lat="49.37498" lon="-1.55344">
        <ele>61.400254</ele>
        <time>2021-09-05T10:39:51.000Z</time>
      </trkpt>
      <trkpt lat="49.37484" lon="-1.55376">
        <ele>60.850369</ele>
        <time>2021-09-05T10:39:56.000Z</time>
      </trkpt>
      <trkpt lat="49.3748" lon="-1.55383">
        <ele>60.732717</ele>
        <time>2021-09-05T10:39:57.000Z</time>
      </trkpt>
      <trkpt lat="49.37477" lon="-1.5539">
        <ele>60.612711</ele>
        <time>2021-09-05T10:39:59.000Z</time>
      </trkpt>
      <trkpt lat="49.37464" lon="-1.55419">
        <ele>60.122255</ele>
        <time>2021-09-05T10:40:03.000Z</time>
      </trkpt>
      <trkpt lat="49.37438" lon="-1.55479">
        <ele>59.349796</ele>
        <time>2021-09-05T10:40:10.000Z</time>
      </trkpt>
      <trkpt lat="49.37414" lon="-1.55532">
        <ele>58.908647</ele>
        <time>2021-09-05T10:40:17.000Z</time>
      </trkpt>
      <trkpt lat="49.37394" lon="-1.55577">
        <ele>58.536513</ele>
        <time>2021-09-05T10:40:23.000Z</time>
      </trkpt>
      <trkpt lat="49.37377" lon="-1.55615">
        <ele>58.223761</ele>
        <time>2021-09-05T10:40:29.000Z</time>
      </trkpt>
      <trkpt lat="49.37366" lon="-1.55638">
        <ele>58.031908</ele>
        <time>2021-09-05T10:40:31.000Z</time>
      </trkpt>
      <trkpt lat="49.37355" lon="-1.55663">
        <ele>57.82749</ele>
        <time>2021-09-05T10:40:34.000Z</time>
      </trkpt>
      <trkpt lat="49.37344" lon="-1.55687">
        <ele>57.643327</ele>
        <time>2021-09-05T10:40:38.000Z</time>
      </trkpt>
      <trkpt lat="49.37332" lon="-1.55711">
        <ele>57.504103</ele>
        <time>2021-09-05T10:40:40.000Z</time>
      </trkpt>
      <trkpt lat="49.37303" lon="-1.55776">
        <ele>57.129681</ele>
        <time>2021-09-05T10:40:48.000Z</time>
      </trkpt>
      <trkpt lat="49.37285" lon="-1.55813">
        <ele>56.912711</ele>
        <time>2021-09-05T10:40:53.000Z</time>
      </trkpt>
      <trkpt lat="49.37267" lon="-1.55853">
        <ele>56.683823</ele>
        <time>2021-09-05T10:40:59.000Z</time>
      </trkpt>
      <trkpt lat="49.3725" lon="-1.5589">
        <ele>56.464083</ele>
        <time>2021-09-05T10:41:04.000Z</time>
      </trkpt>
      <trkpt lat="49.37223" lon="-1.55948">
        <ele>56.314078</ele>
        <time>2021-09-05T10:41:10.000Z</time>
      </trkpt>
      <trkpt lat="49.37204" lon="-1.5599">
        <ele>56.247617</ele>
        <time>2021-09-05T10:41:16.000Z</time>
      </trkpt>
      <trkpt lat="49.3717" lon="-1.56053">
        <ele>56.141886</ele>
        <time>2021-09-05T10:41:23.000Z</time>
      </trkpt>
      <trkpt lat="49.37147" lon="-1.5609">
        <ele>56.076597</ele>
        <time>2021-09-05T10:41:29.000Z</time>
      </trkpt>
      <trkpt lat="49.37124" lon="-1.56128">
        <ele>55.879363</ele>
        <time>2021-09-05T10:41:33.000Z</time>
      </trkpt>
      <trkpt lat="49.37088" lon="-1.56186">
        <ele>55.010613</ele>
        <time>2021-09-05T10:41:40.000Z</time>
      </trkpt>
      <trkpt lat="49.37078" lon="-1.56202">
        <ele>54.756249</ele>
        <time>2021-09-05T10:41:43.000Z</time>
      </trkpt>
      <trkpt lat="49.37063" lon="-1.56228">
        <ele>54.373369</ele>
        <time>2021-09-05T10:41:45.000Z</time>
      </trkpt>
      <trkpt lat="49.37035" lon="-1.56264">
        <ele>53.766126</ele>
        <time>2021-09-05T10:41:51.000Z</time>
      </trkpt>
      <trkpt lat="49.37019" lon="-1.56285">
        <ele>53.408942</ele>
        <time>2021-09-05T10:41:56.000Z</time>
      </trkpt>
      <trkpt lat="49.37007" lon="-1.56301">
        <ele>53.138201</ele>
        <time>2021-09-05T10:42:00.000Z</time>
      </trkpt>
      <trkpt lat="49.36982" lon="-1.56334">
        <ele>52.385404</ele>
        <time>2021-09-05T10:42:05.000Z</time>
      </trkpt>
      <trkpt lat="49.36951" lon="-1.56372">
        <ele>51.408607</ele>
        <time>2021-09-05T10:42:11.000Z</time>
      </trkpt>
      <trkpt lat="49.36924" lon="-1.56403">
        <ele>50.550392</ele>
        <time>2021-09-05T10:42:17.000Z</time>
      </trkpt>
      <trkpt lat="49.36896" lon="-1.56434">
        <ele>49.695141</ele>
        <time>2021-09-05T10:42:22.000Z</time>
      </trkpt>
      <trkpt lat="49.36857" lon="-1.56477">
        <ele>48.488181</ele>
        <time>2021-09-05T10:42:28.000Z</time>
      </trkpt>
      <trkpt lat="49.36808" lon="-1.56524">
        <ele>46.162593</ele>
        <time>2021-09-05T10:42:36.000Z</time>
      </trkpt>
      <trkpt lat="49.3678" lon="-1.56554">
        <ele>44.751241</ele>
        <time>2021-09-05T10:42:41.000Z</time>
      </trkpt>
      <trkpt lat="49.36751" lon="-1.56584">
        <ele>43.335035</ele>
        <time>2021-09-05T10:42:46.000Z</time>
      </trkpt>
      <trkpt lat="49.3674" lon="-1.56595">
        <ele>42.816691</ele>
        <time>2021-09-05T10:42:48.000Z</time>
      </trkpt>
      <trkpt lat="49.3673" lon="-1.56607">
        <ele>42.293495</ele>
        <time>2021-09-05T10:42:50.000Z</time>
      </trkpt>
      <trkpt lat="49.36708" lon="-1.56632">
        <ele>41.173308</ele>
        <time>2021-09-05T10:42:55.000Z</time>
      </trkpt>
      <trkpt lat="49.36697" lon="-1.56644">
        <ele>40.691544</ele>
        <time>2021-09-05T10:42:56.000Z</time>
      </trkpt>
      <trkpt lat="49.36681" lon="-1.56663">
        <ele>39.927764</ele>
        <time>2021-09-05T10:43:00.000Z</time>
      </trkpt>
      <trkpt lat="49.36637" lon="-1.56715">
        <ele>37.861167</ele>
        <time>2021-09-05T10:43:07.000Z</time>
      </trkpt>
      <trkpt lat="49.36625" lon="-1.5673">
        <ele>37.318859</ele>
        <time>2021-09-05T10:43:10.000Z</time>
      </trkpt>
      <trkpt lat="49.36604" lon="-1.56757">
        <ele>36.284292</ele>
        <time>2021-09-05T10:43:13.000Z</time>
      </trkpt>
      <trkpt lat="49.36573" lon="-1.56799">
        <ele>34.744833</ele>
        <time>2021-09-05T10:43:19.000Z</time>
      </trkpt>
      <trkpt lat="49.36548" lon="-1.56849">
        <ele>33.761819</ele>
        <time>2021-09-05T10:43:25.000Z</time>
      </trkpt>
      <trkpt lat="49.36544" lon="-1.56857">
        <ele>33.617232</ele>
        <time>2021-09-05T10:43:26.000Z</time>
      </trkpt>
      <trkpt lat="49.36538" lon="-1.56875">
        <ele>33.324618</ele>
        <time>2021-09-05T10:43:28.000Z</time>
      </trkpt>
      <trkpt lat="49.36534" lon="-1.56884">
        <ele>33.172602</ele>
        <time>2021-09-05T10:43:29.000Z</time>
      </trkpt>
      <trkpt lat="49.36516" lon="-1.56935">
        <ele>32.336616</ele>
        <time>2021-09-05T10:43:34.000Z</time>
      </trkpt>
      <trkpt lat="49.36506" lon="-1.56963">
        <ele>31.884344</ele>
        <time>2021-09-05T10:43:37.000Z</time>
      </trkpt>
      <trkpt lat="49.36504" lon="-1.5697">
        <ele>31.765959</ele>
        <time>2021-09-05T10:43:38.000Z</time>
      </trkpt>
      <trkpt lat="49.365" lon="-1.56976">
        <ele>31.645656</ele>
        <time>2021-09-05T10:43:40.000Z</time>
      </trkpt>
      <trkpt lat="49.36492" lon="-1.57001">
        <ele>31.244422</ele>
        <time>2021-09-05T10:43:43.000Z</time>
      </trkpt>
      <trkpt lat="49.3648" lon="-1.57052">
        <ele>30.565061</ele>
        <time>2021-09-05T10:43:51.000Z</time>
      </trkpt>
      <trkpt lat="49.36476" lon="-1.57082">
        <ele>30.527273</ele>
        <time>2021-09-05T10:43:57.000Z</time>
      </trkpt>
      <trkpt lat="49.36472" lon="-1.5711">
        <ele>30.491639</ele>
        <time>2021-09-05T10:44:01.000Z</time>
      </trkpt>
      <trkpt lat="49.36469" lon="-1.5713">
        <ele>30.4665</ele>
        <time>2021-09-05T10:44:04.000Z</time>
      </trkpt>
      <trkpt lat="49.36467" lon="-1.57145">
        <ele>30.447745</ele>
        <time>2021-09-05T10:44:06.000Z</time>
      </trkpt>
      <trkpt lat="49.36463" lon="-1.57179">
        <ele>30.405644</ele>
        <time>2021-09-05T10:44:10.000Z</time>
      </trkpt>
      <trkpt lat="49.36462" lon="-1.57187">
        <ele>30.39523</ele>
        <time>2021-09-05T10:44:12.000Z</time>
      </trkpt>
      <trkpt lat="49.36458" lon="-1.57213">
        <ele>30.363504</ele>
        <time>2021-09-05T10:44:14.000Z</time>
      </trkpt>
      <trkpt lat="49.36457" lon="-1.57222">
        <ele>30.352371</ele>
        <time>2021-09-05T10:44:16.000Z</time>
      </trkpt>
      <trkpt lat="49.36454" lon="-1.57258">
        <ele>30.307039</ele>
        <time>2021-09-05T10:44:20.000Z</time>
      </trkpt>
      <trkpt lat="49.36453" lon="-1.57277">
        <ele>30.284082</ele>
        <time>2021-09-05T10:44:21.000Z</time>
      </trkpt>
      <trkpt lat="49.36452" lon="-1.57287">
        <ele>30.272348</ele>
        <time>2021-09-05T10:44:22.000Z</time>
      </trkpt>
      <trkpt lat="49.36449" lon="-1.57327">
        <ele>30.216857</ele>
        <time>2021-09-05T10:44:26.000Z</time>
      </trkpt>
      <trkpt lat="49.36448" lon="-1.57337">
        <ele>30.199652</ele>
        <time>2021-09-05T10:44:28.000Z</time>
      </trkpt>
      <trkpt lat="49.36445" lon="-1.57377">
        <ele>30.12856</ele>
        <time>2021-09-05T10:44:31.000Z</time>
      </trkpt>
      <trkpt lat="49.3644" lon="-1.57429">
        <ele>30.036039</ele>
        <time>2021-09-05T10:44:36.000Z</time>
      </trkpt>
      <trkpt lat="49.36433" lon="-1.57481">
        <ele>29.942079</ele>
        <time>2021-09-05T10:44:42.000Z</time>
      </trkpt>
      <trkpt lat="49.36421" lon="-1.57548">
        <ele>29.820594</ele>
        <time>2021-09-05T10:44:48.000Z</time>
      </trkpt>
      <trkpt lat="49.36419" lon="-1.57557">
        <ele>29.802918</ele>
        <time>2021-09-05T10:44:49.000Z</time>
      </trkpt>
      <trkpt lat="49.36413" lon="-1.57596">
        <ele>29.705321</ele>
        <time>2021-09-05T10:44:53.000Z</time>
      </trkpt>
      <trkpt lat="49.36411" lon="-1.57605">
        <ele>29.65925</ele>
        <time>2021-09-05T10:44:54.000Z</time>
      </trkpt>
      <trkpt lat="49.36406" lon="-1.57634">
        <ele>29.515568</ele>
        <time>2021-09-05T10:44:57.000Z</time>
      </trkpt>
      <trkpt lat="49.36388" lon="-1.57692">
        <ele>29.206859</ele>
        <time>2021-09-05T10:45:03.000Z</time>
      </trkpt>
      <trkpt lat="49.36376" lon="-1.57731">
        <ele>28.999423</ele>
        <time>2021-09-05T10:45:07.000Z</time>
      </trkpt>
      <trkpt lat="49.36372" lon="-1.57741">
        <ele>28.946025</ele>
        <time>2021-09-05T10:45:08.000Z</time>
      </trkpt>
      <trkpt lat="49.36364" lon="-1.57759">
        <ele>28.84127</ele>
        <time>2021-09-05T10:45:10.000Z</time>
      </trkpt>
      <trkpt lat="49.36357" lon="-1.57776">
        <ele>28.746148</ele>
        <time>2021-09-05T10:45:12.000Z</time>
      </trkpt>
      <trkpt lat="49.36339" lon="-1.57818">
        <ele>28.503731</ele>
        <time>2021-09-05T10:45:17.000Z</time>
      </trkpt>
      <trkpt lat="49.36315" lon="-1.57877">
        <ele>28.127484</ele>
        <time>2021-09-05T10:45:24.000Z</time>
      </trkpt>
      <trkpt lat="49.36312" lon="-1.57884">
        <ele>28.075637</ele>
        <time>2021-09-05T10:45:26.000Z</time>
      </trkpt>
      <trkpt lat="49.36293" lon="-1.57921">
        <ele>27.813121</ele>
        <time>2021-09-05T10:45:30.000Z</time>
      </trkpt>
      <trkpt lat="49.36258" lon="-1.57981">
        <ele>27.360935</ele>
        <time>2021-09-05T10:45:38.000Z</time>
      </trkpt>
      <trkpt lat="49.36242" lon="-1.58002">
        <ele>27.178265</ele>
        <time>2021-09-05T10:45:41.000Z</time>
      </trkpt>
      <trkpt lat="49.3623" lon="-1.58011">
        <ele>27.064232</ele>
        <time>2021-09-05T10:45:43.000Z</time>
      </trkpt>
      <trkpt lat="49.36208" lon="-1.58035">
        <ele>26.792138</ele>
        <time>2021-09-05T10:45:48.000Z</time>
      </trkpt>
      <trkpt lat="49.36194" lon="-1.58051">
        <ele>26.497626</ele>
        <time>2021-09-05T10:45:50.000Z</time>
      </trkpt>
      <trkpt lat="49.36194" lon="-1.58051">
        <ele>26.497626</ele>
        <time>2021-09-05T10:45:51.000Z</time>
      </trkpt>
      <trkpt lat="49.3619" lon="-1.58056">
        <ele>26.413288</ele>
        <time>2021-09-05T10:45:52.000Z</time>
      </trkpt>
      <trkpt lat="49.36178" lon="-1.58081">
        <ele>26.08678</ele>
        <time>2021-09-05T10:45:55.000Z</time>
      </trkpt>
      <trkpt lat="49.36178" lon="-1.58081">
        <ele>26.08678</ele>
        <time>2021-09-05T10:45:56.000Z</time>
      </trkpt>
      <trkpt lat="49.36162" lon="-1.58104">
        <ele>25.71837</ele>
        <time>2021-09-05T10:46:00.000Z</time>
      </trkpt>
      <trkpt lat="49.36143" lon="-1.58125">
        <ele>25.334967</ele>
        <time>2021-09-05T10:46:03.000Z</time>
      </trkpt>
      <trkpt lat="49.36139" lon="-1.5813">
        <ele>25.237251</ele>
        <time>2021-09-05T10:46:05.000Z</time>
      </trkpt>
      <trkpt lat="49.36096" lon="-1.58169">
        <ele>24.419498</ele>
        <time>2021-09-05T10:46:12.000Z</time>
      </trkpt>
      <trkpt lat="49.36047" lon="-1.58206">
        <ele>23.370764</ele>
        <time>2021-09-05T10:46:21.000Z</time>
      </trkpt>
      <trkpt lat="49.3601" lon="-1.58231">
        <ele>22.482</ele>
        <time>2021-09-05T10:46:28.000Z</time>
      </trkpt>
      <trkpt lat="49.36" lon="-1.58238">
        <ele>22.221183</ele>
        <time>2021-09-05T10:46:30.000Z</time>
      </trkpt>
      <trkpt lat="49.35989" lon="-1.58245">
        <ele>21.953065</ele>
        <time>2021-09-05T10:46:32.000Z</time>
      </trkpt>
      <trkpt lat="49.3596" lon="-1.58262">
        <ele>21.278242</ele>
        <time>2021-09-05T10:46:38.000Z</time>
      </trkpt>
      <trkpt lat="49.35916" lon="-1.58288">
        <ele>20.221492</ele>
        <time>2021-09-05T10:46:45.000Z</time>
      </trkpt>
      <trkpt lat="49.35894" lon="-1.58301">
        <ele>19.67714</ele>
        <time>2021-09-05T10:46:49.000Z</time>
      </trkpt>
      <trkpt lat="49.35866" lon="-1.58317">
        <ele>18.968112</ele>
        <time>2021-09-05T10:46:55.000Z</time>
      </trkpt>
      <trkpt lat="49.3584" lon="-1.58332">
        <ele>18.280468</ele>
        <time>2021-09-05T10:47:00.000Z</time>
      </trkpt>
      <trkpt lat="49.35823" lon="-1.58342">
        <ele>17.851904</ele>
        <time>2021-09-05T10:47:02.000Z</time>
      </trkpt>
      <trkpt lat="49.35806" lon="-1.58352">
        <ele>17.400805</ele>
        <time>2021-09-05T10:47:05.000Z</time>
      </trkpt>
      <trkpt lat="49.35772" lon="-1.58371">
        <ele>16.523346</ele>
        <time>2021-09-05T10:47:12.000Z</time>
      </trkpt>
      <trkpt lat="49.35766" lon="-1.58374">
        <ele>16.376907</ele>
        <time>2021-09-05T10:47:13.000Z</time>
      </trkpt>
      <trkpt lat="49.35743" lon="-1.58387">
        <ele>15.798486</ele>
        <time>2021-09-05T10:47:17.000Z</time>
      </trkpt>
      <trkpt lat="49.35699" lon="-1.58412">
        <ele>14.73066</ele>
        <time>2021-09-05T10:47:24.000Z</time>
      </trkpt>
      <trkpt lat="49.3565" lon="-1.5844">
        <ele>13.586061</ele>
        <time>2021-09-05T10:47:33.000Z</time>
      </trkpt>
      <trkpt lat="49.35625" lon="-1.58458">
        <ele>12.969871</ele>
        <time>2021-09-05T10:47:39.000Z</time>
      </trkpt>
      <trkpt lat="49.35596" lon="-1.58481">
        <ele>12.240652</ele>
        <time>2021-09-05T10:47:44.000Z</time>
      </trkpt>
      <trkpt lat="49.35567" lon="-1.58506">
        <ele>11.551473</ele>
        <time>2021-09-05T10:47:50.000Z</time>
      </trkpt>
      <trkpt lat="49.35546" lon="-1.58524">
        <ele>11.442233</ele>
        <time>2021-09-05T10:47:54.000Z</time>
      </trkpt>
      <trkpt lat="49.35541" lon="-1.58529">
        <ele>11.414341</ele>
        <time>2021-09-05T10:47:56.000Z</time>
      </trkpt>
      <trkpt lat="49.35519" lon="-1.58547">
        <ele>11.303611</ele>
        <time>2021-09-05T10:47:59.000Z</time>
      </trkpt>
      <trkpt lat="49.35505" lon="-1.5856">
        <ele>11.227325</ele>
        <time>2021-09-05T10:48:02.000Z</time>
      </trkpt>
      <trkpt lat="49.35497" lon="-1.58569">
        <ele>11.180021</ele>
        <time>2021-09-05T10:48:05.000Z</time>
      </trkpt>
      <trkpt lat="49.35483" lon="-1.58584">
        <ele>11.104672</ele>
        <time>2021-09-05T10:48:07.000Z</time>
      </trkpt>
      <trkpt lat="49.35469" lon="-1.58598">
        <ele>11.028397</ele>
        <time>2021-09-05T10:48:10.000Z</time>
      </trkpt>
      <trkpt lat="49.3546" lon="-1.58607">
        <ele>10.97591</ele>
        <time>2021-09-05T10:48:12.000Z</time>
      </trkpt>
      <trkpt lat="49.35437" lon="-1.5863">
        <ele>10.850827</ele>
        <time>2021-09-05T10:48:18.000Z</time>
      </trkpt>
      <trkpt lat="49.35418" lon="-1.58647">
        <ele>10.750963</ele>
        <time>2021-09-05T10:48:22.000Z</time>
      </trkpt>
      <trkpt lat="49.35404" lon="-1.58661">
        <ele>10.932015</ele>
        <time>2021-09-05T10:48:24.000Z</time>
      </trkpt>
      <trkpt lat="49.35376" lon="-1.58688">
        <ele>11.398153</ele>
        <time>2021-09-05T10:48:30.000Z</time>
      </trkpt>
      <trkpt lat="49.35348" lon="-1.58711">
        <ele>11.83324</ele>
        <time>2021-09-05T10:48:35.000Z</time>
      </trkpt>
      <trkpt lat="49.35334" lon="-1.58724">
        <ele>12.062515</ele>
        <time>2021-09-05T10:48:37.000Z</time>
      </trkpt>
      <trkpt lat="49.35329" lon="-1.58728">
        <ele>12.146943</ele>
        <time>2021-09-05T10:48:39.000Z</time>
      </trkpt>
      <trkpt lat="49.35313" lon="-1.58742">
        <ele>12.403108</ele>
        <time>2021-09-05T10:48:41.000Z</time>
      </trkpt>
      <trkpt lat="49.35303" lon="-1.5875">
        <ele>12.552494</ele>
        <time>2021-09-05T10:48:44.000Z</time>
      </trkpt>
      <trkpt lat="49.3526" lon="-1.58785">
        <ele>13.232296</ele>
        <time>2021-09-05T10:48:51.000Z</time>
      </trkpt>
      <trkpt lat="49.35235" lon="-1.58805">
        <ele>13.487132</ele>
        <time>2021-09-05T10:48:57.000Z</time>
      </trkpt>
      <trkpt lat="49.35199" lon="-1.58833">
        <ele>13.843677</ele>
        <time>2021-09-05T10:49:03.000Z</time>
      </trkpt>
      <trkpt lat="49.35167" lon="-1.58854">
        <ele>14.151109</ele>
        <time>2021-09-05T10:49:10.000Z</time>
      </trkpt>
      <trkpt lat="49.35124" lon="-1.5888">
        <ele>14.552188</ele>
        <time>2021-09-05T10:49:18.000Z</time>
      </trkpt>
      <trkpt lat="49.35091" lon="-1.589">
        <ele>14.81123</ele>
        <time>2021-09-05T10:49:24.000Z</time>
      </trkpt>
      <trkpt lat="49.35082" lon="-1.58905">
        <ele>14.77985</ele>
        <time>2021-09-05T10:49:27.000Z</time>
      </trkpt>
      <trkpt lat="49.3507" lon="-1.58912">
        <ele>14.735072</ele>
        <time>2021-09-05T10:49:29.000Z</time>
      </trkpt>
      <trkpt lat="49.35057" lon="-1.58919">
        <ele>14.689016</ele>
        <time>2021-09-05T10:49:32.000Z</time>
      </trkpt>
      <trkpt lat="49.35049" lon="-1.58923">
        <ele>14.660311</ele>
        <time>2021-09-05T10:49:34.000Z</time>
      </trkpt>
      <trkpt lat="49.35038" lon="-1.58929">
        <ele>14.619004</ele>
        <time>2021-09-05T10:49:37.000Z</time>
      </trkpt>
      <trkpt lat="49.35033" lon="-1.58932">
        <ele>14.601724</ele>
        <time>2021-09-05T10:49:38.000Z</time>
      </trkpt>
      <trkpt lat="49.35005" lon="-1.58946">
        <ele>14.501829</ele>
        <time>2021-09-05T10:49:43.000Z</time>
      </trkpt>
      <trkpt lat="49.34994" lon="-1.58952">
        <ele>14.460915</ele>
        <time>2021-09-05T10:49:45.000Z</time>
      </trkpt>
      <trkpt lat="49.34952" lon="-1.58972">
        <ele>14.313961</ele>
        <time>2021-09-05T10:49:53.000Z</time>
      </trkpt>
      <trkpt lat="49.34904" lon="-1.58994">
        <ele>14.03668</ele>
        <time>2021-09-05T10:50:01.000Z</time>
      </trkpt>
      <trkpt lat="49.34852" lon="-1.59016">
        <ele>13.572296</ele>
        <time>2021-09-05T10:50:09.000Z</time>
      </trkpt>
      <trkpt lat="49.34845" lon="-1.59017">
        <ele>13.519737</ele>
        <time>2021-09-05T10:50:10.000Z</time>
      </trkpt>
      <trkpt lat="49.34815" lon="-1.59025">
        <ele>13.259448</ele>
        <time>2021-09-05T10:50:15.000Z</time>
      </trkpt>
      <trkpt lat="49.34787" lon="-1.59032">
        <ele>13.017665</ele>
        <time>2021-09-05T10:50:20.000Z</time>
      </trkpt>
      <trkpt lat="49.3476" lon="-1.59039">
        <ele>12.782854</ele>
        <time>2021-09-05T10:50:25.000Z</time>
      </trkpt>
      <trkpt lat="49.3473" lon="-1.59047">
        <ele>12.395307</ele>
        <time>2021-09-05T10:50:31.000Z</time>
      </trkpt>
      <trkpt lat="49.34708" lon="-1.59051">
        <ele>12.044444</ele>
        <time>2021-09-05T10:50:36.000Z</time>
      </trkpt>
      <trkpt lat="49.34661" lon="-1.59059">
        <ele>11.326709</ele>
        <time>2021-09-05T10:50:43.000Z</time>
      </trkpt>
      <trkpt lat="49.34616" lon="-1.59066">
        <ele>10.616657</ele>
        <time>2021-09-05T10:50:51.000Z</time>
      </trkpt>
      <trkpt lat="49.34582" lon="-1.59072">
        <ele>10.08686</ele>
        <time>2021-09-05T10:50:57.000Z</time>
      </trkpt>
      <trkpt lat="49.34576" lon="-1.59072">
        <ele>10.004572</ele>
        <time>2021-09-05T10:50:58.000Z</time>
      </trkpt>
      <trkpt lat="49.34543" lon="-1.59078">
        <ele>9.563896</ele>
        <time>2021-09-05T10:51:04.000Z</time>
      </trkpt>
      <trkpt lat="49.34518" lon="-1.59082">
        <ele>9.259435</ele>
        <time>2021-09-05T10:51:10.000Z</time>
      </trkpt>
      <trkpt lat="49.34477" lon="-1.59088">
        <ele>8.736959</ele>
        <time>2021-09-05T10:51:17.000Z</time>
      </trkpt>
      <trkpt lat="49.34454" lon="-1.59092">
        <ele>8.459101</ele>
        <time>2021-09-05T10:51:21.000Z</time>
      </trkpt>
      <trkpt lat="49.34449" lon="-1.59092">
        <ele>8.392738</ele>
        <time>2021-09-05T10:51:22.000Z</time>
      </trkpt>
      <trkpt lat="49.34412" lon="-1.59098">
        <ele>7.928349</ele>
        <time>2021-09-05T10:51:29.000Z</time>
      </trkpt>
      <trkpt lat="49.3438" lon="-1.59102">
        <ele>7.675417</ele>
        <time>2021-09-05T10:51:35.000Z</time>
      </trkpt>
      <trkpt lat="49.34365" lon="-1.59105">
        <ele>7.685297</ele>
        <time>2021-09-05T10:51:38.000Z</time>
      </trkpt>
      <trkpt lat="49.34354" lon="-1.59106">
        <ele>7.6921</ele>
        <time>2021-09-05T10:51:41.000Z</time>
      </trkpt>
      <trkpt lat="49.34344" lon="-1.59108">
        <ele>7.698709</ele>
        <time>2021-09-05T10:51:42.000Z</time>
      </trkpt>
      <trkpt lat="49.34334" lon="-1.59109">
        <ele>7.705055</ele>
        <time>2021-09-05T10:51:44.000Z</time>
      </trkpt>
      <trkpt lat="49.34329" lon="-1.5911">
        <ele>7.708524</ele>
        <time>2021-09-05T10:51:46.000Z</time>
      </trkpt>
      <trkpt lat="49.34319" lon="-1.59111">
        <ele>7.715392</ele>
        <time>2021-09-05T10:51:47.000Z</time>
      </trkpt>
      <trkpt lat="49.34294" lon="-1.59115">
        <ele>7.731423</ele>
        <time>2021-09-05T10:51:52.000Z</time>
      </trkpt>
      <trkpt lat="49.34289" lon="-1.59116">
        <ele>7.735021</ele>
        <time>2021-09-05T10:51:53.000Z</time>
      </trkpt>
      <trkpt lat="49.3426" lon="-1.5912">
        <ele>7.753536</ele>
        <time>2021-09-05T10:51:58.000Z</time>
      </trkpt>
      <trkpt lat="49.34239" lon="-1.59123">
        <ele>7.767731</ele>
        <time>2021-09-05T10:52:02.000Z</time>
      </trkpt>
      <trkpt lat="49.34234" lon="-1.59124">
        <ele>7.771005</ele>
        <time>2021-09-05T10:52:04.000Z</time>
      </trkpt>
      <trkpt lat="49.34199" lon="-1.59129">
        <ele>7.832904</ele>
        <time>2021-09-05T10:52:10.000Z</time>
      </trkpt>
      <trkpt lat="49.34167" lon="-1.59133">
        <ele>7.946238</ele>
        <time>2021-09-05T10:52:17.000Z</time>
      </trkpt>
      <trkpt lat="49.34152" lon="-1.59136">
        <ele>7.997906</ele>
        <time>2021-09-05T10:52:19.000Z</time>
      </trkpt>
      <trkpt lat="49.34148" lon="-1.59136">
        <ele>8.014658</ele>
        <time>2021-09-05T10:52:21.000Z</time>
      </trkpt>
      <trkpt lat="49.34143" lon="-1.59137">
        <ele>8.030682</ele>
        <time>2021-09-05T10:52:22.000Z</time>
      </trkpt>
      <trkpt lat="49.34134" lon="-1.59138">
        <ele>8.062752</ele>
        <time>2021-09-05T10:52:23.000Z</time>
      </trkpt>
      <trkpt lat="49.34112" lon="-1.59143">
        <ele>8.144011</ele>
        <time>2021-09-05T10:52:28.000Z</time>
      </trkpt>
      <trkpt lat="49.34107" lon="-1.59144">
        <ele>8.160604</ele>
        <time>2021-09-05T10:52:29.000Z</time>
      </trkpt>
      <trkpt lat="49.34093" lon="-1.59148">
        <ele>8.21135</ele>
        <time>2021-09-05T10:52:32.000Z</time>
      </trkpt>
      <trkpt lat="49.34058" lon="-1.59153">
        <ele>8.335765</ele>
        <time>2021-09-05T10:52:39.000Z</time>
      </trkpt>
      <trkpt lat="49.34027" lon="-1.59158">
        <ele>8.392783</ele>
        <time>2021-09-05T10:52:45.000Z</time>
      </trkpt>
      <trkpt lat="49.34007" lon="-1.59161">
        <ele>8.289967</ele>
        <time>2021-09-05T10:52:49.000Z</time>
      </trkpt>
      <trkpt lat="49.34002" lon="-1.59161">
        <ele>8.264</ele>
        <time>2021-09-05T10:52:51.000Z</time>
      </trkpt>
      <trkpt lat="49.33974" lon="-1.59165">
        <ele>8.128756</ele>
        <time>2021-09-05T10:52:56.000Z</time>
      </trkpt>
      <trkpt lat="49.33954" lon="-1.59168">
        <ele>8.024951</ele>
        <time>2021-09-05T10:52:59.000Z</time>
      </trkpt>
      <trkpt lat="49.33944" lon="-1.5917">
        <ele>7.975552</ele>
        <time>2021-09-05T10:53:01.000Z</time>
      </trkpt>
      <trkpt lat="49.33916" lon="-1.59174">
        <ele>7.837804</ele>
        <time>2021-09-05T10:53:06.000Z</time>
      </trkpt>
      <trkpt lat="49.33886" lon="-1.59178">
        <ele>7.686579</ele>
        <time>2021-09-05T10:53:11.000Z</time>
      </trkpt>
      <trkpt lat="49.33879" lon="-1.59179">
        <ele>7.654151</ele>
        <time>2021-09-05T10:53:13.000Z</time>
      </trkpt>
      <trkpt lat="49.3386" lon="-1.59182">
        <ele>7.559805</ele>
        <time>2021-09-05T10:53:15.000Z</time>
      </trkpt>
      <trkpt lat="49.33828" lon="-1.59186">
        <ele>7.256757</ele>
        <time>2021-09-05T10:53:20.000Z</time>
      </trkpt>
      <trkpt lat="49.33796" lon="-1.59191">
        <ele>6.925628</ele>
        <time>2021-09-05T10:53:26.000Z</time>
      </trkpt>
      <trkpt lat="49.33757" lon="-1.59197">
        <ele>6.524491</ele>
        <time>2021-09-05T10:53:31.000Z</time>
      </trkpt>
      <trkpt lat="49.33724" lon="-1.59201">
        <ele>6.192342</ele>
        <time>2021-09-05T10:53:36.000Z</time>
      </trkpt>
      <trkpt lat="49.33718" lon="-1.59202">
        <ele>6.126537</ele>
        <time>2021-09-05T10:53:37.000Z</time>
      </trkpt>
      <trkpt lat="49.33687" lon="-1.59207">
        <ele>5.81178</ele>
        <time>2021-09-05T10:53:42.000Z</time>
      </trkpt>
      <trkpt lat="49.33664" lon="-1.5921">
        <ele>5.605697</ele>
        <time>2021-09-05T10:53:47.000Z</time>
      </trkpt>
      <trkpt lat="49.33645" lon="-1.59213">
        <ele>5.462405</ele>
        <time>2021-09-05T10:53:49.000Z</time>
      </trkpt>
      <trkpt lat="49.33633" lon="-1.59215">
        <ele>5.368642</ele>
        <time>2021-09-05T10:53:51.000Z</time>
      </trkpt>
      <trkpt lat="49.33587" lon="-1.59221">
        <ele>5.025837</ele>
        <time>2021-09-05T10:53:58.000Z</time>
      </trkpt>
      <trkpt lat="49.33548" lon="-1.59227">
        <ele>4.733437</ele>
        <time>2021-09-05T10:54:05.000Z</time>
      </trkpt>
      <trkpt lat="49.33523" lon="-1.59229">
        <ele>4.549316</ele>
        <time>2021-09-05T10:54:08.000Z</time>
      </trkpt>
      <trkpt lat="49.33507" lon="-1.59231">
        <ele>4.429539</ele>
        <time>2021-09-05T10:54:11.000Z</time>
      </trkpt>
      <trkpt lat="49.33503" lon="-1.59231">
        <ele>4.395099</ele>
        <time>2021-09-05T10:54:12.000Z</time>
      </trkpt>
      <trkpt lat="49.33493" lon="-1.59232">
        <ele>4.350859</ele>
        <time>2021-09-05T10:54:15.000Z</time>
      </trkpt>
      <trkpt lat="49.3348" lon="-1.59234">
        <ele>4.377908</ele>
        <time>2021-09-05T10:54:20.000Z</time>
      </trkpt>
      <trkpt lat="49.33467" lon="-1.59234">
        <ele>4.405962</ele>
        <time>2021-09-05T10:54:24.000Z</time>
      </trkpt>
      <trkpt lat="49.33463" lon="-1.59234">
        <ele>4.414749</ele>
        <time>2021-09-05T10:54:25.000Z</time>
      </trkpt>
      <trkpt lat="49.33458" lon="-1.59234">
        <ele>4.423746</ele>
        <time>2021-09-05T10:54:27.000Z</time>
      </trkpt>
      <trkpt lat="49.33444" lon="-1.59232">
        <ele>4.454011</ele>
        <time>2021-09-05T10:54:29.000Z</time>
      </trkpt>
      <trkpt lat="49.33419" lon="-1.59227">
        <ele>4.507367</ele>
        <time>2021-09-05T10:54:35.000Z</time>
      </trkpt>
      <trkpt lat="49.33371" lon="-1.59214">
        <ele>4.607449</ele>
        <time>2021-09-05T10:54:43.000Z</time>
      </trkpt>
      <trkpt lat="49.33327" lon="-1.59195">
        <ele>4.703827</ele>
        <time>2021-09-05T10:54:52.000Z</time>
      </trkpt>
      <trkpt lat="49.33317" lon="-1.59189">
        <ele>4.721936</ele>
        <time>2021-09-05T10:54:54.000Z</time>
      </trkpt>
      <trkpt lat="49.33309" lon="-1.59185">
        <ele>4.726593</ele>
        <time>2021-09-05T10:54:56.000Z</time>
      </trkpt>
      <trkpt lat="49.33278" lon="-1.59166">
        <ele>4.7428</ele>
        <time>2021-09-05T10:55:03.000Z</time>
      </trkpt>
      <trkpt lat="49.33274" lon="-1.59163">
        <ele>4.745052</ele>
        <time>2021-09-05T10:55:04.000Z</time>
      </trkpt>
      <trkpt lat="49.33256" lon="-1.59148">
        <ele>4.755444</ele>
        <time>2021-09-05T10:55:08.000Z</time>
      </trkpt>
      <trkpt lat="49.33251" lon="-1.59144">
        <ele>4.75805</ele>
        <time>2021-09-05T10:55:10.000Z</time>
      </trkpt>
      <trkpt lat="49.33235" lon="-1.59131">
        <ele>4.767162</ele>
        <time>2021-09-05T10:55:13.000Z</time>
      </trkpt>
      <trkpt lat="49.33217" lon="-1.59116">
        <ele>4.777289</ele>
        <time>2021-09-05T10:55:18.000Z</time>
      </trkpt>
      <trkpt lat="49.33201" lon="-1.59103">
        <ele>4.785944</ele>
        <time>2021-09-05T10:55:23.000Z</time>
      </trkpt>
      <trkpt lat="49.33182" lon="-1.59088">
        <ele>4.796821</ele>
        <time>2021-09-05T10:55:27.000Z</time>
      </trkpt>
      <trkpt lat="49.33164" lon="-1.59075">
        <ele>4.80652</ele>
        <time>2021-09-05T10:55:32.000Z</time>
      </trkpt>
      <trkpt lat="49.33147" lon="-1.59062">
        <ele>4.766326</ele>
        <time>2021-09-05T10:55:36.000Z</time>
      </trkpt>
      <trkpt lat="49.33135" lon="-1.59052">
        <ele>4.715448</ele>
        <time>2021-09-05T10:55:38.000Z</time>
      </trkpt>
      <trkpt lat="49.3312" lon="-1.59041">
        <ele>4.655126</ele>
        <time>2021-09-05T10:55:42.000Z</time>
      </trkpt>
      <trkpt lat="49.3312" lon="-1.59041">
        <ele>4.655126</ele>
        <time>2021-09-05T10:55:43.000Z</time>
      </trkpt>
      <trkpt lat="49.33109" lon="-1.59033">
        <ele>4.612727</ele>
        <time>2021-09-05T10:55:46.000Z</time>
      </trkpt>
      <trkpt lat="49.33094" lon="-1.59021">
        <ele>4.552405</ele>
        <time>2021-09-05T10:55:50.000Z</time>
      </trkpt>
      <trkpt lat="49.33054" lon="-1.5899">
        <ele>4.39022</ele>
        <time>2021-09-05T10:55:57.000Z</time>
      </trkpt>
      <trkpt lat="49.33028" lon="-1.5897">
        <ele>4.285889</ele>
        <time>2021-09-05T10:56:02.000Z</time>
      </trkpt>
      <trkpt lat="49.33003" lon="-1.58951">
        <ele>4.183494</ele>
        <time>2021-09-05T10:56:09.000Z</time>
      </trkpt>
      <trkpt lat="49.32989" lon="-1.58939">
        <ele>4.187701</ele>
        <time>2021-09-05T10:56:14.000Z</time>
      </trkpt>
      <trkpt lat="49.3298" lon="-1.58932">
        <ele>4.219931</ele>
        <time>2021-09-05T10:56:18.000Z</time>
      </trkpt>
      <trkpt lat="49.32969" lon="-1.58924">
        <ele>4.256416</ele>
        <time>2021-09-05T10:56:22.000Z</time>
      </trkpt>
      <trkpt lat="49.32957" lon="-1.58914">
        <ele>4.299156</ele>
        <time>2021-09-05T10:56:28.000Z</time>
      </trkpt>
      <trkpt lat="49.32947" lon="-1.58908">
        <ele>4.330842</ele>
        <time>2021-09-05T10:56:33.000Z</time>
      </trkpt>
      <trkpt lat="49.32939" lon="-1.58904">
        <ele>4.356904</ele>
        <time>2021-09-05T10:56:37.000Z</time>
      </trkpt>
      <trkpt lat="49.32924" lon="-1.58895">
        <ele>4.405182</ele>
        <time>2021-09-05T10:56:43.000Z</time>
      </trkpt>
      <trkpt lat="49.32905" lon="-1.58884">
        <ele>4.466205</ele>
        <time>2021-09-05T10:56:49.000Z</time>
      </trkpt>
      <trkpt lat="49.32888" lon="-1.58874">
        <ele>4.52196</ele>
        <time>2021-09-05T10:56:54.000Z</time>
      </trkpt>
      <trkpt lat="49.32875" lon="-1.58869">
        <ele>4.564195</ele>
        <time>2021-09-05T10:56:59.000Z</time>
      </trkpt>
      <trkpt lat="49.3286" lon="-1.58866">
        <ele>4.609335</ele>
        <time>2021-09-05T10:57:03.000Z</time>
      </trkpt>
      <trkpt lat="49.32844" lon="-1.58863">
        <ele>4.658508</ele>
        <time>2021-09-05T10:57:06.000Z</time>
      </trkpt>
      <trkpt lat="49.32827" lon="-1.5886">
        <ele>4.714317</ele>
        <time>2021-09-05T10:57:11.000Z</time>
      </trkpt>
      <trkpt lat="49.32808" lon="-1.58857">
        <ele>4.809546</ele>
        <time>2021-09-05T10:57:17.000Z</time>
      </trkpt>
      <trkpt lat="49.32785" lon="-1.58856">
        <ele>4.925092</ele>
        <time>2021-09-05T10:57:22.000Z</time>
      </trkpt>
      <trkpt lat="49.32763" lon="-1.58856">
        <ele>5.030678</ele>
        <time>2021-09-05T10:57:27.000Z</time>
      </trkpt>
      <trkpt lat="49.32737" lon="-1.58856">
        <ele>5.163156</ele>
        <time>2021-09-05T10:57:33.000Z</time>
      </trkpt>
      <trkpt lat="49.32714" lon="-1.58858">
        <ele>5.276523</ele>
        <time>2021-09-05T10:57:39.000Z</time>
      </trkpt>
      <trkpt lat="49.327" lon="-1.58862">
        <ele>5.348857</ele>
        <time>2021-09-05T10:57:43.000Z</time>
      </trkpt>
      <trkpt lat="49.32677" lon="-1.58868">
        <ele>5.464176</ele>
        <time>2021-09-05T10:57:48.000Z</time>
      </trkpt>
      <trkpt lat="49.32657" lon="-1.58874">
        <ele>5.564821</ele>
        <time>2021-09-05T10:57:53.000Z</time>
      </trkpt>
      <trkpt lat="49.32635" lon="-1.58884">
        <ele>6.040926</ele>
        <time>2021-09-05T10:57:58.000Z</time>
      </trkpt>
      <trkpt lat="49.32614" lon="-1.58895">
        <ele>6.666061</ele>
        <time>2021-09-05T10:58:03.000Z</time>
      </trkpt>
      <trkpt lat="49.32579" lon="-1.58913">
        <ele>7.705208</ele>
        <time>2021-09-05T10:58:10.000Z</time>
      </trkpt>
      <trkpt lat="49.32558" lon="-1.58924">
        <ele>8.312626</ele>
        <time>2021-09-05T10:58:14.000Z</time>
      </trkpt>
      <trkpt lat="49.32534" lon="-1.58936">
        <ele>9.032843</ele>
        <time>2021-09-05T10:58:19.000Z</time>
      </trkpt>
      <trkpt lat="49.32526" lon="-1.58941">
        <ele>9.265564</ele>
        <time>2021-09-05T10:58:22.000Z</time>
      </trkpt>
      <trkpt lat="49.32517" lon="-1.58945">
        <ele>9.524547</ele>
        <time>2021-09-05T10:58:23.000Z</time>
      </trkpt>
      <trkpt lat="49.32496" lon="-1.58957">
        <ele>10.156533</ele>
        <time>2021-09-05T10:58:28.000Z</time>
      </trkpt>
      <trkpt lat="49.32474" lon="-1.58969">
        <ele>10.862599</ele>
        <time>2021-09-05T10:58:33.000Z</time>
      </trkpt>
      <trkpt lat="49.32448" lon="-1.58979">
        <ele>11.770108</ele>
        <time>2021-09-05T10:58:39.000Z</time>
      </trkpt>
      <trkpt lat="49.32427" lon="-1.58985">
        <ele>12.518831</ele>
        <time>2021-09-05T10:58:44.000Z</time>
      </trkpt>
      <trkpt lat="49.32406" lon="-1.58987">
        <ele>13.244513</ele>
        <time>2021-09-05T10:58:50.000Z</time>
      </trkpt>
      <trkpt lat="49.32386" lon="-1.58988">
        <ele>13.91717</ele>
        <time>2021-09-05T10:58:53.000Z</time>
      </trkpt>
      <trkpt lat="49.32382" lon="-1.58988">
        <ele>14.051702</ele>
        <time>2021-09-05T10:58:54.000Z</time>
      </trkpt>
      <trkpt lat="49.3237" lon="-1.58989">
        <ele>14.469079</ele>
        <time>2021-09-05T10:58:57.000Z</time>
      </trkpt>
      <trkpt lat="49.32365" lon="-1.58989">
        <ele>14.641518</ele>
        <time>2021-09-05T10:58:58.000Z</time>
      </trkpt>
      <trkpt lat="49.32365" lon="-1.58989">
        <ele>14.641518</ele>
        <time>2021-09-05T10:58:59.000Z</time>
      </trkpt>
      <trkpt lat="49.32348" lon="-1.5899">
        <ele>15.252078</ele>
        <time>2021-09-05T10:59:02.000Z</time>
      </trkpt>
      <trkpt lat="49.32326" lon="-1.58988">
        <ele>16.0013</ele>
        <time>2021-09-05T10:59:07.000Z</time>
      </trkpt>
      <trkpt lat="49.32307" lon="-1.58985">
        <ele>16.651056</ele>
        <time>2021-09-05T10:59:12.000Z</time>
      </trkpt>
      <trkpt lat="49.32274" lon="-1.58978">
        <ele>17.255933</ele>
        <time>2021-09-05T10:59:18.000Z</time>
      </trkpt>
      <trkpt lat="49.32251" lon="-1.58968">
        <ele>17.593955</ele>
        <time>2021-09-05T10:59:23.000Z</time>
      </trkpt>
      <trkpt lat="49.32246" lon="-1.58966">
        <ele>17.664224</ele>
        <time>2021-09-05T10:59:24.000Z</time>
      </trkpt>
      <trkpt lat="49.32214" lon="-1.58948">
        <ele>18.154121</ele>
        <time>2021-09-05T10:59:31.000Z</time>
      </trkpt>
      <trkpt lat="49.32178" lon="-1.58926">
        <ele>18.715566</ele>
        <time>2021-09-05T10:59:39.000Z</time>
      </trkpt>
      <trkpt lat="49.32147" lon="-1.58901">
        <ele>19.210803</ele>
        <time>2021-09-05T10:59:47.000Z</time>
      </trkpt>
      <trkpt lat="49.3211" lon="-1.58871">
        <ele>19.737228</ele>
        <time>2021-09-05T10:59:56.000Z</time>
      </trkpt>
      <trkpt lat="49.32095" lon="-1.58859">
        <ele>19.933323</ele>
        <time>2021-09-05T10:59:59.000Z</time>
      </trkpt>
      <trkpt lat="49.32091" lon="-1.58856">
        <ele>19.981573</ele>
        <time>2021-09-05T11:00:01.000Z</time>
      </trkpt>
      <trkpt lat="49.32074" lon="-1.58842">
        <ele>20.206062</ele>
        <time>2021-09-05T11:00:06.000Z</time>
      </trkpt>
      <trkpt lat="49.32059" lon="-1.58828">
        <ele>20.413305</ele>
        <time>2021-09-05T11:00:10.000Z</time>
      </trkpt>
      <trkpt lat="49.32055" lon="-1.58825">
        <ele>20.4599</ele>
        <time>2021-09-05T11:00:12.000Z</time>
      </trkpt>
      <trkpt lat="49.32039" lon="-1.58811">
        <ele>20.673268</ele>
        <time>2021-09-05T11:00:17.000Z</time>
      </trkpt>
      <trkpt lat="49.32031" lon="-1.58805">
        <ele>20.773881</ele>
        <time>2021-09-05T11:00:18.000Z</time>
      </trkpt>
      <trkpt lat="49.32019" lon="-1.58795">
        <ele>20.931987</ele>
        <time>2021-09-05T11:00:22.000Z</time>
      </trkpt>
      <trkpt lat="49.32005" lon="-1.58783">
        <ele>21.114376</ele>
        <time>2021-09-05T11:00:25.000Z</time>
      </trkpt>
      <trkpt lat="49.31997" lon="-1.58777">
        <ele>21.221846</ele>
        <time>2021-09-05T11:00:27.000Z</time>
      </trkpt>
      <trkpt lat="49.31989" lon="-1.5877">
        <ele>21.325869</ele>
        <time>2021-09-05T11:00:29.000Z</time>
      </trkpt>
      <trkpt lat="49.31982" lon="-1.58765">
        <ele>21.413479</ele>
        <time>2021-09-05T11:00:31.000Z</time>
      </trkpt>
      <trkpt lat="49.31966" lon="-1.58751">
        <ele>21.507567</ele>
        <time>2021-09-05T11:00:36.000Z</time>
      </trkpt>
      <trkpt lat="49.31948" lon="-1.58737">
        <ele>21.508264</ele>
        <time>2021-09-05T11:00:41.000Z</time>
      </trkpt>
      <trkpt lat="49.31931" lon="-1.58723">
        <ele>21.508922</ele>
        <time>2021-09-05T11:00:46.000Z</time>
      </trkpt>
      <trkpt lat="49.31912" lon="-1.58707">
        <ele>21.509656</ele>
        <time>2021-09-05T11:00:51.000Z</time>
      </trkpt>
      <trkpt lat="49.31903" lon="-1.587">
        <ele>21.509978</ele>
        <time>2021-09-05T11:00:53.000Z</time>
      </trkpt>
      <trkpt lat="49.31895" lon="-1.58693">
        <ele>21.5103</ele>
        <time>2021-09-05T11:00:56.000Z</time>
      </trkpt>
      <trkpt lat="49.31873" lon="-1.58676">
        <ele>21.511118</ele>
        <time>2021-09-05T11:01:00.000Z</time>
      </trkpt>
      <trkpt lat="49.3184" lon="-1.58646">
        <ele>21.512434</ele>
        <time>2021-09-05T11:01:08.000Z</time>
      </trkpt>
      <trkpt lat="49.31824" lon="-1.58632">
        <ele>21.513056</ele>
        <time>2021-09-05T11:01:12.000Z</time>
      </trkpt>
      <trkpt lat="49.31801" lon="-1.58611">
        <ele>21.778491</ele>
        <time>2021-09-05T11:01:17.000Z</time>
      </trkpt>
      <trkpt lat="49.31795" lon="-1.58606">
        <ele>21.858451</ele>
        <time>2021-09-05T11:01:18.000Z</time>
      </trkpt>
      <trkpt lat="49.31757" lon="-1.58572">
        <ele>22.467063</ele>
        <time>2021-09-05T11:01:26.000Z</time>
      </trkpt>
      <trkpt lat="49.31728" lon="-1.58546">
        <ele>22.913424</ele>
        <time>2021-09-05T11:01:33.000Z</time>
      </trkpt>
      <trkpt lat="49.31692" lon="-1.58516">
        <ele>23.471955</ele>
        <time>2021-09-05T11:01:40.000Z</time>
      </trkpt>
      <trkpt lat="49.31684" lon="-1.58509">
        <ele>23.5899</ele>
        <time>2021-09-05T11:01:42.000Z</time>
      </trkpt>
      <trkpt lat="49.31673" lon="-1.585">
        <ele>23.762389</ele>
        <time>2021-09-05T11:01:45.000Z</time>
      </trkpt>
      <trkpt lat="49.31658" lon="-1.58488">
        <ele>23.979196</ele>
        <time>2021-09-05T11:01:50.000Z</time>
      </trkpt>
      <trkpt lat="49.31637" lon="-1.58471">
        <ele>24.268846</ele>
        <time>2021-09-05T11:01:55.000Z</time>
      </trkpt>
      <trkpt lat="49.31628" lon="-1.58464">
        <ele>24.380017</ele>
        <time>2021-09-05T11:01:56.000Z</time>
      </trkpt>
      <trkpt lat="49.316" lon="-1.58441">
        <ele>24.75533</ele>
        <time>2021-09-05T11:02:02.000Z</time>
      </trkpt>
      <trkpt lat="49.31579" lon="-1.58423">
        <ele>25.04339</ele>
        <time>2021-09-05T11:02:07.000Z</time>
      </trkpt>
      <trkpt lat="49.31575" lon="-1.58419">
        <ele>25.097419</ele>
        <time>2021-09-05T11:02:08.000Z</time>
      </trkpt>
      <trkpt lat="49.31555" lon="-1.58403">
        <ele>25.362312</ele>
        <time>2021-09-05T11:02:13.000Z</time>
      </trkpt>
      <trkpt lat="49.31539" lon="-1.58389">
        <ele>25.579179</ele>
        <time>2021-09-05T11:02:17.000Z</time>
      </trkpt>
      <trkpt lat="49.31518" lon="-1.58371">
        <ele>25.865833</ele>
        <time>2021-09-05T11:02:23.000Z</time>
      </trkpt>
      <trkpt lat="49.3151" lon="-1.58364">
        <ele>25.977739</ele>
        <time>2021-09-05T11:02:24.000Z</time>
      </trkpt>
      <trkpt lat="49.31501" lon="-1.58356">
        <ele>26.057741</ele>
        <time>2021-09-05T11:02:27.000Z</time>
      </trkpt>
      <trkpt lat="49.3148" lon="-1.58338">
        <ele>25.92414</ele>
        <time>2021-09-05T11:02:32.000Z</time>
      </trkpt>
      <trkpt lat="49.31472" lon="-1.58332">
        <ele>25.879876</ele>
        <time>2021-09-05T11:02:35.000Z</time>
      </trkpt>
      <trkpt lat="49.31469" lon="-1.58328">
        <ele>25.856377</ele>
        <time>2021-09-05T11:02:36.000Z</time>
      </trkpt>
      <trkpt lat="49.31443" lon="-1.58306">
        <ele>25.696072</ele>
        <time>2021-09-05T11:02:41.000Z</time>
      </trkpt>
      <trkpt lat="49.31421" lon="-1.58287">
        <ele>25.560077</ele>
        <time>2021-09-05T11:02:46.000Z</time>
      </trkpt>
      <trkpt lat="49.31417" lon="-1.58284">
        <ele>25.535295</ele>
        <time>2021-09-05T11:02:47.000Z</time>
      </trkpt>
      <trkpt lat="49.31395" lon="-1.58265">
        <ele>25.404086</ele>
        <time>2021-09-05T11:02:53.000Z</time>
      </trkpt>
      <trkpt lat="49.31387" lon="-1.58258">
        <ele>25.353585</ele>
        <time>2021-09-05T11:02:54.000Z</time>
      </trkpt>
      <trkpt lat="49.31376" lon="-1.58249">
        <ele>25.2839</ele>
        <time>2021-09-05T11:02:58.000Z</time>
      </trkpt>
      <trkpt lat="49.31351" lon="-1.58228">
        <ele>25.131114</ele>
        <time>2021-09-05T11:03:03.000Z</time>
      </trkpt>
      <trkpt lat="49.31333" lon="-1.58212">
        <ele>24.647112</ele>
        <time>2021-09-05T11:03:07.000Z</time>
      </trkpt>
      <trkpt lat="49.31303" lon="-1.58186">
        <ele>23.598615</ele>
        <time>2021-09-05T11:03:13.000Z</time>
      </trkpt>
      <trkpt lat="49.31283" lon="-1.5817">
        <ele>22.929432</ele>
        <time>2021-09-05T11:03:17.000Z</time>
      </trkpt>
      <trkpt lat="49.31269" lon="-1.58158">
        <ele>22.457081</ele>
        <time>2021-09-05T11:03:20.000Z</time>
      </trkpt>
      <trkpt lat="49.3126" lon="-1.5815">
        <ele>22.143057</ele>
        <time>2021-09-05T11:03:22.000Z</time>
      </trkpt>
      <trkpt lat="49.31251" lon="-1.58142">
        <ele>21.808465</ele>
        <time>2021-09-05T11:03:24.000Z</time>
      </trkpt>
      <trkpt lat="49.3124" lon="-1.58132">
        <ele>21.429149</ele>
        <time>2021-09-05T11:03:26.000Z</time>
      </trkpt>
      <trkpt lat="49.31208" lon="-1.58105">
        <ele>20.33951</ele>
        <time>2021-09-05T11:03:32.000Z</time>
      </trkpt>
      <trkpt lat="49.31184" lon="-1.58084">
        <ele>19.456921</ele>
        <time>2021-09-05T11:03:37.000Z</time>
      </trkpt>
      <trkpt lat="49.31168" lon="-1.58071">
        <ele>18.832835</ele>
        <time>2021-09-05T11:03:40.000Z</time>
      </trkpt>
      <trkpt lat="49.31164" lon="-1.58067">
        <ele>18.639114</ele>
        <time>2021-09-05T11:03:41.000Z</time>
      </trkpt>
      <trkpt lat="49.31135" lon="-1.58042">
        <ele>17.44214</ele>
        <time>2021-09-05T11:03:46.000Z</time>
      </trkpt>
      <trkpt lat="49.31106" lon="-1.58016">
        <ele>16.220968</ele>
        <time>2021-09-05T11:03:51.000Z</time>
      </trkpt>
      <trkpt lat="49.31093" lon="-1.58005">
        <ele>15.700401</ele>
        <time>2021-09-05T11:03:54.000Z</time>
      </trkpt>
      <trkpt lat="49.31076" lon="-1.5799">
        <ele>14.975195</ele>
        <time>2021-09-05T11:03:56.000Z</time>
      </trkpt>
      <trkpt lat="49.31059" lon="-1.57975">
        <ele>14.280063</ele>
        <time>2021-09-05T11:03:59.000Z</time>
      </trkpt>
      <trkpt lat="49.31048" lon="-1.57965">
        <ele>13.843068</ele>
        <time>2021-09-05T11:04:01.000Z</time>
      </trkpt>
      <trkpt lat="49.31027" lon="-1.57946">
        <ele>12.909858</ele>
        <time>2021-09-05T11:04:05.000Z</time>
      </trkpt>
      <trkpt lat="49.31021" lon="-1.57941">
        <ele>12.614434</ele>
        <time>2021-09-05T11:04:07.000Z</time>
      </trkpt>
      <trkpt lat="49.31005" lon="-1.57927">
        <ele>11.8294</ele>
        <time>2021-09-05T11:04:09.000Z</time>
      </trkpt>
      <trkpt lat="49.30983" lon="-1.57907">
        <ele>10.729993</ele>
        <time>2021-09-05T11:04:13.000Z</time>
      </trkpt>
      <trkpt lat="49.30955" lon="-1.57881">
        <ele>9.329774</ele>
        <time>2021-09-05T11:04:19.000Z</time>
      </trkpt>
      <trkpt lat="49.3093" lon="-1.57855">
        <ele>8.035011</ele>
        <time>2021-09-05T11:04:24.000Z</time>
      </trkpt>
      <trkpt lat="49.30896" lon="-1.57822">
        <ele>6.33835</ele>
        <time>2021-09-05T11:04:30.000Z</time>
      </trkpt>
      <trkpt lat="49.30874" lon="-1.57799">
        <ele>5.410046</ele>
        <time>2021-09-05T11:04:35.000Z</time>
      </trkpt>
      <trkpt lat="49.30857" lon="-1.57781">
        <ele>5.099277</ele>
        <time>2021-09-05T11:04:39.000Z</time>
      </trkpt>
      <trkpt lat="49.30843" lon="-1.57765">
        <ele>4.841498</ele>
        <time>2021-09-05T11:04:43.000Z</time>
      </trkpt>
      <trkpt lat="49.30829" lon="-1.57746">
        <ele>4.574674</ele>
        <time>2021-09-05T11:04:47.000Z</time>
      </trkpt>
      <trkpt lat="49.30825" lon="-1.57741">
        <ele>4.496915</ele>
        <time>2021-09-05T11:04:48.000Z</time>
      </trkpt>
      <trkpt lat="49.30822" lon="-1.57736">
        <ele>4.425038</ele>
        <time>2021-09-05T11:04:49.000Z</time>
      </trkpt>
      <trkpt lat="49.30807" lon="-1.57715">
        <ele>4.12292</ele>
        <time>2021-09-05T11:04:53.000Z</time>
      </trkpt>
      <trkpt lat="49.30795" lon="-1.57699">
        <ele>3.891387</ele>
        <time>2021-09-05T11:04:56.000Z</time>
      </trkpt>
      <trkpt lat="49.30791" lon="-1.57693">
        <ele>3.813628</ele>
        <time>2021-09-05T11:04:57.000Z</time>
      </trkpt>
      <trkpt lat="49.30769" lon="-1.57663">
        <ele>3.371891</ele>
        <time>2021-09-05T11:05:02.000Z</time>
      </trkpt>
      <trkpt lat="49.30738" lon="-1.57619">
        <ele>2.989084</ele>
        <time>2021-09-05T11:05:08.000Z</time>
      </trkpt>
      <trkpt lat="49.30702" lon="-1.57564">
        <ele>3.778037</ele>
        <time>2021-09-05T11:05:14.000Z</time>
      </trkpt>
      <trkpt lat="49.30671" lon="-1.57513">
        <ele>4.500648</ele>
        <time>2021-09-05T11:05:20.000Z</time>
      </trkpt>
      <trkpt lat="49.30652" lon="-1.57482">
        <ele>4.932762</ele>
        <time>2021-09-05T11:05:24.000Z</time>
      </trkpt>
      <trkpt lat="49.30648" lon="-1.57476">
        <ele>5.02219</ele>
        <time>2021-09-05T11:05:25.000Z</time>
      </trkpt>
      <trkpt lat="49.30644" lon="-1.5747">
        <ele>5.108317</ele>
        <time>2021-09-05T11:05:26.000Z</time>
      </trkpt>
      <trkpt lat="49.30634" lon="-1.57454">
        <ele>5.33094</ele>
        <time>2021-09-05T11:05:29.000Z</time>
      </trkpt>
      <trkpt lat="49.30631" lon="-1.57449">
        <ele>5.403936</ele>
        <time>2021-09-05T11:05:30.000Z</time>
      </trkpt>
      <trkpt lat="49.30621" lon="-1.57433">
        <ele>5.621795</ele>
        <time>2021-09-05T11:05:33.000Z</time>
      </trkpt>
      <trkpt lat="49.30615" lon="-1.57423">
        <ele>5.894414</ele>
        <time>2021-09-05T11:05:36.000Z</time>
      </trkpt>
      <trkpt lat="49.30609" lon="-1.57414">
        <ele>6.202394</ele>
        <time>2021-09-05T11:05:40.000Z</time>
      </trkpt>
      <trkpt lat="49.306" lon="-1.574">
        <ele>6.685722</ele>
        <time>2021-09-05T11:05:46.000Z</time>
      </trkpt>
      <trkpt lat="49.30597" lon="-1.57396">
        <ele>6.825312</ele>
        <time>2021-09-05T11:05:48.000Z</time>
      </trkpt>
      <trkpt lat="49.30592" lon="-1.57387">
        <ele>7.100133</ele>
        <time>2021-09-05T11:05:51.000Z</time>
      </trkpt>
      <trkpt lat="49.3058" lon="-1.57368">
        <ele>7.750097</ele>
        <time>2021-09-05T11:05:55.000Z</time>
      </trkpt>
      <trkpt lat="49.30565" lon="-1.57344">
        <ele>8.58503</ele>
        <time>2021-09-05T11:06:00.000Z</time>
      </trkpt>
      <trkpt lat="49.30547" lon="-1.57316">
        <ele>9.532507</ele>
        <time>2021-09-05T11:06:06.000Z</time>
      </trkpt>
      <trkpt lat="49.30528" lon="-1.57286">
        <ele>10.542795</ele>
        <time>2021-09-05T11:06:11.000Z</time>
      </trkpt>
      <trkpt lat="49.30501" lon="-1.57243">
        <ele>12.023344</ele>
        <time>2021-09-05T11:06:18.000Z</time>
      </trkpt>
      <trkpt lat="49.30477" lon="-1.57206">
        <ele>13.104246</ele>
        <time>2021-09-05T11:06:24.000Z</time>
      </trkpt>
      <trkpt lat="49.30458" lon="-1.57174">
        <ele>13.946581</ele>
        <time>2021-09-05T11:06:29.000Z</time>
      </trkpt>
      <trkpt lat="49.30429" lon="-1.5713">
        <ele>15.156288</ele>
        <time>2021-09-05T11:06:36.000Z</time>
      </trkpt>
      <trkpt lat="49.30397" lon="-1.57079">
        <ele>16.525702</ele>
        <time>2021-09-05T11:06:44.000Z</time>
      </trkpt>
      <trkpt lat="49.30374" lon="-1.57042">
        <ele>17.525678</ele>
        <time>2021-09-05T11:06:50.000Z</time>
      </trkpt>
      <trkpt lat="49.30343" lon="-1.56995">
        <ele>18.377027</ele>
        <time>2021-09-05T11:06:58.000Z</time>
      </trkpt>
      <trkpt lat="49.30326" lon="-1.56969">
        <ele>18.784578</ele>
        <time>2021-09-05T11:07:03.000Z</time>
      </trkpt>
      <trkpt lat="49.30314" lon="-1.56951">
        <ele>19.081405</ele>
        <time>2021-09-05T11:07:07.000Z</time>
      </trkpt>
      <trkpt lat="49.3031" lon="-1.56945">
        <ele>19.177691</ele>
        <time>2021-09-05T11:07:08.000Z</time>
      </trkpt>
      <trkpt lat="49.30277" lon="-1.56889">
        <ele>20.028956</ele>
        <time>2021-09-05T11:07:16.000Z</time>
      </trkpt>
      <trkpt lat="49.30247" lon="-1.56836">
        <ele>20.812015</ele>
        <time>2021-09-05T11:07:24.000Z</time>
      </trkpt>
      <trkpt lat="49.30243" lon="-1.5683">
        <ele>20.901026</ele>
        <time>2021-09-05T11:07:25.000Z</time>
      </trkpt>
      <trkpt lat="49.30236" lon="-1.56819">
        <ele>21.056645</ele>
        <time>2021-09-05T11:07:27.000Z</time>
      </trkpt>
      <trkpt lat="49.3023" lon="-1.56808">
        <ele>21.194677</ele>
        <time>2021-09-05T11:07:29.000Z</time>
      </trkpt>
      <trkpt lat="49.30228" lon="-1.56803">
        <ele>21.259042</ele>
        <time>2021-09-05T11:07:30.000Z</time>
      </trkpt>
      <trkpt lat="49.3022" lon="-1.56789">
        <ele>21.44401</ele>
        <time>2021-09-05T11:07:33.000Z</time>
      </trkpt>
      <trkpt lat="49.30211" lon="-1.56772">
        <ele>21.663453</ele>
        <time>2021-09-05T11:07:36.000Z</time>
      </trkpt>
      <trkpt lat="49.30205" lon="-1.5676">
        <ele>21.816464</ele>
        <time>2021-09-05T11:07:38.000Z</time>
      </trkpt>
      <trkpt lat="49.3018" lon="-1.56711">
        <ele>22.44032</ele>
        <time>2021-09-05T11:07:46.000Z</time>
      </trkpt>
      <trkpt lat="49.30161" lon="-1.56674">
        <ele>22.908648</ele>
        <time>2021-09-05T11:07:52.000Z</time>
      </trkpt>
      <trkpt lat="49.30158" lon="-1.56668">
        <ele>22.98594</ele>
        <time>2021-09-05T11:07:53.000Z</time>
      </trkpt>
      <trkpt lat="49.30138" lon="-1.56631">
        <ele>23.458523</ele>
        <time>2021-09-05T11:07:59.000Z</time>
      </trkpt>
      <trkpt lat="49.30113" lon="-1.56582">
        <ele>24.083642</ele>
        <time>2021-09-05T11:08:07.000Z</time>
      </trkpt>
      <trkpt lat="49.3011" lon="-1.56576">
        <ele>24.162318</ele>
        <time>2021-09-05T11:08:08.000Z</time>
      </trkpt>
      <trkpt lat="49.30087" lon="-1.56523">
        <ele>24.785766</ele>
        <time>2021-09-05T11:08:16.000Z</time>
      </trkpt>
      <trkpt lat="49.30069" lon="-1.56475">
        <ele>25.345135</ele>
        <time>2021-09-05T11:08:23.000Z</time>
      </trkpt>
      <trkpt lat="49.30054" lon="-1.56435">
        <ele>25.80512</ele>
        <time>2021-09-05T11:08:29.000Z</time>
      </trkpt>
      <trkpt lat="49.30036" lon="-1.56387">
        <ele>26.349476</ele>
        <time>2021-09-05T11:08:36.000Z</time>
      </trkpt>
      <trkpt lat="49.30021" lon="-1.56346">
        <ele>26.673758</ele>
        <time>2021-09-05T11:08:42.000Z</time>
      </trkpt>
      <trkpt lat="49.30019" lon="-1.5634">
        <ele>26.725447</ele>
        <time>2021-09-05T11:08:43.000Z</time>
      </trkpt>
      <trkpt lat="49.30007" lon="-1.56306">
        <ele>26.982672</ele>
        <time>2021-09-05T11:08:48.000Z</time>
      </trkpt>
      <trkpt lat="49.30005" lon="-1.56299">
        <ele>27.031797</ele>
        <time>2021-09-05T11:08:49.000Z</time>
      </trkpt>
      <trkpt lat="49.29996" lon="-1.5627">
        <ele>27.254757</ele>
        <time>2021-09-05T11:08:54.000Z</time>
      </trkpt>
      <trkpt lat="49.29988" lon="-1.56246">
        <ele>27.431331</ele>
        <time>2021-09-05T11:08:59.000Z</time>
      </trkpt>
      <trkpt lat="49.29985" lon="-1.56234">
        <ele>27.521063</ele>
        <time>2021-09-05T11:09:03.000Z</time>
      </trkpt>
      <trkpt lat="49.29984" lon="-1.56231">
        <ele>27.545093</ele>
        <time>2021-09-05T11:09:04.000Z</time>
      </trkpt>
      <trkpt lat="49.29978" lon="-1.56215">
        <ele>27.666308</ele>
        <time>2021-09-05T11:09:09.000Z</time>
      </trkpt>
      <trkpt lat="49.29978" lon="-1.56212">
        <ele>27.686843</ele>
        <time>2021-09-05T11:09:10.000Z</time>
      </trkpt>
      <trkpt lat="49.29985" lon="-1.56206">
        <ele>27.779315</ele>
        <time>2021-09-05T11:09:12.000Z</time>
      </trkpt>
      <trkpt lat="49.3" lon="-1.5621">
        <ele>27.93065</ele>
        <time>2021-09-05T11:09:16.000Z</time>
      </trkpt>
      <trkpt lat="49.30017" lon="-1.56217">
        <ele>28.113449</ele>
        <time>2021-09-05T11:09:20.000Z</time>
      </trkpt>
      <trkpt lat="49.30021" lon="-1.56219">
        <ele>28.159984</ele>
        <time>2021-09-05T11:09:21.000Z</time>
      </trkpt>
      <trkpt lat="49.3003" lon="-1.56221">
        <ele>28.256901</ele>
        <time>2021-09-05T11:09:23.000Z</time>
      </trkpt>
      <trkpt lat="49.30044" lon="-1.56225">
        <ele>28.414382</ele>
        <time>2021-09-05T11:09:26.000Z</time>
      </trkpt>
      <trkpt lat="49.30074" lon="-1.56208">
        <ele>28.780729</ele>
        <time>2021-09-05T11:09:33.000Z</time>
      </trkpt>
      <trkpt lat="49.30096" lon="-1.56193">
        <ele>29.06619</ele>
        <time>2021-09-05T11:09:40.000Z</time>
      </trkpt>
      <trkpt lat="49.30113" lon="-1.56182">
        <ele>29.269741</ele>
        <time>2021-09-05T11:09:46.000Z</time>
      </trkpt>
      <trkpt lat="49.30128" lon="-1.56172">
        <ele>29.46415</ele>
        <time>2021-09-05T11:09:53.000Z</time>
      </trkpt>
      <trkpt lat="49.30135" lon="-1.56167">
        <ele>29.548757</ele>
        <time>2021-09-05T11:09:56.000Z</time>
      </trkpt>
      <trkpt lat="49.30137" lon="-1.56166">
        <ele>29.571566</ele>
        <time>2021-09-05T11:09:57.000Z</time>
      </trkpt>
      <trkpt lat="49.30149" lon="-1.56137">
        <ele>29.830795</ele>
        <time>2021-09-05T11:10:02.000Z</time>
      </trkpt>
      <trkpt lat="49.30146" lon="-1.56115">
        <ele>30.002979</ele>
        <time>2021-09-05T11:10:07.000Z</time>
      </trkpt>
      <trkpt lat="49.30142" lon="-1.56089">
        <ele>30.203209</ele>
        <time>2021-09-05T11:10:13.000Z</time>
      </trkpt>
      <trkpt lat="49.30141" lon="-1.56065">
        <ele>30.312983</ele>
        <time>2021-09-05T11:10:18.000Z</time>
      </trkpt>
      <trkpt lat="49.30147" lon="-1.56036">
        <ele>30.351766</ele>
        <time>2021-09-05T11:10:24.000Z</time>
      </trkpt>
      <trkpt lat="49.30154" lon="-1.55995">
        <ele>30.406724</ele>
        <time>2021-09-05T11:10:32.000Z</time>
      </trkpt>
      <trkpt lat="49.3016" lon="-1.55961">
        <ele>30.452332</ele>
        <time>2021-09-05T11:10:39.000Z</time>
      </trkpt>
      <trkpt lat="49.3016" lon="-1.55921">
        <ele>30.503105</ele>
        <time>2021-09-05T11:10:46.000Z</time>
      </trkpt>
      <trkpt lat="49.30159" lon="-1.55879">
        <ele>30.557916</ele>
        <time>2021-09-05T11:10:53.000Z</time>
      </trkpt>
      <trkpt lat="49.30159" lon="-1.55872">
        <ele>30.566315</ele>
        <time>2021-09-05T11:10:54.000Z</time>
      </trkpt>
      <trkpt lat="49.30158" lon="-1.55848">
        <ele>30.597988</ele>
        <time>2021-09-05T11:10:58.000Z</time>
      </trkpt>
      <trkpt lat="49.30158" lon="-1.5582">
        <ele>30.633663</ele>
        <time>2021-09-05T11:11:04.000Z</time>
      </trkpt>
      <trkpt lat="49.30156" lon="-1.55798">
        <ele>30.609357</ele>
        <time>2021-09-05T11:11:09.000Z</time>
      </trkpt>
      <trkpt lat="49.30155" lon="-1.55784">
        <ele>30.511705</ele>
        <time>2021-09-05T11:11:12.000Z</time>
      </trkpt>
      <trkpt lat="49.30154" lon="-1.55777">
        <ele>30.457013</ele>
        <time>2021-09-05T11:11:14.000Z</time>
      </trkpt>
      <trkpt lat="49.30154" lon="-1.55773">
        <ele>30.426907</ele>
        <time>2021-09-05T11:11:15.000Z</time>
      </trkpt>
      <trkpt lat="49.30153" lon="-1.5576">
        <ele>30.335754</ele>
        <time>2021-09-05T11:11:18.000Z</time>
      </trkpt>
      <trkpt lat="49.30151" lon="-1.55735">
        <ele>30.157667</ele>
        <time>2021-09-05T11:11:23.000Z</time>
      </trkpt>
      <trkpt lat="49.30142" lon="-1.55699">
        <ele>29.879885</ele>
        <time>2021-09-05T11:11:29.000Z</time>
      </trkpt>
      <trkpt lat="49.30139" lon="-1.55685">
        <ele>29.77488</ele>
        <time>2021-09-05T11:11:32.000Z</time>
      </trkpt>
      <trkpt lat="49.30133" lon="-1.55664">
        <ele>29.615847</ele>
        <time>2021-09-05T11:11:34.000Z</time>
      </trkpt>
      <trkpt lat="49.30131" lon="-1.55657">
        <ele>29.562476</ele>
        <time>2021-09-05T11:11:35.000Z</time>
      </trkpt>
      <trkpt lat="49.30127" lon="-1.55644">
        <ele>29.458785</ele>
        <time>2021-09-05T11:11:37.000Z</time>
      </trkpt>
      <trkpt lat="49.30126" lon="-1.55637">
        <ele>29.405167</ele>
        <time>2021-09-05T11:11:38.000Z</time>
      </trkpt>
      <trkpt lat="49.30111" lon="-1.5558">
        <ele>28.967319</ele>
        <time>2021-09-05T11:11:46.000Z</time>
      </trkpt>
      <trkpt lat="49.30101" lon="-1.55498">
        <ele>28.696255</ele>
        <time>2021-09-05T11:11:56.000Z</time>
      </trkpt>
      <trkpt lat="49.30094" lon="-1.5544">
        <ele>28.705802</ele>
        <time>2021-09-05T11:12:03.000Z</time>
      </trkpt>
      <trkpt lat="49.30089" lon="-1.55406">
        <ele>28.711473</ele>
        <time>2021-09-05T11:12:07.000Z</time>
      </trkpt>
      <trkpt lat="49.30089" lon="-1.55389">
        <ele>28.714232</ele>
        <time>2021-09-05T11:12:09.000Z</time>
      </trkpt>
      <trkpt lat="49.30088" lon="-1.55365">
        <ele>28.718107</ele>
        <time>2021-09-05T11:12:12.000Z</time>
      </trkpt>
      <trkpt lat="49.30087" lon="-1.5534">
        <ele>28.722192</ele>
        <time>2021-09-05T11:12:15.000Z</time>
      </trkpt>
      <trkpt lat="49.30086" lon="-1.55291">
        <ele>28.730047</ele>
        <time>2021-09-05T11:12:21.000Z</time>
      </trkpt>
      <trkpt lat="49.30087" lon="-1.55246">
        <ele>28.834033</ele>
        <time>2021-09-05T11:12:27.000Z</time>
      </trkpt>
      <trkpt lat="49.30087" lon="-1.55192">
        <ele>29.073187</ele>
        <time>2021-09-05T11:12:34.000Z</time>
      </trkpt>
      <trkpt lat="49.30087" lon="-1.5517">
        <ele>29.172606</ele>
        <time>2021-09-05T11:12:37.000Z</time>
      </trkpt>
      <trkpt lat="49.30088" lon="-1.55141">
        <ele>29.301585</ele>
        <time>2021-09-05T11:12:41.000Z</time>
      </trkpt>
      <trkpt lat="49.30088" lon="-1.55121">
        <ele>29.394287</ele>
        <time>2021-09-05T11:12:44.000Z</time>
      </trkpt>
      <trkpt lat="49.30088" lon="-1.55107">
        <ele>29.454307</ele>
        <time>2021-09-05T11:12:46.000Z</time>
      </trkpt>
      <trkpt lat="49.30088" lon="-1.55101">
        <ele>29.483869</ele>
        <time>2021-09-05T11:12:47.000Z</time>
      </trkpt>
      <trkpt lat="49.30088" lon="-1.55094">
        <ele>29.512527</ele>
        <time>2021-09-05T11:12:48.000Z</time>
      </trkpt>
      <trkpt lat="49.30089" lon="-1.55056">
        <ele>29.685407</ele>
        <time>2021-09-05T11:12:54.000Z</time>
      </trkpt>
      <trkpt lat="49.30089" lon="-1.55026">
        <ele>29.818864</ele>
        <time>2021-09-05T11:12:59.000Z</time>
      </trkpt>
      <trkpt lat="49.30088" lon="-1.54962">
        <ele>29.911878</ele>
        <time>2021-09-05T11:13:09.000Z</time>
      </trkpt>
      <trkpt lat="49.30087" lon="-1.54925">
        <ele>29.842108</ele>
        <time>2021-09-05T11:13:15.000Z</time>
      </trkpt>
      <trkpt lat="49.30086" lon="-1.54918">
        <ele>29.829387</ele>
        <time>2021-09-05T11:13:16.000Z</time>
      </trkpt>
      <trkpt lat="49.30086" lon="-1.54911">
        <ele>29.816478</ele>
        <time>2021-09-05T11:13:17.000Z</time>
      </trkpt>
      <trkpt lat="49.30086" lon="-1.54899">
        <ele>29.794408</ele>
        <time>2021-09-05T11:13:19.000Z</time>
      </trkpt>
      <trkpt lat="49.30078" lon="-1.54898">
        <ele>29.772276</ele>
        <time>2021-09-05T11:13:21.000Z</time>
      </trkpt>
      <trkpt lat="49.30056" lon="-1.54906">
        <ele>29.707001</ele>
        <time>2021-09-05T11:13:26.000Z</time>
      </trkpt>
      <trkpt lat="49.3005" lon="-1.54908">
        <ele>29.689641</ele>
        <time>2021-09-05T11:13:27.000Z</time>
      </trkpt>
      <trkpt lat="49.30033" lon="-1.54909">
        <ele>29.639164</ele>
        <time>2021-09-05T11:13:29.000Z</time>
      </trkpt>
      <trkpt lat="49.30021" lon="-1.54908">
        <ele>29.605556</ele>
        <time>2021-09-05T11:13:31.000Z</time>
      </trkpt>
      <trkpt lat="49.29996" lon="-1.5489">
        <ele>29.528095</ele>
        <time>2021-09-05T11:13:36.000Z</time>
      </trkpt>
      <trkpt lat="49.29992" lon="-1.54887">
        <ele>29.514057</ele>
        <time>2021-09-05T11:13:38.000Z</time>
      </trkpt>
      <trkpt lat="49.29975" lon="-1.54874">
        <ele>29.459778</ele>
        <time>2021-09-05T11:13:41.000Z</time>
      </trkpt>
      <trkpt lat="49.2995" lon="-1.54858">
        <ele>29.148178</ele>
        <time>2021-09-05T11:13:47.000Z</time>
      </trkpt>
      <trkpt lat="49.29926" lon="-1.54845">
        <ele>28.829823</ele>
        <time>2021-09-05T11:13:53.000Z</time>
      </trkpt>
      <trkpt lat="49.29918" lon="-1.5484">
        <ele>28.722713</ele>
        <time>2021-09-05T11:13:55.000Z</time>
      </trkpt>
      <trkpt lat="49.29902" lon="-1.54831">
        <ele>28.515258</ele>
        <time>2021-09-05T11:14:00.000Z</time>
      </trkpt>
      <trkpt lat="49.29894" lon="-1.54825">
        <ele>28.407004</ele>
        <time>2021-09-05T11:14:01.000Z</time>
      </trkpt>
      <trkpt lat="49.29874" lon="-1.54804">
        <ele>28.098569</ele>
        <time>2021-09-05T11:14:07.000Z</time>
      </trkpt>
      <trkpt lat="49.29865" lon="-1.548">
        <ele>27.984561</ele>
        <time>2021-09-05T11:14:08.000Z</time>
      </trkpt>
      <trkpt lat="49.29859" lon="-1.54813">
        <ele>27.860014</ele>
        <time>2021-09-05T11:14:10.000Z</time>
      </trkpt>
      <trkpt lat="49.29855" lon="-1.5482">
        <ele>27.786888</ele>
        <time>2021-09-05T11:14:11.000Z</time>
      </trkpt>
      <trkpt lat="49.29827" lon="-1.54876">
        <ele>27.236222</ele>
        <time>2021-09-05T11:14:18.000Z</time>
      </trkpt>
      <trkpt lat="49.29805" lon="-1.5492">
        <ele>27.537922</ele>
        <time>2021-09-05T11:14:24.000Z</time>
      </trkpt>
      <trkpt lat="49.298" lon="-1.54933">
        <ele>27.621191</ele>
        <time>2021-09-05T11:14:26.000Z</time>
      </trkpt>
      <trkpt lat="49.29796" lon="-1.54944">
        <ele>27.690525</ele>
        <time>2021-09-05T11:14:28.000Z</time>
      </trkpt>
      <trkpt lat="49.29791" lon="-1.54951">
        <ele>27.744807</ele>
        <time>2021-09-05T11:14:29.000Z</time>
      </trkpt>
      <trkpt lat="49.29784" lon="-1.54951">
        <ele>27.801154</ele>
        <time>2021-09-05T11:14:32.000Z</time>
      </trkpt>
      <trkpt lat="49.29767" lon="-1.54952">
        <ele>27.93952</ele>
        <time>2021-09-05T11:14:37.000Z</time>
      </trkpt>
      <trkpt lat="49.29752" lon="-1.54952">
        <ele>28.064625</ele>
        <time>2021-09-05T11:14:43.000Z</time>
      </trkpt>
      <trkpt lat="49.29719" lon="-1.54953">
        <ele>28.343013</ele>
        <time>2021-09-05T11:14:52.000Z</time>
      </trkpt>
      <trkpt lat="49.29692" lon="-1.54953">
        <ele>28.565063</ele>
        <time>2021-09-05T11:15:00.000Z</time>
      </trkpt>
      <trkpt lat="49.29668" lon="-1.54953">
        <ele>28.811973</ele>
        <time>2021-09-05T11:15:07.000Z</time>
      </trkpt>
      <trkpt lat="49.29642" lon="-1.54955">
        <ele>29.246096</ele>
        <time>2021-09-05T11:15:15.000Z</time>
      </trkpt>
      <trkpt lat="49.29627" lon="-1.54955">
        <ele>29.4968</ele>
        <time>2021-09-05T11:15:19.000Z</time>
      </trkpt>
      <trkpt lat="49.29615" lon="-1.54956">
        <ele>29.703828</ele>
        <time>2021-09-05T11:15:23.000Z</time>
      </trkpt>
      <trkpt lat="49.29593" lon="-1.54961">
        <ele>30.068979</ele>
        <time>2021-09-05T11:15:30.000Z</time>
      </trkpt>
      <trkpt lat="49.2959" lon="-1.54968">
        <ele>30.159034</ele>
        <time>2021-09-05T11:15:32.000Z</time>
      </trkpt>
      <trkpt lat="49.29589" lon="-1.54978">
        <ele>30.274111</ele>
        <time>2021-09-05T11:15:34.000Z</time>
      </trkpt>
      <trkpt lat="49.29579" lon="-1.55012">
        <ele>30.678845</ele>
        <time>2021-09-05T11:15:40.000Z</time>
      </trkpt>
      <trkpt lat="49.29558" lon="-1.55027">
        <ele>31.062256</ele>
        <time>2021-09-05T11:15:46.000Z</time>
      </trkpt>
      <trkpt lat="49.29552" lon="-1.55031">
        <ele>31.174727</ele>
        <time>2021-09-05T11:15:48.000Z</time>
      </trkpt>
      <trkpt lat="49.29551" lon="-1.55025">
        <ele>31.237358</ele>
        <time>2021-09-05T11:15:49.000Z</time>
      </trkpt>
      <trkpt lat="49.29548" lon="-1.55007">
        <ele>31.448802</ele>
        <time>2021-09-05T11:15:53.000Z</time>
      </trkpt>
      <trkpt lat="49.29552" lon="-1.54979">
        <ele>31.756702</ele>
        <time>2021-09-05T11:15:58.000Z</time>
      </trkpt>
      <trkpt lat="49.29557" lon="-1.54946">
        <ele>32.035357</ele>
        <time>2021-09-05T11:16:04.000Z</time>
      </trkpt>
      <trkpt lat="49.29554" lon="-1.54928">
        <ele>32.186096</ele>
        <time>2021-09-05T11:16:07.000Z</time>
      </trkpt>
      <trkpt lat="49.2955" lon="-1.54904">
        <ele>32.388404</ele>
        <time>2021-09-05T11:16:11.000Z</time>
      </trkpt>
      <trkpt lat="49.29544" lon="-1.54868">
        <ele>32.69496</ele>
        <time>2021-09-05T11:16:17.000Z</time>
      </trkpt>
      <trkpt lat="49.29544" lon="-1.54861">
        <ele>32.750123</ele>
        <time>2021-09-05T11:16:18.000Z</time>
      </trkpt>
      <trkpt lat="49.29541" lon="-1.54827">
        <ele>33.037044</ele>
        <time>2021-09-05T11:16:23.000Z</time>
      </trkpt>
      <trkpt lat="49.29537" lon="-1.54761">
        <ele>33.575297</ele>
        <time>2021-09-05T11:16:33.000Z</time>
      </trkpt>
      <trkpt lat="49.29533" lon="-1.54704">
        <ele>34.032173</ele>
        <time>2021-09-05T11:16:40.000Z</time>
      </trkpt>
      <trkpt lat="49.29532" lon="-1.54685">
        <ele>34.117938</ele>
        <time>2021-09-05T11:16:44.000Z</time>
      </trkpt>
      <trkpt lat="49.29521" lon="-1.5468">
        <ele>34.201411</ele>
        <time>2021-09-05T11:16:48.000Z</time>
      </trkpt>
      <trkpt lat="49.29519" lon="-1.5468">
        <ele>34.215079</ele>
        <time>2021-09-05T11:16:49.000Z</time>
      </trkpt>
      <trkpt lat="49.29518" lon="-1.5468">
        <ele>34.218704</ele>
        <time>2021-09-05T11:16:50.000Z</time>
      </trkpt>
      <trkpt lat="49.29515" lon="-1.54676">
        <ele>34.249292</ele>
        <time>2021-09-05T11:16:52.000Z</time>
      </trkpt>
      <trkpt lat="49.29513" lon="-1.54657">
        <ele>34.336409</ele>
        <time>2021-09-05T11:16:57.000Z</time>
      </trkpt>
      <trkpt lat="49.29511" lon="-1.54632">
        <ele>34.454589</ele>
        <time>2021-09-05T11:17:03.000Z</time>
      </trkpt>
      <trkpt lat="49.29505" lon="-1.54608">
        <ele>34.574919</ele>
        <time>2021-09-05T11:17:08.000Z</time>
      </trkpt>
      <trkpt lat="49.29501" lon="-1.54597">
        <ele>34.635997</ele>
        <time>2021-09-05T11:17:12.000Z</time>
      </trkpt>
      <trkpt lat="49.29496" lon="-1.54565">
        <ele>34.790615</ele>
        <time>2021-09-05T11:17:19.000Z</time>
      </trkpt>
      <trkpt lat="49.29494" lon="-1.54527">
        <ele>34.967487</ele>
        <time>2021-09-05T11:17:27.000Z</time>
      </trkpt>
      <trkpt lat="49.29493" lon="-1.54498">
        <ele>35.10548</ele>
        <time>2021-09-05T11:17:34.000Z</time>
      </trkpt>
      <trkpt lat="49.29493" lon="-1.54479">
        <ele>35.192265</ele>
        <time>2021-09-05T11:17:39.000Z</time>
      </trkpt>
      <trkpt lat="49.29493" lon="-1.54475">
        <ele>35.211501</ele>
        <time>2021-09-05T11:17:40.000Z</time>
      </trkpt>
      <trkpt lat="49.29489" lon="-1.54475">
        <ele>35.240257</ele>
        <time>2021-09-05T11:17:42.000Z</time>
      </trkpt>
      <trkpt lat="49.29483" lon="-1.54481">
        <ele>35.291904</ele>
        <time>2021-09-05T11:17:48.000Z</time>
      </trkpt>
      <trkpt lat="49.29483" lon="-1.54481">
        <ele>35.291904</ele>
        <time>2021-09-05T11:18:24.000Z</time>
      </trkpt>
      <trkpt lat="49.29493" lon="-1.54475">
        <ele>35.405535</ele>
        <time>2021-09-05T12:01:12.000Z</time>
      </trkpt>
      <trkpt lat="49.29493" lon="-1.54504">
        <ele>35.617744</ele>
        <time>2021-09-05T12:01:19.000Z</time>
      </trkpt>
      <trkpt lat="49.29495" lon="-1.54538">
        <ele>35.861974</ele>
        <time>2021-09-05T12:01:25.000Z</time>
      </trkpt>
      <trkpt lat="49.29496" lon="-1.54574">
        <ele>36.123216</ele>
        <time>2021-09-05T12:01:31.000Z</time>
      </trkpt>
      <trkpt lat="49.29501" lon="-1.546">
        <ele>36.315051</ele>
        <time>2021-09-05T12:01:36.000Z</time>
      </trkpt>
      <trkpt lat="49.29509" lon="-1.54616">
        <ele>36.456086</ele>
        <time>2021-09-05T12:01:39.000Z</time>
      </trkpt>
      <trkpt lat="49.2951" lon="-1.54622">
        <ele>36.502044</ele>
        <time>2021-09-05T12:01:40.000Z</time>
      </trkpt>
      <trkpt lat="49.2951" lon="-1.54628">
        <ele>36.545675</ele>
        <time>2021-09-05T12:01:41.000Z</time>
      </trkpt>
      <trkpt lat="49.29513" lon="-1.54658">
        <ele>36.763257</ele>
        <time>2021-09-05T12:01:46.000Z</time>
      </trkpt>
      <trkpt lat="49.29519" lon="-1.5468">
        <ele>36.937022</ele>
        <time>2021-09-05T12:01:52.000Z</time>
      </trkpt>
      <trkpt lat="49.29526" lon="-1.54679">
        <ele>37.012357</ele>
        <time>2021-09-05T12:01:55.000Z</time>
      </trkpt>
      <trkpt lat="49.29531" lon="-1.54671">
        <ele>37.08843</ele>
        <time>2021-09-05T12:01:57.000Z</time>
      </trkpt>
      <trkpt lat="49.2953" lon="-1.54666">
        <ele>37.127522</ele>
        <time>2021-09-05T12:01:58.000Z</time>
      </trkpt>
      <trkpt lat="49.29528" lon="-1.54628">
        <ele>37.365857</ele>
        <time>2021-09-05T12:02:04.000Z</time>
      </trkpt>
      <trkpt lat="49.29525" lon="-1.54587">
        <ele>37.564087</ele>
        <time>2021-09-05T12:02:10.000Z</time>
      </trkpt>
      <trkpt lat="49.29521" lon="-1.54531">
        <ele>37.833123</ele>
        <time>2021-09-05T12:02:18.000Z</time>
      </trkpt>
      <trkpt lat="49.29519" lon="-1.54503">
        <ele>37.966889</ele>
        <time>2021-09-05T12:02:22.000Z</time>
      </trkpt>
      <trkpt lat="49.29519" lon="-1.54496">
        <ele>38.001064</ele>
        <time>2021-09-05T12:02:24.000Z</time>
      </trkpt>
      <trkpt lat="49.29516" lon="-1.54455">
        <ele>38.20001</ele>
        <time>2021-09-05T12:02:29.000Z</time>
      </trkpt>
      <trkpt lat="49.29515" lon="-1.54448">
        <ele>38.22965</ele>
        <time>2021-09-05T12:02:30.000Z</time>
      </trkpt>
      <trkpt lat="49.29513" lon="-1.54435">
        <ele>38.294508</ele>
        <time>2021-09-05T12:02:32.000Z</time>
      </trkpt>
      <trkpt lat="49.29511" lon="-1.54421">
        <ele>38.362795</ele>
        <time>2021-09-05T12:02:34.000Z</time>
      </trkpt>
      <trkpt lat="49.2951" lon="-1.54407">
        <ele>38.432491</ele>
        <time>2021-09-05T12:02:36.000Z</time>
      </trkpt>
      <trkpt lat="49.29503" lon="-1.54363">
        <ele>38.64962</ele>
        <time>2021-09-05T12:02:42.000Z</time>
      </trkpt>
      <trkpt lat="49.29488" lon="-1.54304">
        <ele>38.963317</ele>
        <time>2021-09-05T12:02:50.000Z</time>
      </trkpt>
      <trkpt lat="49.29476" lon="-1.54261">
        <ele>39.197694</ele>
        <time>2021-09-05T12:02:56.000Z</time>
      </trkpt>
      <trkpt lat="49.29451" lon="-1.54196">
        <ele>39.57396</ele>
        <time>2021-09-05T12:03:06.000Z</time>
      </trkpt>
      <trkpt lat="49.2943" lon="-1.54147">
        <ele>39.865366</ele>
        <time>2021-09-05T12:03:14.000Z</time>
      </trkpt>
      <trkpt lat="49.29417" lon="-1.54119">
        <ele>40.017432</ele>
        <time>2021-09-05T12:03:20.000Z</time>
      </trkpt>
      <trkpt lat="49.29414" lon="-1.54114">
        <ele>40.03532</ele>
        <time>2021-09-05T12:03:21.000Z</time>
      </trkpt>
      <trkpt lat="49.2941" lon="-1.54103">
        <ele>40.075784</ele>
        <time>2021-09-05T12:03:23.000Z</time>
      </trkpt>
      <trkpt lat="49.29404" lon="-1.54092">
        <ele>40.117862</ele>
        <time>2021-09-05T12:03:25.000Z</time>
      </trkpt>
      <trkpt lat="49.29401" lon="-1.54085">
        <ele>40.146186</ele>
        <time>2021-09-05T12:03:27.000Z</time>
      </trkpt>
      <trkpt lat="49.29391" lon="-1.54064">
        <ele>40.22694</ele>
        <time>2021-09-05T12:03:32.000Z</time>
      </trkpt>
      <trkpt lat="49.29389" lon="-1.5406">
        <ele>40.243035</ele>
        <time>2021-09-05T12:03:33.000Z</time>
      </trkpt>
      <trkpt lat="49.29383" lon="-1.54054">
        <ele>40.275278</ele>
        <time>2021-09-05T12:03:35.000Z</time>
      </trkpt>
      <trkpt lat="49.29374" lon="-1.54044">
        <ele>40.328262</ele>
        <time>2021-09-05T12:03:39.000Z</time>
      </trkpt>
      <trkpt lat="49.29364" lon="-1.54034">
        <ele>40.382554</ele>
        <time>2021-09-05T12:03:43.000Z</time>
      </trkpt>
      <trkpt lat="49.29347" lon="-1.54016">
        <ele>40.481335</ele>
        <time>2021-09-05T12:03:49.000Z</time>
      </trkpt>
      <trkpt lat="49.29338" lon="-1.54006">
        <ele>40.53715</ele>
        <time>2021-09-05T12:03:52.000Z</time>
      </trkpt>
      <trkpt lat="49.29334" lon="-1.54002">
        <ele>40.558068</ele>
        <time>2021-09-05T12:03:53.000Z</time>
      </trkpt>
      <trkpt lat="49.2933" lon="-1.53998">
        <ele>40.578242</ele>
        <time>2021-09-05T12:03:54.000Z</time>
      </trkpt>
      <trkpt lat="49.29317" lon="-1.53984">
        <ele>40.655756</ele>
        <time>2021-09-05T12:03:58.000Z</time>
      </trkpt>
      <trkpt lat="49.2931" lon="-1.53977">
        <ele>40.696289</ele>
        <time>2021-09-05T12:04:00.000Z</time>
      </trkpt>
      <trkpt lat="49.29299" lon="-1.53968">
        <ele>40.754056</ele>
        <time>2021-09-05T12:04:03.000Z</time>
      </trkpt>
      <trkpt lat="49.29292" lon="-1.53961">
        <ele>40.793457</ele>
        <time>2021-09-05T12:04:05.000Z</time>
      </trkpt>
      <trkpt lat="49.29283" lon="-1.53953">
        <ele>40.837978</ele>
        <time>2021-09-05T12:04:07.000Z</time>
      </trkpt>
      <trkpt lat="49.29275" lon="-1.53945">
        <ele>40.855742</ele>
        <time>2021-09-05T12:04:09.000Z</time>
      </trkpt>
      <trkpt lat="49.2926" lon="-1.53935">
        <ele>40.884952</ele>
        <time>2021-09-05T12:04:12.000Z</time>
      </trkpt>
      <trkpt lat="49.29235" lon="-1.53918">
        <ele>40.933782</ele>
        <time>2021-09-05T12:04:18.000Z</time>
      </trkpt>
      <trkpt lat="49.2923" lon="-1.53915">
        <ele>40.942129</ele>
        <time>2021-09-05T12:04:19.000Z</time>
      </trkpt>
      <trkpt lat="49.29218" lon="-1.53909">
        <ele>40.964687</ele>
        <time>2021-09-05T12:04:22.000Z</time>
      </trkpt>
      <trkpt lat="49.29214" lon="-1.53907">
        <ele>40.973334</ele>
        <time>2021-09-05T12:04:23.000Z</time>
      </trkpt>
      <trkpt lat="49.29183" lon="-1.53891">
        <ele>41.031779</ele>
        <time>2021-09-05T12:04:30.000Z</time>
      </trkpt>
      <trkpt lat="49.2917" lon="-1.53885">
        <ele>41.055671</ele>
        <time>2021-09-05T12:04:33.000Z</time>
      </trkpt>
      <trkpt lat="49.29162" lon="-1.53883">
        <ele>41.070705</ele>
        <time>2021-09-05T12:04:35.000Z</time>
      </trkpt>
      <trkpt lat="49.29158" lon="-1.53882">
        <ele>41.078107</ele>
        <time>2021-09-05T12:04:36.000Z</time>
      </trkpt>
      <trkpt lat="49.29145" lon="-1.53879">
        <ele>41.101603</ele>
        <time>2021-09-05T12:04:39.000Z</time>
      </trkpt>
      <trkpt lat="49.29136" lon="-1.53877">
        <ele>41.117519</ele>
        <time>2021-09-05T12:04:41.000Z</time>
      </trkpt>
      <trkpt lat="49.29113" lon="-1.53872">
        <ele>41.152707</ele>
        <time>2021-09-05T12:04:46.000Z</time>
      </trkpt>
      <trkpt lat="49.29093" lon="-1.53869">
        <ele>41.092738</ele>
        <time>2021-09-05T12:04:50.000Z</time>
      </trkpt>
      <trkpt lat="49.29083" lon="-1.53869">
        <ele>41.064587</ele>
        <time>2021-09-05T12:04:52.000Z</time>
      </trkpt>
      <trkpt lat="49.29056" lon="-1.53868">
        <ele>40.986579</ele>
        <time>2021-09-05T12:04:57.000Z</time>
      </trkpt>
      <trkpt lat="49.29047" lon="-1.53868">
        <ele>40.958722</ele>
        <time>2021-09-05T12:04:59.000Z</time>
      </trkpt>
      <trkpt lat="49.29032" lon="-1.53867">
        <ele>40.915028</ele>
        <time>2021-09-05T12:05:02.000Z</time>
      </trkpt>
      <trkpt lat="49.29017" lon="-1.53867">
        <ele>40.871623</ele>
        <time>2021-09-05T12:05:05.000Z</time>
      </trkpt>
      <trkpt lat="49.29012" lon="-1.53866">
        <ele>40.856666</ele>
        <time>2021-09-05T12:05:06.000Z</time>
      </trkpt>
      <trkpt lat="49.29003" lon="-1.53866">
        <ele>40.829395</ele>
        <time>2021-09-05T12:05:08.000Z</time>
      </trkpt>
      <trkpt lat="49.28998" lon="-1.53866">
        <ele>40.815907</ele>
        <time>2021-09-05T12:05:09.000Z</time>
      </trkpt>
      <trkpt lat="49.28969" lon="-1.53866">
        <ele>40.730002</ele>
        <time>2021-09-05T12:05:15.000Z</time>
      </trkpt>
      <trkpt lat="49.2895" lon="-1.53866">
        <ele>40.675178</ele>
        <time>2021-09-05T12:05:19.000Z</time>
      </trkpt>
      <trkpt lat="49.28928" lon="-1.53866">
        <ele>40.623775</ele>
        <time>2021-09-05T12:05:24.000Z</time>
      </trkpt>
      <trkpt lat="49.28903" lon="-1.53866">
        <ele>40.601754</ele>
        <time>2021-09-05T12:05:29.000Z</time>
      </trkpt>
      <trkpt lat="49.28883" lon="-1.53865">
        <ele>40.58438</ele>
        <time>2021-09-05T12:05:33.000Z</time>
      </trkpt>
      <trkpt lat="49.28875" lon="-1.53865">
        <ele>40.576829</ele>
        <time>2021-09-05T12:05:35.000Z</time>
      </trkpt>
      <trkpt lat="49.28871" lon="-1.53864">
        <ele>40.573406</ele>
        <time>2021-09-05T12:05:36.000Z</time>
      </trkpt>
      <trkpt lat="49.28853" lon="-1.53863">
        <ele>40.557517</ele>
        <time>2021-09-05T12:05:40.000Z</time>
      </trkpt>
      <trkpt lat="49.28837" lon="-1.53863">
        <ele>40.543909</ele>
        <time>2021-09-05T12:05:44.000Z</time>
      </trkpt>
      <trkpt lat="49.28818" lon="-1.53862">
        <ele>40.527229</ele>
        <time>2021-09-05T12:05:49.000Z</time>
      </trkpt>
      <trkpt lat="49.2881" lon="-1.53861">
        <ele>40.519766</ele>
        <time>2021-09-05T12:05:51.000Z</time>
      </trkpt>
      <trkpt lat="49.288" lon="-1.53861">
        <ele>40.511339</ele>
        <time>2021-09-05T12:05:53.000Z</time>
      </trkpt>
      <trkpt lat="49.28762" lon="-1.53856">
        <ele>40.477375</ele>
        <time>2021-09-05T12:06:00.000Z</time>
      </trkpt>
      <trkpt lat="49.28715" lon="-1.5385">
        <ele>40.40737</ele>
        <time>2021-09-05T12:06:08.000Z</time>
      </trkpt>
      <trkpt lat="49.28686" lon="-1.53846">
        <ele>40.359193</ele>
        <time>2021-09-05T12:06:13.000Z</time>
      </trkpt>
      <trkpt lat="49.28675" lon="-1.53844">
        <ele>40.341127</ele>
        <time>2021-09-05T12:06:15.000Z</time>
      </trkpt>
      <trkpt lat="49.2864" lon="-1.5384">
        <ele>40.284002</ele>
        <time>2021-09-05T12:06:22.000Z</time>
      </trkpt>
      <trkpt lat="49.28619" lon="-1.53837">
        <ele>40.249978</ele>
        <time>2021-09-05T12:06:26.000Z</time>
      </trkpt>
      <trkpt lat="49.28608" lon="-1.53835">
        <ele>40.23175</ele>
        <time>2021-09-05T12:06:28.000Z</time>
      </trkpt>
      <trkpt lat="49.28564" lon="-1.53829">
        <ele>40.232697</ele>
        <time>2021-09-05T12:06:36.000Z</time>
      </trkpt>
      <trkpt lat="49.28553" lon="-1.53828">
        <ele>40.279062</ele>
        <time>2021-09-05T12:06:38.000Z</time>
      </trkpt>
      <trkpt lat="49.28543" lon="-1.53826">
        <ele>40.322774</ele>
        <time>2021-09-05T12:06:40.000Z</time>
      </trkpt>
      <trkpt lat="49.28534" lon="-1.53825">
        <ele>40.363449</ele>
        <time>2021-09-05T12:06:42.000Z</time>
      </trkpt>
      <trkpt lat="49.28525" lon="-1.53824">
        <ele>40.401929</ele>
        <time>2021-09-05T12:06:44.000Z</time>
      </trkpt>
      <trkpt lat="49.28511" lon="-1.53822">
        <ele>40.463145</ele>
        <time>2021-09-05T12:06:47.000Z</time>
      </trkpt>
      <trkpt lat="49.285" lon="-1.53821">
        <ele>40.509485</ele>
        <time>2021-09-05T12:06:49.000Z</time>
      </trkpt>
      <trkpt lat="49.28466" lon="-1.53816">
        <ele>40.659042</ele>
        <time>2021-09-05T12:06:55.000Z</time>
      </trkpt>
      <trkpt lat="49.28449" lon="-1.53814">
        <ele>40.735135</ele>
        <time>2021-09-05T12:06:58.000Z</time>
      </trkpt>
      <trkpt lat="49.28437" lon="-1.53812">
        <ele>40.785863</ele>
        <time>2021-09-05T12:07:00.000Z</time>
      </trkpt>
      <trkpt lat="49.28431" lon="-1.53811">
        <ele>40.811661</ele>
        <time>2021-09-05T12:07:01.000Z</time>
      </trkpt>
      <trkpt lat="49.28408" lon="-1.53808">
        <ele>40.912685</ele>
        <time>2021-09-05T12:07:05.000Z</time>
      </trkpt>
      <trkpt lat="49.28386" lon="-1.53805">
        <ele>40.958016</ele>
        <time>2021-09-05T12:07:09.000Z</time>
      </trkpt>
      <trkpt lat="49.28375" lon="-1.53803">
        <ele>40.952472</ele>
        <time>2021-09-05T12:07:11.000Z</time>
      </trkpt>
      <trkpt lat="49.2834" lon="-1.53799">
        <ele>40.935155</ele>
        <time>2021-09-05T12:07:17.000Z</time>
      </trkpt>
      <trkpt lat="49.2831" lon="-1.53795">
        <ele>40.92056</ele>
        <time>2021-09-05T12:07:22.000Z</time>
      </trkpt>
      <trkpt lat="49.28305" lon="-1.53794">
        <ele>40.917837</ele>
        <time>2021-09-05T12:07:23.000Z</time>
      </trkpt>
      <trkpt lat="49.28293" lon="-1.53792">
        <ele>40.9121</ele>
        <time>2021-09-05T12:07:25.000Z</time>
      </trkpt>
      <trkpt lat="49.28269" lon="-1.53789">
        <ele>40.900026</ele>
        <time>2021-09-05T12:07:29.000Z</time>
      </trkpt>
      <trkpt lat="49.2823" lon="-1.53783">
        <ele>40.880679</ele>
        <time>2021-09-05T12:07:35.000Z</time>
      </trkpt>
      <trkpt lat="49.28191" lon="-1.53778">
        <ele>40.462264</ele>
        <time>2021-09-05T12:07:41.000Z</time>
      </trkpt>
      <trkpt lat="49.28138" lon="-1.53771">
        <ele>39.63875</ele>
        <time>2021-09-05T12:07:49.000Z</time>
      </trkpt>
      <trkpt lat="49.28107" lon="-1.53766">
        <ele>39.14329</ele>
        <time>2021-09-05T12:07:54.000Z</time>
      </trkpt>
      <trkpt lat="49.28095" lon="-1.53765">
        <ele>38.966583</ele>
        <time>2021-09-05T12:07:56.000Z</time>
      </trkpt>
      <trkpt lat="49.28084" lon="-1.53763">
        <ele>38.794522</ele>
        <time>2021-09-05T12:07:58.000Z</time>
      </trkpt>
      <trkpt lat="49.28078" lon="-1.53762">
        <ele>38.700697</ele>
        <time>2021-09-05T12:07:59.000Z</time>
      </trkpt>
      <trkpt lat="49.28054" lon="-1.53759">
        <ele>38.317655</ele>
        <time>2021-09-05T12:08:03.000Z</time>
      </trkpt>
      <trkpt lat="49.28009" lon="-1.53752">
        <ele>37.530479</ele>
        <time>2021-09-05T12:08:10.000Z</time>
      </trkpt>
      <trkpt lat="49.27963" lon="-1.53745">
        <ele>36.682638</ele>
        <time>2021-09-05T12:08:17.000Z</time>
      </trkpt>
      <trkpt lat="49.27909" lon="-1.53737">
        <ele>35.67856</ele>
        <time>2021-09-05T12:08:25.000Z</time>
      </trkpt>
      <trkpt lat="49.27902" lon="-1.53736">
        <ele>35.546617</ele>
        <time>2021-09-05T12:08:26.000Z</time>
      </trkpt>
      <trkpt lat="49.27855" lon="-1.53728">
        <ele>34.723895</ele>
        <time>2021-09-05T12:08:33.000Z</time>
      </trkpt>
      <trkpt lat="49.27816" lon="-1.53722">
        <ele>34.503198</ele>
        <time>2021-09-05T12:08:39.000Z</time>
      </trkpt>
      <trkpt lat="49.27768" lon="-1.53714">
        <ele>34.238518</ele>
        <time>2021-09-05T12:08:46.000Z</time>
      </trkpt>
      <trkpt lat="49.27714" lon="-1.53705">
        <ele>33.937016</ele>
        <time>2021-09-05T12:08:54.000Z</time>
      </trkpt>
      <trkpt lat="49.27701" lon="-1.53703">
        <ele>33.866244</ele>
        <time>2021-09-05T12:08:56.000Z</time>
      </trkpt>
      <trkpt lat="49.27682" lon="-1.537">
        <ele>33.75979</ele>
        <time>2021-09-05T12:08:59.000Z</time>
      </trkpt>
      <trkpt lat="49.27638" lon="-1.53693">
        <ele>33.469615</ele>
        <time>2021-09-05T12:09:06.000Z</time>
      </trkpt>
      <trkpt lat="49.27597" lon="-1.53687">
        <ele>33.195916</ele>
        <time>2021-09-05T12:09:13.000Z</time>
      </trkpt>
      <trkpt lat="49.27555" lon="-1.53682">
        <ele>32.920867</ele>
        <time>2021-09-05T12:09:20.000Z</time>
      </trkpt>
      <trkpt lat="49.27543" lon="-1.5368">
        <ele>32.84287</ele>
        <time>2021-09-05T12:09:22.000Z</time>
      </trkpt>
      <trkpt lat="49.27526" lon="-1.53678">
        <ele>32.727825</ele>
        <time>2021-09-05T12:09:25.000Z</time>
      </trkpt>
      <trkpt lat="49.27486" lon="-1.53673">
        <ele>32.588371</ele>
        <time>2021-09-05T12:09:32.000Z</time>
      </trkpt>
      <trkpt lat="49.27469" lon="-1.53671">
        <ele>32.612968</ele>
        <time>2021-09-05T12:09:35.000Z</time>
      </trkpt>
      <trkpt lat="49.27453" lon="-1.53669">
        <ele>32.636822</ele>
        <time>2021-09-05T12:09:38.000Z</time>
      </trkpt>
      <trkpt lat="49.27418" lon="-1.53664">
        <ele>32.688534</ele>
        <time>2021-09-05T12:09:45.000Z</time>
      </trkpt>
      <trkpt lat="49.2741" lon="-1.53663">
        <ele>32.700833</ele>
        <time>2021-09-05T12:09:47.000Z</time>
      </trkpt>
      <trkpt lat="49.27401" lon="-1.53662">
        <ele>32.713867</ele>
        <time>2021-09-05T12:09:49.000Z</time>
      </trkpt>
      <trkpt lat="49.27382" lon="-1.5366">
        <ele>32.742401</ele>
        <time>2021-09-05T12:09:54.000Z</time>
      </trkpt>
      <trkpt lat="49.27379" lon="-1.5366">
        <ele>32.747126</ele>
        <time>2021-09-05T12:09:55.000Z</time>
      </trkpt>
      <trkpt lat="49.27354" lon="-1.53658">
        <ele>32.783798</ele>
        <time>2021-09-05T12:09:59.000Z</time>
      </trkpt>
      <trkpt lat="49.27311" lon="-1.5365">
        <ele>32.970227</ele>
        <time>2021-09-05T12:10:07.000Z</time>
      </trkpt>
      <trkpt lat="49.27278" lon="-1.53643">
        <ele>33.372414</ele>
        <time>2021-09-05T12:10:13.000Z</time>
      </trkpt>
      <trkpt lat="49.27238" lon="-1.53638">
        <ele>33.850814</ele>
        <time>2021-09-05T12:10:20.000Z</time>
      </trkpt>
      <trkpt lat="49.27189" lon="-1.53636">
        <ele>34.441762</ele>
        <time>2021-09-05T12:10:29.000Z</time>
      </trkpt>
      <trkpt lat="49.27163" lon="-1.53636">
        <ele>34.757684</ele>
        <time>2021-09-05T12:10:34.000Z</time>
      </trkpt>
      <trkpt lat="49.27158" lon="-1.53636">
        <ele>34.820406</ele>
        <time>2021-09-05T12:10:35.000Z</time>
      </trkpt>
      <trkpt lat="49.27127" lon="-1.53638">
        <ele>35.338246</ele>
        <time>2021-09-05T12:10:41.000Z</time>
      </trkpt>
      <trkpt lat="49.27122" lon="-1.53638">
        <ele>35.445173</ele>
        <time>2021-09-05T12:10:42.000Z</time>
      </trkpt>
      <trkpt lat="49.27082" lon="-1.53641">
        <ele>36.301396</ele>
        <time>2021-09-05T12:10:50.000Z</time>
      </trkpt>
      <trkpt lat="49.27068" lon="-1.53645">
        <ele>36.606371</ele>
        <time>2021-09-05T12:10:53.000Z</time>
      </trkpt>
      <trkpt lat="49.27055" lon="-1.53649">
        <ele>36.898493</ele>
        <time>2021-09-05T12:10:56.000Z</time>
      </trkpt>
      <trkpt lat="49.27033" lon="-1.53656">
        <ele>37.364352</ele>
        <time>2021-09-05T12:11:01.000Z</time>
      </trkpt>
      <trkpt lat="49.26997" lon="-1.53666">
        <ele>38.155137</ele>
        <time>2021-09-05T12:11:08.000Z</time>
      </trkpt>
      <trkpt lat="49.26962" lon="-1.53677">
        <ele>38.915229</ele>
        <time>2021-09-05T12:11:15.000Z</time>
      </trkpt>
      <trkpt lat="49.26927" lon="-1.5369">
        <ele>39.841919</ele>
        <time>2021-09-05T12:11:22.000Z</time>
      </trkpt>
      <trkpt lat="49.26883" lon="-1.53707">
        <ele>40.986661</ele>
        <time>2021-09-05T12:11:31.000Z</time>
      </trkpt>
      <trkpt lat="49.26864" lon="-1.53714">
        <ele>41.469109</ele>
        <time>2021-09-05T12:11:35.000Z</time>
      </trkpt>
      <trkpt lat="49.2685" lon="-1.5372">
        <ele>41.831659</ele>
        <time>2021-09-05T12:11:38.000Z</time>
      </trkpt>
      <trkpt lat="49.26828" lon="-1.53729">
        <ele>42.425848</ele>
        <time>2021-09-05T12:11:43.000Z</time>
      </trkpt>
      <trkpt lat="49.26819" lon="-1.53732">
        <ele>42.652594</ele>
        <time>2021-09-05T12:11:45.000Z</time>
      </trkpt>
      <trkpt lat="49.26782" lon="-1.53747">
        <ele>43.571546</ele>
        <time>2021-09-05T12:11:53.000Z</time>
      </trkpt>
      <trkpt lat="49.26769" lon="-1.53752">
        <ele>43.848967</ele>
        <time>2021-09-05T12:11:56.000Z</time>
      </trkpt>
      <trkpt lat="49.2676" lon="-1.53755">
        <ele>44.034676</ele>
        <time>2021-09-05T12:11:58.000Z</time>
      </trkpt>
      <trkpt lat="49.26755" lon="-1.53757">
        <ele>44.12835</ele>
        <time>2021-09-05T12:11:59.000Z</time>
      </trkpt>
      <trkpt lat="49.26725" lon="-1.53769">
        <ele>44.754344</ele>
        <time>2021-09-05T12:12:06.000Z</time>
      </trkpt>
      <trkpt lat="49.26703" lon="-1.53778">
        <ele>45.21356</ele>
        <time>2021-09-05T12:12:11.000Z</time>
      </trkpt>
      <trkpt lat="49.26691" lon="-1.53783">
        <ele>45.468467</ele>
        <time>2021-09-05T12:12:14.000Z</time>
      </trkpt>
      <trkpt lat="49.26682" lon="-1.53786">
        <ele>45.65842</ele>
        <time>2021-09-05T12:12:16.000Z</time>
      </trkpt>
      <trkpt lat="49.26651" lon="-1.53798">
        <ele>46.296168</ele>
        <time>2021-09-05T12:12:23.000Z</time>
      </trkpt>
      <trkpt lat="49.26598" lon="-1.53816">
        <ele>47.275734</ele>
        <time>2021-09-05T12:12:32.000Z</time>
      </trkpt>
      <trkpt lat="49.26544" lon="-1.53829">
        <ele>48.019754</ele>
        <time>2021-09-05T12:12:42.000Z</time>
      </trkpt>
      <trkpt lat="49.26487" lon="-1.53839">
        <ele>48.789458</ele>
        <time>2021-09-05T12:12:52.000Z</time>
      </trkpt>
      <trkpt lat="49.26454" lon="-1.53842">
        <ele>49.238581</ele>
        <time>2021-09-05T12:12:58.000Z</time>
      </trkpt>
      <trkpt lat="49.26412" lon="-1.53844">
        <ele>49.659172</ele>
        <time>2021-09-05T12:13:05.000Z</time>
      </trkpt>
      <trkpt lat="49.26368" lon="-1.53845">
        <ele>50.001114</ele>
        <time>2021-09-05T12:13:12.000Z</time>
      </trkpt>
      <trkpt lat="49.26319" lon="-1.53838">
        <ele>50.391494</ele>
        <time>2021-09-05T12:13:20.000Z</time>
      </trkpt>
      <trkpt lat="49.26303" lon="-1.53835">
        <ele>50.514083</ele>
        <time>2021-09-05T12:13:23.000Z</time>
      </trkpt>
      <trkpt lat="49.26292" lon="-1.53832">
        <ele>50.601874</ele>
        <time>2021-09-05T12:13:25.000Z</time>
      </trkpt>
      <trkpt lat="49.26286" lon="-1.5383">
        <ele>50.645385</ele>
        <time>2021-09-05T12:13:26.000Z</time>
      </trkpt>
      <trkpt lat="49.26268" lon="-1.53825">
        <ele>50.790935</ele>
        <time>2021-09-05T12:13:29.000Z</time>
      </trkpt>
      <trkpt lat="49.26218" lon="-1.53812">
        <ele>51.044117</ele>
        <time>2021-09-05T12:13:37.000Z</time>
      </trkpt>
      <trkpt lat="49.26184" lon="-1.53802">
        <ele>51.197968</ele>
        <time>2021-09-05T12:13:43.000Z</time>
      </trkpt>
      <trkpt lat="49.26174" lon="-1.538">
        <ele>51.244303</ele>
        <time>2021-09-05T12:13:45.000Z</time>
      </trkpt>
      <trkpt lat="49.26169" lon="-1.53798">
        <ele>51.265893</ele>
        <time>2021-09-05T12:13:46.000Z</time>
      </trkpt>
      <trkpt lat="49.26145" lon="-1.53792">
        <ele>51.373074</ele>
        <time>2021-09-05T12:13:51.000Z</time>
      </trkpt>
      <trkpt lat="49.26123" lon="-1.53788">
        <ele>51.470545</ele>
        <time>2021-09-05T12:13:55.000Z</time>
      </trkpt>
      <trkpt lat="49.26115" lon="-1.53786">
        <ele>51.50588</ele>
        <time>2021-09-05T12:13:57.000Z</time>
      </trkpt>
      <trkpt lat="49.26113" lon="-1.53786">
        <ele>51.517964</ele>
        <time>2021-09-05T12:13:58.000Z</time>
      </trkpt>
      <trkpt lat="49.26109" lon="-1.53785">
        <ele>51.536711</ele>
        <time>2021-09-05T12:14:00.000Z</time>
      </trkpt>
      <trkpt lat="49.26094" lon="-1.53782">
        <ele>51.599764</ele>
        <time>2021-09-05T12:14:04.000Z</time>
      </trkpt>
      <trkpt lat="49.26086" lon="-1.5378">
        <ele>51.639566</ele>
        <time>2021-09-05T12:14:06.000Z</time>
      </trkpt>
      <trkpt lat="49.26076" lon="-1.53777">
        <ele>51.601613</ele>
        <time>2021-09-05T12:14:08.000Z</time>
      </trkpt>
      <trkpt lat="49.26045" lon="-1.53767">
        <ele>51.296609</ele>
        <time>2021-09-05T12:14:14.000Z</time>
      </trkpt>
      <trkpt lat="49.26004" lon="-1.53752">
        <ele>50.884538</ele>
        <time>2021-09-05T12:14:21.000Z</time>
      </trkpt>
      <trkpt lat="49.25981" lon="-1.53744">
        <ele>50.650547</ele>
        <time>2021-09-05T12:14:25.000Z</time>
      </trkpt>
      <trkpt lat="49.25946" lon="-1.53732">
        <ele>50.29984</ele>
        <time>2021-09-05T12:14:31.000Z</time>
      </trkpt>
      <trkpt lat="49.25903" lon="-1.5372">
        <ele>49.893602</ele>
        <time>2021-09-05T12:14:38.000Z</time>
      </trkpt>
      <trkpt lat="49.25849" lon="-1.53704">
        <ele>49.70781</ele>
        <time>2021-09-05T12:14:47.000Z</time>
      </trkpt>
      <trkpt lat="49.25843" lon="-1.53702">
        <ele>49.686418</ele>
        <time>2021-09-05T12:14:48.000Z</time>
      </trkpt>
      <trkpt lat="49.25804" lon="-1.5369">
        <ele>49.552068</ele>
        <time>2021-09-05T12:14:55.000Z</time>
      </trkpt>
      <trkpt lat="49.25797" lon="-1.53687">
        <ele>49.526965</ele>
        <time>2021-09-05T12:14:57.000Z</time>
      </trkpt>
      <trkpt lat="49.25795" lon="-1.53682">
        <ele>49.514842</ele>
        <time>2021-09-05T12:14:58.000Z</time>
      </trkpt>
      <trkpt lat="49.25792" lon="-1.53669">
        <ele>49.485048</ele>
        <time>2021-09-05T12:15:01.000Z</time>
      </trkpt>
      <trkpt lat="49.2579" lon="-1.53669">
        <ele>49.476234</ele>
        <time>2021-09-05T12:15:02.000Z</time>
      </trkpt>
      <trkpt lat="49.25783" lon="-1.5367">
        <ele>49.453771</ele>
        <time>2021-09-05T12:15:04.000Z</time>
      </trkpt>
      <trkpt lat="49.25779" lon="-1.53672">
        <ele>49.439115</ele>
        <time>2021-09-05T12:15:05.000Z</time>
      </trkpt>
      <trkpt lat="49.2577" lon="-1.53677">
        <ele>49.407201</ele>
        <time>2021-09-05T12:15:07.000Z</time>
      </trkpt>
      <trkpt lat="49.25758" lon="-1.5368">
        <ele>49.366986</ele>
        <time>2021-09-05T12:15:09.000Z</time>
      </trkpt>
      <trkpt lat="49.25722" lon="-1.53669">
        <ele>49.256909</ele>
        <time>2021-09-05T12:15:16.000Z</time>
      </trkpt>
      <trkpt lat="49.25684" lon="-1.53658">
        <ele>49.165836</ele>
        <time>2021-09-05T12:15:23.000Z</time>
      </trkpt>
      <trkpt lat="49.25663" lon="-1.53651">
        <ele>49.115131</ele>
        <time>2021-09-05T12:15:27.000Z</time>
      </trkpt>
      <trkpt lat="49.25618" lon="-1.53638">
        <ele>49.008884</ele>
        <time>2021-09-05T12:15:35.000Z</time>
      </trkpt>
      <trkpt lat="49.25574" lon="-1.53625">
        <ele>48.901219</ele>
        <time>2021-09-05T12:15:43.000Z</time>
      </trkpt>
      <trkpt lat="49.25533" lon="-1.53612">
        <ele>48.470151</ele>
        <time>2021-09-05T12:15:50.000Z</time>
      </trkpt>
      <trkpt lat="49.25492" lon="-1.536">
        <ele>47.872933</ele>
        <time>2021-09-05T12:15:57.000Z</time>
      </trkpt>
      <trkpt lat="49.2546" lon="-1.53591">
        <ele>47.42018</ele>
        <time>2021-09-05T12:16:03.000Z</time>
      </trkpt>
      <trkpt lat="49.25402" lon="-1.53573">
        <ele>46.575849</ele>
        <time>2021-09-05T12:16:11.000Z</time>
      </trkpt>
      <trkpt lat="49.25395" lon="-1.53572">
        <ele>46.480691</ele>
        <time>2021-09-05T12:16:12.000Z</time>
      </trkpt>
      <trkpt lat="49.25355" lon="-1.5356">
        <ele>45.848038</ele>
        <time>2021-09-05T12:16:18.000Z</time>
      </trkpt>
      <trkpt lat="49.25307" lon="-1.53546">
        <ele>45.075618</ele>
        <time>2021-09-05T12:16:25.000Z</time>
      </trkpt>
      <trkpt lat="49.25253" lon="-1.53531">
        <ele>44.219805</ele>
        <time>2021-09-05T12:16:33.000Z</time>
      </trkpt>
      <trkpt lat="49.25206" lon="-1.53518">
        <ele>43.455167</ele>
        <time>2021-09-05T12:16:40.000Z</time>
      </trkpt>
      <trkpt lat="49.2515" lon="-1.53501">
        <ele>42.517421</ele>
        <time>2021-09-05T12:16:48.000Z</time>
      </trkpt>
      <trkpt lat="49.25103" lon="-1.53486">
        <ele>41.718231</ele>
        <time>2021-09-05T12:16:55.000Z</time>
      </trkpt>
      <trkpt lat="49.25057" lon="-1.53473">
        <ele>40.94306</ele>
        <time>2021-09-05T12:17:02.000Z</time>
      </trkpt>
      <trkpt lat="49.25051" lon="-1.53471">
        <ele>40.835923</ele>
        <time>2021-09-05T12:17:03.000Z</time>
      </trkpt>
      <trkpt lat="49.25044" lon="-1.5347">
        <ele>40.732217</ele>
        <time>2021-09-05T12:17:04.000Z</time>
      </trkpt>
      <trkpt lat="49.25034" lon="-1.53468">
        <ele>40.559873</ele>
        <time>2021-09-05T12:17:06.000Z</time>
      </trkpt>
      <trkpt lat="49.25014" lon="-1.53462">
        <ele>40.091138</ele>
        <time>2021-09-05T12:17:11.000Z</time>
      </trkpt>
      <trkpt lat="49.25005" lon="-1.5346">
        <ele>39.894339</ele>
        <time>2021-09-05T12:17:13.000Z</time>
      </trkpt>
      <trkpt lat="49.25001" lon="-1.53458">
        <ele>39.782814</ele>
        <time>2021-09-05T12:17:14.000Z</time>
      </trkpt>
      <trkpt lat="49.24996" lon="-1.53457">
        <ele>39.666621</ele>
        <time>2021-09-05T12:17:15.000Z</time>
      </trkpt>
      <trkpt lat="49.24978" lon="-1.53451">
        <ele>39.234507</ele>
        <time>2021-09-05T12:17:18.000Z</time>
      </trkpt>
      <trkpt lat="49.24972" lon="-1.53449">
        <ele>39.074519</ele>
        <time>2021-09-05T12:17:19.000Z</time>
      </trkpt>
      <trkpt lat="49.24945" lon="-1.53441">
        <ele>38.426658</ele>
        <time>2021-09-05T12:17:23.000Z</time>
      </trkpt>
      <trkpt lat="49.24918" lon="-1.53433">
        <ele>37.781127</ele>
        <time>2021-09-05T12:17:27.000Z</time>
      </trkpt>
      <trkpt lat="49.24877" lon="-1.53421">
        <ele>36.78293</ele>
        <time>2021-09-05T12:17:33.000Z</time>
      </trkpt>
      <trkpt lat="49.24836" lon="-1.53411">
        <ele>35.787182</ele>
        <time>2021-09-05T12:17:39.000Z</time>
      </trkpt>
      <trkpt lat="49.24795" lon="-1.53405">
        <ele>34.832958</ele>
        <time>2021-09-05T12:17:45.000Z</time>
      </trkpt>
      <trkpt lat="49.2474" lon="-1.53398">
        <ele>33.535867</ele>
        <time>2021-09-05T12:17:53.000Z</time>
      </trkpt>
      <trkpt lat="49.24734" lon="-1.53397">
        <ele>33.389644</ele>
        <time>2021-09-05T12:17:54.000Z</time>
      </trkpt>
      <trkpt lat="49.24721" lon="-1.53396">
        <ele>33.087789</ele>
        <time>2021-09-05T12:17:56.000Z</time>
      </trkpt>
      <trkpt lat="49.24715" lon="-1.53396">
        <ele>32.941566</ele>
        <time>2021-09-05T12:17:57.000Z</time>
      </trkpt>
      <trkpt lat="49.24677" lon="-1.53393">
        <ele>32.035922</ele>
        <time>2021-09-05T12:18:03.000Z</time>
      </trkpt>
      <trkpt lat="49.24638" lon="-1.5339">
        <ele>31.63975</ele>
        <time>2021-09-05T12:18:09.000Z</time>
      </trkpt>
      <trkpt lat="49.246" lon="-1.53387">
        <ele>31.278721</ele>
        <time>2021-09-05T12:18:15.000Z</time>
      </trkpt>
      <trkpt lat="49.24567" lon="-1.53384">
        <ele>30.961489</ele>
        <time>2021-09-05T12:18:20.000Z</time>
      </trkpt>
      <trkpt lat="49.24556" lon="-1.53383">
        <ele>30.859545</ele>
        <time>2021-09-05T12:18:22.000Z</time>
      </trkpt>
      <trkpt lat="49.24535" lon="-1.53382">
        <ele>30.652997</ele>
        <time>2021-09-05T12:18:26.000Z</time>
      </trkpt>
      <trkpt lat="49.24512" lon="-1.53383">
        <ele>30.434123</ele>
        <time>2021-09-05T12:18:30.000Z</time>
      </trkpt>
      <trkpt lat="49.24476" lon="-1.53383">
        <ele>30.211012</ele>
        <time>2021-09-05T12:18:36.000Z</time>
      </trkpt>
      <trkpt lat="49.24447" lon="-1.53382">
        <ele>30.109526</ele>
        <time>2021-09-05T12:18:41.000Z</time>
      </trkpt>
      <trkpt lat="49.24403" lon="-1.53381">
        <ele>29.959205</ele>
        <time>2021-09-05T12:18:48.000Z</time>
      </trkpt>
      <trkpt lat="49.24386" lon="-1.5338">
        <ele>29.899976</ele>
        <time>2021-09-05T12:18:51.000Z</time>
      </trkpt>
      <trkpt lat="49.2438" lon="-1.5338">
        <ele>29.879542</ele>
        <time>2021-09-05T12:18:52.000Z</time>
      </trkpt>
      <trkpt lat="49.24368" lon="-1.53379">
        <ele>29.838669</ele>
        <time>2021-09-05T12:18:54.000Z</time>
      </trkpt>
      <trkpt lat="49.24349" lon="-1.53378">
        <ele>29.771825</ele>
        <time>2021-09-05T12:18:57.000Z</time>
      </trkpt>
      <trkpt lat="49.24304" lon="-1.53377">
        <ele>29.638518</ele>
        <time>2021-09-05T12:19:04.000Z</time>
      </trkpt>
      <trkpt lat="49.24258" lon="-1.53375">
        <ele>29.570467</ele>
        <time>2021-09-05T12:19:11.000Z</time>
      </trkpt>
      <trkpt lat="49.24217" lon="-1.53373">
        <ele>29.509472</ele>
        <time>2021-09-05T12:19:17.000Z</time>
      </trkpt>
      <trkpt lat="49.24169" lon="-1.53371">
        <ele>29.438922</ele>
        <time>2021-09-05T12:19:24.000Z</time>
      </trkpt>
      <trkpt lat="49.24119" lon="-1.53369">
        <ele>29.398731</ele>
        <time>2021-09-05T12:19:31.000Z</time>
      </trkpt>
      <trkpt lat="49.24069" lon="-1.53367">
        <ele>29.425366</ele>
        <time>2021-09-05T12:19:38.000Z</time>
      </trkpt>
      <trkpt lat="49.24034" lon="-1.53366">
        <ele>29.444059</ele>
        <time>2021-09-05T12:19:43.000Z</time>
      </trkpt>
      <trkpt lat="49.24" lon="-1.53365">
        <ele>29.461905</ele>
        <time>2021-09-05T12:19:48.000Z</time>
      </trkpt>
      <trkpt lat="49.23945" lon="-1.53363">
        <ele>29.461396</ele>
        <time>2021-09-05T12:19:56.000Z</time>
      </trkpt>
      <trkpt lat="49.23933" lon="-1.53362">
        <ele>29.431615</ele>
        <time>2021-09-05T12:19:58.000Z</time>
      </trkpt>
      <trkpt lat="49.23881" lon="-1.5336">
        <ele>29.311559</ele>
        <time>2021-09-05T12:20:06.000Z</time>
      </trkpt>
      <trkpt lat="49.23836" lon="-1.53358">
        <ele>29.208019</ele>
        <time>2021-09-05T12:20:13.000Z</time>
      </trkpt>
      <trkpt lat="49.23823" lon="-1.53358">
        <ele>29.176843</ele>
        <time>2021-09-05T12:20:15.000Z</time>
      </trkpt>
      <trkpt lat="49.23804" lon="-1.53357">
        <ele>29.131704</ele>
        <time>2021-09-05T12:20:18.000Z</time>
      </trkpt>
      <trkpt lat="49.2379" lon="-1.53356">
        <ele>29.100295</ele>
        <time>2021-09-05T12:20:20.000Z</time>
      </trkpt>
      <trkpt lat="49.23771" lon="-1.53356">
        <ele>29.025215</ele>
        <time>2021-09-05T12:20:23.000Z</time>
      </trkpt>
      <trkpt lat="49.23738" lon="-1.53354">
        <ele>28.729672</ele>
        <time>2021-09-05T12:20:29.000Z</time>
      </trkpt>
      <trkpt lat="49.23678" lon="-1.53352">
        <ele>28.190368</ele>
        <time>2021-09-05T12:20:37.000Z</time>
      </trkpt>
      <trkpt lat="49.23624" lon="-1.5335">
        <ele>27.713569</ele>
        <time>2021-09-05T12:20:45.000Z</time>
      </trkpt>
      <trkpt lat="49.23584" lon="-1.53349">
        <ele>27.445059</ele>
        <time>2021-09-05T12:20:51.000Z</time>
      </trkpt>
      <trkpt lat="49.23543" lon="-1.53347">
        <ele>27.39171</ele>
        <time>2021-09-05T12:20:57.000Z</time>
      </trkpt>
      <trkpt lat="49.23512" lon="-1.53347">
        <ele>27.350642</ele>
        <time>2021-09-05T12:21:02.000Z</time>
      </trkpt>
      <trkpt lat="49.23481" lon="-1.53346">
        <ele>27.310103</ele>
        <time>2021-09-05T12:21:07.000Z</time>
      </trkpt>
      <trkpt lat="49.23443" lon="-1.53345">
        <ele>27.259528</ele>
        <time>2021-09-05T12:21:13.000Z</time>
      </trkpt>
      <trkpt lat="49.23431" lon="-1.53344">
        <ele>27.243155</ele>
        <time>2021-09-05T12:21:15.000Z</time>
      </trkpt>
      <trkpt lat="49.23413" lon="-1.53344">
        <ele>27.199014</ele>
        <time>2021-09-05T12:21:18.000Z</time>
      </trkpt>
      <trkpt lat="49.23387" lon="-1.53343">
        <ele>27.011808</ele>
        <time>2021-09-05T12:21:22.000Z</time>
      </trkpt>
      <trkpt lat="49.23374" lon="-1.53343">
        <ele>26.92002</ele>
        <time>2021-09-05T12:21:24.000Z</time>
      </trkpt>
      <trkpt lat="49.23331" lon="-1.53341">
        <ele>26.604608</ele>
        <time>2021-09-05T12:21:31.000Z</time>
      </trkpt>
      <trkpt lat="49.23301" lon="-1.5334">
        <ele>26.384615</ele>
        <time>2021-09-05T12:21:36.000Z</time>
      </trkpt>
      <trkpt lat="49.23294" lon="-1.5334">
        <ele>26.336537</ele>
        <time>2021-09-05T12:21:37.000Z</time>
      </trkpt>
      <trkpt lat="49.23262" lon="-1.53339">
        <ele>26.097611</ele>
        <time>2021-09-05T12:21:42.000Z</time>
      </trkpt>
      <trkpt lat="49.23229" lon="-1.53338">
        <ele>25.848084</ele>
        <time>2021-09-05T12:21:47.000Z</time>
      </trkpt>
      <trkpt lat="49.23204" lon="-1.53338">
        <ele>25.612127</ele>
        <time>2021-09-05T12:21:51.000Z</time>
      </trkpt>
      <trkpt lat="49.23192" lon="-1.53337">
        <ele>25.501589</ele>
        <time>2021-09-05T12:21:53.000Z</time>
      </trkpt>
      <trkpt lat="49.23167" lon="-1.53337">
        <ele>25.272145</ele>
        <time>2021-09-05T12:21:57.000Z</time>
      </trkpt>
      <trkpt lat="49.2313" lon="-1.53335">
        <ele>24.923687</ele>
        <time>2021-09-05T12:22:03.000Z</time>
      </trkpt>
      <trkpt lat="49.23091" lon="-1.53333">
        <ele>24.565927</ele>
        <time>2021-09-05T12:22:10.000Z</time>
      </trkpt>
      <trkpt lat="49.23058" lon="-1.53331">
        <ele>24.260209</ele>
        <time>2021-09-05T12:22:14.000Z</time>
      </trkpt>
      <trkpt lat="49.23045" lon="-1.5333">
        <ele>24.101698</ele>
        <time>2021-09-05T12:22:16.000Z</time>
      </trkpt>
      <trkpt lat="49.23004" lon="-1.53326">
        <ele>23.602858</ele>
        <time>2021-09-05T12:22:22.000Z</time>
      </trkpt>
      <trkpt lat="49.22985" lon="-1.53324">
        <ele>23.37299</ele>
        <time>2021-09-05T12:22:25.000Z</time>
      </trkpt>
      <trkpt lat="49.22942" lon="-1.53319">
        <ele>22.842347</ele>
        <time>2021-09-05T12:22:31.000Z</time>
      </trkpt>
      <trkpt lat="49.22885" lon="-1.53303">
        <ele>22.135063</ele>
        <time>2021-09-05T12:22:39.000Z</time>
      </trkpt>
      <trkpt lat="49.22829" lon="-1.53282">
        <ele>21.644086</ele>
        <time>2021-09-05T12:22:47.000Z</time>
      </trkpt>
      <trkpt lat="49.22808" lon="-1.53274">
        <ele>21.47719</ele>
        <time>2021-09-05T12:22:50.000Z</time>
      </trkpt>
      <trkpt lat="49.22788" lon="-1.53267">
        <ele>21.316065</ele>
        <time>2021-09-05T12:22:53.000Z</time>
      </trkpt>
      <trkpt lat="49.22776" lon="-1.53262">
        <ele>21.214594</ele>
        <time>2021-09-05T12:22:55.000Z</time>
      </trkpt>
      <trkpt lat="49.22764" lon="-1.53258">
        <ele>21.119666</ele>
        <time>2021-09-05T12:22:57.000Z</time>
      </trkpt>
      <trkpt lat="49.22759" lon="-1.53256">
        <ele>21.073096</ele>
        <time>2021-09-05T12:22:58.000Z</time>
      </trkpt>
      <trkpt lat="49.22759" lon="-1.53256">
        <ele>21.073096</ele>
        <time>2021-09-05T12:22:59.000Z</time>
      </trkpt>
      <trkpt lat="49.22743" lon="-1.53249">
        <ele>20.941351</ele>
        <time>2021-09-05T12:23:01.000Z</time>
      </trkpt>
      <trkpt lat="49.22718" lon="-1.53241">
        <ele>20.742807</ele>
        <time>2021-09-05T12:23:06.000Z</time>
      </trkpt>
      <trkpt lat="49.22713" lon="-1.5324">
        <ele>20.701555</ele>
        <time>2021-09-05T12:23:07.000Z</time>
      </trkpt>
      <trkpt lat="49.22708" lon="-1.53238">
        <ele>20.658644</ele>
        <time>2021-09-05T12:23:08.000Z</time>
      </trkpt>
      <trkpt lat="49.22697" lon="-1.53235">
        <ele>20.558318</ele>
        <time>2021-09-05T12:23:10.000Z</time>
      </trkpt>
      <trkpt lat="49.22661" lon="-1.53224">
        <ele>20.20129</ele>
        <time>2021-09-05T12:23:16.000Z</time>
      </trkpt>
      <trkpt lat="49.22642" lon="-1.53218">
        <ele>20.011971</ele>
        <time>2021-09-05T12:23:19.000Z</time>
      </trkpt>
      <trkpt lat="49.22628" lon="-1.53213">
        <ele>19.879785</ele>
        <time>2021-09-05T12:23:21.000Z</time>
      </trkpt>
      <trkpt lat="49.22581" lon="-1.53195">
        <ele>19.406865</ele>
        <time>2021-09-05T12:23:28.000Z</time>
      </trkpt>
      <trkpt lat="49.22529" lon="-1.53174">
        <ele>18.882983</ele>
        <time>2021-09-05T12:23:36.000Z</time>
      </trkpt>
      <trkpt lat="49.22476" lon="-1.53154">
        <ele>17.65323</ele>
        <time>2021-09-05T12:23:44.000Z</time>
      </trkpt>
      <trkpt lat="49.22431" lon="-1.53139">
        <ele>16.601926</ele>
        <time>2021-09-05T12:23:51.000Z</time>
      </trkpt>
      <trkpt lat="49.22399" lon="-1.53128">
        <ele>15.860186</ele>
        <time>2021-09-05T12:23:56.000Z</time>
      </trkpt>
      <trkpt lat="49.22393" lon="-1.53126">
        <ele>15.720773</ele>
        <time>2021-09-05T12:23:58.000Z</time>
      </trkpt>
      <trkpt lat="49.22352" lon="-1.53112">
        <ele>14.775408</ele>
        <time>2021-09-05T12:24:04.000Z</time>
      </trkpt>
      <trkpt lat="49.22336" lon="-1.53107">
        <ele>14.468131</ele>
        <time>2021-09-05T12:24:07.000Z</time>
      </trkpt>
      <trkpt lat="49.22328" lon="-1.53104">
        <ele>14.312796</ele>
        <time>2021-09-05T12:24:09.000Z</time>
      </trkpt>
      <trkpt lat="49.22309" lon="-1.53098">
        <ele>13.957666</ele>
        <time>2021-09-05T12:24:14.000Z</time>
      </trkpt>
      <trkpt lat="49.22305" lon="-1.53096">
        <ele>13.880498</ele>
        <time>2021-09-05T12:24:15.000Z</time>
      </trkpt>
      <trkpt lat="49.22296" lon="-1.53093">
        <ele>13.701332</ele>
        <time>2021-09-05T12:24:17.000Z</time>
      </trkpt>
      <trkpt lat="49.22286" lon="-1.53089">
        <ele>13.512486</ele>
        <time>2021-09-05T12:24:19.000Z</time>
      </trkpt>
      <trkpt lat="49.22264" lon="-1.53081">
        <ele>13.074879</ele>
        <time>2021-09-05T12:24:23.000Z</time>
      </trkpt>
      <trkpt lat="49.22216" lon="-1.53064">
        <ele>12.164184</ele>
        <time>2021-09-05T12:24:31.000Z</time>
      </trkpt>
      <trkpt lat="49.22176" lon="-1.5305">
        <ele>11.387759</ele>
        <time>2021-09-05T12:24:38.000Z</time>
      </trkpt>
      <trkpt lat="49.22147" lon="-1.53039">
        <ele>10.880651</ele>
        <time>2021-09-05T12:24:43.000Z</time>
      </trkpt>
      <trkpt lat="49.22114" lon="-1.53027">
        <ele>10.281175</ele>
        <time>2021-09-05T12:24:49.000Z</time>
      </trkpt>
      <trkpt lat="49.22091" lon="-1.53019">
        <ele>9.874208</ele>
        <time>2021-09-05T12:24:53.000Z</time>
      </trkpt>
      <trkpt lat="49.22079" lon="-1.53015">
        <ele>9.674945</ele>
        <time>2021-09-05T12:24:55.000Z</time>
      </trkpt>
      <trkpt lat="49.22046" lon="-1.53003">
        <ele>9.081695</ele>
        <time>2021-09-05T12:25:01.000Z</time>
      </trkpt>
      <trkpt lat="49.2204" lon="-1.53001">
        <ele>8.978165</ele>
        <time>2021-09-05T12:25:02.000Z</time>
      </trkpt>
      <trkpt lat="49.21999" lon="-1.52988">
        <ele>8.310112</ele>
        <time>2021-09-05T12:25:09.000Z</time>
      </trkpt>
      <trkpt lat="49.21963" lon="-1.52979">
        <ele>8.375952</ele>
        <time>2021-09-05T12:25:16.000Z</time>
      </trkpt>
      <trkpt lat="49.21926" lon="-1.52975">
        <ele>8.441638</ele>
        <time>2021-09-05T12:25:21.000Z</time>
      </trkpt>
      <trkpt lat="49.2192" lon="-1.52975">
        <ele>8.452431</ele>
        <time>2021-09-05T12:25:22.000Z</time>
      </trkpt>
      <trkpt lat="49.21883" lon="-1.52974">
        <ele>8.519529</ele>
        <time>2021-09-05T12:25:28.000Z</time>
      </trkpt>
      <trkpt lat="49.21865" lon="-1.52974">
        <ele>8.551908</ele>
        <time>2021-09-05T12:25:31.000Z</time>
      </trkpt>
      <trkpt lat="49.21853" lon="-1.52973">
        <ele>8.573315</ele>
        <time>2021-09-05T12:25:33.000Z</time>
      </trkpt>
      <trkpt lat="49.21842" lon="-1.52973">
        <ele>8.593822</ele>
        <time>2021-09-05T12:25:35.000Z</time>
      </trkpt>
      <trkpt lat="49.21824" lon="-1.52973">
        <ele>8.626741</ele>
        <time>2021-09-05T12:25:39.000Z</time>
      </trkpt>
      <trkpt lat="49.21817" lon="-1.52974">
        <ele>8.672819</ele>
        <time>2021-09-05T12:25:43.000Z</time>
      </trkpt>
      <trkpt lat="49.2181" lon="-1.52973">
        <ele>8.72036</ele>
        <time>2021-09-05T12:25:48.000Z</time>
      </trkpt>
      <trkpt lat="49.21795" lon="-1.52971">
        <ele>8.831667</ele>
        <time>2021-09-05T12:25:53.000Z</time>
      </trkpt>
      <trkpt lat="49.21784" lon="-1.52969">
        <ele>8.915101</ele>
        <time>2021-09-05T12:25:56.000Z</time>
      </trkpt>
      <trkpt lat="49.2178" lon="-1.52968">
        <ele>8.945151</ele>
        <time>2021-09-05T12:25:57.000Z</time>
      </trkpt>
      <trkpt lat="49.21775" lon="-1.52968">
        <ele>8.975878</ele>
        <time>2021-09-05T12:25:58.000Z</time>
      </trkpt>
      <trkpt lat="49.21752" lon="-1.52961">
        <ele>9.148123</ele>
        <time>2021-09-05T12:26:03.000Z</time>
      </trkpt>
      <trkpt lat="49.21713" lon="-1.52946">
        <ele>9.444494</ele>
        <time>2021-09-05T12:26:11.000Z</time>
      </trkpt>
      <trkpt lat="49.21687" lon="-1.52933">
        <ele>9.641416</ele>
        <time>2021-09-05T12:26:16.000Z</time>
      </trkpt>
      <trkpt lat="49.21682" lon="-1.5293">
        <ele>9.680363</ele>
        <time>2021-09-05T12:26:17.000Z</time>
      </trkpt>
      <trkpt lat="49.2165" lon="-1.52909">
        <ele>9.935982</ele>
        <time>2021-09-05T12:26:24.000Z</time>
      </trkpt>
      <trkpt lat="49.2162" lon="-1.52887">
        <ele>10.078943</ele>
        <time>2021-09-05T12:26:31.000Z</time>
      </trkpt>
      <trkpt lat="49.21616" lon="-1.52884">
        <ele>10.097698</ele>
        <time>2021-09-05T12:26:32.000Z</time>
      </trkpt>
      <trkpt lat="49.21603" lon="-1.52872">
        <ele>10.164467</ele>
        <time>2021-09-05T12:26:36.000Z</time>
      </trkpt>
      <trkpt lat="49.21589" lon="-1.52859">
        <ele>10.232407</ele>
        <time>2021-09-05T12:26:40.000Z</time>
      </trkpt>
      <trkpt lat="49.21585" lon="-1.52856">
        <ele>10.251246</ele>
        <time>2021-09-05T12:26:41.000Z</time>
      </trkpt>
      <trkpt lat="49.21561" lon="-1.52827">
        <ele>10.385515</ele>
        <time>2021-09-05T12:26:48.000Z</time>
      </trkpt>
      <trkpt lat="49.21549" lon="-1.52813">
        <ele>10.448513</ele>
        <time>2021-09-05T12:26:51.000Z</time>
      </trkpt>
      <trkpt lat="49.21533" lon="-1.52792">
        <ele>10.537148</ele>
        <time>2021-09-05T12:26:55.000Z</time>
      </trkpt>
      <trkpt lat="49.21526" lon="-1.52781">
        <ele>10.582366</ele>
        <time>2021-09-05T12:26:57.000Z</time>
      </trkpt>
      <trkpt lat="49.21508" lon="-1.52754">
        <ele>10.688731</ele>
        <time>2021-09-05T12:27:02.000Z</time>
      </trkpt>
      <trkpt lat="49.21499" lon="-1.5274">
        <ele>10.778684</ele>
        <time>2021-09-05T12:27:05.000Z</time>
      </trkpt>
      <trkpt lat="49.21493" lon="-1.5273">
        <ele>10.856448</ele>
        <time>2021-09-05T12:27:08.000Z</time>
      </trkpt>
      <trkpt lat="49.21477" lon="-1.52703">
        <ele>11.058855</ele>
        <time>2021-09-05T12:27:12.000Z</time>
      </trkpt>
      <trkpt lat="49.21466" lon="-1.52686">
        <ele>11.186674</ele>
        <time>2021-09-05T12:27:15.000Z</time>
      </trkpt>
      <trkpt lat="49.2146" lon="-1.52675">
        <ele>11.270501</ele>
        <time>2021-09-05T12:27:17.000Z</time>
      </trkpt>
      <trkpt lat="49.2145" lon="-1.52658">
        <ele>11.392797</ele>
        <time>2021-09-05T12:27:20.000Z</time>
      </trkpt>
      <trkpt lat="49.21447" lon="-1.52652">
        <ele>11.434854</ele>
        <time>2021-09-05T12:27:21.000Z</time>
      </trkpt>
      <trkpt lat="49.21427" lon="-1.52612">
        <ele>11.713321</ele>
        <time>2021-09-05T12:27:27.000Z</time>
      </trkpt>
      <trkpt lat="49.21408" lon="-1.52569">
        <ele>12.004277</ele>
        <time>2021-09-05T12:27:33.000Z</time>
      </trkpt>
      <trkpt lat="49.21401" lon="-1.52555">
        <ele>12.100333</ele>
        <time>2021-09-05T12:27:35.000Z</time>
      </trkpt>
      <trkpt lat="49.21395" lon="-1.52542">
        <ele>12.187572</ele>
        <time>2021-09-05T12:27:37.000Z</time>
      </trkpt>
      <trkpt lat="49.21392" lon="-1.52535">
        <ele>12.232115</ele>
        <time>2021-09-05T12:27:38.000Z</time>
      </trkpt>
      <trkpt lat="49.21389" lon="-1.52529">
        <ele>12.260689</ele>
        <time>2021-09-05T12:27:39.000Z</time>
      </trkpt>
      <trkpt lat="49.21383" lon="-1.52515">
        <ele>12.313961</ele>
        <time>2021-09-05T12:27:41.000Z</time>
      </trkpt>
      <trkpt lat="49.2138" lon="-1.52509">
        <ele>12.338437</ele>
        <time>2021-09-05T12:27:42.000Z</time>
      </trkpt>
      <trkpt lat="49.21377" lon="-1.52502">
        <ele>12.363447</ele>
        <time>2021-09-05T12:27:43.000Z</time>
      </trkpt>
      <trkpt lat="49.2137" lon="-1.52482">
        <ele>12.437466</ele>
        <time>2021-09-05T12:27:46.000Z</time>
      </trkpt>
      <trkpt lat="49.21351" lon="-1.5243">
        <ele>12.629127</ele>
        <time>2021-09-05T12:27:53.000Z</time>
      </trkpt>
      <trkpt lat="49.2133" lon="-1.52366">
        <ele>12.860013</ele>
        <time>2021-09-05T12:28:01.000Z</time>
      </trkpt>
      <trkpt lat="49.21313" lon="-1.52311">
        <ele>13.056388</ele>
        <time>2021-09-05T12:28:08.000Z</time>
      </trkpt>
      <trkpt lat="49.21297" lon="-1.52262">
        <ele>13.105381</ele>
        <time>2021-09-05T12:28:14.000Z</time>
      </trkpt>
      <trkpt lat="49.21285" lon="-1.52223">
        <ele>13.086499</ele>
        <time>2021-09-05T12:28:19.000Z</time>
      </trkpt>
      <trkpt lat="49.21283" lon="-1.52216">
        <ele>13.083093</ele>
        <time>2021-09-05T12:28:20.000Z</time>
      </trkpt>
      <trkpt lat="49.2128" lon="-1.52208">
        <ele>13.079539</ele>
        <time>2021-09-05T12:28:21.000Z</time>
      </trkpt>
      <trkpt lat="49.21274" lon="-1.52187">
        <ele>13.069281</ele>
        <time>2021-09-05T12:28:24.000Z</time>
      </trkpt>
      <trkpt lat="49.21267" lon="-1.52165">
        <ele>13.058433</ele>
        <time>2021-09-05T12:28:27.000Z</time>
      </trkpt>
      <trkpt lat="49.21262" lon="-1.52151">
        <ele>13.051394</ele>
        <time>2021-09-05T12:28:29.000Z</time>
      </trkpt>
      <trkpt lat="49.21245" lon="-1.52096">
        <ele>13.024813</ele>
        <time>2021-09-05T12:28:36.000Z</time>
      </trkpt>
      <trkpt lat="49.2123" lon="-1.52048">
        <ele>13.001629</ele>
        <time>2021-09-05T12:28:42.000Z</time>
      </trkpt>
      <trkpt lat="49.21213" lon="-1.51993">
        <ele>13.163217</ele>
        <time>2021-09-05T12:28:49.000Z</time>
      </trkpt>
      <trkpt lat="49.21206" lon="-1.5197">
        <ele>13.237488</ele>
        <time>2021-09-05T12:28:52.000Z</time>
      </trkpt>
      <trkpt lat="49.21201" lon="-1.51955">
        <ele>13.286701</ele>
        <time>2021-09-05T12:28:54.000Z</time>
      </trkpt>
      <trkpt lat="49.2119" lon="-1.51921">
        <ele>13.39555</ele>
        <time>2021-09-05T12:28:59.000Z</time>
      </trkpt>
      <trkpt lat="49.21187" lon="-1.5191">
        <ele>13.431358</ele>
        <time>2021-09-05T12:29:01.000Z</time>
      </trkpt>
      <trkpt lat="49.2118" lon="-1.519">
        <ele>13.47225</ele>
        <time>2021-09-05T12:29:02.000Z</time>
      </trkpt>
      <trkpt lat="49.21179" lon="-1.51886">
        <ele>13.512347</ele>
        <time>2021-09-05T12:29:05.000Z</time>
      </trkpt>
      <trkpt lat="49.21169" lon="-1.51854">
        <ele>13.61459</ele>
        <time>2021-09-05T12:29:10.000Z</time>
      </trkpt>
      <trkpt lat="49.21166" lon="-1.51841">
        <ele>13.653111</ele>
        <time>2021-09-05T12:29:12.000Z</time>
      </trkpt>
      <trkpt lat="49.21157" lon="-1.51831">
        <ele>13.702907</ele>
        <time>2021-09-05T12:29:14.000Z</time>
      </trkpt>
      <trkpt lat="49.21157" lon="-1.51802">
        <ele>13.786838</ele>
        <time>2021-09-05T12:29:18.000Z</time>
      </trkpt>
      <trkpt lat="49.21153" lon="-1.5179">
        <ele>13.815663</ele>
        <time>2021-09-05T12:29:20.000Z</time>
      </trkpt>
      <trkpt lat="49.21143" lon="-1.51773">
        <ele>13.858575</ele>
        <time>2021-09-05T12:29:23.000Z</time>
      </trkpt>
      <trkpt lat="49.21138" lon="-1.51759">
        <ele>13.887142</ele>
        <time>2021-09-05T12:29:25.000Z</time>
      </trkpt>
      <trkpt lat="49.21125" lon="-1.51717">
        <ele>13.974065</ele>
        <time>2021-09-05T12:29:31.000Z</time>
      </trkpt>
      <trkpt lat="49.21114" lon="-1.51682">
        <ele>14.04867</ele>
        <time>2021-09-05T12:29:36.000Z</time>
      </trkpt>
      <trkpt lat="49.21107" lon="-1.51661">
        <ele>14.092764</ele>
        <time>2021-09-05T12:29:39.000Z</time>
      </trkpt>
      <trkpt lat="49.21103" lon="-1.51648">
        <ele>14.118631</ele>
        <time>2021-09-05T12:29:41.000Z</time>
      </trkpt>
      <trkpt lat="49.21097" lon="-1.51628">
        <ele>14.159899</ele>
        <time>2021-09-05T12:29:44.000Z</time>
      </trkpt>
      <trkpt lat="49.21095" lon="-1.51621">
        <ele>14.174963</ele>
        <time>2021-09-05T12:29:45.000Z</time>
      </trkpt>
      <trkpt lat="49.2109" lon="-1.51607">
        <ele>14.205135</ele>
        <time>2021-09-05T12:29:47.000Z</time>
      </trkpt>
      <trkpt lat="49.21083" lon="-1.51585">
        <ele>14.251129</ele>
        <time>2021-09-05T12:29:50.000Z</time>
      </trkpt>
      <trkpt lat="49.21072" lon="-1.51549">
        <ele>14.318401</ele>
        <time>2021-09-05T12:29:55.000Z</time>
      </trkpt>
      <trkpt lat="49.21058" lon="-1.51505">
        <ele>14.366317</ele>
        <time>2021-09-05T12:30:01.000Z</time>
      </trkpt>
      <trkpt lat="49.21039" lon="-1.51444">
        <ele>14.431711</ele>
        <time>2021-09-05T12:30:09.000Z</time>
      </trkpt>
      <trkpt lat="49.21023" lon="-1.51394">
        <ele>14.486195</ele>
        <time>2021-09-05T12:30:16.000Z</time>
      </trkpt>
      <trkpt lat="49.21017" lon="-1.51373">
        <ele>14.508517</ele>
        <time>2021-09-05T12:30:19.000Z</time>
      </trkpt>
      <trkpt lat="49.2101" lon="-1.51352">
        <ele>14.530839</ele>
        <time>2021-09-05T12:30:22.000Z</time>
      </trkpt>
      <trkpt lat="49.20997" lon="-1.51311">
        <ele>14.575962</ele>
        <time>2021-09-05T12:30:28.000Z</time>
      </trkpt>
      <trkpt lat="49.20977" lon="-1.51248">
        <ele>14.852513</ele>
        <time>2021-09-05T12:30:37.000Z</time>
      </trkpt>
      <trkpt lat="49.20962" lon="-1.512">
        <ele>15.072091</ele>
        <time>2021-09-05T12:30:44.000Z</time>
      </trkpt>
      <trkpt lat="49.20947" lon="-1.51146">
        <ele>15.314059</ele>
        <time>2021-09-05T12:30:52.000Z</time>
      </trkpt>
      <trkpt lat="49.20942" lon="-1.51126">
        <ele>15.404881</ele>
        <time>2021-09-05T12:30:55.000Z</time>
      </trkpt>
      <trkpt lat="49.20938" lon="-1.51112">
        <ele>15.464598</ele>
        <time>2021-09-05T12:30:57.000Z</time>
      </trkpt>
      <trkpt lat="49.20932" lon="-1.51091">
        <ele>15.559468</ele>
        <time>2021-09-05T12:31:00.000Z</time>
      </trkpt>
      <trkpt lat="49.20927" lon="-1.51069">
        <ele>15.657327</ele>
        <time>2021-09-05T12:31:03.000Z</time>
      </trkpt>
      <trkpt lat="49.2091" lon="-1.51003">
        <ele>15.937319</ele>
        <time>2021-09-05T12:31:12.000Z</time>
      </trkpt>
      <trkpt lat="49.20897" lon="-1.50935">
        <ele>16.215391</ele>
        <time>2021-09-05T12:31:21.000Z</time>
      </trkpt>
      <trkpt lat="49.20888" lon="-1.50889">
        <ele>16.403618</ele>
        <time>2021-09-05T12:31:27.000Z</time>
      </trkpt>
      <trkpt lat="49.20887" lon="-1.50882">
        <ele>16.435265</ele>
        <time>2021-09-05T12:31:28.000Z</time>
      </trkpt>
      <trkpt lat="49.2088" lon="-1.50843">
        <ele>16.590604</ele>
        <time>2021-09-05T12:31:33.000Z</time>
      </trkpt>
      <trkpt lat="49.2087" lon="-1.50782">
        <ele>16.865351</ele>
        <time>2021-09-05T12:31:41.000Z</time>
      </trkpt>
      <trkpt lat="49.20862" lon="-1.50719">
        <ele>17.283932</ele>
        <time>2021-09-05T12:31:49.000Z</time>
      </trkpt>
      <trkpt lat="49.20853" lon="-1.50647">
        <ele>17.757996</ele>
        <time>2021-09-05T12:31:58.000Z</time>
      </trkpt>
      <trkpt lat="49.20849" lon="-1.50591">
        <ele>18.12669</ele>
        <time>2021-09-05T12:32:05.000Z</time>
      </trkpt>
      <trkpt lat="49.20844" lon="-1.50528">
        <ele>18.538945</ele>
        <time>2021-09-05T12:32:13.000Z</time>
      </trkpt>
      <trkpt lat="49.20843" lon="-1.50505">
        <ele>18.738702</ele>
        <time>2021-09-05T12:32:16.000Z</time>
      </trkpt>
      <trkpt lat="49.20842" lon="-1.5049">
        <ele>18.8833</ele>
        <time>2021-09-05T12:32:18.000Z</time>
      </trkpt>
      <trkpt lat="49.2084" lon="-1.50452">
        <ele>19.253376</ele>
        <time>2021-09-05T12:32:23.000Z</time>
      </trkpt>
      <trkpt lat="49.20839" lon="-1.50445">
        <ele>19.325058</ele>
        <time>2021-09-05T12:32:24.000Z</time>
      </trkpt>
      <trkpt lat="49.20838" lon="-1.50422">
        <ele>19.540843</ele>
        <time>2021-09-05T12:32:27.000Z</time>
      </trkpt>
      <trkpt lat="49.20837" lon="-1.50399">
        <ele>19.766362</ele>
        <time>2021-09-05T12:32:30.000Z</time>
      </trkpt>
      <trkpt lat="49.20836" lon="-1.50375">
        <ele>19.993807</ele>
        <time>2021-09-05T12:32:33.000Z</time>
      </trkpt>
      <trkpt lat="49.20836" lon="-1.50361">
        <ele>20.134168</ele>
        <time>2021-09-05T12:32:35.000Z</time>
      </trkpt>
      <trkpt lat="49.20833" lon="-1.50306">
        <ele>20.664587</ele>
        <time>2021-09-05T12:32:42.000Z</time>
      </trkpt>
      <trkpt lat="49.2083" lon="-1.50252">
        <ele>21.192012</ele>
        <time>2021-09-05T12:32:49.000Z</time>
      </trkpt>
      <trkpt lat="49.2083" lon="-1.50244">
        <ele>21.271356</ele>
        <time>2021-09-05T12:32:50.000Z</time>
      </trkpt>
      <trkpt lat="49.20829" lon="-1.50222">
        <ele>21.524895</ele>
        <time>2021-09-05T12:32:53.000Z</time>
      </trkpt>
      <trkpt lat="49.20828" lon="-1.50208">
        <ele>21.687793</ele>
        <time>2021-09-05T12:32:55.000Z</time>
      </trkpt>
      <trkpt lat="49.20828" lon="-1.50194">
        <ele>21.857633</ele>
        <time>2021-09-05T12:32:57.000Z</time>
      </trkpt>
      <trkpt lat="49.20827" lon="-1.50178">
        <ele>22.03673</ele>
        <time>2021-09-05T12:32:59.000Z</time>
      </trkpt>
      <trkpt lat="49.20826" lon="-1.50147">
        <ele>22.393768</ele>
        <time>2021-09-05T12:33:03.000Z</time>
      </trkpt>
      <trkpt lat="49.20823" lon="-1.50102">
        <ele>22.924244</ele>
        <time>2021-09-05T12:33:09.000Z</time>
      </trkpt>
      <trkpt lat="49.20823" lon="-1.50087">
        <ele>23.09987</ele>
        <time>2021-09-05T12:33:11.000Z</time>
      </trkpt>
      <trkpt lat="49.20821" lon="-1.50042">
        <ele>23.625589</ele>
        <time>2021-09-05T12:33:17.000Z</time>
      </trkpt>
      <trkpt lat="49.2082" lon="-1.50034">
        <ele>23.710449</ele>
        <time>2021-09-05T12:33:18.000Z</time>
      </trkpt>
      <trkpt lat="49.2082" lon="-1.5002">
        <ele>23.873347</ele>
        <time>2021-09-05T12:33:20.000Z</time>
      </trkpt>
      <trkpt lat="49.20819" lon="-1.5">
        <ele>24.113001</ele>
        <time>2021-09-05T12:33:23.000Z</time>
      </trkpt>
      <trkpt lat="49.20818" lon="-1.49979">
        <ele>24.352529</ele>
        <time>2021-09-05T12:33:26.000Z</time>
      </trkpt>
      <trkpt lat="49.20817" lon="-1.49965">
        <ele>24.538211</ele>
        <time>2021-09-05T12:33:28.000Z</time>
      </trkpt>
      <trkpt lat="49.20816" lon="-1.49936">
        <ele>24.989174</ele>
        <time>2021-09-05T12:33:32.000Z</time>
      </trkpt>
      <trkpt lat="49.20815" lon="-1.49921">
        <ele>25.210109</ele>
        <time>2021-09-05T12:33:34.000Z</time>
      </trkpt>
      <trkpt lat="49.20814" lon="-1.49907">
        <ele>25.427851</ele>
        <time>2021-09-05T12:33:36.000Z</time>
      </trkpt>
      <trkpt lat="49.20813" lon="-1.49878">
        <ele>25.868206</ele>
        <time>2021-09-05T12:33:40.000Z</time>
      </trkpt>
      <trkpt lat="49.20813" lon="-1.49871">
        <ele>25.974803</ele>
        <time>2021-09-05T12:33:41.000Z</time>
      </trkpt>
      <trkpt lat="49.20812" lon="-1.4985">
        <ele>26.291724</ele>
        <time>2021-09-05T12:33:44.000Z</time>
      </trkpt>
      <trkpt lat="49.20811" lon="-1.49843">
        <ele>26.401353</ele>
        <time>2021-09-05T12:33:45.000Z</time>
      </trkpt>
      <trkpt lat="49.20809" lon="-1.49794">
        <ele>27.143304</ele>
        <time>2021-09-05T12:33:52.000Z</time>
      </trkpt>
      <trkpt lat="49.20808" lon="-1.49773">
        <ele>27.467803</ele>
        <time>2021-09-05T12:33:55.000Z</time>
      </trkpt>
      <trkpt lat="49.20807" lon="-1.49744">
        <ele>27.908158</ele>
        <time>2021-09-05T12:33:59.000Z</time>
      </trkpt>
      <trkpt lat="49.20805" lon="-1.49707">
        <ele>28.47178</ele>
        <time>2021-09-05T12:34:04.000Z</time>
      </trkpt>
      <trkpt lat="49.20805" lon="-1.497">
        <ele>28.58141</ele>
        <time>2021-09-05T12:34:05.000Z</time>
      </trkpt>
      <trkpt lat="49.20803" lon="-1.4967">
        <ele>29.017827</ele>
        <time>2021-09-05T12:34:09.000Z</time>
      </trkpt>
      <trkpt lat="49.20802" lon="-1.49656">
        <ele>29.228813</ele>
        <time>2021-09-05T12:34:11.000Z</time>
      </trkpt>
      <trkpt lat="49.20802" lon="-1.49649">
        <ele>29.334962</ele>
        <time>2021-09-05T12:34:12.000Z</time>
      </trkpt>
      <trkpt lat="49.20801" lon="-1.49633">
        <ele>29.560622</ele>
        <time>2021-09-05T12:34:14.000Z</time>
      </trkpt>
      <trkpt lat="49.20801" lon="-1.49626">
        <ele>29.666938</ele>
        <time>2021-09-05T12:34:15.000Z</time>
      </trkpt>
      <trkpt lat="49.20801" lon="-1.49619">
        <ele>29.774555</ele>
        <time>2021-09-05T12:34:16.000Z</time>
      </trkpt>
      <trkpt lat="49.208" lon="-1.49595">
        <ele>30.1256</ele>
        <time>2021-09-05T12:34:19.000Z</time>
      </trkpt>
      <trkpt lat="49.20799" lon="-1.49588">
        <ele>30.237781</ele>
        <time>2021-09-05T12:34:20.000Z</time>
      </trkpt>
      <trkpt lat="49.20797" lon="-1.49549">
        <ele>30.813019</ele>
        <time>2021-09-05T12:34:25.000Z</time>
      </trkpt>
      <trkpt lat="49.20796" lon="-1.49526">
        <ele>31.140587</ele>
        <time>2021-09-05T12:34:28.000Z</time>
      </trkpt>
      <trkpt lat="49.20796" lon="-1.49511">
        <ele>31.366247</ele>
        <time>2021-09-05T12:34:30.000Z</time>
      </trkpt>
      <trkpt lat="49.20794" lon="-1.49467">
        <ele>32.022683</ele>
        <time>2021-09-05T12:34:35.000Z</time>
      </trkpt>
      <trkpt lat="49.20792" lon="-1.4944">
        <ele>32.418437</ele>
        <time>2021-09-05T12:34:38.000Z</time>
      </trkpt>
      <trkpt lat="49.20792" lon="-1.49431">
        <ele>32.5484</ele>
        <time>2021-09-05T12:34:39.000Z</time>
      </trkpt>
      <trkpt lat="49.20791" lon="-1.49414">
        <ele>32.688804</ele>
        <time>2021-09-05T12:34:41.000Z</time>
      </trkpt>
      <trkpt lat="49.20789" lon="-1.49385">
        <ele>32.744478</ele>
        <time>2021-09-05T12:34:44.000Z</time>
      </trkpt>
      <trkpt lat="49.20786" lon="-1.49327">
        <ele>32.859756</ele>
        <time>2021-09-05T12:34:50.000Z</time>
      </trkpt>
      <trkpt lat="49.20782" lon="-1.4927">
        <ele>32.970909</ele>
        <time>2021-09-05T12:34:56.000Z</time>
      </trkpt>
      <trkpt lat="49.20782" lon="-1.49261">
        <ele>32.988221</ele>
        <time>2021-09-05T12:34:57.000Z</time>
      </trkpt>
      <trkpt lat="49.20781" lon="-1.49253">
        <ele>33.004558</ele>
        <time>2021-09-05T12:34:58.000Z</time>
      </trkpt>
      <trkpt lat="49.20781" lon="-1.49237">
        <ele>33.035838</ele>
        <time>2021-09-05T12:35:00.000Z</time>
      </trkpt>
      <trkpt lat="49.2078" lon="-1.49228">
        <ele>33.054909</ele>
        <time>2021-09-05T12:35:01.000Z</time>
      </trkpt>
      <trkpt lat="49.20778" lon="-1.49198">
        <ele>33.112171</ele>
        <time>2021-09-05T12:35:04.000Z</time>
      </trkpt>
      <trkpt lat="49.20777" lon="-1.49179">
        <ele>33.150532</ele>
        <time>2021-09-05T12:35:06.000Z</time>
      </trkpt>
      <trkpt lat="49.20774" lon="-1.49122">
        <ele>33.093358</ele>
        <time>2021-09-05T12:35:12.000Z</time>
      </trkpt>
      <trkpt lat="49.20773" lon="-1.49113">
        <ele>33.05434</ele>
        <time>2021-09-05T12:35:13.000Z</time>
      </trkpt>
      <trkpt lat="49.20772" lon="-1.49085">
        <ele>32.932694</ele>
        <time>2021-09-05T12:35:16.000Z</time>
      </trkpt>
      <trkpt lat="49.2077" lon="-1.49049">
        <ele>32.774208</ele>
        <time>2021-09-05T12:35:20.000Z</time>
      </trkpt>
      <trkpt lat="49.20767" lon="-1.48993">
        <ele>32.531728</ele>
        <time>2021-09-05T12:35:26.000Z</time>
      </trkpt>
      <trkpt lat="49.20766" lon="-1.48984">
        <ele>32.493207</ele>
        <time>2021-09-05T12:35:27.000Z</time>
      </trkpt>
      <trkpt lat="49.20766" lon="-1.48975">
        <ele>32.452888</ele>
        <time>2021-09-05T12:35:28.000Z</time>
      </trkpt>
      <trkpt lat="49.20764" lon="-1.48947">
        <ele>32.329937</ele>
        <time>2021-09-05T12:35:31.000Z</time>
      </trkpt>
      <trkpt lat="49.20764" lon="-1.48938">
        <ele>32.291416</ele>
        <time>2021-09-05T12:35:32.000Z</time>
      </trkpt>
      <trkpt lat="49.20762" lon="-1.48906">
        <ele>32.151292</ele>
        <time>2021-09-05T12:35:36.000Z</time>
      </trkpt>
      <trkpt lat="49.20761" lon="-1.48893">
        <ele>32.093973</ele>
        <time>2021-09-05T12:35:38.000Z</time>
      </trkpt>
      <trkpt lat="49.2076" lon="-1.48869">
        <ele>31.990068</ele>
        <time>2021-09-05T12:35:42.000Z</time>
      </trkpt>
      <trkpt lat="49.20755" lon="-1.48831">
        <ele>31.843217</ele>
        <time>2021-09-05T12:35:48.000Z</time>
      </trkpt>
      <trkpt lat="49.20754" lon="-1.48817">
        <ele>31.789633</ele>
        <time>2021-09-05T12:35:50.000Z</time>
      </trkpt>
      <trkpt lat="49.20752" lon="-1.48805">
        <ele>31.741877</ele>
        <time>2021-09-05T12:35:52.000Z</time>
      </trkpt>
      <trkpt lat="49.20748" lon="-1.48774">
        <ele>31.62402</ele>
        <time>2021-09-05T12:35:56.000Z</time>
      </trkpt>
      <trkpt lat="49.20747" lon="-1.48766">
        <ele>31.591025</ele>
        <time>2021-09-05T12:35:57.000Z</time>
      </trkpt>
      <trkpt lat="49.20739" lon="-1.48714">
        <ele>31.386223</ele>
        <time>2021-09-05T12:36:03.000Z</time>
      </trkpt>
      <trkpt lat="49.20733" lon="-1.48678">
        <ele>31.247023</ele>
        <time>2021-09-05T12:36:08.000Z</time>
      </trkpt>
      <trkpt lat="49.20722" lon="-1.48626">
        <ele>31.039791</ele>
        <time>2021-09-05T12:36:13.000Z</time>
      </trkpt>
      <trkpt lat="49.2072" lon="-1.48617">
        <ele>31.003759</ele>
        <time>2021-09-05T12:36:14.000Z</time>
      </trkpt>
      <trkpt lat="49.20716" lon="-1.486">
        <ele>30.922104</ele>
        <time>2021-09-05T12:36:16.000Z</time>
      </trkpt>
      <trkpt lat="49.20714" lon="-1.48591">
        <ele>30.872036</ele>
        <time>2021-09-05T12:36:17.000Z</time>
      </trkpt>
      <trkpt lat="49.20702" lon="-1.48539">
        <ele>30.567326</ele>
        <time>2021-09-05T12:36:23.000Z</time>
      </trkpt>
      <trkpt lat="49.20697" lon="-1.48522">
        <ele>30.465573</ele>
        <time>2021-09-05T12:36:25.000Z</time>
      </trkpt>
      <trkpt lat="49.20692" lon="-1.48503">
        <ele>30.353597</ele>
        <time>2021-09-05T12:36:27.000Z</time>
      </trkpt>
      <trkpt lat="49.20687" lon="-1.48485">
        <ele>30.246136</ele>
        <time>2021-09-05T12:36:29.000Z</time>
      </trkpt>
      <trkpt lat="49.20682" lon="-1.48466">
        <ele>30.130979</ele>
        <time>2021-09-05T12:36:31.000Z</time>
      </trkpt>
      <trkpt lat="49.20667" lon="-1.4842">
        <ele>29.851464</ele>
        <time>2021-09-05T12:36:36.000Z</time>
      </trkpt>
      <trkpt lat="49.20664" lon="-1.48412">
        <ele>29.796703</ele>
        <time>2021-09-05T12:36:37.000Z</time>
      </trkpt>
      <trkpt lat="49.20654" lon="-1.48384">
        <ele>29.622639</ele>
        <time>2021-09-05T12:36:40.000Z</time>
      </trkpt>
      <trkpt lat="49.2065" lon="-1.48374">
        <ele>29.564187</ele>
        <time>2021-09-05T12:36:41.000Z</time>
      </trkpt>
      <trkpt lat="49.20627" lon="-1.48312">
        <ele>28.860856</ele>
        <time>2021-09-05T12:36:48.000Z</time>
      </trkpt>
      <trkpt lat="49.20608" lon="-1.48259">
        <ele>28.164864</ele>
        <time>2021-09-05T12:36:54.000Z</time>
      </trkpt>
      <trkpt lat="49.20589" lon="-1.48209">
        <ele>27.499846</ele>
        <time>2021-09-05T12:37:00.000Z</time>
      </trkpt>
      <trkpt lat="49.20583" lon="-1.48193">
        <ele>27.284626</ele>
        <time>2021-09-05T12:37:02.000Z</time>
      </trkpt>
      <trkpt lat="49.20567" lon="-1.4815">
        <ele>26.718035</ele>
        <time>2021-09-05T12:37:07.000Z</time>
      </trkpt>
      <trkpt lat="49.20539" lon="-1.48076">
        <ele>25.789151</ele>
        <time>2021-09-05T12:37:15.000Z</time>
      </trkpt>
      <trkpt lat="49.20532" lon="-1.48057">
        <ele>25.566206</ele>
        <time>2021-09-05T12:37:17.000Z</time>
      </trkpt>
      <trkpt lat="49.20522" lon="-1.4803">
        <ele>25.241778</ele>
        <time>2021-09-05T12:37:20.000Z</time>
      </trkpt>
      <trkpt lat="49.20501" lon="-1.47974">
        <ele>24.571255</ele>
        <time>2021-09-05T12:37:26.000Z</time>
      </trkpt>
      <trkpt lat="49.20477" lon="-1.47909">
        <ele>23.797451</ele>
        <time>2021-09-05T12:37:33.000Z</time>
      </trkpt>
      <trkpt lat="49.20453" lon="-1.47846">
        <ele>23.099343</ele>
        <time>2021-09-05T12:37:40.000Z</time>
      </trkpt>
      <trkpt lat="49.20434" lon="-1.47795">
        <ele>22.577306</ele>
        <time>2021-09-05T12:37:46.000Z</time>
      </trkpt>
      <trkpt lat="49.20418" lon="-1.47752">
        <ele>22.135424</ele>
        <time>2021-09-05T12:37:51.000Z</time>
      </trkpt>
      <trkpt lat="49.20408" lon="-1.47727">
        <ele>21.871012</ele>
        <time>2021-09-05T12:37:54.000Z</time>
      </trkpt>
      <trkpt lat="49.20402" lon="-1.4771">
        <ele>21.696543</ele>
        <time>2021-09-05T12:37:56.000Z</time>
      </trkpt>
      <trkpt lat="49.20383" lon="-1.47659">
        <ele>21.172952</ele>
        <time>2021-09-05T12:38:02.000Z</time>
      </trkpt>
      <trkpt lat="49.2038" lon="-1.4765">
        <ele>21.084556</ele>
        <time>2021-09-05T12:38:03.000Z</time>
      </trkpt>
      <trkpt lat="49.20376" lon="-1.47641">
        <ele>20.991008</ele>
        <time>2021-09-05T12:38:04.000Z</time>
      </trkpt>
      <trkpt lat="49.2037" lon="-1.47624">
        <ele>20.707129</ele>
        <time>2021-09-05T12:38:06.000Z</time>
      </trkpt>
      <trkpt lat="49.20355" lon="-1.47585">
        <ele>20.051388</ele>
        <time>2021-09-05T12:38:11.000Z</time>
      </trkpt>
      <trkpt lat="49.20336" lon="-1.47535">
        <ele>19.211402</ele>
        <time>2021-09-05T12:38:17.000Z</time>
      </trkpt>
      <trkpt lat="49.20315" lon="-1.47477">
        <ele>18.244375</ele>
        <time>2021-09-05T12:38:24.000Z</time>
      </trkpt>
      <trkpt lat="49.20306" lon="-1.47453">
        <ele>17.837651</ele>
        <time>2021-09-05T12:38:27.000Z</time>
      </trkpt>
      <trkpt lat="49.20301" lon="-1.47441">
        <ele>17.631288</ele>
        <time>2021-09-05T12:38:29.000Z</time>
      </trkpt>
      <trkpt lat="49.20299" lon="-1.47435">
        <ele>17.540905</ele>
        <time>2021-09-05T12:38:30.000Z</time>
      </trkpt>
      <trkpt lat="49.20294" lon="-1.47421">
        <ele>17.296617</ele>
        <time>2021-09-05T12:38:32.000Z</time>
      </trkpt>
      <trkpt lat="49.20279" lon="-1.47381">
        <ele>16.392305</ele>
        <time>2021-09-05T12:38:37.000Z</time>
      </trkpt>
      <trkpt lat="49.20273" lon="-1.47365">
        <ele>15.924357</ele>
        <time>2021-09-05T12:38:39.000Z</time>
      </trkpt>
      <trkpt lat="49.20267" lon="-1.47349">
        <ele>15.458311</ele>
        <time>2021-09-05T12:38:41.000Z</time>
      </trkpt>
      <trkpt lat="49.20264" lon="-1.47341">
        <ele>15.231733</ele>
        <time>2021-09-05T12:38:42.000Z</time>
      </trkpt>
      <trkpt lat="49.20252" lon="-1.4731">
        <ele>14.316928</ele>
        <time>2021-09-05T12:38:46.000Z</time>
      </trkpt>
      <trkpt lat="49.20249" lon="-1.47302">
        <ele>14.086235</ele>
        <time>2021-09-05T12:38:47.000Z</time>
      </trkpt>
      <trkpt lat="49.20244" lon="-1.47287">
        <ele>13.65197</ele>
        <time>2021-09-05T12:38:49.000Z</time>
      </trkpt>
      <trkpt lat="49.20239" lon="-1.47273">
        <ele>13.249771</ele>
        <time>2021-09-05T12:38:51.000Z</time>
      </trkpt>
      <trkpt lat="49.20225" lon="-1.47236">
        <ele>12.186741</ele>
        <time>2021-09-05T12:38:56.000Z</time>
      </trkpt>
      <trkpt lat="49.20215" lon="-1.47208">
        <ele>11.362885</ele>
        <time>2021-09-05T12:39:00.000Z</time>
      </trkpt>
      <trkpt lat="49.20212" lon="-1.47201">
        <ele>11.151099</ele>
        <time>2021-09-05T12:39:01.000Z</time>
      </trkpt>
      <trkpt lat="49.202" lon="-1.4717">
        <ele>10.253274</ele>
        <time>2021-09-05T12:39:06.000Z</time>
      </trkpt>
      <trkpt lat="49.20196" lon="-1.47157">
        <ele>9.948763</ele>
        <time>2021-09-05T12:39:08.000Z</time>
      </trkpt>
      <trkpt lat="49.2019" lon="-1.47142">
        <ele>9.691568</ele>
        <time>2021-09-05T12:39:10.000Z</time>
      </trkpt>
      <trkpt lat="49.20187" lon="-1.47134">
        <ele>9.567148</ele>
        <time>2021-09-05T12:39:11.000Z</time>
      </trkpt>
      <trkpt lat="49.20181" lon="-1.47118">
        <ele>9.308871</ele>
        <time>2021-09-05T12:39:13.000Z</time>
      </trkpt>
      <trkpt lat="49.20178" lon="-1.47109">
        <ele>9.160455</ele>
        <time>2021-09-05T12:39:14.000Z</time>
      </trkpt>
      <trkpt lat="49.20168" lon="-1.47081">
        <ele>8.69636</ele>
        <time>2021-09-05T12:39:17.000Z</time>
      </trkpt>
      <trkpt lat="49.20157" lon="-1.47052">
        <ele>8.221589</ele>
        <time>2021-09-05T12:39:20.000Z</time>
      </trkpt>
      <trkpt lat="49.20133" lon="-1.46989">
        <ele>7.18337</ele>
        <time>2021-09-05T12:39:27.000Z</time>
      </trkpt>
      <trkpt lat="49.20114" lon="-1.46936">
        <ele>6.322182</ele>
        <time>2021-09-05T12:39:34.000Z</time>
      </trkpt>
      <trkpt lat="49.20108" lon="-1.46922">
        <ele>6.09317</ele>
        <time>2021-09-05T12:39:36.000Z</time>
      </trkpt>
      <trkpt lat="49.20102" lon="-1.46905">
        <ele>6.115585</ele>
        <time>2021-09-05T12:39:38.000Z</time>
      </trkpt>
      <trkpt lat="49.201" lon="-1.46898">
        <ele>6.124534</ele>
        <time>2021-09-05T12:39:39.000Z</time>
      </trkpt>
      <trkpt lat="49.2009" lon="-1.46872">
        <ele>6.158873</ele>
        <time>2021-09-05T12:39:44.000Z</time>
      </trkpt>
      <trkpt lat="49.20088" lon="-1.46866">
        <ele>6.166557</ele>
        <time>2021-09-05T12:39:45.000Z</time>
      </trkpt>
      <trkpt lat="49.20083" lon="-1.46854">
        <ele>6.18289</ele>
        <time>2021-09-05T12:39:47.000Z</time>
      </trkpt>
      <trkpt lat="49.2008" lon="-1.46848">
        <ele>6.19077</ele>
        <time>2021-09-05T12:39:48.000Z</time>
      </trkpt>
      <trkpt lat="49.20078" lon="-1.46842">
        <ele>6.198937</ele>
        <time>2021-09-05T12:39:49.000Z</time>
      </trkpt>
      <trkpt lat="49.20071" lon="-1.46824">
        <ele>6.223347</ele>
        <time>2021-09-05T12:39:52.000Z</time>
      </trkpt>
      <trkpt lat="49.20066" lon="-1.46811">
        <ele>6.240164</ele>
        <time>2021-09-05T12:39:54.000Z</time>
      </trkpt>
      <trkpt lat="49.20059" lon="-1.46793">
        <ele>6.264468</ele>
        <time>2021-09-05T12:39:57.000Z</time>
      </trkpt>
      <trkpt lat="49.20054" lon="-1.46781">
        <ele>6.2809</ele>
        <time>2021-09-05T12:39:59.000Z</time>
      </trkpt>
      <trkpt lat="49.20047" lon="-1.46762">
        <ele>6.30627</ele>
        <time>2021-09-05T12:40:02.000Z</time>
      </trkpt>
      <trkpt lat="49.20034" lon="-1.46731">
        <ele>6.347948</ele>
        <time>2021-09-05T12:40:07.000Z</time>
      </trkpt>
      <trkpt lat="49.20029" lon="-1.4672">
        <ele>6.36283</ele>
        <time>2021-09-05T12:40:09.000Z</time>
      </trkpt>
      <trkpt lat="49.2002" lon="-1.46698">
        <ele>6.392979</ele>
        <time>2021-09-05T12:40:13.000Z</time>
      </trkpt>
      <trkpt lat="49.20005" lon="-1.46668">
        <ele>6.330679</ele>
        <time>2021-09-05T12:40:19.000Z</time>
      </trkpt>
      <trkpt lat="49.19989" lon="-1.46639">
        <ele>6.216826</ele>
        <time>2021-09-05T12:40:24.000Z</time>
      </trkpt>
      <trkpt lat="49.19973" lon="-1.46609">
        <ele>6.09617</ele>
        <time>2021-09-05T12:40:29.000Z</time>
      </trkpt>
      <trkpt lat="49.19954" lon="-1.46572">
        <ele>5.950434</ele>
        <time>2021-09-05T12:40:35.000Z</time>
      </trkpt>
      <trkpt lat="49.19942" lon="-1.46549">
        <ele>5.858851</ele>
        <time>2021-09-05T12:40:39.000Z</time>
      </trkpt>
      <trkpt lat="49.19921" lon="-1.46514">
        <ele>5.714468</ele>
        <time>2021-09-05T12:40:44.000Z</time>
      </trkpt>
      <trkpt lat="49.199" lon="-1.46477">
        <ele>5.563262</ele>
        <time>2021-09-05T12:40:49.000Z</time>
      </trkpt>
      <trkpt lat="49.19889" lon="-1.46459">
        <ele>5.865885</ele>
        <time>2021-09-05T12:40:52.000Z</time>
      </trkpt>
      <trkpt lat="49.19883" lon="-1.46448">
        <ele>6.067576</ele>
        <time>2021-09-05T12:40:54.000Z</time>
      </trkpt>
      <trkpt lat="49.1987" lon="-1.46425">
        <ele>6.461051</ele>
        <time>2021-09-05T12:40:58.000Z</time>
      </trkpt>
      <trkpt lat="49.19848" lon="-1.46389">
        <ele>7.110403</ele>
        <time>2021-09-05T12:41:04.000Z</time>
      </trkpt>
      <trkpt lat="49.19837" lon="-1.46369">
        <ele>7.450307</ele>
        <time>2021-09-05T12:41:08.000Z</time>
      </trkpt>
      <trkpt lat="49.19827" lon="-1.46352">
        <ele>7.752172</ele>
        <time>2021-09-05T12:41:12.000Z</time>
      </trkpt>
      <trkpt lat="49.19821" lon="-1.46343">
        <ele>7.923776</ele>
        <time>2021-09-05T12:41:14.000Z</time>
      </trkpt>
      <trkpt lat="49.1981" lon="-1.46324">
        <ele>8.254751</ele>
        <time>2021-09-05T12:41:17.000Z</time>
      </trkpt>
      <trkpt lat="49.19803" lon="-1.46311">
        <ele>8.476263</ele>
        <time>2021-09-05T12:41:19.000Z</time>
      </trkpt>
      <trkpt lat="49.19792" lon="-1.46293">
        <ele>8.797334</ele>
        <time>2021-09-05T12:41:22.000Z</time>
      </trkpt>
      <trkpt lat="49.19773" lon="-1.4626">
        <ele>9.464043</ele>
        <time>2021-09-05T12:41:27.000Z</time>
      </trkpt>
      <trkpt lat="49.19758" lon="-1.46235">
        <ele>10.104981</ele>
        <time>2021-09-05T12:41:31.000Z</time>
      </trkpt>
      <trkpt lat="49.19751" lon="-1.46223">
        <ele>10.419299</ele>
        <time>2021-09-05T12:41:33.000Z</time>
      </trkpt>
      <trkpt lat="49.19744" lon="-1.4621">
        <ele>10.73309</ele>
        <time>2021-09-05T12:41:35.000Z</time>
      </trkpt>
      <trkpt lat="49.19736" lon="-1.46197">
        <ele>11.067809</ele>
        <time>2021-09-05T12:41:37.000Z</time>
      </trkpt>
      <trkpt lat="49.19728" lon="-1.46185">
        <ele>11.388279</ele>
        <time>2021-09-05T12:41:39.000Z</time>
      </trkpt>
      <trkpt lat="49.19716" lon="-1.46164">
        <ele>11.920345</ele>
        <time>2021-09-05T12:41:42.000Z</time>
      </trkpt>
      <trkpt lat="49.19712" lon="-1.46157">
        <ele>12.094831</ele>
        <time>2021-09-05T12:41:43.000Z</time>
      </trkpt>
      <trkpt lat="49.19704" lon="-1.46143">
        <ele>12.437641</ele>
        <time>2021-09-05T12:41:45.000Z</time>
      </trkpt>
      <trkpt lat="49.19701" lon="-1.46138">
        <ele>12.586985</ele>
        <time>2021-09-05T12:41:46.000Z</time>
      </trkpt>
      <trkpt lat="49.19698" lon="-1.46132">
        <ele>12.718204</ele>
        <time>2021-09-05T12:41:47.000Z</time>
      </trkpt>
      <trkpt lat="49.19691" lon="-1.46121">
        <ele>13.004905</ele>
        <time>2021-09-05T12:41:49.000Z</time>
      </trkpt>
      <trkpt lat="49.19677" lon="-1.46096">
        <ele>13.637759</ele>
        <time>2021-09-05T12:41:54.000Z</time>
      </trkpt>
      <trkpt lat="49.19665" lon="-1.46077">
        <ele>14.123216</ele>
        <time>2021-09-05T12:41:58.000Z</time>
      </trkpt>
      <trkpt lat="49.19658" lon="-1.46064">
        <ele>14.455347</ele>
        <time>2021-09-05T12:42:01.000Z</time>
      </trkpt>
      <trkpt lat="49.19652" lon="-1.46054">
        <ele>14.77701</ele>
        <time>2021-09-05T12:42:03.000Z</time>
      </trkpt>
      <trkpt lat="49.19631" lon="-1.46018">
        <ele>15.91653</ele>
        <time>2021-09-05T12:42:09.000Z</time>
      </trkpt>
      <trkpt lat="49.19612" lon="-1.45986">
        <ele>16.948031</ele>
        <time>2021-09-05T12:42:14.000Z</time>
      </trkpt>
      <trkpt lat="49.19605" lon="-1.45974">
        <ele>17.316014</ele>
        <time>2021-09-05T12:42:16.000Z</time>
      </trkpt>
      <trkpt lat="49.19592" lon="-1.45952">
        <ele>18.01752</ele>
        <time>2021-09-05T12:42:20.000Z</time>
      </trkpt>
      <trkpt lat="49.19576" lon="-1.45923">
        <ele>18.919045</ele>
        <time>2021-09-05T12:42:25.000Z</time>
      </trkpt>
      <trkpt lat="49.19573" lon="-1.45918">
        <ele>19.081081</ele>
        <time>2021-09-05T12:42:26.000Z</time>
      </trkpt>
      <trkpt lat="49.19559" lon="-1.45894">
        <ele>19.856796</ele>
        <time>2021-09-05T12:42:31.000Z</time>
      </trkpt>
      <trkpt lat="49.19545" lon="-1.4587">
        <ele>20.598056</ele>
        <time>2021-09-05T12:42:35.000Z</time>
      </trkpt>
      <trkpt lat="49.19538" lon="-1.45859">
        <ele>20.954527</ele>
        <time>2021-09-05T12:42:37.000Z</time>
      </trkpt>
      <trkpt lat="49.19535" lon="-1.45853">
        <ele>21.135501</ele>
        <time>2021-09-05T12:42:38.000Z</time>
      </trkpt>
      <trkpt lat="49.19531" lon="-1.45847">
        <ele>21.309374</ele>
        <time>2021-09-05T12:42:39.000Z</time>
      </trkpt>
      <trkpt lat="49.19521" lon="-1.45829">
        <ele>21.813349</ele>
        <time>2021-09-05T12:42:42.000Z</time>
      </trkpt>
      <trkpt lat="49.19518" lon="-1.45824">
        <ele>21.987222</ele>
        <time>2021-09-05T12:42:43.000Z</time>
      </trkpt>
      <trkpt lat="49.19509" lon="-1.45808">
        <ele>22.433779</ele>
        <time>2021-09-05T12:42:46.000Z</time>
      </trkpt>
      <trkpt lat="49.19506" lon="-1.45802">
        <ele>22.582491</ele>
        <time>2021-09-05T12:42:47.000Z</time>
      </trkpt>
      <trkpt lat="49.19503" lon="-1.45797">
        <ele>22.733325</ele>
        <time>2021-09-05T12:42:48.000Z</time>
      </trkpt>
      <trkpt lat="49.19494" lon="-1.45779">
        <ele>23.245786</ele>
        <time>2021-09-05T12:42:51.000Z</time>
      </trkpt>
      <trkpt lat="49.1949" lon="-1.45773">
        <ele>23.418582</ele>
        <time>2021-09-05T12:42:52.000Z</time>
      </trkpt>
      <trkpt lat="49.19484" lon="-1.45761">
        <ele>23.758254</ele>
        <time>2021-09-05T12:42:54.000Z</time>
      </trkpt>
      <trkpt lat="49.19481" lon="-1.45755">
        <ele>23.910768</ele>
        <time>2021-09-05T12:42:55.000Z</time>
      </trkpt>
      <trkpt lat="49.19461" lon="-1.45711">
        <ele>25.086031</ele>
        <time>2021-09-05T12:43:02.000Z</time>
      </trkpt>
      <trkpt lat="49.19456" lon="-1.45699">
        <ele>25.398398</ele>
        <time>2021-09-05T12:43:04.000Z</time>
      </trkpt>
      <trkpt lat="49.1945" lon="-1.45687">
        <ele>25.738188</ele>
        <time>2021-09-05T12:43:06.000Z</time>
      </trkpt>
      <trkpt lat="49.1943" lon="-1.45639">
        <ele>26.914884</ele>
        <time>2021-09-05T12:43:13.000Z</time>
      </trkpt>
      <trkpt lat="49.19422" lon="-1.45618">
        <ele>27.058583</ele>
        <time>2021-09-05T12:43:16.000Z</time>
      </trkpt>
      <trkpt lat="49.19416" lon="-1.45605">
        <ele>27.150898</ele>
        <time>2021-09-05T12:43:18.000Z</time>
      </trkpt>
      <trkpt lat="49.19414" lon="-1.45599">
        <ele>27.192863</ele>
        <time>2021-09-05T12:43:19.000Z</time>
      </trkpt>
      <trkpt lat="49.19412" lon="-1.45593">
        <ele>27.233859</ele>
        <time>2021-09-05T12:43:20.000Z</time>
      </trkpt>
      <trkpt lat="49.19402" lon="-1.45566">
        <ele>27.416335</ele>
        <time>2021-09-05T12:43:24.000Z</time>
      </trkpt>
      <trkpt lat="49.19389" lon="-1.4553">
        <ele>27.663365</ele>
        <time>2021-09-05T12:43:30.000Z</time>
      </trkpt>
      <trkpt lat="49.19387" lon="-1.45523">
        <ele>27.709804</ele>
        <time>2021-09-05T12:43:31.000Z</time>
      </trkpt>
      <trkpt lat="49.19377" lon="-1.45486">
        <ele>27.94744</ele>
        <time>2021-09-05T12:43:36.000Z</time>
      </trkpt>
      <trkpt lat="49.19364" lon="-1.45441">
        <ele>28.2428</ele>
        <time>2021-09-05T12:43:42.000Z</time>
      </trkpt>
      <trkpt lat="49.19348" lon="-1.45382">
        <ele>28.490994</ele>
        <time>2021-09-05T12:43:50.000Z</time>
      </trkpt>
      <trkpt lat="49.19343" lon="-1.45352">
        <ele>28.402951</ele>
        <time>2021-09-05T12:43:54.000Z</time>
      </trkpt>
      <trkpt lat="49.19338" lon="-1.45329">
        <ele>28.333166</ele>
        <time>2021-09-05T12:43:57.000Z</time>
      </trkpt>
      <trkpt lat="49.1933" lon="-1.45282">
        <ele>28.195628</ele>
        <time>2021-09-05T12:44:03.000Z</time>
      </trkpt>
      <trkpt lat="49.19323" lon="-1.45243">
        <ele>28.081901</ele>
        <time>2021-09-05T12:44:08.000Z</time>
      </trkpt>
      <trkpt lat="49.19322" lon="-1.45236">
        <ele>28.059575</ele>
        <time>2021-09-05T12:44:09.000Z</time>
      </trkpt>
      <trkpt lat="49.19315" lon="-1.45199">
        <ele>27.950577</ele>
        <time>2021-09-05T12:44:14.000Z</time>
      </trkpt>
      <trkpt lat="49.19314" lon="-1.45192">
        <ele>27.930286</ele>
        <time>2021-09-05T12:44:15.000Z</time>
      </trkpt>
      <trkpt lat="49.19312" lon="-1.45178">
        <ele>27.88904</ele>
        <time>2021-09-05T12:44:17.000Z</time>
      </trkpt>
      <trkpt lat="49.19308" lon="-1.45157">
        <ele>27.828052</ele>
        <time>2021-09-05T12:44:20.000Z</time>
      </trkpt>
      <trkpt lat="49.19305" lon="-1.45142">
        <ele>27.783562</ele>
        <time>2021-09-05T12:44:22.000Z</time>
      </trkpt>
      <trkpt lat="49.19301" lon="-1.45119">
        <ele>27.725576</ele>
        <time>2021-09-05T12:44:25.000Z</time>
      </trkpt>
      <trkpt lat="49.193" lon="-1.45111">
        <ele>27.708243</ele>
        <time>2021-09-05T12:44:26.000Z</time>
      </trkpt>
      <trkpt lat="49.19298" lon="-1.45103">
        <ele>27.689918</ele>
        <time>2021-09-05T12:44:27.000Z</time>
      </trkpt>
      <trkpt lat="49.19292" lon="-1.4507">
        <ele>27.62016</ele>
        <time>2021-09-05T12:44:31.000Z</time>
      </trkpt>
      <trkpt lat="49.19291" lon="-1.45062">
        <ele>27.603308</ele>
        <time>2021-09-05T12:44:32.000Z</time>
      </trkpt>
      <trkpt lat="49.19287" lon="-1.45038">
        <ele>27.551874</ele>
        <time>2021-09-05T12:44:35.000Z</time>
      </trkpt>
      <trkpt lat="49.19285" lon="-1.4503">
        <ele>27.535023</ele>
        <time>2021-09-05T12:44:36.000Z</time>
      </trkpt>
      <trkpt lat="49.19279" lon="-1.44995">
        <ele>27.459884</ele>
        <time>2021-09-05T12:44:41.000Z</time>
      </trkpt>
      <trkpt lat="49.19273" lon="-1.44958">
        <ele>27.381203</ele>
        <time>2021-09-05T12:44:46.000Z</time>
      </trkpt>
      <trkpt lat="49.19267" lon="-1.44924">
        <ele>27.309888</ele>
        <time>2021-09-05T12:44:50.000Z</time>
      </trkpt>
      <trkpt lat="49.19264" lon="-1.44909">
        <ele>27.276184</ele>
        <time>2021-09-05T12:44:52.000Z</time>
      </trkpt>
      <trkpt lat="49.1926" lon="-1.44886">
        <ele>27.228855</ele>
        <time>2021-09-05T12:44:56.000Z</time>
      </trkpt>
      <trkpt lat="49.19256" lon="-1.44863">
        <ele>27.193527</ele>
        <time>2021-09-05T12:45:00.000Z</time>
      </trkpt>
      <trkpt lat="49.19255" lon="-1.44856">
        <ele>27.219528</ele>
        <time>2021-09-05T12:45:01.000Z</time>
      </trkpt>
      <trkpt lat="49.19253" lon="-1.44849">
        <ele>27.246378</ele>
        <time>2021-09-05T12:45:02.000Z</time>
      </trkpt>
      <trkpt lat="49.1925" lon="-1.44827">
        <ele>27.326495</ele>
        <time>2021-09-05T12:45:05.000Z</time>
      </trkpt>
      <trkpt lat="49.19248" lon="-1.4482">
        <ele>27.352994</ele>
        <time>2021-09-05T12:45:06.000Z</time>
      </trkpt>
      <trkpt lat="49.19241" lon="-1.44776">
        <ele>27.519075</ele>
        <time>2021-09-05T12:45:12.000Z</time>
      </trkpt>
      <trkpt lat="49.19234" lon="-1.44735">
        <ele>27.675433</ele>
        <time>2021-09-05T12:45:17.000Z</time>
      </trkpt>
      <trkpt lat="49.19231" lon="-1.4472">
        <ele>27.730746</ele>
        <time>2021-09-05T12:45:19.000Z</time>
      </trkpt>
      <trkpt lat="49.1923" lon="-1.44712">
        <ele>27.759354</ele>
        <time>2021-09-05T12:45:20.000Z</time>
      </trkpt>
      <trkpt lat="49.19225" lon="-1.44688">
        <ele>27.851733</ele>
        <time>2021-09-05T12:45:23.000Z</time>
      </trkpt>
      <trkpt lat="49.19224" lon="-1.4468">
        <ele>27.882595</ele>
        <time>2021-09-05T12:45:24.000Z</time>
      </trkpt>
      <trkpt lat="49.19223" lon="-1.44671">
        <ele>27.915009</ele>
        <time>2021-09-05T12:45:25.000Z</time>
      </trkpt>
      <trkpt lat="49.19218" lon="-1.44642">
        <ele>28.022676</ele>
        <time>2021-09-05T12:45:28.000Z</time>
      </trkpt>
      <trkpt lat="49.1921" lon="-1.44596">
        <ele>28.19062</ele>
        <time>2021-09-05T12:45:33.000Z</time>
      </trkpt>
      <trkpt lat="49.19207" lon="-1.44579">
        <ele>28.220255</ele>
        <time>2021-09-05T12:45:35.000Z</time>
      </trkpt>
      <trkpt lat="49.19202" lon="-1.44552">
        <ele>28.265973</ele>
        <time>2021-09-05T12:45:38.000Z</time>
      </trkpt>
      <trkpt lat="49.19199" lon="-1.44535">
        <ele>28.296314</ele>
        <time>2021-09-05T12:45:40.000Z</time>
      </trkpt>
      <trkpt lat="49.19196" lon="-1.44517">
        <ele>28.326269</ele>
        <time>2021-09-05T12:45:42.000Z</time>
      </trkpt>
      <trkpt lat="49.19193" lon="-1.44501">
        <ele>28.353694</ele>
        <time>2021-09-05T12:45:44.000Z</time>
      </trkpt>
      <trkpt lat="49.1919" lon="-1.44484">
        <ele>28.383169</ele>
        <time>2021-09-05T12:45:46.000Z</time>
      </trkpt>
      <trkpt lat="49.19185" lon="-1.44456">
        <ele>28.431258</ele>
        <time>2021-09-05T12:45:49.000Z</time>
      </trkpt>
      <trkpt lat="49.19182" lon="-1.44438">
        <ele>28.461119</ele>
        <time>2021-09-05T12:45:51.000Z</time>
      </trkpt>
      <trkpt lat="49.19176" lon="-1.44402">
        <ele>28.523465</ele>
        <time>2021-09-05T12:45:55.000Z</time>
      </trkpt>
      <trkpt lat="49.19165" lon="-1.44337">
        <ele>28.63406</ele>
        <time>2021-09-05T12:46:02.000Z</time>
      </trkpt>
      <trkpt lat="49.19153" lon="-1.44267">
        <ele>28.750696</ele>
        <time>2021-09-05T12:46:10.000Z</time>
      </trkpt>
      <trkpt lat="49.19148" lon="-1.44241">
        <ele>28.794694</ele>
        <time>2021-09-05T12:46:13.000Z</time>
      </trkpt>
      <trkpt lat="49.19143" lon="-1.44214">
        <ele>28.839749</ele>
        <time>2021-09-05T12:46:16.000Z</time>
      </trkpt>
      <trkpt lat="49.19133" lon="-1.44152">
        <ele>28.943168</ele>
        <time>2021-09-05T12:46:23.000Z</time>
      </trkpt>
      <trkpt lat="49.19125" lon="-1.44106">
        <ele>29.018819</ele>
        <time>2021-09-05T12:46:28.000Z</time>
      </trkpt>
      <trkpt lat="49.19123" lon="-1.44097">
        <ele>29.034273</ele>
        <time>2021-09-05T12:46:29.000Z</time>
      </trkpt>
      <trkpt lat="49.19115" lon="-1.44051">
        <ele>29.062318</ele>
        <time>2021-09-05T12:46:34.000Z</time>
      </trkpt>
      <trkpt lat="49.19105" lon="-1.4399">
        <ele>28.977406</ele>
        <time>2021-09-05T12:46:41.000Z</time>
      </trkpt>
      <trkpt lat="49.19094" lon="-1.43928">
        <ele>28.893058</ele>
        <time>2021-09-05T12:46:48.000Z</time>
      </trkpt>
      <trkpt lat="49.19092" lon="-1.43919">
        <ele>28.880433</ele>
        <time>2021-09-05T12:46:49.000Z</time>
      </trkpt>
      <trkpt lat="49.19088" lon="-1.43891">
        <ele>28.842685</ele>
        <time>2021-09-05T12:46:52.000Z</time>
      </trkpt>
      <trkpt lat="49.19077" lon="-1.43828">
        <ele>28.755436</ele>
        <time>2021-09-05T12:46:59.000Z</time>
      </trkpt>
      <trkpt lat="49.19074" lon="-1.4381">
        <ele>28.731443</ele>
        <time>2021-09-05T12:47:01.000Z</time>
      </trkpt>
      <trkpt lat="49.1907" lon="-1.43792">
        <ele>28.616756</ele>
        <time>2021-09-05T12:47:03.000Z</time>
      </trkpt>
      <trkpt lat="49.19069" lon="-1.43783">
        <ele>28.509593</ele>
        <time>2021-09-05T12:47:04.000Z</time>
      </trkpt>
      <trkpt lat="49.1906" lon="-1.43731">
        <ele>27.891539</ele>
        <time>2021-09-05T12:47:10.000Z</time>
      </trkpt>
      <trkpt lat="49.19056" lon="-1.43706">
        <ele>27.590072</ele>
        <time>2021-09-05T12:47:13.000Z</time>
      </trkpt>
      <trkpt lat="49.19053" lon="-1.4369">
        <ele>27.400872</ele>
        <time>2021-09-05T12:47:15.000Z</time>
      </trkpt>
      <trkpt lat="49.19046" lon="-1.43649">
        <ele>26.91021</ele>
        <time>2021-09-05T12:47:20.000Z</time>
      </trkpt>
      <trkpt lat="49.19043" lon="-1.43631">
        <ele>26.700777</ele>
        <time>2021-09-05T12:47:22.000Z</time>
      </trkpt>
      <trkpt lat="49.1904" lon="-1.43615">
        <ele>26.512027</ele>
        <time>2021-09-05T12:47:24.000Z</time>
      </trkpt>
      <trkpt lat="49.19039" lon="-1.43608">
        <ele>26.428878</ele>
        <time>2021-09-05T12:47:25.000Z</time>
      </trkpt>
      <trkpt lat="49.19035" lon="-1.43587">
        <ele>26.171868</ele>
        <time>2021-09-05T12:47:28.000Z</time>
      </trkpt>
      <trkpt lat="49.19026" lon="-1.43533">
        <ele>25.546598</ele>
        <time>2021-09-05T12:47:34.000Z</time>
      </trkpt>
      <trkpt lat="49.19024" lon="-1.43524">
        <ele>25.493095</ele>
        <time>2021-09-05T12:47:35.000Z</time>
      </trkpt>
      <trkpt lat="49.19018" lon="-1.43491">
        <ele>25.296883</ele>
        <time>2021-09-05T12:47:39.000Z</time>
      </trkpt>
      <trkpt lat="49.19017" lon="-1.43482">
        <ele>25.248214</ele>
        <time>2021-09-05T12:47:40.000Z</time>
      </trkpt>
      <trkpt lat="49.19013" lon="-1.43458">
        <ele>25.104407</ele>
        <time>2021-09-05T12:47:43.000Z</time>
      </trkpt>
      <trkpt lat="49.19005" lon="-1.43412">
        <ele>24.832501</ele>
        <time>2021-09-05T12:47:49.000Z</time>
      </trkpt>
      <trkpt lat="49.19001" lon="-1.43388">
        <ele>24.6955</ele>
        <time>2021-09-05T12:47:52.000Z</time>
      </trkpt>
      <trkpt lat="49.18998" lon="-1.43373">
        <ele>24.603327</ele>
        <time>2021-09-05T12:47:54.000Z</time>
      </trkpt>
      <trkpt lat="49.18997" lon="-1.43365">
        <ele>24.560038</ele>
        <time>2021-09-05T12:47:55.000Z</time>
      </trkpt>
      <trkpt lat="49.18995" lon="-1.43358">
        <ele>24.518175</ele>
        <time>2021-09-05T12:47:56.000Z</time>
      </trkpt>
      <trkpt lat="49.18991" lon="-1.43331">
        <ele>24.357888</ele>
        <time>2021-09-05T12:48:00.000Z</time>
      </trkpt>
      <trkpt lat="49.18985" lon="-1.433">
        <ele>24.175736</ele>
        <time>2021-09-05T12:48:05.000Z</time>
      </trkpt>
      <trkpt lat="49.18983" lon="-1.43285">
        <ele>24.087078</ele>
        <time>2021-09-05T12:48:07.000Z</time>
      </trkpt>
      <trkpt lat="49.1898" lon="-1.4327">
        <ele>24.001386</ele>
        <time>2021-09-05T12:48:09.000Z</time>
      </trkpt>
      <trkpt lat="49.18975" lon="-1.43242">
        <ele>24.209678</ele>
        <time>2021-09-05T12:48:13.000Z</time>
      </trkpt>
      <trkpt lat="49.18973" lon="-1.43227">
        <ele>24.326232</ele>
        <time>2021-09-05T12:48:15.000Z</time>
      </trkpt>
      <trkpt lat="49.18965" lon="-1.43185">
        <ele>24.666633</ele>
        <time>2021-09-05T12:48:21.000Z</time>
      </trkpt>
      <trkpt lat="49.18963" lon="-1.43171">
        <ele>24.775866</ele>
        <time>2021-09-05T12:48:23.000Z</time>
      </trkpt>
      <trkpt lat="49.18958" lon="-1.43141">
        <ele>25.019586</ele>
        <time>2021-09-05T12:48:28.000Z</time>
      </trkpt>
      <trkpt lat="49.18957" lon="-1.43134">
        <ele>25.073235</ele>
        <time>2021-09-05T12:48:29.000Z</time>
      </trkpt>
      <trkpt lat="49.18954" lon="-1.4312">
        <ele>25.186502</ele>
        <time>2021-09-05T12:48:31.000Z</time>
      </trkpt>
      <trkpt lat="49.18952" lon="-1.43106">
        <ele>25.296782</ele>
        <time>2021-09-05T12:48:33.000Z</time>
      </trkpt>
      <trkpt lat="49.18948" lon="-1.43085">
        <ele>25.462947</ele>
        <time>2021-09-05T12:48:36.000Z</time>
      </trkpt>
      <trkpt lat="49.18946" lon="-1.4307">
        <ele>25.580249</ele>
        <time>2021-09-05T12:48:38.000Z</time>
      </trkpt>
      <trkpt lat="49.18944" lon="-1.43063">
        <ele>25.638679</ele>
        <time>2021-09-05T12:48:39.000Z</time>
      </trkpt>
      <trkpt lat="49.18939" lon="-1.43033">
        <ele>25.877619</ele>
        <time>2021-09-05T12:48:43.000Z</time>
      </trkpt>
      <trkpt lat="49.1893" lon="-1.4298">
        <ele>26.367031</ele>
        <time>2021-09-05T12:48:50.000Z</time>
      </trkpt>
      <trkpt lat="49.18929" lon="-1.42973">
        <ele>26.447818</ele>
        <time>2021-09-05T12:48:51.000Z</time>
      </trkpt>
      <trkpt lat="49.18926" lon="-1.42959">
        <ele>26.601433</ele>
        <time>2021-09-05T12:48:53.000Z</time>
      </trkpt>
      <trkpt lat="49.18924" lon="-1.42945">
        <ele>26.751988</ele>
        <time>2021-09-05T12:48:55.000Z</time>
      </trkpt>
      <trkpt lat="49.1892" lon="-1.42923">
        <ele>26.99435</ele>
        <time>2021-09-05T12:48:58.000Z</time>
      </trkpt>
      <trkpt lat="49.18918" lon="-1.42909">
        <ele>27.147965</ele>
        <time>2021-09-05T12:49:00.000Z</time>
      </trkpt>
      <trkpt lat="49.18916" lon="-1.42902">
        <ele>27.224262</ele>
        <time>2021-09-05T12:49:01.000Z</time>
      </trkpt>
      <trkpt lat="49.1891" lon="-1.42865">
        <ele>27.619217</ele>
        <time>2021-09-05T12:49:06.000Z</time>
      </trkpt>
      <trkpt lat="49.18909" lon="-1.42858">
        <ele>27.697556</ele>
        <time>2021-09-05T12:49:07.000Z</time>
      </trkpt>
      <trkpt lat="49.18898" lon="-1.42796">
        <ele>28.379136</ele>
        <time>2021-09-05T12:49:15.000Z</time>
      </trkpt>
      <trkpt lat="49.18891" lon="-1.42752">
        <ele>28.859975</ele>
        <time>2021-09-05T12:49:21.000Z</time>
      </trkpt>
      <trkpt lat="49.18887" lon="-1.42732">
        <ele>29.073645</ele>
        <time>2021-09-05T12:49:24.000Z</time>
      </trkpt>
      <trkpt lat="49.18886" lon="-1.42725">
        <ele>29.156412</ele>
        <time>2021-09-05T12:49:25.000Z</time>
      </trkpt>
      <trkpt lat="49.18885" lon="-1.42717">
        <ele>29.24235</ele>
        <time>2021-09-05T12:49:26.000Z</time>
      </trkpt>
      <trkpt lat="49.18879" lon="-1.42687">
        <ele>29.589701</ele>
        <time>2021-09-05T12:49:30.000Z</time>
      </trkpt>
      <trkpt lat="49.18877" lon="-1.42674">
        <ele>29.731946</ele>
        <time>2021-09-05T12:49:32.000Z</time>
      </trkpt>
      <trkpt lat="49.18875" lon="-1.4266">
        <ele>29.88456</ele>
        <time>2021-09-05T12:49:34.000Z</time>
      </trkpt>
      <trkpt lat="49.18874" lon="-1.42654">
        <ele>29.961611</ele>
        <time>2021-09-05T12:49:35.000Z</time>
      </trkpt>
      <trkpt lat="49.18866" lon="-1.42609">
        <ele>30.471524</ele>
        <time>2021-09-05T12:49:41.000Z</time>
      </trkpt>
      <trkpt lat="49.18865" lon="-1.42601">
        <ele>30.559581</ele>
        <time>2021-09-05T12:49:42.000Z</time>
      </trkpt>
      <trkpt lat="49.18861" lon="-1.42578">
        <ele>30.814222</ele>
        <time>2021-09-05T12:49:45.000Z</time>
      </trkpt>
      <trkpt lat="49.18859" lon="-1.4257">
        <ele>30.905876</ele>
        <time>2021-09-05T12:49:46.000Z</time>
      </trkpt>
      <trkpt lat="49.18854" lon="-1.42538">
        <ele>31.273126</ele>
        <time>2021-09-05T12:49:50.000Z</time>
      </trkpt>
      <trkpt lat="49.18845" lon="-1.42487">
        <ele>31.846543</ele>
        <time>2021-09-05T12:49:56.000Z</time>
      </trkpt>
      <trkpt lat="49.18835" lon="-1.42425">
        <ele>32.400183</ele>
        <time>2021-09-05T12:50:03.000Z</time>
      </trkpt>
      <trkpt lat="49.18832" lon="-1.42409">
        <ele>32.534897</ele>
        <time>2021-09-05T12:50:05.000Z</time>
      </trkpt>
      <trkpt lat="49.18828" lon="-1.42384">
        <ele>32.737658</ele>
        <time>2021-09-05T12:50:08.000Z</time>
      </trkpt>
      <trkpt lat="49.18825" lon="-1.42367">
        <ele>32.878796</ele>
        <time>2021-09-05T12:50:10.000Z</time>
      </trkpt>
      <trkpt lat="49.1882" lon="-1.42342">
        <ele>33.083085</ele>
        <time>2021-09-05T12:50:13.000Z</time>
      </trkpt>
      <trkpt lat="49.18812" lon="-1.42291">
        <ele>33.501144</ele>
        <time>2021-09-05T12:50:19.000Z</time>
      </trkpt>
      <trkpt lat="49.18801" lon="-1.42229">
        <ele>34.006821</ele>
        <time>2021-09-05T12:50:26.000Z</time>
      </trkpt>
      <trkpt lat="49.18792" lon="-1.42176">
        <ele>34.326417</ele>
        <time>2021-09-05T12:50:32.000Z</time>
      </trkpt>
      <trkpt lat="49.18783" lon="-1.42125">
        <ele>34.546817</ele>
        <time>2021-09-05T12:50:38.000Z</time>
      </trkpt>
      <trkpt lat="49.18782" lon="-1.42117">
        <ele>34.58201</ele>
        <time>2021-09-05T12:50:39.000Z</time>
      </trkpt>
      <trkpt lat="49.18776" lon="-1.42083">
        <ele>34.726318</ele>
        <time>2021-09-05T12:50:43.000Z</time>
      </trkpt>
      <trkpt lat="49.18765" lon="-1.42021">
        <ele>34.993965</ele>
        <time>2021-09-05T12:50:50.000Z</time>
      </trkpt>
      <trkpt lat="49.18756" lon="-1.41966">
        <ele>35.230595</ele>
        <time>2021-09-05T12:50:56.000Z</time>
      </trkpt>
      <trkpt lat="49.18748" lon="-1.41923">
        <ele>35.359978</ele>
        <time>2021-09-05T12:51:01.000Z</time>
      </trkpt>
      <trkpt lat="49.18745" lon="-1.41905">
        <ele>35.373274</ele>
        <time>2021-09-05T12:51:03.000Z</time>
      </trkpt>
      <trkpt lat="49.18739" lon="-1.41869">
        <ele>35.399961</ele>
        <time>2021-09-05T12:51:07.000Z</time>
      </trkpt>
      <trkpt lat="49.18728" lon="-1.41806">
        <ele>35.446032</ele>
        <time>2021-09-05T12:51:14.000Z</time>
      </trkpt>
      <trkpt lat="49.1872" lon="-1.4176">
        <ele>35.479518</ele>
        <time>2021-09-05T12:51:20.000Z</time>
      </trkpt>
      <trkpt lat="49.18719" lon="-1.41753">
        <ele>35.484197</ele>
        <time>2021-09-05T12:51:21.000Z</time>
      </trkpt>
      <trkpt lat="49.18714" lon="-1.41725">
        <ele>35.504688</ele>
        <time>2021-09-05T12:51:25.000Z</time>
      </trkpt>
      <trkpt lat="49.18712" lon="-1.41716">
        <ele>35.51176</ele>
        <time>2021-09-05T12:51:26.000Z</time>
      </trkpt>
      <trkpt lat="49.18706" lon="-1.41677">
        <ele>35.540131</ele>
        <time>2021-09-05T12:51:30.000Z</time>
      </trkpt>
      <trkpt lat="49.18692" lon="-1.41599">
        <ele>35.359428</ele>
        <time>2021-09-05T12:51:38.000Z</time>
      </trkpt>
      <trkpt lat="49.18686" lon="-1.41565">
        <ele>35.273423</ele>
        <time>2021-09-05T12:51:43.000Z</time>
      </trkpt>
      <trkpt lat="49.18685" lon="-1.4156">
        <ele>35.259254</ele>
        <time>2021-09-05T12:51:44.000Z</time>
      </trkpt>
      <trkpt lat="49.18682" lon="-1.41538">
        <ele>35.203476</ele>
        <time>2021-09-05T12:51:48.000Z</time>
      </trkpt>
      <trkpt lat="49.18681" lon="-1.41533">
        <ele>35.191052</ele>
        <time>2021-09-05T12:51:49.000Z</time>
      </trkpt>
      <trkpt lat="49.18679" lon="-1.41523">
        <ele>35.167815</ele>
        <time>2021-09-05T12:51:51.000Z</time>
      </trkpt>
      <trkpt lat="49.18674" lon="-1.415">
        <ele>35.10795</ele>
        <time>2021-09-05T12:51:55.000Z</time>
      </trkpt>
      <trkpt lat="49.18671" lon="-1.41486">
        <ele>35.071164</ele>
        <time>2021-09-05T12:51:57.000Z</time>
      </trkpt>
      <trkpt lat="49.18667" lon="-1.41471">
        <ele>35.033104</ele>
        <time>2021-09-05T12:51:59.000Z</time>
      </trkpt>
      <trkpt lat="49.18653" lon="-1.41417">
        <ele>34.890535</ele>
        <time>2021-09-05T12:52:06.000Z</time>
      </trkpt>
      <trkpt lat="49.1863" lon="-1.41339">
        <ele>34.813009</ele>
        <time>2021-09-05T12:52:16.000Z</time>
      </trkpt>
      <trkpt lat="49.18627" lon="-1.41332">
        <ele>34.806614</ele>
        <time>2021-09-05T12:52:17.000Z</time>
      </trkpt>
      <trkpt lat="49.18607" lon="-1.41282">
        <ele>34.762061</ele>
        <time>2021-09-05T12:52:24.000Z</time>
      </trkpt>
      <trkpt lat="49.18583" lon="-1.41235">
        <ele>34.717056</ele>
        <time>2021-09-05T12:52:31.000Z</time>
      </trkpt>
      <trkpt lat="49.18554" lon="-1.41186">
        <ele>34.66661</ele>
        <time>2021-09-05T12:52:39.000Z</time>
      </trkpt>
      <trkpt lat="49.18532" lon="-1.41153">
        <ele>34.846002</ele>
        <time>2021-09-05T12:52:45.000Z</time>
      </trkpt>
      <trkpt lat="49.18526" lon="-1.41144">
        <ele>34.90253</ele>
        <time>2021-09-05T12:52:47.000Z</time>
      </trkpt>
      <trkpt lat="49.18517" lon="-1.41132">
        <ele>34.981727</ele>
        <time>2021-09-05T12:52:50.000Z</time>
      </trkpt>
      <trkpt lat="49.18503" lon="-1.41112">
        <ele>35.10459</ele>
        <time>2021-09-05T12:52:55.000Z</time>
      </trkpt>
      <trkpt lat="49.18497" lon="-1.41104">
        <ele>35.157535</ele>
        <time>2021-09-05T12:52:57.000Z</time>
      </trkpt>
      <trkpt lat="49.18484" lon="-1.41087">
        <ele>35.270311</ele>
        <time>2021-09-05T12:53:01.000Z</time>
      </trkpt>
      <trkpt lat="49.1848" lon="-1.41083">
        <ele>35.299566</ele>
        <time>2021-09-05T12:53:02.000Z</time>
      </trkpt>
      <trkpt lat="49.18473" lon="-1.41076">
        <ele>35.356289</ele>
        <time>2021-09-05T12:53:04.000Z</time>
      </trkpt>
      <trkpt lat="49.18469" lon="-1.41073">
        <ele>35.383981</ele>
        <time>2021-09-05T12:53:05.000Z</time>
      </trkpt>
      <trkpt lat="49.18465" lon="-1.41069">
        <ele>35.413236</ele>
        <time>2021-09-05T12:53:06.000Z</time>
      </trkpt>
      <trkpt lat="49.18453" lon="-1.41058">
        <ele>35.508147</ele>
        <time>2021-09-05T12:53:09.000Z</time>
      </trkpt>
      <trkpt lat="49.18445" lon="-1.4105">
        <ele>35.569003</ele>
        <time>2021-09-05T12:53:11.000Z</time>
      </trkpt>
      <trkpt lat="49.18437" lon="-1.41043">
        <ele>35.629634</ele>
        <time>2021-09-05T12:53:13.000Z</time>
      </trkpt>
      <trkpt lat="49.18411" lon="-1.41023">
        <ele>35.819565</ele>
        <time>2021-09-05T12:53:19.000Z</time>
      </trkpt>
      <trkpt lat="49.18387" lon="-1.41007">
        <ele>35.850439</ele>
        <time>2021-09-05T12:53:25.000Z</time>
      </trkpt>
      <trkpt lat="49.18382" lon="-1.41003">
        <ele>35.852462</ele>
        <time>2021-09-05T12:53:26.000Z</time>
      </trkpt>
      <trkpt lat="49.18371" lon="-1.40995">
        <ele>35.85759</ele>
        <time>2021-09-05T12:53:29.000Z</time>
      </trkpt>
      <trkpt lat="49.18351" lon="-1.40981">
        <ele>35.866254</ele>
        <time>2021-09-05T12:53:34.000Z</time>
      </trkpt>
      <trkpt lat="49.18322" lon="-1.40965">
        <ele>35.878755</ele>
        <time>2021-09-05T12:53:40.000Z</time>
      </trkpt>
      <trkpt lat="49.18288" lon="-1.40946">
        <ele>35.893351</ele>
        <time>2021-09-05T12:53:47.000Z</time>
      </trkpt>
      <trkpt lat="49.18283" lon="-1.40945">
        <ele>35.895363</ele>
        <time>2021-09-05T12:53:48.000Z</time>
      </trkpt>
      <trkpt lat="49.18262" lon="-1.40942">
        <ele>35.903753</ele>
        <time>2021-09-05T12:53:52.000Z</time>
      </trkpt>
      <trkpt lat="49.18254" lon="-1.40937">
        <ele>35.907273</ele>
        <time>2021-09-05T12:53:54.000Z</time>
      </trkpt>
      <trkpt lat="49.18251" lon="-1.40931">
        <ele>35.909148</ele>
        <time>2021-09-05T12:53:55.000Z</time>
      </trkpt>
      <trkpt lat="49.18248" lon="-1.4092">
        <ele>35.91234</ele>
        <time>2021-09-05T12:53:57.000Z</time>
      </trkpt>
      <trkpt lat="49.18245" lon="-1.40898">
        <ele>35.790714</ele>
        <time>2021-09-05T12:53:59.000Z</time>
      </trkpt>
      <trkpt lat="49.18247" lon="-1.40895">
        <ele>35.763402</ele>
        <time>2021-09-05T12:54:00.000Z</time>
      </trkpt>
      <trkpt lat="49.18267" lon="-1.40888">
        <ele>35.571794</ele>
        <time>2021-09-05T12:54:04.000Z</time>
      </trkpt>
      <trkpt lat="49.18281" lon="-1.40877">
        <ele>35.41599</ele>
        <time>2021-09-05T12:54:07.000Z</time>
      </trkpt>
      <trkpt lat="49.18284" lon="-1.40864">
        <ele>35.33102</ele>
        <time>2021-09-05T12:54:09.000Z</time>
      </trkpt>
      <trkpt lat="49.1829" lon="-1.40851">
        <ele>35.228034</ele>
        <time>2021-09-05T12:54:11.000Z</time>
      </trkpt>
      <trkpt lat="49.18292" lon="-1.40844">
        <ele>35.176271</ele>
        <time>2021-09-05T12:54:12.000Z</time>
      </trkpt>
      <trkpt lat="49.18323" lon="-1.40805">
        <ele>34.790007</ele>
        <time>2021-09-05T12:54:19.000Z</time>
      </trkpt>
      <trkpt lat="49.18368" lon="-1.40749">
        <ele>34.221562</ele>
        <time>2021-09-05T12:54:29.000Z</time>
      </trkpt>
      <trkpt lat="49.18372" lon="-1.40743">
        <ele>34.16409</ele>
        <time>2021-09-05T12:54:30.000Z</time>
      </trkpt>
      <trkpt lat="49.18401" lon="-1.40704">
        <ele>33.978031</ele>
        <time>2021-09-05T12:54:37.000Z</time>
      </trkpt>
      <trkpt lat="49.18417" lon="-1.40682">
        <ele>33.876498</ele>
        <time>2021-09-05T12:54:41.000Z</time>
      </trkpt>
      <trkpt lat="49.18429" lon="-1.40666">
        <ele>33.800645</ele>
        <time>2021-09-05T12:54:44.000Z</time>
      </trkpt>
      <trkpt lat="49.18436" lon="-1.40656">
        <ele>33.754628</ele>
        <time>2021-09-05T12:54:46.000Z</time>
      </trkpt>
      <trkpt lat="49.18438" lon="-1.40641">
        <ele>33.70641</ele>
        <time>2021-09-05T12:54:48.000Z</time>
      </trkpt>
      <trkpt lat="49.18429" lon="-1.40625">
        <ele>33.641453</ele>
        <time>2021-09-05T12:54:51.000Z</time>
      </trkpt>
      <trkpt lat="49.18406" lon="-1.40582">
        <ele>33.469243</ele>
        <time>2021-09-05T12:54:58.000Z</time>
      </trkpt>
      <trkpt lat="49.18376" lon="-1.40526">
        <ele>33.330918</ele>
        <time>2021-09-05T12:55:07.000Z</time>
      </trkpt>
      <trkpt lat="49.18368" lon="-1.40506">
        <ele>33.367572</ele>
        <time>2021-09-05T12:55:10.000Z</time>
      </trkpt>
      <trkpt lat="49.18363" lon="-1.40491">
        <ele>33.394239</ele>
        <time>2021-09-05T12:55:12.000Z</time>
      </trkpt>
      <trkpt lat="49.1836" lon="-1.40485">
        <ele>33.407132</ele>
        <time>2021-09-05T12:55:13.000Z</time>
      </trkpt>
      <trkpt lat="49.18344" lon="-1.40452">
        <ele>33.472533</ele>
        <time>2021-09-05T12:55:18.000Z</time>
      </trkpt>
      <trkpt lat="49.18319" lon="-1.40399">
        <ele>33.577486</ele>
        <time>2021-09-05T12:55:26.000Z</time>
      </trkpt>
      <trkpt lat="49.18315" lon="-1.40392">
        <ele>33.59219</ele>
        <time>2021-09-05T12:55:27.000Z</time>
      </trkpt>
      <trkpt lat="49.18304" lon="-1.40372">
        <ele>33.633355</ele>
        <time>2021-09-05T12:55:30.000Z</time>
      </trkpt>
      <trkpt lat="49.18282" lon="-1.40335">
        <ele>33.714827</ele>
        <time>2021-09-05T12:55:36.000Z</time>
      </trkpt>
      <trkpt lat="49.18274" lon="-1.40324">
        <ele>33.740938</ele>
        <time>2021-09-05T12:55:38.000Z</time>
      </trkpt>
      <trkpt lat="49.18257" lon="-1.40303">
        <ele>33.762758</ele>
        <time>2021-09-05T12:55:42.000Z</time>
      </trkpt>
      <trkpt lat="49.18223" lon="-1.40261">
        <ele>33.803903</ele>
        <time>2021-09-05T12:55:50.000Z</time>
      </trkpt>
      <trkpt lat="49.18197" lon="-1.40233">
        <ele>33.834949</ele>
        <time>2021-09-05T12:55:56.000Z</time>
      </trkpt>
      <trkpt lat="49.18168" lon="-1.40205">
        <ele>33.867935</ele>
        <time>2021-09-05T12:56:02.000Z</time>
      </trkpt>
      <trkpt lat="49.18148" lon="-1.40191">
        <ele>33.889271</ele>
        <time>2021-09-05T12:56:06.000Z</time>
      </trkpt>
      <trkpt lat="49.18144" lon="-1.40188">
        <ele>33.893483</ele>
        <time>2021-09-05T12:56:07.000Z</time>
      </trkpt>
      <trkpt lat="49.18121" lon="-1.40172">
        <ele>33.909171</ele>
        <time>2021-09-05T12:56:12.000Z</time>
      </trkpt>
      <trkpt lat="49.18093" lon="-1.40161">
        <ele>33.864598</ele>
        <time>2021-09-05T12:56:17.000Z</time>
      </trkpt>
      <trkpt lat="49.1806" lon="-1.40142">
        <ele>33.809858</ele>
        <time>2021-09-05T12:56:23.000Z</time>
      </trkpt>
      <trkpt lat="49.18027" lon="-1.40122">
        <ele>33.754606</ele>
        <time>2021-09-05T12:56:29.000Z</time>
      </trkpt>
      <trkpt lat="49.17988" lon="-1.40094">
        <ele>33.6876</ele>
        <time>2021-09-05T12:56:36.000Z</time>
      </trkpt>
      <trkpt lat="49.17968" lon="-1.4008">
        <ele>33.653614</ele>
        <time>2021-09-05T12:56:40.000Z</time>
      </trkpt>
      <trkpt lat="49.17931" lon="-1.40054">
        <ele>33.510878</ele>
        <time>2021-09-05T12:56:47.000Z</time>
      </trkpt>
      <trkpt lat="49.17895" lon="-1.40034">
        <ele>33.345952</ele>
        <time>2021-09-05T12:56:54.000Z</time>
      </trkpt>
      <trkpt lat="49.1787" lon="-1.4002">
        <ele>33.231162</ele>
        <time>2021-09-05T12:56:59.000Z</time>
      </trkpt>
      <trkpt lat="49.17838" lon="-1.4">
        <ele>33.078827</ele>
        <time>2021-09-05T12:57:05.000Z</time>
      </trkpt>
      <trkpt lat="49.17824" lon="-1.39987">
        <ele>33.010649</ele>
        <time>2021-09-05T12:57:08.000Z</time>
      </trkpt>
      <trkpt lat="49.17816" lon="-1.39978">
        <ele>32.966208</ele>
        <time>2021-09-05T12:57:10.000Z</time>
      </trkpt>
      <trkpt lat="49.17811" lon="-1.39974">
        <ele>32.943289</ele>
        <time>2021-09-05T12:57:11.000Z</time>
      </trkpt>
      <trkpt lat="49.17802" lon="-1.39965">
        <ele>32.895386</ele>
        <time>2021-09-05T12:57:13.000Z</time>
      </trkpt>
      <trkpt lat="49.17797" lon="-1.3996">
        <ele>32.871284</ele>
        <time>2021-09-05T12:57:14.000Z</time>
      </trkpt>
      <trkpt lat="49.17793" lon="-1.39956">
        <ele>32.867736</ele>
        <time>2021-09-05T12:57:15.000Z</time>
      </trkpt>
      <trkpt lat="49.17775" lon="-1.39937">
        <ele>32.966943</ele>
        <time>2021-09-05T12:57:19.000Z</time>
      </trkpt>
      <trkpt lat="49.17767" lon="-1.39924">
        <ele>33.018153</ele>
        <time>2021-09-05T12:57:21.000Z</time>
      </trkpt>
      <trkpt lat="49.17755" lon="-1.39906">
        <ele>33.0935</ele>
        <time>2021-09-05T12:57:24.000Z</time>
      </trkpt>
      <trkpt lat="49.17743" lon="-1.39888">
        <ele>33.168531</ele>
        <time>2021-09-05T12:57:27.000Z</time>
      </trkpt>
      <trkpt lat="49.17736" lon="-1.39876">
        <ele>33.215963</ele>
        <time>2021-09-05T12:57:29.000Z</time>
      </trkpt>
      <trkpt lat="49.1771" lon="-1.39837">
        <ele>33.380719</ele>
        <time>2021-09-05T12:57:36.000Z</time>
      </trkpt>
      <trkpt lat="49.1768" lon="-1.3979">
        <ele>33.574018</ele>
        <time>2021-09-05T12:57:44.000Z</time>
      </trkpt>
      <trkpt lat="49.17659" lon="-1.39752">
        <ele>33.714979</ele>
        <time>2021-09-05T12:57:50.000Z</time>
      </trkpt>
      <trkpt lat="49.17656" lon="-1.39746">
        <ele>33.735927</ele>
        <time>2021-09-05T12:57:51.000Z</time>
      </trkpt>
      <trkpt lat="49.17648" lon="-1.39739">
        <ele>33.771959</ele>
        <time>2021-09-05T12:57:53.000Z</time>
      </trkpt>
      <trkpt lat="49.1764" lon="-1.39726">
        <ele>33.819143</ele>
        <time>2021-09-05T12:57:55.000Z</time>
      </trkpt>
      <trkpt lat="49.17638" lon="-1.3972">
        <ele>33.838904</ele>
        <time>2021-09-05T12:57:56.000Z</time>
      </trkpt>
      <trkpt lat="49.17635" lon="-1.39713">
        <ele>33.859838</ele>
        <time>2021-09-05T12:57:57.000Z</time>
      </trkpt>
      <trkpt lat="49.17627" lon="-1.39688">
        <ele>33.935377</ele>
        <time>2021-09-05T12:58:00.000Z</time>
      </trkpt>
      <trkpt lat="49.17604" lon="-1.39625">
        <ele>34.127419</ele>
        <time>2021-09-05T12:58:07.000Z</time>
      </trkpt>
      <trkpt lat="49.17586" lon="-1.39574">
        <ele>34.283438</ele>
        <time>2021-09-05T12:58:13.000Z</time>
      </trkpt>
      <trkpt lat="49.17577" lon="-1.39549">
        <ele>34.358724</ele>
        <time>2021-09-05T12:58:16.000Z</time>
      </trkpt>
      <trkpt lat="49.17575" lon="-1.3954">
        <ele>34.383931</ele>
        <time>2021-09-05T12:58:17.000Z</time>
      </trkpt>
      <trkpt lat="49.17561" lon="-1.39475">
        <ele>34.013661</ele>
        <time>2021-09-05T12:58:24.000Z</time>
      </trkpt>
      <trkpt lat="49.17553" lon="-1.3944">
        <ele>33.777208</ele>
        <time>2021-09-05T12:58:28.000Z</time>
      </trkpt>
      <trkpt lat="49.17542" lon="-1.39392">
        <ele>33.451965</ele>
        <time>2021-09-05T12:58:34.000Z</time>
      </trkpt>
      <trkpt lat="49.1754" lon="-1.39384">
        <ele>33.402131</ele>
        <time>2021-09-05T12:58:35.000Z</time>
      </trkpt>
      <trkpt lat="49.17538" lon="-1.39377">
        <ele>33.351697</ele>
        <time>2021-09-05T12:58:36.000Z</time>
      </trkpt>
      <trkpt lat="49.17532" lon="-1.39347">
        <ele>33.150278</ele>
        <time>2021-09-05T12:58:40.000Z</time>
      </trkpt>
      <trkpt lat="49.17519" lon="-1.39303">
        <ele>32.84507</ele>
        <time>2021-09-05T12:58:46.000Z</time>
      </trkpt>
      <trkpt lat="49.17515" lon="-1.39288">
        <ele>32.740034</ele>
        <time>2021-09-05T12:58:48.000Z</time>
      </trkpt>
      <trkpt lat="49.17504" lon="-1.39249">
        <ele>32.281981</ele>
        <time>2021-09-05T12:58:53.000Z</time>
      </trkpt>
      <trkpt lat="49.17494" lon="-1.39217">
        <ele>31.828368</ele>
        <time>2021-09-05T12:58:58.000Z</time>
      </trkpt>
      <trkpt lat="49.17491" lon="-1.39206">
        <ele>31.67613</ele>
        <time>2021-09-05T12:59:02.000Z</time>
      </trkpt>
      <trkpt lat="49.17498" lon="-1.39199">
        <ele>31.512345</ele>
        <time>2021-09-05T12:59:05.000Z</time>
      </trkpt>
      <trkpt lat="49.175" lon="-1.39199">
        <ele>31.478166</ele>
        <time>2021-09-05T12:59:06.000Z</time>
      </trkpt>
      <trkpt lat="49.17514" lon="-1.39193">
        <ele>31.205122</ele>
        <time>2021-09-05T12:59:11.000Z</time>
      </trkpt>
      <trkpt lat="49.17534" lon="-1.3919">
        <ele>30.796839</ele>
        <time>2021-09-05T12:59:17.000Z</time>
      </trkpt>
      <trkpt lat="49.1755" lon="-1.39187">
        <ele>30.493584</ele>
        <time>2021-09-05T12:59:22.000Z</time>
      </trkpt>
      <trkpt lat="49.17577" lon="-1.39183">
        <ele>29.949823</ele>
        <time>2021-09-05T12:59:29.000Z</time>
      </trkpt>
      <trkpt lat="49.17604" lon="-1.39178">
        <ele>29.413854</ele>
        <time>2021-09-05T12:59:35.000Z</time>
      </trkpt>
      <trkpt lat="49.17609" lon="-1.39177">
        <ele>29.319263</ele>
        <time>2021-09-05T12:59:36.000Z</time>
      </trkpt>
      <trkpt lat="49.17619" lon="-1.39176">
        <ele>29.135281</ele>
        <time>2021-09-05T12:59:38.000Z</time>
      </trkpt>
      <trkpt lat="49.17639" lon="-1.39173">
        <ele>29.380632</ele>
        <time>2021-09-05T12:59:42.000Z</time>
      </trkpt>
      <trkpt lat="49.17677" lon="-1.39158">
        <ele>29.875253</ele>
        <time>2021-09-05T12:59:50.000Z</time>
      </trkpt>
      <trkpt lat="49.17699" lon="-1.39146">
        <ele>30.168008</ele>
        <time>2021-09-05T12:59:55.000Z</time>
      </trkpt>
      <trkpt lat="49.17734" lon="-1.39123">
        <ele>30.641116</ele>
        <time>2021-09-05T13:00:02.000Z</time>
      </trkpt>
      <trkpt lat="49.17758" lon="-1.39097">
        <ele>31.011473</ele>
        <time>2021-09-05T13:00:08.000Z</time>
      </trkpt>
      <trkpt lat="49.17777" lon="-1.39076">
        <ele>31.302818</ele>
        <time>2021-09-05T13:00:13.000Z</time>
      </trkpt>
      <trkpt lat="49.17802" lon="-1.39049">
        <ele>31.672884</ele>
        <time>2021-09-05T13:00:19.000Z</time>
      </trkpt>
      <trkpt lat="49.17837" lon="-1.39017">
        <ele>32.157773</ele>
        <time>2021-09-05T13:00:27.000Z</time>
      </trkpt>
      <trkpt lat="49.17866" lon="-1.38992">
        <ele>32.547734</ele>
        <time>2021-09-05T13:00:33.000Z</time>
      </trkpt>
      <trkpt lat="49.17901" lon="-1.38968">
        <ele>32.999022</ele>
        <time>2021-09-05T13:00:39.000Z</time>
      </trkpt>
      <trkpt lat="49.17947" lon="-1.38946">
        <ele>33.472052</ele>
        <time>2021-09-05T13:00:46.000Z</time>
      </trkpt>
      <trkpt lat="49.1796" lon="-1.3894">
        <ele>33.384051</ele>
        <time>2021-09-05T13:00:48.000Z</time>
      </trkpt>
      <trkpt lat="49.17972" lon="-1.38935">
        <ele>33.297486</ele>
        <time>2021-09-05T13:00:50.000Z</time>
      </trkpt>
      <trkpt lat="49.17984" lon="-1.38929">
        <ele>33.208833</ele>
        <time>2021-09-05T13:00:52.000Z</time>
      </trkpt>
      <trkpt lat="49.18002" lon="-1.3892">
        <ele>33.07866</ele>
        <time>2021-09-05T13:00:55.000Z</time>
      </trkpt>
      <trkpt lat="49.1802" lon="-1.38912">
        <ele>32.952795</ele>
        <time>2021-09-05T13:00:58.000Z</time>
      </trkpt>
      <trkpt lat="49.18026" lon="-1.38909">
        <ele>32.909838</ele>
        <time>2021-09-05T13:00:59.000Z</time>
      </trkpt>
      <trkpt lat="49.18031" lon="-1.38906">
        <ele>32.870405</ele>
        <time>2021-09-05T13:01:00.000Z</time>
      </trkpt>
      <trkpt lat="49.18035" lon="-1.38882">
        <ele>32.759772</ele>
        <time>2021-09-05T13:01:02.000Z</time>
      </trkpt>
      <trkpt lat="49.18029" lon="-1.38869">
        <ele>32.687997</ele>
        <time>2021-09-05T13:01:04.000Z</time>
      </trkpt>
      <trkpt lat="49.18023" lon="-1.38855">
        <ele>32.612852</ele>
        <time>2021-09-05T13:01:06.000Z</time>
      </trkpt>
      <trkpt lat="49.18016" lon="-1.3884">
        <ele>32.529118</ele>
        <time>2021-09-05T13:01:08.000Z</time>
      </trkpt>
      <trkpt lat="49.18004" lon="-1.38815">
        <ele>32.395673</ele>
        <time>2021-09-05T13:01:11.000Z</time>
      </trkpt>
      <trkpt lat="49.17996" lon="-1.388">
        <ele>32.306408</ele>
        <time>2021-09-05T13:01:13.000Z</time>
      </trkpt>
      <trkpt lat="49.1798" lon="-1.38783">
        <ele>31.931675</ele>
        <time>2021-09-05T13:01:16.000Z</time>
      </trkpt>
      <trkpt lat="49.17955" lon="-1.38756">
        <ele>31.249414</ele>
        <time>2021-09-05T13:01:21.000Z</time>
      </trkpt>
      <trkpt lat="49.17919" lon="-1.38723">
        <ele>30.301219</ele>
        <time>2021-09-05T13:01:28.000Z</time>
      </trkpt>
      <trkpt lat="49.17881" lon="-1.38713">
        <ele>29.435009</ele>
        <time>2021-09-05T13:01:34.000Z</time>
      </trkpt>
      <trkpt lat="49.17845" lon="-1.38698">
        <ele>28.597371</ele>
        <time>2021-09-05T13:01:40.000Z</time>
      </trkpt>
      <trkpt lat="49.17823" lon="-1.3868">
        <ele>28.11533</ele>
        <time>2021-09-05T13:01:44.000Z</time>
      </trkpt>
      <trkpt lat="49.1782" lon="-1.38673">
        <ele>28.0247</ele>
        <time>2021-09-05T13:01:45.000Z</time>
      </trkpt>
      <trkpt lat="49.17816" lon="-1.38666">
        <ele>27.928901</ele>
        <time>2021-09-05T13:01:46.000Z</time>
      </trkpt>
      <trkpt lat="49.178" lon="-1.38639">
        <ele>27.55493</ele>
        <time>2021-09-05T13:01:50.000Z</time>
      </trkpt>
      <trkpt lat="49.17783" lon="-1.38628">
        <ele>27.265285</ele>
        <time>2021-09-05T13:01:53.000Z</time>
      </trkpt>
      <trkpt lat="49.17776" lon="-1.38626">
        <ele>27.162272</ele>
        <time>2021-09-05T13:01:54.000Z</time>
      </trkpt>
      <trkpt lat="49.1777" lon="-1.38623">
        <ele>27.060791</ele>
        <time>2021-09-05T13:01:55.000Z</time>
      </trkpt>
      <trkpt lat="49.17758" lon="-1.38619">
        <ele>26.863948</ele>
        <time>2021-09-05T13:01:57.000Z</time>
      </trkpt>
      <trkpt lat="49.17746" lon="-1.38618">
        <ele>26.681595</ele>
        <time>2021-09-05T13:01:59.000Z</time>
      </trkpt>
      <trkpt lat="49.17729" lon="-1.38617">
        <ele>26.412895</ele>
        <time>2021-09-05T13:02:02.000Z</time>
      </trkpt>
      <trkpt lat="49.17718" lon="-1.38617">
        <ele>26.236901</ele>
        <time>2021-09-05T13:02:04.000Z</time>
      </trkpt>
      <trkpt lat="49.17712" lon="-1.38612">
        <ele>26.13472</ele>
        <time>2021-09-05T13:02:05.000Z</time>
      </trkpt>
      <trkpt lat="49.17708" lon="-1.38607">
        <ele>26.044897</ele>
        <time>2021-09-05T13:02:06.000Z</time>
      </trkpt>
      <trkpt lat="49.17695" lon="-1.38592">
        <ele>25.787274</ele>
        <time>2021-09-05T13:02:09.000Z</time>
      </trkpt>
      <trkpt lat="49.17676" lon="-1.38565">
        <ele>25.44578</ele>
        <time>2021-09-05T13:02:14.000Z</time>
      </trkpt>
      <trkpt lat="49.17673" lon="-1.38561">
        <ele>25.471557</ele>
        <time>2021-09-05T13:02:15.000Z</time>
      </trkpt>
      <trkpt lat="49.17656" lon="-1.38535">
        <ele>25.613529</ele>
        <time>2021-09-05T13:02:21.000Z</time>
      </trkpt>
      <trkpt lat="49.17643" lon="-1.38509">
        <ele>25.741787</ele>
        <time>2021-09-05T13:02:27.000Z</time>
      </trkpt>
      <trkpt lat="49.17631" lon="-1.38488">
        <ele>25.847322</ele>
        <time>2021-09-05T13:02:32.000Z</time>
      </trkpt>
      <trkpt lat="49.17615" lon="-1.38457">
        <ele>26.000917</ele>
        <time>2021-09-05T13:02:39.000Z</time>
      </trkpt>
      <trkpt lat="49.176" lon="-1.38421">
        <ele>26.165403</ele>
        <time>2021-09-05T13:02:47.000Z</time>
      </trkpt>
      <trkpt lat="49.17591" lon="-1.38401">
        <ele>26.258802</ele>
        <time>2021-09-05T13:02:52.000Z</time>
      </trkpt>
      <trkpt lat="49.17581" lon="-1.38375">
        <ele>26.375789</ele>
        <time>2021-09-05T13:02:59.000Z</time>
      </trkpt>
      <trkpt lat="49.17571" lon="-1.38351">
        <ele>26.484058</ele>
        <time>2021-09-05T13:03:05.000Z</time>
      </trkpt>
      <trkpt lat="49.17561" lon="-1.38327">
        <ele>26.684594</ele>
        <time>2021-09-05T13:03:11.000Z</time>
      </trkpt>
      <trkpt lat="49.17547" lon="-1.38305">
        <ele>26.910503</ele>
        <time>2021-09-05T13:03:17.000Z</time>
      </trkpt>
      <trkpt lat="49.17534" lon="-1.38284">
        <ele>27.119351</ele>
        <time>2021-09-05T13:03:23.000Z</time>
      </trkpt>
      <trkpt lat="49.17525" lon="-1.38271">
        <ele>27.261888</ele>
        <time>2021-09-05T13:03:27.000Z</time>
      </trkpt>
      <trkpt lat="49.17513" lon="-1.38253">
        <ele>27.443058</ele>
        <time>2021-09-05T13:03:32.000Z</time>
      </trkpt>
      <trkpt lat="49.17502" lon="-1.38216">
        <ele>27.740176</ele>
        <time>2021-09-05T13:03:39.000Z</time>
      </trkpt>
      <trkpt lat="49.1749" lon="-1.38172">
        <ele>28.085743</ele>
        <time>2021-09-05T13:03:47.000Z</time>
      </trkpt>
      <trkpt lat="49.1748" lon="-1.38134">
        <ele>28.39171</ele>
        <time>2021-09-05T13:03:54.000Z</time>
      </trkpt>
      <trkpt lat="49.17469" lon="-1.38107">
        <ele>28.554393</ele>
        <time>2021-09-05T13:03:59.000Z</time>
      </trkpt>
      <trkpt lat="49.17466" lon="-1.38101">
        <ele>28.576198</ele>
        <time>2021-09-05T13:04:00.000Z</time>
      </trkpt>
      <trkpt lat="49.17455" lon="-1.38075">
        <ele>28.671619</ele>
        <time>2021-09-05T13:04:04.000Z</time>
      </trkpt>
      <trkpt lat="49.17443" lon="-1.38047">
        <ele>28.77525</ele>
        <time>2021-09-05T13:04:09.000Z</time>
      </trkpt>
      <trkpt lat="49.17436" lon="-1.38031">
        <ele>28.833734</ele>
        <time>2021-09-05T13:04:12.000Z</time>
      </trkpt>
      <trkpt lat="49.17432" lon="-1.3802">
        <ele>28.874264</ele>
        <time>2021-09-05T13:04:14.000Z</time>
      </trkpt>
      <trkpt lat="49.17411" lon="-1.37976">
        <ele>29.039983</ele>
        <time>2021-09-05T13:04:21.000Z</time>
      </trkpt>
      <trkpt lat="49.17392" lon="-1.37938">
        <ele>29.184377</ele>
        <time>2021-09-05T13:04:27.000Z</time>
      </trkpt>
      <trkpt lat="49.17389" lon="-1.37932">
        <ele>29.207492</ele>
        <time>2021-09-05T13:04:28.000Z</time>
      </trkpt>
      <trkpt lat="49.17386" lon="-1.37926">
        <ele>29.232225</ele>
        <time>2021-09-05T13:04:29.000Z</time>
      </trkpt>
      <trkpt lat="49.17368" lon="-1.37897">
        <ele>29.353284</ele>
        <time>2021-09-05T13:04:34.000Z</time>
      </trkpt>
      <trkpt lat="49.17329" lon="-1.37834">
        <ele>29.560023</ele>
        <time>2021-09-05T13:04:45.000Z</time>
      </trkpt>
      <trkpt lat="49.17325" lon="-1.37828">
        <ele>29.579142</ele>
        <time>2021-09-05T13:04:46.000Z</time>
      </trkpt>
      <trkpt lat="49.17305" lon="-1.37793">
        <ele>29.690043</ele>
        <time>2021-09-05T13:04:52.000Z</time>
      </trkpt>
      <trkpt lat="49.17298" lon="-1.37783">
        <ele>29.725312</ele>
        <time>2021-09-05T13:04:54.000Z</time>
      </trkpt>
      <trkpt lat="49.17291" lon="-1.37771">
        <ele>29.762535</ele>
        <time>2021-09-05T13:04:56.000Z</time>
      </trkpt>
      <trkpt lat="49.1726" lon="-1.3772">
        <ele>29.926449</ele>
        <time>2021-09-05T13:05:04.000Z</time>
      </trkpt>
      <trkpt lat="49.17235" lon="-1.37673">
        <ele>30.245259</ele>
        <time>2021-09-05T13:05:11.000Z</time>
      </trkpt>
      <trkpt lat="49.17229" lon="-1.3766">
        <ele>30.387512</ele>
        <time>2021-09-05T13:05:13.000Z</time>
      </trkpt>
      <trkpt lat="49.17215" lon="-1.37634">
        <ele>30.664863</ele>
        <time>2021-09-05T13:05:17.000Z</time>
      </trkpt>
      <trkpt lat="49.17193" lon="-1.37592">
        <ele>31.121581</ele>
        <time>2021-09-05T13:05:24.000Z</time>
      </trkpt>
      <trkpt lat="49.17177" lon="-1.37562">
        <ele>31.437915</ele>
        <time>2021-09-05T13:05:29.000Z</time>
      </trkpt>
      <trkpt lat="49.17167" lon="-1.37543">
        <ele>31.650431</ele>
        <time>2021-09-05T13:05:33.000Z</time>
      </trkpt>
      <trkpt lat="49.17163" lon="-1.37536">
        <ele>31.719644</ele>
        <time>2021-09-05T13:05:34.000Z</time>
      </trkpt>
      <trkpt lat="49.17151" lon="-1.37513">
        <ele>31.9723</ele>
        <time>2021-09-05T13:05:37.000Z</time>
      </trkpt>
      <trkpt lat="49.17144" lon="-1.37499">
        <ele>32.1234</ele>
        <time>2021-09-05T13:05:39.000Z</time>
      </trkpt>
      <trkpt lat="49.17141" lon="-1.37492">
        <ele>32.190849</ele>
        <time>2021-09-05T13:05:40.000Z</time>
      </trkpt>
      <trkpt lat="49.17135" lon="-1.37477">
        <ele>32.331277</ele>
        <time>2021-09-05T13:05:42.000Z</time>
      </trkpt>
      <trkpt lat="49.1713" lon="-1.37461">
        <ele>32.458409</ele>
        <time>2021-09-05T13:05:44.000Z</time>
      </trkpt>
      <trkpt lat="49.17124" lon="-1.37445">
        <ele>32.594393</ele>
        <time>2021-09-05T13:05:46.000Z</time>
      </trkpt>
      <trkpt lat="49.17116" lon="-1.37417">
        <ele>32.809247</ele>
        <time>2021-09-05T13:05:49.000Z</time>
      </trkpt>
      <trkpt lat="49.17111" lon="-1.3739">
        <ele>33.005191</ele>
        <time>2021-09-05T13:05:52.000Z</time>
      </trkpt>
      <trkpt lat="49.17104" lon="-1.37366">
        <ele>33.193317</ele>
        <time>2021-09-05T13:05:55.000Z</time>
      </trkpt>
      <trkpt lat="49.17101" lon="-1.37357">
        <ele>33.259787</ele>
        <time>2021-09-05T13:05:56.000Z</time>
      </trkpt>
      <trkpt lat="49.17096" lon="-1.37339">
        <ele>33.406917</ele>
        <time>2021-09-05T13:05:58.000Z</time>
      </trkpt>
      <trkpt lat="49.17071" lon="-1.37306">
        <ele>33.762566</ele>
        <time>2021-09-05T13:06:03.000Z</time>
      </trkpt>
      <trkpt lat="49.17046" lon="-1.37273">
        <ele>34.122077</ele>
        <time>2021-09-05T13:06:08.000Z</time>
      </trkpt>
      <trkpt lat="49.17028" lon="-1.37249">
        <ele>34.249509</ele>
        <time>2021-09-05T13:06:12.000Z</time>
      </trkpt>
      <trkpt lat="49.17014" lon="-1.37231">
        <ele>34.223661</ele>
        <time>2021-09-05T13:06:15.000Z</time>
      </trkpt>
      <trkpt lat="49.17009" lon="-1.37224">
        <ele>34.213791</ele>
        <time>2021-09-05T13:06:16.000Z</time>
      </trkpt>
      <trkpt lat="49.16989" lon="-1.37165">
        <ele>34.15164</ele>
        <time>2021-09-05T13:06:22.000Z</time>
      </trkpt>
      <trkpt lat="49.16985" lon="-1.37125">
        <ele>34.113173</ele>
        <time>2021-09-05T13:06:26.000Z</time>
      </trkpt>
      <trkpt lat="49.16985" lon="-1.37114">
        <ele>34.103414</ele>
        <time>2021-09-05T13:06:27.000Z</time>
      </trkpt>
      <trkpt lat="49.16986" lon="-1.37043">
        <ele>34.036367</ele>
        <time>2021-09-05T13:06:34.000Z</time>
      </trkpt>
      <trkpt lat="49.16984" lon="-1.37014">
        <ele>34.009448</ele>
        <time>2021-09-05T13:06:37.000Z</time>
      </trkpt>
      <trkpt lat="49.16978" lon="-1.36998">
        <ele>34.008989</ele>
        <time>2021-09-05T13:06:39.000Z</time>
      </trkpt>
      <trkpt lat="49.1696" lon="-1.36956">
        <ele>34.014236</ele>
        <time>2021-09-05T13:06:45.000Z</time>
      </trkpt>
      <trkpt lat="49.16943" lon="-1.3692">
        <ele>34.018874</ele>
        <time>2021-09-05T13:06:51.000Z</time>
      </trkpt>
      <trkpt lat="49.16928" lon="-1.3689">
        <ele>34.022746</ele>
        <time>2021-09-05T13:06:57.000Z</time>
      </trkpt>
      <trkpt lat="49.16912" lon="-1.3686">
        <ele>34.026715</ele>
        <time>2021-09-05T13:07:03.000Z</time>
      </trkpt>
      <trkpt lat="49.16896" lon="-1.36827">
        <ele>34.031022</ele>
        <time>2021-09-05T13:07:09.000Z</time>
      </trkpt>
      <trkpt lat="49.16881" lon="-1.36797">
        <ele>34.034916</ele>
        <time>2021-09-05T13:07:15.000Z</time>
      </trkpt>
      <trkpt lat="49.16866" lon="-1.36766">
        <ele>33.917421</ele>
        <time>2021-09-05T13:07:22.000Z</time>
      </trkpt>
      <trkpt lat="49.16853" lon="-1.36738">
        <ele>33.778684</ele>
        <time>2021-09-05T13:07:27.000Z</time>
      </trkpt>
      <trkpt lat="49.1683" lon="-1.36691">
        <ele>33.54614</ele>
        <time>2021-09-05T13:07:34.000Z</time>
      </trkpt>
      <trkpt lat="49.16807" lon="-1.36643">
        <ele>33.30824</ele>
        <time>2021-09-05T13:07:41.000Z</time>
      </trkpt>
      <trkpt lat="49.16781" lon="-1.36593">
        <ele>33.048882</ele>
        <time>2021-09-05T13:07:49.000Z</time>
      </trkpt>
      <trkpt lat="49.16777" lon="-1.36587">
        <ele>33.016767</ele>
        <time>2021-09-05T13:07:50.000Z</time>
      </trkpt>
      <trkpt lat="49.16762" lon="-1.36565">
        <ele>32.98337</ele>
        <time>2021-09-05T13:07:54.000Z</time>
      </trkpt>
      <trkpt lat="49.16742" lon="-1.36533">
        <ele>33.1668</ele>
        <time>2021-09-05T13:08:00.000Z</time>
      </trkpt>
      <trkpt lat="49.16719" lon="-1.36497">
        <ele>33.380779</ele>
        <time>2021-09-05T13:08:07.000Z</time>
      </trkpt>
      <trkpt lat="49.16705" lon="-1.36475">
        <ele>33.510155</ele>
        <time>2021-09-05T13:08:11.000Z</time>
      </trkpt>
      <trkpt lat="49.16698" lon="-1.36465">
        <ele>33.568553</ele>
        <time>2021-09-05T13:08:13.000Z</time>
      </trkpt>
      <trkpt lat="49.1668" lon="-1.36438">
        <ele>33.729824</ele>
        <time>2021-09-05T13:08:18.000Z</time>
      </trkpt>
      <trkpt lat="49.16663" lon="-1.36402">
        <ele>33.920492</ele>
        <time>2021-09-05T13:08:24.000Z</time>
      </trkpt>
      <trkpt lat="49.1665" lon="-1.36376">
        <ele>34.056165</ele>
        <time>2021-09-05T13:08:28.000Z</time>
      </trkpt>
      <trkpt lat="49.16644" lon="-1.36362">
        <ele>34.140922</ele>
        <time>2021-09-05T13:08:30.000Z</time>
      </trkpt>
      <trkpt lat="49.16627" lon="-1.36326">
        <ele>34.41829</ele>
        <time>2021-09-05T13:08:36.000Z</time>
      </trkpt>
      <trkpt lat="49.16608" lon="-1.36275">
        <ele>34.779361</ele>
        <time>2021-09-05T13:08:43.000Z</time>
      </trkpt>
      <trkpt lat="49.16593" lon="-1.36232">
        <ele>35.087594</ele>
        <time>2021-09-05T13:08:49.000Z</time>
      </trkpt>
      <trkpt lat="49.1658" lon="-1.36197">
        <ele>35.336926</ele>
        <time>2021-09-05T13:08:54.000Z</time>
      </trkpt>
      <trkpt lat="49.16578" lon="-1.3619">
        <ele>35.384921</ele>
        <time>2021-09-05T13:08:55.000Z</time>
      </trkpt>
      <trkpt lat="49.16568" lon="-1.36144">
        <ele>35.684254</ele>
        <time>2021-09-05T13:09:01.000Z</time>
      </trkpt>
      <trkpt lat="49.16557" lon="-1.36093">
        <ele>35.988864</ele>
        <time>2021-09-05T13:09:08.000Z</time>
      </trkpt>
      <trkpt lat="49.16555" lon="-1.36087">
        <ele>36.027769</ele>
        <time>2021-09-05T13:09:09.000Z</time>
      </trkpt>
      <trkpt lat="49.16552" lon="-1.36074">
        <ele>36.10094</ele>
        <time>2021-09-05T13:09:11.000Z</time>
      </trkpt>
      <trkpt lat="49.16551" lon="-1.36068">
        <ele>36.135722</ele>
        <time>2021-09-05T13:09:12.000Z</time>
      </trkpt>
      <trkpt lat="49.16542" lon="-1.36024">
        <ele>36.386922</ele>
        <time>2021-09-05T13:09:18.000Z</time>
      </trkpt>
      <trkpt lat="49.16537" lon="-1.36001">
        <ele>36.517806</ele>
        <time>2021-09-05T13:09:21.000Z</time>
      </trkpt>
      <trkpt lat="49.1653" lon="-1.35972">
        <ele>36.682443</ele>
        <time>2021-09-05T13:09:25.000Z</time>
      </trkpt>
      <trkpt lat="49.16519" lon="-1.35921">
        <ele>36.970745</ele>
        <time>2021-09-05T13:09:32.000Z</time>
      </trkpt>
      <trkpt lat="49.16506" lon="-1.35857">
        <ele>37.309604</ele>
        <time>2021-09-05T13:09:41.000Z</time>
      </trkpt>
      <trkpt lat="49.16505" lon="-1.35827">
        <ele>37.379535</ele>
        <time>2021-09-05T13:09:45.000Z</time>
      </trkpt>
      <trkpt lat="49.16505" lon="-1.35805">
        <ele>37.431338</ele>
        <time>2021-09-05T13:09:48.000Z</time>
      </trkpt>
      <trkpt lat="49.16503" lon="-1.35724">
        <ele>37.619636</ele>
        <time>2021-09-05T13:09:59.000Z</time>
      </trkpt>
      <trkpt lat="49.16498" lon="-1.35669">
        <ele>37.749293</ele>
        <time>2021-09-05T13:10:07.000Z</time>
      </trkpt>
      <trkpt lat="49.16495" lon="-1.35636">
        <ele>37.826331</ele>
        <time>2021-09-05T13:10:12.000Z</time>
      </trkpt>
      <trkpt lat="49.16493" lon="-1.35616">
        <ele>37.873969</ele>
        <time>2021-09-05T13:10:15.000Z</time>
      </trkpt>
      <trkpt lat="49.16487" lon="-1.35559">
        <ele>37.870415</ele>
        <time>2021-09-05T13:10:23.000Z</time>
      </trkpt>
      <trkpt lat="49.16482" lon="-1.35505">
        <ele>37.77387</ele>
        <time>2021-09-05T13:10:31.000Z</time>
      </trkpt>
      <trkpt lat="49.16481" lon="-1.35462">
        <ele>37.700128</ele>
        <time>2021-09-05T13:10:37.000Z</time>
      </trkpt>
      <trkpt lat="49.16483" lon="-1.35448">
        <ele>37.675629</ele>
        <time>2021-09-05T13:10:39.000Z</time>
      </trkpt>
      <trkpt lat="49.16484" lon="-1.35434">
        <ele>37.651343</ele>
        <time>2021-09-05T13:10:41.000Z</time>
      </trkpt>
      <trkpt lat="49.16487" lon="-1.35406">
        <ele>37.601658</ele>
        <time>2021-09-05T13:10:45.000Z</time>
      </trkpt>
      <trkpt lat="49.16492" lon="-1.35339">
        <ele>37.484704</ele>
        <time>2021-09-05T13:10:54.000Z</time>
      </trkpt>
      <trkpt lat="49.16496" lon="-1.35271">
        <ele>37.349157</ele>
        <time>2021-09-05T13:11:03.000Z</time>
      </trkpt>
      <trkpt lat="49.16498" lon="-1.35225">
        <ele>37.25319</ele>
        <time>2021-09-05T13:11:09.000Z</time>
      </trkpt>
      <trkpt lat="49.165" lon="-1.35182">
        <ele>37.162005</ele>
        <time>2021-09-05T13:11:14.000Z</time>
      </trkpt>
      <trkpt lat="49.16501" lon="-1.35165">
        <ele>37.126465</ele>
        <time>2021-09-05T13:11:16.000Z</time>
      </trkpt>
      <trkpt lat="49.16501" lon="-1.35157">
        <ele>37.10911</ele>
        <time>2021-09-05T13:11:17.000Z</time>
      </trkpt>
      <trkpt lat="49.16501" lon="-1.35132">
        <ele>37.057597</ele>
        <time>2021-09-05T13:11:20.000Z</time>
      </trkpt>
      <trkpt lat="49.16497" lon="-1.35069">
        <ele>36.92486</ele>
        <time>2021-09-05T13:11:27.000Z</time>
      </trkpt>
      <trkpt lat="49.16493" lon="-1.3503">
        <ele>36.864243</ele>
        <time>2021-09-05T13:11:31.000Z</time>
      </trkpt>
      <trkpt lat="49.16486" lon="-1.35004">
        <ele>36.841717</ele>
        <time>2021-09-05T13:11:34.000Z</time>
      </trkpt>
      <trkpt lat="49.16473" lon="-1.34952">
        <ele>36.79838</ele>
        <time>2021-09-05T13:11:40.000Z</time>
      </trkpt>
      <trkpt lat="49.16462" lon="-1.34901">
        <ele>36.755772</ele>
        <time>2021-09-05T13:11:46.000Z</time>
      </trkpt>
      <trkpt lat="49.16448" lon="-1.34851">
        <ele>36.713328</ele>
        <time>2021-09-05T13:11:53.000Z</time>
      </trkpt>
      <trkpt lat="49.16436" lon="-1.34812">
        <ele>36.679422</ele>
        <time>2021-09-05T13:12:00.000Z</time>
      </trkpt>
      <trkpt lat="49.16424" lon="-1.34776">
        <ele>36.717154</ele>
        <time>2021-09-05T13:12:07.000Z</time>
      </trkpt>
      <trkpt lat="49.16416" lon="-1.34736">
        <ele>36.864292</ele>
        <time>2021-09-05T13:12:14.000Z</time>
      </trkpt>
      <trkpt lat="49.16407" lon="-1.3469">
        <ele>37.032023</ele>
        <time>2021-09-05T13:12:22.000Z</time>
      </trkpt>
      <trkpt lat="49.16398" lon="-1.34639">
        <ele>37.217319</ele>
        <time>2021-09-05T13:12:30.000Z</time>
      </trkpt>
      <trkpt lat="49.16395" lon="-1.34626">
        <ele>37.267314</ele>
        <time>2021-09-05T13:12:32.000Z</time>
      </trkpt>
      <trkpt lat="49.16391" lon="-1.34608">
        <ele>37.33524</ele>
        <time>2021-09-05T13:12:35.000Z</time>
      </trkpt>
      <trkpt lat="49.16377" lon="-1.34569">
        <ele>37.490405</ele>
        <time>2021-09-05T13:12:41.000Z</time>
      </trkpt>
      <trkpt lat="49.16356" lon="-1.3451">
        <ele>37.644101</ele>
        <time>2021-09-05T13:12:49.000Z</time>
      </trkpt>
      <trkpt lat="49.16341" lon="-1.34446">
        <ele>37.683338</ele>
        <time>2021-09-05T13:12:57.000Z</time>
      </trkpt>
      <trkpt lat="49.16333" lon="-1.34387">
        <ele>37.718751</ele>
        <time>2021-09-05T13:13:04.000Z</time>
      </trkpt>
      <trkpt lat="49.16329" lon="-1.34315">
        <ele>37.760937</ele>
        <time>2021-09-05T13:13:12.000Z</time>
      </trkpt>
      <trkpt lat="49.16327" lon="-1.34241">
        <ele>37.707768</ele>
        <time>2021-09-05T13:13:21.000Z</time>
      </trkpt>
      <trkpt lat="49.16322" lon="-1.34164">
        <ele>37.481169</ele>
        <time>2021-09-05T13:13:30.000Z</time>
      </trkpt>
      <trkpt lat="49.16319" lon="-1.34125">
        <ele>37.367238</ele>
        <time>2021-09-05T13:13:34.000Z</time>
      </trkpt>
      <trkpt lat="49.16318" lon="-1.34116">
        <ele>37.338695</ele>
        <time>2021-09-05T13:13:35.000Z</time>
      </trkpt>
      <trkpt lat="49.16313" lon="-1.34049">
        <ele>37.142091</ele>
        <time>2021-09-05T13:13:42.000Z</time>
      </trkpt>
      <trkpt lat="49.16304" lon="-1.33981">
        <ele>36.953741</ele>
        <time>2021-09-05T13:13:50.000Z</time>
      </trkpt>
      <trkpt lat="49.16293" lon="-1.33905">
        <ele>36.799374</ele>
        <time>2021-09-05T13:13:59.000Z</time>
      </trkpt>
      <trkpt lat="49.16284" lon="-1.33837">
        <ele>36.663403</ele>
        <time>2021-09-05T13:14:07.000Z</time>
      </trkpt>
      <trkpt lat="49.16278" lon="-1.3378">
        <ele>36.548789</ele>
        <time>2021-09-05T13:14:14.000Z</time>
      </trkpt>
      <trkpt lat="49.16272" lon="-1.33729">
        <ele>36.446215</ele>
        <time>2021-09-05T13:14:21.000Z</time>
      </trkpt>
      <trkpt lat="49.16265" lon="-1.33673">
        <ele>36.564143</ele>
        <time>2021-09-05T13:14:29.000Z</time>
      </trkpt>
      <trkpt lat="49.16258" lon="-1.33614">
        <ele>36.701536</ele>
        <time>2021-09-05T13:14:37.000Z</time>
      </trkpt>
      <trkpt lat="49.16255" lon="-1.33585">
        <ele>36.768847</ele>
        <time>2021-09-05T13:14:41.000Z</time>
      </trkpt>
      <trkpt lat="49.16252" lon="-1.33563">
        <ele>36.819193</ele>
        <time>2021-09-05T13:14:44.000Z</time>
      </trkpt>
      <trkpt lat="49.16249" lon="-1.33533">
        <ele>36.888311</ele>
        <time>2021-09-05T13:14:48.000Z</time>
      </trkpt>
      <trkpt lat="49.16247" lon="-1.3352">
        <ele>36.919536</ele>
        <time>2021-09-05T13:14:50.000Z</time>
      </trkpt>
      <trkpt lat="49.16235" lon="-1.33516">
        <ele>36.963781</ele>
        <time>2021-09-05T13:14:52.000Z</time>
      </trkpt>
      <trkpt lat="49.1623" lon="-1.33516">
        <ele>36.981322</ele>
        <time>2021-09-05T13:14:53.000Z</time>
      </trkpt>
      <trkpt lat="49.1622" lon="-1.33515">
        <ele>37.014303</ele>
        <time>2021-09-05T13:14:55.000Z</time>
      </trkpt>
      <trkpt lat="49.16211" lon="-1.33515">
        <ele>37.046233</ele>
        <time>2021-09-05T13:14:57.000Z</time>
      </trkpt>
      <trkpt lat="49.16206" lon="-1.33515">
        <ele>37.062723</ele>
        <time>2021-09-05T13:14:58.000Z</time>
      </trkpt>
      <trkpt lat="49.16172" lon="-1.33512">
        <ele>37.667657</ele>
        <time>2021-09-05T13:15:05.000Z</time>
      </trkpt>
      <trkpt lat="49.16168" lon="-1.33512">
        <ele>37.757562</ele>
        <time>2021-09-05T13:15:06.000Z</time>
      </trkpt>
      <trkpt lat="49.1614" lon="-1.3351">
        <ele>38.280166</ele>
        <time>2021-09-05T13:15:12.000Z</time>
      </trkpt>
      <trkpt lat="49.16121" lon="-1.33509">
        <ele>38.624883</ele>
        <time>2021-09-05T13:15:16.000Z</time>
      </trkpt>
      <trkpt lat="49.16112" lon="-1.33508">
        <ele>38.802825</ele>
        <time>2021-09-05T13:15:18.000Z</time>
      </trkpt>
      <trkpt lat="49.16089" lon="-1.33507">
        <ele>39.237393</ele>
        <time>2021-09-05T13:15:23.000Z</time>
      </trkpt>
      <trkpt lat="49.16079" lon="-1.33507">
        <ele>39.411508</ele>
        <time>2021-09-05T13:15:25.000Z</time>
      </trkpt>
      <trkpt lat="49.16047" lon="-1.33511">
        <ele>40.017971</ele>
        <time>2021-09-05T13:15:32.000Z</time>
      </trkpt>
      <trkpt lat="49.16015" lon="-1.33515">
        <ele>40.985609</ele>
        <time>2021-09-05T13:15:39.000Z</time>
      </trkpt>
      <trkpt lat="49.15978" lon="-1.3352">
        <ele>43.100119</ele>
        <time>2021-09-05T13:15:47.000Z</time>
      </trkpt>
      <trkpt lat="49.15949" lon="-1.33523">
        <ele>44.735252</ele>
        <time>2021-09-05T13:15:54.000Z</time>
      </trkpt>
      <trkpt lat="49.15935" lon="-1.33518">
        <ele>45.607605</ele>
        <time>2021-09-05T13:15:59.000Z</time>
      </trkpt>
      <trkpt lat="49.15928" lon="-1.33509">
        <ele>46.123852</ele>
        <time>2021-09-05T13:16:03.000Z</time>
      </trkpt>
      <trkpt lat="49.15912" lon="-1.3349">
        <ele>47.242628</ele>
        <time>2021-09-05T13:16:10.000Z</time>
      </trkpt>
      <trkpt lat="49.15901" lon="-1.33472">
        <ele>48.190972</ele>
        <time>2021-09-05T13:16:16.000Z</time>
      </trkpt>
      <trkpt lat="49.15892" lon="-1.33459">
        <ele>48.89847</ele>
        <time>2021-09-05T13:16:21.000Z</time>
      </trkpt>
      <trkpt lat="49.15884" lon="-1.33446">
        <ele>49.555465</ele>
        <time>2021-09-05T13:16:26.000Z</time>
      </trkpt>
      <trkpt lat="49.15881" lon="-1.33443">
        <ele>49.728442</ele>
        <time>2021-09-05T13:16:27.000Z</time>
      </trkpt>
      <trkpt lat="49.15873" lon="-1.3343">
        <ele>50.408069</ele>
        <time>2021-09-05T13:16:33.000Z</time>
      </trkpt>
      <trkpt lat="49.15865" lon="-1.33419">
        <ele>51.303528</ele>
        <time>2021-09-05T13:16:38.000Z</time>
      </trkpt>
      <trkpt lat="49.15857" lon="-1.33406">
        <ele>52.543929</ele>
        <time>2021-09-05T13:16:43.000Z</time>
      </trkpt>
      <trkpt lat="49.15848" lon="-1.33396">
        <ele>53.607421</ele>
        <time>2021-09-05T13:16:48.000Z</time>
      </trkpt>
      <trkpt lat="49.15836" lon="-1.33383">
        <ele>55.179887</ele>
        <time>2021-09-05T13:16:55.000Z</time>
      </trkpt>
      <trkpt lat="49.15825" lon="-1.33373">
        <ele>56.502753</ele>
        <time>2021-09-05T13:17:01.000Z</time>
      </trkpt>
      <trkpt lat="49.15817" lon="-1.33366">
        <ele>57.389955</ele>
        <time>2021-09-05T13:17:06.000Z</time>
      </trkpt>
      <trkpt lat="49.15807" lon="-1.33356">
        <ele>58.621588</ele>
        <time>2021-09-05T13:17:13.000Z</time>
      </trkpt>
      <trkpt lat="49.15794" lon="-1.33338">
        <ele>60.475957</ele>
        <time>2021-09-05T13:17:18.000Z</time>
      </trkpt>
      <trkpt lat="49.15787" lon="-1.33314">
        <ele>62.2766</ele>
        <time>2021-09-05T13:17:24.000Z</time>
      </trkpt>
      <trkpt lat="49.15777" lon="-1.33283">
        <ele>64.540118</ele>
        <time>2021-09-05T13:17:30.000Z</time>
      </trkpt>
      <trkpt lat="49.15766" lon="-1.33246">
        <ele>67.295318</ele>
        <time>2021-09-05T13:17:35.000Z</time>
      </trkpt>
      <trkpt lat="49.15748" lon="-1.33185">
        <ele>68.881586</ele>
        <time>2021-09-05T13:17:41.000Z</time>
      </trkpt>
      <trkpt lat="49.1572" lon="-1.33108">
        <ele>68.138489</ele>
        <time>2021-09-05T13:17:48.000Z</time>
      </trkpt>
      <trkpt lat="49.1569" lon="-1.33035">
        <ele>67.405917</ele>
        <time>2021-09-05T13:17:55.000Z</time>
      </trkpt>
      <trkpt lat="49.15671" lon="-1.32977">
        <ele>66.82576</ele>
        <time>2021-09-05T13:18:01.000Z</time>
      </trkpt>
      <trkpt lat="49.15644" lon="-1.32909">
        <ele>65.325952</ele>
        <time>2021-09-05T13:18:09.000Z</time>
      </trkpt>
      <trkpt lat="49.15615" lon="-1.32846">
        <ele>63.889556</ele>
        <time>2021-09-05T13:18:15.000Z</time>
      </trkpt>
      <trkpt lat="49.15598" lon="-1.3279">
        <ele>62.715108</ele>
        <time>2021-09-05T13:18:20.000Z</time>
      </trkpt>
      <trkpt lat="49.15598" lon="-1.32777">
        <ele>62.470207</ele>
        <time>2021-09-05T13:18:21.000Z</time>
      </trkpt>
      <trkpt lat="49.15598" lon="-1.32763">
        <ele>62.219659</ele>
        <time>2021-09-05T13:18:22.000Z</time>
      </trkpt>
      <trkpt lat="49.15599" lon="-1.32736">
        <ele>61.693917</ele>
        <time>2021-09-05T13:18:24.000Z</time>
      </trkpt>
      <trkpt lat="49.15607" lon="-1.32659">
        <ele>59.274551</ele>
        <time>2021-09-05T13:18:29.000Z</time>
      </trkpt>
      <trkpt lat="49.15613" lon="-1.32587">
        <ele>57.020913</ele>
        <time>2021-09-05T13:18:34.000Z</time>
      </trkpt>
      <trkpt lat="49.15608" lon="-1.32559">
        <ele>56.119459</ele>
        <time>2021-09-05T13:18:36.000Z</time>
      </trkpt>
      <trkpt lat="49.15604" lon="-1.32544">
        <ele>55.630025</ele>
        <time>2021-09-05T13:18:37.000Z</time>
      </trkpt>
      <trkpt lat="49.15583" lon="-1.32458">
        <ele>52.701063</ele>
        <time>2021-09-05T13:18:43.000Z</time>
      </trkpt>
      <trkpt lat="49.15572" lon="-1.32416">
        <ele>51.170168</ele>
        <time>2021-09-05T13:18:46.000Z</time>
      </trkpt>
      <trkpt lat="49.15553" lon="-1.3234">
        <ele>48.325148</ele>
        <time>2021-09-05T13:18:52.000Z</time>
      </trkpt>
      <trkpt lat="49.15531" lon="-1.32254">
        <ele>45.131865</ele>
        <time>2021-09-05T13:18:59.000Z</time>
      </trkpt>
      <trkpt lat="49.15527" lon="-1.32243">
        <ele>44.700994</ele>
        <time>2021-09-05T13:19:00.000Z</time>
      </trkpt>
      <trkpt lat="49.15519" lon="-1.32222">
        <ele>43.859511</ele>
        <time>2021-09-05T13:19:02.000Z</time>
      </trkpt>
      <trkpt lat="49.15505" lon="-1.32179">
        <ele>42.078548</ele>
        <time>2021-09-05T13:19:06.000Z</time>
      </trkpt>
      <trkpt lat="49.15485" lon="-1.32122">
        <ele>39.694037</ele>
        <time>2021-09-05T13:19:12.000Z</time>
      </trkpt>
      <trkpt lat="49.15467" lon="-1.32064">
        <ele>37.316221</ele>
        <time>2021-09-05T13:19:19.000Z</time>
      </trkpt>
      <trkpt lat="49.15463" lon="-1.32051">
        <ele>36.758386</ele>
        <time>2021-09-05T13:19:21.000Z</time>
      </trkpt>
      <trkpt lat="49.1546" lon="-1.32039">
        <ele>36.282358</ele>
        <time>2021-09-05T13:19:23.000Z</time>
      </trkpt>
      <trkpt lat="49.15448" lon="-1.32032">
        <ele>35.557364</ele>
        <time>2021-09-05T13:19:26.000Z</time>
      </trkpt>
      <trkpt lat="49.15421" lon="-1.32029">
        <ele>34.012693</ele>
        <time>2021-09-05T13:19:33.000Z</time>
      </trkpt>
      <trkpt lat="49.15384" lon="-1.32017">
        <ele>32.539792</ele>
        <time>2021-09-05T13:19:42.000Z</time>
      </trkpt>
      <trkpt lat="49.15339" lon="-1.32">
        <ele>31.030456</ele>
        <time>2021-09-05T13:19:53.000Z</time>
      </trkpt>
      <trkpt lat="49.15308" lon="-1.31986">
        <ele>29.964766</ele>
        <time>2021-09-05T13:20:01.000Z</time>
      </trkpt>
      <trkpt lat="49.15268" lon="-1.31971">
        <ele>28.619918</ele>
        <time>2021-09-05T13:20:11.000Z</time>
      </trkpt>
      <trkpt lat="49.1524" lon="-1.31964">
        <ele>27.695496</ele>
        <time>2021-09-05T13:20:18.000Z</time>
      </trkpt>
      <trkpt lat="49.1521" lon="-1.31968">
        <ele>27.573134</ele>
        <time>2021-09-05T13:20:25.000Z</time>
      </trkpt>
      <trkpt lat="49.15185" lon="-1.31981">
        <ele>27.608881</ele>
        <time>2021-09-05T13:20:32.000Z</time>
      </trkpt>
      <trkpt lat="49.15153" lon="-1.32001">
        <ele>27.655836</ele>
        <time>2021-09-05T13:20:42.000Z</time>
      </trkpt>
      <trkpt lat="49.15125" lon="-1.32019">
        <ele>27.698106</ele>
        <time>2021-09-05T13:20:51.000Z</time>
      </trkpt>
      <trkpt lat="49.15097" lon="-1.32034">
        <ele>27.737177</ele>
        <time>2021-09-05T13:20:59.000Z</time>
      </trkpt>
      <trkpt lat="49.15078" lon="-1.32044">
        <ele>27.764668</ele>
        <time>2021-09-05T13:21:05.000Z</time>
      </trkpt>
      <trkpt lat="49.15052" lon="-1.32059">
        <ele>27.54514</ele>
        <time>2021-09-05T13:21:14.000Z</time>
      </trkpt>
      <trkpt lat="49.15044" lon="-1.32063">
        <ele>27.414451</ele>
        <time>2021-09-05T13:21:17.000Z</time>
      </trkpt>
      <trkpt lat="49.15039" lon="-1.32063">
        <ele>27.324434</ele>
        <time>2021-09-05T13:21:18.000Z</time>
      </trkpt>
      <trkpt lat="49.15035" lon="-1.32052">
        <ele>27.182669</ele>
        <time>2021-09-05T13:21:20.000Z</time>
      </trkpt>
      <trkpt lat="49.15031" lon="-1.32043">
        <ele>27.079449</ele>
        <time>2021-09-05T13:21:21.000Z</time>
      </trkpt>
      <trkpt lat="49.1502" lon="-1.32013">
        <ele>26.708712</ele>
        <time>2021-09-05T13:21:24.000Z</time>
      </trkpt>
      <trkpt lat="49.15014" lon="-1.32006">
        <ele>26.577718</ele>
        <time>2021-09-05T13:21:25.000Z</time>
      </trkpt>
      <trkpt lat="49.15007" lon="-1.31999">
        <ele>26.440269</ele>
        <time>2021-09-05T13:21:26.000Z</time>
      </trkpt>
      <trkpt lat="49.14994" lon="-1.31986">
        <ele>26.180576</ele>
        <time>2021-09-05T13:21:28.000Z</time>
      </trkpt>
      <trkpt lat="49.14987" lon="-1.31979">
        <ele>26.053661</ele>
        <time>2021-09-05T13:21:29.000Z</time>
      </trkpt>
      <trkpt lat="49.14974" lon="-1.31962">
        <ele>25.773893</ele>
        <time>2021-09-05T13:21:31.000Z</time>
      </trkpt>
      <trkpt lat="49.14949" lon="-1.31926">
        <ele>25.208634</ele>
        <time>2021-09-05T13:21:35.000Z</time>
      </trkpt>
      <trkpt lat="49.14943" lon="-1.31919">
        <ele>25.086611</ele>
        <time>2021-09-05T13:21:36.000Z</time>
      </trkpt>
      <trkpt lat="49.14927" lon="-1.31902">
        <ele>24.796416</ele>
        <time>2021-09-05T13:21:39.000Z</time>
      </trkpt>
      <trkpt lat="49.14893" lon="-1.31871">
        <ele>24.409208</ele>
        <time>2021-09-05T13:21:45.000Z</time>
      </trkpt>
      <trkpt lat="49.1488" lon="-1.31867">
        <ele>24.278526</ele>
        <time>2021-09-05T13:21:47.000Z</time>
      </trkpt>
      <trkpt lat="49.14868" lon="-1.31863">
        <ele>24.15389</ele>
        <time>2021-09-05T13:21:49.000Z</time>
      </trkpt>
      <trkpt lat="49.14835" lon="-1.31847">
        <ele>23.813796</ele>
        <time>2021-09-05T13:21:55.000Z</time>
      </trkpt>
      <trkpt lat="49.14831" lon="-1.31843">
        <ele>23.764846</ele>
        <time>2021-09-05T13:21:56.000Z</time>
      </trkpt>
      <trkpt lat="49.14823" lon="-1.31834">
        <ele>23.670914</ele>
        <time>2021-09-05T13:21:58.000Z</time>
      </trkpt>
      <trkpt lat="49.14816" lon="-1.31826">
        <ele>23.586429</ele>
        <time>2021-09-05T13:22:00.000Z</time>
      </trkpt>
      <trkpt lat="49.14801" lon="-1.31809">
        <ele>23.402982</ele>
        <time>2021-09-05T13:22:06.000Z</time>
      </trkpt>
      <trkpt lat="49.1479" lon="-1.31797">
        <ele>23.271159</ele>
        <time>2021-09-05T13:22:12.000Z</time>
      </trkpt>
      <trkpt lat="49.14784" lon="-1.31791">
        <ele>23.197627</ele>
        <time>2021-09-05T13:22:16.000Z</time>
      </trkpt>
      <trkpt lat="49.14776" lon="-1.31781">
        <ele>23.09241</ele>
        <time>2021-09-05T13:22:21.000Z</time>
      </trkpt>
      <trkpt lat="49.14763" lon="-1.31767">
        <ele>24.023268</ele>
        <time>2021-09-05T13:22:27.000Z</time>
      </trkpt>
      <trkpt lat="49.1475" lon="-1.3175">
        <ele>25.260346</ele>
        <time>2021-09-05T13:22:34.000Z</time>
      </trkpt>
      <trkpt lat="49.14743" lon="-1.31737">
        <ele>26.039074</ele>
        <time>2021-09-05T13:22:39.000Z</time>
      </trkpt>
      <trkpt lat="49.14731" lon="-1.31716">
        <ele>27.344521</ele>
        <time>2021-09-05T13:22:46.000Z</time>
      </trkpt>
      <trkpt lat="49.14721" lon="-1.31699">
        <ele>28.458534</ele>
        <time>2021-09-05T13:22:52.000Z</time>
      </trkpt>
      <trkpt lat="49.14713" lon="-1.31684">
        <ele>29.364526</ele>
        <time>2021-09-05T13:22:58.000Z</time>
      </trkpt>
      <trkpt lat="49.14702" lon="-1.31672">
        <ele>30.348619</ele>
        <time>2021-09-05T13:23:04.000Z</time>
      </trkpt>
      <trkpt lat="49.14686" lon="-1.3167">
        <ele>31.540561</ele>
        <time>2021-09-05T13:23:11.000Z</time>
      </trkpt>
      <trkpt lat="49.14668" lon="-1.31665">
        <ele>32.861696</ele>
        <time>2021-09-05T13:23:17.000Z</time>
      </trkpt>
      <trkpt lat="49.14646" lon="-1.31646">
        <ele>34.667017</ele>
        <time>2021-09-05T13:23:24.000Z</time>
      </trkpt>
      <trkpt lat="49.14624" lon="-1.31626">
        <ele>36.270559</ele>
        <time>2021-09-05T13:23:31.000Z</time>
      </trkpt>
      <trkpt lat="49.14599" lon="-1.31605">
        <ele>37.095012</ele>
        <time>2021-09-05T13:23:38.000Z</time>
      </trkpt>
      <trkpt lat="49.14574" lon="-1.31582">
        <ele>37.955972</ele>
        <time>2021-09-05T13:23:45.000Z</time>
      </trkpt>
      <trkpt lat="49.14546" lon="-1.31558">
        <ele>38.884872</ele>
        <time>2021-09-05T13:23:52.000Z</time>
      </trkpt>
      <trkpt lat="49.14517" lon="-1.31535">
        <ele>39.841255</ele>
        <time>2021-09-05T13:23:59.000Z</time>
      </trkpt>
      <trkpt lat="49.1449" lon="-1.31517">
        <ele>40.718933</ele>
        <time>2021-09-05T13:24:06.000Z</time>
      </trkpt>
      <trkpt lat="49.14482" lon="-1.31508">
        <ele>40.996114</ele>
        <time>2021-09-05T13:24:08.000Z</time>
      </trkpt>
      <trkpt lat="49.14474" lon="-1.31497">
        <ele>41.31297</ele>
        <time>2021-09-05T13:24:10.000Z</time>
      </trkpt>
      <trkpt lat="49.14458" lon="-1.31466">
        <ele>41.370893</ele>
        <time>2021-09-05T13:24:14.000Z</time>
      </trkpt>
      <trkpt lat="49.14454" lon="-1.31456">
        <ele>41.377535</ele>
        <time>2021-09-05T13:24:15.000Z</time>
      </trkpt>
      <trkpt lat="49.14451" lon="-1.31446">
        <ele>41.384138</ele>
        <time>2021-09-05T13:24:16.000Z</time>
      </trkpt>
      <trkpt lat="49.14447" lon="-1.31424">
        <ele>41.398092</ele>
        <time>2021-09-05T13:24:18.000Z</time>
      </trkpt>
      <trkpt lat="49.14442" lon="-1.31399">
        <ele>41.413801</ele>
        <time>2021-09-05T13:24:20.000Z</time>
      </trkpt>
      <trkpt lat="49.14438" lon="-1.31376">
        <ele>41.428704</ele>
        <time>2021-09-05T13:24:22.000Z</time>
      </trkpt>
      <trkpt lat="49.14427" lon="-1.31318">
        <ele>41.464753</ele>
        <time>2021-09-05T13:24:27.000Z</time>
      </trkpt>
      <trkpt lat="49.14424" lon="-1.31306">
        <ele>41.472436</ele>
        <time>2021-09-05T13:24:28.000Z</time>
      </trkpt>
      <trkpt lat="49.14412" lon="-1.31275">
        <ele>41.494642</ele>
        <time>2021-09-05T13:24:31.000Z</time>
      </trkpt>
      <trkpt lat="49.14388" lon="-1.31239">
        <ele>41.32986</ele>
        <time>2021-09-05T13:24:36.000Z</time>
      </trkpt>
      <trkpt lat="49.14372" lon="-1.31221">
        <ele>41.0589</ele>
        <time>2021-09-05T13:24:40.000Z</time>
      </trkpt>
      <trkpt lat="49.14364" lon="-1.31208">
        <ele>40.889361</ele>
        <time>2021-09-05T13:24:44.000Z</time>
      </trkpt>
      <trkpt lat="49.14356" lon="-1.31188">
        <ele>40.669646</ele>
        <time>2021-09-05T13:24:49.000Z</time>
      </trkpt>
      <trkpt lat="49.14347" lon="-1.31166">
        <ele>40.434406</ele>
        <time>2021-09-05T13:24:55.000Z</time>
      </trkpt>
      <trkpt lat="49.14339" lon="-1.31148">
        <ele>40.23254</ele>
        <time>2021-09-05T13:25:00.000Z</time>
      </trkpt>
      <trkpt lat="49.14333" lon="-1.31133">
        <ele>40.062507</ele>
        <time>2021-09-05T13:25:05.000Z</time>
      </trkpt>
      <trkpt lat="49.14322" lon="-1.31107">
        <ele>39.784562</ele>
        <time>2021-09-05T13:25:09.000Z</time>
      </trkpt>
      <trkpt lat="49.14308" lon="-1.31072">
        <ele>39.393269</ele>
        <time>2021-09-05T13:25:13.000Z</time>
      </trkpt>
      <trkpt lat="49.14283" lon="-1.31013">
        <ele>38.507867</ele>
        <time>2021-09-05T13:25:18.000Z</time>
      </trkpt>
      <trkpt lat="49.14254" lon="-1.30943">
        <ele>36.844183</ele>
        <time>2021-09-05T13:25:23.000Z</time>
      </trkpt>
      <trkpt lat="49.14227" lon="-1.30887">
        <ele>35.432479</ele>
        <time>2021-09-05T13:25:27.000Z</time>
      </trkpt>
      <trkpt lat="49.14208" lon="-1.3087">
        <ele>34.769583</ele>
        <time>2021-09-05T13:25:29.000Z</time>
      </trkpt>
      <trkpt lat="49.14198" lon="-1.30863">
        <ele>34.438066</ele>
        <time>2021-09-05T13:25:30.000Z</time>
      </trkpt>
      <trkpt lat="49.14163" lon="-1.30838">
        <ele>33.24599</ele>
        <time>2021-09-05T13:25:34.000Z</time>
      </trkpt>
      <trkpt lat="49.14124" lon="-1.30807">
        <ele>32.018558</ele>
        <time>2021-09-05T13:25:39.000Z</time>
      </trkpt>
      <trkpt lat="49.14104" lon="-1.30794">
        <ele>31.411829</ele>
        <time>2021-09-05T13:25:42.000Z</time>
      </trkpt>
      <trkpt lat="49.14094" lon="-1.30781">
        <ele>31.021063</ele>
        <time>2021-09-05T13:25:44.000Z</time>
      </trkpt>
      <trkpt lat="49.14086" lon="-1.30768">
        <ele>30.692427</ele>
        <time>2021-09-05T13:25:46.000Z</time>
      </trkpt>
      <trkpt lat="49.14079" lon="-1.30755">
        <ele>30.379666</ele>
        <time>2021-09-05T13:25:48.000Z</time>
      </trkpt>
      <trkpt lat="49.14065" lon="-1.30727">
        <ele>29.730823</ele>
        <time>2021-09-05T13:25:53.000Z</time>
      </trkpt>
      <trkpt lat="49.14055" lon="-1.30707">
        <ele>29.262109</ele>
        <time>2021-09-05T13:25:58.000Z</time>
      </trkpt>
      <trkpt lat="49.14042" lon="-1.30683">
        <ele>28.686935</ele>
        <time>2021-09-05T13:26:05.000Z</time>
      </trkpt>
      <trkpt lat="49.14027" lon="-1.30656">
        <ele>28.547875</ele>
        <time>2021-09-05T13:26:13.000Z</time>
      </trkpt>
      <trkpt lat="49.14015" lon="-1.30633">
        <ele>28.870116</ele>
        <time>2021-09-05T13:26:20.000Z</time>
      </trkpt>
      <trkpt lat="49.14006" lon="-1.30617">
        <ele>29.106731</ele>
        <time>2021-09-05T13:26:26.000Z</time>
      </trkpt>
      <trkpt lat="49.13993" lon="-1.30592">
        <ele>29.458656</ele>
        <time>2021-09-05T13:26:35.000Z</time>
      </trkpt>
      <trkpt lat="49.13984" lon="-1.30575">
        <ele>29.695948</ele>
        <time>2021-09-05T13:26:41.000Z</time>
      </trkpt>
      <trkpt lat="49.13974" lon="-1.30554">
        <ele>29.985142</ele>
        <time>2021-09-05T13:26:48.000Z</time>
      </trkpt>
      <trkpt lat="49.13963" lon="-1.30533">
        <ele>30.28163</ele>
        <time>2021-09-05T13:26:55.000Z</time>
      </trkpt>
      <trkpt lat="49.13952" lon="-1.30513">
        <ele>30.568917</ele>
        <time>2021-09-05T13:27:02.000Z</time>
      </trkpt>
      <trkpt lat="49.13939" lon="-1.30486">
        <ele>30.945954</ele>
        <time>2021-09-05T13:27:11.000Z</time>
      </trkpt>
      <trkpt lat="49.13924" lon="-1.30481">
        <ele>31.201137</ele>
        <time>2021-09-05T13:27:17.000Z</time>
      </trkpt>
      <trkpt lat="49.13907" lon="-1.30473">
        <ele>31.612582</ele>
        <time>2021-09-05T13:27:24.000Z</time>
      </trkpt>
      <trkpt lat="49.13893" lon="-1.30445">
        <ele>32.426712</ele>
        <time>2021-09-05T13:27:33.000Z</time>
      </trkpt>
      <trkpt lat="49.13878" lon="-1.30413">
        <ele>33.328203</ele>
        <time>2021-09-05T13:27:43.000Z</time>
      </trkpt>
      <trkpt lat="49.13862" lon="-1.3039">
        <ele>34.107567</ele>
        <time>2021-09-05T13:27:52.000Z</time>
      </trkpt>
      <trkpt lat="49.13845" lon="-1.30375">
        <ele>34.811795</ele>
        <time>2021-09-05T13:28:00.000Z</time>
      </trkpt>
      <trkpt lat="49.13828" lon="-1.30366">
        <ele>35.435256</ele>
        <time>2021-09-05T13:28:07.000Z</time>
      </trkpt>
      <trkpt lat="49.13811" lon="-1.3034">
        <ele>36.289532</ele>
        <time>2021-09-05T13:28:15.000Z</time>
      </trkpt>
      <trkpt lat="49.13788" lon="-1.30306">
        <ele>37.420503</ele>
        <time>2021-09-05T13:28:24.000Z</time>
      </trkpt>
      <trkpt lat="49.13763" lon="-1.30271">
        <ele>37.982284</ele>
        <time>2021-09-05T13:28:33.000Z</time>
      </trkpt>
      <trkpt lat="49.13736" lon="-1.30235">
        <ele>38.343664</ele>
        <time>2021-09-05T13:28:42.000Z</time>
      </trkpt>
      <trkpt lat="49.1372" lon="-1.30215">
        <ele>38.55862</ele>
        <time>2021-09-05T13:28:48.000Z</time>
      </trkpt>
      <trkpt lat="49.137" lon="-1.3019">
        <ele>38.820935</ele>
        <time>2021-09-05T13:28:54.000Z</time>
      </trkpt>
      <trkpt lat="49.13676" lon="-1.30155">
        <ele>39.160169</ele>
        <time>2021-09-05T13:28:59.000Z</time>
      </trkpt>
      <trkpt lat="49.13642" lon="-1.30105">
        <ele>39.491459</ele>
        <time>2021-09-05T13:29:04.000Z</time>
      </trkpt>
      <trkpt lat="49.13603" lon="-1.3005">
        <ele>38.971104</ele>
        <time>2021-09-05T13:29:09.000Z</time>
      </trkpt>
      <trkpt lat="49.13587" lon="-1.30029">
        <ele>38.762773</ele>
        <time>2021-09-05T13:29:11.000Z</time>
      </trkpt>
      <trkpt lat="49.13577" lon="-1.30007">
        <ele>38.591889</ele>
        <time>2021-09-05T13:29:13.000Z</time>
      </trkpt>
      <trkpt lat="49.13574" lon="-1.2998">
        <ele>38.415694</ele>
        <time>2021-09-05T13:29:15.000Z</time>
      </trkpt>
      <trkpt lat="49.13573" lon="-1.29968">
        <ele>38.335593</ele>
        <time>2021-09-05T13:29:16.000Z</time>
      </trkpt>
      <trkpt lat="49.13569" lon="-1.29945">
        <ele>38.187216</ele>
        <time>2021-09-05T13:29:18.000Z</time>
      </trkpt>
      <trkpt lat="49.13563" lon="-1.29927">
        <ele>38.055517</ele>
        <time>2021-09-05T13:29:20.000Z</time>
      </trkpt>
      <trkpt lat="49.13558" lon="-1.29912">
        <ele>37.943673</ele>
        <time>2021-09-05T13:29:22.000Z</time>
      </trkpt>
      <trkpt lat="49.13552" lon="-1.29901">
        <ele>37.853118</ele>
        <time>2021-09-05T13:29:24.000Z</time>
      </trkpt>
      <trkpt lat="49.13538" lon="-1.29877">
        <ele>37.834843</ele>
        <time>2021-09-05T13:29:30.000Z</time>
      </trkpt>
      <trkpt lat="49.13522" lon="-1.2985">
        <ele>37.881002</ele>
        <time>2021-09-05T13:29:37.000Z</time>
      </trkpt>
      <trkpt lat="49.13502" lon="-1.29816">
        <ele>37.941546</ele>
        <time>2021-09-05T13:29:45.000Z</time>
      </trkpt>
      <trkpt lat="49.13476" lon="-1.29771">
        <ele>38.018888</ele>
        <time>2021-09-05T13:29:54.000Z</time>
      </trkpt>
      <trkpt lat="49.13453" lon="-1.29732">
        <ele>38.086902</ele>
        <time>2021-09-05T13:30:01.000Z</time>
      </trkpt>
      <trkpt lat="49.13433" lon="-1.29689">
        <ele>38.154752</ele>
        <time>2021-09-05T13:30:07.000Z</time>
      </trkpt>
      <trkpt lat="49.13402" lon="-1.29643">
        <ele>38.317591</ele>
        <time>2021-09-05T13:30:14.000Z</time>
      </trkpt>
      <trkpt lat="49.1338" lon="-1.29614">
        <ele>38.429765</ele>
        <time>2021-09-05T13:30:20.000Z</time>
      </trkpt>
      <trkpt lat="49.13369" lon="-1.29601">
        <ele>38.481775</ele>
        <time>2021-09-05T13:30:23.000Z</time>
      </trkpt>
      <trkpt lat="49.13361" lon="-1.29597">
        <ele>38.516355</ele>
        <time>2021-09-05T13:30:25.000Z</time>
      </trkpt>
      <trkpt lat="49.13341" lon="-1.29587">
        <ele>38.595722</ele>
        <time>2021-09-05T13:30:30.000Z</time>
      </trkpt>
      <trkpt lat="49.13335" lon="-1.29579">
        <ele>38.625942</ele>
        <time>2021-09-05T13:30:32.000Z</time>
      </trkpt>
      <trkpt lat="49.13328" lon="-1.29564">
        <ele>38.673234</ele>
        <time>2021-09-05T13:30:35.000Z</time>
      </trkpt>
      <trkpt lat="49.13319" lon="-1.29547">
        <ele>38.728351</ele>
        <time>2021-09-05T13:30:38.000Z</time>
      </trkpt>
      <trkpt lat="49.1331" lon="-1.2953">
        <ele>38.783467</ele>
        <time>2021-09-05T13:30:41.000Z</time>
      </trkpt>
      <trkpt lat="49.13296" lon="-1.29505">
        <ele>38.858045</ele>
        <time>2021-09-05T13:30:45.000Z</time>
      </trkpt>
      <trkpt lat="49.13289" lon="-1.29491">
        <ele>38.883839</ele>
        <time>2021-09-05T13:30:47.000Z</time>
      </trkpt>
      <trkpt lat="49.13268" lon="-1.2945">
        <ele>38.958386</ele>
        <time>2021-09-05T13:30:52.000Z</time>
      </trkpt>
      <trkpt lat="49.1324" lon="-1.2938">
        <ele>39.074009</ele>
        <time>2021-09-05T13:30:59.000Z</time>
      </trkpt>
      <trkpt lat="49.13218" lon="-1.29324">
        <ele>39.166745</ele>
        <time>2021-09-05T13:31:05.000Z</time>
      </trkpt>
      <trkpt lat="49.13209" lon="-1.29309">
        <ele>39.195768</ele>
        <time>2021-09-05T13:31:07.000Z</time>
      </trkpt>
      <trkpt lat="49.13195" lon="-1.29291">
        <ele>39.236424</ele>
        <time>2021-09-05T13:31:10.000Z</time>
      </trkpt>
      <trkpt lat="49.13183" lon="-1.29277">
        <ele>39.810952</ele>
        <time>2021-09-05T13:31:13.000Z</time>
      </trkpt>
      <trkpt lat="49.13177" lon="-1.29269">
        <ele>40.182453</ele>
        <time>2021-09-05T13:31:15.000Z</time>
      </trkpt>
      <trkpt lat="49.13167" lon="-1.29256">
        <ele>40.790728</ele>
        <time>2021-09-05T13:31:20.000Z</time>
      </trkpt>
      <trkpt lat="49.13156" lon="-1.29242">
        <ele>41.451805</ele>
        <time>2021-09-05T13:31:26.000Z</time>
      </trkpt>
      <trkpt lat="49.13145" lon="-1.29229">
        <ele>42.061976</ele>
        <time>2021-09-05T13:31:32.000Z</time>
      </trkpt>
      <trkpt lat="49.13132" lon="-1.29213">
        <ele>42.859673</ele>
        <time>2021-09-05T13:31:39.000Z</time>
      </trkpt>
      <trkpt lat="49.13118" lon="-1.29197">
        <ele>43.640848</ele>
        <time>2021-09-05T13:31:47.000Z</time>
      </trkpt>
      <trkpt lat="49.13106" lon="-1.29185">
        <ele>44.320998</ele>
        <time>2021-09-05T13:31:55.000Z</time>
      </trkpt>
      <trkpt lat="49.13092" lon="-1.29175">
        <ele>45.014088</ele>
        <time>2021-09-05T13:32:03.000Z</time>
      </trkpt>
      <trkpt lat="49.13075" lon="-1.29173">
        <ele>45.803646</ele>
        <time>2021-09-05T13:32:12.000Z</time>
      </trkpt>
      <trkpt lat="49.13058" lon="-1.29171">
        <ele>46.561387</ele>
        <time>2021-09-05T13:32:20.000Z</time>
      </trkpt>
      <trkpt lat="49.13043" lon="-1.29169">
        <ele>47.260963</ele>
        <time>2021-09-05T13:32:27.000Z</time>
      </trkpt>
      <trkpt lat="49.13029" lon="-1.29165">
        <ele>47.964762</ele>
        <time>2021-09-05T13:32:33.000Z</time>
      </trkpt>
      <trkpt lat="49.1301" lon="-1.29159">
        <ele>48.923163</ele>
        <time>2021-09-05T13:32:42.000Z</time>
      </trkpt>
      <trkpt lat="49.12992" lon="-1.29153">
        <ele>49.811671</ele>
        <time>2021-09-05T13:32:50.000Z</time>
      </trkpt>
      <trkpt lat="49.12973" lon="-1.29146">
        <ele>50.806051</ele>
        <time>2021-09-05T13:32:59.000Z</time>
      </trkpt>
      <trkpt lat="49.12957" lon="-1.29141">
        <ele>51.5873</ele>
        <time>2021-09-05T13:33:06.000Z</time>
      </trkpt>
      <trkpt lat="49.12936" lon="-1.29134">
        <ele>52.668423</ele>
        <time>2021-09-05T13:33:15.000Z</time>
      </trkpt>
      <trkpt lat="49.12923" lon="-1.29116">
        <ele>53.536459</ele>
        <time>2021-09-05T13:33:22.000Z</time>
      </trkpt>
      <trkpt lat="49.12904" lon="-1.29092">
        <ele>54.771102</ele>
        <time>2021-09-05T13:33:31.000Z</time>
      </trkpt>
      <trkpt lat="49.12895" lon="-1.2908">
        <ele>55.359036</ele>
        <time>2021-09-05T13:33:36.000Z</time>
      </trkpt>
      <trkpt lat="49.12881" lon="-1.29062">
        <ele>56.230847</ele>
        <time>2021-09-05T13:33:44.000Z</time>
      </trkpt>
      <trkpt lat="49.12869" lon="-1.29046">
        <ele>56.743039</ele>
        <time>2021-09-05T13:33:50.000Z</time>
      </trkpt>
      <trkpt lat="49.12852" lon="-1.29024">
        <ele>57.319487</ele>
        <time>2021-09-05T13:33:58.000Z</time>
      </trkpt>
      <trkpt lat="49.12838" lon="-1.29006">
        <ele>57.818497</ele>
        <time>2021-09-05T13:34:05.000Z</time>
      </trkpt>
      <trkpt lat="49.12822" lon="-1.29008">
        <ele>58.240004</ele>
        <time>2021-09-05T13:34:09.000Z</time>
      </trkpt>
      <trkpt lat="49.128" lon="-1.29014">
        <ele>58.818737</ele>
        <time>2021-09-05T13:34:16.000Z</time>
      </trkpt>
      <trkpt lat="49.12773" lon="-1.2902">
        <ele>59.534807</ele>
        <time>2021-09-05T13:34:24.000Z</time>
      </trkpt>
      <trkpt lat="49.12745" lon="-1.29035">
        <ele>60.322345</ele>
        <time>2021-09-05T13:34:33.000Z</time>
      </trkpt>
      <trkpt lat="49.12723" lon="-1.29047">
        <ele>60.947997</ele>
        <time>2021-09-05T13:34:40.000Z</time>
      </trkpt>
      <trkpt lat="49.12694" lon="-1.29061">
        <ele>61.581503</ele>
        <time>2021-09-05T13:34:49.000Z</time>
      </trkpt>
      <trkpt lat="49.12675" lon="-1.29063">
        <ele>61.958897</ele>
        <time>2021-09-05T13:34:54.000Z</time>
      </trkpt>
      <trkpt lat="49.12675" lon="-1.2906">
        <ele>61.99363</ele>
        <time>2021-09-05T13:34:55.000Z</time>
      </trkpt>
      <trkpt lat="49.12675" lon="-1.29047">
        <ele>62.167417</ele>
        <time>2021-09-05T13:34:58.000Z</time>
      </trkpt>
      <trkpt lat="49.12672" lon="-1.29001">
        <ele>62.763498</ele>
        <time>2021-09-05T13:35:06.000Z</time>
      </trkpt>
      <trkpt lat="49.1267" lon="-1.28946">
        <ele>63.466335</ele>
        <time>2021-09-05T13:35:15.000Z</time>
      </trkpt>
      <trkpt lat="49.12669" lon="-1.28911">
        <ele>63.910414</ele>
        <time>2021-09-05T13:35:21.000Z</time>
      </trkpt>
      <trkpt lat="49.12667" lon="-1.28873">
        <ele>64.409859</ele>
        <time>2021-09-05T13:35:28.000Z</time>
      </trkpt>
      <trkpt lat="49.12666" lon="-1.28828">
        <ele>64.722234</ele>
        <time>2021-09-05T13:35:35.000Z</time>
      </trkpt>
      <trkpt lat="49.12666" lon="-1.28789">
        <ele>64.808714</ele>
        <time>2021-09-05T13:35:41.000Z</time>
      </trkpt>
      <trkpt lat="49.12666" lon="-1.28775">
        <ele>64.838195</ele>
        <time>2021-09-05T13:35:43.000Z</time>
      </trkpt>
      <trkpt lat="49.12666" lon="-1.28768">
        <ele>64.852609</ele>
        <time>2021-09-05T13:35:44.000Z</time>
      </trkpt>
      <trkpt lat="49.12666" lon="-1.28748">
        <ele>64.898294</ele>
        <time>2021-09-05T13:35:47.000Z</time>
      </trkpt>
      <trkpt lat="49.12665" lon="-1.2874">
        <ele>64.915012</ele>
        <time>2021-09-05T13:35:48.000Z</time>
      </trkpt>
      <trkpt lat="49.12661" lon="-1.28687">
        <ele>65.03099</ele>
        <time>2021-09-05T13:35:54.000Z</time>
      </trkpt>
      <trkpt lat="49.12657" lon="-1.28624">
        <ele>65.169902</ele>
        <time>2021-09-05T13:36:00.000Z</time>
      </trkpt>
      <trkpt lat="49.12657" lon="-1.28546">
        <ele>65.042386</ele>
        <time>2021-09-05T13:36:07.000Z</time>
      </trkpt>
      <trkpt lat="49.1266" lon="-1.28465">
        <ele>64.482731</ele>
        <time>2021-09-05T13:36:14.000Z</time>
      </trkpt>
      <trkpt lat="49.12663" lon="-1.28411">
        <ele>64.102628</ele>
        <time>2021-09-05T13:36:19.000Z</time>
      </trkpt>
      <trkpt lat="49.12666" lon="-1.28347">
        <ele>63.658733</ele>
        <time>2021-09-05T13:36:25.000Z</time>
      </trkpt>
      <trkpt lat="49.12668" lon="-1.28263">
        <ele>62.902471</ele>
        <time>2021-09-05T13:36:33.000Z</time>
      </trkpt>
      <trkpt lat="49.12668" lon="-1.28252">
        <ele>62.783595</ele>
        <time>2021-09-05T13:36:34.000Z</time>
      </trkpt>
      <trkpt lat="49.12666" lon="-1.28186">
        <ele>62.041746</ele>
        <time>2021-09-05T13:36:40.000Z</time>
      </trkpt>
      <trkpt lat="49.1266" lon="-1.28106">
        <ele>61.147498</ele>
        <time>2021-09-05T13:36:47.000Z</time>
      </trkpt>
      <trkpt lat="49.12654" lon="-1.28082">
        <ele>60.867086</ele>
        <time>2021-09-05T13:36:49.000Z</time>
      </trkpt>
      <trkpt lat="49.12648" lon="-1.28075">
        <ele>60.743025</ele>
        <time>2021-09-05T13:36:50.000Z</time>
      </trkpt>
      <trkpt lat="49.12642" lon="-1.28068">
        <ele>60.619636</ele>
        <time>2021-09-05T13:36:51.000Z</time>
      </trkpt>
      <trkpt lat="49.12631" lon="-1.28055">
        <ele>60.368812</ele>
        <time>2021-09-05T13:36:53.000Z</time>
      </trkpt>
      <trkpt lat="49.12592" lon="-1.2801">
        <ele>59.120873</ele>
        <time>2021-09-05T13:37:00.000Z</time>
      </trkpt>
      <trkpt lat="49.12581" lon="-1.27997">
        <ele>58.759566</ele>
        <time>2021-09-05T13:37:02.000Z</time>
      </trkpt>
      <trkpt lat="49.12572" lon="-1.27982">
        <ele>58.413086</ele>
        <time>2021-09-05T13:37:04.000Z</time>
      </trkpt>
      <trkpt lat="49.12567" lon="-1.27962">
        <ele>58.039338</ele>
        <time>2021-09-05T13:37:06.000Z</time>
      </trkpt>
      <trkpt lat="49.12563" lon="-1.27938">
        <ele>57.607733</ele>
        <time>2021-09-05T13:37:08.000Z</time>
      </trkpt>
      <trkpt lat="49.12552" lon="-1.27873">
        <ele>56.461339</ele>
        <time>2021-09-05T13:37:13.000Z</time>
      </trkpt>
      <trkpt lat="49.12558" lon="-1.27821">
        <ele>55.544188</ele>
        <time>2021-09-05T13:37:17.000Z</time>
      </trkpt>
      <trkpt lat="49.12574" lon="-1.27766">
        <ele>54.389154</ele>
        <time>2021-09-05T13:37:21.000Z</time>
      </trkpt>
      <trkpt lat="49.12576" lon="-1.27705">
        <ele>53.203541</ele>
        <time>2021-09-05T13:37:25.000Z</time>
      </trkpt>
      <trkpt lat="49.12574" lon="-1.27689">
        <ele>52.905894</ele>
        <time>2021-09-05T13:37:26.000Z</time>
      </trkpt>
      <trkpt lat="49.12571" lon="-1.27646">
        <ele>52.058452</ele>
        <time>2021-09-05T13:37:29.000Z</time>
      </trkpt>
      <trkpt lat="49.12561" lon="-1.27624">
        <ele>51.555458</ele>
        <time>2021-09-05T13:37:31.000Z</time>
      </trkpt>
      <trkpt lat="49.12555" lon="-1.27614">
        <ele>51.285229</ele>
        <time>2021-09-05T13:37:32.000Z</time>
      </trkpt>
      <trkpt lat="49.12547" lon="-1.27606">
        <ele>51.01676</ele>
        <time>2021-09-05T13:37:33.000Z</time>
      </trkpt>
      <trkpt lat="49.12531" lon="-1.27603">
        <ele>50.541677</ele>
        <time>2021-09-05T13:37:35.000Z</time>
      </trkpt>
      <trkpt lat="49.12524" lon="-1.276">
        <ele>50.31105</ele>
        <time>2021-09-05T13:37:36.000Z</time>
      </trkpt>
      <trkpt lat="49.12503" lon="-1.27591">
        <ele>50.01631</ele>
        <time>2021-09-05T13:37:40.000Z</time>
      </trkpt>
      <trkpt lat="49.12489" lon="-1.27584">
        <ele>49.824612</ele>
        <time>2021-09-05T13:37:44.000Z</time>
      </trkpt>
      <trkpt lat="49.12474" lon="-1.27572">
        <ele>49.59407</ele>
        <time>2021-09-05T13:37:50.000Z</time>
      </trkpt>
      <trkpt lat="49.12469" lon="-1.27566">
        <ele>49.514116</ele>
        <time>2021-09-05T13:37:52.000Z</time>
      </trkpt>
      <trkpt lat="49.12464" lon="-1.27561">
        <ele>49.444025</ele>
        <time>2021-09-05T13:37:54.000Z</time>
      </trkpt>
      <trkpt lat="49.12448" lon="-1.27542">
        <ele>49.170407</ele>
        <time>2021-09-05T13:38:00.000Z</time>
      </trkpt>
      <trkpt lat="49.12431" lon="-1.27526">
        <ele>48.906599</ele>
        <time>2021-09-05T13:38:06.000Z</time>
      </trkpt>
      <trkpt lat="49.12416" lon="-1.27523">
        <ele>48.709032</ele>
        <time>2021-09-05T13:38:11.000Z</time>
      </trkpt>
      <trkpt lat="49.12397" lon="-1.27519">
        <ele>48.461558</ele>
        <time>2021-09-05T13:38:16.000Z</time>
      </trkpt>
      <trkpt lat="49.12383" lon="-1.27517">
        <ele>48.279869</ele>
        <time>2021-09-05T13:38:20.000Z</time>
      </trkpt>
      <trkpt lat="49.12357" lon="-1.27512">
        <ele>47.937555</ele>
        <time>2021-09-05T13:38:27.000Z</time>
      </trkpt>
      <trkpt lat="49.12338" lon="-1.27508">
        <ele>47.918989</ele>
        <time>2021-09-05T13:38:31.000Z</time>
      </trkpt>
      <trkpt lat="49.12315" lon="-1.27499">
        <ele>47.900693</ele>
        <time>2021-09-05T13:38:36.000Z</time>
      </trkpt>
      <trkpt lat="49.12311" lon="-1.27495">
        <ele>47.896933</ele>
        <time>2021-09-05T13:38:37.000Z</time>
      </trkpt>
      <trkpt lat="49.12289" lon="-1.27472">
        <ele>47.87699</ele>
        <time>2021-09-05T13:38:42.000Z</time>
      </trkpt>
      <trkpt lat="49.12261" lon="-1.27443">
        <ele>47.850746</ele>
        <time>2021-09-05T13:38:50.000Z</time>
      </trkpt>
      <trkpt lat="49.12239" lon="-1.27423">
        <ele>47.831725</ele>
        <time>2021-09-05T13:38:58.000Z</time>
      </trkpt>
      <trkpt lat="49.12218" lon="-1.27406">
        <ele>47.813168</ele>
        <time>2021-09-05T13:39:06.000Z</time>
      </trkpt>
      <trkpt lat="49.12195" lon="-1.27387">
        <ele>47.877762</ele>
        <time>2021-09-05T13:39:13.000Z</time>
      </trkpt>
      <trkpt lat="49.12191" lon="-1.27384">
        <ele>47.97471</ele>
        <time>2021-09-05T13:39:14.000Z</time>
      </trkpt>
      <trkpt lat="49.12183" lon="-1.27378">
        <ele>48.174675</ele>
        <time>2021-09-05T13:39:16.000Z</time>
      </trkpt>
      <trkpt lat="49.12173" lon="-1.27365">
        <ele>48.478077</ele>
        <time>2021-09-05T13:39:19.000Z</time>
      </trkpt>
      <trkpt lat="49.12171" lon="-1.2736">
        <ele>48.573244</ele>
        <time>2021-09-05T13:39:20.000Z</time>
      </trkpt>
      <trkpt lat="49.12168" lon="-1.27355">
        <ele>48.671053</ele>
        <time>2021-09-05T13:39:21.000Z</time>
      </trkpt>
      <trkpt lat="49.12163" lon="-1.27343">
        <ele>48.888768</ele>
        <time>2021-09-05T13:39:23.000Z</time>
      </trkpt>
      <trkpt lat="49.1216" lon="-1.2733">
        <ele>49.104043</ele>
        <time>2021-09-05T13:39:25.000Z</time>
      </trkpt>
      <trkpt lat="49.12149" lon="-1.27287">
        <ele>49.794936</ele>
        <time>2021-09-05T13:39:32.000Z</time>
      </trkpt>
      <trkpt lat="49.12141" lon="-1.27256">
        <ele>50.291276</ele>
        <time>2021-09-05T13:39:39.000Z</time>
      </trkpt>
      <trkpt lat="49.12136" lon="-1.27236">
        <ele>50.616002</ele>
        <time>2021-09-05T13:39:45.000Z</time>
      </trkpt>
      <trkpt lat="49.12135" lon="-1.27229">
        <ele>50.728268</ele>
        <time>2021-09-05T13:39:47.000Z</time>
      </trkpt>
      <trkpt lat="49.12133" lon="-1.27222">
        <ele>50.841353</ele>
        <time>2021-09-05T13:39:49.000Z</time>
      </trkpt>
      <trkpt lat="49.12128" lon="-1.272">
        <ele>51.186801</ele>
        <time>2021-09-05T13:39:55.000Z</time>
      </trkpt>
      <trkpt lat="49.12123" lon="-1.2718">
        <ele>51.501466</ele>
        <time>2021-09-05T13:40:01.000Z</time>
      </trkpt>
      <trkpt lat="49.12117" lon="-1.27156">
        <ele>51.890576</ele>
        <time>2021-09-05T13:40:08.000Z</time>
      </trkpt>
      <trkpt lat="49.1211" lon="-1.2713">
        <ele>52.727107</ele>
        <time>2021-09-05T13:40:15.000Z</time>
      </trkpt>
      <trkpt lat="49.12103" lon="-1.27101">
        <ele>53.693805</ele>
        <time>2021-09-05T13:40:23.000Z</time>
      </trkpt>
      <trkpt lat="49.12097" lon="-1.2708">
        <ele>54.442853</ele>
        <time>2021-09-05T13:40:29.000Z</time>
      </trkpt>
      <trkpt lat="49.12083" lon="-1.27075">
        <ele>55.110131</ele>
        <time>2021-09-05T13:40:34.000Z</time>
      </trkpt>
      <trkpt lat="49.12066" lon="-1.27086">
        <ele>55.992879</ele>
        <time>2021-09-05T13:40:41.000Z</time>
      </trkpt>
      <trkpt lat="49.12044" lon="-1.27102">
        <ele>57.161291</ele>
        <time>2021-09-05T13:40:50.000Z</time>
      </trkpt>
      <trkpt lat="49.1202" lon="-1.2712">
        <ele>58.465695</ele>
        <time>2021-09-05T13:41:00.000Z</time>
      </trkpt>
      <trkpt lat="49.12005" lon="-1.27119">
        <ele>59.187933</ele>
        <time>2021-09-05T13:41:06.000Z</time>
      </trkpt>
      <trkpt lat="49.11994" lon="-1.27109">
        <ele>59.8076</ele>
        <time>2021-09-05T13:41:12.000Z</time>
      </trkpt>
      <trkpt lat="49.11986" lon="-1.27091">
        <ele>60.501586</ele>
        <time>2021-09-05T13:41:19.000Z</time>
      </trkpt>
      <trkpt lat="49.11976" lon="-1.27066">
        <ele>61.926685</ele>
        <time>2021-09-05T13:41:29.000Z</time>
      </trkpt>
      <trkpt lat="49.11968" lon="-1.27046">
        <ele>63.108985</ele>
        <time>2021-09-05T13:41:38.000Z</time>
      </trkpt>
      <trkpt lat="49.1196" lon="-1.27026">
        <ele>64.287026</ele>
        <time>2021-09-05T13:41:46.000Z</time>
      </trkpt>
      <trkpt lat="49.11953" lon="-1.27009">
        <ele>65.272163</ele>
        <time>2021-09-05T13:41:53.000Z</time>
      </trkpt>
      <trkpt lat="49.11943" lon="-1.26995">
        <ele>66.295499</ele>
        <time>2021-09-05T13:42:00.000Z</time>
      </trkpt>
      <trkpt lat="49.11933" lon="-1.26985">
        <ele>67.217613</ele>
        <time>2021-09-05T13:42:08.000Z</time>
      </trkpt>
      <trkpt lat="49.11921" lon="-1.2697">
        <ele>68.407329</ele>
        <time>2021-09-05T13:42:16.000Z</time>
      </trkpt>
      <trkpt lat="49.11911" lon="-1.26946">
        <ele>69.817292</ele>
        <time>2021-09-05T13:42:26.000Z</time>
      </trkpt>
      <trkpt lat="49.11904" lon="-1.26926">
        <ele>70.954499</ele>
        <time>2021-09-05T13:42:34.000Z</time>
      </trkpt>
      <trkpt lat="49.11897" lon="-1.26909">
        <ele>71.944539</ele>
        <time>2021-09-05T13:42:41.000Z</time>
      </trkpt>
      <trkpt lat="49.11889" lon="-1.26887">
        <ele>73.245313</ele>
        <time>2021-09-05T13:42:50.000Z</time>
      </trkpt>
      <trkpt lat="49.1188" lon="-1.26865">
        <ele>74.43125</ele>
        <time>2021-09-05T13:42:58.000Z</time>
      </trkpt>
      <trkpt lat="49.11872" lon="-1.26847">
        <ele>74.938614</ele>
        <time>2021-09-05T13:43:04.000Z</time>
      </trkpt>
      <trkpt lat="49.11862" lon="-1.26837">
        <ele>75.354716</ele>
        <time>2021-09-05T13:43:10.000Z</time>
      </trkpt>
      <trkpt lat="49.11848" lon="-1.26821">
        <ele>75.986624</ele>
        <time>2021-09-05T13:43:18.000Z</time>
      </trkpt>
      <trkpt lat="49.11836" lon="-1.26808">
        <ele>76.526237</ele>
        <time>2021-09-05T13:43:25.000Z</time>
      </trkpt>
      <trkpt lat="49.1182" lon="-1.26791">
        <ele>77.233588</ele>
        <time>2021-09-05T13:43:33.000Z</time>
      </trkpt>
      <trkpt lat="49.11804" lon="-1.26773">
        <ele>77.922309</ele>
        <time>2021-09-05T13:43:41.000Z</time>
      </trkpt>
      <trkpt lat="49.11784" lon="-1.26752">
        <ele>78.789999</ele>
        <time>2021-09-05T13:43:51.000Z</time>
      </trkpt>
      <trkpt lat="49.1177" lon="-1.26737">
        <ele>79.402139</ele>
        <time>2021-09-05T13:43:58.000Z</time>
      </trkpt>
      <trkpt lat="49.11753" lon="-1.26718">
        <ele>80.151941</ele>
        <time>2021-09-05T13:44:07.000Z</time>
      </trkpt>
      <trkpt lat="49.11738" lon="-1.26702">
        <ele>80.813203</ele>
        <time>2021-09-05T13:44:15.000Z</time>
      </trkpt>
      <trkpt lat="49.11722" lon="-1.26681">
        <ele>81.470023</ele>
        <time>2021-09-05T13:44:24.000Z</time>
      </trkpt>
      <trkpt lat="49.11708" lon="-1.26662">
        <ele>82.063372</ele>
        <time>2021-09-05T13:44:31.000Z</time>
      </trkpt>
      <trkpt lat="49.11693" lon="-1.26643">
        <ele>82.681812</ele>
        <time>2021-09-05T13:44:38.000Z</time>
      </trkpt>
      <trkpt lat="49.11675" lon="-1.26618">
        <ele>83.437556</ele>
        <time>2021-09-05T13:44:46.000Z</time>
      </trkpt>
      <trkpt lat="49.11662" lon="-1.2659">
        <ele>84.141017</ele>
        <time>2021-09-05T13:44:53.000Z</time>
      </trkpt>
      <trkpt lat="49.11647" lon="-1.26559">
        <ele>84.955116</ele>
        <time>2021-09-05T13:45:01.000Z</time>
      </trkpt>
      <trkpt lat="49.11634" lon="-1.2653">
        <ele>85.662642</ele>
        <time>2021-09-05T13:45:08.000Z</time>
      </trkpt>
      <trkpt lat="49.11621" lon="-1.26498">
        <ele>86.44828</ele>
        <time>2021-09-05T13:45:15.000Z</time>
      </trkpt>
      <trkpt lat="49.116" lon="-1.26468">
        <ele>86.940987</ele>
        <time>2021-09-05T13:45:23.000Z</time>
      </trkpt>
      <trkpt lat="49.1158" lon="-1.2644">
        <ele>87.423082</ele>
        <time>2021-09-05T13:45:30.000Z</time>
      </trkpt>
      <trkpt lat="49.1156" lon="-1.26399">
        <ele>87.997121</ele>
        <time>2021-09-05T13:45:38.000Z</time>
      </trkpt>
      <trkpt lat="49.11553" lon="-1.26376">
        <ele>88.291434</ele>
        <time>2021-09-05T13:45:42.000Z</time>
      </trkpt>
      <trkpt lat="49.11546" lon="-1.26353">
        <ele>88.584994</ele>
        <time>2021-09-05T13:45:46.000Z</time>
      </trkpt>
      <trkpt lat="49.11533" lon="-1.26312">
        <ele>89.104357</ele>
        <time>2021-09-05T13:45:53.000Z</time>
      </trkpt>
      <trkpt lat="49.11527" lon="-1.26294">
        <ele>89.332223</ele>
        <time>2021-09-05T13:45:56.000Z</time>
      </trkpt>
      <trkpt lat="49.11522" lon="-1.26276">
        <ele>89.562906</ele>
        <time>2021-09-05T13:45:59.000Z</time>
      </trkpt>
      <trkpt lat="49.11516" lon="-1.26258">
        <ele>89.670045</ele>
        <time>2021-09-05T13:46:02.000Z</time>
      </trkpt>
      <trkpt lat="49.1151" lon="-1.26242">
        <ele>89.759824</ele>
        <time>2021-09-05T13:46:05.000Z</time>
      </trkpt>
      <trkpt lat="49.11507" lon="-1.26236">
        <ele>89.791958</ele>
        <time>2021-09-05T13:46:06.000Z</time>
      </trkpt>
      <trkpt lat="49.11492" lon="-1.2621">
        <ele>89.958485</ele>
        <time>2021-09-05T13:46:11.000Z</time>
      </trkpt>
      <trkpt lat="49.11472" lon="-1.26173">
        <ele>90.189168</ele>
        <time>2021-09-05T13:46:17.000Z</time>
      </trkpt>
      <trkpt lat="49.11444" lon="-1.26126">
        <ele>90.488313</ele>
        <time>2021-09-05T13:46:25.000Z</time>
      </trkpt>
      <trkpt lat="49.11414" lon="-1.261">
        <ele>90.742818</ele>
        <time>2021-09-05T13:46:32.000Z</time>
      </trkpt>
      <trkpt lat="49.11378" lon="-1.26069">
        <ele>90.877854</ele>
        <time>2021-09-05T13:46:41.000Z</time>
      </trkpt>
      <trkpt lat="49.1136" lon="-1.26053">
        <ele>90.861224</ele>
        <time>2021-09-05T13:46:46.000Z</time>
      </trkpt>
      <trkpt lat="49.11356" lon="-1.2605">
        <ele>90.858004</ele>
        <time>2021-09-05T13:46:47.000Z</time>
      </trkpt>
      <trkpt lat="49.11338" lon="-1.26035">
        <ele>90.841653</ele>
        <time>2021-09-05T13:46:52.000Z</time>
      </trkpt>
      <trkpt lat="49.11317" lon="-1.26017">
        <ele>90.823003</ele>
        <time>2021-09-05T13:46:57.000Z</time>
      </trkpt>
      <trkpt lat="49.11308" lon="-1.26007">
        <ele>90.814544</ele>
        <time>2021-09-05T13:46:59.000Z</time>
      </trkpt>
      <trkpt lat="49.113" lon="-1.25997">
        <ele>90.806216</ele>
        <time>2021-09-05T13:47:01.000Z</time>
      </trkpt>
      <trkpt lat="49.11278" lon="-1.25973">
        <ele>90.785288</ele>
        <time>2021-09-05T13:47:06.000Z</time>
      </trkpt>
      <trkpt lat="49.1126" lon="-1.25953">
        <ele>90.768044</ele>
        <time>2021-09-05T13:47:10.000Z</time>
      </trkpt>
      <trkpt lat="49.1125" lon="-1.25943">
        <ele>90.758457</ele>
        <time>2021-09-05T13:47:12.000Z</time>
      </trkpt>
      <trkpt lat="49.11202" lon="-1.25898">
        <ele>91.261661</ele>
        <time>2021-09-05T13:47:21.000Z</time>
      </trkpt>
      <trkpt lat="49.11178" lon="-1.25875">
        <ele>91.553802</ele>
        <time>2021-09-05T13:47:26.000Z</time>
      </trkpt>
      <trkpt lat="49.11174" lon="-1.2587">
        <ele>91.607541</ele>
        <time>2021-09-05T13:47:27.000Z</time>
      </trkpt>
      <trkpt lat="49.11157" lon="-1.25852">
        <ele>91.817212</ele>
        <time>2021-09-05T13:47:31.000Z</time>
      </trkpt>
      <trkpt lat="49.11151" lon="-1.25845">
        <ele>91.897621</ele>
        <time>2021-09-05T13:47:33.000Z</time>
      </trkpt>
      <trkpt lat="49.11148" lon="-1.25841">
        <ele>91.941942</ele>
        <time>2021-09-05T13:47:34.000Z</time>
      </trkpt>
      <trkpt lat="49.11137" lon="-1.25812">
        <ele>92.166653</ele>
        <time>2021-09-05T13:47:39.000Z</time>
      </trkpt>
      <trkpt lat="49.1113" lon="-1.25759">
        <ele>92.533958</ele>
        <time>2021-09-05T13:47:48.000Z</time>
      </trkpt>
      <trkpt lat="49.1112" lon="-1.25706">
        <ele>93.053598</ele>
        <time>2021-09-05T13:47:58.000Z</time>
      </trkpt>
      <trkpt lat="49.11114" lon="-1.25682">
        <ele>93.312761</ele>
        <time>2021-09-05T13:48:04.000Z</time>
      </trkpt>
      <trkpt lat="49.11107" lon="-1.25649">
        <ele>93.663763</ele>
        <time>2021-09-05T13:48:12.000Z</time>
      </trkpt>
      <trkpt lat="49.11099" lon="-1.25624">
        <ele>93.948298</ele>
        <time>2021-09-05T13:48:18.000Z</time>
      </trkpt>
      <trkpt lat="49.11087" lon="-1.2559">
        <ele>94.337682</ele>
        <time>2021-09-05T13:48:25.000Z</time>
      </trkpt>
      <trkpt lat="49.11079" lon="-1.25575">
        <ele>94.536</ele>
        <time>2021-09-05T13:48:28.000Z</time>
      </trkpt>
      <trkpt lat="49.11071" lon="-1.25565">
        <ele>94.695141</ele>
        <time>2021-09-05T13:48:30.000Z</time>
      </trkpt>
      <trkpt lat="49.11054" lon="-1.25544">
        <ele>95.029484</ele>
        <time>2021-09-05T13:48:34.000Z</time>
      </trkpt>
      <trkpt lat="49.11039" lon="-1.25531">
        <ele>95.293054</ele>
        <time>2021-09-05T13:48:37.000Z</time>
      </trkpt>
      <trkpt lat="49.10998" lon="-1.25499">
        <ele>95.129273</ele>
        <time>2021-09-05T13:48:45.000Z</time>
      </trkpt>
      <trkpt lat="49.1096" lon="-1.25471">
        <ele>94.855499</ele>
        <time>2021-09-05T13:48:52.000Z</time>
      </trkpt>
      <trkpt lat="49.10927" lon="-1.25448">
        <ele>94.619274</ele>
        <time>2021-09-05T13:48:58.000Z</time>
      </trkpt>
      <trkpt lat="49.10904" lon="-1.25433">
        <ele>94.459807</ele>
        <time>2021-09-05T13:49:02.000Z</time>
      </trkpt>
      <trkpt lat="49.10893" lon="-1.25425">
        <ele>94.379219</ele>
        <time>2021-09-05T13:49:04.000Z</time>
      </trkpt>
      <trkpt lat="49.10881" lon="-1.25417">
        <ele>94.29634</ele>
        <time>2021-09-05T13:49:06.000Z</time>
      </trkpt>
      <trkpt lat="49.10875" lon="-1.25414">
        <ele>94.253418</ele>
        <time>2021-09-05T13:49:07.000Z</time>
      </trkpt>
      <trkpt lat="49.10832" lon="-1.25393">
        <ele>93.389246</ele>
        <time>2021-09-05T13:49:13.000Z</time>
      </trkpt>
      <trkpt lat="49.10825" lon="-1.25388">
        <ele>93.223024</ele>
        <time>2021-09-05T13:49:14.000Z</time>
      </trkpt>
      <trkpt lat="49.10812" lon="-1.25371">
        <ele>92.887869</ele>
        <time>2021-09-05T13:49:16.000Z</time>
      </trkpt>
      <trkpt lat="49.10806" lon="-1.25363">
        <ele>92.716183</ele>
        <time>2021-09-05T13:49:17.000Z</time>
      </trkpt>
      <trkpt lat="49.10772" lon="-1.25319">
        <ele>91.796411</ele>
        <time>2021-09-05T13:49:22.000Z</time>
      </trkpt>
      <trkpt lat="49.10735" lon="-1.25245">
        <ele>90.53643</ele>
        <time>2021-09-05T13:49:28.000Z</time>
      </trkpt>
      <trkpt lat="49.10695" lon="-1.25167">
        <ele>88.501257</ele>
        <time>2021-09-05T13:49:34.000Z</time>
      </trkpt>
      <trkpt lat="49.10681" lon="-1.25139">
        <ele>87.778467</ele>
        <time>2021-09-05T13:49:36.000Z</time>
      </trkpt>
      <trkpt lat="49.10646" lon="-1.25073">
        <ele>86.030082</ele>
        <time>2021-09-05T13:49:41.000Z</time>
      </trkpt>
      <trkpt lat="49.10639" lon="-1.25061">
        <ele>85.688875</ele>
        <time>2021-09-05T13:49:42.000Z</time>
      </trkpt>
      <trkpt lat="49.10609" lon="-1.25017">
        <ele>84.341887</ele>
        <time>2021-09-05T13:49:46.000Z</time>
      </trkpt>
      <trkpt lat="49.1058" lon="-1.24985">
        <ele>83.129674</ele>
        <time>2021-09-05T13:49:50.000Z</time>
      </trkpt>
      <trkpt lat="49.10573" lon="-1.24979">
        <ele>82.860482</ele>
        <time>2021-09-05T13:49:51.000Z</time>
      </trkpt>
      <trkpt lat="49.10544" lon="-1.24952">
        <ele>81.705145</ele>
        <time>2021-09-05T13:49:56.000Z</time>
      </trkpt>
      <trkpt lat="49.10525" lon="-1.24941">
        <ele>81.010938</ele>
        <time>2021-09-05T13:50:00.000Z</time>
      </trkpt>
      <trkpt lat="49.1049" lon="-1.24922">
        <ele>79.769608</ele>
        <time>2021-09-05T13:50:07.000Z</time>
      </trkpt>
      <trkpt lat="49.10477" lon="-1.24914">
        <ele>79.280196</ele>
        <time>2021-09-05T13:50:10.000Z</time>
      </trkpt>
      <trkpt lat="49.10464" lon="-1.24906">
        <ele>78.797998</ele>
        <time>2021-09-05T13:50:13.000Z</time>
      </trkpt>
      <trkpt lat="49.10438" lon="-1.24886">
        <ele>78.160436</ele>
        <time>2021-09-05T13:50:19.000Z</time>
      </trkpt>
      <trkpt lat="49.10415" lon="-1.24868">
        <ele>77.579903</ele>
        <time>2021-09-05T13:50:25.000Z</time>
      </trkpt>
      <trkpt lat="49.1039" lon="-1.24848">
        <ele>76.969296</ele>
        <time>2021-09-05T13:50:32.000Z</time>
      </trkpt>
      <trkpt lat="49.10377" lon="-1.24837">
        <ele>76.635171</ele>
        <time>2021-09-05T13:50:36.000Z</time>
      </trkpt>
      <trkpt lat="49.10373" lon="-1.24834">
        <ele>76.53784</ele>
        <time>2021-09-05T13:50:37.000Z</time>
      </trkpt>
      <trkpt lat="49.10365" lon="-1.24826">
        <ele>76.332657</ele>
        <time>2021-09-05T13:50:39.000Z</time>
      </trkpt>
      <trkpt lat="49.10359" lon="-1.24808">
        <ele>76.032671</ele>
        <time>2021-09-05T13:50:41.000Z</time>
      </trkpt>
      <trkpt lat="49.10365" lon="-1.24792">
        <ele>75.772178</ele>
        <time>2021-09-05T13:50:44.000Z</time>
      </trkpt>
      <trkpt lat="49.10375" lon="-1.24766">
        <ele>75.334392</ele>
        <time>2021-09-05T13:50:50.000Z</time>
      </trkpt>
      <trkpt lat="49.10387" lon="-1.24737">
        <ele>74.836279</ele>
        <time>2021-09-05T13:50:57.000Z</time>
      </trkpt>
      <trkpt lat="49.10402" lon="-1.24699">
        <ele>75.217279</ele>
        <time>2021-09-05T13:51:06.000Z</time>
      </trkpt>
      <trkpt lat="49.10418" lon="-1.24661">
        <ele>75.673326</ele>
        <time>2021-09-05T13:51:15.000Z</time>
      </trkpt>
      <trkpt lat="49.1043" lon="-1.24632">
        <ele>76.028565</ele>
        <time>2021-09-05T13:51:22.000Z</time>
      </trkpt>
      <trkpt lat="49.10443" lon="-1.24597">
        <ele>76.43842</ele>
        <time>2021-09-05T13:51:30.000Z</time>
      </trkpt>
      <trkpt lat="49.10447" lon="-1.2457">
        <ele>76.734045</ele>
        <time>2021-09-05T13:51:36.000Z</time>
      </trkpt>
      <trkpt lat="49.10447" lon="-1.24534">
        <ele>77.1018</ele>
        <time>2021-09-05T13:51:43.000Z</time>
      </trkpt>
      <trkpt lat="49.10456" lon="-1.24513">
        <ele>77.359567</ele>
        <time>2021-09-05T13:51:48.000Z</time>
      </trkpt>
      <trkpt lat="49.10465" lon="-1.24483">
        <ele>77.757187</ele>
        <time>2021-09-05T13:51:55.000Z</time>
      </trkpt>
      <trkpt lat="49.10464" lon="-1.24462">
        <ele>78.148781</ele>
        <time>2021-09-05T13:52:00.000Z</time>
      </trkpt>
      <trkpt lat="49.10462" lon="-1.24438">
        <ele>78.592926</ele>
        <time>2021-09-05T13:52:06.000Z</time>
      </trkpt>
      <trkpt lat="49.10459" lon="-1.24409">
        <ele>79.123744</ele>
        <time>2021-09-05T13:52:13.000Z</time>
      </trkpt>
      <trkpt lat="49.10457" lon="-1.24376">
        <ele>79.716112</ele>
        <time>2021-09-05T13:52:20.000Z</time>
      </trkpt>
      <trkpt lat="49.10455" lon="-1.24335">
        <ele>80.463091</ele>
        <time>2021-09-05T13:52:28.000Z</time>
      </trkpt>
      <trkpt lat="49.10452" lon="-1.24293">
        <ele>81.242953</ele>
        <time>2021-09-05T13:52:36.000Z</time>
      </trkpt>
      <trkpt lat="49.1045" lon="-1.24247">
        <ele>82.081096</ele>
        <time>2021-09-05T13:52:45.000Z</time>
      </trkpt>
      <trkpt lat="49.10444" lon="-1.24207">
        <ele>82.696631</ele>
        <time>2021-09-05T13:52:53.000Z</time>
      </trkpt>
      <trkpt lat="49.10433" lon="-1.24175">
        <ele>82.944062</ele>
        <time>2021-09-05T13:52:59.000Z</time>
      </trkpt>
      <trkpt lat="49.10431" lon="-1.24169">
        <ele>82.988865</ele>
        <time>2021-09-05T13:53:00.000Z</time>
      </trkpt>
      <trkpt lat="49.10424" lon="-1.24151">
        <ele>83.130251</ele>
        <time>2021-09-05T13:53:03.000Z</time>
      </trkpt>
      <trkpt lat="49.10421" lon="-1.24146">
        <ele>83.174211</ele>
        <time>2021-09-05T13:53:04.000Z</time>
      </trkpt>
      <trkpt lat="49.10413" lon="-1.24129">
        <ele>83.320976</ele>
        <time>2021-09-05T13:53:07.000Z</time>
      </trkpt>
      <trkpt lat="49.10406" lon="-1.24108">
        <ele>83.480617</ele>
        <time>2021-09-05T13:53:10.000Z</time>
      </trkpt>
      <trkpt lat="49.10403" lon="-1.24092">
        <ele>83.59753</ele>
        <time>2021-09-05T13:53:12.000Z</time>
      </trkpt>
      <trkpt lat="49.10393" lon="-1.24049">
        <ele>83.906457</ele>
        <time>2021-09-05T13:53:17.000Z</time>
      </trkpt>
      <trkpt lat="49.10391" lon="-1.2404">
        <ele>83.966372</ele>
        <time>2021-09-05T13:53:18.000Z</time>
      </trkpt>
      <trkpt lat="49.10379" lon="-1.23985">
        <ele>84.36339</ele>
        <time>2021-09-05T13:53:25.000Z</time>
      </trkpt>
      <trkpt lat="49.10378" lon="-1.23982">
        <ele>84.384114</ele>
        <time>2021-09-05T13:53:26.000Z</time>
      </trkpt>
      <trkpt lat="49.10372" lon="-1.23967">
        <ele>84.486939</ele>
        <time>2021-09-05T13:53:28.000Z</time>
      </trkpt>
      <trkpt lat="49.10366" lon="-1.23964">
        <ele>84.455291</ele>
        <time>2021-09-05T13:53:29.000Z</time>
      </trkpt>
      <trkpt lat="49.1036" lon="-1.2396">
        <ele>84.421031</ele>
        <time>2021-09-05T13:53:30.000Z</time>
      </trkpt>
      <trkpt lat="49.10338" lon="-1.23948">
        <ele>84.308364</ele>
        <time>2021-09-05T13:53:33.000Z</time>
      </trkpt>
      <trkpt lat="49.10299" lon="-1.23942">
        <ele>84.115873</ele>
        <time>2021-09-05T13:53:37.000Z</time>
      </trkpt>
      <trkpt lat="49.10265" lon="-1.23942">
        <ele>83.948508</ele>
        <time>2021-09-05T13:53:40.000Z</time>
      </trkpt>
      <trkpt lat="49.10254" lon="-1.23942">
        <ele>83.894853</ele>
        <time>2021-09-05T13:53:41.000Z</time>
      </trkpt>
      <trkpt lat="49.10218" lon="-1.23938">
        <ele>83.715678</ele>
        <time>2021-09-05T13:53:45.000Z</time>
      </trkpt>
      <trkpt lat="49.10198" lon="-1.23929">
        <ele>83.614523</ele>
        <time>2021-09-05T13:53:48.000Z</time>
      </trkpt>
      <trkpt lat="49.10179" lon="-1.23921">
        <ele>83.7864</ele>
        <time>2021-09-05T13:53:52.000Z</time>
      </trkpt>
      <trkpt lat="49.10166" lon="-1.23911">
        <ele>83.919053</ele>
        <time>2021-09-05T13:53:56.000Z</time>
      </trkpt>
      <trkpt lat="49.10155" lon="-1.23897">
        <ele>84.055204</ele>
        <time>2021-09-05T13:54:01.000Z</time>
      </trkpt>
      <trkpt lat="49.10143" lon="-1.23882">
        <ele>84.202167</ele>
        <time>2021-09-05T13:54:06.000Z</time>
      </trkpt>
      <trkpt lat="49.10129" lon="-1.23864">
        <ele>84.376717</ele>
        <time>2021-09-05T13:54:12.000Z</time>
      </trkpt>
      <trkpt lat="49.10115" lon="-1.23848">
        <ele>84.537489</ele>
        <time>2021-09-05T13:54:17.000Z</time>
      </trkpt>
      <trkpt lat="49.10092" lon="-1.23825">
        <ele>84.789126</ele>
        <time>2021-09-05T13:54:24.000Z</time>
      </trkpt>
      <trkpt lat="49.10067" lon="-1.23798">
        <ele>85.081131</ele>
        <time>2021-09-05T13:54:32.000Z</time>
      </trkpt>
      <trkpt lat="49.10055" lon="-1.23786">
        <ele>85.217387</ele>
        <time>2021-09-05T13:54:36.000Z</time>
      </trkpt>
      <trkpt lat="49.10038" lon="-1.23771">
        <ele>85.366891</ele>
        <time>2021-09-05T13:54:42.000Z</time>
      </trkpt>
      <trkpt lat="49.10018" lon="-1.23754">
        <ele>85.508213</ele>
        <time>2021-09-05T13:54:49.000Z</time>
      </trkpt>
      <trkpt lat="49.09999" lon="-1.23736">
        <ele>85.652543</ele>
        <time>2021-09-05T13:54:56.000Z</time>
      </trkpt>
      <trkpt lat="49.09984" lon="-1.23723">
        <ele>85.758745</ele>
        <time>2021-09-05T13:55:01.000Z</time>
      </trkpt>
      <trkpt lat="49.0997" lon="-1.23708">
        <ele>85.868261</ele>
        <time>2021-09-05T13:55:06.000Z</time>
      </trkpt>
      <trkpt lat="49.09951" lon="-1.23685">
        <ele>86.019651</ele>
        <time>2021-09-05T13:55:13.000Z</time>
      </trkpt>
      <trkpt lat="49.09938" lon="-1.23673">
        <ele>86.112176</ele>
        <time>2021-09-05T13:55:17.000Z</time>
      </trkpt>
      <trkpt lat="49.09918" lon="-1.23661">
        <ele>86.251292</ele>
        <time>2021-09-05T13:55:23.000Z</time>
      </trkpt>
      <trkpt lat="49.09904" lon="-1.23653">
        <ele>86.344527</ele>
        <time>2021-09-05T13:55:27.000Z</time>
      </trkpt>
      <trkpt lat="49.09897" lon="-1.23649">
        <ele>86.393791</ele>
        <time>2021-09-05T13:55:29.000Z</time>
      </trkpt>
      <trkpt lat="49.0988" lon="-1.23639">
        <ele>86.339515</ele>
        <time>2021-09-05T13:55:34.000Z</time>
      </trkpt>
      <trkpt lat="49.09862" lon="-1.23628">
        <ele>86.199746</ele>
        <time>2021-09-05T13:55:39.000Z</time>
      </trkpt>
      <trkpt lat="49.09829" lon="-1.23609">
        <ele>85.941655</ele>
        <time>2021-09-05T13:55:47.000Z</time>
      </trkpt>
      <trkpt lat="49.09815" lon="-1.23604">
        <ele>85.836854</ele>
        <time>2021-09-05T13:55:50.000Z</time>
      </trkpt>
      <trkpt lat="49.09811" lon="-1.23604">
        <ele>85.804021</ele>
        <time>2021-09-05T13:55:51.000Z</time>
      </trkpt>
      <trkpt lat="49.09804" lon="-1.23605">
        <ele>85.752962</ele>
        <time>2021-09-05T13:55:53.000Z</time>
      </trkpt>
      <trkpt lat="49.09801" lon="-1.23605">
        <ele>85.730345</ele>
        <time>2021-09-05T13:55:54.000Z</time>
      </trkpt>
      <trkpt lat="49.09799" lon="-1.236">
        <ele>85.700797</ele>
        <time>2021-09-05T13:55:55.000Z</time>
      </trkpt>
      <trkpt lat="49.09796" lon="-1.23589">
        <ele>85.647473</ele>
        <time>2021-09-05T13:55:57.000Z</time>
      </trkpt>
      <trkpt lat="49.09793" lon="-1.23577">
        <ele>85.584871</ele>
        <time>2021-09-05T13:55:59.000Z</time>
      </trkpt>
      <trkpt lat="49.0979" lon="-1.23564">
        <ele>85.518635</ele>
        <time>2021-09-05T13:56:01.000Z</time>
      </trkpt>
      <trkpt lat="49.09789" lon="-1.23556">
        <ele>85.483973</ele>
        <time>2021-09-05T13:56:02.000Z</time>
      </trkpt>
      <trkpt lat="49.09783" lon="-1.23502">
        <ele>85.218205</ele>
        <time>2021-09-05T13:56:09.000Z</time>
      </trkpt>
      <trkpt lat="49.09777" lon="-1.23425">
        <ele>84.640491</ele>
        <time>2021-09-05T13:56:18.000Z</time>
      </trkpt>
      <trkpt lat="49.09772" lon="-1.23365">
        <ele>84.129016</ele>
        <time>2021-09-05T13:56:25.000Z</time>
      </trkpt>
      <trkpt lat="49.09768" lon="-1.23314">
        <ele>83.690452</ele>
        <time>2021-09-05T13:56:31.000Z</time>
      </trkpt>
      <trkpt lat="49.09768" lon="-1.23306">
        <ele>83.61938</ele>
        <time>2021-09-05T13:56:32.000Z</time>
      </trkpt>
      <trkpt lat="49.09764" lon="-1.23248">
        <ele>83.128641</ele>
        <time>2021-09-05T13:56:39.000Z</time>
      </trkpt>
      <trkpt lat="49.09762" lon="-1.23225">
        <ele>82.928108</ele>
        <time>2021-09-05T13:56:42.000Z</time>
      </trkpt>
      <trkpt lat="49.0976" lon="-1.23195">
        <ele>82.741964</ele>
        <time>2021-09-05T13:56:46.000Z</time>
      </trkpt>
      <trkpt lat="49.09759" lon="-1.23181">
        <ele>82.70068</ele>
        <time>2021-09-05T13:56:48.000Z</time>
      </trkpt>
      <trkpt lat="49.09757" lon="-1.23156">
        <ele>82.62667</ele>
        <time>2021-09-05T13:56:52.000Z</time>
      </trkpt>
      <trkpt lat="49.09754" lon="-1.2312">
        <ele>82.517294</ele>
        <time>2021-09-05T13:56:59.000Z</time>
      </trkpt>
      <trkpt lat="49.09753" lon="-1.23111">
        <ele>82.490186</ele>
        <time>2021-09-05T13:57:01.000Z</time>
      </trkpt>
      <trkpt lat="49.09751" lon="-1.23101">
        <ele>82.460255</ele>
        <time>2021-09-05T13:57:03.000Z</time>
      </trkpt>
      <trkpt lat="49.09736" lon="-1.23068">
        <ele>82.340912</ele>
        <time>2021-09-05T13:57:10.000Z</time>
      </trkpt>
      <trkpt lat="49.09729" lon="-1.23061">
        <ele>82.30325</ele>
        <time>2021-09-05T13:57:12.000Z</time>
      </trkpt>
      <trkpt lat="49.09712" lon="-1.23053">
        <ele>82.223472</ele>
        <time>2021-09-05T13:57:16.000Z</time>
      </trkpt>
      <trkpt lat="49.09704" lon="-1.2305">
        <ele>82.183418</ele>
        <time>2021-09-05T13:57:18.000Z</time>
      </trkpt>
      <trkpt lat="49.0968" lon="-1.23041">
        <ele>82.073085</ele>
        <time>2021-09-05T13:57:24.000Z</time>
      </trkpt>
      <trkpt lat="49.09644" lon="-1.23026">
        <ele>82.097264</ele>
        <time>2021-09-05T13:57:33.000Z</time>
      </trkpt>
      <trkpt lat="49.09602" lon="-1.2301">
        <ele>82.512268</ele>
        <time>2021-09-05T13:57:44.000Z</time>
      </trkpt>
      <trkpt lat="49.09572" lon="-1.22998">
        <ele>82.804528</ele>
        <time>2021-09-05T13:57:52.000Z</time>
      </trkpt>
      <trkpt lat="49.09561" lon="-1.22994">
        <ele>82.910663</ele>
        <time>2021-09-05T13:57:55.000Z</time>
      </trkpt>
      <trkpt lat="49.09553" lon="-1.23002">
        <ele>83.003802</ele>
        <time>2021-09-05T13:57:57.000Z</time>
      </trkpt>
      <trkpt lat="49.0954" lon="-1.23006">
        <ele>83.128228</ele>
        <time>2021-09-05T13:58:00.000Z</time>
      </trkpt>
      <trkpt lat="49.09536" lon="-1.23001">
        <ele>83.178195</ele>
        <time>2021-09-05T13:58:01.000Z</time>
      </trkpt>
      <trkpt lat="49.09534" lon="-1.22996">
        <ele>83.216089</ele>
        <time>2021-09-05T13:58:02.000Z</time>
      </trkpt>
      <trkpt lat="49.09522" lon="-1.22978">
        <ele>83.375817</ele>
        <time>2021-09-05T13:58:06.000Z</time>
      </trkpt>
      <trkpt lat="49.09499" lon="-1.22968">
        <ele>83.600562</ele>
        <time>2021-09-05T13:58:12.000Z</time>
      </trkpt>
      <trkpt lat="49.09475" lon="-1.22959">
        <ele>84.126578</ele>
        <time>2021-09-05T13:58:19.000Z</time>
      </trkpt>
      <trkpt lat="49.09453" lon="-1.2295">
        <ele>84.748279</ele>
        <time>2021-09-05T13:58:27.000Z</time>
      </trkpt>
      <trkpt lat="49.09429" lon="-1.2294">
        <ele>85.435295</ele>
        <time>2021-09-05T13:58:36.000Z</time>
      </trkpt>
      <trkpt lat="49.09411" lon="-1.22932">
        <ele>85.949782</ele>
        <time>2021-09-05T13:58:43.000Z</time>
      </trkpt>
      <trkpt lat="49.09388" lon="-1.22923">
        <ele>86.605461</ele>
        <time>2021-09-05T13:58:52.000Z</time>
      </trkpt>
      <trkpt lat="49.09363" lon="-1.22914">
        <ele>87.289358</ele>
        <time>2021-09-05T13:59:01.000Z</time>
      </trkpt>
      <trkpt lat="49.09347" lon="-1.22908">
        <ele>87.745146</ele>
        <time>2021-09-05T13:59:07.000Z</time>
      </trkpt>
      <trkpt lat="49.0933" lon="-1.22924">
        <ele>88.296237</ele>
        <time>2021-09-05T13:59:14.000Z</time>
      </trkpt>
      <trkpt lat="49.09308" lon="-1.22921">
        <ele>88.697886</ele>
        <time>2021-09-05T13:59:19.000Z</time>
      </trkpt>
      <trkpt lat="49.09297" lon="-1.22906">
        <ele>88.837001</ele>
        <time>2021-09-05T13:59:23.000Z</time>
      </trkpt>
      <trkpt lat="49.09279" lon="-1.22899">
        <ele>89.001155</ele>
        <time>2021-09-05T13:59:27.000Z</time>
      </trkpt>
      <trkpt lat="49.09272" lon="-1.22904">
        <ele>89.080639</ele>
        <time>2021-09-05T13:59:29.000Z</time>
      </trkpt>
      <trkpt lat="49.09267" lon="-1.2291">
        <ele>89.134146</ele>
        <time>2021-09-05T13:59:30.000Z</time>
      </trkpt>
      <trkpt lat="49.09264" lon="-1.22917">
        <ele>89.187735</ele>
        <time>2021-09-05T13:59:31.000Z</time>
      </trkpt>
      <trkpt lat="49.09262" lon="-1.22932">
        <ele>89.28059</ele>
        <time>2021-09-05T13:59:33.000Z</time>
      </trkpt>
      <trkpt lat="49.09261" lon="-1.22987">
        <ele>89.611772</ele>
        <time>2021-09-05T13:59:40.000Z</time>
      </trkpt>
      <trkpt lat="49.0926" lon="-1.23064">
        <ele>90.07378</ele>
        <time>2021-09-05T13:59:49.000Z</time>
      </trkpt>
      <trkpt lat="49.0926" lon="-1.23073">
        <ele>90.129346</ele>
        <time>2021-09-05T13:59:50.000Z</time>
      </trkpt>
      <trkpt lat="49.09257" lon="-1.23092">
        <ele>90.249117</ele>
        <time>2021-09-05T13:59:52.000Z</time>
      </trkpt>
      <trkpt lat="49.09254" lon="-1.231">
        <ele>90.313988</ele>
        <time>2021-09-05T13:59:53.000Z</time>
      </trkpt>
      <trkpt lat="49.0925" lon="-1.23108">
        <ele>90.380543</ele>
        <time>2021-09-05T13:59:54.000Z</time>
      </trkpt>
      <trkpt lat="49.0924" lon="-1.2312">
        <ele>90.51604</ele>
        <time>2021-09-05T13:59:56.000Z</time>
      </trkpt>
      <trkpt lat="49.09228" lon="-1.23126">
        <ele>90.647063</ele>
        <time>2021-09-05T13:59:58.000Z</time>
      </trkpt>
      <trkpt lat="49.09222" lon="-1.23128">
        <ele>90.710838</ele>
        <time>2021-09-05T13:59:59.000Z</time>
      </trkpt>
      <trkpt lat="49.09216" lon="-1.23127">
        <ele>90.776354</ele>
        <time>2021-09-05T14:00:00.000Z</time>
      </trkpt>
      <trkpt lat="49.09205" lon="-1.23123">
        <ele>90.898564</ele>
        <time>2021-09-05T14:00:02.000Z</time>
      </trkpt>
      <trkpt lat="49.092" lon="-1.23119">
        <ele>90.959775</ele>
        <time>2021-09-05T14:00:03.000Z</time>
      </trkpt>
      <trkpt lat="49.09195" lon="-1.23115">
        <ele>91.016918</ele>
        <time>2021-09-05T14:00:04.000Z</time>
      </trkpt>
      <trkpt lat="49.09187" lon="-1.23106">
        <ele>91.124337</ele>
        <time>2021-09-05T14:00:06.000Z</time>
      </trkpt>
      <trkpt lat="49.09183" lon="-1.23101">
        <ele>91.173979</ele>
        <time>2021-09-05T14:00:07.000Z</time>
      </trkpt>
      <trkpt lat="49.09167" lon="-1.23076">
        <ele>91.418508</ele>
        <time>2021-09-05T14:00:13.000Z</time>
      </trkpt>
      <trkpt lat="49.09154" lon="-1.23054">
        <ele>91.621234</ele>
        <time>2021-09-05T14:00:19.000Z</time>
      </trkpt>
      <trkpt lat="49.09137" lon="-1.23026">
        <ele>91.887834</ele>
        <time>2021-09-05T14:00:27.000Z</time>
      </trkpt>
      <trkpt lat="49.09123" lon="-1.23002">
        <ele>92.110021</ele>
        <time>2021-09-05T14:00:34.000Z</time>
      </trkpt>
      <trkpt lat="49.09112" lon="-1.22982">
        <ele>92.670425</ele>
        <time>2021-09-05T14:00:40.000Z</time>
      </trkpt>
      <trkpt lat="49.09093" lon="-1.22948">
        <ele>93.843381</ele>
        <time>2021-09-05T14:00:50.000Z</time>
      </trkpt>
      <trkpt lat="49.09071" lon="-1.22907">
        <ele>95.231905</ele>
        <time>2021-09-05T14:01:02.000Z</time>
      </trkpt>
      <trkpt lat="49.09057" lon="-1.2288">
        <ele>96.140723</ele>
        <time>2021-09-05T14:01:10.000Z</time>
      </trkpt>
      <trkpt lat="49.09043" lon="-1.22854">
        <ele>97.007141</ele>
        <time>2021-09-05T14:01:18.000Z</time>
      </trkpt>
      <trkpt lat="49.09028" lon="-1.2283">
        <ele>97.884811</ele>
        <time>2021-09-05T14:01:26.000Z</time>
      </trkpt>
      <trkpt lat="49.09014" lon="-1.22805">
        <ele>98.735499</ele>
        <time>2021-09-05T14:01:34.000Z</time>
      </trkpt>
      <trkpt lat="49.09005" lon="-1.2279">
        <ele>99.282701</ele>
        <time>2021-09-05T14:01:39.000Z</time>
      </trkpt>
      <trkpt lat="49.08987" lon="-1.22763">
        <ele>99.888943</ele>
        <time>2021-09-05T14:01:48.000Z</time>
      </trkpt>
      <trkpt lat="49.08971" lon="-1.22738">
        <ele>100.431401</ele>
        <time>2021-09-05T14:01:56.000Z</time>
      </trkpt>
      <trkpt lat="49.08951" lon="-1.22708">
        <ele>101.083935</ele>
        <time>2021-09-05T14:02:04.000Z</time>
      </trkpt>
      <trkpt lat="49.08924" lon="-1.2267">
        <ele>101.95022</ele>
        <time>2021-09-05T14:02:12.000Z</time>
      </trkpt>
      <trkpt lat="49.08899" lon="-1.22628">
        <ele>102.816438</ele>
        <time>2021-09-05T14:02:19.000Z</time>
      </trkpt>
      <trkpt lat="49.0887" lon="-1.22577">
        <ele>103.605687</ele>
        <time>2021-09-05T14:02:27.000Z</time>
      </trkpt>
      <trkpt lat="49.08863" lon="-1.22564">
        <ele>103.638252</ele>
        <time>2021-09-05T14:02:29.000Z</time>
      </trkpt>
      <trkpt lat="49.08844" lon="-1.2253">
        <ele>103.721079</ele>
        <time>2021-09-05T14:02:34.000Z</time>
      </trkpt>
      <trkpt lat="49.08817" lon="-1.22483">
        <ele>103.836148</ele>
        <time>2021-09-05T14:02:41.000Z</time>
      </trkpt>
      <trkpt lat="49.08791" lon="-1.22436">
        <ele>103.94879</ele>
        <time>2021-09-05T14:02:48.000Z</time>
      </trkpt>
      <trkpt lat="49.08787" lon="-1.22429">
        <ele>103.967157</ele>
        <time>2021-09-05T14:02:49.000Z</time>
      </trkpt>
      <trkpt lat="49.08781" lon="-1.22426">
        <ele>103.98349</ele>
        <time>2021-09-05T14:02:50.000Z</time>
      </trkpt>
      <trkpt lat="49.08764" lon="-1.22417">
        <ele>104.033407</ele>
        <time>2021-09-05T14:02:53.000Z</time>
      </trkpt>
      <trkpt lat="49.08724" lon="-1.22397">
        <ele>103.857265</ele>
        <time>2021-09-05T14:03:00.000Z</time>
      </trkpt>
      <trkpt lat="49.0868" lon="-1.22374">
        <ele>103.468192</ele>
        <time>2021-09-05T14:03:07.000Z</time>
      </trkpt>
      <trkpt lat="49.08637" lon="-1.22359">
        <ele>103.108073</ele>
        <time>2021-09-05T14:03:13.000Z</time>
      </trkpt>
      <trkpt lat="49.08589" lon="-1.22346">
        <ele>102.703542</ele>
        <time>2021-09-05T14:03:20.000Z</time>
      </trkpt>
      <trkpt lat="49.08543" lon="-1.22339">
        <ele>102.030494</ele>
        <time>2021-09-05T14:03:27.000Z</time>
      </trkpt>
      <trkpt lat="49.0853" lon="-1.22337">
        <ele>101.807658</ele>
        <time>2021-09-05T14:03:29.000Z</time>
      </trkpt>
      <trkpt lat="49.08475" lon="-1.22329">
        <ele>100.885667</ele>
        <time>2021-09-05T14:03:37.000Z</time>
      </trkpt>
      <trkpt lat="49.08468" lon="-1.22328">
        <ele>100.766668</ele>
        <time>2021-09-05T14:03:38.000Z</time>
      </trkpt>
      <trkpt lat="49.08409" lon="-1.22319">
        <ele>99.75936</ele>
        <time>2021-09-05T14:03:46.000Z</time>
      </trkpt>
      <trkpt lat="49.0837" lon="-1.2231">
        <ele>98.952445</ele>
        <time>2021-09-05T14:03:51.000Z</time>
      </trkpt>
      <trkpt lat="49.08322" lon="-1.22299">
        <ele>97.901716</ele>
        <time>2021-09-05T14:03:57.000Z</time>
      </trkpt>
      <trkpt lat="49.08297" lon="-1.22293">
        <ele>97.352085</ele>
        <time>2021-09-05T14:04:00.000Z</time>
      </trkpt>
      <trkpt lat="49.08263" lon="-1.22285">
        <ele>96.593207</ele>
        <time>2021-09-05T14:04:04.000Z</time>
      </trkpt>
      <trkpt lat="49.08211" lon="-1.22277">
        <ele>95.40744</ele>
        <time>2021-09-05T14:04:10.000Z</time>
      </trkpt>
      <trkpt lat="49.08161" lon="-1.22268">
        <ele>94.031099</ele>
        <time>2021-09-05T14:04:16.000Z</time>
      </trkpt>
      <trkpt lat="49.08122" lon="-1.22256">
        <ele>92.950696</ele>
        <time>2021-09-05T14:04:21.000Z</time>
      </trkpt>
      <trkpt lat="49.08081" lon="-1.22233">
        <ele>91.765473</ele>
        <time>2021-09-05T14:04:27.000Z</time>
      </trkpt>
      <trkpt lat="49.08036" lon="-1.22204">
        <ele>90.369386</ele>
        <time>2021-09-05T14:04:34.000Z</time>
      </trkpt>
      <trkpt lat="49.08001" lon="-1.22182">
        <ele>89.19091</ele>
        <time>2021-09-05T14:04:39.000Z</time>
      </trkpt>
      <trkpt lat="49.07955" lon="-1.22149">
        <ele>87.592736</ele>
        <time>2021-09-05T14:04:45.000Z</time>
      </trkpt>
      <trkpt lat="49.07902" lon="-1.22102">
        <ele>85.661582</ele>
        <time>2021-09-05T14:04:52.000Z</time>
      </trkpt>
      <trkpt lat="49.07854" lon="-1.22061">
        <ele>83.834403</ele>
        <time>2021-09-05T14:04:58.000Z</time>
      </trkpt>
      <trkpt lat="49.07846" lon="-1.22055">
        <ele>83.513067</ele>
        <time>2021-09-05T14:04:59.000Z</time>
      </trkpt>
      <trkpt lat="49.07798" lon="-1.22008">
        <ele>81.492345</ele>
        <time>2021-09-05T14:05:05.000Z</time>
      </trkpt>
      <trkpt lat="49.07782" lon="-1.21992">
        <ele>80.839546</ele>
        <time>2021-09-05T14:05:07.000Z</time>
      </trkpt>
      <trkpt lat="49.0774" lon="-1.21953">
        <ele>79.106531</ele>
        <time>2021-09-05T14:05:13.000Z</time>
      </trkpt>
      <trkpt lat="49.07713" lon="-1.21927">
        <ele>78.286773</ele>
        <time>2021-09-05T14:05:18.000Z</time>
      </trkpt>
      <trkpt lat="49.07694" lon="-1.21907">
        <ele>77.794542</ele>
        <time>2021-09-05T14:05:23.000Z</time>
      </trkpt>
      <trkpt lat="49.07674" lon="-1.21887">
        <ele>77.273467</ele>
        <time>2021-09-05T14:05:30.000Z</time>
      </trkpt>
      <trkpt lat="49.07652" lon="-1.21865">
        <ele>76.719221</ele>
        <time>2021-09-05T14:05:39.000Z</time>
      </trkpt>
      <trkpt lat="49.07631" lon="-1.21843">
        <ele>76.178508</ele>
        <time>2021-09-05T14:05:48.000Z</time>
      </trkpt>
      <trkpt lat="49.07612" lon="-1.21824">
        <ele>75.689041</ele>
        <time>2021-09-05T14:05:56.000Z</time>
      </trkpt>
      <trkpt lat="49.07593" lon="-1.21804">
        <ele>75.19879</ele>
        <time>2021-09-05T14:06:04.000Z</time>
      </trkpt>
      <trkpt lat="49.07571" lon="-1.21781">
        <ele>74.941454</ele>
        <time>2021-09-05T14:06:12.000Z</time>
      </trkpt>
      <trkpt lat="49.07546" lon="-1.21764">
        <ele>75.025733</ele>
        <time>2021-09-05T14:06:19.000Z</time>
      </trkpt>
      <trkpt lat="49.0751" lon="-1.21738">
        <ele>75.14459</ele>
        <time>2021-09-05T14:06:28.000Z</time>
      </trkpt>
      <trkpt lat="49.07494" lon="-1.21716">
        <ele>75.207003</ele>
        <time>2021-09-05T14:06:33.000Z</time>
      </trkpt>
      <trkpt lat="49.07469" lon="-1.21681">
        <ele>75.310186</ele>
        <time>2021-09-05T14:06:42.000Z</time>
      </trkpt>
      <trkpt lat="49.07445" lon="-1.21646">
        <ele>75.409659</ele>
        <time>2021-09-05T14:06:52.000Z</time>
      </trkpt>
      <trkpt lat="49.07429" lon="-1.2162">
        <ele>75.659753</ele>
        <time>2021-09-05T14:06:59.000Z</time>
      </trkpt>
      <trkpt lat="49.07412" lon="-1.21589">
        <ele>76.107295</ele>
        <time>2021-09-05T14:07:06.000Z</time>
      </trkpt>
      <trkpt lat="49.07409" lon="-1.21585">
        <ele>76.178451</ele>
        <time>2021-09-05T14:07:07.000Z</time>
      </trkpt>
      <trkpt lat="49.07402" lon="-1.21576">
        <ele>76.329052</ele>
        <time>2021-09-05T14:07:09.000Z</time>
      </trkpt>
      <trkpt lat="49.07395" lon="-1.21569">
        <ele>76.482937</ele>
        <time>2021-09-05T14:07:11.000Z</time>
      </trkpt>
      <trkpt lat="49.07368" lon="-1.21542">
        <ele>77.037015</ele>
        <time>2021-09-05T14:07:19.000Z</time>
      </trkpt>
      <trkpt lat="49.07352" lon="-1.21522">
        <ele>77.391885</ele>
        <time>2021-09-05T14:07:26.000Z</time>
      </trkpt>
      <trkpt lat="49.07333" lon="-1.21498">
        <ele>77.819314</ele>
        <time>2021-09-05T14:07:35.000Z</time>
      </trkpt>
      <trkpt lat="49.07316" lon="-1.21478">
        <ele>78.189287</ele>
        <time>2021-09-05T14:07:43.000Z</time>
      </trkpt>
      <trkpt lat="49.073" lon="-1.21459">
        <ele>78.536026</ele>
        <time>2021-09-05T14:07:51.000Z</time>
      </trkpt>
      <trkpt lat="49.07282" lon="-1.21448">
        <ele>79.178803</ele>
        <time>2021-09-05T14:07:59.000Z</time>
      </trkpt>
      <trkpt lat="49.07265" lon="-1.21448">
        <ele>79.731569</ele>
        <time>2021-09-05T14:08:04.000Z</time>
      </trkpt>
      <trkpt lat="49.07248" lon="-1.21452">
        <ele>80.280591</ele>
        <time>2021-09-05T14:08:08.000Z</time>
      </trkpt>
      <trkpt lat="49.0724" lon="-1.21449">
        <ele>80.562756</ele>
        <time>2021-09-05T14:08:10.000Z</time>
      </trkpt>
      <trkpt lat="49.07226" lon="-1.21434">
        <ele>81.113417</ele>
        <time>2021-09-05T14:08:14.000Z</time>
      </trkpt>
      <trkpt lat="49.07211" lon="-1.2141">
        <ele>81.831953</ele>
        <time>2021-09-05T14:08:20.000Z</time>
      </trkpt>
      <trkpt lat="49.072" lon="-1.21392">
        <ele>82.358752</ele>
        <time>2021-09-05T14:08:26.000Z</time>
      </trkpt>
      <trkpt lat="49.07186" lon="-1.21371">
        <ele>82.998021</ele>
        <time>2021-09-05T14:08:34.000Z</time>
      </trkpt>
      <trkpt lat="49.07175" lon="-1.21355">
        <ele>83.506538</ele>
        <time>2021-09-05T14:08:41.000Z</time>
      </trkpt>
      <trkpt lat="49.07162" lon="-1.21341">
        <ele>84.011111</ele>
        <time>2021-09-05T14:08:48.000Z</time>
      </trkpt>
      <trkpt lat="49.07145" lon="-1.21329">
        <ele>84.630177</ele>
        <time>2021-09-05T14:08:56.000Z</time>
      </trkpt>
      <trkpt lat="49.07129" lon="-1.21317">
        <ele>85.247331</ele>
        <time>2021-09-05T14:09:03.000Z</time>
      </trkpt>
      <trkpt lat="49.0711" lon="-1.21295">
        <ele>86.076918</ele>
        <time>2021-09-05T14:09:12.000Z</time>
      </trkpt>
      <trkpt lat="49.07091" lon="-1.21264">
        <ele>87.066078</ele>
        <time>2021-09-05T14:09:22.000Z</time>
      </trkpt>
      <trkpt lat="49.07072" lon="-1.21233">
        <ele>88.023585</ele>
        <time>2021-09-05T14:09:32.000Z</time>
      </trkpt>
      <trkpt lat="49.07051" lon="-1.21199">
        <ele>89.087807</ele>
        <time>2021-09-05T14:09:41.000Z</time>
      </trkpt>
      <trkpt lat="49.07032" lon="-1.21163">
        <ele>90.141844</ele>
        <time>2021-09-05T14:09:49.000Z</time>
      </trkpt>
      <trkpt lat="49.07014" lon="-1.2113">
        <ele>90.756695</ele>
        <time>2021-09-05T14:09:56.000Z</time>
      </trkpt>
      <trkpt lat="49.06991" lon="-1.21089">
        <ele>90.981054</ele>
        <time>2021-09-05T14:10:04.000Z</time>
      </trkpt>
      <trkpt lat="49.06978" lon="-1.21067">
        <ele>91.103462</ele>
        <time>2021-09-05T14:10:08.000Z</time>
      </trkpt>
      <trkpt lat="49.06971" lon="-1.21057">
        <ele>91.164284</ele>
        <time>2021-09-05T14:10:10.000Z</time>
      </trkpt>
      <trkpt lat="49.0695" lon="-1.21029">
        <ele>91.340298</ele>
        <time>2021-09-05T14:10:16.000Z</time>
      </trkpt>
      <trkpt lat="49.06939" lon="-1.21015">
        <ele>91.432057</ele>
        <time>2021-09-05T14:10:19.000Z</time>
      </trkpt>
      <trkpt lat="49.06927" lon="-1.21">
        <ele>91.528653</ele>
        <time>2021-09-05T14:10:22.000Z</time>
      </trkpt>
      <trkpt lat="49.06903" lon="-1.20966">
        <ele>91.737104</ele>
        <time>2021-09-05T14:10:28.000Z</time>
      </trkpt>
      <trkpt lat="49.06899" lon="-1.2096">
        <ele>91.769233</ele>
        <time>2021-09-05T14:10:29.000Z</time>
      </trkpt>
      <trkpt lat="49.0689" lon="-1.20946">
        <ele>91.768615</ele>
        <time>2021-09-05T14:10:32.000Z</time>
      </trkpt>
      <trkpt lat="49.06886" lon="-1.20925">
        <ele>91.6576</ele>
        <time>2021-09-05T14:10:36.000Z</time>
      </trkpt>
      <trkpt lat="49.06886" lon="-1.20879">
        <ele>91.42633</ele>
        <time>2021-09-05T14:10:42.000Z</time>
      </trkpt>
      <trkpt lat="49.06887" lon="-1.20811">
        <ele>91.081685</ele>
        <time>2021-09-05T14:10:50.000Z</time>
      </trkpt>
      <trkpt lat="49.06888" lon="-1.20739">
        <ele>90.719411</ele>
        <time>2021-09-05T14:10:58.000Z</time>
      </trkpt>
      <trkpt lat="49.06889" lon="-1.20681">
        <ele>90.423775</ele>
        <time>2021-09-05T14:11:04.000Z</time>
      </trkpt>
      <trkpt lat="49.06889" lon="-1.20651">
        <ele>90.053985</ele>
        <time>2021-09-05T14:11:07.000Z</time>
      </trkpt>
      <trkpt lat="49.0689" lon="-1.20629">
        <ele>89.795924</ele>
        <time>2021-09-05T14:11:09.000Z</time>
      </trkpt>
      <trkpt lat="49.06892" lon="-1.20557">
        <ele>88.930137</ele>
        <time>2021-09-05T14:11:15.000Z</time>
      </trkpt>
      <trkpt lat="49.06891" lon="-1.20519">
        <ele>88.463805</ele>
        <time>2021-09-05T14:11:18.000Z</time>
      </trkpt>
      <trkpt lat="49.06887" lon="-1.20493">
        <ele>88.143734</ele>
        <time>2021-09-05T14:11:20.000Z</time>
      </trkpt>
      <trkpt lat="49.06867" lon="-1.20415">
        <ele>87.140075</ele>
        <time>2021-09-05T14:11:26.000Z</time>
      </trkpt>
      <trkpt lat="49.06847" lon="-1.20335">
        <ele>85.214948</ele>
        <time>2021-09-05T14:11:32.000Z</time>
      </trkpt>
      <trkpt lat="49.06831" lon="-1.20267">
        <ele>83.594082</ele>
        <time>2021-09-05T14:11:37.000Z</time>
      </trkpt>
      <trkpt lat="49.06818" lon="-1.20213">
        <ele>82.307519</ele>
        <time>2021-09-05T14:11:41.000Z</time>
      </trkpt>
      <trkpt lat="49.06809" lon="-1.2017">
        <ele>81.286298</ele>
        <time>2021-09-05T14:11:45.000Z</time>
      </trkpt>
      <trkpt lat="49.06802" lon="-1.20141">
        <ele>80.501943</ele>
        <time>2021-09-05T14:11:49.000Z</time>
      </trkpt>
      <trkpt lat="49.06798" lon="-1.20129">
        <ele>80.124238</ele>
        <time>2021-09-05T14:11:51.000Z</time>
      </trkpt>
      <trkpt lat="49.06794" lon="-1.20119">
        <ele>79.784784</ele>
        <time>2021-09-05T14:11:53.000Z</time>
      </trkpt>
      <trkpt lat="49.0679" lon="-1.20109">
        <ele>79.421328</ele>
        <time>2021-09-05T14:11:55.000Z</time>
      </trkpt>
      <trkpt lat="49.06788" lon="-1.20093">
        <ele>78.964426</ele>
        <time>2021-09-05T14:11:57.000Z</time>
      </trkpt>
      <trkpt lat="49.06791" lon="-1.20061">
        <ele>78.049087</ele>
        <time>2021-09-05T14:12:01.000Z</time>
      </trkpt>
      <trkpt lat="49.0679" lon="-1.20043">
        <ele>77.534399</ele>
        <time>2021-09-05T14:12:03.000Z</time>
      </trkpt>
      <trkpt lat="49.06785" lon="-1.20027">
        <ele>77.017592</ele>
        <time>2021-09-05T14:12:05.000Z</time>
      </trkpt>
      <trkpt lat="49.06776" lon="-1.20012">
        <ele>76.444294</ele>
        <time>2021-09-05T14:12:07.000Z</time>
      </trkpt>
      <trkpt lat="49.06772" lon="-1.20006">
        <ele>76.187379</ele>
        <time>2021-09-05T14:12:08.000Z</time>
      </trkpt>
      <trkpt lat="49.06771" lon="-1.19996">
        <ele>75.908935</ele>
        <time>2021-09-05T14:12:09.000Z</time>
      </trkpt>
      <trkpt lat="49.06778" lon="-1.19984">
        <ele>75.433275</ele>
        <time>2021-09-05T14:12:11.000Z</time>
      </trkpt>
      <trkpt lat="49.068" lon="-1.19955">
        <ele>74.194734</ele>
        <time>2021-09-05T14:12:17.000Z</time>
      </trkpt>
      <trkpt lat="49.06814" lon="-1.19924">
        <ele>73.108518</ele>
        <time>2021-09-05T14:12:24.000Z</time>
      </trkpt>
      <trkpt lat="49.06825" lon="-1.19885">
        <ele>72.468221</ele>
        <time>2021-09-05T14:12:32.000Z</time>
      </trkpt>
      <trkpt lat="49.06833" lon="-1.19859">
        <ele>72.035347</ele>
        <time>2021-09-05T14:12:37.000Z</time>
      </trkpt>
      <trkpt lat="49.06835" lon="-1.19853">
        <ele>71.946929</ele>
        <time>2021-09-05T14:12:38.000Z</time>
      </trkpt>
      <trkpt lat="49.06849" lon="-1.19822">
        <ele>71.379275</ele>
        <time>2021-09-05T14:12:44.000Z</time>
      </trkpt>
      <trkpt lat="49.06852" lon="-1.19817">
        <ele>71.272849</ele>
        <time>2021-09-05T14:12:45.000Z</time>
      </trkpt>
      <trkpt lat="49.06854" lon="-1.19811">
        <ele>71.165244</ele>
        <time>2021-09-05T14:12:46.000Z</time>
      </trkpt>
      <trkpt lat="49.06869" lon="-1.1978">
        <ele>70.585799</ele>
        <time>2021-09-05T14:12:51.000Z</time>
      </trkpt>
      <trkpt lat="49.06877" lon="-1.19757">
        <ele>70.190313</ele>
        <time>2021-09-05T14:12:54.000Z</time>
      </trkpt>
      <trkpt lat="49.06883" lon="-1.19739">
        <ele>69.889894</ele>
        <time>2021-09-05T14:12:56.000Z</time>
      </trkpt>
      <trkpt lat="49.06905" lon="-1.19671">
        <ele>68.771003</ele>
        <time>2021-09-05T14:13:03.000Z</time>
      </trkpt>
      <trkpt lat="49.06915" lon="-1.19639">
        <ele>68.324064</ele>
        <time>2021-09-05T14:13:06.000Z</time>
      </trkpt>
      <trkpt lat="49.06918" lon="-1.19629">
        <ele>68.172414</ele>
        <time>2021-09-05T14:13:07.000Z</time>
      </trkpt>
      <trkpt lat="49.06921" lon="-1.19618">
        <ele>68.024763</ele>
        <time>2021-09-05T14:13:08.000Z</time>
      </trkpt>
      <trkpt lat="49.06936" lon="-1.19581">
        <ele>67.456085</ele>
        <time>2021-09-05T14:13:12.000Z</time>
      </trkpt>
      <trkpt lat="49.06957" lon="-1.19529">
        <ele>66.664583</ele>
        <time>2021-09-05T14:13:17.000Z</time>
      </trkpt>
      <trkpt lat="49.06956" lon="-1.19506">
        <ele>66.361311</ele>
        <time>2021-09-05T14:13:19.000Z</time>
      </trkpt>
      <trkpt lat="49.06944" lon="-1.19477">
        <ele>65.914486</ele>
        <time>2021-09-05T14:13:22.000Z</time>
      </trkpt>
      <trkpt lat="49.06921" lon="-1.19427">
        <ele>65.582007</ele>
        <time>2021-09-05T14:13:28.000Z</time>
      </trkpt>
      <trkpt lat="49.06908" lon="-1.19405">
        <ele>65.825441</ele>
        <time>2021-09-05T14:13:31.000Z</time>
      </trkpt>
      <trkpt lat="49.069" lon="-1.19395">
        <ele>65.965465</ele>
        <time>2021-09-05T14:13:33.000Z</time>
      </trkpt>
      <trkpt lat="49.0689" lon="-1.19385">
        <ele>66.112092</ele>
        <time>2021-09-05T14:13:36.000Z</time>
      </trkpt>
      <trkpt lat="49.06876" lon="-1.19376">
        <ele>66.306317</ele>
        <time>2021-09-05T14:13:42.000Z</time>
      </trkpt>
      <trkpt lat="49.06865" lon="-1.19368">
        <ele>66.465941</ele>
        <time>2021-09-05T14:13:48.000Z</time>
      </trkpt>
      <trkpt lat="49.06854" lon="-1.1936">
        <ele>66.62104</ele>
        <time>2021-09-05T14:13:55.000Z</time>
      </trkpt>
      <trkpt lat="49.06843" lon="-1.1935">
        <ele>66.785822</ele>
        <time>2021-09-05T14:14:03.000Z</time>
      </trkpt>
      <trkpt lat="49.06835" lon="-1.19343">
        <ele>66.903523</ele>
        <time>2021-09-05T14:14:08.000Z</time>
      </trkpt>
      <trkpt lat="49.06824" lon="-1.19333">
        <ele>67.058476</ele>
        <time>2021-09-05T14:14:15.000Z</time>
      </trkpt>
      <trkpt lat="49.06815" lon="-1.19325">
        <ele>67.192517</ele>
        <time>2021-09-05T14:14:21.000Z</time>
      </trkpt>
      <trkpt lat="49.06805" lon="-1.19316">
        <ele>67.342899</ele>
        <time>2021-09-05T14:14:28.000Z</time>
      </trkpt>
      <trkpt lat="49.06795" lon="-1.19308">
        <ele>67.487188</ele>
        <time>2021-09-05T14:14:35.000Z</time>
      </trkpt>
      <trkpt lat="49.06788" lon="-1.19301">
        <ele>67.594642</ele>
        <time>2021-09-05T14:14:40.000Z</time>
      </trkpt>
      <trkpt lat="49.06777" lon="-1.19292">
        <ele>67.935022</ele>
        <time>2021-09-05T14:14:47.000Z</time>
      </trkpt>
      <trkpt lat="49.06766" lon="-1.19279">
        <ele>68.728329</ele>
        <time>2021-09-05T14:14:55.000Z</time>
      </trkpt>
      <trkpt lat="49.06756" lon="-1.19265">
        <ele>69.451984</ele>
        <time>2021-09-05T14:15:03.000Z</time>
      </trkpt>
      <trkpt lat="49.06747" lon="-1.19251">
        <ele>70.130823</ele>
        <time>2021-09-05T14:15:11.000Z</time>
      </trkpt>
      <trkpt lat="49.0674" lon="-1.19239">
        <ele>70.748199</ele>
        <time>2021-09-05T14:15:18.000Z</time>
      </trkpt>
      <trkpt lat="49.0673" lon="-1.19223">
        <ele>71.539775</ele>
        <time>2021-09-05T14:15:27.000Z</time>
      </trkpt>
      <trkpt lat="49.06722" lon="-1.19211">
        <ele>72.163541</ele>
        <time>2021-09-05T14:15:34.000Z</time>
      </trkpt>
      <trkpt lat="49.06713" lon="-1.19195">
        <ele>72.892048</ele>
        <time>2021-09-05T14:15:42.000Z</time>
      </trkpt>
      <trkpt lat="49.06704" lon="-1.19178">
        <ele>73.706916</ele>
        <time>2021-09-05T14:15:51.000Z</time>
      </trkpt>
      <trkpt lat="49.06697" lon="-1.19164">
        <ele>74.32995</ele>
        <time>2021-09-05T14:15:58.000Z</time>
      </trkpt>
      <trkpt lat="49.06689" lon="-1.19145">
        <ele>75.13219</ele>
        <time>2021-09-05T14:16:06.000Z</time>
      </trkpt>
      <trkpt lat="49.0668" lon="-1.19122">
        <ele>76.087656</ele>
        <time>2021-09-05T14:16:14.000Z</time>
      </trkpt>
      <trkpt lat="49.06669" lon="-1.19096">
        <ele>77.217387</ele>
        <time>2021-09-05T14:16:23.000Z</time>
      </trkpt>
      <trkpt lat="49.06659" lon="-1.19072">
        <ele>78.136212</ele>
        <time>2021-09-05T14:16:31.000Z</time>
      </trkpt>
      <trkpt lat="49.06648" lon="-1.1904">
        <ele>79.24571</ele>
        <time>2021-09-05T14:16:41.000Z</time>
      </trkpt>
      <trkpt lat="49.06637" lon="-1.19019">
        <ele>80.08077</ele>
        <time>2021-09-05T14:16:48.000Z</time>
      </trkpt>
      <trkpt lat="49.0662" lon="-1.18987">
        <ele>81.343952</ele>
        <time>2021-09-05T14:16:58.000Z</time>
      </trkpt>
      <trkpt lat="49.06607" lon="-1.18966">
        <ele>82.214166</ele>
        <time>2021-09-05T14:17:05.000Z</time>
      </trkpt>
      <trkpt lat="49.0659" lon="-1.18939">
        <ele>83.402848</ele>
        <time>2021-09-05T14:17:14.000Z</time>
      </trkpt>
      <trkpt lat="49.06576" lon="-1.1892">
        <ele>84.280307</ele>
        <time>2021-09-05T14:17:21.000Z</time>
      </trkpt>
      <trkpt lat="49.06563" lon="-1.18904">
        <ele>85.048793</ele>
        <time>2021-09-05T14:17:27.000Z</time>
      </trkpt>
      <trkpt lat="49.06547" lon="-1.18883">
        <ele>86.065307</ele>
        <time>2021-09-05T14:17:35.000Z</time>
      </trkpt>
      <trkpt lat="49.06533" lon="-1.18865">
        <ele>86.855498</ele>
        <time>2021-09-05T14:17:42.000Z</time>
      </trkpt>
      <trkpt lat="49.06516" lon="-1.18844">
        <ele>87.778089</ele>
        <time>2021-09-05T14:17:50.000Z</time>
      </trkpt>
      <trkpt lat="49.06498" lon="-1.18821">
        <ele>88.791974</ele>
        <time>2021-09-05T14:17:58.000Z</time>
      </trkpt>
      <trkpt lat="49.0648" lon="-1.18798">
        <ele>89.817953</ele>
        <time>2021-09-05T14:18:07.000Z</time>
      </trkpt>
      <trkpt lat="49.06463" lon="-1.18776">
        <ele>90.801015</ele>
        <time>2021-09-05T14:18:16.000Z</time>
      </trkpt>
      <trkpt lat="49.06459" lon="-1.18771">
        <ele>91.009294</ele>
        <time>2021-09-05T14:18:18.000Z</time>
      </trkpt>
      <trkpt lat="49.06456" lon="-1.18767">
        <ele>91.177974</ele>
        <time>2021-09-05T14:18:20.000Z</time>
      </trkpt>
      <trkpt lat="49.06445" lon="-1.18752">
        <ele>91.835937</ele>
        <time>2021-09-05T14:18:26.000Z</time>
      </trkpt>
      <trkpt lat="49.06428" lon="-1.18723">
        <ele>92.919084</ele>
        <time>2021-09-05T14:18:35.000Z</time>
      </trkpt>
      <trkpt lat="49.06416" lon="-1.18702">
        <ele>93.712624</ele>
        <time>2021-09-05T14:18:41.000Z</time>
      </trkpt>
      <trkpt lat="49.06404" lon="-1.18674">
        <ele>94.381911</ele>
        <time>2021-09-05T14:18:48.000Z</time>
      </trkpt>
      <trkpt lat="49.06387" lon="-1.18634">
        <ele>95.318768</ele>
        <time>2021-09-05T14:18:58.000Z</time>
      </trkpt>
      <trkpt lat="49.06369" lon="-1.18594">
        <ele>96.250771</ele>
        <time>2021-09-05T14:19:07.000Z</time>
      </trkpt>
      <trkpt lat="49.06354" lon="-1.18558">
        <ele>97.082453</ele>
        <time>2021-09-05T14:19:15.000Z</time>
      </trkpt>
      <trkpt lat="49.06337" lon="-1.18518">
        <ele>98.001523</ele>
        <time>2021-09-05T14:19:24.000Z</time>
      </trkpt>
      <trkpt lat="49.06326" lon="-1.18502">
        <ele>98.461696</ele>
        <time>2021-09-05T14:19:30.000Z</time>
      </trkpt>
      <trkpt lat="49.06322" lon="-1.18499">
        <ele>98.590825</ele>
        <time>2021-09-05T14:19:32.000Z</time>
      </trkpt>
      <trkpt lat="49.06318" lon="-1.18497">
        <ele>98.694444</ele>
        <time>2021-09-05T14:19:34.000Z</time>
      </trkpt>
      <trkpt lat="49.06298" lon="-1.18482">
        <ele>99.213816</ele>
        <time>2021-09-05T14:19:41.000Z</time>
      </trkpt>
      <trkpt lat="49.06274" lon="-1.18466">
        <ele>99.493052</ele>
        <time>2021-09-05T14:19:48.000Z</time>
      </trkpt>
      <trkpt lat="49.06251" lon="-1.1845">
        <ele>99.773284</ele>
        <time>2021-09-05T14:19:54.000Z</time>
      </trkpt>
      <trkpt lat="49.06221" lon="-1.1843">
        <ele>100.127866</ele>
        <time>2021-09-05T14:20:01.000Z</time>
      </trkpt>
      <trkpt lat="49.06196" lon="-1.18412">
        <ele>100.428546</ele>
        <time>2021-09-05T14:20:06.000Z</time>
      </trkpt>
      <trkpt lat="49.06191" lon="-1.18408">
        <ele>100.489312</ele>
        <time>2021-09-05T14:20:07.000Z</time>
      </trkpt>
      <trkpt lat="49.06187" lon="-1.18403">
        <ele>100.548438</ele>
        <time>2021-09-05T14:20:08.000Z</time>
      </trkpt>
      <trkpt lat="49.06179" lon="-1.18391">
        <ele>100.672801</ele>
        <time>2021-09-05T14:20:10.000Z</time>
      </trkpt>
      <trkpt lat="49.06174" lon="-1.18385">
        <ele>100.738038</ele>
        <time>2021-09-05T14:20:11.000Z</time>
      </trkpt>
      <trkpt lat="49.06144" lon="-1.18362">
        <ele>101.105696</ele>
        <time>2021-09-05T14:20:16.000Z</time>
      </trkpt>
      <trkpt lat="49.06104" lon="-1.18327">
        <ele>101.582022</ele>
        <time>2021-09-05T14:20:23.000Z</time>
      </trkpt>
      <trkpt lat="49.06073" lon="-1.18293">
        <ele>101.978095</ele>
        <time>2021-09-05T14:20:30.000Z</time>
      </trkpt>
      <trkpt lat="49.06046" lon="-1.18258">
        <ele>102.336262</ele>
        <time>2021-09-05T14:20:37.000Z</time>
      </trkpt>
      <trkpt lat="49.0602" lon="-1.18223">
        <ele>102.692323</ele>
        <time>2021-09-05T14:20:45.000Z</time>
      </trkpt>
      <trkpt lat="49.05995" lon="-1.1819">
        <ele>103.091776</ele>
        <time>2021-09-05T14:20:54.000Z</time>
      </trkpt>
      <trkpt lat="49.05976" lon="-1.18165">
        <ele>103.501097</ele>
        <time>2021-09-05T14:21:01.000Z</time>
      </trkpt>
      <trkpt lat="49.05954" lon="-1.18139">
        <ele>103.956711</ele>
        <time>2021-09-05T14:21:08.000Z</time>
      </trkpt>
      <trkpt lat="49.05927" lon="-1.18107">
        <ele>104.501865</ele>
        <time>2021-09-05T14:21:16.000Z</time>
      </trkpt>
      <trkpt lat="49.05895" lon="-1.18068">
        <ele>105.170127</ele>
        <time>2021-09-05T14:21:25.000Z</time>
      </trkpt>
      <trkpt lat="49.05864" lon="-1.18031">
        <ele>105.802283</ele>
        <time>2021-09-05T14:21:33.000Z</time>
      </trkpt>
      <trkpt lat="49.05839" lon="-1.18001">
        <ele>106.317472</ele>
        <time>2021-09-05T14:21:40.000Z</time>
      </trkpt>
      <trkpt lat="49.05802" lon="-1.17974">
        <ele>106.980496</ele>
        <time>2021-09-05T14:21:49.000Z</time>
      </trkpt>
      <trkpt lat="49.05775" lon="-1.17956">
        <ele>107.450299</ele>
        <time>2021-09-05T14:21:56.000Z</time>
      </trkpt>
      <trkpt lat="49.05764" lon="-1.1795">
        <ele>107.652462</ele>
        <time>2021-09-05T14:21:59.000Z</time>
      </trkpt>
      <trkpt lat="49.05752" lon="-1.17944">
        <ele>107.856157</ele>
        <time>2021-09-05T14:22:02.000Z</time>
      </trkpt>
      <trkpt lat="49.05728" lon="-1.17932">
        <ele>108.262016</ele>
        <time>2021-09-05T14:22:08.000Z</time>
      </trkpt>
      <trkpt lat="49.05724" lon="-1.1793">
        <ele>108.328054</ele>
        <time>2021-09-05T14:22:09.000Z</time>
      </trkpt>
      <trkpt lat="49.05703" lon="-1.17921">
        <ele>108.679063</ele>
        <time>2021-09-05T14:22:14.000Z</time>
      </trkpt>
      <trkpt lat="49.05667" lon="-1.17906">
        <ele>109.220935</ele>
        <time>2021-09-05T14:22:22.000Z</time>
      </trkpt>
      <trkpt lat="49.05632" lon="-1.17884">
        <ele>109.772235</ele>
        <time>2021-09-05T14:22:30.000Z</time>
      </trkpt>
      <trkpt lat="49.05623" lon="-1.17878">
        <ele>109.905175</ele>
        <time>2021-09-05T14:22:32.000Z</time>
      </trkpt>
      <trkpt lat="49.05618" lon="-1.17867">
        <ele>110.030868</ele>
        <time>2021-09-05T14:22:34.000Z</time>
      </trkpt>
      <trkpt lat="49.05616" lon="-1.17861">
        <ele>110.095534</ele>
        <time>2021-09-05T14:22:35.000Z</time>
      </trkpt>
      <trkpt lat="49.05614" lon="-1.17855">
        <ele>110.158352</ele>
        <time>2021-09-05T14:22:36.000Z</time>
      </trkpt>
      <trkpt lat="49.05609" lon="-1.17821">
        <ele>110.487458</ele>
        <time>2021-09-05T14:22:41.000Z</time>
      </trkpt>
      <trkpt lat="49.05601" lon="-1.17766">
        <ele>111.019187</ele>
        <time>2021-09-05T14:22:49.000Z</time>
      </trkpt>
      <trkpt lat="49.05591" lon="-1.17716">
        <ele>111.506212</ele>
        <time>2021-09-05T14:22:57.000Z</time>
      </trkpt>
      <trkpt lat="49.05586" lon="-1.17693">
        <ele>111.738525</ele>
        <time>2021-09-05T14:23:01.000Z</time>
      </trkpt>
      <trkpt lat="49.0558" lon="-1.17682">
        <ele>111.863774</ele>
        <time>2021-09-05T14:23:03.000Z</time>
      </trkpt>
      <trkpt lat="49.05567" lon="-1.17681">
        <ele>112.049069</ele>
        <time>2021-09-05T14:23:07.000Z</time>
      </trkpt>
      <trkpt lat="49.05528" lon="-1.17678">
        <ele>112.602111</ele>
        <time>2021-09-05T14:23:15.000Z</time>
      </trkpt>
      <trkpt lat="49.05485" lon="-1.17675">
        <ele>113.222162</ele>
        <time>2021-09-05T14:23:25.000Z</time>
      </trkpt>
      <trkpt lat="49.05452" lon="-1.17672">
        <ele>113.696774</ele>
        <time>2021-09-05T14:23:32.000Z</time>
      </trkpt>
      <trkpt lat="49.05411" lon="-1.17669">
        <ele>114.144498</ele>
        <time>2021-09-05T14:23:40.000Z</time>
      </trkpt>
      <trkpt lat="49.05376" lon="-1.17665">
        <ele>114.464961</ele>
        <time>2021-09-05T14:23:47.000Z</time>
      </trkpt>
      <trkpt lat="49.05366" lon="-1.17662">
        <ele>114.556679</ele>
        <time>2021-09-05T14:23:49.000Z</time>
      </trkpt>
      <trkpt lat="49.05324" lon="-1.1765">
        <ele>114.947979</ele>
        <time>2021-09-05T14:23:57.000Z</time>
      </trkpt>
      <trkpt lat="49.05274" lon="-1.17635">
        <ele>115.412754</ele>
        <time>2021-09-05T14:24:06.000Z</time>
      </trkpt>
      <trkpt lat="49.05225" lon="-1.17621">
        <ele>115.744967</ele>
        <time>2021-09-05T14:24:15.000Z</time>
      </trkpt>
      <trkpt lat="49.05185" lon="-1.17611">
        <ele>115.964486</ele>
        <time>2021-09-05T14:24:22.000Z</time>
      </trkpt>
      <trkpt lat="49.05129" lon="-1.17595">
        <ele>116.282525</ele>
        <time>2021-09-05T14:24:32.000Z</time>
      </trkpt>
      <trkpt lat="49.0509" lon="-1.17584">
        <ele>116.497959</ele>
        <time>2021-09-05T14:24:39.000Z</time>
      </trkpt>
      <trkpt lat="49.05051" lon="-1.17573">
        <ele>116.490991</ele>
        <time>2021-09-05T14:24:46.000Z</time>
      </trkpt>
      <trkpt lat="49.05022" lon="-1.17564">
        <ele>116.443918</ele>
        <time>2021-09-05T14:24:51.000Z</time>
      </trkpt>
      <trkpt lat="49.05011" lon="-1.1756">
        <ele>116.425541</ele>
        <time>2021-09-05T14:24:53.000Z</time>
      </trkpt>
      <trkpt lat="49.05001" lon="-1.17554">
        <ele>116.407598</ele>
        <time>2021-09-05T14:24:55.000Z</time>
      </trkpt>
      <trkpt lat="49.04991" lon="-1.17545">
        <ele>116.389804</ele>
        <time>2021-09-05T14:24:57.000Z</time>
      </trkpt>
      <trkpt lat="49.0497" lon="-1.17509">
        <ele>116.339417</ele>
        <time>2021-09-05T14:25:02.000Z</time>
      </trkpt>
      <trkpt lat="49.04934" lon="-1.17443">
        <ele>116.205517</ele>
        <time>2021-09-05T14:25:10.000Z</time>
      </trkpt>
      <trkpt lat="49.04906" lon="-1.1739">
        <ele>115.603828</ele>
        <time>2021-09-05T14:25:16.000Z</time>
      </trkpt>
      <trkpt lat="49.04879" lon="-1.17339">
        <ele>115.012224</ele>
        <time>2021-09-05T14:25:22.000Z</time>
      </trkpt>
      <trkpt lat="49.04848" lon="-1.17282">
        <ele>114.34903</ele>
        <time>2021-09-05T14:25:29.000Z</time>
      </trkpt>
      <trkpt lat="49.04833" lon="-1.17246">
        <ele>113.961429</ele>
        <time>2021-09-05T14:25:33.000Z</time>
      </trkpt>
      <trkpt lat="49.0483" lon="-1.17235">
        <ele>113.858735</ele>
        <time>2021-09-05T14:25:34.000Z</time>
      </trkpt>
      <trkpt lat="49.04817" lon="-1.1715">
        <ele>112.617604</ele>
        <time>2021-09-05T14:25:41.000Z</time>
      </trkpt>
      <trkpt lat="49.04804" lon="-1.1707">
        <ele>111.399227</ele>
        <time>2021-09-05T14:25:47.000Z</time>
      </trkpt>
      <trkpt lat="49.04802" lon="-1.17057">
        <ele>111.192218</ele>
        <time>2021-09-05T14:25:48.000Z</time>
      </trkpt>
      <trkpt lat="49.04791" lon="-1.16988">
        <ele>110.153402</ele>
        <time>2021-09-05T14:25:53.000Z</time>
      </trkpt>
      <trkpt lat="49.04778" lon="-1.16907">
        <ele>108.722996</ele>
        <time>2021-09-05T14:25:59.000Z</time>
      </trkpt>
      <trkpt lat="49.04776" lon="-1.16893">
        <ele>108.473142</ele>
        <time>2021-09-05T14:26:00.000Z</time>
      </trkpt>
      <trkpt lat="49.04761" lon="-1.16803">
        <ele>106.795751</ele>
        <time>2021-09-05T14:26:07.000Z</time>
      </trkpt>
      <trkpt lat="49.04757" lon="-1.16778">
        <ele>106.332702</ele>
        <time>2021-09-05T14:26:09.000Z</time>
      </trkpt>
      <trkpt lat="49.04744" lon="-1.16691">
        <ele>104.698538</ele>
        <time>2021-09-05T14:26:16.000Z</time>
      </trkpt>
      <trkpt lat="49.04742" lon="-1.16678">
        <ele>104.453019</ele>
        <time>2021-09-05T14:26:17.000Z</time>
      </trkpt>
      <trkpt lat="49.04736" lon="-1.1661">
        <ele>103.122017</ele>
        <time>2021-09-05T14:26:22.000Z</time>
      </trkpt>
      <trkpt lat="49.04724" lon="-1.16538">
        <ele>101.685604</ele>
        <time>2021-09-05T14:26:27.000Z</time>
      </trkpt>
      <trkpt lat="49.04712" lon="-1.16514">
        <ele>101.096283</ele>
        <time>2021-09-05T14:26:29.000Z</time>
      </trkpt>
      <trkpt lat="49.04704" lon="-1.16506">
        <ele>100.808212</ele>
        <time>2021-09-05T14:26:30.000Z</time>
      </trkpt>
      <trkpt lat="49.04674" lon="-1.16479">
        <ele>99.774182</ele>
        <time>2021-09-05T14:26:34.000Z</time>
      </trkpt>
      <trkpt lat="49.04652" lon="-1.1646">
        <ele>99.576796</ele>
        <time>2021-09-05T14:26:38.000Z</time>
      </trkpt>
      <trkpt lat="49.04636" lon="-1.16446">
        <ele>99.725018</ele>
        <time>2021-09-05T14:26:42.000Z</time>
      </trkpt>
      <trkpt lat="49.04621" lon="-1.16433">
        <ele>99.871522</ele>
        <time>2021-09-05T14:26:48.000Z</time>
      </trkpt>
      <trkpt lat="49.046" lon="-1.16416">
        <ele>100.062216</ele>
        <time>2021-09-05T14:26:57.000Z</time>
      </trkpt>
      <trkpt lat="49.04585" lon="-1.16403">
        <ele>100.209184</ele>
        <time>2021-09-05T14:27:05.000Z</time>
      </trkpt>
      <trkpt lat="49.04573" lon="-1.16393">
        <ele>100.324581</ele>
        <time>2021-09-05T14:27:12.000Z</time>
      </trkpt>
      <trkpt lat="49.0456" lon="-1.16381">
        <ele>100.446301</ele>
        <time>2021-09-05T14:27:19.000Z</time>
      </trkpt>
      <trkpt lat="49.04545" lon="-1.16366">
        <ele>100.599108</ele>
        <time>2021-09-05T14:27:27.000Z</time>
      </trkpt>
      <trkpt lat="49.04531" lon="-1.16353">
        <ele>100.731466</ele>
        <time>2021-09-05T14:27:34.000Z</time>
      </trkpt>
      <trkpt lat="49.04519" lon="-1.16341">
        <ele>100.855757</ele>
        <time>2021-09-05T14:27:41.000Z</time>
      </trkpt>
      <trkpt lat="49.04506" lon="-1.16328">
        <ele>101.041547</ele>
        <time>2021-09-05T14:27:48.000Z</time>
      </trkpt>
      <trkpt lat="49.04493" lon="-1.16316">
        <ele>101.356371</ele>
        <time>2021-09-05T14:27:55.000Z</time>
      </trkpt>
      <trkpt lat="49.04484" lon="-1.16307">
        <ele>101.581125</ele>
        <time>2021-09-05T14:28:00.000Z</time>
      </trkpt>
      <trkpt lat="49.0447" lon="-1.16294">
        <ele>101.918469</ele>
        <time>2021-09-05T14:28:07.000Z</time>
      </trkpt>
      <trkpt lat="49.04464" lon="-1.16288">
        <ele>102.067124</ele>
        <time>2021-09-05T14:28:10.000Z</time>
      </trkpt>
      <trkpt lat="49.04462" lon="-1.16286">
        <ele>102.118935</ele>
        <time>2021-09-05T14:28:11.000Z</time>
      </trkpt>
      <trkpt lat="49.04449" lon="-1.16273">
        <ele>102.443769</ele>
        <time>2021-09-05T14:28:17.000Z</time>
      </trkpt>
      <trkpt lat="49.0443" lon="-1.16255">
        <ele>102.927267</ele>
        <time>2021-09-05T14:28:25.000Z</time>
      </trkpt>
      <trkpt lat="49.04411" lon="-1.16237">
        <ele>103.385745</ele>
        <time>2021-09-05T14:28:32.000Z</time>
      </trkpt>
      <trkpt lat="49.04389" lon="-1.16215">
        <ele>103.937834</ele>
        <time>2021-09-05T14:28:40.000Z</time>
      </trkpt>
      <trkpt lat="49.04367" lon="-1.16188">
        <ele>104.531338</ele>
        <time>2021-09-05T14:28:48.000Z</time>
      </trkpt>
      <trkpt lat="49.04346" lon="-1.16154">
        <ele>104.6387</ele>
        <time>2021-09-05T14:28:55.000Z</time>
      </trkpt>
      <trkpt lat="49.0432" lon="-1.16113">
        <ele>104.517806</ele>
        <time>2021-09-05T14:29:02.000Z</time>
      </trkpt>
      <trkpt lat="49.04288" lon="-1.16064">
        <ele>104.369759</ele>
        <time>2021-09-05T14:29:09.000Z</time>
      </trkpt>
      <trkpt lat="49.04258" lon="-1.16017">
        <ele>104.227373</ele>
        <time>2021-09-05T14:29:15.000Z</time>
      </trkpt>
      <trkpt lat="49.04238" lon="-1.15985">
        <ele>104.132805</ele>
        <time>2021-09-05T14:29:19.000Z</time>
      </trkpt>
      <trkpt lat="49.04211" lon="-1.15945">
        <ele>103.425494</ele>
        <time>2021-09-05T14:29:24.000Z</time>
      </trkpt>
      <trkpt lat="49.04193" lon="-1.15918">
        <ele>102.9252</ele>
        <time>2021-09-05T14:29:27.000Z</time>
      </trkpt>
      <trkpt lat="49.04164" lon="-1.1588">
        <ele>102.157394</ele>
        <time>2021-09-05T14:29:31.000Z</time>
      </trkpt>
      <trkpt lat="49.04155" lon="-1.15872">
        <ele>101.948716</ele>
        <time>2021-09-05T14:29:32.000Z</time>
      </trkpt>
      <trkpt lat="49.04111" lon="-1.15831">
        <ele>100.894711</ele>
        <time>2021-09-05T14:29:37.000Z</time>
      </trkpt>
      <trkpt lat="49.04078" lon="-1.15811">
        <ele>100.597817</ele>
        <time>2021-09-05T14:29:41.000Z</time>
      </trkpt>
      <trkpt lat="49.04065" lon="-1.15814">
        <ele>100.676789</ele>
        <time>2021-09-05T14:29:43.000Z</time>
      </trkpt>
      <trkpt lat="49.04055" lon="-1.15816">
        <ele>100.743135</ele>
        <time>2021-09-05T14:29:45.000Z</time>
      </trkpt>
      <trkpt lat="49.04046" lon="-1.15818">
        <ele>100.80063</ele>
        <time>2021-09-05T14:29:47.000Z</time>
      </trkpt>
      <trkpt lat="49.04039" lon="-1.1582">
        <ele>100.844879</ele>
        <time>2021-09-05T14:29:49.000Z</time>
      </trkpt>
      <trkpt lat="49.04023" lon="-1.15823">
        <ele>100.942792</ele>
        <time>2021-09-05T14:29:55.000Z</time>
      </trkpt>
      <trkpt lat="49.04013" lon="-1.15825">
        <ele>101.005981</ele>
        <time>2021-09-05T14:30:00.000Z</time>
      </trkpt>
      <trkpt lat="49.04002" lon="-1.15824">
        <ele>101.073648</ele>
        <time>2021-09-05T14:30:06.000Z</time>
      </trkpt>
      <trkpt lat="49.03993" lon="-1.15818">
        <ele>101.140542</ele>
        <time>2021-09-05T14:30:11.000Z</time>
      </trkpt>
      <trkpt lat="49.03984" lon="-1.158">
        <ele>101.22848</ele>
        <time>2021-09-05T14:30:17.000Z</time>
      </trkpt>
      <trkpt lat="49.03976" lon="-1.15769">
        <ele>101.369991</ele>
        <time>2021-09-05T14:30:25.000Z</time>
      </trkpt>
      <trkpt lat="49.03967" lon="-1.15739">
        <ele>101.501348</ele>
        <time>2021-09-05T14:30:33.000Z</time>
      </trkpt>
      <trkpt lat="49.03958" lon="-1.15705">
        <ele>101.701117</ele>
        <time>2021-09-05T14:30:42.000Z</time>
      </trkpt>
      <trkpt lat="49.03951" lon="-1.15677">
        <ele>102.024519</ele>
        <time>2021-09-05T14:30:49.000Z</time>
      </trkpt>
      <trkpt lat="49.03946" lon="-1.1566">
        <ele>102.2149</ele>
        <time>2021-09-05T14:30:53.000Z</time>
      </trkpt>
      <trkpt lat="49.03936" lon="-1.15622">
        <ele>102.66548</ele>
        <time>2021-09-05T14:31:02.000Z</time>
      </trkpt>
      <trkpt lat="49.03927" lon="-1.15587">
        <ele>103.063313</ele>
        <time>2021-09-05T14:31:10.000Z</time>
      </trkpt>
      <trkpt lat="49.03918" lon="-1.15558">
        <ele>103.406696</ele>
        <time>2021-09-05T14:31:17.000Z</time>
      </trkpt>
      <trkpt lat="49.03904" lon="-1.15514">
        <ele>103.931926</ele>
        <time>2021-09-05T14:31:27.000Z</time>
      </trkpt>
      <trkpt lat="49.03891" lon="-1.15484">
        <ele>104.326808</ele>
        <time>2021-09-05T14:31:34.000Z</time>
      </trkpt>
      <trkpt lat="49.03872" lon="-1.15457">
        <ele>104.566369</ele>
        <time>2021-09-05T14:31:40.000Z</time>
      </trkpt>
      <trkpt lat="49.03851" lon="-1.15428">
        <ele>104.51796</ele>
        <time>2021-09-05T14:31:46.000Z</time>
      </trkpt>
      <trkpt lat="49.03836" lon="-1.15407">
        <ele>104.483165</ele>
        <time>2021-09-05T14:31:50.000Z</time>
      </trkpt>
      <trkpt lat="49.0381" lon="-1.15366">
        <ele>104.418985</ele>
        <time>2021-09-05T14:31:57.000Z</time>
      </trkpt>
      <trkpt lat="49.03789" lon="-1.15315">
        <ele>104.351537</ele>
        <time>2021-09-05T14:32:04.000Z</time>
      </trkpt>
      <trkpt lat="49.03786" lon="-1.15308">
        <ele>104.342226</ele>
        <time>2021-09-05T14:32:05.000Z</time>
      </trkpt>
      <trkpt lat="49.03771" lon="-1.15271">
        <ele>104.292273</ele>
        <time>2021-09-05T14:32:10.000Z</time>
      </trkpt>
      <trkpt lat="49.03761" lon="-1.15247">
        <ele>104.190584</ele>
        <time>2021-09-05T14:32:13.000Z</time>
      </trkpt>
      <trkpt lat="49.03756" lon="-1.15233">
        <ele>104.076083</ele>
        <time>2021-09-05T14:32:15.000Z</time>
      </trkpt>
      <trkpt lat="49.03741" lon="-1.15197">
        <ele>103.792065</ele>
        <time>2021-09-05T14:32:20.000Z</time>
      </trkpt>
      <trkpt lat="49.03738" lon="-1.15191">
        <ele>103.742118</ele>
        <time>2021-09-05T14:32:21.000Z</time>
      </trkpt>
      <trkpt lat="49.03736" lon="-1.15184">
        <ele>103.688779</ele>
        <time>2021-09-05T14:32:22.000Z</time>
      </trkpt>
      <trkpt lat="49.03727" lon="-1.15162">
        <ele>103.518691</ele>
        <time>2021-09-05T14:32:25.000Z</time>
      </trkpt>
      <trkpt lat="49.03711" lon="-1.15119">
        <ele>103.186655</ele>
        <time>2021-09-05T14:32:30.000Z</time>
      </trkpt>
      <trkpt lat="49.03691" lon="-1.15059">
        <ele>102.73734</ele>
        <time>2021-09-05T14:32:36.000Z</time>
      </trkpt>
      <trkpt lat="49.03671" lon="-1.15004">
        <ele>102.28507</ele>
        <time>2021-09-05T14:32:41.000Z</time>
      </trkpt>
      <trkpt lat="49.03641" lon="-1.14958">
        <ele>101.734086</ele>
        <time>2021-09-05T14:32:46.000Z</time>
      </trkpt>
      <trkpt lat="49.03613" lon="-1.14916">
        <ele>101.240154</ele>
        <time>2021-09-05T14:32:51.000Z</time>
      </trkpt>
      <trkpt lat="49.036" lon="-1.14897">
        <ele>101.006487</ele>
        <time>2021-09-05T14:32:54.000Z</time>
      </trkpt>
      <trkpt lat="49.03593" lon="-1.14886">
        <ele>100.879802</ele>
        <time>2021-09-05T14:32:56.000Z</time>
      </trkpt>
      <trkpt lat="49.03579" lon="-1.14865">
        <ele>100.624619</ele>
        <time>2021-09-05T14:33:01.000Z</time>
      </trkpt>
      <trkpt lat="49.03566" lon="-1.14845">
        <ele>100.389453</ele>
        <time>2021-09-05T14:33:07.000Z</time>
      </trkpt>
      <trkpt lat="49.03545" lon="-1.14813">
        <ele>100.353767</ele>
        <time>2021-09-05T14:33:17.000Z</time>
      </trkpt>
      <trkpt lat="49.03531" lon="-1.14791">
        <ele>100.771472</ele>
        <time>2021-09-05T14:33:24.000Z</time>
      </trkpt>
      <trkpt lat="49.03515" lon="-1.14768">
        <ele>101.238198</ele>
        <time>2021-09-05T14:33:32.000Z</time>
      </trkpt>
      <trkpt lat="49.03498" lon="-1.14735">
        <ele>101.825592</ele>
        <time>2021-09-05T14:33:42.000Z</time>
      </trkpt>
      <trkpt lat="49.03482" lon="-1.14705">
        <ele>102.355818</ele>
        <time>2021-09-05T14:33:51.000Z</time>
      </trkpt>
      <trkpt lat="49.0347" lon="-1.14682">
        <ele>102.760143</ele>
        <time>2021-09-05T14:33:58.000Z</time>
      </trkpt>
      <trkpt lat="49.03457" lon="-1.14655">
        <ele>103.235603</ele>
        <time>2021-09-05T14:34:06.000Z</time>
      </trkpt>
      <trkpt lat="49.03446" lon="-1.1463">
        <ele>103.652381</ele>
        <time>2021-09-05T14:34:13.000Z</time>
      </trkpt>
      <trkpt lat="49.03442" lon="-1.14593">
        <ele>104.330768</ele>
        <time>2021-09-05T14:34:21.000Z</time>
      </trkpt>
      <trkpt lat="49.03438" lon="-1.14551">
        <ele>105.305939</ele>
        <time>2021-09-05T14:34:29.000Z</time>
      </trkpt>
      <trkpt lat="49.03434" lon="-1.14511">
        <ele>106.259465</ele>
        <time>2021-09-05T14:34:37.000Z</time>
      </trkpt>
      <trkpt lat="49.03431" lon="-1.14479">
        <ele>107.018732</ele>
        <time>2021-09-05T14:34:44.000Z</time>
      </trkpt>
      <trkpt lat="49.03428" lon="-1.14452">
        <ele>107.645502</ele>
        <time>2021-09-05T14:34:50.000Z</time>
      </trkpt>
      <trkpt lat="49.03425" lon="-1.14427">
        <ele>108.237719</ele>
        <time>2021-09-05T14:34:56.000Z</time>
      </trkpt>
      <trkpt lat="49.03422" lon="-1.14399">
        <ele>108.912486</ele>
        <time>2021-09-05T14:35:03.000Z</time>
      </trkpt>
      <trkpt lat="49.03416" lon="-1.14369">
        <ele>109.628378</ele>
        <time>2021-09-05T14:35:10.000Z</time>
      </trkpt>
      <trkpt lat="49.03407" lon="-1.14338">
        <ele>110.454891</ele>
        <time>2021-09-05T14:35:17.000Z</time>
      </trkpt>
      <trkpt lat="49.03398" lon="-1.14306">
        <ele>111.59852</ele>
        <time>2021-09-05T14:35:24.000Z</time>
      </trkpt>
      <trkpt lat="49.03387" lon="-1.14272">
        <ele>112.836561</ele>
        <time>2021-09-05T14:35:32.000Z</time>
      </trkpt>
      <trkpt lat="49.03374" lon="-1.14235">
        <ele>114.20071</ele>
        <time>2021-09-05T14:35:41.000Z</time>
      </trkpt>
      <trkpt lat="49.03362" lon="-1.14196">
        <ele>115.633755</ele>
        <time>2021-09-05T14:35:51.000Z</time>
      </trkpt>
      <trkpt lat="49.03352" lon="-1.14166">
        <ele>116.71202</ele>
        <time>2021-09-05T14:35:59.000Z</time>
      </trkpt>
      <trkpt lat="49.03345" lon="-1.14144">
        <ele>117.512473</ele>
        <time>2021-09-05T14:36:05.000Z</time>
      </trkpt>
      <trkpt lat="49.03335" lon="-1.14115">
        <ele>118.585591</ele>
        <time>2021-09-05T14:36:13.000Z</time>
      </trkpt>
      <trkpt lat="49.03326" lon="-1.14087">
        <ele>119.59894</ele>
        <time>2021-09-05T14:36:21.000Z</time>
      </trkpt>
      <trkpt lat="49.03315" lon="-1.14055">
        <ele>120.682797</ele>
        <time>2021-09-05T14:36:30.000Z</time>
      </trkpt>
      <trkpt lat="49.03309" lon="-1.14034">
        <ele>121.397074</ele>
        <time>2021-09-05T14:36:36.000Z</time>
      </trkpt>
      <trkpt lat="49.03301" lon="-1.14011">
        <ele>122.207184</ele>
        <time>2021-09-05T14:36:43.000Z</time>
      </trkpt>
      <trkpt lat="49.03294" lon="-1.13984">
        <ele>123.097256</ele>
        <time>2021-09-05T14:36:51.000Z</time>
      </trkpt>
      <trkpt lat="49.0329" lon="-1.13956">
        <ele>123.966949</ele>
        <time>2021-09-05T14:36:59.000Z</time>
      </trkpt>
      <trkpt lat="49.03289" lon="-1.13936">
        <ele>124.580678</ele>
        <time>2021-09-05T14:37:05.000Z</time>
      </trkpt>
      <trkpt lat="49.03288" lon="-1.13912">
        <ele>125.313307</ele>
        <time>2021-09-05T14:37:12.000Z</time>
      </trkpt>
      <trkpt lat="49.03287" lon="-1.13887">
        <ele>126.098364</ele>
        <time>2021-09-05T14:37:20.000Z</time>
      </trkpt>
      <trkpt lat="49.03286" lon="-1.1386">
        <ele>126.942614</ele>
        <time>2021-09-05T14:37:28.000Z</time>
      </trkpt>
      <trkpt lat="49.03283" lon="-1.13835">
        <ele>127.698531</ele>
        <time>2021-09-05T14:37:35.000Z</time>
      </trkpt>
      <trkpt lat="49.03278" lon="-1.13812">
        <ele>128.325415</ele>
        <time>2021-09-05T14:37:42.000Z</time>
      </trkpt>
      <trkpt lat="49.03268" lon="-1.13783">
        <ele>129.144762</ele>
        <time>2021-09-05T14:37:50.000Z</time>
      </trkpt>
      <trkpt lat="49.03254" lon="-1.13753">
        <ele>130.061332</ele>
        <time>2021-09-05T14:37:57.000Z</time>
      </trkpt>
      <trkpt lat="49.03243" lon="-1.13729">
        <ele>130.809846</ele>
        <time>2021-09-05T14:38:03.000Z</time>
      </trkpt>
      <trkpt lat="49.03229" lon="-1.13699">
        <ele>131.724354</ele>
        <time>2021-09-05T14:38:11.000Z</time>
      </trkpt>
      <trkpt lat="49.03218" lon="-1.13675">
        <ele>132.460239</ele>
        <time>2021-09-05T14:38:18.000Z</time>
      </trkpt>
      <trkpt lat="49.03209" lon="-1.13654">
        <ele>133.111969</ele>
        <time>2021-09-05T14:38:24.000Z</time>
      </trkpt>
      <trkpt lat="49.03195" lon="-1.13625">
        <ele>134.007665</ele>
        <time>2021-09-05T14:38:32.000Z</time>
      </trkpt>
      <trkpt lat="49.03181" lon="-1.13607">
        <ele>134.713816</ele>
        <time>2021-09-05T14:38:39.000Z</time>
      </trkpt>
      <trkpt lat="49.03175" lon="-1.13602">
        <ele>134.933741</ele>
        <time>2021-09-05T14:38:40.000Z</time>
      </trkpt>
      <trkpt lat="49.03169" lon="-1.13607">
        <ele>135.154899</ele>
        <time>2021-09-05T14:38:43.000Z</time>
      </trkpt>
      <trkpt lat="49.03152" lon="-1.13622">
        <ele>135.800454</ele>
        <time>2021-09-05T14:38:50.000Z</time>
      </trkpt>
      <trkpt lat="49.03138" lon="-1.13648">
        <ele>136.527918</ele>
        <time>2021-09-05T14:38:57.000Z</time>
      </trkpt>
      <trkpt lat="49.03125" lon="-1.13673">
        <ele>137.225214</ele>
        <time>2021-09-05T14:39:04.000Z</time>
      </trkpt>
      <trkpt lat="49.03119" lon="-1.13683">
        <ele>137.509981</ele>
        <time>2021-09-05T14:39:07.000Z</time>
      </trkpt>
      <trkpt lat="49.03113" lon="-1.13683">
        <ele>137.731575</ele>
        <time>2021-09-05T14:39:08.000Z</time>
      </trkpt>
      <trkpt lat="49.03111" lon="-1.1368">
        <ele>137.814228</ele>
        <time>2021-09-05T14:39:09.000Z</time>
      </trkpt>
      <trkpt lat="49.03105" lon="-1.1367">
        <ele>138.117737</ele>
        <time>2021-09-05T14:39:12.000Z</time>
      </trkpt>
      <trkpt lat="49.03085" lon="-1.1365">
        <ele>138.886107</ele>
        <time>2021-09-05T14:39:19.000Z</time>
      </trkpt>
      <trkpt lat="49.03062" lon="-1.13635">
        <ele>139.738466</ele>
        <time>2021-09-05T14:39:27.000Z</time>
      </trkpt>
      <trkpt lat="49.03035" lon="-1.13624">
        <ele>140.608596</ele>
        <time>2021-09-05T14:39:35.000Z</time>
      </trkpt>
      <trkpt lat="49.03004" lon="-1.13605">
        <ele>141.173084</ele>
        <time>2021-09-05T14:39:44.000Z</time>
      </trkpt>
      <trkpt lat="49.02979" lon="-1.13588">
        <ele>141.631235</ele>
        <time>2021-09-05T14:39:50.000Z</time>
      </trkpt>
      <trkpt lat="49.02946" lon="-1.13565">
        <ele>142.231022</ele>
        <time>2021-09-05T14:39:57.000Z</time>
      </trkpt>
      <trkpt lat="49.02937" lon="-1.13557">
        <ele>142.409314</ele>
        <time>2021-09-05T14:39:59.000Z</time>
      </trkpt>
      <trkpt lat="49.02932" lon="-1.13552">
        <ele>142.505393</ele>
        <time>2021-09-05T14:40:00.000Z</time>
      </trkpt>
      <trkpt lat="49.02908" lon="-1.13529">
        <ele>142.975646</ele>
        <time>2021-09-05T14:40:06.000Z</time>
      </trkpt>
      <trkpt lat="49.02871" lon="-1.13491">
        <ele>143.771844</ele>
        <time>2021-09-05T14:40:15.000Z</time>
      </trkpt>
      <trkpt lat="49.02841" lon="-1.13461">
        <ele>144.529887</ele>
        <time>2021-09-05T14:40:22.000Z</time>
      </trkpt>
      <trkpt lat="49.02821" lon="-1.13441">
        <ele>145.039186</ele>
        <time>2021-09-05T14:40:27.000Z</time>
      </trkpt>
      <trkpt lat="49.0281" lon="-1.1343">
        <ele>145.339994</ele>
        <time>2021-09-05T14:40:30.000Z</time>
      </trkpt>
      <trkpt lat="49.02802" lon="-1.13422">
        <ele>145.530535</ele>
        <time>2021-09-05T14:40:32.000Z</time>
      </trkpt>
      <trkpt lat="49.02772" lon="-1.13399">
        <ele>146.251238</ele>
        <time>2021-09-05T14:40:40.000Z</time>
      </trkpt>
      <trkpt lat="49.02744" lon="-1.13383">
        <ele>146.888988</ele>
        <time>2021-09-05T14:40:48.000Z</time>
      </trkpt>
      <trkpt lat="49.02721" lon="-1.13375">
        <ele>147.397171</ele>
        <time>2021-09-05T14:40:55.000Z</time>
      </trkpt>
      <trkpt lat="49.02709" lon="-1.13373">
        <ele>147.725382</ele>
        <time>2021-09-05T14:40:59.000Z</time>
      </trkpt>
      <trkpt lat="49.02684" lon="-1.13372">
        <ele>148.37385</ele>
        <time>2021-09-05T14:41:06.000Z</time>
      </trkpt>
      <trkpt lat="49.02651" lon="-1.13371">
        <ele>149.212387</ele>
        <time>2021-09-05T14:41:14.000Z</time>
      </trkpt>
      <trkpt lat="49.02628" lon="-1.13362">
        <ele>149.839056</ele>
        <time>2021-09-05T14:41:20.000Z</time>
      </trkpt>
      <trkpt lat="49.02623" lon="-1.13351">
        <ele>150.072521</ele>
        <time>2021-09-05T14:41:22.000Z</time>
      </trkpt>
      <trkpt lat="49.02619" lon="-1.13338">
        <ele>150.307319</ele>
        <time>2021-09-05T14:41:24.000Z</time>
      </trkpt>
      <trkpt lat="49.0262" lon="-1.13312">
        <ele>150.761936</ele>
        <time>2021-09-05T14:41:28.000Z</time>
      </trkpt>
      <trkpt lat="49.0262" lon="-1.13306">
        <ele>150.867019</ele>
        <time>2021-09-05T14:41:29.000Z</time>
      </trkpt>
      <trkpt lat="49.02625" lon="-1.1327">
        <ele>151.494746</ele>
        <time>2021-09-05T14:41:36.000Z</time>
      </trkpt>
      <trkpt lat="49.02631" lon="-1.13231">
        <ele>152.152608</ele>
        <time>2021-09-05T14:41:45.000Z</time>
      </trkpt>
      <trkpt lat="49.02635" lon="-1.13198">
        <ele>152.473234</ele>
        <time>2021-09-05T14:41:53.000Z</time>
      </trkpt>
      <trkpt lat="49.02636" lon="-1.13176">
        <ele>152.680919</ele>
        <time>2021-09-05T14:41:58.000Z</time>
      </trkpt>
      <trkpt lat="49.02638" lon="-1.13143">
        <ele>152.999069</ele>
        <time>2021-09-05T14:42:05.000Z</time>
      </trkpt>
      <trkpt lat="49.0264" lon="-1.13105">
        <ele>153.359207</ele>
        <time>2021-09-05T14:42:12.000Z</time>
      </trkpt>
      <trkpt lat="49.02642" lon="-1.13076">
        <ele>153.628868</ele>
        <time>2021-09-05T14:42:17.000Z</time>
      </trkpt>
      <trkpt lat="49.02644" lon="-1.13033">
        <ele>154.0414</ele>
        <time>2021-09-05T14:42:24.000Z</time>
      </trkpt>
      <trkpt lat="49.02647" lon="-1.12978">
        <ele>154.563218</ele>
        <time>2021-09-05T14:42:32.000Z</time>
      </trkpt>
      <trkpt lat="49.02649" lon="-1.12929">
        <ele>154.707445</ele>
        <time>2021-09-05T14:42:38.000Z</time>
      </trkpt>
      <trkpt lat="49.02651" lon="-1.12862">
        <ele>154.664094</ele>
        <time>2021-09-05T14:42:46.000Z</time>
      </trkpt>
      <trkpt lat="49.0265" lon="-1.12813">
        <ele>154.632326</ele>
        <time>2021-09-05T14:42:53.000Z</time>
      </trkpt>
      <trkpt lat="49.02649" lon="-1.12772">
        <ele>154.605601</ele>
        <time>2021-09-05T14:42:59.000Z</time>
      </trkpt>
      <trkpt lat="49.02649" lon="-1.12765">
        <ele>154.601049</ele>
        <time>2021-09-05T14:43:00.000Z</time>
      </trkpt>
      <trkpt lat="49.02648" lon="-1.12744">
        <ele>154.587195</ele>
        <time>2021-09-05T14:43:03.000Z</time>
      </trkpt>
      <trkpt lat="49.02647" lon="-1.12715">
        <ele>154.568145</ele>
        <time>2021-09-05T14:43:07.000Z</time>
      </trkpt>
      <trkpt lat="49.02646" lon="-1.12691">
        <ele>154.553027</ele>
        <time>2021-09-05T14:43:10.000Z</time>
      </trkpt>
      <trkpt lat="49.02641" lon="-1.12672">
        <ele>154.38169</ele>
        <time>2021-09-05T14:43:13.000Z</time>
      </trkpt>
      <trkpt lat="49.02631" lon="-1.12636">
        <ele>154.003366</ele>
        <time>2021-09-05T14:43:18.000Z</time>
      </trkpt>
      <trkpt lat="49.02619" lon="-1.12594">
        <ele>153.553144</ele>
        <time>2021-09-05T14:43:23.000Z</time>
      </trkpt>
      <trkpt lat="49.026" lon="-1.1253">
        <ele>152.87139</ele>
        <time>2021-09-05T14:43:29.000Z</time>
      </trkpt>
      <trkpt lat="49.02579" lon="-1.12458">
        <ele>152.101288</ele>
        <time>2021-09-05T14:43:35.000Z</time>
      </trkpt>
      <trkpt lat="49.02551" lon="-1.12386">
        <ele>151.100332</ele>
        <time>2021-09-05T14:43:41.000Z</time>
      </trkpt>
      <trkpt lat="49.02546" lon="-1.12374">
        <ele>150.909771</ele>
        <time>2021-09-05T14:43:42.000Z</time>
      </trkpt>
      <trkpt lat="49.02512" lon="-1.12307">
        <ele>149.809726</ele>
        <time>2021-09-05T14:43:48.000Z</time>
      </trkpt>
      <trkpt lat="49.02506" lon="-1.12296">
        <ele>149.629266</ele>
        <time>2021-09-05T14:43:49.000Z</time>
      </trkpt>
      <trkpt lat="49.02467" lon="-1.12222">
        <ele>148.398139</ele>
        <time>2021-09-05T14:43:56.000Z</time>
      </trkpt>
      <trkpt lat="49.02433" lon="-1.12169">
        <ele>147.210522</ele>
        <time>2021-09-05T14:44:02.000Z</time>
      </trkpt>
      <trkpt lat="49.02401" lon="-1.12119">
        <ele>146.060559</ele>
        <time>2021-09-05T14:44:08.000Z</time>
      </trkpt>
      <trkpt lat="49.02364" lon="-1.12057">
        <ele>144.685913</ele>
        <time>2021-09-05T14:44:15.000Z</time>
      </trkpt>
      <trkpt lat="49.02359" lon="-1.12048">
        <ele>144.490513</ele>
        <time>2021-09-05T14:44:16.000Z</time>
      </trkpt>
      <trkpt lat="49.02319" lon="-1.11978">
        <ele>142.923313</ele>
        <time>2021-09-05T14:44:24.000Z</time>
      </trkpt>
      <trkpt lat="49.02279" lon="-1.11909">
        <ele>141.337196</ele>
        <time>2021-09-05T14:44:32.000Z</time>
      </trkpt>
      <trkpt lat="49.02274" lon="-1.11899">
        <ele>141.137431</ele>
        <time>2021-09-05T14:44:33.000Z</time>
      </trkpt>
      <trkpt lat="49.02255" lon="-1.11848">
        <ele>140.125223</ele>
        <time>2021-09-05T14:44:38.000Z</time>
      </trkpt>
      <trkpt lat="49.02227" lon="-1.11793">
        <ele>138.954733</ele>
        <time>2021-09-05T14:44:44.000Z</time>
      </trkpt>
      <trkpt lat="49.02197" lon="-1.11744">
        <ele>137.952647</ele>
        <time>2021-09-05T14:44:50.000Z</time>
      </trkpt>
      <trkpt lat="49.02165" lon="-1.1169">
        <ele>136.848956</ele>
        <time>2021-09-05T14:44:57.000Z</time>
      </trkpt>
      <trkpt lat="49.02151" lon="-1.11667">
        <ele>136.376412</ele>
        <time>2021-09-05T14:45:00.000Z</time>
      </trkpt>
      <trkpt lat="49.02145" lon="-1.11662">
        <ele>136.212476</ele>
        <time>2021-09-05T14:45:01.000Z</time>
      </trkpt>
      <trkpt lat="49.02119" lon="-1.11636">
        <ele>135.516921</ele>
        <time>2021-09-05T14:45:05.000Z</time>
      </trkpt>
      <trkpt lat="49.02113" lon="-1.1163">
        <ele>135.338433</ele>
        <time>2021-09-05T14:45:06.000Z</time>
      </trkpt>
      <trkpt lat="49.02077" lon="-1.11592">
        <ele>134.482574</ele>
        <time>2021-09-05T14:45:12.000Z</time>
      </trkpt>
      <trkpt lat="49.02042" lon="-1.11551">
        <ele>133.688392</ele>
        <time>2021-09-05T14:45:19.000Z</time>
      </trkpt>
      <trkpt lat="49.02014" lon="-1.11518">
        <ele>133.058742</ele>
        <time>2021-09-05T14:45:25.000Z</time>
      </trkpt>
      <trkpt lat="49.01986" lon="-1.11485">
        <ele>132.42197</ele>
        <time>2021-09-05T14:45:32.000Z</time>
      </trkpt>
      <trkpt lat="49.01982" lon="-1.11481">
        <ele>132.335781</ele>
        <time>2021-09-05T14:45:33.000Z</time>
      </trkpt>
      <trkpt lat="49.01969" lon="-1.11458">
        <ele>131.984612</ele>
        <time>2021-09-05T14:45:37.000Z</time>
      </trkpt>
      <trkpt lat="49.0196" lon="-1.1144">
        <ele>131.735441</ele>
        <time>2021-09-05T14:45:40.000Z</time>
      </trkpt>
      <trkpt lat="49.01954" lon="-1.11419">
        <ele>131.577698</ele>
        <time>2021-09-05T14:45:43.000Z</time>
      </trkpt>
      <trkpt lat="49.01943" lon="-1.11377">
        <ele>131.261409</ele>
        <time>2021-09-05T14:45:49.000Z</time>
      </trkpt>
      <trkpt lat="49.01935" lon="-1.11349">
        <ele>131.051125</ele>
        <time>2021-09-05T14:45:53.000Z</time>
      </trkpt>
      <trkpt lat="49.01929" lon="-1.11328">
        <ele>130.8953</ele>
        <time>2021-09-05T14:45:56.000Z</time>
      </trkpt>
      <trkpt lat="49.01913" lon="-1.1127">
        <ele>130.456761</ele>
        <time>2021-09-05T14:46:04.000Z</time>
      </trkpt>
      <trkpt lat="49.01899" lon="-1.11219">
        <ele>130.073771</ele>
        <time>2021-09-05T14:46:11.000Z</time>
      </trkpt>
      <trkpt lat="49.01896" lon="-1.11213">
        <ele>130.025133</ele>
        <time>2021-09-05T14:46:12.000Z</time>
      </trkpt>
      <trkpt lat="49.01888" lon="-1.11191">
        <ele>129.862574</ele>
        <time>2021-09-05T14:46:16.000Z</time>
      </trkpt>
      <trkpt lat="49.01878" lon="-1.11164">
        <ele>129.833997</ele>
        <time>2021-09-05T14:46:22.000Z</time>
      </trkpt>
      <trkpt lat="49.01867" lon="-1.11133">
        <ele>129.800382</ele>
        <time>2021-09-05T14:46:29.000Z</time>
      </trkpt>
      <trkpt lat="49.01865" lon="-1.11126">
        <ele>129.792971</ele>
        <time>2021-09-05T14:46:34.000Z</time>
      </trkpt>
      <trkpt lat="49.01864" lon="-1.11123">
        <ele>129.789758</ele>
        <time>2021-09-05T14:47:43.000Z</time>
      </trkpt>
      <trkpt lat="49.01864" lon="-1.11122">
        <ele>129.788629</ele>
        <time>2021-09-05T14:47:44.000Z</time>
      </trkpt>
      <trkpt lat="49.01862" lon="-1.11117">
        <ele>129.783302</ele>
        <time>2021-09-05T14:47:47.000Z</time>
      </trkpt>
      <trkpt lat="49.01857" lon="-1.11099">
        <ele>129.764774</ele>
        <time>2021-09-05T14:47:52.000Z</time>
      </trkpt>
      <trkpt lat="49.01846" lon="-1.11058">
        <ele>129.722679</ele>
        <time>2021-09-05T14:48:00.000Z</time>
      </trkpt>
      <trkpt lat="49.0184" lon="-1.11035">
        <ele>129.698911</ele>
        <time>2021-09-05T14:48:04.000Z</time>
      </trkpt>
      <trkpt lat="49.01835" lon="-1.11017">
        <ele>129.680614</ele>
        <time>2021-09-05T14:48:07.000Z</time>
      </trkpt>
      <trkpt lat="49.01822" lon="-1.1097">
        <ele>129.632006</ele>
        <time>2021-09-05T14:48:15.000Z</time>
      </trkpt>
      <trkpt lat="49.01807" lon="-1.10932">
        <ele>129.547348</ele>
        <time>2021-09-05T14:48:21.000Z</time>
      </trkpt>
      <trkpt lat="49.01791" lon="-1.10898">
        <ele>129.38066</ele>
        <time>2021-09-05T14:48:27.000Z</time>
      </trkpt>
      <trkpt lat="49.0177" lon="-1.10862">
        <ele>129.197442</ele>
        <time>2021-09-05T14:48:33.000Z</time>
      </trkpt>
      <trkpt lat="49.01766" lon="-1.10857">
        <ele>129.164858</ele>
        <time>2021-09-05T14:48:34.000Z</time>
      </trkpt>
      <trkpt lat="49.01744" lon="-1.10831">
        <ele>129.000669</ele>
        <time>2021-09-05T14:48:39.000Z</time>
      </trkpt>
      <trkpt lat="49.01715" lon="-1.10799">
        <ele>128.787617</ele>
        <time>2021-09-05T14:48:45.000Z</time>
      </trkpt>
      <trkpt lat="49.0171" lon="-1.10793">
        <ele>128.751758</ele>
        <time>2021-09-05T14:48:46.000Z</time>
      </trkpt>
      <trkpt lat="49.0169" lon="-1.10771">
        <ele>128.601464</ele>
        <time>2021-09-05T14:48:50.000Z</time>
      </trkpt>
      <trkpt lat="49.01654" lon="-1.10725">
        <ele>128.1438</ele>
        <time>2021-09-05T14:48:57.000Z</time>
      </trkpt>
      <trkpt lat="49.01625" lon="-1.10679">
        <ele>127.690676</ele>
        <time>2021-09-05T14:49:03.000Z</time>
      </trkpt>
      <trkpt lat="49.01609" lon="-1.10645">
        <ele>127.392338</ele>
        <time>2021-09-05T14:49:07.000Z</time>
      </trkpt>
      <trkpt lat="49.01605" lon="-1.10636">
        <ele>127.314964</ele>
        <time>2021-09-05T14:49:08.000Z</time>
      </trkpt>
      <trkpt lat="49.01592" lon="-1.10599">
        <ele>127.020156</ele>
        <time>2021-09-05T14:49:12.000Z</time>
      </trkpt>
      <trkpt lat="49.01576" lon="-1.10551">
        <ele>126.635335</ele>
        <time>2021-09-05T14:49:18.000Z</time>
      </trkpt>
      <trkpt lat="49.01556" lon="-1.10508">
        <ele>126.516067</ele>
        <time>2021-09-05T14:49:24.000Z</time>
      </trkpt>
      <trkpt lat="49.01536" lon="-1.10463">
        <ele>126.430669</ele>
        <time>2021-09-05T14:49:31.000Z</time>
      </trkpt>
      <trkpt lat="49.01515" lon="-1.10409">
        <ele>126.33252</ele>
        <time>2021-09-05T14:49:40.000Z</time>
      </trkpt>
      <trkpt lat="49.01508" lon="-1.10391">
        <ele>126.302225</ele>
        <time>2021-09-05T14:49:43.000Z</time>
      </trkpt>
      <trkpt lat="49.015" lon="-1.10368">
        <ele>126.260709</ele>
        <time>2021-09-05T14:49:47.000Z</time>
      </trkpt>
      <trkpt lat="49.01486" lon="-1.10326">
        <ele>126.187967</ele>
        <time>2021-09-05T14:49:54.000Z</time>
      </trkpt>
      <trkpt lat="49.01471" lon="-1.10274">
        <ele>126.072942</ele>
        <time>2021-09-05T14:50:02.000Z</time>
      </trkpt>
      <trkpt lat="49.01458" lon="-1.10222">
        <ele>125.950542</ele>
        <time>2021-09-05T14:50:09.000Z</time>
      </trkpt>
      <trkpt lat="49.0144" lon="-1.10154">
        <ele>125.786477</ele>
        <time>2021-09-05T14:50:17.000Z</time>
      </trkpt>
      <trkpt lat="49.01424" lon="-1.10091">
        <ele>125.638329</ele>
        <time>2021-09-05T14:50:24.000Z</time>
      </trkpt>
      <trkpt lat="49.01415" lon="-1.10021">
        <ele>125.807584</ele>
        <time>2021-09-05T14:50:32.000Z</time>
      </trkpt>
      <trkpt lat="49.01415" lon="-1.10012">
        <ele>125.874413</ele>
        <time>2021-09-05T14:50:33.000Z</time>
      </trkpt>
      <trkpt lat="49.01408" lon="-1.09984">
        <ele>126.10615</ele>
        <time>2021-09-05T14:50:36.000Z</time>
      </trkpt>
      <trkpt lat="49.01404" lon="-1.09979">
        <ele>126.166245</ele>
        <time>2021-09-05T14:50:37.000Z</time>
      </trkpt>
      <trkpt lat="49.01391" lon="-1.09955">
        <ele>126.402864</ele>
        <time>2021-09-05T14:50:42.000Z</time>
      </trkpt>
      <trkpt lat="49.01383" lon="-1.09928">
        <ele>126.634985</ele>
        <time>2021-09-05T14:50:48.000Z</time>
      </trkpt>
      <trkpt lat="49.0137" lon="-1.09891">
        <ele>126.956896</ele>
        <time>2021-09-05T14:50:57.000Z</time>
      </trkpt>
      <trkpt lat="49.01368" lon="-1.09883">
        <ele>127.025479</ele>
        <time>2021-09-05T14:50:59.000Z</time>
      </trkpt>
      <trkpt lat="49.01366" lon="-1.09879">
        <ele>127.057876</ele>
        <time>2021-09-05T14:51:00.000Z</time>
      </trkpt>
      <trkpt lat="49.01361" lon="-1.09862">
        <ele>127.200051</ele>
        <time>2021-09-05T14:51:04.000Z</time>
      </trkpt>
      <trkpt lat="49.0135" lon="-1.09829">
        <ele>127.486837</ele>
        <time>2021-09-05T14:51:12.000Z</time>
      </trkpt>
      <trkpt lat="49.01337" lon="-1.09792">
        <ele>127.807193</ele>
        <time>2021-09-05T14:51:21.000Z</time>
      </trkpt>
      <trkpt lat="49.0132" lon="-1.09763">
        <ele>128.10253</ele>
        <time>2021-09-05T14:51:29.000Z</time>
      </trkpt>
      <trkpt lat="49.01302" lon="-1.09747">
        <ele>128.353505</ele>
        <time>2021-09-05T14:51:36.000Z</time>
      </trkpt>
      <trkpt lat="49.0128" lon="-1.09738">
        <ele>128.619583</ele>
        <time>2021-09-05T14:51:43.000Z</time>
      </trkpt>
      <trkpt lat="49.01264" lon="-1.09735">
        <ele>128.80636</ele>
        <time>2021-09-05T14:51:48.000Z</time>
      </trkpt>
      <trkpt lat="49.01253" lon="-1.09732">
        <ele>128.938672</ele>
        <time>2021-09-05T14:51:51.000Z</time>
      </trkpt>
      <trkpt lat="49.01244" lon="-1.09729">
        <ele>129.039961</ele>
        <time>2021-09-05T14:51:53.000Z</time>
      </trkpt>
      <trkpt lat="49.01225" lon="-1.09722">
        <ele>129.272403</ele>
        <time>2021-09-05T14:51:57.000Z</time>
      </trkpt>
      <trkpt lat="49.01214" lon="-1.09717">
        <ele>129.403585</ele>
        <time>2021-09-05T14:51:59.000Z</time>
      </trkpt>
      <trkpt lat="49.01188" lon="-1.09701">
        <ele>129.731482</ele>
        <time>2021-09-05T14:52:03.000Z</time>
      </trkpt>
      <trkpt lat="49.01156" lon="-1.09682">
        <ele>129.20434</ele>
        <time>2021-09-05T14:52:07.000Z</time>
      </trkpt>
      <trkpt lat="49.01147" lon="-1.09679">
        <ele>129.031474</ele>
        <time>2021-09-05T14:52:08.000Z</time>
      </trkpt>
      <trkpt lat="49.01126" lon="-1.09676">
        <ele>128.66845</ele>
        <time>2021-09-05T14:52:10.000Z</time>
      </trkpt>
      <trkpt lat="49.01105" lon="-1.09676">
        <ele>128.28859</ele>
        <time>2021-09-05T14:52:12.000Z</time>
      </trkpt>
      <trkpt lat="49.01049" lon="-1.09681">
        <ele>127.287519</ele>
        <time>2021-09-05T14:52:17.000Z</time>
      </trkpt>
      <trkpt lat="49.01037" lon="-1.09682">
        <ele>127.077749</ele>
        <time>2021-09-05T14:52:18.000Z</time>
      </trkpt>
      <trkpt lat="49.00978" lon="-1.09686">
        <ele>125.710787</ele>
        <time>2021-09-05T14:52:23.000Z</time>
      </trkpt>
      <trkpt lat="49.00953" lon="-1.09686">
        <ele>125.032616</ele>
        <time>2021-09-05T14:52:25.000Z</time>
      </trkpt>
      <trkpt lat="49.00893" lon="-1.09681">
        <ele>123.352832</ele>
        <time>2021-09-05T14:52:30.000Z</time>
      </trkpt>
      <trkpt lat="49.00882" lon="-1.09678">
        <ele>123.025636</ele>
        <time>2021-09-05T14:52:31.000Z</time>
      </trkpt>
      <trkpt lat="49.00825" lon="-1.09657">
        <ele>121.368343</ele>
        <time>2021-09-05T14:52:36.000Z</time>
      </trkpt>
      <trkpt lat="49.00804" lon="-1.09645">
        <ele>120.5742</ele>
        <time>2021-09-05T14:52:38.000Z</time>
      </trkpt>
      <trkpt lat="49.00784" lon="-1.09629">
        <ele>119.788277</ele>
        <time>2021-09-05T14:52:40.000Z</time>
      </trkpt>
      <trkpt lat="49.00736" lon="-1.09588">
        <ele>117.857798</ele>
        <time>2021-09-05T14:52:45.000Z</time>
      </trkpt>
      <trkpt lat="49.00697" lon="-1.09555">
        <ele>116.306233</ele>
        <time>2021-09-05T14:52:49.000Z</time>
      </trkpt>
      <trkpt lat="49.0065" lon="-1.09513">
        <ele>114.236876</ele>
        <time>2021-09-05T14:52:54.000Z</time>
      </trkpt>
      <trkpt lat="49.0064" lon="-1.09505">
        <ele>113.766954</ele>
        <time>2021-09-05T14:52:55.000Z</time>
      </trkpt>
      <trkpt lat="49.00591" lon="-1.09461">
        <ele>111.40112</ele>
        <time>2021-09-05T14:53:00.000Z</time>
      </trkpt>
      <trkpt lat="49.00561" lon="-1.09434">
        <ele>109.970179</ele>
        <time>2021-09-05T14:53:03.000Z</time>
      </trkpt>
      <trkpt lat="49.0051" lon="-1.09389">
        <ele>107.49856</ele>
        <time>2021-09-05T14:53:08.000Z</time>
      </trkpt>
      <trkpt lat="49.00469" lon="-1.09352">
        <ele>105.359663</ele>
        <time>2021-09-05T14:53:12.000Z</time>
      </trkpt>
      <trkpt lat="49.00417" lon="-1.09306">
        <ele>102.694356</ele>
        <time>2021-09-05T14:53:17.000Z</time>
      </trkpt>
      <trkpt lat="49.00387" lon="-1.09279">
        <ele>101.104132</ele>
        <time>2021-09-05T14:53:20.000Z</time>
      </trkpt>
      <trkpt lat="49.00335" lon="-1.09237">
        <ele>98.486553</ele>
        <time>2021-09-05T14:53:25.000Z</time>
      </trkpt>
      <trkpt lat="49.00325" lon="-1.09229">
        <ele>97.975577</ele>
        <time>2021-09-05T14:53:26.000Z</time>
      </trkpt>
      <trkpt lat="49.00269" lon="-1.09187">
        <ele>95.121408</ele>
        <time>2021-09-05T14:53:32.000Z</time>
      </trkpt>
      <trkpt lat="49.0026" lon="-1.0918">
        <ele>94.691326</ele>
        <time>2021-09-05T14:53:33.000Z</time>
      </trkpt>
      <trkpt lat="49.00223" lon="-1.09152">
        <ele>92.798435</ele>
        <time>2021-09-05T14:53:38.000Z</time>
      </trkpt>
      <trkpt lat="49.00194" lon="-1.0913">
        <ele>91.338888</ele>
        <time>2021-09-05T14:53:43.000Z</time>
      </trkpt>
      <trkpt lat="49.00165" lon="-1.09108">
        <ele>90.039703</ele>
        <time>2021-09-05T14:53:49.000Z</time>
      </trkpt>
      <trkpt lat="49.0014" lon="-1.09091">
        <ele>88.897623</ele>
        <time>2021-09-05T14:53:56.000Z</time>
      </trkpt>
      <trkpt lat="49.00117" lon="-1.09076">
        <ele>87.891758</ele>
        <time>2021-09-05T14:54:04.000Z</time>
      </trkpt>
      <trkpt lat="49.00094" lon="-1.09061">
        <ele>86.877318</ele>
        <time>2021-09-05T14:54:13.000Z</time>
      </trkpt>
      <trkpt lat="49.00072" lon="-1.09047">
        <ele>85.90467</ele>
        <time>2021-09-05T14:54:22.000Z</time>
      </trkpt>
      <trkpt lat="49.00054" lon="-1.09034">
        <ele>85.072868</ele>
        <time>2021-09-05T14:54:30.000Z</time>
      </trkpt>
      <trkpt lat="49.0003" lon="-1.09019">
        <ele>84.308688</ele>
        <time>2021-09-05T14:54:40.000Z</time>
      </trkpt>
      <trkpt lat="49.00012" lon="-1.09007">
        <ele>84.545803</ele>
        <time>2021-09-05T14:54:48.000Z</time>
      </trkpt>
      <trkpt lat="48.99996" lon="-1.08997">
        <ele>84.73762</ele>
        <time>2021-09-05T14:54:55.000Z</time>
      </trkpt>
      <trkpt lat="48.99984" lon="-1.08986">
        <ele>84.906014</ele>
        <time>2021-09-05T14:55:02.000Z</time>
      </trkpt>
      <trkpt lat="48.99974" lon="-1.08976">
        <ele>85.04287</ele>
        <time>2021-09-05T14:55:08.000Z</time>
      </trkpt>
      <trkpt lat="48.99959" lon="-1.08961">
        <ele>85.256905</ele>
        <time>2021-09-05T14:55:17.000Z</time>
      </trkpt>
      <trkpt lat="48.99945" lon="-1.08946">
        <ele>85.451086</ele>
        <time>2021-09-05T14:55:25.000Z</time>
      </trkpt>
      <trkpt lat="48.9993" lon="-1.08932">
        <ele>85.654983</ele>
        <time>2021-09-05T14:55:33.000Z</time>
      </trkpt>
      <trkpt lat="48.99912" lon="-1.08913">
        <ele>85.911079</ele>
        <time>2021-09-05T14:55:42.000Z</time>
      </trkpt>
      <trkpt lat="48.99892" lon="-1.08892">
        <ele>86.194297</ele>
        <time>2021-09-05T14:55:52.000Z</time>
      </trkpt>
      <trkpt lat="48.99877" lon="-1.08875">
        <ele>86.517971</ele>
        <time>2021-09-05T14:55:59.000Z</time>
      </trkpt>
      <trkpt lat="48.99857" lon="-1.08852">
        <ele>87.32581</ele>
        <time>2021-09-05T14:56:09.000Z</time>
      </trkpt>
      <trkpt lat="48.99842" lon="-1.08836">
        <ele>87.877663</ele>
        <time>2021-09-05T14:56:16.000Z</time>
      </trkpt>
      <trkpt lat="48.99829" lon="-1.08823">
        <ele>88.360947</ele>
        <time>2021-09-05T14:56:22.000Z</time>
      </trkpt>
      <trkpt lat="48.99806" lon="-1.08799">
        <ele>89.231818</ele>
        <time>2021-09-05T14:56:32.000Z</time>
      </trkpt>
      <trkpt lat="48.99785" lon="-1.08781">
        <ele>90.000668</ele>
        <time>2021-09-05T14:56:41.000Z</time>
      </trkpt>
      <trkpt lat="48.99759" lon="-1.08768">
        <ele>90.832453</ele>
        <time>2021-09-05T14:56:51.000Z</time>
      </trkpt>
      <trkpt lat="48.99737" lon="-1.08759">
        <ele>91.551951</ele>
        <time>2021-09-05T14:56:59.000Z</time>
      </trkpt>
      <trkpt lat="48.99718" lon="-1.08751">
        <ele>92.115482</ele>
        <time>2021-09-05T14:57:06.000Z</time>
      </trkpt>
      <trkpt lat="48.99697" lon="-1.08742">
        <ele>92.579875</ele>
        <time>2021-09-05T14:57:13.000Z</time>
      </trkpt>
      <trkpt lat="48.99677" lon="-1.08728">
        <ele>93.076334</ele>
        <time>2021-09-05T14:57:21.000Z</time>
      </trkpt>
      <trkpt lat="48.99654" lon="-1.08705">
        <ele>93.670841</ele>
        <time>2021-09-05T14:57:29.000Z</time>
      </trkpt>
      <trkpt lat="48.99633" lon="-1.08674">
        <ele>94.310998</ele>
        <time>2021-09-05T14:57:37.000Z</time>
      </trkpt>
      <trkpt lat="48.99621" lon="-1.08657">
        <ele>94.673706</ele>
        <time>2021-09-05T14:57:41.000Z</time>
      </trkpt>
      <trkpt lat="48.99611" lon="-1.08643">
        <ele>94.972224</ele>
        <time>2021-09-05T14:57:44.000Z</time>
      </trkpt>
      <trkpt lat="48.99588" lon="-1.08609">
        <ele>95.681746</ele>
        <time>2021-09-05T14:57:51.000Z</time>
      </trkpt>
      <trkpt lat="48.99584" lon="-1.08604">
        <ele>95.788074</ele>
        <time>2021-09-05T14:57:52.000Z</time>
      </trkpt>
      <trkpt lat="48.99561" lon="-1.08571">
        <ele>95.946171</ele>
        <time>2021-09-05T14:57:58.000Z</time>
      </trkpt>
      <trkpt lat="48.99538" lon="-1.08547">
        <ele>95.989653</ele>
        <time>2021-09-05T14:58:03.000Z</time>
      </trkpt>
      <trkpt lat="48.99527" lon="-1.08538">
        <ele>96.008088</ele>
        <time>2021-09-05T14:58:05.000Z</time>
      </trkpt>
      <trkpt lat="48.99506" lon="-1.08519">
        <ele>96.046082</ele>
        <time>2021-09-05T14:58:09.000Z</time>
      </trkpt>
      <trkpt lat="48.99498" lon="-1.08504">
        <ele>96.065492</ele>
        <time>2021-09-05T14:58:11.000Z</time>
      </trkpt>
      <trkpt lat="48.9947" lon="-1.08448">
        <ele>96.136881</ele>
        <time>2021-09-05T14:58:18.000Z</time>
      </trkpt>
      <trkpt lat="48.99442" lon="-1.084">
        <ele>96.157301</ele>
        <time>2021-09-05T14:58:24.000Z</time>
      </trkpt>
      <trkpt lat="48.99399" lon="-1.0834">
        <ele>96.031447</ele>
        <time>2021-09-05T14:58:32.000Z</time>
      </trkpt>
      <trkpt lat="48.99359" lon="-1.08286">
        <ele>95.917805</ele>
        <time>2021-09-05T14:58:39.000Z</time>
      </trkpt>
      <trkpt lat="48.99338" lon="-1.08256">
        <ele>95.85655</ele>
        <time>2021-09-05T14:58:43.000Z</time>
      </trkpt>
      <trkpt lat="48.99296" lon="-1.08199">
        <ele>95.742386</ele>
        <time>2021-09-05T14:58:51.000Z</time>
      </trkpt>
      <trkpt lat="48.9926" lon="-1.08149">
        <ele>95.648801</ele>
        <time>2021-09-05T14:58:59.000Z</time>
      </trkpt>
      <trkpt lat="48.99236" lon="-1.08113">
        <ele>95.583723</ele>
        <time>2021-09-05T14:59:05.000Z</time>
      </trkpt>
      <trkpt lat="48.99214" lon="-1.08072">
        <ele>95.516993</ele>
        <time>2021-09-05T14:59:11.000Z</time>
      </trkpt>
      <trkpt lat="48.99188" lon="-1.08026">
        <ele>95.398061</ele>
        <time>2021-09-05T14:59:17.000Z</time>
      </trkpt>
      <trkpt lat="48.99151" lon="-1.07958">
        <ele>94.887349</ele>
        <time>2021-09-05T14:59:26.000Z</time>
      </trkpt>
      <trkpt lat="48.99147" lon="-1.07951">
        <ele>94.838142</ele>
        <time>2021-09-05T14:59:27.000Z</time>
      </trkpt>
      <trkpt lat="48.99128" lon="-1.07917">
        <ele>94.582346</ele>
        <time>2021-09-05T14:59:32.000Z</time>
      </trkpt>
      <trkpt lat="48.99126" lon="-1.07906">
        <ele>94.515851</ele>
        <time>2021-09-05T14:59:33.000Z</time>
      </trkpt>
      <trkpt lat="48.99128" lon="-1.07899">
        <ele>94.466711</ele>
        <time>2021-09-05T14:59:34.000Z</time>
      </trkpt>
      <trkpt lat="48.99133" lon="-1.07884">
        <ele>94.373031</ele>
        <time>2021-09-05T14:59:36.000Z</time>
      </trkpt>
      <trkpt lat="48.99143" lon="-1.07847">
        <ele>94.143463</ele>
        <time>2021-09-05T14:59:42.000Z</time>
      </trkpt>
      <trkpt lat="48.99153" lon="-1.0781">
        <ele>93.9125</ele>
        <time>2021-09-05T14:59:48.000Z</time>
      </trkpt>
      <trkpt lat="48.99167" lon="-1.07759">
        <ele>93.482759</ele>
        <time>2021-09-05T14:59:56.000Z</time>
      </trkpt>
      <trkpt lat="48.99171" lon="-1.07747">
        <ele>93.376973</ele>
        <time>2021-09-05T14:59:58.000Z</time>
      </trkpt>
      <trkpt lat="48.99176" lon="-1.07728">
        <ele>93.210309</ele>
        <time>2021-09-05T15:00:01.000Z</time>
      </trkpt>
      <trkpt lat="48.99193" lon="-1.07666">
        <ele>92.670543</ele>
        <time>2021-09-05T15:00:10.000Z</time>
      </trkpt>
      <trkpt lat="48.99206" lon="-1.07617">
        <ele>92.24863</ele>
        <time>2021-09-05T15:00:16.000Z</time>
      </trkpt>
      <trkpt lat="48.99219" lon="-1.07561">
        <ele>91.766143</ele>
        <time>2021-09-05T15:00:22.000Z</time>
      </trkpt>
      <trkpt lat="48.99236" lon="-1.07497">
        <ele>90.770184</ele>
        <time>2021-09-05T15:00:28.000Z</time>
      </trkpt>
      <trkpt lat="48.99264" lon="-1.07433">
        <ele>89.572638</ele>
        <time>2021-09-05T15:00:34.000Z</time>
      </trkpt>
      <trkpt lat="48.99292" lon="-1.07378">
        <ele>88.482192</ele>
        <time>2021-09-05T15:00:39.000Z</time>
      </trkpt>
      <trkpt lat="48.99326" lon="-1.07313">
        <ele>87.102399</ele>
        <time>2021-09-05T15:00:45.000Z</time>
      </trkpt>
      <trkpt lat="48.99361" lon="-1.07241">
        <ele>85.096835</ele>
        <time>2021-09-05T15:00:51.000Z</time>
      </trkpt>
      <trkpt lat="48.99394" lon="-1.0716">
        <ele>82.966005</ele>
        <time>2021-09-05T15:00:57.000Z</time>
      </trkpt>
      <trkpt lat="48.99413" lon="-1.07094">
        <ele>81.357998</ele>
        <time>2021-09-05T15:01:02.000Z</time>
      </trkpt>
      <trkpt lat="48.99414" lon="-1.07084">
        <ele>81.050736</ele>
        <time>2021-09-05T15:01:03.000Z</time>
      </trkpt>
      <trkpt lat="48.99412" lon="-1.07066">
        <ele>80.462816</ele>
        <time>2021-09-05T15:01:05.000Z</time>
      </trkpt>
      <trkpt lat="48.99398" lon="-1.07059">
        <ele>79.729452</ele>
        <time>2021-09-05T15:01:08.000Z</time>
      </trkpt>
      <trkpt lat="48.99347" lon="-1.0704">
        <ele>77.077306</ele>
        <time>2021-09-05T15:01:13.000Z</time>
      </trkpt>
      <trkpt lat="48.99339" lon="-1.07038">
        <ele>76.666466</ele>
        <time>2021-09-05T15:01:14.000Z</time>
      </trkpt>
      <trkpt lat="48.99326" lon="-1.07034">
        <ele>76.034088</ele>
        <time>2021-09-05T15:01:16.000Z</time>
      </trkpt>
      <trkpt lat="48.99301" lon="-1.07026">
        <ele>74.724216</ele>
        <time>2021-09-05T15:01:21.000Z</time>
      </trkpt>
      <trkpt lat="48.99266" lon="-1.07011">
        <ele>72.904605</ele>
        <time>2021-09-05T15:01:27.000Z</time>
      </trkpt>
      <trkpt lat="48.99225" lon="-1.06996">
        <ele>70.723608</ele>
        <time>2021-09-05T15:01:32.000Z</time>
      </trkpt>
      <trkpt lat="48.99189" lon="-1.06984">
        <ele>68.791083</ele>
        <time>2021-09-05T15:01:36.000Z</time>
      </trkpt>
      <trkpt lat="48.99171" lon="-1.06977">
        <ele>67.804988</ele>
        <time>2021-09-05T15:01:39.000Z</time>
      </trkpt>
      <trkpt lat="48.99153" lon="-1.06971">
        <ele>66.850331</ele>
        <time>2021-09-05T15:01:43.000Z</time>
      </trkpt>
      <trkpt lat="48.99127" lon="-1.06961">
        <ele>65.4268</ele>
        <time>2021-09-05T15:01:47.000Z</time>
      </trkpt>
      <trkpt lat="48.99105" lon="-1.06955">
        <ele>64.244965</ele>
        <time>2021-09-05T15:01:50.000Z</time>
      </trkpt>
      <trkpt lat="48.99087" lon="-1.0695">
        <ele>63.302685</ele>
        <time>2021-09-05T15:01:54.000Z</time>
      </trkpt>
      <trkpt lat="48.99072" lon="-1.06946">
        <ele>62.68936</ele>
        <time>2021-09-05T15:01:59.000Z</time>
      </trkpt>
      <trkpt lat="48.99062" lon="-1.06944">
        <ele>62.5359</ele>
        <time>2021-09-05T15:02:04.000Z</time>
      </trkpt>
      <trkpt lat="48.99043" lon="-1.06939">
        <ele>62.235073</ele>
        <time>2021-09-05T15:02:09.000Z</time>
      </trkpt>
      <trkpt lat="48.99033" lon="-1.06936">
        <ele>62.081613</ele>
        <time>2021-09-05T15:02:14.000Z</time>
      </trkpt>
      <trkpt lat="48.99017" lon="-1.06925">
        <ele>61.802051</ele>
        <time>2021-09-05T15:02:20.000Z</time>
      </trkpt>
      <trkpt lat="48.99007" lon="-1.06918">
        <ele>61.635858</ele>
        <time>2021-09-05T15:02:24.000Z</time>
      </trkpt>
      <trkpt lat="48.99007" lon="-1.06918">
        <ele>61.635858</ele>
        <time>2021-09-05T15:02:25.000Z</time>
      </trkpt>
      <trkpt lat="48.98988" lon="-1.06905">
        <ele>61.31842</ele>
        <time>2021-09-05T15:02:29.000Z</time>
      </trkpt>
      <trkpt lat="48.98978" lon="-1.06898">
        <ele>61.139755</ele>
        <time>2021-09-05T15:02:31.000Z</time>
      </trkpt>
      <trkpt lat="48.98968" lon="-1.06891">
        <ele>60.966987</ele>
        <time>2021-09-05T15:02:33.000Z</time>
      </trkpt>
      <trkpt lat="48.98963" lon="-1.06887">
        <ele>60.885238</ele>
        <time>2021-09-05T15:02:34.000Z</time>
      </trkpt>
      <trkpt lat="48.98953" lon="-1.0688">
        <ele>60.717108</ele>
        <time>2021-09-05T15:02:37.000Z</time>
      </trkpt>
      <trkpt lat="48.98932" lon="-1.06866">
        <ele>60.358796</ele>
        <time>2021-09-05T15:02:40.000Z</time>
      </trkpt>
      <trkpt lat="48.98926" lon="-1.06862">
        <ele>60.260474</ele>
        <time>2021-09-05T15:02:41.000Z</time>
      </trkpt>
      <trkpt lat="48.98907" lon="-1.0685">
        <ele>59.858107</ele>
        <time>2021-09-05T15:02:45.000Z</time>
      </trkpt>
      <trkpt lat="48.98901" lon="-1.06848">
        <ele>59.509773</ele>
        <time>2021-09-05T15:02:47.000Z</time>
      </trkpt>
      <trkpt lat="48.98883" lon="-1.06841">
        <ele>58.509136</ele>
        <time>2021-09-05T15:02:49.000Z</time>
      </trkpt>
      <trkpt lat="48.98865" lon="-1.06839">
        <ele>57.555781</ele>
        <time>2021-09-05T15:02:52.000Z</time>
      </trkpt>
      <trkpt lat="48.98851" lon="-1.06846">
        <ele>56.777065</ele>
        <time>2021-09-05T15:02:54.000Z</time>
      </trkpt>
      <trkpt lat="48.9884" lon="-1.06859">
        <ele>56.053836</ele>
        <time>2021-09-05T15:02:57.000Z</time>
      </trkpt>
      <trkpt lat="48.9884" lon="-1.06859">
        <ele>56.053836</ele>
        <time>2021-09-05T15:02:58.000Z</time>
      </trkpt>
      <trkpt lat="48.98839" lon="-1.0686">
        <ele>55.988655</ele>
        <time>2021-09-05T15:02:59.000Z</time>
      </trkpt>
      <trkpt lat="48.98838" lon="-1.06851">
        <ele>55.653136</ele>
        <time>2021-09-05T15:03:01.000Z</time>
      </trkpt>
      <trkpt lat="48.9884" lon="-1.06848">
        <ele>55.531187</ele>
        <time>2021-09-05T15:03:02.000Z</time>
      </trkpt>
      <trkpt lat="48.98845" lon="-1.0684">
        <ele>55.124541</ele>
        <time>2021-09-05T15:03:05.000Z</time>
      </trkpt>
      <trkpt lat="48.98846" lon="-1.06836">
        <ele>54.984316</ele>
        <time>2021-09-05T15:03:06.000Z</time>
      </trkpt>
      <trkpt lat="48.98845" lon="-1.06836">
        <ele>54.969471</ele>
        <time>2021-09-05T15:03:08.000Z</time>
      </trkpt>
      <trkpt lat="48.98843" lon="-1.06836">
        <ele>54.84263</ele>
        <time>2021-09-05T15:03:09.000Z</time>
      </trkpt>
      <trkpt lat="48.98831" lon="-1.06846">
        <ele>54.084909</ele>
        <time>2021-09-05T15:03:13.000Z</time>
      </trkpt>
      <trkpt lat="48.98824" lon="-1.06843">
        <ele>53.736074</ele>
        <time>2021-09-05T15:03:15.000Z</time>
      </trkpt>
      <trkpt lat="48.98825" lon="-1.06839">
        <ele>53.571302</ele>
        <time>2021-09-05T15:03:16.000Z</time>
      </trkpt>
      <trkpt lat="48.98836" lon="-1.06829">
        <ele>52.891573</ele>
        <time>2021-09-05T15:03:20.000Z</time>
      </trkpt>
      <trkpt lat="48.98849" lon="-1.06814">
        <ele>52.054322</ele>
        <time>2021-09-05T15:03:24.000Z</time>
      </trkpt>
      <trkpt lat="48.98849" lon="-1.06805">
        <ele>51.741076</ele>
        <time>2021-09-05T15:03:26.000Z</time>
      </trkpt>
      <trkpt lat="48.98848" lon="-1.06801">
        <ele>51.5843</ele>
        <time>2021-09-05T15:03:27.000Z</time>
      </trkpt>
      <trkpt lat="48.98843" lon="-1.0679">
        <ele>51.157828</ele>
        <time>2021-09-05T15:03:30.000Z</time>
      </trkpt>
      <trkpt lat="48.98842" lon="-1.06786">
        <ele>50.977749</ele>
        <time>2021-09-05T15:03:31.000Z</time>
      </trkpt>
      <trkpt lat="48.9884" lon="-1.06781">
        <ele>50.806607</ele>
        <time>2021-09-05T15:03:32.000Z</time>
      </trkpt>
      <trkpt lat="48.98837" lon="-1.06775">
        <ele>50.530965</ele>
        <time>2021-09-05T15:03:34.000Z</time>
      </trkpt>
      <trkpt lat="48.98826" lon="-1.06757">
        <ele>49.954005</ele>
        <time>2021-09-05T15:03:39.000Z</time>
      </trkpt>
      <trkpt lat="48.9881" lon="-1.0674">
        <ele>49.252609</ele>
        <time>2021-09-05T15:03:44.000Z</time>
      </trkpt>
      <trkpt lat="48.98795" lon="-1.06729">
        <ele>48.67179</ele>
        <time>2021-09-05T15:03:48.000Z</time>
      </trkpt>
      <trkpt lat="48.98781" lon="-1.0672">
        <ele>48.152693</ele>
        <time>2021-09-05T15:03:51.000Z</time>
      </trkpt>
      <trkpt lat="48.98773" lon="-1.06715">
        <ele>47.841793</ele>
        <time>2021-09-05T15:03:53.000Z</time>
      </trkpt>
      <trkpt lat="48.9875" lon="-1.06701">
        <ele>46.97065</ele>
        <time>2021-09-05T15:03:58.000Z</time>
      </trkpt>
      <trkpt lat="48.98741" lon="-1.06697">
        <ele>46.620643</ele>
        <time>2021-09-05T15:04:00.000Z</time>
      </trkpt>
      <trkpt lat="48.98731" lon="-1.06694">
        <ele>46.271147</ele>
        <time>2021-09-05T15:04:02.000Z</time>
      </trkpt>
      <trkpt lat="48.98721" lon="-1.06691">
        <ele>45.928511</ele>
        <time>2021-09-05T15:04:04.000Z</time>
      </trkpt>
      <trkpt lat="48.98707" lon="-1.06685">
        <ele>45.391499</ele>
        <time>2021-09-05T15:04:07.000Z</time>
      </trkpt>
      <trkpt lat="48.98702" lon="-1.06684">
        <ele>45.22215</ele>
        <time>2021-09-05T15:04:08.000Z</time>
      </trkpt>
      <trkpt lat="48.9869" lon="-1.0668">
        <ele>44.799982</ele>
        <time>2021-09-05T15:04:10.000Z</time>
      </trkpt>
      <trkpt lat="48.98676" lon="-1.06683">
        <ele>44.286013</ele>
        <time>2021-09-05T15:04:12.000Z</time>
      </trkpt>
      <trkpt lat="48.98663" lon="-1.06688">
        <ele>44.033405</ele>
        <time>2021-09-05T15:04:14.000Z</time>
      </trkpt>
      <trkpt lat="48.98657" lon="-1.06691">
        <ele>43.939474</ele>
        <time>2021-09-05T15:04:15.000Z</time>
      </trkpt>
      <trkpt lat="48.98639" lon="-1.06698">
        <ele>43.692438</ele>
        <time>2021-09-05T15:04:18.000Z</time>
      </trkpt>
      <trkpt lat="48.986" lon="-1.06714">
        <ele>43.137625</ele>
        <time>2021-09-05T15:04:25.000Z</time>
      </trkpt>
      <trkpt lat="48.98569" lon="-1.06727">
        <ele>42.690518</ele>
        <time>2021-09-05T15:04:31.000Z</time>
      </trkpt>
      <trkpt lat="48.98558" lon="-1.0673">
        <ele>42.543537</ele>
        <time>2021-09-05T15:04:33.000Z</time>
      </trkpt>
      <trkpt lat="48.98542" lon="-1.06735">
        <ele>42.319628</ele>
        <time>2021-09-05T15:04:36.000Z</time>
      </trkpt>
      <trkpt lat="48.98509" lon="-1.06743">
        <ele>41.867815</ele>
        <time>2021-09-05T15:04:42.000Z</time>
      </trkpt>
      <trkpt lat="48.98505" lon="-1.06743">
        <ele>41.800712</ele>
        <time>2021-09-05T15:04:43.000Z</time>
      </trkpt>
      <trkpt lat="48.9849" lon="-1.06743">
        <ele>41.613138</ele>
        <time>2021-09-05T15:04:46.000Z</time>
      </trkpt>
      <trkpt lat="48.98454" lon="-1.06738">
        <ele>41.201857</ele>
        <time>2021-09-05T15:04:53.000Z</time>
      </trkpt>
      <trkpt lat="48.98446" lon="-1.06736">
        <ele>41.107102</ele>
        <time>2021-09-05T15:04:55.000Z</time>
      </trkpt>
      <trkpt lat="48.98436" lon="-1.06731">
        <ele>40.978508</ele>
        <time>2021-09-05T15:04:57.000Z</time>
      </trkpt>
      <trkpt lat="48.98397" lon="-1.06711">
        <ele>40.50728</ele>
        <time>2021-09-05T15:05:04.000Z</time>
      </trkpt>
      <trkpt lat="48.98361" lon="-1.06695">
        <ele>40.073066</ele>
        <time>2021-09-05T15:05:11.000Z</time>
      </trkpt>
      <trkpt lat="48.98351" lon="-1.0669">
        <ele>39.942982</ele>
        <time>2021-09-05T15:05:13.000Z</time>
      </trkpt>
      <trkpt lat="48.98345" lon="-1.06679">
        <ele>39.830977</ele>
        <time>2021-09-05T15:05:15.000Z</time>
      </trkpt>
      <trkpt lat="48.98325" lon="-1.06655">
        <ele>39.579218</ele>
        <time>2021-09-05T15:05:20.000Z</time>
      </trkpt>
      <trkpt lat="48.9831" lon="-1.06634">
        <ele>39.473706</ele>
        <time>2021-09-05T15:05:24.000Z</time>
      </trkpt>
      <trkpt lat="48.983" lon="-1.06615">
        <ele>39.393294</ele>
        <time>2021-09-05T15:05:27.000Z</time>
      </trkpt>
      <trkpt lat="48.9828" lon="-1.06573">
        <ele>39.219582</ele>
        <time>2021-09-05T15:05:34.000Z</time>
      </trkpt>
      <trkpt lat="48.98257" lon="-1.06523">
        <ele>39.013848</ele>
        <time>2021-09-05T15:05:40.000Z</time>
      </trkpt>
      <trkpt lat="48.98254" lon="-1.06516">
        <ele>38.983771</ele>
        <time>2021-09-05T15:05:41.000Z</time>
      </trkpt>
      <trkpt lat="48.98236" lon="-1.06482">
        <ele>38.83829</ele>
        <time>2021-09-05T15:05:46.000Z</time>
      </trkpt>
      <trkpt lat="48.98211" lon="-1.06426">
        <ele>38.650214</ele>
        <time>2021-09-05T15:05:54.000Z</time>
      </trkpt>
      <trkpt lat="48.98194" lon="-1.06373">
        <ele>38.545383</ele>
        <time>2021-09-05T15:06:01.000Z</time>
      </trkpt>
      <trkpt lat="48.9818" lon="-1.06327">
        <ele>38.455044</ele>
        <time>2021-09-05T15:06:07.000Z</time>
      </trkpt>
      <trkpt lat="48.98167" lon="-1.06288">
        <ele>38.378522</ele>
        <time>2021-09-05T15:06:13.000Z</time>
      </trkpt>
      <trkpt lat="48.98136" lon="-1.06209">
        <ele>38.21552</ele>
        <time>2021-09-05T15:06:23.000Z</time>
      </trkpt>
      <trkpt lat="48.98117" lon="-1.0617">
        <ele>38.21095</ele>
        <time>2021-09-05T15:06:30.000Z</time>
      </trkpt>
      <trkpt lat="48.98103" lon="-1.06144">
        <ele>38.214151</ele>
        <time>2021-09-05T15:06:34.000Z</time>
      </trkpt>
      <trkpt lat="48.98094" lon="-1.06127">
        <ele>38.216252</ele>
        <time>2021-09-05T15:06:36.000Z</time>
      </trkpt>
      <trkpt lat="48.98081" lon="-1.06092">
        <ele>38.220113</ele>
        <time>2021-09-05T15:06:42.000Z</time>
      </trkpt>
      <trkpt lat="48.98073" lon="-1.0606">
        <ele>38.223415</ele>
        <time>2021-09-05T15:06:48.000Z</time>
      </trkpt>
      <trkpt lat="48.98056" lon="-1.05991">
        <ele>38.230466</ele>
        <time>2021-09-05T15:06:57.000Z</time>
      </trkpt>
      <trkpt lat="48.98054" lon="-1.05977">
        <ele>38.23187</ele>
        <time>2021-09-05T15:06:59.000Z</time>
      </trkpt>
      <trkpt lat="48.98052" lon="-1.0597">
        <ele>38.23257</ele>
        <time>2021-09-05T15:07:01.000Z</time>
      </trkpt>
      <trkpt lat="48.98041" lon="-1.0591">
        <ele>38.298569</ele>
        <time>2021-09-05T15:07:08.000Z</time>
      </trkpt>
      <trkpt lat="48.98028" lon="-1.0586">
        <ele>38.35975</ele>
        <time>2021-09-05T15:07:15.000Z</time>
      </trkpt>
      <trkpt lat="48.98011" lon="-1.05817">
        <ele>38.41649</ele>
        <time>2021-09-05T15:07:22.000Z</time>
      </trkpt>
      <trkpt lat="48.97992" lon="-1.05767">
        <ele>38.48308</ele>
        <time>2021-09-05T15:07:28.000Z</time>
      </trkpt>
      <trkpt lat="48.97985" lon="-1.05754">
        <ele>38.50215</ele>
        <time>2021-09-05T15:07:31.000Z</time>
      </trkpt>
      <trkpt lat="48.97971" lon="-1.0573">
        <ele>38.540146</ele>
        <time>2021-09-05T15:07:34.000Z</time>
      </trkpt>
      <trkpt lat="48.97947" lon="-1.05708">
        <ele>38.634191</ele>
        <time>2021-09-05T15:07:40.000Z</time>
      </trkpt>
      <trkpt lat="48.97905" lon="-1.0569">
        <ele>38.795262</ele>
        <time>2021-09-05T15:07:47.000Z</time>
      </trkpt>
      <trkpt lat="48.97885" lon="-1.05682">
        <ele>38.870752</ele>
        <time>2021-09-05T15:07:51.000Z</time>
      </trkpt>
      <trkpt lat="48.9787" lon="-1.05676">
        <ele>38.926032</ele>
        <time>2021-09-05T15:07:54.000Z</time>
      </trkpt>
      <trkpt lat="48.97855" lon="-1.0567">
        <ele>38.983868</ele>
        <time>2021-09-05T15:07:58.000Z</time>
      </trkpt>
      <trkpt lat="48.97833" lon="-1.05663">
        <ele>39.065217</ele>
        <time>2021-09-05T15:08:03.000Z</time>
      </trkpt>
      <trkpt lat="48.97805" lon="-1.05653">
        <ele>39.173094</ele>
        <time>2021-09-05T15:08:09.000Z</time>
      </trkpt>
      <trkpt lat="48.97765" lon="-1.05637">
        <ele>39.27004</ele>
        <time>2021-09-05T15:08:17.000Z</time>
      </trkpt>
      <trkpt lat="48.97724" lon="-1.05617">
        <ele>39.355033</ele>
        <time>2021-09-05T15:08:25.000Z</time>
      </trkpt>
      <trkpt lat="48.97699" lon="-1.05603">
        <ele>39.408432</ele>
        <time>2021-09-05T15:08:31.000Z</time>
      </trkpt>
      <trkpt lat="48.97656" lon="-1.05583">
        <ele>39.496357</ele>
        <time>2021-09-05T15:08:38.000Z</time>
      </trkpt>
      <trkpt lat="48.97639" lon="-1.05579">
        <ele>39.528928</ele>
        <time>2021-09-05T15:08:41.000Z</time>
      </trkpt>
      <trkpt lat="48.97629" lon="-1.05576">
        <ele>39.549919</ele>
        <time>2021-09-05T15:08:43.000Z</time>
      </trkpt>
      <trkpt lat="48.97624" lon="-1.05574">
        <ele>39.559908</ele>
        <time>2021-09-05T15:08:45.000Z</time>
      </trkpt>
      <trkpt lat="48.97607" lon="-1.05568">
        <ele>39.58991</ele>
        <time>2021-09-05T15:08:48.000Z</time>
      </trkpt>
      <trkpt lat="48.97584" lon="-1.05563">
        <ele>39.628973</ele>
        <time>2021-09-05T15:08:54.000Z</time>
      </trkpt>
      <trkpt lat="48.97567" lon="-1.0556">
        <ele>39.657927</ele>
        <time>2021-09-05T15:08:59.000Z</time>
      </trkpt>
      <trkpt lat="48.97543" lon="-1.05558">
        <ele>39.697232</ele>
        <time>2021-09-05T15:09:06.000Z</time>
      </trkpt>
      <trkpt lat="48.9752" lon="-1.05558">
        <ele>39.736479</ele>
        <time>2021-09-05T15:09:12.000Z</time>
      </trkpt>
      <trkpt lat="48.97519" lon="-1.05557">
        <ele>39.739436</ele>
        <time>2021-09-05T15:09:13.000Z</time>
      </trkpt>
      <trkpt lat="48.97519" lon="-1.05557">
        <ele>39.739436</ele>
        <time>2021-09-05T15:09:15.000Z</time>
      </trkpt>
      <trkpt lat="48.97517" lon="-1.05557">
        <ele>39.7416</ele>
        <time>2021-09-05T15:09:48.000Z</time>
      </trkpt>
      <trkpt lat="48.97514" lon="-1.05554">
        <ele>39.748528</ele>
        <time>2021-09-05T15:10:01.000Z</time>
      </trkpt>
      <trkpt lat="48.97503" lon="-1.05548">
        <ele>39.768324</ele>
        <time>2021-09-05T15:10:08.000Z</time>
      </trkpt>
      <trkpt lat="48.97498" lon="-1.05546">
        <ele>39.775672</ele>
        <time>2021-09-05T15:10:12.000Z</time>
      </trkpt>
      <trkpt lat="48.97497" lon="-1.05546">
        <ele>39.778544</ele>
        <time>2021-09-05T15:10:13.000Z</time>
      </trkpt>
      <trkpt lat="48.97489" lon="-1.05544">
        <ele>39.791916</ele>
        <time>2021-09-05T15:10:18.000Z</time>
      </trkpt>
      <trkpt lat="48.97479" lon="-1.05543">
        <ele>39.808002</ele>
        <time>2021-09-05T15:10:24.000Z</time>
      </trkpt>
      <trkpt lat="48.97462" lon="-1.05545">
        <ele>39.837082</ele>
        <time>2021-09-05T15:10:31.000Z</time>
      </trkpt>
      <trkpt lat="48.97433" lon="-1.05552">
        <ele>39.948621</ele>
        <time>2021-09-05T15:10:39.000Z</time>
      </trkpt>
      <trkpt lat="48.974" lon="-1.05566">
        <ele>40.166821</ele>
        <time>2021-09-05T15:10:48.000Z</time>
      </trkpt>
      <trkpt lat="48.97374" lon="-1.05577">
        <ele>40.332525</ele>
        <time>2021-09-05T15:10:55.000Z</time>
      </trkpt>
      <trkpt lat="48.97359" lon="-1.05583">
        <ele>40.430361</ele>
        <time>2021-09-05T15:11:01.000Z</time>
      </trkpt>
      <trkpt lat="48.97347" lon="-1.05588">
        <ele>40.50874</ele>
        <time>2021-09-05T15:11:07.000Z</time>
      </trkpt>
      <trkpt lat="48.97334" lon="-1.0559">
        <ele>40.593946</ele>
        <time>2021-09-05T15:11:12.000Z</time>
      </trkpt>
      <trkpt lat="48.97311" lon="-1.05596">
        <ele>40.741027</ele>
        <time>2021-09-05T15:11:19.000Z</time>
      </trkpt>
      <trkpt lat="48.97287" lon="-1.05609">
        <ele>40.900487</ele>
        <time>2021-09-05T15:11:25.000Z</time>
      </trkpt>
      <trkpt lat="48.97257" lon="-1.05625">
        <ele>41.055908</ele>
        <time>2021-09-05T15:11:32.000Z</time>
      </trkpt>
      <trkpt lat="48.97229" lon="-1.05637">
        <ele>41.148835</ele>
        <time>2021-09-05T15:11:38.000Z</time>
      </trkpt>
      <trkpt lat="48.9721" lon="-1.05646">
        <ele>41.212205</ele>
        <time>2021-09-05T15:11:42.000Z</time>
      </trkpt>
      <trkpt lat="48.97201" lon="-1.0565">
        <ele>41.244412</ele>
        <time>2021-09-05T15:11:44.000Z</time>
      </trkpt>
      <trkpt lat="48.97168" lon="-1.05665">
        <ele>41.354151</ele>
        <time>2021-09-05T15:11:51.000Z</time>
      </trkpt>
      <trkpt lat="48.9716" lon="-1.05673">
        <ele>41.386173</ele>
        <time>2021-09-05T15:11:53.000Z</time>
      </trkpt>
      <trkpt lat="48.97149" lon="-1.05689">
        <ele>41.434137</ele>
        <time>2021-09-05T15:11:56.000Z</time>
      </trkpt>
      <trkpt lat="48.97145" lon="-1.05695">
        <ele>41.451378</ele>
        <time>2021-09-05T15:11:57.000Z</time>
      </trkpt>
      <trkpt lat="48.9713" lon="-1.05719">
        <ele>41.52244</ele>
        <time>2021-09-05T15:12:01.000Z</time>
      </trkpt>
      <trkpt lat="48.97123" lon="-1.05729">
        <ele>41.552862</ele>
        <time>2021-09-05T15:12:03.000Z</time>
      </trkpt>
      <trkpt lat="48.97116" lon="-1.05737">
        <ele>41.582699</ele>
        <time>2021-09-05T15:12:05.000Z</time>
      </trkpt>
      <trkpt lat="48.971" lon="-1.0575">
        <ele>41.557034</ele>
        <time>2021-09-05T15:12:09.000Z</time>
      </trkpt>
      <trkpt lat="48.97093" lon="-1.05756">
        <ele>41.544163</ele>
        <time>2021-09-05T15:12:11.000Z</time>
      </trkpt>
      <trkpt lat="48.97071" lon="-1.05773">
        <ele>41.505692</ele>
        <time>2021-09-05T15:12:17.000Z</time>
      </trkpt>
      <trkpt lat="48.97051" lon="-1.05786">
        <ele>41.473153</ele>
        <time>2021-09-05T15:12:23.000Z</time>
      </trkpt>
      <trkpt lat="48.97029" lon="-1.05801">
        <ele>41.435504</ele>
        <time>2021-09-05T15:12:29.000Z</time>
      </trkpt>
      <trkpt lat="48.97012" lon="-1.05812">
        <ele>41.407308</ele>
        <time>2021-09-05T15:12:33.000Z</time>
      </trkpt>
      <trkpt lat="48.96999" lon="-1.05821">
        <ele>41.385104</ele>
        <time>2021-09-05T15:12:36.000Z</time>
      </trkpt>
      <trkpt lat="48.96973" lon="-1.05842">
        <ele>41.340062</ele>
        <time>2021-09-05T15:12:42.000Z</time>
      </trkpt>
      <trkpt lat="48.96956" lon="-1.05854">
        <ele>41.311953</ele>
        <time>2021-09-05T15:12:46.000Z</time>
      </trkpt>
      <trkpt lat="48.96948" lon="-1.05861">
        <ele>41.256315</ele>
        <time>2021-09-05T15:12:48.000Z</time>
      </trkpt>
      <trkpt lat="48.96944" lon="-1.05864">
        <ele>41.21534</ele>
        <time>2021-09-05T15:12:49.000Z</time>
      </trkpt>
      <trkpt lat="48.9692" lon="-1.05887">
        <ele>40.980171</ele>
        <time>2021-09-05T15:12:55.000Z</time>
      </trkpt>
      <trkpt lat="48.96916" lon="-1.05891">
        <ele>40.94393</ele>
        <time>2021-09-05T15:12:56.000Z</time>
      </trkpt>
      <trkpt lat="48.96905" lon="-1.05901">
        <ele>40.839034</ele>
        <time>2021-09-05T15:12:59.000Z</time>
      </trkpt>
      <trkpt lat="48.96882" lon="-1.05923">
        <ele>40.612176</ele>
        <time>2021-09-05T15:13:05.000Z</time>
      </trkpt>
      <trkpt lat="48.96855" lon="-1.05952">
        <ele>40.341486</ele>
        <time>2021-09-05T15:13:11.000Z</time>
      </trkpt>
      <trkpt lat="48.96836" lon="-1.05973">
        <ele>40.149045</ele>
        <time>2021-09-05T15:13:16.000Z</time>
      </trkpt>
      <trkpt lat="48.96808" lon="-1.06004">
        <ele>39.862152</ele>
        <time>2021-09-05T15:13:23.000Z</time>
      </trkpt>
      <trkpt lat="48.96795" lon="-1.06014">
        <ele>39.939285</ele>
        <time>2021-09-05T15:13:26.000Z</time>
      </trkpt>
      <trkpt lat="48.96785" lon="-1.06022">
        <ele>40.058385</ele>
        <time>2021-09-05T15:13:28.000Z</time>
      </trkpt>
      <trkpt lat="48.9678" lon="-1.06024">
        <ele>40.12108</ele>
        <time>2021-09-05T15:13:29.000Z</time>
      </trkpt>
      <trkpt lat="48.9677" lon="-1.06026">
        <ele>40.241501</ele>
        <time>2021-09-05T15:13:31.000Z</time>
      </trkpt>
      <trkpt lat="48.96765" lon="-1.06027">
        <ele>40.301203</ele>
        <time>2021-09-05T15:13:32.000Z</time>
      </trkpt>
      <trkpt lat="48.9675" lon="-1.06031">
        <ele>40.475505</ele>
        <time>2021-09-05T15:13:35.000Z</time>
      </trkpt>
      <trkpt lat="48.96735" lon="-1.06035">
        <ele>40.65107</ele>
        <time>2021-09-05T15:13:38.000Z</time>
      </trkpt>
      <trkpt lat="48.96699" lon="-1.06045">
        <ele>41.070895</ele>
        <time>2021-09-05T15:13:45.000Z</time>
      </trkpt>
      <trkpt lat="48.96697" lon="-1.06045">
        <ele>41.094296</ele>
        <time>2021-09-05T15:13:46.000Z</time>
      </trkpt>
      <trkpt lat="48.96697" lon="-1.06045">
        <ele>41.09545</ele>
        <time>2021-09-05T15:13:54.000Z</time>
      </trkpt>
      <trkpt lat="48.96697" lon="-1.06045">
        <ele>41.09545</ele>
        <time>2021-09-05T15:14:29.000Z</time>
      </trkpt>
      <trkpt lat="48.96693" lon="-1.06046">
        <ele>41.139974</ele>
        <time>2021-09-05T15:24:36.000Z</time>
      </trkpt>
      <trkpt lat="48.9669" lon="-1.06046">
        <ele>41.177044</ele>
        <time>2021-09-05T15:24:44.000Z</time>
      </trkpt>
      <trkpt lat="48.96677" lon="-1.06048">
        <ele>41.334796</ele>
        <time>2021-09-05T15:24:50.000Z</time>
      </trkpt>
      <trkpt lat="48.96654" lon="-1.06052">
        <ele>41.599298</ele>
        <time>2021-09-05T15:24:57.000Z</time>
      </trkpt>
      <trkpt lat="48.96643" lon="-1.06052">
        <ele>41.725228</ele>
        <time>2021-09-05T15:25:01.000Z</time>
      </trkpt>
      <trkpt lat="48.96625" lon="-1.06051">
        <ele>41.8983</ele>
        <time>2021-09-05T15:25:06.000Z</time>
      </trkpt>
      <trkpt lat="48.96603" lon="-1.06047">
        <ele>41.892354</ele>
        <time>2021-09-05T15:25:12.000Z</time>
      </trkpt>
      <trkpt lat="48.96583" lon="-1.06044">
        <ele>41.887253</ele>
        <time>2021-09-05T15:25:17.000Z</time>
      </trkpt>
      <trkpt lat="48.96562" lon="-1.06041">
        <ele>41.881519</ele>
        <time>2021-09-05T15:25:22.000Z</time>
      </trkpt>
      <trkpt lat="48.96558" lon="-1.0604">
        <ele>41.880487</ele>
        <time>2021-09-05T15:25:23.000Z</time>
      </trkpt>
      <trkpt lat="48.9655" lon="-1.06039">
        <ele>41.878374</ele>
        <time>2021-09-05T15:25:25.000Z</time>
      </trkpt>
      <trkpt lat="48.96532" lon="-1.06037">
        <ele>41.873615</ele>
        <time>2021-09-05T15:25:29.000Z</time>
      </trkpt>
      <trkpt lat="48.96508" lon="-1.06035">
        <ele>41.867277</ele>
        <time>2021-09-05T15:25:35.000Z</time>
      </trkpt>
      <trkpt lat="48.96481" lon="-1.06034">
        <ele>41.860282</ele>
        <time>2021-09-05T15:25:42.000Z</time>
      </trkpt>
      <trkpt lat="48.96477" lon="-1.06033">
        <ele>41.859151</ele>
        <time>2021-09-05T15:25:43.000Z</time>
      </trkpt>
      <trkpt lat="48.96459" lon="-1.06029">
        <ele>41.854521</ele>
        <time>2021-09-05T15:25:47.000Z</time>
      </trkpt>
      <trkpt lat="48.96426" lon="-1.06018">
        <ele>41.743496</ele>
        <time>2021-09-05T15:25:55.000Z</time>
      </trkpt>
      <trkpt lat="48.96393" lon="-1.06006">
        <ele>41.582672</ele>
        <time>2021-09-05T15:26:02.000Z</time>
      </trkpt>
      <trkpt lat="48.9636" lon="-1.05993">
        <ele>41.421553</ele>
        <time>2021-09-05T15:26:09.000Z</time>
      </trkpt>
      <trkpt lat="48.9635" lon="-1.05989">
        <ele>41.375194</ele>
        <time>2021-09-05T15:26:11.000Z</time>
      </trkpt>
      <trkpt lat="48.96331" lon="-1.0598">
        <ele>41.283375</ele>
        <time>2021-09-05T15:26:15.000Z</time>
      </trkpt>
      <trkpt lat="48.96318" lon="-1.05974">
        <ele>41.21541</ele>
        <time>2021-09-05T15:26:18.000Z</time>
      </trkpt>
      <trkpt lat="48.96308" lon="-1.05969">
        <ele>41.166543</ele>
        <time>2021-09-05T15:26:20.000Z</time>
      </trkpt>
      <trkpt lat="48.96272" lon="-1.05954">
        <ele>41.004188</ele>
        <time>2021-09-05T15:26:27.000Z</time>
      </trkpt>
      <trkpt lat="48.96242" lon="-1.05943">
        <ele>40.965466</ele>
        <time>2021-09-05T15:26:33.000Z</time>
      </trkpt>
      <trkpt lat="48.9621" lon="-1.05931">
        <ele>40.924671</ele>
        <time>2021-09-05T15:26:40.000Z</time>
      </trkpt>
      <trkpt lat="48.96186" lon="-1.0592">
        <ele>40.892559</ele>
        <time>2021-09-05T15:26:46.000Z</time>
      </trkpt>
      <trkpt lat="48.96157" lon="-1.05902">
        <ele>40.852831</ele>
        <time>2021-09-05T15:26:53.000Z</time>
      </trkpt>
      <trkpt lat="48.96131" lon="-1.05884">
        <ele>40.817592</ele>
        <time>2021-09-05T15:26:59.000Z</time>
      </trkpt>
      <trkpt lat="48.96104" lon="-1.05866">
        <ele>40.784762</ele>
        <time>2021-09-05T15:27:06.000Z</time>
      </trkpt>
      <trkpt lat="48.9609" lon="-1.05857">
        <ele>40.803938</ele>
        <time>2021-09-05T15:27:11.000Z</time>
      </trkpt>
      <trkpt lat="48.96083" lon="-1.05852">
        <ele>40.81395</ele>
        <time>2021-09-05T15:27:13.000Z</time>
      </trkpt>
      <trkpt lat="48.96075" lon="-1.05847">
        <ele>40.824709</ele>
        <time>2021-09-05T15:27:15.000Z</time>
      </trkpt>
      <trkpt lat="48.96056" lon="-1.05835">
        <ele>40.850278</ele>
        <time>2021-09-05T15:27:19.000Z</time>
      </trkpt>
      <trkpt lat="48.96051" lon="-1.05832">
        <ele>40.857035</ele>
        <time>2021-09-05T15:27:20.000Z</time>
      </trkpt>
      <trkpt lat="48.96028" lon="-1.05818">
        <ele>40.888532</ele>
        <time>2021-09-05T15:27:25.000Z</time>
      </trkpt>
      <trkpt lat="48.96003" lon="-1.05801">
        <ele>40.92305</ele>
        <time>2021-09-05T15:27:31.000Z</time>
      </trkpt>
      <trkpt lat="48.95982" lon="-1.05788">
        <ele>40.951791</ele>
        <time>2021-09-05T15:27:36.000Z</time>
      </trkpt>
      <trkpt lat="48.95977" lon="-1.05785">
        <ele>40.95875</ele>
        <time>2021-09-05T15:27:37.000Z</time>
      </trkpt>
      <trkpt lat="48.95957" lon="-1.05774">
        <ele>40.986445</ele>
        <time>2021-09-05T15:27:41.000Z</time>
      </trkpt>
      <trkpt lat="48.95933" lon="-1.05761">
        <ele>41.043044</ele>
        <time>2021-09-05T15:27:47.000Z</time>
      </trkpt>
      <trkpt lat="48.95925" lon="-1.05757">
        <ele>41.090183</ele>
        <time>2021-09-05T15:27:49.000Z</time>
      </trkpt>
      <trkpt lat="48.95908" lon="-1.05743">
        <ele>41.193076</ele>
        <time>2021-09-05T15:27:53.000Z</time>
      </trkpt>
      <trkpt lat="48.9589" lon="-1.05726">
        <ele>41.304002</ele>
        <time>2021-09-05T15:27:57.000Z</time>
      </trkpt>
      <trkpt lat="48.95883" lon="-1.05714">
        <ele>41.361215</ele>
        <time>2021-09-05T15:27:59.000Z</time>
      </trkpt>
      <trkpt lat="48.95868" lon="-1.05691">
        <ele>41.477366</ele>
        <time>2021-09-05T15:28:03.000Z</time>
      </trkpt>
      <trkpt lat="48.95863" lon="-1.05678">
        <ele>41.528014</ele>
        <time>2021-09-05T15:28:05.000Z</time>
      </trkpt>
      <trkpt lat="48.95861" lon="-1.05671">
        <ele>41.556068</ele>
        <time>2021-09-05T15:28:06.000Z</time>
      </trkpt>
      <trkpt lat="48.95858" lon="-1.05657">
        <ele>41.606022</ele>
        <time>2021-09-05T15:28:08.000Z</time>
      </trkpt>
      <trkpt lat="48.95856" lon="-1.05643">
        <ele>41.656993</ele>
        <time>2021-09-05T15:28:10.000Z</time>
      </trkpt>
      <trkpt lat="48.95852" lon="-1.05622">
        <ele>41.732902</ele>
        <time>2021-09-05T15:28:13.000Z</time>
      </trkpt>
      <trkpt lat="48.9585" lon="-1.05599">
        <ele>41.813927</ele>
        <time>2021-09-05T15:28:16.000Z</time>
      </trkpt>
      <trkpt lat="48.95844" lon="-1.05521">
        <ele>42.188697</ele>
        <time>2021-09-05T15:28:26.000Z</time>
      </trkpt>
      <trkpt lat="48.95837" lon="-1.05463">
        <ele>42.578969</ele>
        <time>2021-09-05T15:28:34.000Z</time>
      </trkpt>
      <trkpt lat="48.95832" lon="-1.05433">
        <ele>42.773534</ele>
        <time>2021-09-05T15:28:38.000Z</time>
      </trkpt>
      <trkpt lat="48.95827" lon="-1.05422">
        <ele>42.86593</ele>
        <time>2021-09-05T15:28:40.000Z</time>
      </trkpt>
      <trkpt lat="48.9582" lon="-1.05404">
        <ele>43.002892</ele>
        <time>2021-09-05T15:28:44.000Z</time>
      </trkpt>
      <trkpt lat="48.95818" lon="-1.05398">
        <ele>43.045828</ele>
        <time>2021-09-05T15:28:46.000Z</time>
      </trkpt>
      <trkpt lat="48.95823" lon="-1.05393">
        <ele>43.09558</ele>
        <time>2021-09-05T15:28:48.000Z</time>
      </trkpt>
      <trkpt lat="48.95836" lon="-1.05383">
        <ele>43.246576</ele>
        <time>2021-09-05T15:28:53.000Z</time>
      </trkpt>
      <trkpt lat="48.95846" lon="-1.05373">
        <ele>43.363781</ele>
        <time>2021-09-05T15:28:56.000Z</time>
      </trkpt>
      <trkpt lat="48.95848" lon="-1.05366">
        <ele>43.410847</ele>
        <time>2021-09-05T15:28:57.000Z</time>
      </trkpt>
      <trkpt lat="48.95858" lon="-1.05333">
        <ele>43.651288</ele>
        <time>2021-09-05T15:29:03.000Z</time>
      </trkpt>
      <trkpt lat="48.95864" lon="-1.05332">
        <ele>43.713836</ele>
        <time>2021-09-05T15:29:06.000Z</time>
      </trkpt>
      <trkpt lat="48.95876" lon="-1.05335">
        <ele>43.765676</ele>
        <time>2021-09-05T15:29:08.000Z</time>
      </trkpt>
      <trkpt lat="48.9588" lon="-1.05332">
        <ele>43.772966</ele>
        <time>2021-09-05T15:29:09.000Z</time>
      </trkpt>
      <trkpt lat="48.95882" lon="-1.05326">
        <ele>43.779523</ele>
        <time>2021-09-05T15:29:10.000Z</time>
      </trkpt>
      <trkpt lat="48.95885" lon="-1.05313">
        <ele>43.793644</ele>
        <time>2021-09-05T15:29:12.000Z</time>
      </trkpt>
      <trkpt lat="48.95892" lon="-1.05277">
        <ele>43.832487</ele>
        <time>2021-09-05T15:29:17.000Z</time>
      </trkpt>
      <trkpt lat="48.95893" lon="-1.05269">
        <ele>43.840839</ele>
        <time>2021-09-05T15:29:18.000Z</time>
      </trkpt>
      <trkpt lat="48.95894" lon="-1.05261">
        <ele>43.849294</ele>
        <time>2021-09-05T15:29:20.000Z</time>
      </trkpt>
      <trkpt lat="48.959" lon="-1.05233">
        <ele>43.880429</ele>
        <time>2021-09-05T15:29:23.000Z</time>
      </trkpt>
      <trkpt lat="48.95903" lon="-1.05219">
        <ele>43.895341</ele>
        <time>2021-09-05T15:29:25.000Z</time>
      </trkpt>
      <trkpt lat="48.95912" lon="-1.05181">
        <ele>43.936638</ele>
        <time>2021-09-05T15:29:30.000Z</time>
      </trkpt>
      <trkpt lat="48.95926" lon="-1.0512">
        <ele>44.003341</ele>
        <time>2021-09-05T15:29:38.000Z</time>
      </trkpt>
      <trkpt lat="48.95945" lon="-1.05053">
        <ele>44.164647</ele>
        <time>2021-09-05T15:29:47.000Z</time>
      </trkpt>
      <trkpt lat="48.95966" lon="-1.05016">
        <ele>44.31494</ele>
        <time>2021-09-05T15:29:53.000Z</time>
      </trkpt>
      <trkpt lat="48.95966" lon="-1.05016">
        <ele>44.31494</ele>
        <time>2021-09-05T15:29:54.000Z</time>
      </trkpt>
      <trkpt lat="48.9598" lon="-1.04997">
        <ele>44.400606</ele>
        <time>2021-09-05T15:29:58.000Z</time>
      </trkpt>
      <trkpt lat="48.96005" lon="-1.04974">
        <ele>44.540455</ele>
        <time>2021-09-05T15:30:04.000Z</time>
      </trkpt>
      <trkpt lat="48.96026" lon="-1.04964">
        <ele>44.641317</ele>
        <time>2021-09-05T15:30:10.000Z</time>
      </trkpt>
      <trkpt lat="48.96036" lon="-1.04961">
        <ele>44.690872</ele>
        <time>2021-09-05T15:30:14.000Z</time>
      </trkpt>
      <trkpt lat="48.96039" lon="-1.04961">
        <ele>44.70454</ele>
        <time>2021-09-05T15:30:15.000Z</time>
      </trkpt>
      <trkpt lat="48.96049" lon="-1.0496">
        <ele>44.751192</ele>
        <time>2021-09-05T15:30:18.000Z</time>
      </trkpt>
      <trkpt lat="48.9607" lon="-1.04965">
        <ele>44.853702</ele>
        <time>2021-09-05T15:30:23.000Z</time>
      </trkpt>
      <trkpt lat="48.96075" lon="-1.04967">
        <ele>44.87786</ele>
        <time>2021-09-05T15:30:25.000Z</time>
      </trkpt>
      <trkpt lat="48.9609" lon="-1.04974">
        <ele>44.918473</ele>
        <time>2021-09-05T15:30:27.000Z</time>
      </trkpt>
      <trkpt lat="48.96094" lon="-1.04979">
        <ele>44.932048</ele>
        <time>2021-09-05T15:30:28.000Z</time>
      </trkpt>
      <trkpt lat="48.96101" lon="-1.04991">
        <ele>44.957579</ele>
        <time>2021-09-05T15:30:30.000Z</time>
      </trkpt>
      <trkpt lat="48.9611" lon="-1.05002">
        <ele>44.98701</ele>
        <time>2021-09-05T15:30:33.000Z</time>
      </trkpt>
      <trkpt lat="48.96132" lon="-1.05011">
        <ele>45.042974</ele>
        <time>2021-09-05T15:30:38.000Z</time>
      </trkpt>
      <trkpt lat="48.96149" lon="-1.05016">
        <ele>45.087845</ele>
        <time>2021-09-05T15:30:42.000Z</time>
      </trkpt>
      <trkpt lat="48.96157" lon="-1.05018">
        <ele>45.107682</ele>
        <time>2021-09-05T15:30:43.000Z</time>
      </trkpt>
      <trkpt lat="48.96165" lon="-1.05019">
        <ele>45.126502</ele>
        <time>2021-09-05T15:30:45.000Z</time>
      </trkpt>
      <trkpt lat="48.9618" lon="-1.05023">
        <ele>45.16516</ele>
        <time>2021-09-05T15:30:48.000Z</time>
      </trkpt>
      <trkpt lat="48.96185" lon="-1.05025">
        <ele>45.178128</ele>
        <time>2021-09-05T15:30:49.000Z</time>
      </trkpt>
      <trkpt lat="48.96185" lon="-1.05025">
        <ele>45.178128</ele>
        <time>2021-09-05T15:30:50.000Z</time>
      </trkpt>
      <trkpt lat="48.96207" lon="-1.05022">
        <ele>45.232774</ele>
        <time>2021-09-05T15:30:53.000Z</time>
      </trkpt>
      <trkpt lat="48.96212" lon="-1.05021">
        <ele>45.245941</ele>
        <time>2021-09-05T15:30:55.000Z</time>
      </trkpt>
      <trkpt lat="48.96223" lon="-1.05018">
        <ele>45.273585</ele>
        <time>2021-09-05T15:30:56.000Z</time>
      </trkpt>
      <trkpt lat="48.96248" lon="-1.05003">
        <ele>45.286885</ele>
        <time>2021-09-05T15:31:01.000Z</time>
      </trkpt>
      <trkpt lat="48.96267" lon="-1.04967">
        <ele>44.817712</ele>
        <time>2021-09-05T15:31:07.000Z</time>
      </trkpt>
      <trkpt lat="48.96276" lon="-1.04944">
        <ele>44.552095</ele>
        <time>2021-09-05T15:31:12.000Z</time>
      </trkpt>
      <trkpt lat="48.96282" lon="-1.04926">
        <ele>44.352381</ele>
        <time>2021-09-05T15:31:14.000Z</time>
      </trkpt>
      <trkpt lat="48.96287" lon="-1.04914">
        <ele>44.215581</ele>
        <time>2021-09-05T15:31:17.000Z</time>
      </trkpt>
      <trkpt lat="48.9629" lon="-1.04901">
        <ele>44.075804</ele>
        <time>2021-09-05T15:31:18.000Z</time>
      </trkpt>
      <trkpt lat="48.96293" lon="-1.04887">
        <ele>43.929853</ele>
        <time>2021-09-05T15:31:20.000Z</time>
      </trkpt>
      <trkpt lat="48.96293" lon="-1.04887">
        <ele>43.929853</ele>
        <time>2021-09-05T15:31:21.000Z</time>
      </trkpt>
      <trkpt lat="48.96297" lon="-1.04858">
        <ele>43.628745</ele>
        <time>2021-09-05T15:31:25.000Z</time>
      </trkpt>
      <trkpt lat="48.963" lon="-1.0483">
        <ele>43.351339</ele>
        <time>2021-09-05T15:31:28.000Z</time>
      </trkpt>
      <trkpt lat="48.96299" lon="-1.04797">
        <ele>43.020033</ele>
        <time>2021-09-05T15:31:33.000Z</time>
      </trkpt>
      <trkpt lat="48.96299" lon="-1.04797">
        <ele>43.020033</ele>
        <time>2021-09-05T15:31:34.000Z</time>
      </trkpt>
      <trkpt lat="48.96297" lon="-1.04774">
        <ele>42.785684</ele>
        <time>2021-09-05T15:31:36.000Z</time>
      </trkpt>
      <trkpt lat="48.96296" lon="-1.04764">
        <ele>42.688191</ele>
        <time>2021-09-05T15:31:37.000Z</time>
      </trkpt>
      <trkpt lat="48.96297" lon="-1.04718">
        <ele>41.708315</ele>
        <time>2021-09-05T15:31:43.000Z</time>
      </trkpt>
      <trkpt lat="48.96294" lon="-1.04688">
        <ele>40.990176</ele>
        <time>2021-09-05T15:31:46.000Z</time>
      </trkpt>
      <trkpt lat="48.96294" lon="-1.04688">
        <ele>40.990176</ele>
        <time>2021-09-05T15:31:47.000Z</time>
      </trkpt>
      <trkpt lat="48.96285" lon="-1.04639">
        <ele>39.775582</ele>
        <time>2021-09-05T15:31:52.000Z</time>
      </trkpt>
      <trkpt lat="48.96273" lon="-1.04585">
        <ele>38.422341</ele>
        <time>2021-09-05T15:31:59.000Z</time>
      </trkpt>
      <trkpt lat="48.96262" lon="-1.04535">
        <ele>37.153042</ele>
        <time>2021-09-05T15:32:05.000Z</time>
      </trkpt>
      <trkpt lat="48.96259" lon="-1.0452">
        <ele>36.776447</ele>
        <time>2021-09-05T15:32:07.000Z</time>
      </trkpt>
      <trkpt lat="48.96253" lon="-1.04499">
        <ele>36.228595</ele>
        <time>2021-09-05T15:32:10.000Z</time>
      </trkpt>
      <trkpt lat="48.9625" lon="-1.04486">
        <ele>36.009764</ele>
        <time>2021-09-05T15:32:12.000Z</time>
      </trkpt>
      <trkpt lat="48.96242" lon="-1.04458">
        <ele>35.823288</ele>
        <time>2021-09-05T15:32:16.000Z</time>
      </trkpt>
      <trkpt lat="48.96238" lon="-1.04445">
        <ele>35.734338</ele>
        <time>2021-09-05T15:32:18.000Z</time>
      </trkpt>
      <trkpt lat="48.96234" lon="-1.04431">
        <ele>35.636811</ele>
        <time>2021-09-05T15:32:20.000Z</time>
      </trkpt>
      <trkpt lat="48.96214" lon="-1.04381">
        <ele>35.273807</ele>
        <time>2021-09-05T15:32:27.000Z</time>
      </trkpt>
      <trkpt lat="48.96196" lon="-1.04344">
        <ele>34.986691</ele>
        <time>2021-09-05T15:32:33.000Z</time>
      </trkpt>
      <trkpt lat="48.96185" lon="-1.04324">
        <ele>34.821332</ele>
        <time>2021-09-05T15:32:38.000Z</time>
      </trkpt>
      <trkpt lat="48.96179" lon="-1.04313">
        <ele>34.729656</ele>
        <time>2021-09-05T15:32:44.000Z</time>
      </trkpt>
      <trkpt lat="48.96176" lon="-1.0431">
        <ele>34.696971</ele>
        <time>2021-09-05T15:32:50.000Z</time>
      </trkpt>
      <trkpt lat="48.96168" lon="-1.04299">
        <ele>34.597854</ele>
        <time>2021-09-05T15:33:10.000Z</time>
      </trkpt>
      <trkpt lat="48.96161" lon="-1.0429">
        <ele>34.508167</ele>
        <time>2021-09-05T15:33:14.000Z</time>
      </trkpt>
      <trkpt lat="48.96144" lon="-1.04269">
        <ele>34.349922</ele>
        <time>2021-09-05T15:33:19.000Z</time>
      </trkpt>
      <trkpt lat="48.96121" lon="-1.04245">
        <ele>34.403576</ele>
        <time>2021-09-05T15:33:25.000Z</time>
      </trkpt>
      <trkpt lat="48.96116" lon="-1.04242">
        <ele>34.41311</ele>
        <time>2021-09-05T15:33:27.000Z</time>
      </trkpt>
      <trkpt lat="48.96088" lon="-1.04225">
        <ele>34.471448</ele>
        <time>2021-09-05T15:33:32.000Z</time>
      </trkpt>
      <trkpt lat="48.96057" lon="-1.04211">
        <ele>34.532984</ele>
        <time>2021-09-05T15:33:38.000Z</time>
      </trkpt>
      <trkpt lat="48.9603" lon="-1.04204">
        <ele>34.584294</ele>
        <time>2021-09-05T15:33:43.000Z</time>
      </trkpt>
      <trkpt lat="48.96011" lon="-1.04194">
        <ele>34.623518</ele>
        <time>2021-09-05T15:33:47.000Z</time>
      </trkpt>
      <trkpt lat="48.96002" lon="-1.04188">
        <ele>34.641195</ele>
        <time>2021-09-05T15:33:49.000Z</time>
      </trkpt>
      <trkpt lat="48.95994" lon="-1.04178">
        <ele>34.660767</ele>
        <time>2021-09-05T15:33:51.000Z</time>
      </trkpt>
      <trkpt lat="48.95983" lon="-1.04161">
        <ele>34.69996</ele>
        <time>2021-09-05T15:33:54.000Z</time>
      </trkpt>
      <trkpt lat="48.95952" lon="-1.04111">
        <ele>34.884769</ele>
        <time>2021-09-05T15:34:02.000Z</time>
      </trkpt>
      <trkpt lat="48.95948" lon="-1.04106">
        <ele>34.90686</ele>
        <time>2021-09-05T15:34:03.000Z</time>
      </trkpt>
      <trkpt lat="48.95938" lon="-1.04098">
        <ele>34.953409</ele>
        <time>2021-09-05T15:34:06.000Z</time>
      </trkpt>
      <trkpt lat="48.95906" lon="-1.04085">
        <ele>35.089698</ele>
        <time>2021-09-05T15:34:11.000Z</time>
      </trkpt>
      <trkpt lat="48.95901" lon="-1.04085">
        <ele>35.111156</ele>
        <time>2021-09-05T15:34:12.000Z</time>
      </trkpt>
      <trkpt lat="48.95872" lon="-1.04086">
        <ele>35.22739</ele>
        <time>2021-09-05T15:34:18.000Z</time>
      </trkpt>
      <trkpt lat="48.95822" lon="-1.04093">
        <ele>35.448021</ele>
        <time>2021-09-05T15:34:27.000Z</time>
      </trkpt>
      <trkpt lat="48.95812" lon="-1.04094">
        <ele>35.536407</ele>
        <time>2021-09-05T15:34:28.000Z</time>
      </trkpt>
      <trkpt lat="48.95802" lon="-1.04091">
        <ele>35.623161</ele>
        <time>2021-09-05T15:34:30.000Z</time>
      </trkpt>
      <trkpt lat="48.95797" lon="-1.04089">
        <ele>35.668287</ele>
        <time>2021-09-05T15:34:32.000Z</time>
      </trkpt>
      <trkpt lat="48.95776" lon="-1.04082">
        <ele>35.850725</ele>
        <time>2021-09-05T15:34:36.000Z</time>
      </trkpt>
      <trkpt lat="48.95766" lon="-1.04078">
        <ele>35.945567</ele>
        <time>2021-09-05T15:34:37.000Z</time>
      </trkpt>
      <trkpt lat="48.95746" lon="-1.04066">
        <ele>36.125973</ele>
        <time>2021-09-05T15:34:41.000Z</time>
      </trkpt>
      <trkpt lat="48.95737" lon="-1.04058">
        <ele>36.220757</ele>
        <time>2021-09-05T15:34:43.000Z</time>
      </trkpt>
      <trkpt lat="48.95732" lon="-1.04054">
        <ele>36.26505</ele>
        <time>2021-09-05T15:34:45.000Z</time>
      </trkpt>
      <trkpt lat="48.95718" lon="-1.04041">
        <ele>36.40752</ele>
        <time>2021-09-05T15:34:47.000Z</time>
      </trkpt>
      <trkpt lat="48.95676" lon="-1.04002">
        <ele>36.837737</ele>
        <time>2021-09-05T15:34:57.000Z</time>
      </trkpt>
      <trkpt lat="48.95662" lon="-1.03982">
        <ele>37.057431</ele>
        <time>2021-09-05T15:34:59.000Z</time>
      </trkpt>
      <trkpt lat="48.95664" lon="-1.03975">
        <ele>37.205302</ele>
        <time>2021-09-05T15:35:00.000Z</time>
      </trkpt>
      <trkpt lat="48.95667" lon="-1.03956">
        <ele>37.677847</ele>
        <time>2021-09-05T15:35:04.000Z</time>
      </trkpt>
      <trkpt lat="48.95673" lon="-1.0392">
        <ele>38.556434</ele>
        <time>2021-09-05T15:35:12.000Z</time>
      </trkpt>
      <trkpt lat="48.95681" lon="-1.03875">
        <ele>39.627223</ele>
        <time>2021-09-05T15:35:21.000Z</time>
      </trkpt>
      <trkpt lat="48.95686" lon="-1.03847">
        <ele>40.314535</ele>
        <time>2021-09-05T15:35:28.000Z</time>
      </trkpt>
      <trkpt lat="48.95692" lon="-1.03814">
        <ele>41.106308</ele>
        <time>2021-09-05T15:35:35.000Z</time>
      </trkpt>
      <trkpt lat="48.95698" lon="-1.03784">
        <ele>41.840207</ele>
        <time>2021-09-05T15:35:43.000Z</time>
      </trkpt>
      <trkpt lat="48.95701" lon="-1.03763">
        <ele>42.353898</ele>
        <time>2021-09-05T15:35:50.000Z</time>
      </trkpt>
      <trkpt lat="48.95703" lon="-1.03753">
        <ele>42.594022</ele>
        <time>2021-09-05T15:35:52.000Z</time>
      </trkpt>
      <trkpt lat="48.95703" lon="-1.03747">
        <ele>42.743624</ele>
        <time>2021-09-05T15:35:54.000Z</time>
      </trkpt>
      <trkpt lat="48.95693" lon="-1.03743">
        <ele>43.113897</ele>
        <time>2021-09-05T15:35:58.000Z</time>
      </trkpt>
      <trkpt lat="48.95675" lon="-1.03738">
        <ele>43.591446</ele>
        <time>2021-09-05T15:36:03.000Z</time>
      </trkpt>
      <trkpt lat="48.95667" lon="-1.03735">
        <ele>43.73743</ele>
        <time>2021-09-05T15:36:04.000Z</time>
      </trkpt>
      <trkpt lat="48.95647" lon="-1.03729">
        <ele>44.116046</ele>
        <time>2021-09-05T15:36:11.000Z</time>
      </trkpt>
      <trkpt lat="48.95603" lon="-1.0371">
        <ele>44.955137</ele>
        <time>2021-09-05T15:36:20.000Z</time>
      </trkpt>
      <trkpt lat="48.95571" lon="-1.0369">
        <ele>45.598538</ele>
        <time>2021-09-05T15:36:27.000Z</time>
      </trkpt>
      <trkpt lat="48.95559" lon="-1.03681">
        <ele>45.864686</ele>
        <time>2021-09-05T15:36:30.000Z</time>
      </trkpt>
      <trkpt lat="48.95546" lon="-1.0367">
        <ele>46.12779</ele>
        <time>2021-09-05T15:36:33.000Z</time>
      </trkpt>
      <trkpt lat="48.95525" lon="-1.03646">
        <ele>46.619263</ele>
        <time>2021-09-05T15:36:39.000Z</time>
      </trkpt>
      <trkpt lat="48.95512" lon="-1.03632">
        <ele>47.02787</ele>
        <time>2021-09-05T15:36:45.000Z</time>
      </trkpt>
      <trkpt lat="48.95494" lon="-1.03612">
        <ele>47.701008</ele>
        <time>2021-09-05T15:36:54.000Z</time>
      </trkpt>
      <trkpt lat="48.95478" lon="-1.03595">
        <ele>48.278809</ele>
        <time>2021-09-05T15:37:01.000Z</time>
      </trkpt>
      <trkpt lat="48.95465" lon="-1.03581">
        <ele>48.767386</ele>
        <time>2021-09-05T15:37:08.000Z</time>
      </trkpt>
      <trkpt lat="48.9546" lon="-1.03578">
        <ele>48.904442</ele>
        <time>2021-09-05T15:37:10.000Z</time>
      </trkpt>
      <trkpt lat="48.95449" lon="-1.0357">
        <ele>49.272882</ele>
        <time>2021-09-05T15:37:16.000Z</time>
      </trkpt>
      <trkpt lat="48.95433" lon="-1.03557">
        <ele>49.825542</ele>
        <time>2021-09-05T15:37:23.000Z</time>
      </trkpt>
      <trkpt lat="48.95413" lon="-1.03544">
        <ele>50.466082</ele>
        <time>2021-09-05T15:37:30.000Z</time>
      </trkpt>
      <trkpt lat="48.95397" lon="-1.03535">
        <ele>50.976097</ele>
        <time>2021-09-05T15:37:35.000Z</time>
      </trkpt>
      <trkpt lat="48.95374" lon="-1.03522">
        <ele>51.735158</ele>
        <time>2021-09-05T15:37:42.000Z</time>
      </trkpt>
      <trkpt lat="48.95367" lon="-1.03512">
        <ele>52.007503</ele>
        <time>2021-09-05T15:37:44.000Z</time>
      </trkpt>
      <trkpt lat="48.95359" lon="-1.035">
        <ele>52.121456</ele>
        <time>2021-09-05T15:37:46.000Z</time>
      </trkpt>
      <trkpt lat="48.95349" lon="-1.0349">
        <ele>52.140749</ele>
        <time>2021-09-05T15:37:48.000Z</time>
      </trkpt>
      <trkpt lat="48.95336" lon="-1.0348">
        <ele>52.161846</ele>
        <time>2021-09-05T15:37:50.000Z</time>
      </trkpt>
      <trkpt lat="48.95323" lon="-1.03468">
        <ele>52.18578</ele>
        <time>2021-09-05T15:37:53.000Z</time>
      </trkpt>
      <trkpt lat="48.95316" lon="-1.03461">
        <ele>52.198108</ele>
        <time>2021-09-05T15:37:54.000Z</time>
      </trkpt>
      <trkpt lat="48.95272" lon="-1.03411">
        <ele>52.282094</ele>
        <time>2021-09-05T15:37:59.000Z</time>
      </trkpt>
      <trkpt lat="48.95265" lon="-1.03403">
        <ele>52.295393</ele>
        <time>2021-09-05T15:38:00.000Z</time>
      </trkpt>
      <trkpt lat="48.95237" lon="-1.03362">
        <ele>52.354409</ele>
        <time>2021-09-05T15:38:05.000Z</time>
      </trkpt>
      <trkpt lat="48.95214" lon="-1.03327">
        <ele>52.240919</ele>
        <time>2021-09-05T15:38:10.000Z</time>
      </trkpt>
      <trkpt lat="48.95199" lon="-1.03315">
        <ele>52.052336</ele>
        <time>2021-09-05T15:38:13.000Z</time>
      </trkpt>
      <trkpt lat="48.95194" lon="-1.03311">
        <ele>51.989912</ele>
        <time>2021-09-05T15:38:15.000Z</time>
      </trkpt>
      <trkpt lat="48.95175" lon="-1.0329">
        <ele>51.740182</ele>
        <time>2021-09-05T15:38:19.000Z</time>
      </trkpt>
      <trkpt lat="48.95171" lon="-1.03285">
        <ele>51.677647</ele>
        <time>2021-09-05T15:38:20.000Z</time>
      </trkpt>
      <trkpt lat="48.95162" lon="-1.03275">
        <ele>51.553455</ele>
        <time>2021-09-05T15:38:21.000Z</time>
      </trkpt>
      <trkpt lat="48.95153" lon="-1.03264">
        <ele>51.429696</ele>
        <time>2021-09-05T15:38:24.000Z</time>
      </trkpt>
      <trkpt lat="48.95143" lon="-1.03253">
        <ele>51.292822</ele>
        <time>2021-09-05T15:38:25.000Z</time>
      </trkpt>
      <trkpt lat="48.95133" lon="-1.03241">
        <ele>51.149823</ele>
        <time>2021-09-05T15:38:27.000Z</time>
      </trkpt>
      <trkpt lat="48.9512" lon="-1.0323">
        <ele>50.983452</ele>
        <time>2021-09-05T15:38:29.000Z</time>
      </trkpt>
      <trkpt lat="48.95107" lon="-1.03222">
        <ele>50.83671</ele>
        <time>2021-09-05T15:38:32.000Z</time>
      </trkpt>
      <trkpt lat="48.95083" lon="-1.03206">
        <ele>50.544799</ele>
        <time>2021-09-05T15:38:35.000Z</time>
      </trkpt>
      <trkpt lat="48.95065" lon="-1.03187">
        <ele>50.286972</ele>
        <time>2021-09-05T15:38:38.000Z</time>
      </trkpt>
      <trkpt lat="48.95034" lon="-1.03142">
        <ele>49.731802</ele>
        <time>2021-09-05T15:38:44.000Z</time>
      </trkpt>
      <trkpt lat="48.95018" lon="-1.03124">
        <ele>49.46533</ele>
        <time>2021-09-05T15:38:47.000Z</time>
      </trkpt>
      <trkpt lat="48.95012" lon="-1.03118">
        <ele>49.374426</ele>
        <time>2021-09-05T15:38:48.000Z</time>
      </trkpt>
      <trkpt lat="48.95006" lon="-1.03112">
        <ele>49.288202</ele>
        <time>2021-09-05T15:38:49.000Z</time>
      </trkpt>
      <trkpt lat="48.9499" lon="-1.03095">
        <ele>49.026904</ele>
        <time>2021-09-05T15:38:52.000Z</time>
      </trkpt>
      <trkpt lat="48.94956" lon="-1.03087">
        <ele>48.582895</ele>
        <time>2021-09-05T15:38:57.000Z</time>
      </trkpt>
      <trkpt lat="48.94907" lon="-1.03081">
        <ele>48.001708</ele>
        <time>2021-09-05T15:39:05.000Z</time>
      </trkpt>
      <trkpt lat="48.94878" lon="-1.03076">
        <ele>47.819672</ele>
        <time>2021-09-05T15:39:11.000Z</time>
      </trkpt>
      <trkpt lat="48.94863" lon="-1.03067">
        <ele>47.720062</ele>
        <time>2021-09-05T15:39:13.000Z</time>
      </trkpt>
      <trkpt lat="48.94855" lon="-1.03056">
        <ele>47.654019</ele>
        <time>2021-09-05T15:39:16.000Z</time>
      </trkpt>
      <trkpt lat="48.94847" lon="-1.03047">
        <ele>47.590829</ele>
        <time>2021-09-05T15:39:17.000Z</time>
      </trkpt>
      <trkpt lat="48.94839" lon="-1.03038">
        <ele>47.528589</ele>
        <time>2021-09-05T15:39:19.000Z</time>
      </trkpt>
      <trkpt lat="48.94823" lon="-1.03021">
        <ele>47.404618</ele>
        <time>2021-09-05T15:39:23.000Z</time>
      </trkpt>
      <trkpt lat="48.94801" lon="-1.03006">
        <ele>47.254265</ele>
        <time>2021-09-05T15:39:29.000Z</time>
      </trkpt>
      <trkpt lat="48.94786" lon="-1.02998">
        <ele>47.158521</ele>
        <time>2021-09-05T15:39:31.000Z</time>
      </trkpt>
      <trkpt lat="48.94765" lon="-1.02991">
        <ele>47.020642</ele>
        <time>2021-09-05T15:39:35.000Z</time>
      </trkpt>
      <trkpt lat="48.94736" lon="-1.02973">
        <ele>46.636309</ele>
        <time>2021-09-05T15:39:40.000Z</time>
      </trkpt>
      <trkpt lat="48.94731" lon="-1.02969">
        <ele>46.533382</ele>
        <time>2021-09-05T15:39:41.000Z</time>
      </trkpt>
      <trkpt lat="48.94721" lon="-1.02962">
        <ele>46.343228</ele>
        <time>2021-09-05T15:39:43.000Z</time>
      </trkpt>
      <trkpt lat="48.94715" lon="-1.02958">
        <ele>46.233127</ele>
        <time>2021-09-05T15:39:44.000Z</time>
      </trkpt>
      <trkpt lat="48.94689" lon="-1.02941">
        <ele>45.748324</ele>
        <time>2021-09-05T15:39:48.000Z</time>
      </trkpt>
      <trkpt lat="48.94683" lon="-1.02937">
        <ele>45.634186</ele>
        <time>2021-09-05T15:39:49.000Z</time>
      </trkpt>
      <trkpt lat="48.94666" lon="-1.02926">
        <ele>45.31913</ele>
        <time>2021-09-05T15:39:52.000Z</time>
      </trkpt>
      <trkpt lat="48.94661" lon="-1.02923">
        <ele>45.233532</ele>
        <time>2021-09-05T15:39:53.000Z</time>
      </trkpt>
      <trkpt lat="48.94656" lon="-1.02922">
        <ele>45.144398</ele>
        <time>2021-09-05T15:39:54.000Z</time>
      </trkpt>
      <trkpt lat="48.94641" lon="-1.02917">
        <ele>44.891575</ele>
        <time>2021-09-05T15:39:57.000Z</time>
      </trkpt>
      <trkpt lat="48.94621" lon="-1.02908">
        <ele>44.533569</ele>
        <time>2021-09-05T15:40:01.000Z</time>
      </trkpt>
      <trkpt lat="48.94616" lon="-1.02906">
        <ele>44.438919</ele>
        <time>2021-09-05T15:40:03.000Z</time>
      </trkpt>
      <trkpt lat="48.94611" lon="-1.02903">
        <ele>44.348183</ele>
        <time>2021-09-05T15:40:04.000Z</time>
      </trkpt>
      <trkpt lat="48.94587" lon="-1.02909">
        <ele>43.931858</ele>
        <time>2021-09-05T15:40:08.000Z</time>
      </trkpt>
      <trkpt lat="48.94537" lon="-1.02932">
        <ele>43.487541</ele>
        <time>2021-09-05T15:40:17.000Z</time>
      </trkpt>
      <trkpt lat="48.94507" lon="-1.02955">
        <ele>43.227638</ele>
        <time>2021-09-05T15:40:22.000Z</time>
      </trkpt>
      <trkpt lat="48.94502" lon="-1.0296">
        <ele>43.183558</ele>
        <time>2021-09-05T15:40:23.000Z</time>
      </trkpt>
      <trkpt lat="48.94497" lon="-1.02964">
        <ele>43.138818</ele>
        <time>2021-09-05T15:40:25.000Z</time>
      </trkpt>
      <trkpt lat="48.94485" lon="-1.0298">
        <ele>43.011099</ele>
        <time>2021-09-05T15:40:27.000Z</time>
      </trkpt>
      <trkpt lat="48.94452" lon="-1.03028">
        <ele>42.660108</ele>
        <time>2021-09-05T15:40:35.000Z</time>
      </trkpt>
      <trkpt lat="48.94417" lon="-1.03082">
        <ele>42.64465</ele>
        <time>2021-09-05T15:40:44.000Z</time>
      </trkpt>
      <trkpt lat="48.94379" lon="-1.03133">
        <ele>43.011893</ele>
        <time>2021-09-05T15:40:53.000Z</time>
      </trkpt>
      <trkpt lat="48.94374" lon="-1.03138">
        <ele>43.052103</ele>
        <time>2021-09-05T15:40:54.000Z</time>
      </trkpt>
      <trkpt lat="48.94356" lon="-1.03159">
        <ele>43.218729</ele>
        <time>2021-09-05T15:40:58.000Z</time>
      </trkpt>
      <trkpt lat="48.94323" lon="-1.0319">
        <ele>43.502669</ele>
        <time>2021-09-05T15:41:05.000Z</time>
      </trkpt>
      <trkpt lat="48.94318" lon="-1.03192">
        <ele>43.540141</ele>
        <time>2021-09-05T15:41:06.000Z</time>
      </trkpt>
      <trkpt lat="48.94313" lon="-1.03194">
        <ele>43.576203</ele>
        <time>2021-09-05T15:41:07.000Z</time>
      </trkpt>
      <trkpt lat="48.94287" lon="-1.03204">
        <ele>43.772645</ele>
        <time>2021-09-05T15:41:12.000Z</time>
      </trkpt>
      <trkpt lat="48.94248" lon="-1.03211">
        <ele>44.044993</ele>
        <time>2021-09-05T15:41:19.000Z</time>
      </trkpt>
      <trkpt lat="48.94222" lon="-1.03215">
        <ele>44.222554</ele>
        <time>2021-09-05T15:41:25.000Z</time>
      </trkpt>
      <trkpt lat="48.94211" lon="-1.03229">
        <ele>44.322546</ele>
        <time>2021-09-05T15:41:29.000Z</time>
      </trkpt>
      <trkpt lat="48.942" lon="-1.03238">
        <ele>44.408932</ele>
        <time>2021-09-05T15:41:32.000Z</time>
      </trkpt>
      <trkpt lat="48.9419" lon="-1.0324">
        <ele>44.476724</ele>
        <time>2021-09-05T15:41:35.000Z</time>
      </trkpt>
      <trkpt lat="48.94176" lon="-1.03246">
        <ele>44.577251</ele>
        <time>2021-09-05T15:41:37.000Z</time>
      </trkpt>
      <trkpt lat="48.94158" lon="-1.03257">
        <ele>44.7122</ele>
        <time>2021-09-05T15:41:41.000Z</time>
      </trkpt>
      <trkpt lat="48.94148" lon="-1.03263">
        <ele>44.786182</ele>
        <time>2021-09-05T15:41:44.000Z</time>
      </trkpt>
      <trkpt lat="48.94133" lon="-1.03275">
        <ele>44.898261</ele>
        <time>2021-09-05T15:41:46.000Z</time>
      </trkpt>
      <trkpt lat="48.94107" lon="-1.03299">
        <ele>45.138268</ele>
        <time>2021-09-05T15:41:52.000Z</time>
      </trkpt>
      <trkpt lat="48.94103" lon="-1.03303">
        <ele>45.182682</ele>
        <time>2021-09-05T15:41:53.000Z</time>
      </trkpt>
      <trkpt lat="48.94071" lon="-1.0333">
        <ele>45.501578</ele>
        <time>2021-09-05T15:42:00.000Z</time>
      </trkpt>
      <trkpt lat="48.94067" lon="-1.03332">
        <ele>45.540593</ele>
        <time>2021-09-05T15:42:01.000Z</time>
      </trkpt>
      <trkpt lat="48.94058" lon="-1.03335">
        <ele>45.624629</ele>
        <time>2021-09-05T15:42:03.000Z</time>
      </trkpt>
      <trkpt lat="48.94053" lon="-1.03337">
        <ele>45.667937</ele>
        <time>2021-09-05T15:42:04.000Z</time>
      </trkpt>
      <trkpt lat="48.94001" lon="-1.03354">
        <ele>46.134737</ele>
        <time>2021-09-05T15:42:14.000Z</time>
      </trkpt>
      <trkpt lat="48.93953" lon="-1.03367">
        <ele>46.562359</ele>
        <time>2021-09-05T15:42:23.000Z</time>
      </trkpt>
      <trkpt lat="48.93918" lon="-1.03387">
        <ele>47.115887</ele>
        <time>2021-09-05T15:42:30.000Z</time>
      </trkpt>
      <trkpt lat="48.93913" lon="-1.03391">
        <ele>47.193366</ele>
        <time>2021-09-05T15:42:31.000Z</time>
      </trkpt>
      <trkpt lat="48.93898" lon="-1.03397">
        <ele>47.433221</ele>
        <time>2021-09-05T15:42:34.000Z</time>
      </trkpt>
      <trkpt lat="48.93888" lon="-1.03396">
        <ele>47.583319</ele>
        <time>2021-09-05T15:42:36.000Z</time>
      </trkpt>
      <trkpt lat="48.9388" lon="-1.03386">
        <ele>47.740244</ele>
        <time>2021-09-05T15:42:38.000Z</time>
      </trkpt>
      <trkpt lat="48.93876" lon="-1.03381">
        <ele>47.816807</ele>
        <time>2021-09-05T15:42:39.000Z</time>
      </trkpt>
      <trkpt lat="48.93869" lon="-1.03359">
        <ele>48.057379</ele>
        <time>2021-09-05T15:42:42.000Z</time>
      </trkpt>
      <trkpt lat="48.93868" lon="-1.03346">
        <ele>48.190202</ele>
        <time>2021-09-05T15:42:44.000Z</time>
      </trkpt>
      <trkpt lat="48.93866" lon="-1.03307">
        <ele>48.579251</ele>
        <time>2021-09-05T15:42:51.000Z</time>
      </trkpt>
      <trkpt lat="48.93867" lon="-1.03267">
        <ele>48.971429</ele>
        <time>2021-09-05T15:43:00.000Z</time>
      </trkpt>
      <trkpt lat="48.93867" lon="-1.03247">
        <ele>49.170503</ele>
        <time>2021-09-05T15:43:05.000Z</time>
      </trkpt>
      <trkpt lat="48.93867" lon="-1.03241">
        <ele>49.231224</ele>
        <time>2021-09-05T15:43:07.000Z</time>
      </trkpt>
      <trkpt lat="48.93867" lon="-1.03234">
        <ele>49.301941</ele>
        <time>2021-09-05T15:43:10.000Z</time>
      </trkpt>
      <trkpt lat="48.93867" lon="-1.03233">
        <ele>49.308907</ele>
        <time>2021-09-05T15:43:15.000Z</time>
      </trkpt>
      <trkpt lat="48.93863" lon="-1.03228">
        <ele>49.377992</ele>
        <time>2021-09-05T15:43:19.000Z</time>
      </trkpt>
      <trkpt lat="48.93861" lon="-1.03229">
        <ele>49.408166</ele>
        <time>2021-09-05T15:43:21.000Z</time>
      </trkpt>
      <trkpt lat="48.9385" lon="-1.03234">
        <ele>49.54259</ele>
        <time>2021-09-05T15:43:25.000Z</time>
      </trkpt>
      <trkpt lat="48.93828" lon="-1.03246">
        <ele>49.829314</ele>
        <time>2021-09-05T15:43:31.000Z</time>
      </trkpt>
      <trkpt lat="48.93798" lon="-1.03261">
        <ele>50.233864</ele>
        <time>2021-09-05T15:43:39.000Z</time>
      </trkpt>
      <trkpt lat="48.93769" lon="-1.03277">
        <ele>50.60604</ele>
        <time>2021-09-05T15:43:46.000Z</time>
      </trkpt>
      <trkpt lat="48.93766" lon="-1.03279">
        <ele>50.654769</ele>
        <time>2021-09-05T15:43:47.000Z</time>
      </trkpt>
      <trkpt lat="48.93739" lon="-1.03293">
        <ele>51.00481</ele>
        <time>2021-09-05T15:43:54.000Z</time>
      </trkpt>
      <trkpt lat="48.93727" lon="-1.033">
        <ele>51.162561</ele>
        <time>2021-09-05T15:43:57.000Z</time>
      </trkpt>
      <trkpt lat="48.9372" lon="-1.03304">
        <ele>51.260865</ele>
        <time>2021-09-05T15:44:00.000Z</time>
      </trkpt>
      <trkpt lat="48.93716" lon="-1.03306">
        <ele>51.309873</ele>
        <time>2021-09-05T15:44:01.000Z</time>
      </trkpt>
      <trkpt lat="48.93696" lon="-1.03318">
        <ele>51.556793</ele>
        <time>2021-09-05T15:44:06.000Z</time>
      </trkpt>
      <trkpt lat="48.93669" lon="-1.03334">
        <ele>51.640415</ele>
        <time>2021-09-05T15:44:13.000Z</time>
      </trkpt>
      <trkpt lat="48.93666" lon="-1.03336">
        <ele>51.65102</ele>
        <time>2021-09-05T15:44:14.000Z</time>
      </trkpt>
      <trkpt lat="48.93657" lon="-1.03331">
        <ele>51.677855</ele>
        <time>2021-09-05T15:44:16.000Z</time>
      </trkpt>
      <trkpt lat="48.93652" lon="-1.03303">
        <ele>51.733131</ele>
        <time>2021-09-05T15:44:20.000Z</time>
      </trkpt>
      <trkpt lat="48.93642" lon="-1.03246">
        <ele>51.844883</ele>
        <time>2021-09-05T15:44:27.000Z</time>
      </trkpt>
      <trkpt lat="48.93636" lon="-1.03212">
        <ele>51.91105</ele>
        <time>2021-09-05T15:44:31.000Z</time>
      </trkpt>
      <trkpt lat="48.93633" lon="-1.03195">
        <ele>51.94421</ele>
        <time>2021-09-05T15:44:33.000Z</time>
      </trkpt>
      <trkpt lat="48.93623" lon="-1.03137">
        <ele>52.057315</ele>
        <time>2021-09-05T15:44:40.000Z</time>
      </trkpt>
      <trkpt lat="48.93617" lon="-1.03119">
        <ele>52.162581</ele>
        <time>2021-09-05T15:44:43.000Z</time>
      </trkpt>
      <trkpt lat="48.9361" lon="-1.03102">
        <ele>52.292182</ele>
        <time>2021-09-05T15:44:46.000Z</time>
      </trkpt>
      <trkpt lat="48.93587" lon="-1.03061">
        <ele>52.657632</ele>
        <time>2021-09-05T15:44:55.000Z</time>
      </trkpt>
      <trkpt lat="48.9357" lon="-1.03037">
        <ele>52.898695</ele>
        <time>2021-09-05T15:45:01.000Z</time>
      </trkpt>
      <trkpt lat="48.93563" lon="-1.03029">
        <ele>52.983597</ele>
        <time>2021-09-05T15:45:03.000Z</time>
      </trkpt>
      <trkpt lat="48.93536" lon="-1.02999">
        <ele>53.32159</ele>
        <time>2021-09-05T15:45:11.000Z</time>
      </trkpt>
      <trkpt lat="48.93505" lon="-1.02972">
        <ele>53.690198</ele>
        <time>2021-09-05T15:45:20.000Z</time>
      </trkpt>
      <trkpt lat="48.93477" lon="-1.02957">
        <ele>54.022575</ele>
        <time>2021-09-05T15:45:28.000Z</time>
      </trkpt>
      <trkpt lat="48.93452" lon="-1.02943">
        <ele>54.393455</ele>
        <time>2021-09-05T15:45:35.000Z</time>
      </trkpt>
      <trkpt lat="48.93426" lon="-1.02925">
        <ele>54.780329</ele>
        <time>2021-09-05T15:45:43.000Z</time>
      </trkpt>
      <trkpt lat="48.93404" lon="-1.029">
        <ele>55.159222</ele>
        <time>2021-09-05T15:45:50.000Z</time>
      </trkpt>
      <trkpt lat="48.93387" lon="-1.02876">
        <ele>55.473641</ele>
        <time>2021-09-05T15:45:55.000Z</time>
      </trkpt>
      <trkpt lat="48.93378" lon="-1.02862">
        <ele>55.662919</ele>
        <time>2021-09-05T15:45:58.000Z</time>
      </trkpt>
      <trkpt lat="48.93368" lon="-1.02854">
        <ele>55.806359</ele>
        <time>2021-09-05T15:46:00.000Z</time>
      </trkpt>
      <trkpt lat="48.93355" lon="-1.02844">
        <ele>56.016157</ele>
        <time>2021-09-05T15:46:03.000Z</time>
      </trkpt>
      <trkpt lat="48.93349" lon="-1.02842">
        <ele>56.089432</ele>
        <time>2021-09-05T15:46:04.000Z</time>
      </trkpt>
      <trkpt lat="48.93316" lon="-1.02834">
        <ele>56.479355</ele>
        <time>2021-09-05T15:46:10.000Z</time>
      </trkpt>
      <trkpt lat="48.93282" lon="-1.02828">
        <ele>56.749151</ele>
        <time>2021-09-05T15:46:17.000Z</time>
      </trkpt>
      <trkpt lat="48.9326" lon="-1.02823">
        <ele>56.923725</ele>
        <time>2021-09-05T15:46:21.000Z</time>
      </trkpt>
      <trkpt lat="48.93244" lon="-1.02818">
        <ele>57.04857</ele>
        <time>2021-09-05T15:46:24.000Z</time>
      </trkpt>
      <trkpt lat="48.93215" lon="-1.02803">
        <ele>57.28899</ele>
        <time>2021-09-05T15:46:30.000Z</time>
      </trkpt>
      <trkpt lat="48.93206" lon="-1.02796">
        <ele>57.366023</ele>
        <time>2021-09-05T15:46:32.000Z</time>
      </trkpt>
      <trkpt lat="48.93191" lon="-1.02777">
        <ele>57.518169</ele>
        <time>2021-09-05T15:46:36.000Z</time>
      </trkpt>
      <trkpt lat="48.93162" lon="-1.02743">
        <ele>57.814345</ele>
        <time>2021-09-05T15:46:44.000Z</time>
      </trkpt>
      <trkpt lat="48.93137" lon="-1.02704">
        <ele>58.243353</ele>
        <time>2021-09-05T15:46:52.000Z</time>
      </trkpt>
      <trkpt lat="48.93118" lon="-1.02672">
        <ele>58.581851</ele>
        <time>2021-09-05T15:46:58.000Z</time>
      </trkpt>
      <trkpt lat="48.93096" lon="-1.02628">
        <ele>59.017644</ele>
        <time>2021-09-05T15:47:05.000Z</time>
      </trkpt>
      <trkpt lat="48.93076" lon="-1.02582">
        <ele>59.45382</ele>
        <time>2021-09-05T15:47:12.000Z</time>
      </trkpt>
      <trkpt lat="48.93073" lon="-1.02576">
        <ele>59.515507</ele>
        <time>2021-09-05T15:47:13.000Z</time>
      </trkpt>
      <trkpt lat="48.93069" lon="-1.02571">
        <ele>59.57169</ele>
        <time>2021-09-05T15:47:14.000Z</time>
      </trkpt>
      <trkpt lat="48.93055" lon="-1.02551">
        <ele>59.807202</ele>
        <time>2021-09-05T15:47:18.000Z</time>
      </trkpt>
      <trkpt lat="48.93032" lon="-1.0252">
        <ele>60.209944</ele>
        <time>2021-09-05T15:47:24.000Z</time>
      </trkpt>
      <trkpt lat="48.93028" lon="-1.02515">
        <ele>60.280939</ele>
        <time>2021-09-05T15:47:25.000Z</time>
      </trkpt>
      <trkpt lat="48.93003" lon="-1.02477">
        <ele>60.771868</ele>
        <time>2021-09-05T15:47:32.000Z</time>
      </trkpt>
      <trkpt lat="48.92979" lon="-1.02418">
        <ele>61.411901</ele>
        <time>2021-09-05T15:47:41.000Z</time>
      </trkpt>
      <trkpt lat="48.92953" lon="-1.02369">
        <ele>61.986861</ele>
        <time>2021-09-05T15:47:49.000Z</time>
      </trkpt>
      <trkpt lat="48.92923" lon="-1.0233">
        <ele>62.470788</ele>
        <time>2021-09-05T15:47:57.000Z</time>
      </trkpt>
      <trkpt lat="48.92916" lon="-1.02321">
        <ele>62.504748</ele>
        <time>2021-09-05T15:47:59.000Z</time>
      </trkpt>
      <trkpt lat="48.92899" lon="-1.02303">
        <ele>62.573789</ele>
        <time>2021-09-05T15:48:03.000Z</time>
      </trkpt>
      <trkpt lat="48.92895" lon="-1.02299">
        <ele>62.590936</ele>
        <time>2021-09-05T15:48:04.000Z</time>
      </trkpt>
      <trkpt lat="48.92878" lon="-1.02282">
        <ele>62.661617</ele>
        <time>2021-09-05T15:48:08.000Z</time>
      </trkpt>
      <trkpt lat="48.92874" lon="-1.02278">
        <ele>62.680438</ele>
        <time>2021-09-05T15:48:09.000Z</time>
      </trkpt>
      <trkpt lat="48.92864" lon="-1.02268">
        <ele>62.720588</ele>
        <time>2021-09-05T15:48:11.000Z</time>
      </trkpt>
      <trkpt lat="48.92859" lon="-1.02263">
        <ele>62.741793</ele>
        <time>2021-09-05T15:48:12.000Z</time>
      </trkpt>
      <trkpt lat="48.92824" lon="-1.02234">
        <ele>62.881058</ele>
        <time>2021-09-05T15:48:18.000Z</time>
      </trkpt>
      <trkpt lat="48.92789" lon="-1.02212">
        <ele>63.015189</ele>
        <time>2021-09-05T15:48:23.000Z</time>
      </trkpt>
      <trkpt lat="48.92773" lon="-1.02209">
        <ele>63.072408</ele>
        <time>2021-09-05T15:48:25.000Z</time>
      </trkpt>
      <trkpt lat="48.92756" lon="-1.02212">
        <ele>62.971265</ele>
        <time>2021-09-05T15:48:27.000Z</time>
      </trkpt>
      <trkpt lat="48.92716" lon="-1.02228">
        <ele>62.677682</ele>
        <time>2021-09-05T15:48:32.000Z</time>
      </trkpt>
      <trkpt lat="48.92678" lon="-1.0225">
        <ele>62.387093</ele>
        <time>2021-09-05T15:48:38.000Z</time>
      </trkpt>
      <trkpt lat="48.92653" lon="-1.02264">
        <ele>62.197974</ele>
        <time>2021-09-05T15:48:43.000Z</time>
      </trkpt>
      <trkpt lat="48.92634" lon="-1.02276">
        <ele>62.047845</ele>
        <time>2021-09-05T15:48:49.000Z</time>
      </trkpt>
      <trkpt lat="48.926" lon="-1.02287">
        <ele>61.80544</ele>
        <time>2021-09-05T15:49:00.000Z</time>
      </trkpt>
      <trkpt lat="48.92579" lon="-1.0229">
        <ele>61.830691</ele>
        <time>2021-09-05T15:49:06.000Z</time>
      </trkpt>
      <trkpt lat="48.92575" lon="-1.02291">
        <ele>61.83729</ele>
        <time>2021-09-05T15:49:07.000Z</time>
      </trkpt>
      <trkpt lat="48.92543" lon="-1.02296">
        <ele>61.892248</ele>
        <time>2021-09-05T15:49:15.000Z</time>
      </trkpt>
      <trkpt lat="48.92515" lon="-1.02297">
        <ele>61.94122</ele>
        <time>2021-09-05T15:49:22.000Z</time>
      </trkpt>
      <trkpt lat="48.92507" lon="-1.02295">
        <ele>61.955801</ele>
        <time>2021-09-05T15:49:24.000Z</time>
      </trkpt>
      <trkpt lat="48.92476" lon="-1.02279">
        <ele>62.011275</ele>
        <time>2021-09-05T15:49:31.000Z</time>
      </trkpt>
      <trkpt lat="48.92444" lon="-1.02256">
        <ele>62.072853</ele>
        <time>2021-09-05T15:49:38.000Z</time>
      </trkpt>
      <trkpt lat="48.92402" lon="-1.02227">
        <ele>62.445025</ele>
        <time>2021-09-05T15:49:47.000Z</time>
      </trkpt>
      <trkpt lat="48.92366" lon="-1.02201">
        <ele>62.951018</ele>
        <time>2021-09-05T15:49:55.000Z</time>
      </trkpt>
      <trkpt lat="48.92343" lon="-1.0218">
        <ele>63.287175</ele>
        <time>2021-09-05T15:50:01.000Z</time>
      </trkpt>
      <trkpt lat="48.92321" lon="-1.02155">
        <ele>63.632217</ele>
        <time>2021-09-05T15:50:08.000Z</time>
      </trkpt>
      <trkpt lat="48.92305" lon="-1.02125">
        <ele>63.953289</ele>
        <time>2021-09-05T15:50:15.000Z</time>
      </trkpt>
      <trkpt lat="48.92286" lon="-1.02089">
        <ele>64.341326</ele>
        <time>2021-09-05T15:50:25.000Z</time>
      </trkpt>
      <trkpt lat="48.92271" lon="-1.02062">
        <ele>65.50124</ele>
        <time>2021-09-05T15:50:33.000Z</time>
      </trkpt>
      <trkpt lat="48.92259" lon="-1.02039">
        <ele>66.554544</ele>
        <time>2021-09-05T15:50:40.000Z</time>
      </trkpt>
      <trkpt lat="48.92245" lon="-1.0201">
        <ele>67.876921</ele>
        <time>2021-09-05T15:50:49.000Z</time>
      </trkpt>
      <trkpt lat="48.92232" lon="-1.0198">
        <ele>69.20708</ele>
        <time>2021-09-05T15:50:58.000Z</time>
      </trkpt>
      <trkpt lat="48.9222" lon="-1.01955">
        <ele>70.353449</ele>
        <time>2021-09-05T15:51:06.000Z</time>
      </trkpt>
      <trkpt lat="48.92205" lon="-1.01922">
        <ele>71.818514</ele>
        <time>2021-09-05T15:51:16.000Z</time>
      </trkpt>
      <trkpt lat="48.92193" lon="-1.01894">
        <ele>73.044419</ele>
        <time>2021-09-05T15:51:24.000Z</time>
      </trkpt>
      <trkpt lat="48.92179" lon="-1.01863">
        <ele>74.448573</ele>
        <time>2021-09-05T15:51:33.000Z</time>
      </trkpt>
      <trkpt lat="48.9217" lon="-1.01843">
        <ele>75.64866</ele>
        <time>2021-09-05T15:51:39.000Z</time>
      </trkpt>
      <trkpt lat="48.92161" lon="-1.01824">
        <ele>76.815385</ele>
        <time>2021-09-05T15:51:45.000Z</time>
      </trkpt>
      <trkpt lat="48.92151" lon="-1.01801">
        <ele>78.182671</ele>
        <time>2021-09-05T15:51:52.000Z</time>
      </trkpt>
      <trkpt lat="48.92145" lon="-1.01788">
        <ele>78.97717</ele>
        <time>2021-09-05T15:51:57.000Z</time>
      </trkpt>
      <trkpt lat="48.92138" lon="-1.01774">
        <ele>79.858681</ele>
        <time>2021-09-05T15:52:02.000Z</time>
      </trkpt>
      <trkpt lat="48.92126" lon="-1.01751">
        <ele>81.34995</ele>
        <time>2021-09-05T15:52:09.000Z</time>
      </trkpt>
      <trkpt lat="48.92112" lon="-1.01726">
        <ele>82.946544</ele>
        <time>2021-09-05T15:52:16.000Z</time>
      </trkpt>
      <trkpt lat="48.92099" lon="-1.01702">
        <ele>84.53836</ele>
        <time>2021-09-05T15:52:24.000Z</time>
      </trkpt>
      <trkpt lat="48.92089" lon="-1.01682">
        <ele>85.823778</ele>
        <time>2021-09-05T15:52:31.000Z</time>
      </trkpt>
      <trkpt lat="48.92077" lon="-1.01662">
        <ele>87.116956</ele>
        <time>2021-09-05T15:52:38.000Z</time>
      </trkpt>
      <trkpt lat="48.92062" lon="-1.01638">
        <ele>88.329165</ele>
        <time>2021-09-05T15:52:46.000Z</time>
      </trkpt>
      <trkpt lat="48.92044" lon="-1.01628">
        <ele>88.806711</ele>
        <time>2021-09-05T15:52:53.000Z</time>
      </trkpt>
      <trkpt lat="48.92022" lon="-1.01624">
        <ele>89.38601</ele>
        <time>2021-09-05T15:53:02.000Z</time>
      </trkpt>
      <trkpt lat="48.92002" lon="-1.01632">
        <ele>89.887632</ele>
        <time>2021-09-05T15:53:10.000Z</time>
      </trkpt>
      <trkpt lat="48.91981" lon="-1.01647">
        <ele>90.474327</ele>
        <time>2021-09-05T15:53:18.000Z</time>
      </trkpt>
      <trkpt lat="48.91962" lon="-1.01661">
        <ele>91.01095</ele>
        <time>2021-09-05T15:53:25.000Z</time>
      </trkpt>
      <trkpt lat="48.91947" lon="-1.01668">
        <ele>91.400077</ele>
        <time>2021-09-05T15:53:29.000Z</time>
      </trkpt>
      <trkpt lat="48.91938" lon="-1.01668">
        <ele>91.631667</ele>
        <time>2021-09-05T15:53:31.000Z</time>
      </trkpt>
      <trkpt lat="48.91908" lon="-1.01665">
        <ele>92.38909</ele>
        <time>2021-09-05T15:53:36.000Z</time>
      </trkpt>
      <trkpt lat="48.91869" lon="-1.01662">
        <ele>92.200226</ele>
        <time>2021-09-05T15:53:41.000Z</time>
      </trkpt>
      <trkpt lat="48.91825" lon="-1.01659">
        <ele>91.548075</ele>
        <time>2021-09-05T15:53:46.000Z</time>
      </trkpt>
      <trkpt lat="48.91766" lon="-1.01654">
        <ele>90.693125</ele>
        <time>2021-09-05T15:53:52.000Z</time>
      </trkpt>
      <trkpt lat="48.91756" lon="-1.01653">
        <ele>90.550131</ele>
        <time>2021-09-05T15:53:53.000Z</time>
      </trkpt>
      <trkpt lat="48.91718" lon="-1.0165">
        <ele>89.977334</ele>
        <time>2021-09-05T15:53:57.000Z</time>
      </trkpt>
      <trkpt lat="48.91699" lon="-1.01644">
        <ele>89.433391</ele>
        <time>2021-09-05T15:53:59.000Z</time>
      </trkpt>
      <trkpt lat="48.91683" lon="-1.01632">
        <ele>88.909608</ele>
        <time>2021-09-05T15:54:01.000Z</time>
      </trkpt>
      <trkpt lat="48.91654" lon="-1.01603">
        <ele>87.912079</ele>
        <time>2021-09-05T15:54:05.000Z</time>
      </trkpt>
      <trkpt lat="48.9162" lon="-1.01569">
        <ele>86.774295</ele>
        <time>2021-09-05T15:54:10.000Z</time>
      </trkpt>
      <trkpt lat="48.91574" lon="-1.01522">
        <ele>85.176044</ele>
        <time>2021-09-05T15:54:17.000Z</time>
      </trkpt>
      <trkpt lat="48.91567" lon="-1.01516">
        <ele>84.953689</ele>
        <time>2021-09-05T15:54:18.000Z</time>
      </trkpt>
      <trkpt lat="48.91526" lon="-1.01475">
        <ele>83.321673</ele>
        <time>2021-09-05T15:54:24.000Z</time>
      </trkpt>
      <trkpt lat="48.91485" lon="-1.01447">
        <ele>81.837512</ele>
        <time>2021-09-05T15:54:29.000Z</time>
      </trkpt>
      <trkpt lat="48.91468" lon="-1.01434">
        <ele>81.226192</ele>
        <time>2021-09-05T15:54:31.000Z</time>
      </trkpt>
      <trkpt lat="48.91455" lon="-1.01413">
        <ele>80.585181</ele>
        <time>2021-09-05T15:54:33.000Z</time>
      </trkpt>
      <trkpt lat="48.91438" lon="-1.01362">
        <ele>79.330621</ele>
        <time>2021-09-05T15:54:37.000Z</time>
      </trkpt>
      <trkpt lat="48.91421" lon="-1.01289">
        <ele>77.845613</ele>
        <time>2021-09-05T15:54:43.000Z</time>
      </trkpt>
      <trkpt lat="48.91404" lon="-1.01237">
        <ele>76.756414</ele>
        <time>2021-09-05T15:54:48.000Z</time>
      </trkpt>
      <trkpt lat="48.91379" lon="-1.01188">
        <ele>75.609593</ele>
        <time>2021-09-05T15:54:54.000Z</time>
      </trkpt>
      <trkpt lat="48.91346" lon="-1.01138">
        <ele>74.314653</ele>
        <time>2021-09-05T15:55:02.000Z</time>
      </trkpt>
      <trkpt lat="48.9132" lon="-1.011">
        <ele>73.989887</ele>
        <time>2021-09-05T15:55:10.000Z</time>
      </trkpt>
      <trkpt lat="48.91302" lon="-1.01074">
        <ele>74.193111</ele>
        <time>2021-09-05T15:55:17.000Z</time>
      </trkpt>
      <trkpt lat="48.91289" lon="-1.0105">
        <ele>74.356418</ele>
        <time>2021-09-05T15:55:24.000Z</time>
      </trkpt>
      <trkpt lat="48.91278" lon="-1.01024">
        <ele>74.516101</ele>
        <time>2021-09-05T15:55:32.000Z</time>
      </trkpt>
      <trkpt lat="48.91268" lon="-1.01">
        <ele>74.669187</ele>
        <time>2021-09-05T15:55:40.000Z</time>
      </trkpt>
      <trkpt lat="48.91259" lon="-1.0098">
        <ele>74.794119</ele>
        <time>2021-09-05T15:55:47.000Z</time>
      </trkpt>
      <trkpt lat="48.9125" lon="-1.00957">
        <ele>74.937531</ele>
        <time>2021-09-05T15:55:55.000Z</time>
      </trkpt>
      <trkpt lat="48.9124" lon="-1.00934">
        <ele>75.082698</ele>
        <time>2021-09-05T15:56:03.000Z</time>
      </trkpt>
      <trkpt lat="48.91228" lon="-1.00906">
        <ele>75.259541</ele>
        <time>2021-09-05T15:56:12.000Z</time>
      </trkpt>
      <trkpt lat="48.91217" lon="-1.0088">
        <ele>75.965556</ele>
        <time>2021-09-05T15:56:20.000Z</time>
      </trkpt>
      <trkpt lat="48.91206" lon="-1.00855">
        <ele>76.756858</ele>
        <time>2021-09-05T15:56:28.000Z</time>
      </trkpt>
      <trkpt lat="48.91198" lon="-1.0084">
        <ele>77.274049</ele>
        <time>2021-09-05T15:56:33.000Z</time>
      </trkpt>
      <trkpt lat="48.91181" lon="-1.00812">
        <ele>78.272174</ele>
        <time>2021-09-05T15:56:43.000Z</time>
      </trkpt>
      <trkpt lat="48.91163" lon="-1.00785">
        <ele>79.261519</ele>
        <time>2021-09-05T15:56:53.000Z</time>
      </trkpt>
      <trkpt lat="48.91147" lon="-1.00767">
        <ele>80.028592</ele>
        <time>2021-09-05T15:57:01.000Z</time>
      </trkpt>
      <trkpt lat="48.91129" lon="-1.00746">
        <ele>80.93589</ele>
        <time>2021-09-05T15:57:11.000Z</time>
      </trkpt>
      <trkpt lat="48.9111" lon="-1.00726">
        <ele>81.85611</ele>
        <time>2021-09-05T15:57:21.000Z</time>
      </trkpt>
      <trkpt lat="48.91092" lon="-1.00707">
        <ele>82.764562</ele>
        <time>2021-09-05T15:57:30.000Z</time>
      </trkpt>
      <trkpt lat="48.91075" lon="-1.00689">
        <ele>83.719599</ele>
        <time>2021-09-05T15:57:38.000Z</time>
      </trkpt>
      <trkpt lat="48.91054" lon="-1.00667">
        <ele>84.891169</ele>
        <time>2021-09-05T15:57:48.000Z</time>
      </trkpt>
      <trkpt lat="48.91035" lon="-1.00648">
        <ele>85.906724</ele>
        <time>2021-09-05T15:57:57.000Z</time>
      </trkpt>
      <trkpt lat="48.9102" lon="-1.00635">
        <ele>86.73773</ele>
        <time>2021-09-05T15:58:04.000Z</time>
      </trkpt>
      <trkpt lat="48.91007" lon="-1.00623">
        <ele>87.421728</ele>
        <time>2021-09-05T15:58:10.000Z</time>
      </trkpt>
      <trkpt lat="48.90988" lon="-1.00607">
        <ele>88.401258</ele>
        <time>2021-09-05T15:58:19.000Z</time>
      </trkpt>
      <trkpt lat="48.9097" lon="-1.00589">
        <ele>89.38012</ele>
        <time>2021-09-05T15:58:28.000Z</time>
      </trkpt>
      <trkpt lat="48.90952" lon="-1.00571">
        <ele>90.38251</ele>
        <time>2021-09-05T15:58:37.000Z</time>
      </trkpt>
      <trkpt lat="48.90931" lon="-1.00551">
        <ele>91.196313</ele>
        <time>2021-09-05T15:58:47.000Z</time>
      </trkpt>
      <trkpt lat="48.90915" lon="-1.00535">
        <ele>91.768926</ele>
        <time>2021-09-05T15:58:55.000Z</time>
      </trkpt>
      <trkpt lat="48.90898" lon="-1.00519">
        <ele>92.37956</ele>
        <time>2021-09-05T15:59:03.000Z</time>
      </trkpt>
      <trkpt lat="48.90881" lon="-1.00505">
        <ele>92.937962</ele>
        <time>2021-09-05T15:59:10.000Z</time>
      </trkpt>
      <trkpt lat="48.90864" lon="-1.0049">
        <ele>93.530056</ele>
        <time>2021-09-05T15:59:16.000Z</time>
      </trkpt>
      <trkpt lat="48.90846" lon="-1.00475">
        <ele>94.136396</ele>
        <time>2021-09-05T15:59:21.000Z</time>
      </trkpt>
      <trkpt lat="48.90843" lon="-1.00472">
        <ele>94.263363</ele>
        <time>2021-09-05T15:59:22.000Z</time>
      </trkpt>
      <trkpt lat="48.90816" lon="-1.00444">
        <ele>95.225243</ele>
        <time>2021-09-05T15:59:29.000Z</time>
      </trkpt>
      <trkpt lat="48.908" lon="-1.00428">
        <ele>95.787151</ele>
        <time>2021-09-05T15:59:33.000Z</time>
      </trkpt>
      <trkpt lat="48.90793" lon="-1.0042">
        <ele>96.008973</ele>
        <time>2021-09-05T15:59:35.000Z</time>
      </trkpt>
      <trkpt lat="48.90757" lon="-1.00376">
        <ele>96.313207</ele>
        <time>2021-09-05T15:59:44.000Z</time>
      </trkpt>
      <trkpt lat="48.90723" lon="-1.00331">
        <ele>96.61536</ele>
        <time>2021-09-05T15:59:53.000Z</time>
      </trkpt>
      <trkpt lat="48.90692" lon="-1.00291">
        <ele>96.886262</ele>
        <time>2021-09-05T16:00:02.000Z</time>
      </trkpt>
      <trkpt lat="48.90677" lon="-1.00274">
        <ele>97.012211</ele>
        <time>2021-09-05T16:00:06.000Z</time>
      </trkpt>
      <trkpt lat="48.90663" lon="-1.00259">
        <ele>97.125193</ele>
        <time>2021-09-05T16:00:09.000Z</time>
      </trkpt>
      <trkpt lat="48.90627" lon="-1.00226">
        <ele>96.747448</ele>
        <time>2021-09-05T16:00:15.000Z</time>
      </trkpt>
      <trkpt lat="48.9058" lon="-1.00195">
        <ele>96.039467</ele>
        <time>2021-09-05T16:00:21.000Z</time>
      </trkpt>
      <trkpt lat="48.90527" lon="-1.00168">
        <ele>95.26349</ele>
        <time>2021-09-05T16:00:27.000Z</time>
      </trkpt>
      <trkpt lat="48.90518" lon="-1.00162">
        <ele>95.127956</ele>
        <time>2021-09-05T16:00:28.000Z</time>
      </trkpt>
      <trkpt lat="48.90465" lon="-1.00125">
        <ele>94.241467</ele>
        <time>2021-09-05T16:00:34.000Z</time>
      </trkpt>
      <trkpt lat="48.90423" lon="-1.00078">
        <ele>93.357606</ele>
        <time>2021-09-05T16:00:40.000Z</time>
      </trkpt>
      <trkpt lat="48.90383" lon="-1.00031">
        <ele>92.500796</ele>
        <time>2021-09-05T16:00:47.000Z</time>
      </trkpt>
      <trkpt lat="48.90349" lon="-0.99998">
        <ele>91.814519</ele>
        <time>2021-09-05T16:00:54.000Z</time>
      </trkpt>
      <trkpt lat="48.90323" lon="-0.99974">
        <ele>91.473702</ele>
        <time>2021-09-05T16:01:00.000Z</time>
      </trkpt>
      <trkpt lat="48.90319" lon="-0.99971">
        <ele>91.432878</ele>
        <time>2021-09-05T16:01:01.000Z</time>
      </trkpt>
      <trkpt lat="48.90287" lon="-0.99943">
        <ele>91.105087</ele>
        <time>2021-09-05T16:01:09.000Z</time>
      </trkpt>
      <trkpt lat="48.90254" lon="-0.99915">
        <ele>90.778493</ele>
        <time>2021-09-05T16:01:17.000Z</time>
      </trkpt>
      <trkpt lat="48.90217" lon="-0.99884">
        <ele>90.406541</ele>
        <time>2021-09-05T16:01:26.000Z</time>
      </trkpt>
      <trkpt lat="48.90183" lon="-0.99844">
        <ele>89.999124</ele>
        <time>2021-09-05T16:01:35.000Z</time>
      </trkpt>
      <trkpt lat="48.90179" lon="-0.9984">
        <ele>89.92481</ele>
        <time>2021-09-05T16:01:36.000Z</time>
      </trkpt>
      <trkpt lat="48.90157" lon="-0.99804">
        <ele>89.435097</ele>
        <time>2021-09-05T16:01:42.000Z</time>
      </trkpt>
      <trkpt lat="48.90137" lon="-0.99767">
        <ele>88.953944</ele>
        <time>2021-09-05T16:01:47.000Z</time>
      </trkpt>
      <trkpt lat="48.90133" lon="-0.99758">
        <ele>88.847194</ele>
        <time>2021-09-05T16:01:48.000Z</time>
      </trkpt>
      <trkpt lat="48.90107" lon="-0.99696">
        <ele>88.115753</ele>
        <time>2021-09-05T16:01:54.000Z</time>
      </trkpt>
      <trkpt lat="48.90078" lon="-0.99642">
        <ele>87.416354</ele>
        <time>2021-09-05T16:01:59.000Z</time>
      </trkpt>
      <trkpt lat="48.90043" lon="-0.99595">
        <ele>86.772601</ele>
        <time>2021-09-05T16:02:05.000Z</time>
      </trkpt>
      <trkpt lat="48.89998" lon="-0.99543">
        <ele>86.012165</ele>
        <time>2021-09-05T16:02:11.000Z</time>
      </trkpt>
      <trkpt lat="48.89969" lon="-0.9951">
        <ele>85.524691</ele>
        <time>2021-09-05T16:02:17.000Z</time>
      </trkpt>
      <trkpt lat="48.89948" lon="-0.99484">
        <ele>85.162606</ele>
        <time>2021-09-05T16:02:23.000Z</time>
      </trkpt>
      <trkpt lat="48.89931" lon="-0.99463">
        <ele>84.945838</ele>
        <time>2021-09-05T16:02:29.000Z</time>
      </trkpt>
      <trkpt lat="48.89901" lon="-0.99425">
        <ele>85.237859</ele>
        <time>2021-09-05T16:02:40.000Z</time>
      </trkpt>
      <trkpt lat="48.89874" lon="-0.99391">
        <ele>85.492683</ele>
        <time>2021-09-05T16:02:50.000Z</time>
      </trkpt>
      <trkpt lat="48.8985" lon="-0.99362">
        <ele>85.717617</ele>
        <time>2021-09-05T16:02:59.000Z</time>
      </trkpt>
      <trkpt lat="48.89822" lon="-0.99326">
        <ele>85.985613</ele>
        <time>2021-09-05T16:03:10.000Z</time>
      </trkpt>
      <trkpt lat="48.89799" lon="-0.99297">
        <ele>86.207923</ele>
        <time>2021-09-05T16:03:19.000Z</time>
      </trkpt>
      <trkpt lat="48.89775" lon="-0.99265">
        <ele>87.014067</ele>
        <time>2021-09-05T16:03:28.000Z</time>
      </trkpt>
      <trkpt lat="48.89754" lon="-0.99236">
        <ele>87.819405</ele>
        <time>2021-09-05T16:03:36.000Z</time>
      </trkpt>
      <trkpt lat="48.89737" lon="-0.9921">
        <ele>88.501423</ele>
        <time>2021-09-05T16:03:43.000Z</time>
      </trkpt>
      <trkpt lat="48.89722" lon="-0.99182">
        <ele>89.182615</ele>
        <time>2021-09-05T16:03:50.000Z</time>
      </trkpt>
      <trkpt lat="48.8971" lon="-0.99156">
        <ele>89.761943</ele>
        <time>2021-09-05T16:03:56.000Z</time>
      </trkpt>
      <trkpt lat="48.89706" lon="-0.99147">
        <ele>89.959781</ele>
        <time>2021-09-05T16:03:58.000Z</time>
      </trkpt>
      <trkpt lat="48.89696" lon="-0.99123">
        <ele>90.501706</ele>
        <time>2021-09-05T16:04:04.000Z</time>
      </trkpt>
      <trkpt lat="48.89684" lon="-0.99097">
        <ele>91.096667</ele>
        <time>2021-09-05T16:04:11.000Z</time>
      </trkpt>
      <trkpt lat="48.8967" lon="-0.99067">
        <ele>92.045944</ele>
        <time>2021-09-05T16:04:20.000Z</time>
      </trkpt>
      <trkpt lat="48.89656" lon="-0.9904">
        <ele>93.077769</ele>
        <time>2021-09-05T16:04:28.000Z</time>
      </trkpt>
      <trkpt lat="48.89639" lon="-0.99015">
        <ele>94.151851</ele>
        <time>2021-09-05T16:04:37.000Z</time>
      </trkpt>
      <trkpt lat="48.89623" lon="-0.98991">
        <ele>95.203503</ele>
        <time>2021-09-05T16:04:46.000Z</time>
      </trkpt>
      <trkpt lat="48.89611" lon="-0.98974">
        <ele>95.928837</ele>
        <time>2021-09-05T16:04:52.000Z</time>
      </trkpt>
      <trkpt lat="48.89598" lon="-0.98958">
        <ele>96.715673</ele>
        <time>2021-09-05T16:04:59.000Z</time>
      </trkpt>
      <trkpt lat="48.89582" lon="-0.98938">
        <ele>97.65549</ele>
        <time>2021-09-05T16:05:07.000Z</time>
      </trkpt>
      <trkpt lat="48.89569" lon="-0.98921">
        <ele>98.458403</ele>
        <time>2021-09-05T16:05:14.000Z</time>
      </trkpt>
      <trkpt lat="48.89553" lon="-0.98902">
        <ele>99.374495</ele>
        <time>2021-09-05T16:05:22.000Z</time>
      </trkpt>
      <trkpt lat="48.89538" lon="-0.98884">
        <ele>100.048058</ele>
        <time>2021-09-05T16:05:30.000Z</time>
      </trkpt>
      <trkpt lat="48.89524" lon="-0.98866">
        <ele>100.658988</ele>
        <time>2021-09-05T16:05:37.000Z</time>
      </trkpt>
      <trkpt lat="48.89508" lon="-0.98843">
        <ele>101.366416</ele>
        <time>2021-09-05T16:05:45.000Z</time>
      </trkpt>
      <trkpt lat="48.89494" lon="-0.98811">
        <ele>102.206967</ele>
        <time>2021-09-05T16:05:54.000Z</time>
      </trkpt>
      <trkpt lat="48.89478" lon="-0.9877">
        <ele>103.229391</ele>
        <time>2021-09-05T16:06:04.000Z</time>
      </trkpt>
      <trkpt lat="48.89459" lon="-0.98725">
        <ele>104.363872</ele>
        <time>2021-09-05T16:06:14.000Z</time>
      </trkpt>
      <trkpt lat="48.89441" lon="-0.9869">
        <ele>105.323848</ele>
        <time>2021-09-05T16:06:22.000Z</time>
      </trkpt>
      <trkpt lat="48.89419" lon="-0.98655">
        <ele>106.041932</ele>
        <time>2021-09-05T16:06:31.000Z</time>
      </trkpt>
      <trkpt lat="48.89403" lon="-0.98632">
        <ele>106.502014</ele>
        <time>2021-09-05T16:06:38.000Z</time>
      </trkpt>
      <trkpt lat="48.8938" lon="-0.98593">
        <ele>107.211068</ele>
        <time>2021-09-05T16:06:48.000Z</time>
      </trkpt>
      <trkpt lat="48.89363" lon="-0.98561">
        <ele>107.776087</ele>
        <time>2021-09-05T16:06:56.000Z</time>
      </trkpt>
      <trkpt lat="48.89347" lon="-0.98533">
        <ele>108.291488</ele>
        <time>2021-09-05T16:07:03.000Z</time>
      </trkpt>
      <trkpt lat="48.8932" lon="-0.98517">
        <ele>108.885386</ele>
        <time>2021-09-05T16:07:11.000Z</time>
      </trkpt>
      <trkpt lat="48.89293" lon="-0.98507">
        <ele>109.208732</ele>
        <time>2021-09-05T16:07:18.000Z</time>
      </trkpt>
      <trkpt lat="48.89275" lon="-0.98501">
        <ele>109.204306</ele>
        <time>2021-09-05T16:07:22.000Z</time>
      </trkpt>
      <trkpt lat="48.89265" lon="-0.98499">
        <ele>109.201996</ele>
        <time>2021-09-05T16:07:24.000Z</time>
      </trkpt>
      <trkpt lat="48.89249" lon="-0.98497">
        <ele>109.198178</ele>
        <time>2021-09-05T16:07:27.000Z</time>
      </trkpt>
      <trkpt lat="48.89238" lon="-0.98495">
        <ele>109.195499</ele>
        <time>2021-09-05T16:07:29.000Z</time>
      </trkpt>
      <trkpt lat="48.89214" lon="-0.98489">
        <ele>109.189737</ele>
        <time>2021-09-05T16:07:33.000Z</time>
      </trkpt>
      <trkpt lat="48.89208" lon="-0.98486">
        <ele>109.188282</ele>
        <time>2021-09-05T16:07:34.000Z</time>
      </trkpt>
      <trkpt lat="48.89196" lon="-0.98478">
        <ele>109.185149</ele>
        <time>2021-09-05T16:07:36.000Z</time>
      </trkpt>
      <trkpt lat="48.89177" lon="-0.98462">
        <ele>109.180108</ele>
        <time>2021-09-05T16:07:39.000Z</time>
      </trkpt>
      <trkpt lat="48.89143" lon="-0.9843">
        <ele>109.170674</ele>
        <time>2021-09-05T16:07:44.000Z</time>
      </trkpt>
      <trkpt lat="48.89091" lon="-0.98383">
        <ele>108.058318</ele>
        <time>2021-09-05T16:07:51.000Z</time>
      </trkpt>
      <trkpt lat="48.89083" lon="-0.98376">
        <ele>107.87143</ele>
        <time>2021-09-05T16:07:52.000Z</time>
      </trkpt>
      <trkpt lat="48.89032" lon="-0.98332">
        <ele>106.683868</ele>
        <time>2021-09-05T16:07:58.000Z</time>
      </trkpt>
      <trkpt lat="48.89023" lon="-0.98325">
        <ele>106.478881</ele>
        <time>2021-09-05T16:07:59.000Z</time>
      </trkpt>
      <trkpt lat="48.88967" lon="-0.98281">
        <ele>105.139366</ele>
        <time>2021-09-05T16:08:05.000Z</time>
      </trkpt>
      <trkpt lat="48.88957" lon="-0.98274">
        <ele>104.873578</ele>
        <time>2021-09-05T16:08:06.000Z</time>
      </trkpt>
      <trkpt lat="48.88909" lon="-0.98239">
        <ele>103.554978</ele>
        <time>2021-09-05T16:08:11.000Z</time>
      </trkpt>
      <trkpt lat="48.88856" lon="-0.98202">
        <ele>102.102905</ele>
        <time>2021-09-05T16:08:17.000Z</time>
      </trkpt>
      <trkpt lat="48.8882" lon="-0.98172">
        <ele>101.090701</ele>
        <time>2021-09-05T16:08:22.000Z</time>
      </trkpt>
      <trkpt lat="48.88792" lon="-0.98149">
        <ele>100.500942</ele>
        <time>2021-09-05T16:08:27.000Z</time>
      </trkpt>
      <trkpt lat="48.88769" lon="-0.9813">
        <ele>100.043117</ele>
        <time>2021-09-05T16:08:32.000Z</time>
      </trkpt>
      <trkpt lat="48.88754" lon="-0.98105">
        <ele>99.628099</ele>
        <time>2021-09-05T16:08:38.000Z</time>
      </trkpt>
      <trkpt lat="48.88736" lon="-0.98073">
        <ele>99.130233</ele>
        <time>2021-09-05T16:08:46.000Z</time>
      </trkpt>
      <trkpt lat="48.8872" lon="-0.98046">
        <ele>98.698694</ele>
        <time>2021-09-05T16:08:54.000Z</time>
      </trkpt>
      <trkpt lat="48.88705" lon="-0.98021">
        <ele>98.295999</ele>
        <time>2021-09-05T16:09:01.000Z</time>
      </trkpt>
      <trkpt lat="48.88683" lon="-0.97982">
        <ele>97.854868</ele>
        <time>2021-09-05T16:09:11.000Z</time>
      </trkpt>
      <trkpt lat="48.88673" lon="-0.9795">
        <ele>97.979212</ele>
        <time>2021-09-05T16:09:18.000Z</time>
      </trkpt>
      <trkpt lat="48.88661" lon="-0.97913">
        <ele>98.123652</ele>
        <time>2021-09-05T16:09:26.000Z</time>
      </trkpt>
      <trkpt lat="48.88647" lon="-0.9787">
        <ele>98.290625</ele>
        <time>2021-09-05T16:09:35.000Z</time>
      </trkpt>
      <trkpt lat="48.88632" lon="-0.97829">
        <ele>98.458931</ele>
        <time>2021-09-05T16:09:44.000Z</time>
      </trkpt>
      <trkpt lat="48.8861" lon="-0.97774">
        <ele>98.682885</ele>
        <time>2021-09-05T16:09:55.000Z</time>
      </trkpt>
      <trkpt lat="48.88592" lon="-0.9773">
        <ele>98.980124</ele>
        <time>2021-09-05T16:10:04.000Z</time>
      </trkpt>
      <trkpt lat="48.88576" lon="-0.97675">
        <ele>99.460934</ele>
        <time>2021-09-05T16:10:14.000Z</time>
      </trkpt>
      <trkpt lat="48.88563" lon="-0.97616">
        <ele>99.960442</ele>
        <time>2021-09-05T16:10:24.000Z</time>
      </trkpt>
      <trkpt lat="48.88549" lon="-0.97555">
        <ele>100.477483</ele>
        <time>2021-09-05T16:10:34.000Z</time>
      </trkpt>
      <trkpt lat="48.88538" lon="-0.97509">
        <ele>100.874514</ele>
        <time>2021-09-05T16:10:42.000Z</time>
      </trkpt>
      <trkpt lat="48.8852" lon="-0.97448">
        <ele>101.660517</ele>
        <time>2021-09-05T16:10:53.000Z</time>
      </trkpt>
      <trkpt lat="48.88501" lon="-0.97412">
        <ele>102.2384</ele>
        <time>2021-09-05T16:11:01.000Z</time>
      </trkpt>
      <trkpt lat="48.88479" lon="-0.9738">
        <ele>102.814527</ele>
        <time>2021-09-05T16:11:09.000Z</time>
      </trkpt>
      <trkpt lat="48.88454" lon="-0.97357">
        <ele>103.385317</ele>
        <time>2021-09-05T16:11:17.000Z</time>
      </trkpt>
      <trkpt lat="48.88422" lon="-0.97339">
        <ele>104.026312</ele>
        <time>2021-09-05T16:11:26.000Z</time>
      </trkpt>
      <trkpt lat="48.88393" lon="-0.97321">
        <ele>104.678253</ele>
        <time>2021-09-05T16:11:34.000Z</time>
      </trkpt>
      <trkpt lat="48.88367" lon="-0.97297">
        <ele>105.361621</ele>
        <time>2021-09-05T16:11:42.000Z</time>
      </trkpt>
      <trkpt lat="48.88344" lon="-0.97267">
        <ele>106.050302</ele>
        <time>2021-09-05T16:11:50.000Z</time>
      </trkpt>
      <trkpt lat="48.88337" lon="-0.97252">
        <ele>106.32566</ele>
        <time>2021-09-05T16:11:53.000Z</time>
      </trkpt>
      <trkpt lat="48.88328" lon="-0.97231">
        <ele>106.702374</ele>
        <time>2021-09-05T16:11:57.000Z</time>
      </trkpt>
      <trkpt lat="48.8831" lon="-0.97192">
        <ele>107.411995</ele>
        <time>2021-09-05T16:12:05.000Z</time>
      </trkpt>
      <trkpt lat="48.88291" lon="-0.97157">
        <ele>108.085884</ele>
        <time>2021-09-05T16:12:13.000Z</time>
      </trkpt>
      <trkpt lat="48.88272" lon="-0.97124">
        <ele>108.795924</ele>
        <time>2021-09-05T16:12:21.000Z</time>
      </trkpt>
      <trkpt lat="48.8825" lon="-0.97088">
        <ele>109.681664</ele>
        <time>2021-09-05T16:12:30.000Z</time>
      </trkpt>
      <trkpt lat="48.88231" lon="-0.97063">
        <ele>110.362474</ele>
        <time>2021-09-05T16:12:37.000Z</time>
      </trkpt>
      <trkpt lat="48.88216" lon="-0.97044">
        <ele>110.915733</ele>
        <time>2021-09-05T16:12:43.000Z</time>
      </trkpt>
      <trkpt lat="48.88187" lon="-0.97014">
        <ele>111.875981</ele>
        <time>2021-09-05T16:12:53.000Z</time>
      </trkpt>
      <trkpt lat="48.88163" lon="-0.96989">
        <ele>112.674826</ele>
        <time>2021-09-05T16:13:01.000Z</time>
      </trkpt>
      <trkpt lat="48.88129" lon="-0.96954">
        <ele>113.746063</ele>
        <time>2021-09-05T16:13:12.000Z</time>
      </trkpt>
      <trkpt lat="48.88106" lon="-0.96929">
        <ele>114.432599</ele>
        <time>2021-09-05T16:13:20.000Z</time>
      </trkpt>
      <trkpt lat="48.88079" lon="-0.96901">
        <ele>115.220924</ele>
        <time>2021-09-05T16:13:29.000Z</time>
      </trkpt>
      <trkpt lat="48.88062" lon="-0.96883">
        <ele>115.735144</ele>
        <time>2021-09-05T16:13:35.000Z</time>
      </trkpt>
      <trkpt lat="48.88026" lon="-0.96845">
        <ele>116.786853</ele>
        <time>2021-09-05T16:13:46.000Z</time>
      </trkpt>
      <trkpt lat="48.87996" lon="-0.96814">
        <ele>117.679699</ele>
        <time>2021-09-05T16:13:55.000Z</time>
      </trkpt>
      <trkpt lat="48.87962" lon="-0.96779">
        <ele>118.380513</ele>
        <time>2021-09-05T16:14:05.000Z</time>
      </trkpt>
      <trkpt lat="48.87928" lon="-0.96746">
        <ele>119.028384</ele>
        <time>2021-09-05T16:14:15.000Z</time>
      </trkpt>
      <trkpt lat="48.87896" lon="-0.96714">
        <ele>119.647123</ele>
        <time>2021-09-05T16:14:24.000Z</time>
      </trkpt>
      <trkpt lat="48.87864" lon="-0.96676">
        <ele>120.298022</ele>
        <time>2021-09-05T16:14:33.000Z</time>
      </trkpt>
      <trkpt lat="48.87838" lon="-0.9664">
        <ele>120.700056</ele>
        <time>2021-09-05T16:14:40.000Z</time>
      </trkpt>
      <trkpt lat="48.87809" lon="-0.96594">
        <ele>120.693968</ele>
        <time>2021-09-05T16:14:47.000Z</time>
      </trkpt>
      <trkpt lat="48.8779" lon="-0.96568">
        <ele>120.690216</ele>
        <time>2021-09-05T16:14:51.000Z</time>
      </trkpt>
      <trkpt lat="48.8778" lon="-0.96553">
        <ele>120.688238</ele>
        <time>2021-09-05T16:14:53.000Z</time>
      </trkpt>
      <trkpt lat="48.87743" lon="-0.96506">
        <ele>120.681295</ele>
        <time>2021-09-05T16:15:00.000Z</time>
      </trkpt>
      <trkpt lat="48.87707" lon="-0.96466">
        <ele>120.765967</ele>
        <time>2021-09-05T16:15:07.000Z</time>
      </trkpt>
      <trkpt lat="48.87678" lon="-0.96435">
        <ele>121.418562</ele>
        <time>2021-09-05T16:15:14.000Z</time>
      </trkpt>
      <trkpt lat="48.87652" lon="-0.96406">
        <ele>121.998175</ele>
        <time>2021-09-05T16:15:22.000Z</time>
      </trkpt>
      <trkpt lat="48.87636" lon="-0.96389">
        <ele>122.36733</ele>
        <time>2021-09-05T16:15:29.000Z</time>
      </trkpt>
      <trkpt lat="48.87622" lon="-0.96378">
        <ele>122.655431</ele>
        <time>2021-09-05T16:15:36.000Z</time>
      </trkpt>
      <trkpt lat="48.87604" lon="-0.96362">
        <ele>123.03791</ele>
        <time>2021-09-05T16:15:46.000Z</time>
      </trkpt>
      <trkpt lat="48.87589" lon="-0.9635">
        <ele>123.340156</ele>
        <time>2021-09-05T16:15:54.000Z</time>
      </trkpt>
      <trkpt lat="48.87573" lon="-0.9633">
        <ele>123.717746</ele>
        <time>2021-09-05T16:16:04.000Z</time>
      </trkpt>
      <trkpt lat="48.87559" lon="-0.96308">
        <ele>124.361724</ele>
        <time>2021-09-05T16:16:14.000Z</time>
      </trkpt>
      <trkpt lat="48.8755" lon="-0.96293">
        <ele>125.20627</ele>
        <time>2021-09-05T16:16:21.000Z</time>
      </trkpt>
      <trkpt lat="48.87537" lon="-0.96273">
        <ele>126.35059</ele>
        <time>2021-09-05T16:16:30.000Z</time>
      </trkpt>
      <trkpt lat="48.87525" lon="-0.96255">
        <ele>127.356568</ele>
        <time>2021-09-05T16:16:38.000Z</time>
      </trkpt>
      <trkpt lat="48.87513" lon="-0.96236">
        <ele>128.438918</ele>
        <time>2021-09-05T16:16:47.000Z</time>
      </trkpt>
      <trkpt lat="48.87503" lon="-0.96221">
        <ele>129.286365</ele>
        <time>2021-09-05T16:16:54.000Z</time>
      </trkpt>
      <trkpt lat="48.87492" lon="-0.96203">
        <ele>130.280807</ele>
        <time>2021-09-05T16:17:02.000Z</time>
      </trkpt>
      <trkpt lat="48.8748" lon="-0.96186">
        <ele>131.289682</ele>
        <time>2021-09-05T16:17:10.000Z</time>
      </trkpt>
      <trkpt lat="48.87465" lon="-0.96162">
        <ele>132.630038</ele>
        <time>2021-09-05T16:17:21.000Z</time>
      </trkpt>
      <trkpt lat="48.87452" lon="-0.96146">
        <ele>133.687209</ele>
        <time>2021-09-05T16:17:29.000Z</time>
      </trkpt>
      <trkpt lat="48.87443" lon="-0.96135">
        <ele>134.397932</ele>
        <time>2021-09-05T16:17:35.000Z</time>
      </trkpt>
      <trkpt lat="48.87432" lon="-0.96124">
        <ele>135.184175</ele>
        <time>2021-09-05T16:17:42.000Z</time>
      </trkpt>
      <trkpt lat="48.87422" lon="-0.96116">
        <ele>136.025758</ele>
        <time>2021-09-05T16:17:48.000Z</time>
      </trkpt>
      <trkpt lat="48.8741" lon="-0.96104">
        <ele>137.043672</ele>
        <time>2021-09-05T16:17:55.000Z</time>
      </trkpt>
      <trkpt lat="48.87396" lon="-0.96091">
        <ele>138.231321</ele>
        <time>2021-09-05T16:18:03.000Z</time>
      </trkpt>
      <trkpt lat="48.87382" lon="-0.96078">
        <ele>139.376238</ele>
        <time>2021-09-05T16:18:11.000Z</time>
      </trkpt>
      <trkpt lat="48.87372" lon="-0.96068">
        <ele>140.258704</ele>
        <time>2021-09-05T16:18:17.000Z</time>
      </trkpt>
      <trkpt lat="48.87357" lon="-0.96052">
        <ele>141.547669</ele>
        <time>2021-09-05T16:18:25.000Z</time>
      </trkpt>
      <trkpt lat="48.87347" lon="-0.96029">
        <ele>142.874297</ele>
        <time>2021-09-05T16:18:34.000Z</time>
      </trkpt>
      <trkpt lat="48.87336" lon="-0.96005">
        <ele>144.232334</ele>
        <time>2021-09-05T16:18:43.000Z</time>
      </trkpt>
      <trkpt lat="48.87331" lon="-0.95982">
        <ele>145.369423</ele>
        <time>2021-09-05T16:18:51.000Z</time>
      </trkpt>
      <trkpt lat="48.87325" lon="-0.95955">
        <ele>146.680078</ele>
        <time>2021-09-05T16:19:00.000Z</time>
      </trkpt>
      <trkpt lat="48.87324" lon="-0.95931">
        <ele>147.85145</ele>
        <time>2021-09-05T16:19:08.000Z</time>
      </trkpt>
      <trkpt lat="48.87324" lon="-0.95899">
        <ele>148.371721</ele>
        <time>2021-09-05T16:19:17.000Z</time>
      </trkpt>
      <trkpt lat="48.87323" lon="-0.95873">
        <ele>148.789896</ele>
        <time>2021-09-05T16:19:24.000Z</time>
      </trkpt>
      <trkpt lat="48.87323" lon="-0.95831">
        <ele>149.451947</ele>
        <time>2021-09-05T16:19:33.000Z</time>
      </trkpt>
      <trkpt lat="48.87319" lon="-0.95797">
        <ele>150.00011</ele>
        <time>2021-09-05T16:19:39.000Z</time>
      </trkpt>
      <trkpt lat="48.87309" lon="-0.95758">
        <ele>150.675604</ele>
        <time>2021-09-05T16:19:45.000Z</time>
      </trkpt>
      <trkpt lat="48.87291" lon="-0.95702">
        <ele>151.655647</ele>
        <time>2021-09-05T16:19:52.000Z</time>
      </trkpt>
      <trkpt lat="48.87278" lon="-0.95659">
        <ele>152.267095</ele>
        <time>2021-09-05T16:19:57.000Z</time>
      </trkpt>
      <trkpt lat="48.87272" lon="-0.95634">
        <ele>152.368055</ele>
        <time>2021-09-05T16:20:00.000Z</time>
      </trkpt>
      <trkpt lat="48.87256" lon="-0.95573">
        <ele>152.616101</ele>
        <time>2021-09-05T16:20:08.000Z</time>
      </trkpt>
      <trkpt lat="48.87239" lon="-0.95493">
        <ele>152.931397</ele>
        <time>2021-09-05T16:20:18.000Z</time>
      </trkpt>
      <trkpt lat="48.87217" lon="-0.95412">
        <ele>153.261284</ele>
        <time>2021-09-05T16:20:28.000Z</time>
      </trkpt>
      <trkpt lat="48.87193" lon="-0.95332">
        <ele>153.570481</ele>
        <time>2021-09-05T16:20:38.000Z</time>
      </trkpt>
      <trkpt lat="48.8719" lon="-0.95324">
        <ele>153.602129</ele>
        <time>2021-09-05T16:20:39.000Z</time>
      </trkpt>
      <trkpt lat="48.87171" lon="-0.95257">
        <ele>153.857613</ele>
        <time>2021-09-05T16:20:47.000Z</time>
      </trkpt>
      <trkpt lat="48.8715" lon="-0.9518">
        <ele>154.148944</ele>
        <time>2021-09-05T16:20:56.000Z</time>
      </trkpt>
      <trkpt lat="48.87137" lon="-0.95096">
        <ele>154.314747</ele>
        <time>2021-09-05T16:21:05.000Z</time>
      </trkpt>
      <trkpt lat="48.8713" lon="-0.95019">
        <ele>154.431765</ele>
        <time>2021-09-05T16:21:13.000Z</time>
      </trkpt>
      <trkpt lat="48.87122" lon="-0.94942">
        <ele>154.548226</ele>
        <time>2021-09-05T16:21:21.000Z</time>
      </trkpt>
      <trkpt lat="48.87119" lon="-0.94867">
        <ele>154.65764</ele>
        <time>2021-09-05T16:21:29.000Z</time>
      </trkpt>
      <trkpt lat="48.87119" lon="-0.94803">
        <ele>154.743338</ele>
        <time>2021-09-05T16:21:36.000Z</time>
      </trkpt>
      <trkpt lat="48.87117" lon="-0.94751">
        <ele>154.813944</ele>
        <time>2021-09-05T16:21:42.000Z</time>
      </trkpt>
      <trkpt lat="48.87116" lon="-0.94743">
        <ele>154.825635</ele>
        <time>2021-09-05T16:21:43.000Z</time>
      </trkpt>
      <trkpt lat="48.87114" lon="-0.94734">
        <ele>154.837904</ele>
        <time>2021-09-05T16:21:44.000Z</time>
      </trkpt>
      <trkpt lat="48.87104" lon="-0.94704">
        <ele>154.883766</ele>
        <time>2021-09-05T16:21:48.000Z</time>
      </trkpt>
      <trkpt lat="48.8708" lon="-0.94657">
        <ele>154.963691</ele>
        <time>2021-09-05T16:21:55.000Z</time>
      </trkpt>
      <trkpt lat="48.87045" lon="-0.94587">
        <ele>155.002943</ele>
        <time>2021-09-05T16:22:05.000Z</time>
      </trkpt>
      <trkpt lat="48.8701" lon="-0.94519">
        <ele>155.016914</ele>
        <time>2021-09-05T16:22:15.000Z</time>
      </trkpt>
      <trkpt lat="48.86981" lon="-0.94461">
        <ele>155.028884</ele>
        <time>2021-09-05T16:22:23.000Z</time>
      </trkpt>
      <trkpt lat="48.86947" lon="-0.94393">
        <ele>154.796595</ele>
        <time>2021-09-05T16:22:32.000Z</time>
      </trkpt>
      <trkpt lat="48.8694" lon="-0.94379">
        <ele>154.677456</ele>
        <time>2021-09-05T16:22:34.000Z</time>
      </trkpt>
      <trkpt lat="48.86924" lon="-0.94348">
        <ele>154.431603</ele>
        <time>2021-09-05T16:22:38.000Z</time>
      </trkpt>
      <trkpt lat="48.86904" lon="-0.9431">
        <ele>154.111063</ele>
        <time>2021-09-05T16:22:43.000Z</time>
      </trkpt>
      <trkpt lat="48.86873" lon="-0.9425">
        <ele>153.622427</ele>
        <time>2021-09-05T16:22:50.000Z</time>
      </trkpt>
      <trkpt lat="48.86847" lon="-0.94178">
        <ele>152.966096</ele>
        <time>2021-09-05T16:22:57.000Z</time>
      </trkpt>
      <trkpt lat="48.86822" lon="-0.94106">
        <ele>152.048492</ele>
        <time>2021-09-05T16:23:04.000Z</time>
      </trkpt>
      <trkpt lat="48.86818" lon="-0.94096">
        <ele>151.92146</ele>
        <time>2021-09-05T16:23:05.000Z</time>
      </trkpt>
      <trkpt lat="48.868" lon="-0.94017">
        <ele>150.997433</ele>
        <time>2021-09-05T16:23:12.000Z</time>
      </trkpt>
      <trkpt lat="48.86785" lon="-0.93948">
        <ele>150.168272</ele>
        <time>2021-09-05T16:23:18.000Z</time>
      </trkpt>
      <trkpt lat="48.86762" lon="-0.93897">
        <ele>149.311944</ele>
        <time>2021-09-05T16:23:23.000Z</time>
      </trkpt>
      <trkpt lat="48.86727" lon="-0.93831">
        <ele>148.117686</ele>
        <time>2021-09-05T16:23:30.000Z</time>
      </trkpt>
      <trkpt lat="48.86701" lon="-0.93771">
        <ele>147.103074</ele>
        <time>2021-09-05T16:23:36.000Z</time>
      </trkpt>
      <trkpt lat="48.86683" lon="-0.93703">
        <ele>146.005871</ele>
        <time>2021-09-05T16:23:42.000Z</time>
      </trkpt>
      <trkpt lat="48.86671" lon="-0.93631">
        <ele>144.739503</ele>
        <time>2021-09-05T16:23:48.000Z</time>
      </trkpt>
      <trkpt lat="48.86669" lon="-0.9362">
        <ele>144.533951</ele>
        <time>2021-09-05T16:23:49.000Z</time>
      </trkpt>
      <trkpt lat="48.86655" lon="-0.93574">
        <ele>143.666437</ele>
        <time>2021-09-05T16:23:53.000Z</time>
      </trkpt>
      <trkpt lat="48.8665" lon="-0.93563">
        <ele>143.446944</ele>
        <time>2021-09-05T16:23:54.000Z</time>
      </trkpt>
      <trkpt lat="48.86635" lon="-0.93531">
        <ele>142.76476</ele>
        <time>2021-09-05T16:23:57.000Z</time>
      </trkpt>
      <trkpt lat="48.86628" lon="-0.93523">
        <ele>142.54024</ele>
        <time>2021-09-05T16:23:58.000Z</time>
      </trkpt>
      <trkpt lat="48.86602" lon="-0.93489">
        <ele>141.62107</ele>
        <time>2021-09-05T16:24:02.000Z</time>
      </trkpt>
      <trkpt lat="48.86597" lon="-0.93477">
        <ele>141.391162</ele>
        <time>2021-09-05T16:24:03.000Z</time>
      </trkpt>
      <trkpt lat="48.86593" lon="-0.93466">
        <ele>141.159721</ele>
        <time>2021-09-05T16:24:04.000Z</time>
      </trkpt>
      <trkpt lat="48.8659" lon="-0.93426">
        <ele>140.448033</ele>
        <time>2021-09-05T16:24:07.000Z</time>
      </trkpt>
      <trkpt lat="48.86589" lon="-0.93414">
        <ele>140.223854</ele>
        <time>2021-09-05T16:24:08.000Z</time>
      </trkpt>
      <trkpt lat="48.86592" lon="-0.93377">
        <ele>139.563245</ele>
        <time>2021-09-05T16:24:11.000Z</time>
      </trkpt>
      <trkpt lat="48.86594" lon="-0.93364">
        <ele>139.344133</ele>
        <time>2021-09-05T16:24:12.000Z</time>
      </trkpt>
      <trkpt lat="48.86603" lon="-0.93331">
        <ele>138.699931</ele>
        <time>2021-09-05T16:24:15.000Z</time>
      </trkpt>
      <trkpt lat="48.86633" lon="-0.93254">
        <ele>137.11122</ele>
        <time>2021-09-05T16:24:22.000Z</time>
      </trkpt>
      <trkpt lat="48.86657" lon="-0.93199">
        <ele>135.853797</ele>
        <time>2021-09-05T16:24:27.000Z</time>
      </trkpt>
      <trkpt lat="48.86659" lon="-0.93186">
        <ele>135.592532</ele>
        <time>2021-09-05T16:24:28.000Z</time>
      </trkpt>
      <trkpt lat="48.86661" lon="-0.93172">
        <ele>135.336144</ele>
        <time>2021-09-05T16:24:29.000Z</time>
      </trkpt>
      <trkpt lat="48.86664" lon="-0.93133">
        <ele>134.572716</ele>
        <time>2021-09-05T16:24:32.000Z</time>
      </trkpt>
      <trkpt lat="48.86672" lon="-0.93043">
        <ele>132.823833</ele>
        <time>2021-09-05T16:24:39.000Z</time>
      </trkpt>
      <trkpt lat="48.86679" lon="-0.93007">
        <ele>132.093327</ele>
        <time>2021-09-05T16:24:42.000Z</time>
      </trkpt>
      <trkpt lat="48.86682" lon="-0.92995">
        <ele>131.84596</ele>
        <time>2021-09-05T16:24:43.000Z</time>
      </trkpt>
      <trkpt lat="48.86688" lon="-0.9297">
        <ele>131.27622</ele>
        <time>2021-09-05T16:24:45.000Z</time>
      </trkpt>
      <trkpt lat="48.8669" lon="-0.92942">
        <ele>130.611377</ele>
        <time>2021-09-05T16:24:47.000Z</time>
      </trkpt>
      <trkpt lat="48.86682" lon="-0.92915">
        <ele>129.905546</ele>
        <time>2021-09-05T16:24:49.000Z</time>
      </trkpt>
      <trkpt lat="48.86676" lon="-0.92904">
        <ele>129.560931</ele>
        <time>2021-09-05T16:24:50.000Z</time>
      </trkpt>
      <trkpt lat="48.86665" lon="-0.92878">
        <ele>128.841039</ele>
        <time>2021-09-05T16:24:52.000Z</time>
      </trkpt>
      <trkpt lat="48.86664" lon="-0.92849">
        <ele>128.128498</ele>
        <time>2021-09-05T16:24:54.000Z</time>
      </trkpt>
      <trkpt lat="48.86667" lon="-0.92819">
        <ele>127.412663</ele>
        <time>2021-09-05T16:24:56.000Z</time>
      </trkpt>
      <trkpt lat="48.8667" lon="-0.92789">
        <ele>126.696385</ele>
        <time>2021-09-05T16:24:58.000Z</time>
      </trkpt>
      <trkpt lat="48.86674" lon="-0.92759">
        <ele>125.963473</ele>
        <time>2021-09-05T16:25:00.000Z</time>
      </trkpt>
      <trkpt lat="48.86681" lon="-0.9273">
        <ele>125.218732</ele>
        <time>2021-09-05T16:25:02.000Z</time>
      </trkpt>
      <trkpt lat="48.86688" lon="-0.92702">
        <ele>124.590795</ele>
        <time>2021-09-05T16:25:04.000Z</time>
      </trkpt>
      <trkpt lat="48.86692" lon="-0.92673">
        <ele>123.994069</ele>
        <time>2021-09-05T16:25:06.000Z</time>
      </trkpt>
      <trkpt lat="48.86684" lon="-0.92626">
        <ele>123.028891</ele>
        <time>2021-09-05T16:25:10.000Z</time>
      </trkpt>
      <trkpt lat="48.86674" lon="-0.92584">
        <ele>122.123276</ele>
        <time>2021-09-05T16:25:15.000Z</time>
      </trkpt>
      <trkpt lat="48.86663" lon="-0.92545">
        <ele>121.287503</ele>
        <time>2021-09-05T16:25:21.000Z</time>
      </trkpt>
      <trkpt lat="48.86659" lon="-0.92532">
        <ele>121.011547</ele>
        <time>2021-09-05T16:25:23.000Z</time>
      </trkpt>
      <trkpt lat="48.86652" lon="-0.92504">
        <ele>120.390368</ele>
        <time>2021-09-05T16:25:27.000Z</time>
      </trkpt>
      <trkpt lat="48.86642" lon="-0.92444">
        <ele>119.272635</ele>
        <time>2021-09-05T16:25:34.000Z</time>
      </trkpt>
      <trkpt lat="48.86628" lon="-0.92374">
        <ele>118.211176</ele>
        <time>2021-09-05T16:25:42.000Z</time>
      </trkpt>
      <trkpt lat="48.86616" lon="-0.92344">
        <ele>117.70148</ele>
        <time>2021-09-05T16:25:46.000Z</time>
      </trkpt>
      <trkpt lat="48.86609" lon="-0.92331">
        <ele>117.458423</ele>
        <time>2021-09-05T16:25:48.000Z</time>
      </trkpt>
      <trkpt lat="48.8658" lon="-0.92293">
        <ele>116.613514</ele>
        <time>2021-09-05T16:25:55.000Z</time>
      </trkpt>
      <trkpt lat="48.8655" lon="-0.92255">
        <ele>115.750837</ele>
        <time>2021-09-05T16:26:03.000Z</time>
      </trkpt>
      <trkpt lat="48.86532" lon="-0.92224">
        <ele>115.68855</ele>
        <time>2021-09-05T16:26:10.000Z</time>
      </trkpt>
      <trkpt lat="48.86517" lon="-0.92193">
        <ele>115.781907</ele>
        <time>2021-09-05T16:26:18.000Z</time>
      </trkpt>
      <trkpt lat="48.86503" lon="-0.92158">
        <ele>115.881713</ele>
        <time>2021-09-05T16:26:27.000Z</time>
      </trkpt>
      <trkpt lat="48.86492" lon="-0.9213">
        <ele>115.959662</ele>
        <time>2021-09-05T16:26:34.000Z</time>
      </trkpt>
      <trkpt lat="48.86482" lon="-0.92097">
        <ele>116.048777</ele>
        <time>2021-09-05T16:26:42.000Z</time>
      </trkpt>
      <trkpt lat="48.86476" lon="-0.92066">
        <ele>116.127033</ele>
        <time>2021-09-05T16:26:49.000Z</time>
      </trkpt>
      <trkpt lat="48.86467" lon="-0.92017">
        <ele>116.249804</ele>
        <time>2021-09-05T16:27:00.000Z</time>
      </trkpt>
      <trkpt lat="48.8646" lon="-0.91982">
        <ele>116.677936</ele>
        <time>2021-09-05T16:27:08.000Z</time>
      </trkpt>
      <trkpt lat="48.86451" lon="-0.91944">
        <ele>117.291465</ele>
        <time>2021-09-05T16:27:17.000Z</time>
      </trkpt>
      <trkpt lat="48.86441" lon="-0.91917">
        <ele>117.777422</ele>
        <time>2021-09-05T16:27:24.000Z</time>
      </trkpt>
      <trkpt lat="48.86426" lon="-0.91884">
        <ele>118.397146</ele>
        <time>2021-09-05T16:27:33.000Z</time>
      </trkpt>
      <trkpt lat="48.86409" lon="-0.91852">
        <ele>119.019882</ele>
        <time>2021-09-05T16:27:42.000Z</time>
      </trkpt>
      <trkpt lat="48.86396" lon="-0.91821">
        <ele>119.594737</ele>
        <time>2021-09-05T16:27:50.000Z</time>
      </trkpt>
      <trkpt lat="48.86373" lon="-0.91787">
        <ele>120.326565</ele>
        <time>2021-09-05T16:28:00.000Z</time>
      </trkpt>
      <trkpt lat="48.86352" lon="-0.91758">
        <ele>121.023864</ele>
        <time>2021-09-05T16:28:09.000Z</time>
      </trkpt>
      <trkpt lat="48.86328" lon="-0.91731">
        <ele>121.728884</ele>
        <time>2021-09-05T16:28:18.000Z</time>
      </trkpt>
      <trkpt lat="48.86299" lon="-0.91699">
        <ele>122.61014</ele>
        <time>2021-09-05T16:28:29.000Z</time>
      </trkpt>
      <trkpt lat="48.86266" lon="-0.91662">
        <ele>123.591995</ele>
        <time>2021-09-05T16:28:40.000Z</time>
      </trkpt>
      <trkpt lat="48.86239" lon="-0.91633">
        <ele>124.371727</ele>
        <time>2021-09-05T16:28:48.000Z</time>
      </trkpt>
      <trkpt lat="48.86212" lon="-0.91606">
        <ele>124.810156</ele>
        <time>2021-09-05T16:28:56.000Z</time>
      </trkpt>
      <trkpt lat="48.86184" lon="-0.91585">
        <ele>124.831855</ele>
        <time>2021-09-05T16:29:03.000Z</time>
      </trkpt>
      <trkpt lat="48.86155" lon="-0.91563">
        <ele>124.854646</ele>
        <time>2021-09-05T16:29:09.000Z</time>
      </trkpt>
      <trkpt lat="48.86116" lon="-0.91535">
        <ele>124.884349</ele>
        <time>2021-09-05T16:29:15.000Z</time>
      </trkpt>
      <trkpt lat="48.86081" lon="-0.91501">
        <ele>124.913464</ele>
        <time>2021-09-05T16:29:20.000Z</time>
      </trkpt>
      <trkpt lat="48.86056" lon="-0.91482">
        <ele>124.965218</ele>
        <time>2021-09-05T16:29:23.000Z</time>
      </trkpt>
      <trkpt lat="48.86046" lon="-0.91479">
        <ele>124.997476</ele>
        <time>2021-09-05T16:29:24.000Z</time>
      </trkpt>
      <trkpt lat="48.86003" lon="-0.91477">
        <ele>125.147128</ele>
        <time>2021-09-05T16:29:29.000Z</time>
      </trkpt>
      <trkpt lat="48.85968" lon="-0.91475">
        <ele>125.270725</ele>
        <time>2021-09-05T16:29:34.000Z</time>
      </trkpt>
      <trkpt lat="48.85942" lon="-0.91469">
        <ele>125.360835</ele>
        <time>2021-09-05T16:29:39.000Z</time>
      </trkpt>
      <trkpt lat="48.85917" lon="-0.91457">
        <ele>125.451202</ele>
        <time>2021-09-05T16:29:46.000Z</time>
      </trkpt>
      <trkpt lat="48.85891" lon="-0.91454">
        <ele>125.542267</ele>
        <time>2021-09-05T16:29:54.000Z</time>
      </trkpt>
      <trkpt lat="48.85866" lon="-0.9146">
        <ele>125.790107</ele>
        <time>2021-09-05T16:30:02.000Z</time>
      </trkpt>
      <trkpt lat="48.85837" lon="-0.91472">
        <ele>126.109982</ele>
        <time>2021-09-05T16:30:11.000Z</time>
      </trkpt>
      <trkpt lat="48.85806" lon="-0.91485">
        <ele>126.449547</ele>
        <time>2021-09-05T16:30:20.000Z</time>
      </trkpt>
      <trkpt lat="48.85769" lon="-0.915">
        <ele>126.852241</ele>
        <time>2021-09-05T16:30:29.000Z</time>
      </trkpt>
      <trkpt lat="48.85727" lon="-0.91515">
        <ele>127.300064</ele>
        <time>2021-09-05T16:30:38.000Z</time>
      </trkpt>
      <trkpt lat="48.85685" lon="-0.91524">
        <ele>127.38282</ele>
        <time>2021-09-05T16:30:46.000Z</time>
      </trkpt>
      <trkpt lat="48.85644" lon="-0.91528">
        <ele>127.306912</ele>
        <time>2021-09-05T16:30:53.000Z</time>
      </trkpt>
      <trkpt lat="48.85603" lon="-0.91524">
        <ele>127.230819</ele>
        <time>2021-09-05T16:31:00.000Z</time>
      </trkpt>
      <trkpt lat="48.85565" lon="-0.91505">
        <ele>127.156428</ele>
        <time>2021-09-05T16:31:07.000Z</time>
      </trkpt>
      <trkpt lat="48.85559" lon="-0.91502">
        <ele>127.145698</ele>
        <time>2021-09-05T16:31:08.000Z</time>
      </trkpt>
      <trkpt lat="48.85535" lon="-0.91474">
        <ele>127.022363</ele>
        <time>2021-09-05T16:31:13.000Z</time>
      </trkpt>
      <trkpt lat="48.85501" lon="-0.91428">
        <ele>126.557035</ele>
        <time>2021-09-05T16:31:20.000Z</time>
      </trkpt>
      <trkpt lat="48.85459" lon="-0.91367">
        <ele>125.962691</ele>
        <time>2021-09-05T16:31:28.000Z</time>
      </trkpt>
      <trkpt lat="48.85412" lon="-0.91309">
        <ele>125.346478</ele>
        <time>2021-09-05T16:31:36.000Z</time>
      </trkpt>
      <trkpt lat="48.85399" lon="-0.91296">
        <ele>125.215217</ele>
        <time>2021-09-05T16:31:38.000Z</time>
      </trkpt>
      <trkpt lat="48.85385" lon="-0.91289">
        <ele>125.109301</ele>
        <time>2021-09-05T16:31:40.000Z</time>
      </trkpt>
      <trkpt lat="48.85372" lon="-0.91284">
        <ele>125.008277</ele>
        <time>2021-09-05T16:31:42.000Z</time>
      </trkpt>
      <trkpt lat="48.85353" lon="-0.91278">
        <ele>124.868624</ele>
        <time>2021-09-05T16:31:45.000Z</time>
      </trkpt>
      <trkpt lat="48.85317" lon="-0.91268">
        <ele>124.605308</ele>
        <time>2021-09-05T16:31:51.000Z</time>
      </trkpt>
      <trkpt lat="48.85292" lon="-0.91254">
        <ele>124.408945</ele>
        <time>2021-09-05T16:31:56.000Z</time>
      </trkpt>
      <trkpt lat="48.85287" lon="-0.9125">
        <ele>124.373613</ele>
        <time>2021-09-05T16:31:57.000Z</time>
      </trkpt>
      <trkpt lat="48.85265" lon="-0.91229">
        <ele>124.183291</ele>
        <time>2021-09-05T16:32:03.000Z</time>
      </trkpt>
      <trkpt lat="48.85247" lon="-0.91198">
        <ele>123.983827</ele>
        <time>2021-09-05T16:32:11.000Z</time>
      </trkpt>
      <trkpt lat="48.85234" lon="-0.91162">
        <ele>123.874927</ele>
        <time>2021-09-05T16:32:19.000Z</time>
      </trkpt>
      <trkpt lat="48.85217" lon="-0.91121">
        <ele>123.754508</ele>
        <time>2021-09-05T16:32:27.000Z</time>
      </trkpt>
      <trkpt lat="48.85193" lon="-0.91074">
        <ele>123.605998</ele>
        <time>2021-09-05T16:32:35.000Z</time>
      </trkpt>
      <trkpt lat="48.85191" lon="-0.91068">
        <ele>123.587893</ele>
        <time>2021-09-05T16:32:36.000Z</time>
      </trkpt>
      <trkpt lat="48.85186" lon="-0.91055">
        <ele>123.549588</ele>
        <time>2021-09-05T16:32:38.000Z</time>
      </trkpt>
      <trkpt lat="48.8518" lon="-0.91042">
        <ele>123.51044</ele>
        <time>2021-09-05T16:32:40.000Z</time>
      </trkpt>
      <trkpt lat="48.85177" lon="-0.91036">
        <ele>123.490657</ele>
        <time>2021-09-05T16:32:41.000Z</time>
      </trkpt>
      <trkpt lat="48.85169" lon="-0.91015">
        <ele>123.430251</ele>
        <time>2021-09-05T16:32:44.000Z</time>
      </trkpt>
      <trkpt lat="48.85166" lon="-0.91009">
        <ele>123.410673</ele>
        <time>2021-09-05T16:32:45.000Z</time>
      </trkpt>
      <trkpt lat="48.85159" lon="-0.90986">
        <ele>123.346174</ele>
        <time>2021-09-05T16:32:48.000Z</time>
      </trkpt>
      <trkpt lat="48.85156" lon="-0.90978">
        <ele>123.323862</ele>
        <time>2021-09-05T16:32:49.000Z</time>
      </trkpt>
      <trkpt lat="48.85142" lon="-0.90933">
        <ele>122.87362</ele>
        <time>2021-09-05T16:32:54.000Z</time>
      </trkpt>
      <trkpt lat="48.85124" lon="-0.90866">
        <ele>122.021247</ele>
        <time>2021-09-05T16:33:00.000Z</time>
      </trkpt>
      <trkpt lat="48.85103" lon="-0.90782">
        <ele>120.950528</ele>
        <time>2021-09-05T16:33:07.000Z</time>
      </trkpt>
      <trkpt lat="48.85077" lon="-0.90696">
        <ele>119.819123</ele>
        <time>2021-09-05T16:33:14.000Z</time>
      </trkpt>
      <trkpt lat="48.85054" lon="-0.90639">
        <ele>118.970443</ele>
        <time>2021-09-05T16:33:19.000Z</time>
      </trkpt>
      <trkpt lat="48.85022" lon="-0.90579">
        <ele>117.980867</ele>
        <time>2021-09-05T16:33:25.000Z</time>
      </trkpt>
      <trkpt lat="48.84982" lon="-0.90514">
        <ele>116.853905</ele>
        <time>2021-09-05T16:33:32.000Z</time>
      </trkpt>
      <trkpt lat="48.84976" lon="-0.90505">
        <ele>116.698136</ele>
        <time>2021-09-05T16:33:33.000Z</time>
      </trkpt>
      <trkpt lat="48.8494" lon="-0.90452">
        <ele>115.752552</ele>
        <time>2021-09-05T16:33:40.000Z</time>
      </trkpt>
      <trkpt lat="48.84899" lon="-0.90391">
        <ele>114.691609</ele>
        <time>2021-09-05T16:33:49.000Z</time>
      </trkpt>
      <trkpt lat="48.84874" lon="-0.90333">
        <ele>113.829413</ele>
        <time>2021-09-05T16:33:56.000Z</time>
      </trkpt>
      <trkpt lat="48.84864" lon="-0.90307">
        <ele>113.468079</ele>
        <time>2021-09-05T16:33:59.000Z</time>
      </trkpt>
      <trkpt lat="48.84855" lon="-0.90281">
        <ele>113.141211</ele>
        <time>2021-09-05T16:34:02.000Z</time>
      </trkpt>
      <trkpt lat="48.84838" lon="-0.90229">
        <ele>112.640594</ele>
        <time>2021-09-05T16:34:08.000Z</time>
      </trkpt>
      <trkpt lat="48.84835" lon="-0.9022">
        <ele>112.554901</ele>
        <time>2021-09-05T16:34:09.000Z</time>
      </trkpt>
      <trkpt lat="48.84811" lon="-0.90154">
        <ele>111.898328</ele>
        <time>2021-09-05T16:34:17.000Z</time>
      </trkpt>
      <trkpt lat="48.84786" lon="-0.90097">
        <ele>111.305821</ele>
        <time>2021-09-05T16:34:24.000Z</time>
      </trkpt>
      <trkpt lat="48.84768" lon="-0.90058">
        <ele>110.894553</ele>
        <time>2021-09-05T16:34:29.000Z</time>
      </trkpt>
      <trkpt lat="48.84735" lon="-0.89991">
        <ele>110.276442</ele>
        <time>2021-09-05T16:34:38.000Z</time>
      </trkpt>
      <trkpt lat="48.84704" lon="-0.8993">
        <ele>109.719919</ele>
        <time>2021-09-05T16:34:46.000Z</time>
      </trkpt>
      <trkpt lat="48.84685" lon="-0.89892">
        <ele>109.375661</ele>
        <time>2021-09-05T16:34:51.000Z</time>
      </trkpt>
      <trkpt lat="48.84678" lon="-0.89877">
        <ele>109.237009</ele>
        <time>2021-09-05T16:34:53.000Z</time>
      </trkpt>
      <trkpt lat="48.84672" lon="-0.89868">
        <ele>109.143136</ele>
        <time>2021-09-05T16:34:54.000Z</time>
      </trkpt>
      <trkpt lat="48.84649" lon="-0.8985">
        <ele>108.859804</ele>
        <time>2021-09-05T16:34:58.000Z</time>
      </trkpt>
      <trkpt lat="48.84614" lon="-0.89825">
        <ele>108.485127</ele>
        <time>2021-09-05T16:35:04.000Z</time>
      </trkpt>
      <trkpt lat="48.84582" lon="-0.89805">
        <ele>108.154034</ele>
        <time>2021-09-05T16:35:10.000Z</time>
      </trkpt>
      <trkpt lat="48.84577" lon="-0.89803">
        <ele>108.10879</ele>
        <time>2021-09-05T16:35:11.000Z</time>
      </trkpt>
      <trkpt lat="48.84569" lon="-0.898">
        <ele>108.032046</ele>
        <time>2021-09-05T16:35:13.000Z</time>
      </trkpt>
      <trkpt lat="48.84565" lon="-0.89799">
        <ele>107.987878</ele>
        <time>2021-09-05T16:35:17.000Z</time>
      </trkpt>
      <trkpt lat="48.84563" lon="-0.89798">
        <ele>107.969035</ele>
        <time>2021-09-05T16:35:29.000Z</time>
      </trkpt>
      <trkpt lat="48.84555" lon="-0.89786">
        <ele>107.862955</ele>
        <time>2021-09-05T16:35:34.000Z</time>
      </trkpt>
      <trkpt lat="48.84545" lon="-0.89751">
        <ele>107.623168</ele>
        <time>2021-09-05T16:35:41.000Z</time>
      </trkpt>
      <trkpt lat="48.84537" lon="-0.89728">
        <ele>107.457728</ele>
        <time>2021-09-05T16:35:46.000Z</time>
      </trkpt>
      <trkpt lat="48.84527" lon="-0.89697">
        <ele>107.242307</ele>
        <time>2021-09-05T16:35:53.000Z</time>
      </trkpt>
      <trkpt lat="48.84535" lon="-0.89679">
        <ele>107.247816</ele>
        <time>2021-09-05T16:35:58.000Z</time>
      </trkpt>
      <trkpt lat="48.84551" lon="-0.89651">
        <ele>107.855411</ele>
        <time>2021-09-05T16:36:05.000Z</time>
      </trkpt>
      <trkpt lat="48.84556" lon="-0.8963">
        <ele>108.223049</ele>
        <time>2021-09-05T16:36:10.000Z</time>
      </trkpt>
      <trkpt lat="48.84555" lon="-0.89602">
        <ele>108.689896</ele>
        <time>2021-09-05T16:36:17.000Z</time>
      </trkpt>
      <trkpt lat="48.84549" lon="-0.89572">
        <ele>109.203935</ele>
        <time>2021-09-05T16:36:25.000Z</time>
      </trkpt>
      <trkpt lat="48.8454" lon="-0.8954">
        <ele>109.777296</ele>
        <time>2021-09-05T16:36:34.000Z</time>
      </trkpt>
      <trkpt lat="48.84534" lon="-0.89522">
        <ele>110.098389</ele>
        <time>2021-09-05T16:36:39.000Z</time>
      </trkpt>
      <trkpt lat="48.8452" lon="-0.89507">
        <ele>110.52669</ele>
        <time>2021-09-05T16:36:46.000Z</time>
      </trkpt>
      <trkpt lat="48.84514" lon="-0.89489">
        <ele>110.85707</ele>
        <time>2021-09-05T16:36:51.000Z</time>
      </trkpt>
      <trkpt lat="48.84518" lon="-0.89476">
        <ele>111.096958</ele>
        <time>2021-09-05T16:36:54.000Z</time>
      </trkpt>
      <trkpt lat="48.84524" lon="-0.89467">
        <ele>111.305559</ele>
        <time>2021-09-05T16:36:56.000Z</time>
      </trkpt>
      <trkpt lat="48.84528" lon="-0.89455">
        <ele>111.534008</ele>
        <time>2021-09-05T16:36:58.000Z</time>
      </trkpt>
      <trkpt lat="48.84529" lon="-0.89447">
        <ele>111.655073</ele>
        <time>2021-09-05T16:36:59.000Z</time>
      </trkpt>
      <trkpt lat="48.84527" lon="-0.89399">
        <ele>112.090823</ele>
        <time>2021-09-05T16:37:05.000Z</time>
      </trkpt>
      <trkpt lat="48.84518" lon="-0.89349">
        <ele>112.559293</ele>
        <time>2021-09-05T16:37:13.000Z</time>
      </trkpt>
      <trkpt lat="48.84513" lon="-0.89309">
        <ele>112.925796</ele>
        <time>2021-09-05T16:37:19.000Z</time>
      </trkpt>
      <trkpt lat="48.84513" lon="-0.89295">
        <ele>113.046449</ele>
        <time>2021-09-05T16:37:20.000Z</time>
      </trkpt>
      <trkpt lat="48.84513" lon="-0.89263">
        <ele>113.34268</ele>
        <time>2021-09-05T16:37:25.000Z</time>
      </trkpt>
      <trkpt lat="48.84516" lon="-0.89202">
        <ele>113.88627</ele>
        <time>2021-09-05T16:37:34.000Z</time>
      </trkpt>
      <trkpt lat="48.8452" lon="-0.89164">
        <ele>114.307639</ele>
        <time>2021-09-05T16:37:41.000Z</time>
      </trkpt>
      <trkpt lat="48.84527" lon="-0.89111">
        <ele>115.029763</ele>
        <time>2021-09-05T16:37:48.000Z</time>
      </trkpt>
      <trkpt lat="48.84529" lon="-0.89097">
        <ele>115.223306</ele>
        <time>2021-09-05T16:37:50.000Z</time>
      </trkpt>
      <trkpt lat="48.84533" lon="-0.8907">
        <ele>115.594975</ele>
        <time>2021-09-05T16:37:54.000Z</time>
      </trkpt>
      <trkpt lat="48.84535" lon="-0.89058">
        <ele>115.770449</ele>
        <time>2021-09-05T16:37:57.000Z</time>
      </trkpt>
      <trkpt lat="48.84541" lon="-0.89008">
        <ele>116.463057</ele>
        <time>2021-09-05T16:38:04.000Z</time>
      </trkpt>
      <trkpt lat="48.84548" lon="-0.88959">
        <ele>117.140248</ele>
        <time>2021-09-05T16:38:12.000Z</time>
      </trkpt>
      <trkpt lat="48.84555" lon="-0.88916">
        <ele>117.731817</ele>
        <time>2021-09-05T16:38:20.000Z</time>
      </trkpt>
      <trkpt lat="48.84567" lon="-0.88856">
        <ele>118.507593</ele>
        <time>2021-09-05T16:38:29.000Z</time>
      </trkpt>
      <trkpt lat="48.8458" lon="-0.8879">
        <ele>119.357265</ele>
        <time>2021-09-05T16:38:39.000Z</time>
      </trkpt>
      <trkpt lat="48.8459" lon="-0.88742">
        <ele>119.969126</ele>
        <time>2021-09-05T16:38:46.000Z</time>
      </trkpt>
      <trkpt lat="48.84599" lon="-0.88711">
        <ele>120.392271</ele>
        <time>2021-09-05T16:38:51.000Z</time>
      </trkpt>
      <trkpt lat="48.84602" lon="-0.88706">
        <ele>120.471265</ele>
        <time>2021-09-05T16:38:52.000Z</time>
      </trkpt>
      <trkpt lat="48.84614" lon="-0.88685">
        <ele>120.808485</ele>
        <time>2021-09-05T16:38:56.000Z</time>
      </trkpt>
      <trkpt lat="48.84622" lon="-0.88677">
        <ele>120.983746</ele>
        <time>2021-09-05T16:38:58.000Z</time>
      </trkpt>
      <trkpt lat="48.84647" lon="-0.8865">
        <ele>121.738352</ele>
        <time>2021-09-05T16:39:05.000Z</time>
      </trkpt>
      <trkpt lat="48.84658" lon="-0.88634">
        <ele>122.170309</ele>
        <time>2021-09-05T16:39:07.000Z</time>
      </trkpt>
      <trkpt lat="48.84664" lon="-0.88602">
        <ele>122.749804</ele>
        <time>2021-09-05T16:39:12.000Z</time>
      </trkpt>
      <trkpt lat="48.84662" lon="-0.88582">
        <ele>123.121355</ele>
        <time>2021-09-05T16:39:17.000Z</time>
      </trkpt>
      <trkpt lat="48.84662" lon="-0.88573">
        <ele>123.287221</ele>
        <time>2021-09-05T16:39:23.000Z</time>
      </trkpt>
      <trkpt lat="48.84661" lon="-0.8857">
        <ele>123.327066</ele>
        <time>2021-09-05T16:39:30.000Z</time>
      </trkpt>
      <trkpt lat="48.8466" lon="-0.88558">
        <ele>123.558324</ele>
        <time>2021-09-05T16:39:35.000Z</time>
      </trkpt>
      <trkpt lat="48.8466" lon="-0.88553">
        <ele>123.649059</ele>
        <time>2021-09-05T16:39:40.000Z</time>
      </trkpt>
      <trkpt lat="48.84672" lon="-0.88511">
        <ele>124.458492</ele>
        <time>2021-09-05T16:39:48.000Z</time>
      </trkpt>
      <trkpt lat="48.84689" lon="-0.88478">
        <ele>125.232061</ele>
        <time>2021-09-05T16:39:58.000Z</time>
      </trkpt>
      <trkpt lat="48.84705" lon="-0.88447">
        <ele>125.926519</ele>
        <time>2021-09-05T16:40:07.000Z</time>
      </trkpt>
      <trkpt lat="48.84716" lon="-0.88426">
        <ele>126.369947</ele>
        <time>2021-09-05T16:40:13.000Z</time>
      </trkpt>
      <trkpt lat="48.84712" lon="-0.88399">
        <ele>126.816533</ele>
        <time>2021-09-05T16:40:18.000Z</time>
      </trkpt>
      <trkpt lat="48.847" lon="-0.88362">
        <ele>127.49487</ele>
        <time>2021-09-05T16:40:27.000Z</time>
      </trkpt>
      <trkpt lat="48.84691" lon="-0.88328">
        <ele>128.09376</ele>
        <time>2021-09-05T16:40:35.000Z</time>
      </trkpt>
      <trkpt lat="48.84685" lon="-0.88292">
        <ele>128.694564</ele>
        <time>2021-09-05T16:40:42.000Z</time>
      </trkpt>
      <trkpt lat="48.84683" lon="-0.88263">
        <ele>129.172302</ele>
        <time>2021-09-05T16:40:47.000Z</time>
      </trkpt>
      <trkpt lat="48.84686" lon="-0.88251">
        <ele>129.364654</ele>
        <time>2021-09-05T16:40:49.000Z</time>
      </trkpt>
      <trkpt lat="48.84687" lon="-0.88233">
        <ele>129.659132</ele>
        <time>2021-09-05T16:40:52.000Z</time>
      </trkpt>
      <trkpt lat="48.84692" lon="-0.88188">
        <ele>130.409718</ele>
        <time>2021-09-05T16:40:59.000Z</time>
      </trkpt>
      <trkpt lat="48.84703" lon="-0.88133">
        <ele>130.943578</ele>
        <time>2021-09-05T16:41:07.000Z</time>
      </trkpt>
      <trkpt lat="48.84713" lon="-0.88085">
        <ele>131.370727</ele>
        <time>2021-09-05T16:41:15.000Z</time>
      </trkpt>
      <trkpt lat="48.84728" lon="-0.8801">
        <ele>132.028018</ele>
        <time>2021-09-05T16:41:24.000Z</time>
      </trkpt>
      <trkpt lat="48.84742" lon="-0.87942">
        <ele>132.632211</ele>
        <time>2021-09-05T16:41:33.000Z</time>
      </trkpt>
      <trkpt lat="48.84749" lon="-0.87911">
        <ele>132.773477</ele>
        <time>2021-09-05T16:41:37.000Z</time>
      </trkpt>
      <trkpt lat="48.84752" lon="-0.87905">
        <ele>132.735104</ele>
        <time>2021-09-05T16:41:38.000Z</time>
      </trkpt>
      <trkpt lat="48.84771" lon="-0.87894">
        <ele>132.577975</ele>
        <time>2021-09-05T16:41:42.000Z</time>
      </trkpt>
      <trkpt lat="48.84785" lon="-0.87891">
        <ele>132.476974</ele>
        <time>2021-09-05T16:41:44.000Z</time>
      </trkpt>
      <trkpt lat="48.84799" lon="-0.87888">
        <ele>132.374151</ele>
        <time>2021-09-05T16:41:46.000Z</time>
      </trkpt>
      <trkpt lat="48.84805" lon="-0.87885">
        <ele>132.328876</ele>
        <time>2021-09-05T16:41:47.000Z</time>
      </trkpt>
      <trkpt lat="48.84815" lon="-0.87881">
        <ele>132.249231</ele>
        <time>2021-09-05T16:41:49.000Z</time>
      </trkpt>
      <trkpt lat="48.84825" lon="-0.87833">
        <ele>132.00177</ele>
        <time>2021-09-05T16:41:54.000Z</time>
      </trkpt>
      <trkpt lat="48.84833" lon="-0.87811">
        <ele>131.880255</ele>
        <time>2021-09-05T16:41:58.000Z</time>
      </trkpt>
      <trkpt lat="48.84839" lon="-0.87798">
        <ele>131.802399</ele>
        <time>2021-09-05T16:42:00.000Z</time>
      </trkpt>
      <trkpt lat="48.84858" lon="-0.87758">
        <ele>131.564355</ele>
        <time>2021-09-05T16:42:05.000Z</time>
      </trkpt>
      <trkpt lat="48.84864" lon="-0.87744">
        <ele>131.464143</ele>
        <time>2021-09-05T16:42:07.000Z</time>
      </trkpt>
      <trkpt lat="48.84883" lon="-0.87702">
        <ele>130.529683</ele>
        <time>2021-09-05T16:42:13.000Z</time>
      </trkpt>
      <trkpt lat="48.84886" lon="-0.87696">
        <ele>130.381855</ele>
        <time>2021-09-05T16:42:15.000Z</time>
      </trkpt>
      <trkpt lat="48.84901" lon="-0.87703">
        <ele>129.954823</ele>
        <time>2021-09-05T16:42:17.000Z</time>
      </trkpt>
      <trkpt lat="48.84906" lon="-0.87706">
        <ele>129.7997</ele>
        <time>2021-09-05T16:42:18.000Z</time>
      </trkpt>
      <trkpt lat="48.84906" lon="-0.87706">
        <ele>129.7997</ele>
        <time>2021-09-05T16:42:19.000Z</time>
      </trkpt>
      <trkpt lat="48.84921" lon="-0.87716">
        <ele>129.345637</ele>
        <time>2021-09-05T16:42:21.000Z</time>
      </trkpt>
      <trkpt lat="48.84924" lon="-0.8772">
        <ele>129.24045</ele>
        <time>2021-09-05T16:42:22.000Z</time>
      </trkpt>
      <trkpt lat="48.84923" lon="-0.87732">
        <ele>129.026145</ele>
        <time>2021-09-05T16:42:24.000Z</time>
      </trkpt>
      <trkpt lat="48.84923" lon="-0.87735">
        <ele>128.969326</ele>
        <time>2021-09-05T16:42:25.000Z</time>
      </trkpt>
      <trkpt lat="48.84924" lon="-0.87718">
        <ele>128.654352</ele>
        <time>2021-09-05T16:42:30.000Z</time>
      </trkpt>
      <trkpt lat="48.84923" lon="-0.87733">
        <ele>128.38347</ele>
        <time>2021-09-05T16:42:35.000Z</time>
      </trkpt>
      <trkpt lat="48.84923" lon="-0.87732">
        <ele>128.376173</ele>
        <time>2021-09-05T16:42:45.000Z</time>
      </trkpt>
      <trkpt lat="48.84923" lon="-0.87718">
        <ele>128.107796</ele>
        <time>2021-09-05T16:42:51.000Z</time>
      </trkpt>
      <trkpt lat="48.84923" lon="-0.87736">
        <ele>127.764454</ele>
        <time>2021-09-05T16:42:55.000Z</time>
      </trkpt>
      <trkpt lat="48.84936" lon="-0.87719">
        <ele>127.288384</ele>
        <time>2021-09-05T16:59:40.000Z</time>
      </trkpt>
      <trkpt lat="48.84919" lon="-0.87715">
        <ele>126.830389</ele>
        <time>2021-09-05T16:59:41.000Z</time>
      </trkpt>
      <trkpt lat="48.84911" lon="-0.87709">
        <ele>126.576114</ele>
        <time>2021-09-05T16:59:46.000Z</time>
      </trkpt>
      <trkpt lat="48.84893" lon="-0.87695">
        <ele>126.638913</ele>
        <time>2021-09-05T16:59:53.000Z</time>
      </trkpt>
      <trkpt lat="48.84888" lon="-0.87691">
        <ele>126.679941</ele>
        <time>2021-09-05T16:59:55.000Z</time>
      </trkpt>
      <trkpt lat="48.84885" lon="-0.87699">
        <ele>126.725274</ele>
        <time>2021-09-05T16:59:58.000Z</time>
      </trkpt>
      <trkpt lat="48.84878" lon="-0.87714">
        <ele>126.818086</ele>
        <time>2021-09-05T17:00:03.000Z</time>
      </trkpt>
      <trkpt lat="48.84862" lon="-0.87748">
        <ele>127.029973</ele>
        <time>2021-09-05T17:00:13.000Z</time>
      </trkpt>
      <trkpt lat="48.84851" lon="-0.87772">
        <ele>127.179569</ele>
        <time>2021-09-05T17:00:20.000Z</time>
      </trkpt>
      <trkpt lat="48.8484" lon="-0.87798">
        <ele>127.338051</ele>
        <time>2021-09-05T17:00:27.000Z</time>
      </trkpt>
      <trkpt lat="48.84826" lon="-0.8783">
        <ele>127.528696</ele>
        <time>2021-09-05T17:00:35.000Z</time>
      </trkpt>
      <trkpt lat="48.84819" lon="-0.87865">
        <ele>127.714885</ele>
        <time>2021-09-05T17:00:42.000Z</time>
      </trkpt>
      <trkpt lat="48.84814" lon="-0.87907">
        <ele>127.982411</ele>
        <time>2021-09-05T17:00:50.000Z</time>
      </trkpt>
      <trkpt lat="48.84811" lon="-0.87945">
        <ele>128.389701</ele>
        <time>2021-09-05T17:00:57.000Z</time>
      </trkpt>
      <trkpt lat="48.84807" lon="-0.8799">
        <ele>128.861226</ele>
        <time>2021-09-05T17:01:05.000Z</time>
      </trkpt>
      <trkpt lat="48.84801" lon="-0.88047">
        <ele>129.479315</ele>
        <time>2021-09-05T17:01:15.000Z</time>
      </trkpt>
      <trkpt lat="48.84796" lon="-0.88094">
        <ele>129.98341</ele>
        <time>2021-09-05T17:01:23.000Z</time>
      </trkpt>
      <trkpt lat="48.84789" lon="-0.88127">
        <ele>130.34351</ele>
        <time>2021-09-05T17:01:29.000Z</time>
      </trkpt>
      <trkpt lat="48.84783" lon="-0.88161">
        <ele>130.720182</ele>
        <time>2021-09-05T17:01:35.000Z</time>
      </trkpt>
      <trkpt lat="48.84773" lon="-0.8821">
        <ele>131.068849</ele>
        <time>2021-09-05T17:01:43.000Z</time>
      </trkpt>
      <trkpt lat="48.84764" lon="-0.88253">
        <ele>131.358207</ele>
        <time>2021-09-05T17:01:50.000Z</time>
      </trkpt>
      <trkpt lat="48.84763" lon="-0.88259">
        <ele>131.396807</ele>
        <time>2021-09-05T17:01:51.000Z</time>
      </trkpt>
      <trkpt lat="48.84755" lon="-0.88296">
        <ele>131.647525</ele>
        <time>2021-09-05T17:01:57.000Z</time>
      </trkpt>
      <trkpt lat="48.84753" lon="-0.88303">
        <ele>131.692203</ele>
        <time>2021-09-05T17:01:58.000Z</time>
      </trkpt>
      <trkpt lat="48.84746" lon="-0.88336">
        <ele>131.915573</ele>
        <time>2021-09-05T17:02:03.000Z</time>
      </trkpt>
      <trkpt lat="48.84737" lon="-0.88372">
        <ele>132.165321</ele>
        <time>2021-09-05T17:02:09.000Z</time>
      </trkpt>
      <trkpt lat="48.84723" lon="-0.88384">
        <ele>132.320984</ele>
        <time>2021-09-05T17:02:14.000Z</time>
      </trkpt>
      <trkpt lat="48.8472" lon="-0.88386">
        <ele>132.3531</ele>
        <time>2021-09-05T17:02:16.000Z</time>
      </trkpt>
      <trkpt lat="48.84719" lon="-0.88387">
        <ele>132.364958</ele>
        <time>2021-09-05T17:02:18.000Z</time>
      </trkpt>
      <trkpt lat="48.84717" lon="-0.88388">
        <ele>132.385218</ele>
        <time>2021-09-05T17:02:21.000Z</time>
      </trkpt>
      <trkpt lat="48.84715" lon="-0.88389">
        <ele>132.402567</ele>
        <time>2021-09-05T17:02:23.000Z</time>
      </trkpt>
      <trkpt lat="48.84714" lon="-0.8839">
        <ele>132.414424</ele>
        <time>2021-09-05T17:02:24.000Z</time>
      </trkpt>
      <trkpt lat="48.84713" lon="-0.88391">
        <ele>132.423981</ele>
        <time>2021-09-05T17:02:29.000Z</time>
      </trkpt>
      <trkpt lat="48.84714" lon="-0.88395">
        <ele>132.455587</ele>
        <time>2021-09-05T17:02:48.000Z</time>
      </trkpt>
      <trkpt lat="48.84723" lon="-0.88401">
        <ele>132.511448</ele>
        <time>2021-09-05T17:02:52.000Z</time>
      </trkpt>
      <trkpt lat="48.84728" lon="-0.88422">
        <ele>132.398615</ele>
        <time>2021-09-05T17:02:54.000Z</time>
      </trkpt>
      <trkpt lat="48.84725" lon="-0.88426">
        <ele>132.371638</ele>
        <time>2021-09-05T17:02:55.000Z</time>
      </trkpt>
      <trkpt lat="48.84723" lon="-0.88431">
        <ele>132.33936</ele>
        <time>2021-09-05T17:02:56.000Z</time>
      </trkpt>
      <trkpt lat="48.84714" lon="-0.88447">
        <ele>132.233035</ele>
        <time>2021-09-05T17:02:59.000Z</time>
      </trkpt>
      <trkpt lat="48.84695" lon="-0.88486">
        <ele>131.979553</ele>
        <time>2021-09-05T17:03:05.000Z</time>
      </trkpt>
      <trkpt lat="48.84666" lon="-0.8854">
        <ele>131.622259</ele>
        <time>2021-09-05T17:03:12.000Z</time>
      </trkpt>
      <trkpt lat="48.84635" lon="-0.8858">
        <ele>131.304048</ele>
        <time>2021-09-05T17:03:18.000Z</time>
      </trkpt>
      <trkpt lat="48.84609" lon="-0.88604">
        <ele>131.121773</ele>
        <time>2021-09-05T17:03:24.000Z</time>
      </trkpt>
      <trkpt lat="48.8458" lon="-0.88626">
        <ele>131.13193</ele>
        <time>2021-09-05T17:03:29.000Z</time>
      </trkpt>
      <trkpt lat="48.84576" lon="-0.8863">
        <ele>131.133536</ele>
        <time>2021-09-05T17:03:30.000Z</time>
      </trkpt>
      <trkpt lat="48.84571" lon="-0.88633">
        <ele>131.135078</ele>
        <time>2021-09-05T17:03:31.000Z</time>
      </trkpt>
      <trkpt lat="48.84551" lon="-0.88648">
        <ele>131.141976</ele>
        <time>2021-09-05T17:03:36.000Z</time>
      </trkpt>
      <trkpt lat="48.84528" lon="-0.88666">
        <ele>131.150026</ele>
        <time>2021-09-05T17:03:43.000Z</time>
      </trkpt>
      <trkpt lat="48.8451" lon="-0.88679">
        <ele>131.156248</ele>
        <time>2021-09-05T17:03:49.000Z</time>
      </trkpt>
      <trkpt lat="48.84485" lon="-0.88696">
        <ele>131.164837</ele>
        <time>2021-09-05T17:03:58.000Z</time>
      </trkpt>
      <trkpt lat="48.8447" lon="-0.88707">
        <ele>131.169963</ele>
        <time>2021-09-05T17:04:04.000Z</time>
      </trkpt>
      <trkpt lat="48.8445" lon="-0.88723">
        <ele>131.314374</ele>
        <time>2021-09-05T17:04:12.000Z</time>
      </trkpt>
      <trkpt lat="48.84432" lon="-0.88737">
        <ele>131.961488</ele>
        <time>2021-09-05T17:04:20.000Z</time>
      </trkpt>
      <trkpt lat="48.84411" lon="-0.88753">
        <ele>132.687508</ele>
        <time>2021-09-05T17:04:27.000Z</time>
      </trkpt>
      <trkpt lat="48.84402" lon="-0.88761">
        <ele>133.033152</ele>
        <time>2021-09-05T17:04:32.000Z</time>
      </trkpt>
      <trkpt lat="48.84379" lon="-0.88778">
        <ele>133.822082</ele>
        <time>2021-09-05T17:04:41.000Z</time>
      </trkpt>
      <trkpt lat="48.84357" lon="-0.88798">
        <ele>134.650195</ele>
        <time>2021-09-05T17:04:49.000Z</time>
      </trkpt>
      <trkpt lat="48.84338" lon="-0.88817">
        <ele>135.361791</ele>
        <time>2021-09-05T17:04:57.000Z</time>
      </trkpt>
      <trkpt lat="48.84317" lon="-0.88837">
        <ele>136.135427</ele>
        <time>2021-09-05T17:05:06.000Z</time>
      </trkpt>
      <trkpt lat="48.84304" lon="-0.88849">
        <ele>136.625092</ele>
        <time>2021-09-05T17:05:13.000Z</time>
      </trkpt>
      <trkpt lat="48.84294" lon="-0.88859">
        <ele>137.228018</ele>
        <time>2021-09-05T17:05:19.000Z</time>
      </trkpt>
      <trkpt lat="48.84286" lon="-0.88867">
        <ele>137.902845</ele>
        <time>2021-09-05T17:05:25.000Z</time>
      </trkpt>
      <trkpt lat="48.84274" lon="-0.88878">
        <ele>138.920825</ele>
        <time>2021-09-05T17:05:32.000Z</time>
      </trkpt>
      <trkpt lat="48.8426" lon="-0.88892">
        <ele>140.157837</ele>
        <time>2021-09-05T17:05:40.000Z</time>
      </trkpt>
      <trkpt lat="48.84247" lon="-0.88904">
        <ele>141.308808</ele>
        <time>2021-09-05T17:05:48.000Z</time>
      </trkpt>
      <trkpt lat="48.84234" lon="-0.8892">
        <ele>142.550311</ele>
        <time>2021-09-05T17:05:57.000Z</time>
      </trkpt>
      <trkpt lat="48.84222" lon="-0.88935">
        <ele>143.713734</ele>
        <time>2021-09-05T17:06:07.000Z</time>
      </trkpt>
      <trkpt lat="48.8421" lon="-0.8895">
        <ele>144.868355</ele>
        <time>2021-09-05T17:06:16.000Z</time>
      </trkpt>
      <trkpt lat="48.84198" lon="-0.88965">
        <ele>146.033495</ele>
        <time>2021-09-05T17:06:24.000Z</time>
      </trkpt>
      <trkpt lat="48.84186" lon="-0.88978">
        <ele>147.080376</ele>
        <time>2021-09-05T17:06:33.000Z</time>
      </trkpt>
      <trkpt lat="48.84173" lon="-0.88994">
        <ele>148.348439</ele>
        <time>2021-09-05T17:06:43.000Z</time>
      </trkpt>
      <trkpt lat="48.84165" lon="-0.89003">
        <ele>149.070937</ele>
        <time>2021-09-05T17:06:49.000Z</time>
      </trkpt>
      <trkpt lat="48.84154" lon="-0.89014">
        <ele>150.071556</ele>
        <time>2021-09-05T17:06:58.000Z</time>
      </trkpt>
      <trkpt lat="48.84137" lon="-0.89029">
        <ele>151.673601</ele>
        <time>2021-09-05T17:07:09.000Z</time>
      </trkpt>
      <trkpt lat="48.84125" lon="-0.89039">
        <ele>152.844656</ele>
        <time>2021-09-05T17:07:17.000Z</time>
      </trkpt>
      <trkpt lat="48.8411" lon="-0.89049">
        <ele>154.213001</ele>
        <time>2021-09-05T17:07:27.000Z</time>
      </trkpt>
      <trkpt lat="48.84098" lon="-0.89056">
        <ele>155.338432</ele>
        <time>2021-09-05T17:07:35.000Z</time>
      </trkpt>
      <trkpt lat="48.84078" lon="-0.89066">
        <ele>157.077078</ele>
        <time>2021-09-05T17:07:46.000Z</time>
      </trkpt>
      <trkpt lat="48.84064" lon="-0.89072">
        <ele>158.302823</ele>
        <time>2021-09-05T17:07:55.000Z</time>
      </trkpt>
      <trkpt lat="48.8405" lon="-0.89074">
        <ele>159.485951</ele>
        <time>2021-09-05T17:08:02.000Z</time>
      </trkpt>
      <trkpt lat="48.84035" lon="-0.89077">
        <ele>160.769753</ele>
        <time>2021-09-05T17:08:11.000Z</time>
      </trkpt>
      <trkpt lat="48.84016" lon="-0.89079">
        <ele>162.360775</ele>
        <time>2021-09-05T17:08:21.000Z</time>
      </trkpt>
      <trkpt lat="48.84" lon="-0.89071">
        <ele>163.822254</ele>
        <time>2021-09-05T17:08:31.000Z</time>
      </trkpt>
      <trkpt lat="48.83994" lon="-0.89065">
        <ele>164.388609</ele>
        <time>2021-09-05T17:08:36.000Z</time>
      </trkpt>
      <trkpt lat="48.83994" lon="-0.89064">
        <ele>164.459403</ele>
        <time>2021-09-05T17:08:37.000Z</time>
      </trkpt>
      <trkpt lat="48.83994" lon="-0.89064">
        <ele>164.459403</ele>
        <time>2021-09-05T17:08:44.000Z</time>
      </trkpt>
      <trkpt lat="48.83994" lon="-0.89064">
        <ele>164.459403</ele>
        <time>2021-09-05T17:09:03.000Z</time>
      </trkpt>
      <trkpt lat="48.83994" lon="-0.89064">
        <ele>164.459403</ele>
        <time>2021-09-05T17:09:23.000Z</time>
      </trkpt>
      <trkpt lat="48.83991" lon="-0.89062">
        <ele>164.75854</ele>
        <time>2021-09-05T17:09:29.000Z</time>
      </trkpt>
      <trkpt lat="48.83983" lon="-0.89057">
        <ele>165.413595</ele>
        <time>2021-09-05T17:09:34.000Z</time>
      </trkpt>
      <trkpt lat="48.83963" lon="-0.89041">
        <ele>166.232498</ele>
        <time>2021-09-05T17:09:41.000Z</time>
      </trkpt>
      <trkpt lat="48.83946" lon="-0.89025">
        <ele>166.961457</ele>
        <time>2021-09-05T17:09:48.000Z</time>
      </trkpt>
      <trkpt lat="48.83924" lon="-0.89005">
        <ele>167.860349</ele>
        <time>2021-09-05T17:09:57.000Z</time>
      </trkpt>
      <trkpt lat="48.83905" lon="-0.88986">
        <ele>168.700142</ele>
        <time>2021-09-05T17:10:05.000Z</time>
      </trkpt>
      <trkpt lat="48.83892" lon="-0.88974">
        <ele>169.251799</ele>
        <time>2021-09-05T17:10:11.000Z</time>
      </trkpt>
      <trkpt lat="48.83874" lon="-0.88957">
        <ele>170.006626</ele>
        <time>2021-09-05T17:10:17.000Z</time>
      </trkpt>
      <trkpt lat="48.83863" lon="-0.88947">
        <ele>170.443141</ele>
        <time>2021-09-05T17:10:22.000Z</time>
      </trkpt>
      <trkpt lat="48.83847" lon="-0.88954">
        <ele>171.047306</ele>
        <time>2021-09-05T17:10:26.000Z</time>
      </trkpt>
      <trkpt lat="48.83841" lon="-0.88949">
        <ele>171.288698</ele>
        <time>2021-09-05T17:10:27.000Z</time>
      </trkpt>
      <trkpt lat="48.83836" lon="-0.88932">
        <ele>171.733558</ele>
        <time>2021-09-05T17:10:28.000Z</time>
      </trkpt>
      <trkpt lat="48.83838" lon="-0.88921">
        <ele>172.06231</ele>
        <time>2021-09-05T17:10:31.000Z</time>
      </trkpt>
      <trkpt lat="48.8384" lon="-0.88891">
        <ele>173.018828</ele>
        <time>2021-09-05T17:10:36.000Z</time>
      </trkpt>
      <trkpt lat="48.83831" lon="-0.88866">
        <ele>173.912767</ele>
        <time>2021-09-05T17:10:44.000Z</time>
      </trkpt>
      <trkpt lat="48.83825" lon="-0.88849">
        <ele>174.51758</ele>
        <time>2021-09-05T17:10:50.000Z</time>
      </trkpt>
      <trkpt lat="48.83819" lon="-0.88831">
        <ele>175.181669</ele>
        <time>2021-09-05T17:10:57.000Z</time>
      </trkpt>
      <trkpt lat="48.83813" lon="-0.88814">
        <ele>175.774704</ele>
        <time>2021-09-05T17:11:04.000Z</time>
      </trkpt>
      <trkpt lat="48.83806" lon="-0.88794">
        <ele>176.518463</ele>
        <time>2021-09-05T17:11:11.000Z</time>
      </trkpt>
      <trkpt lat="48.83798" lon="-0.88774">
        <ele>177.263036</ele>
        <time>2021-09-05T17:11:19.000Z</time>
      </trkpt>
      <trkpt lat="48.83792" lon="-0.88759">
        <ele>177.810217</ele>
        <time>2021-09-05T17:11:26.000Z</time>
      </trkpt>
      <trkpt lat="48.83783" lon="-0.88731">
        <ele>178.815427</ele>
        <time>2021-09-05T17:11:36.000Z</time>
      </trkpt>
      <trkpt lat="48.83775" lon="-0.88708">
        <ele>179.649579</ele>
        <time>2021-09-05T17:11:43.000Z</time>
      </trkpt>
      <trkpt lat="48.83767" lon="-0.88672">
        <ele>180.83428</ele>
        <time>2021-09-05T17:11:53.000Z</time>
      </trkpt>
      <trkpt lat="48.83761" lon="-0.88642">
        <ele>181.852784</ele>
        <time>2021-09-05T17:12:01.000Z</time>
      </trkpt>
      <trkpt lat="48.83753" lon="-0.88608">
        <ele>183.006907</ele>
        <time>2021-09-05T17:12:10.000Z</time>
      </trkpt>
      <trkpt lat="48.83747" lon="-0.88581">
        <ele>183.926678</ele>
        <time>2021-09-05T17:12:17.000Z</time>
      </trkpt>
      <trkpt lat="48.83738" lon="-0.88551">
        <ele>184.974066</ele>
        <time>2021-09-05T17:12:25.000Z</time>
      </trkpt>
      <trkpt lat="48.83729" lon="-0.8852">
        <ele>186.072327</ele>
        <time>2021-09-05T17:12:34.000Z</time>
      </trkpt>
      <trkpt lat="48.83721" lon="-0.88493">
        <ele>187.037592</ele>
        <time>2021-09-05T17:12:42.000Z</time>
      </trkpt>
      <trkpt lat="48.83711" lon="-0.88462">
        <ele>188.128216</ele>
        <time>2021-09-05T17:12:51.000Z</time>
      </trkpt>
      <trkpt lat="48.83701" lon="-0.88418">
        <ele>189.567019</ele>
        <time>2021-09-05T17:13:03.000Z</time>
      </trkpt>
      <trkpt lat="48.83694" lon="-0.88386">
        <ele>190.46245</ele>
        <time>2021-09-05T17:13:12.000Z</time>
      </trkpt>
      <trkpt lat="48.83688" lon="-0.88363">
        <ele>191.160631</ele>
        <time>2021-09-05T17:13:19.000Z</time>
      </trkpt>
      <trkpt lat="48.83684" lon="-0.88326">
        <ele>192.1481</ele>
        <time>2021-09-05T17:13:29.000Z</time>
      </trkpt>
      <trkpt lat="48.83682" lon="-0.88295">
        <ele>193.00057</ele>
        <time>2021-09-05T17:13:37.000Z</time>
      </trkpt>
      <trkpt lat="48.83681" lon="-0.88253">
        <ele>194.1313</ele>
        <time>2021-09-05T17:13:47.000Z</time>
      </trkpt>
      <trkpt lat="48.83683" lon="-0.8821">
        <ele>195.29521</ele>
        <time>2021-09-05T17:13:56.000Z</time>
      </trkpt>
      <trkpt lat="48.83684" lon="-0.8818">
        <ele>196.11477</ele>
        <time>2021-09-05T17:14:03.000Z</time>
      </trkpt>
      <trkpt lat="48.83681" lon="-0.88165">
        <ele>196.515786</ele>
        <time>2021-09-05T17:14:05.000Z</time>
      </trkpt>
      <trkpt lat="48.83675" lon="-0.88143">
        <ele>196.680457</ele>
        <time>2021-09-05T17:14:08.000Z</time>
      </trkpt>
      <trkpt lat="48.83673" lon="-0.88124">
        <ele>196.660851</ele>
        <time>2021-09-05T17:14:10.000Z</time>
      </trkpt>
      <trkpt lat="48.8367" lon="-0.88104">
        <ele>196.639475</ele>
        <time>2021-09-05T17:14:12.000Z</time>
      </trkpt>
      <trkpt lat="48.83662" lon="-0.88045">
        <ele>196.577613</ele>
        <time>2021-09-05T17:14:17.000Z</time>
      </trkpt>
      <trkpt lat="48.83656" lon="-0.88005">
        <ele>196.535494</ele>
        <time>2021-09-05T17:14:20.000Z</time>
      </trkpt>
      <trkpt lat="48.83655" lon="-0.87991">
        <ele>196.520962</ele>
        <time>2021-09-05T17:14:22.000Z</time>
      </trkpt>
      <trkpt lat="48.83642" lon="-0.87909">
        <ele>196.43529</ele>
        <time>2021-09-05T17:14:27.000Z</time>
      </trkpt>
      <trkpt lat="48.83638" lon="-0.87884">
        <ele>196.339108</ele>
        <time>2021-09-05T17:14:29.000Z</time>
      </trkpt>
      <trkpt lat="48.83634" lon="-0.8786">
        <ele>196.120478</ele>
        <time>2021-09-05T17:14:32.000Z</time>
      </trkpt>
      <trkpt lat="48.83626" lon="-0.87828">
        <ele>195.812404</ele>
        <time>2021-09-05T17:14:34.000Z</time>
      </trkpt>
      <trkpt lat="48.83616" lon="-0.8781">
        <ele>195.60625</ele>
        <time>2021-09-05T17:14:36.000Z</time>
      </trkpt>
      <trkpt lat="48.83609" lon="-0.87804">
        <ele>195.502965</ele>
        <time>2021-09-05T17:14:38.000Z</time>
      </trkpt>
      <trkpt lat="48.83582" lon="-0.8779">
        <ele>195.116356</ele>
        <time>2021-09-05T17:14:42.000Z</time>
      </trkpt>
      <trkpt lat="48.83578" lon="-0.87789">
        <ele>195.055948</ele>
        <time>2021-09-05T17:14:43.000Z</time>
      </trkpt>
      <trkpt lat="48.83572" lon="-0.87774">
        <ele>194.905636</ele>
        <time>2021-09-05T17:14:46.000Z</time>
      </trkpt>
      <trkpt lat="48.83565" lon="-0.87757">
        <ele>194.728778</ele>
        <time>2021-09-05T17:14:52.000Z</time>
      </trkpt>
      <trkpt lat="48.83558" lon="-0.87739">
        <ele>194.546009</ele>
        <time>2021-09-05T17:14:58.000Z</time>
      </trkpt>
      <trkpt lat="48.83552" lon="-0.87725">
        <ele>194.400046</ele>
        <time>2021-09-05T17:15:04.000Z</time>
      </trkpt>
      <trkpt lat="48.83551" lon="-0.87724">
        <ele>194.386045</ele>
        <time>2021-09-05T17:15:05.000Z</time>
      </trkpt>
      <trkpt lat="48.83551" lon="-0.87722">
        <ele>194.369037</ele>
        <time>2021-09-05T17:15:06.000Z</time>
      </trkpt>
      <trkpt lat="48.83547" lon="-0.87714">
        <ele>194.27913</ele>
        <time>2021-09-05T17:15:10.000Z</time>
      </trkpt>
      <trkpt lat="48.8354" lon="-0.87695">
        <ele>194.083839</ele>
        <time>2021-09-05T17:15:18.000Z</time>
      </trkpt>
      <trkpt lat="48.83537" lon="-0.87687">
        <ele>194.008655</ele>
        <time>2021-09-05T17:15:21.000Z</time>
      </trkpt>
      <trkpt lat="48.83536" lon="-0.87685">
        <ele>194.008523</ele>
        <time>2021-09-05T17:15:23.000Z</time>
      </trkpt>
      <trkpt lat="48.8353" lon="-0.8767">
        <ele>194.008523</ele>
        <time>2021-09-05T17:15:28.000Z</time>
      </trkpt>
      <trkpt lat="48.8352" lon="-0.87645">
        <ele>194.008523</ele>
        <time>2021-09-05T17:15:37.000Z</time>
      </trkpt>
      <trkpt lat="48.83512" lon="-0.87625">
        <ele>194.008523</ele>
        <time>2021-09-05T17:15:45.000Z</time>
      </trkpt>
      <trkpt lat="48.83512" lon="-0.87625">
        <ele>194.008523</ele>
        <time>2021-09-05T17:15:46.000Z</time>
      </trkpt>
      <trkpt lat="48.83511" lon="-0.87622">
        <ele>194.008523</ele>
        <time>2021-09-05T17:15:49.000Z</time>
      </trkpt>
      <trkpt lat="48.83508" lon="-0.8761">
        <ele>194.008523</ele>
        <time>2021-09-05T17:15:53.000Z</time>
      </trkpt>
      <trkpt lat="48.83501" lon="-0.87581">
        <ele>194.008523</ele>
        <time>2021-09-05T17:15:59.000Z</time>
      </trkpt>
      <trkpt lat="48.83492" lon="-0.87564">
        <ele>194.008523</ele>
        <time>2021-09-05T17:16:05.000Z</time>
      </trkpt>
      <trkpt lat="48.83481" lon="-0.87545">
        <ele>194.008523</ele>
        <time>2021-09-05T17:16:09.000Z</time>
      </trkpt>
      <trkpt lat="48.83473" lon="-0.8753">
        <ele>194.008523</ele>
        <time>2021-09-05T17:16:11.000Z</time>
      </trkpt>
      <trkpt lat="48.83455" lon="-0.87496">
        <ele>194.008523</ele>
        <time>2021-09-05T17:16:18.000Z</time>
      </trkpt>
      <trkpt lat="48.83428" lon="-0.87447">
        <ele>194.008523</ele>
        <time>2021-09-05T17:16:26.000Z</time>
      </trkpt>
      <trkpt lat="48.83411" lon="-0.87424">
        <ele>194.008523</ele>
        <time>2021-09-05T17:16:32.000Z</time>
      </trkpt>
      <trkpt lat="48.83394" lon="-0.87408">
        <ele>194.008523</ele>
        <time>2021-09-05T17:16:38.000Z</time>
      </trkpt>
      <trkpt lat="48.8338" lon="-0.87394">
        <ele>194.008523</ele>
        <time>2021-09-05T17:16:44.000Z</time>
      </trkpt>
      <trkpt lat="48.83371" lon="-0.87386">
        <ele>194.008523</ele>
        <time>2021-09-05T17:16:50.000Z</time>
      </trkpt>
      <trkpt lat="48.83369" lon="-0.87383">
        <ele>194.008523</ele>
        <time>2021-09-05T17:16:53.000Z</time>
      </trkpt>
    </trkseg>
  </trk>
</gpx>